<?xml version="1.0" encoding="UTF-8" standalone="no" ?>
<gpx xmlns="http://www.topografix.com/GPX/1/1" xmlns:xsi="http://www.w3.org/2001/XMLSchema-instance" xsi:schemaLocation="http://www.topografix.com/GPX/1/1 http://www.topografix.com/GPX/1/1/gpx.xsd" version="1.1" creator="VisuGPX - https://www.visugpx.com">
  <metadata>
    <name>traversée de la chartreuse</name>
    <desc><![CDATA[tres roulante !
Intérêt : ****]]></desc>
  </metadata>
  <trk>
    <name><![CDATA[2014-08-24-01]]></name>
    <trkseg>
      <trkpt lat="45.50195" lon="5.99714">
        <ele>326.9</ele>
        <time>2014-08-24T10:17:53Z</time>
      </trkpt>
      <trkpt lat="45.50195" lon="5.99714">
        <ele>326.9</ele>
        <time>2014-08-24T10:17:54Z</time>
      </trkpt>
      <trkpt lat="45.50206" lon="5.99729">
        <ele>326</ele>
        <time>2014-08-24T10:18:23Z</time>
      </trkpt>
      <trkpt lat="45.50199" lon="5.99737">
        <ele>326.3</ele>
        <time>2014-08-24T10:18:40Z</time>
      </trkpt>
      <trkpt lat="45.5019" lon="5.99743">
        <ele>326.9</ele>
        <time>2014-08-24T10:18:54Z</time>
      </trkpt>
      <trkpt lat="45.50186" lon="5.99755">
        <ele>327.1</ele>
        <time>2014-08-24T10:18:59Z</time>
      </trkpt>
      <trkpt lat="45.5018" lon="5.99766">
        <ele>326.7</ele>
        <time>2014-08-24T10:19:03Z</time>
      </trkpt>
      <trkpt lat="45.50176" lon="5.99777">
        <ele>326.4</ele>
        <time>2014-08-24T10:19:06Z</time>
      </trkpt>
      <trkpt lat="45.50167" lon="5.99772">
        <ele>325.8</ele>
        <time>2014-08-24T10:19:09Z</time>
      </trkpt>
      <trkpt lat="45.50163" lon="5.99758">
        <ele>326.3</ele>
        <time>2014-08-24T10:19:12Z</time>
      </trkpt>
      <trkpt lat="45.50153" lon="5.99754">
        <ele>326.4</ele>
        <time>2014-08-24T10:19:15Z</time>
      </trkpt>
      <trkpt lat="45.50144" lon="5.99767">
        <ele>326.4</ele>
        <time>2014-08-24T10:19:18Z</time>
      </trkpt>
      <trkpt lat="45.50135" lon="5.99773">
        <ele>326.4</ele>
        <time>2014-08-24T10:19:20Z</time>
      </trkpt>
      <trkpt lat="45.50126" lon="5.99778">
        <ele>326.4</ele>
        <time>2014-08-24T10:19:22Z</time>
      </trkpt>
      <trkpt lat="45.50116" lon="5.99785">
        <ele>326.3</ele>
        <time>2014-08-24T10:19:24Z</time>
      </trkpt>
      <trkpt lat="45.50106" lon="5.99793">
        <ele>326.4</ele>
        <time>2014-08-24T10:19:26Z</time>
      </trkpt>
      <trkpt lat="45.50097" lon="5.99803">
        <ele>326</ele>
        <time>2014-08-24T10:19:28Z</time>
      </trkpt>
      <trkpt lat="45.50088" lon="5.99815">
        <ele>325.7</ele>
        <time>2014-08-24T10:19:30Z</time>
      </trkpt>
      <trkpt lat="45.5008" lon="5.99828">
        <ele>325.3</ele>
        <time>2014-08-24T10:19:32Z</time>
      </trkpt>
      <trkpt lat="45.50071" lon="5.99842">
        <ele>325</ele>
        <time>2014-08-24T10:19:34Z</time>
      </trkpt>
      <trkpt lat="45.50061" lon="5.99857">
        <ele>324.5</ele>
        <time>2014-08-24T10:19:36Z</time>
      </trkpt>
      <trkpt lat="45.50051" lon="5.99871">
        <ele>324.1</ele>
        <time>2014-08-24T10:19:38Z</time>
      </trkpt>
      <trkpt lat="45.5004" lon="5.99883">
        <ele>323.8</ele>
        <time>2014-08-24T10:19:40Z</time>
      </trkpt>
      <trkpt lat="45.50028" lon="5.99895">
        <ele>323.3</ele>
        <time>2014-08-24T10:19:42Z</time>
      </trkpt>
      <trkpt lat="45.50016" lon="5.99906">
        <ele>322.8</ele>
        <time>2014-08-24T10:19:44Z</time>
      </trkpt>
      <trkpt lat="45.50003" lon="5.99916">
        <ele>321.7</ele>
        <time>2014-08-24T10:19:46Z</time>
      </trkpt>
      <trkpt lat="45.49991" lon="5.99927">
        <ele>321</ele>
        <time>2014-08-24T10:19:48Z</time>
      </trkpt>
      <trkpt lat="45.49978" lon="5.99937">
        <ele>320.4</ele>
        <time>2014-08-24T10:19:50Z</time>
      </trkpt>
      <trkpt lat="45.49966" lon="5.99948">
        <ele>320.3</ele>
        <time>2014-08-24T10:19:52Z</time>
      </trkpt>
      <trkpt lat="45.49953" lon="5.99961">
        <ele>319.6</ele>
        <time>2014-08-24T10:19:54Z</time>
      </trkpt>
      <trkpt lat="45.49942" lon="5.99974">
        <ele>318.9</ele>
        <time>2014-08-24T10:19:56Z</time>
      </trkpt>
      <trkpt lat="45.49931" lon="5.99986">
        <ele>318.7</ele>
        <time>2014-08-24T10:19:58Z</time>
      </trkpt>
      <trkpt lat="45.49919" lon="5.99996">
        <ele>318.6</ele>
        <time>2014-08-24T10:20:00Z</time>
      </trkpt>
      <trkpt lat="45.49909" lon="6.00009">
        <ele>318</ele>
        <time>2014-08-24T10:20:02Z</time>
      </trkpt>
      <trkpt lat="45.49898" lon="6.0002">
        <ele>317.5</ele>
        <time>2014-08-24T10:20:04Z</time>
      </trkpt>
      <trkpt lat="45.49889" lon="6.00025">
        <ele>317.6</ele>
        <time>2014-08-24T10:20:06Z</time>
      </trkpt>
      <trkpt lat="45.49881" lon="6.0002">
        <ele>317.5</ele>
        <time>2014-08-24T10:20:08Z</time>
      </trkpt>
      <trkpt lat="45.49872" lon="6.00016">
        <ele>317.3</ele>
        <time>2014-08-24T10:20:10Z</time>
      </trkpt>
      <trkpt lat="45.49862" lon="6.00003">
        <ele>316.8</ele>
        <time>2014-08-24T10:20:13Z</time>
      </trkpt>
      <trkpt lat="45.49854" lon="5.99993">
        <ele>316</ele>
        <time>2014-08-24T10:20:15Z</time>
      </trkpt>
      <trkpt lat="45.49848" lon="5.99983">
        <ele>315</ele>
        <time>2014-08-24T10:20:17Z</time>
      </trkpt>
      <trkpt lat="45.49838" lon="5.99971">
        <ele>313.9</ele>
        <time>2014-08-24T10:20:19Z</time>
      </trkpt>
      <trkpt lat="45.49825" lon="5.99956">
        <ele>312.4</ele>
        <time>2014-08-24T10:20:21Z</time>
      </trkpt>
      <trkpt lat="45.49817" lon="5.99947">
        <ele>311.4</ele>
        <time>2014-08-24T10:20:22Z</time>
      </trkpt>
      <trkpt lat="45.49809" lon="5.99937">
        <ele>310.3</ele>
        <time>2014-08-24T10:20:23Z</time>
      </trkpt>
      <trkpt lat="45.498" lon="5.99927">
        <ele>308.9</ele>
        <time>2014-08-24T10:20:24Z</time>
      </trkpt>
      <trkpt lat="45.49791" lon="5.99916">
        <ele>307.8</ele>
        <time>2014-08-24T10:20:25Z</time>
      </trkpt>
      <trkpt lat="45.49781" lon="5.99905">
        <ele>306.9</ele>
        <time>2014-08-24T10:20:26Z</time>
      </trkpt>
      <trkpt lat="45.49772" lon="5.99894">
        <ele>305.7</ele>
        <time>2014-08-24T10:20:27Z</time>
      </trkpt>
      <trkpt lat="45.49764" lon="5.99884">
        <ele>305</ele>
        <time>2014-08-24T10:20:28Z</time>
      </trkpt>
      <trkpt lat="45.49755" lon="5.99874">
        <ele>304.4</ele>
        <time>2014-08-24T10:20:29Z</time>
      </trkpt>
      <trkpt lat="45.49748" lon="5.99864">
        <ele>303.9</ele>
        <time>2014-08-24T10:20:30Z</time>
      </trkpt>
      <trkpt lat="45.4974" lon="5.99856">
        <ele>303.4</ele>
        <time>2014-08-24T10:20:31Z</time>
      </trkpt>
      <trkpt lat="45.49732" lon="5.99848">
        <ele>303</ele>
        <time>2014-08-24T10:20:32Z</time>
      </trkpt>
      <trkpt lat="45.49725" lon="5.9984">
        <ele>302.6</ele>
        <time>2014-08-24T10:20:33Z</time>
      </trkpt>
      <trkpt lat="45.49718" lon="5.99832">
        <ele>302.2</ele>
        <time>2014-08-24T10:20:34Z</time>
      </trkpt>
      <trkpt lat="45.49711" lon="5.99823">
        <ele>301.9</ele>
        <time>2014-08-24T10:20:35Z</time>
      </trkpt>
      <trkpt lat="45.49698" lon="5.99805">
        <ele>301.2</ele>
        <time>2014-08-24T10:20:37Z</time>
      </trkpt>
      <trkpt lat="45.49692" lon="5.99796">
        <ele>300.7</ele>
        <time>2014-08-24T10:20:38Z</time>
      </trkpt>
      <trkpt lat="45.49679" lon="5.99779">
        <ele>300</ele>
        <time>2014-08-24T10:20:40Z</time>
      </trkpt>
      <trkpt lat="45.49667" lon="5.99762">
        <ele>299.1</ele>
        <time>2014-08-24T10:20:42Z</time>
      </trkpt>
      <trkpt lat="45.49656" lon="5.99748">
        <ele>298.5</ele>
        <time>2014-08-24T10:20:44Z</time>
      </trkpt>
      <trkpt lat="45.49651" lon="5.99736">
        <ele>297.9</ele>
        <time>2014-08-24T10:20:46Z</time>
      </trkpt>
      <trkpt lat="45.49652" lon="5.99723">
        <ele>297.5</ele>
        <time>2014-08-24T10:20:48Z</time>
      </trkpt>
      <trkpt lat="45.49654" lon="5.99709">
        <ele>297.4</ele>
        <time>2014-08-24T10:20:50Z</time>
      </trkpt>
      <trkpt lat="45.49655" lon="5.99693">
        <ele>297</ele>
        <time>2014-08-24T10:20:52Z</time>
      </trkpt>
      <trkpt lat="45.49653" lon="5.99676">
        <ele>296.6</ele>
        <time>2014-08-24T10:20:54Z</time>
      </trkpt>
      <trkpt lat="45.49652" lon="5.99658">
        <ele>296.4</ele>
        <time>2014-08-24T10:20:56Z</time>
      </trkpt>
      <trkpt lat="45.49651" lon="5.99638">
        <ele>296</ele>
        <time>2014-08-24T10:20:58Z</time>
      </trkpt>
      <trkpt lat="45.49648" lon="5.99619">
        <ele>296.2</ele>
        <time>2014-08-24T10:21:00Z</time>
      </trkpt>
      <trkpt lat="45.49646" lon="5.996">
        <ele>296.3</ele>
        <time>2014-08-24T10:21:02Z</time>
      </trkpt>
      <trkpt lat="45.49644" lon="5.99581">
        <ele>296.1</ele>
        <time>2014-08-24T10:21:04Z</time>
      </trkpt>
      <trkpt lat="45.49642" lon="5.99562">
        <ele>296</ele>
        <time>2014-08-24T10:21:06Z</time>
      </trkpt>
      <trkpt lat="45.49639" lon="5.99544">
        <ele>296.2</ele>
        <time>2014-08-24T10:21:08Z</time>
      </trkpt>
      <trkpt lat="45.49635" lon="5.99526">
        <ele>296</ele>
        <time>2014-08-24T10:21:10Z</time>
      </trkpt>
      <trkpt lat="45.4963" lon="5.99507">
        <ele>296.2</ele>
        <time>2014-08-24T10:21:12Z</time>
      </trkpt>
      <trkpt lat="45.49625" lon="5.99488">
        <ele>296.3</ele>
        <time>2014-08-24T10:21:14Z</time>
      </trkpt>
      <trkpt lat="45.49619" lon="5.99469">
        <ele>296.5</ele>
        <time>2014-08-24T10:21:16Z</time>
      </trkpt>
      <trkpt lat="45.49614" lon="5.99451">
        <ele>296.7</ele>
        <time>2014-08-24T10:21:18Z</time>
      </trkpt>
      <trkpt lat="45.4961" lon="5.99431">
        <ele>296.5</ele>
        <time>2014-08-24T10:21:20Z</time>
      </trkpt>
      <trkpt lat="45.49605" lon="5.99411">
        <ele>296.6</ele>
        <time>2014-08-24T10:21:22Z</time>
      </trkpt>
      <trkpt lat="45.49601" lon="5.99393">
        <ele>296.6</ele>
        <time>2014-08-24T10:21:24Z</time>
      </trkpt>
      <trkpt lat="45.49597" lon="5.99375">
        <ele>296.8</ele>
        <time>2014-08-24T10:21:26Z</time>
      </trkpt>
      <trkpt lat="45.49592" lon="5.99356">
        <ele>296.7</ele>
        <time>2014-08-24T10:21:28Z</time>
      </trkpt>
      <trkpt lat="45.49587" lon="5.99338">
        <ele>296.7</ele>
        <time>2014-08-24T10:21:30Z</time>
      </trkpt>
      <trkpt lat="45.49583" lon="5.99321">
        <ele>296.4</ele>
        <time>2014-08-24T10:21:32Z</time>
      </trkpt>
      <trkpt lat="45.49578" lon="5.99304">
        <ele>296.4</ele>
        <time>2014-08-24T10:21:34Z</time>
      </trkpt>
      <trkpt lat="45.49575" lon="5.99287">
        <ele>296.3</ele>
        <time>2014-08-24T10:21:36Z</time>
      </trkpt>
      <trkpt lat="45.49571" lon="5.9927">
        <ele>296.4</ele>
        <time>2014-08-24T10:21:38Z</time>
      </trkpt>
      <trkpt lat="45.49567" lon="5.99253">
        <ele>296.4</ele>
        <time>2014-08-24T10:21:40Z</time>
      </trkpt>
      <trkpt lat="45.49563" lon="5.99236">
        <ele>296.5</ele>
        <time>2014-08-24T10:21:42Z</time>
      </trkpt>
      <trkpt lat="45.49559" lon="5.99219">
        <ele>296.8</ele>
        <time>2014-08-24T10:21:44Z</time>
      </trkpt>
      <trkpt lat="45.49555" lon="5.99204">
        <ele>296.9</ele>
        <time>2014-08-24T10:21:46Z</time>
      </trkpt>
      <trkpt lat="45.49551" lon="5.99188">
        <ele>297.3</ele>
        <time>2014-08-24T10:21:48Z</time>
      </trkpt>
      <trkpt lat="45.49547" lon="5.99173">
        <ele>297.1</ele>
        <time>2014-08-24T10:21:50Z</time>
      </trkpt>
      <trkpt lat="45.49545" lon="5.99158">
        <ele>297.1</ele>
        <time>2014-08-24T10:21:52Z</time>
      </trkpt>
      <trkpt lat="45.49541" lon="5.99143">
        <ele>296.9</ele>
        <time>2014-08-24T10:21:54Z</time>
      </trkpt>
      <trkpt lat="45.49538" lon="5.99128">
        <ele>296.9</ele>
        <time>2014-08-24T10:21:56Z</time>
      </trkpt>
      <trkpt lat="45.49534" lon="5.99113">
        <ele>297.1</ele>
        <time>2014-08-24T10:21:58Z</time>
      </trkpt>
      <trkpt lat="45.49529" lon="5.99099">
        <ele>297</ele>
        <time>2014-08-24T10:22:00Z</time>
      </trkpt>
      <trkpt lat="45.49524" lon="5.99083">
        <ele>296.9</ele>
        <time>2014-08-24T10:22:02Z</time>
      </trkpt>
      <trkpt lat="45.49519" lon="5.99067">
        <ele>296.5</ele>
        <time>2014-08-24T10:22:04Z</time>
      </trkpt>
      <trkpt lat="45.49511" lon="5.99054">
        <ele>296.2</ele>
        <time>2014-08-24T10:22:06Z</time>
      </trkpt>
      <trkpt lat="45.49502" lon="5.99043">
        <ele>295.9</ele>
        <time>2014-08-24T10:22:08Z</time>
      </trkpt>
      <trkpt lat="45.49494" lon="5.99029">
        <ele>295.9</ele>
        <time>2014-08-24T10:22:10Z</time>
      </trkpt>
      <trkpt lat="45.49486" lon="5.99015">
        <ele>295.8</ele>
        <time>2014-08-24T10:22:12Z</time>
      </trkpt>
      <trkpt lat="45.49478" lon="5.99001">
        <ele>295.8</ele>
        <time>2014-08-24T10:22:14Z</time>
      </trkpt>
      <trkpt lat="45.4947" lon="5.98988">
        <ele>295.7</ele>
        <time>2014-08-24T10:22:16Z</time>
      </trkpt>
      <trkpt lat="45.49462" lon="5.98975">
        <ele>295.8</ele>
        <time>2014-08-24T10:22:18Z</time>
      </trkpt>
      <trkpt lat="45.49454" lon="5.98963">
        <ele>295.6</ele>
        <time>2014-08-24T10:22:20Z</time>
      </trkpt>
      <trkpt lat="45.49446" lon="5.9895">
        <ele>295.3</ele>
        <time>2014-08-24T10:22:22Z</time>
      </trkpt>
      <trkpt lat="45.49437" lon="5.98938">
        <ele>295.2</ele>
        <time>2014-08-24T10:22:24Z</time>
      </trkpt>
      <trkpt lat="45.49428" lon="5.98925">
        <ele>294.8</ele>
        <time>2014-08-24T10:22:26Z</time>
      </trkpt>
      <trkpt lat="45.49419" lon="5.98911">
        <ele>294.5</ele>
        <time>2014-08-24T10:22:28Z</time>
      </trkpt>
      <trkpt lat="45.49409" lon="5.98897">
        <ele>294.6</ele>
        <time>2014-08-24T10:22:30Z</time>
      </trkpt>
      <trkpt lat="45.49399" lon="5.98883">
        <ele>294.7</ele>
        <time>2014-08-24T10:22:32Z</time>
      </trkpt>
      <trkpt lat="45.4939" lon="5.98868">
        <ele>294.6</ele>
        <time>2014-08-24T10:22:34Z</time>
      </trkpt>
      <trkpt lat="45.4938" lon="5.98854">
        <ele>294.5</ele>
        <time>2014-08-24T10:22:36Z</time>
      </trkpt>
      <trkpt lat="45.49372" lon="5.98845">
        <ele>294.5</ele>
        <time>2014-08-24T10:22:38Z</time>
      </trkpt>
      <trkpt lat="45.49364" lon="5.98838">
        <ele>294.2</ele>
        <time>2014-08-24T10:22:40Z</time>
      </trkpt>
      <trkpt lat="45.49356" lon="5.98825">
        <ele>294</ele>
        <time>2014-08-24T10:22:42Z</time>
      </trkpt>
      <trkpt lat="45.49348" lon="5.9881">
        <ele>294.1</ele>
        <time>2014-08-24T10:22:44Z</time>
      </trkpt>
      <trkpt lat="45.49339" lon="5.98796">
        <ele>294.2</ele>
        <time>2014-08-24T10:22:46Z</time>
      </trkpt>
      <trkpt lat="45.49329" lon="5.98783">
        <ele>293.7</ele>
        <time>2014-08-24T10:22:48Z</time>
      </trkpt>
      <trkpt lat="45.49321" lon="5.9877">
        <ele>293.9</ele>
        <time>2014-08-24T10:22:50Z</time>
      </trkpt>
      <trkpt lat="45.49312" lon="5.98757">
        <ele>294.3</ele>
        <time>2014-08-24T10:22:52Z</time>
      </trkpt>
      <trkpt lat="45.49303" lon="5.98745">
        <ele>294.3</ele>
        <time>2014-08-24T10:22:54Z</time>
      </trkpt>
      <trkpt lat="45.49295" lon="5.98733">
        <ele>294.7</ele>
        <time>2014-08-24T10:22:56Z</time>
      </trkpt>
      <trkpt lat="45.49288" lon="5.98722">
        <ele>295.1</ele>
        <time>2014-08-24T10:22:58Z</time>
      </trkpt>
      <trkpt lat="45.49281" lon="5.98711">
        <ele>295.6</ele>
        <time>2014-08-24T10:23:00Z</time>
      </trkpt>
      <trkpt lat="45.49273" lon="5.987">
        <ele>295.8</ele>
        <time>2014-08-24T10:23:02Z</time>
      </trkpt>
      <trkpt lat="45.49265" lon="5.98689">
        <ele>296.2</ele>
        <time>2014-08-24T10:23:04Z</time>
      </trkpt>
      <trkpt lat="45.49258" lon="5.98678">
        <ele>296.5</ele>
        <time>2014-08-24T10:23:06Z</time>
      </trkpt>
      <trkpt lat="45.4925" lon="5.98666">
        <ele>296.8</ele>
        <time>2014-08-24T10:23:08Z</time>
      </trkpt>
      <trkpt lat="45.49242" lon="5.98654">
        <ele>296.8</ele>
        <time>2014-08-24T10:23:10Z</time>
      </trkpt>
      <trkpt lat="45.49234" lon="5.98643">
        <ele>296.7</ele>
        <time>2014-08-24T10:23:12Z</time>
      </trkpt>
      <trkpt lat="45.49225" lon="5.98631">
        <ele>296.6</ele>
        <time>2014-08-24T10:23:14Z</time>
      </trkpt>
      <trkpt lat="45.49216" lon="5.98618">
        <ele>296.5</ele>
        <time>2014-08-24T10:23:16Z</time>
      </trkpt>
      <trkpt lat="45.49208" lon="5.98606">
        <ele>296.4</ele>
        <time>2014-08-24T10:23:18Z</time>
      </trkpt>
      <trkpt lat="45.492" lon="5.98594">
        <ele>296.4</ele>
        <time>2014-08-24T10:23:20Z</time>
      </trkpt>
      <trkpt lat="45.49192" lon="5.98582">
        <ele>296.5</ele>
        <time>2014-08-24T10:23:22Z</time>
      </trkpt>
      <trkpt lat="45.49185" lon="5.98571">
        <ele>296.5</ele>
        <time>2014-08-24T10:23:24Z</time>
      </trkpt>
      <trkpt lat="45.49179" lon="5.98561">
        <ele>297.1</ele>
        <time>2014-08-24T10:23:26Z</time>
      </trkpt>
      <trkpt lat="45.49173" lon="5.98551">
        <ele>297.4</ele>
        <time>2014-08-24T10:23:28Z</time>
      </trkpt>
      <trkpt lat="45.49168" lon="5.9854">
        <ele>297.8</ele>
        <time>2014-08-24T10:23:30Z</time>
      </trkpt>
      <trkpt lat="45.49163" lon="5.98529">
        <ele>298.2</ele>
        <time>2014-08-24T10:23:32Z</time>
      </trkpt>
      <trkpt lat="45.4916" lon="5.98517">
        <ele>298.6</ele>
        <time>2014-08-24T10:23:34Z</time>
      </trkpt>
      <trkpt lat="45.49157" lon="5.98503">
        <ele>298.8</ele>
        <time>2014-08-24T10:23:36Z</time>
      </trkpt>
      <trkpt lat="45.49154" lon="5.98489">
        <ele>299</ele>
        <time>2014-08-24T10:23:38Z</time>
      </trkpt>
      <trkpt lat="45.49153" lon="5.98475">
        <ele>299.2</ele>
        <time>2014-08-24T10:23:40Z</time>
      </trkpt>
      <trkpt lat="45.49153" lon="5.98461">
        <ele>299.5</ele>
        <time>2014-08-24T10:23:42Z</time>
      </trkpt>
      <trkpt lat="45.49151" lon="5.98447">
        <ele>299.7</ele>
        <time>2014-08-24T10:23:44Z</time>
      </trkpt>
      <trkpt lat="45.49151" lon="5.98434">
        <ele>299.7</ele>
        <time>2014-08-24T10:23:46Z</time>
      </trkpt>
      <trkpt lat="45.49149" lon="5.9842">
        <ele>299.8</ele>
        <time>2014-08-24T10:23:48Z</time>
      </trkpt>
      <trkpt lat="45.49149" lon="5.98407">
        <ele>300.1</ele>
        <time>2014-08-24T10:23:50Z</time>
      </trkpt>
      <trkpt lat="45.4915" lon="5.98388">
        <ele>300.5</ele>
        <time>2014-08-24T10:23:53Z</time>
      </trkpt>
      <trkpt lat="45.49158" lon="5.98373">
        <ele>300.6</ele>
        <time>2014-08-24T10:23:56Z</time>
      </trkpt>
      <trkpt lat="45.49166" lon="5.98366">
        <ele>300.8</ele>
        <time>2014-08-24T10:23:58Z</time>
      </trkpt>
      <trkpt lat="45.49179" lon="5.98362">
        <ele>301.2</ele>
        <time>2014-08-24T10:24:01Z</time>
      </trkpt>
      <trkpt lat="45.49191" lon="5.98362">
        <ele>301.9</ele>
        <time>2014-08-24T10:24:04Z</time>
      </trkpt>
      <trkpt lat="45.49202" lon="5.98363">
        <ele>302.7</ele>
        <time>2014-08-24T10:24:07Z</time>
      </trkpt>
      <trkpt lat="45.49212" lon="5.98364">
        <ele>303.8</ele>
        <time>2014-08-24T10:24:10Z</time>
      </trkpt>
      <trkpt lat="45.49221" lon="5.98365">
        <ele>304.5</ele>
        <time>2014-08-24T10:24:13Z</time>
      </trkpt>
      <trkpt lat="45.49231" lon="5.98367">
        <ele>305.5</ele>
        <time>2014-08-24T10:24:16Z</time>
      </trkpt>
      <trkpt lat="45.49241" lon="5.98369">
        <ele>305.8</ele>
        <time>2014-08-24T10:24:19Z</time>
      </trkpt>
      <trkpt lat="45.4925" lon="5.98368">
        <ele>306.8</ele>
        <time>2014-08-24T10:24:22Z</time>
      </trkpt>
      <trkpt lat="45.49261" lon="5.98367">
        <ele>307.1</ele>
        <time>2014-08-24T10:24:25Z</time>
      </trkpt>
      <trkpt lat="45.49272" lon="5.98365">
        <ele>307.8</ele>
        <time>2014-08-24T10:24:28Z</time>
      </trkpt>
      <trkpt lat="45.49281" lon="5.98362">
        <ele>308.4</ele>
        <time>2014-08-24T10:24:31Z</time>
      </trkpt>
      <trkpt lat="45.49291" lon="5.98359">
        <ele>308.8</ele>
        <time>2014-08-24T10:24:34Z</time>
      </trkpt>
      <trkpt lat="45.493" lon="5.98358">
        <ele>309.6</ele>
        <time>2014-08-24T10:24:37Z</time>
      </trkpt>
      <trkpt lat="45.49312" lon="5.98355">
        <ele>310.3</ele>
        <time>2014-08-24T10:24:41Z</time>
      </trkpt>
      <trkpt lat="45.49321" lon="5.98353">
        <ele>311.2</ele>
        <time>2014-08-24T10:24:44Z</time>
      </trkpt>
      <trkpt lat="45.4933" lon="5.98351">
        <ele>311.8</ele>
        <time>2014-08-24T10:24:47Z</time>
      </trkpt>
      <trkpt lat="45.49339" lon="5.98349">
        <ele>312.4</ele>
        <time>2014-08-24T10:24:50Z</time>
      </trkpt>
      <trkpt lat="45.49349" lon="5.98347">
        <ele>312.9</ele>
        <time>2014-08-24T10:24:53Z</time>
      </trkpt>
      <trkpt lat="45.49358" lon="5.98344">
        <ele>313.4</ele>
        <time>2014-08-24T10:24:56Z</time>
      </trkpt>
      <trkpt lat="45.49367" lon="5.9834">
        <ele>313.8</ele>
        <time>2014-08-24T10:24:59Z</time>
      </trkpt>
      <trkpt lat="45.49372" lon="5.98326">
        <ele>314.6</ele>
        <time>2014-08-24T10:25:03Z</time>
      </trkpt>
      <trkpt lat="45.49365" lon="5.98316">
        <ele>315.2</ele>
        <time>2014-08-24T10:25:06Z</time>
      </trkpt>
      <trkpt lat="45.49356" lon="5.98314">
        <ele>315.7</ele>
        <time>2014-08-24T10:25:09Z</time>
      </trkpt>
      <trkpt lat="45.49345" lon="5.98315">
        <ele>316.1</ele>
        <time>2014-08-24T10:25:12Z</time>
      </trkpt>
      <trkpt lat="45.49336" lon="5.98313">
        <ele>316.8</ele>
        <time>2014-08-24T10:25:15Z</time>
      </trkpt>
      <trkpt lat="45.49327" lon="5.98308">
        <ele>317.5</ele>
        <time>2014-08-24T10:25:18Z</time>
      </trkpt>
      <trkpt lat="45.49319" lon="5.98299">
        <ele>318.2</ele>
        <time>2014-08-24T10:25:21Z</time>
      </trkpt>
      <trkpt lat="45.49313" lon="5.98288">
        <ele>318.9</ele>
        <time>2014-08-24T10:25:24Z</time>
      </trkpt>
      <trkpt lat="45.49308" lon="5.98277">
        <ele>320</ele>
        <time>2014-08-24T10:25:27Z</time>
      </trkpt>
      <trkpt lat="45.49302" lon="5.98263">
        <ele>321.2</ele>
        <time>2014-08-24T10:25:31Z</time>
      </trkpt>
      <trkpt lat="45.49295" lon="5.98253">
        <ele>322.1</ele>
        <time>2014-08-24T10:25:34Z</time>
      </trkpt>
      <trkpt lat="45.49288" lon="5.98244">
        <ele>323.2</ele>
        <time>2014-08-24T10:25:37Z</time>
      </trkpt>
      <trkpt lat="45.49281" lon="5.98235">
        <ele>324.1</ele>
        <time>2014-08-24T10:25:40Z</time>
      </trkpt>
      <trkpt lat="45.49274" lon="5.98226">
        <ele>325.1</ele>
        <time>2014-08-24T10:25:43Z</time>
      </trkpt>
      <trkpt lat="45.49267" lon="5.98216">
        <ele>325.7</ele>
        <time>2014-08-24T10:25:46Z</time>
      </trkpt>
      <trkpt lat="45.4926" lon="5.98206">
        <ele>326.4</ele>
        <time>2014-08-24T10:25:49Z</time>
      </trkpt>
      <trkpt lat="45.49254" lon="5.98195">
        <ele>327.1</ele>
        <time>2014-08-24T10:25:52Z</time>
      </trkpt>
      <trkpt lat="45.49248" lon="5.98184">
        <ele>328.2</ele>
        <time>2014-08-24T10:25:55Z</time>
      </trkpt>
      <trkpt lat="45.49242" lon="5.98173">
        <ele>328.9</ele>
        <time>2014-08-24T10:25:58Z</time>
      </trkpt>
      <trkpt lat="45.49236" lon="5.98163">
        <ele>329.6</ele>
        <time>2014-08-24T10:26:01Z</time>
      </trkpt>
      <trkpt lat="45.49228" lon="5.98153">
        <ele>330.7</ele>
        <time>2014-08-24T10:26:04Z</time>
      </trkpt>
      <trkpt lat="45.4922" lon="5.98146">
        <ele>331.6</ele>
        <time>2014-08-24T10:26:07Z</time>
      </trkpt>
      <trkpt lat="45.4921" lon="5.9814">
        <ele>332.7</ele>
        <time>2014-08-24T10:26:10Z</time>
      </trkpt>
      <trkpt lat="45.49202" lon="5.98134">
        <ele>333.5</ele>
        <time>2014-08-24T10:26:13Z</time>
      </trkpt>
      <trkpt lat="45.49193" lon="5.98128">
        <ele>334.3</ele>
        <time>2014-08-24T10:26:16Z</time>
      </trkpt>
      <trkpt lat="45.49184" lon="5.98123">
        <ele>335.2</ele>
        <time>2014-08-24T10:26:19Z</time>
      </trkpt>
      <trkpt lat="45.49175" lon="5.98118">
        <ele>336.1</ele>
        <time>2014-08-24T10:26:22Z</time>
      </trkpt>
      <trkpt lat="45.49165" lon="5.98114">
        <ele>337</ele>
        <time>2014-08-24T10:26:25Z</time>
      </trkpt>
      <trkpt lat="45.49156" lon="5.98108">
        <ele>337.5</ele>
        <time>2014-08-24T10:26:28Z</time>
      </trkpt>
      <trkpt lat="45.49147" lon="5.98104">
        <ele>338.4</ele>
        <time>2014-08-24T10:26:31Z</time>
      </trkpt>
      <trkpt lat="45.49138" lon="5.981">
        <ele>339.7</ele>
        <time>2014-08-24T10:26:34Z</time>
      </trkpt>
      <trkpt lat="45.4913" lon="5.98094">
        <ele>340.4</ele>
        <time>2014-08-24T10:26:37Z</time>
      </trkpt>
      <trkpt lat="45.49123" lon="5.98081">
        <ele>341.7</ele>
        <time>2014-08-24T10:26:41Z</time>
      </trkpt>
      <trkpt lat="45.49122" lon="5.98065">
        <ele>343.1</ele>
        <time>2014-08-24T10:26:45Z</time>
      </trkpt>
      <trkpt lat="45.49123" lon="5.98049">
        <ele>344.7</ele>
        <time>2014-08-24T10:26:49Z</time>
      </trkpt>
      <trkpt lat="45.49125" lon="5.98034">
        <ele>345.6</ele>
        <time>2014-08-24T10:26:53Z</time>
      </trkpt>
      <trkpt lat="45.49123" lon="5.98019">
        <ele>346.6</ele>
        <time>2014-08-24T10:26:57Z</time>
      </trkpt>
      <trkpt lat="45.4912" lon="5.98005">
        <ele>347.6</ele>
        <time>2014-08-24T10:27:01Z</time>
      </trkpt>
      <trkpt lat="45.49115" lon="5.97991">
        <ele>348.8</ele>
        <time>2014-08-24T10:27:05Z</time>
      </trkpt>
      <trkpt lat="45.49108" lon="5.9798">
        <ele>349.5</ele>
        <time>2014-08-24T10:27:09Z</time>
      </trkpt>
      <trkpt lat="45.49101" lon="5.97969">
        <ele>350.7</ele>
        <time>2014-08-24T10:27:13Z</time>
      </trkpt>
      <trkpt lat="45.49094" lon="5.97957">
        <ele>351.8</ele>
        <time>2014-08-24T10:27:17Z</time>
      </trkpt>
      <trkpt lat="45.49087" lon="5.97943">
        <ele>352.8</ele>
        <time>2014-08-24T10:27:21Z</time>
      </trkpt>
      <trkpt lat="45.49081" lon="5.97929">
        <ele>353.8</ele>
        <time>2014-08-24T10:27:25Z</time>
      </trkpt>
      <trkpt lat="45.49076" lon="5.97918">
        <ele>354.6</ele>
        <time>2014-08-24T10:27:28Z</time>
      </trkpt>
      <trkpt lat="45.4907" lon="5.97905">
        <ele>355.1</ele>
        <time>2014-08-24T10:27:32Z</time>
      </trkpt>
      <trkpt lat="45.49064" lon="5.97891">
        <ele>356.2</ele>
        <time>2014-08-24T10:27:36Z</time>
      </trkpt>
      <trkpt lat="45.4906" lon="5.97876">
        <ele>357.5</ele>
        <time>2014-08-24T10:27:40Z</time>
      </trkpt>
      <trkpt lat="45.49057" lon="5.97859">
        <ele>358.8</ele>
        <time>2014-08-24T10:27:44Z</time>
      </trkpt>
      <trkpt lat="45.49058" lon="5.97843">
        <ele>359.4</ele>
        <time>2014-08-24T10:27:48Z</time>
      </trkpt>
      <trkpt lat="45.49062" lon="5.97826">
        <ele>360.3</ele>
        <time>2014-08-24T10:27:52Z</time>
      </trkpt>
      <trkpt lat="45.49066" lon="5.97814">
        <ele>360.7</ele>
        <time>2014-08-24T10:27:55Z</time>
      </trkpt>
      <trkpt lat="45.49073" lon="5.97805">
        <ele>361.2</ele>
        <time>2014-08-24T10:27:58Z</time>
      </trkpt>
      <trkpt lat="45.4908" lon="5.97793">
        <ele>362.1</ele>
        <time>2014-08-24T10:28:01Z</time>
      </trkpt>
      <trkpt lat="45.49088" lon="5.97781">
        <ele>362.4</ele>
        <time>2014-08-24T10:28:04Z</time>
      </trkpt>
      <trkpt lat="45.49096" lon="5.97773">
        <ele>362.9</ele>
        <time>2014-08-24T10:28:07Z</time>
      </trkpt>
      <trkpt lat="45.49103" lon="5.97762">
        <ele>363.3</ele>
        <time>2014-08-24T10:28:10Z</time>
      </trkpt>
      <trkpt lat="45.49109" lon="5.97751">
        <ele>363.6</ele>
        <time>2014-08-24T10:28:13Z</time>
      </trkpt>
      <trkpt lat="45.49116" lon="5.97738">
        <ele>364.1</ele>
        <time>2014-08-24T10:28:16Z</time>
      </trkpt>
      <trkpt lat="45.49121" lon="5.97725">
        <ele>364.1</ele>
        <time>2014-08-24T10:28:19Z</time>
      </trkpt>
      <trkpt lat="45.49126" lon="5.97711">
        <ele>364.4</ele>
        <time>2014-08-24T10:28:22Z</time>
      </trkpt>
      <trkpt lat="45.4913" lon="5.97695">
        <ele>364.6</ele>
        <time>2014-08-24T10:28:25Z</time>
      </trkpt>
      <trkpt lat="45.49132" lon="5.97677">
        <ele>364.9</ele>
        <time>2014-08-24T10:28:28Z</time>
      </trkpt>
      <trkpt lat="45.49135" lon="5.97665">
        <ele>365</ele>
        <time>2014-08-24T10:28:30Z</time>
      </trkpt>
      <trkpt lat="45.49142" lon="5.97651">
        <ele>365</ele>
        <time>2014-08-24T10:28:33Z</time>
      </trkpt>
      <trkpt lat="45.49143" lon="5.97633">
        <ele>365</ele>
        <time>2014-08-24T10:28:36Z</time>
      </trkpt>
      <trkpt lat="45.49137" lon="5.97622">
        <ele>365</ele>
        <time>2014-08-24T10:28:38Z</time>
      </trkpt>
      <trkpt lat="45.4913" lon="5.97612">
        <ele>365</ele>
        <time>2014-08-24T10:28:40Z</time>
      </trkpt>
      <trkpt lat="45.49122" lon="5.97604">
        <ele>365.1</ele>
        <time>2014-08-24T10:28:42Z</time>
      </trkpt>
      <trkpt lat="45.49112" lon="5.976">
        <ele>364.7</ele>
        <time>2014-08-24T10:28:44Z</time>
      </trkpt>
      <trkpt lat="45.49101" lon="5.97601">
        <ele>364.3</ele>
        <time>2014-08-24T10:28:46Z</time>
      </trkpt>
      <trkpt lat="45.49089" lon="5.97603">
        <ele>363.8</ele>
        <time>2014-08-24T10:28:48Z</time>
      </trkpt>
      <trkpt lat="45.49076" lon="5.97606">
        <ele>363.5</ele>
        <time>2014-08-24T10:28:50Z</time>
      </trkpt>
      <trkpt lat="45.49064" lon="5.97612">
        <ele>363.2</ele>
        <time>2014-08-24T10:28:52Z</time>
      </trkpt>
      <trkpt lat="45.49052" lon="5.9762">
        <ele>362.7</ele>
        <time>2014-08-24T10:28:54Z</time>
      </trkpt>
      <trkpt lat="45.49039" lon="5.97629">
        <ele>362.2</ele>
        <time>2014-08-24T10:28:56Z</time>
      </trkpt>
      <trkpt lat="45.49025" lon="5.97634">
        <ele>361.8</ele>
        <time>2014-08-24T10:28:58Z</time>
      </trkpt>
      <trkpt lat="45.49011" lon="5.97634">
        <ele>361.3</ele>
        <time>2014-08-24T10:29:00Z</time>
      </trkpt>
      <trkpt lat="45.48997" lon="5.97632">
        <ele>361</ele>
        <time>2014-08-24T10:29:02Z</time>
      </trkpt>
      <trkpt lat="45.48982" lon="5.97632">
        <ele>360.7</ele>
        <time>2014-08-24T10:29:04Z</time>
      </trkpt>
      <trkpt lat="45.48968" lon="5.97637">
        <ele>360.7</ele>
        <time>2014-08-24T10:29:06Z</time>
      </trkpt>
      <trkpt lat="45.48954" lon="5.97644">
        <ele>360.4</ele>
        <time>2014-08-24T10:29:08Z</time>
      </trkpt>
      <trkpt lat="45.48941" lon="5.97653">
        <ele>360.4</ele>
        <time>2014-08-24T10:29:10Z</time>
      </trkpt>
      <trkpt lat="45.48927" lon="5.97658">
        <ele>360.2</ele>
        <time>2014-08-24T10:29:12Z</time>
      </trkpt>
      <trkpt lat="45.48913" lon="5.9766">
        <ele>360</ele>
        <time>2014-08-24T10:29:14Z</time>
      </trkpt>
      <trkpt lat="45.48899" lon="5.97661">
        <ele>360</ele>
        <time>2014-08-24T10:29:16Z</time>
      </trkpt>
      <trkpt lat="45.48885" lon="5.97661">
        <ele>359.9</ele>
        <time>2014-08-24T10:29:18Z</time>
      </trkpt>
      <trkpt lat="45.48871" lon="5.97659">
        <ele>360</ele>
        <time>2014-08-24T10:29:20Z</time>
      </trkpt>
      <trkpt lat="45.48857" lon="5.97659">
        <ele>359.5</ele>
        <time>2014-08-24T10:29:22Z</time>
      </trkpt>
      <trkpt lat="45.48843" lon="5.9766">
        <ele>359.6</ele>
        <time>2014-08-24T10:29:24Z</time>
      </trkpt>
      <trkpt lat="45.4883" lon="5.97667">
        <ele>359.6</ele>
        <time>2014-08-24T10:29:26Z</time>
      </trkpt>
      <trkpt lat="45.48819" lon="5.97679">
        <ele>359.6</ele>
        <time>2014-08-24T10:29:28Z</time>
      </trkpt>
      <trkpt lat="45.48813" lon="5.97696">
        <ele>358.9</ele>
        <time>2014-08-24T10:29:30Z</time>
      </trkpt>
      <trkpt lat="45.48809" lon="5.97715">
        <ele>359.3</ele>
        <time>2014-08-24T10:29:32Z</time>
      </trkpt>
      <trkpt lat="45.48803" lon="5.97733">
        <ele>359.3</ele>
        <time>2014-08-24T10:29:34Z</time>
      </trkpt>
      <trkpt lat="45.48794" lon="5.97744">
        <ele>359.6</ele>
        <time>2014-08-24T10:29:36Z</time>
      </trkpt>
      <trkpt lat="45.48782" lon="5.97747">
        <ele>360.6</ele>
        <time>2014-08-24T10:29:39Z</time>
      </trkpt>
      <trkpt lat="45.48771" lon="5.97744">
        <ele>361.9</ele>
        <time>2014-08-24T10:29:43Z</time>
      </trkpt>
      <trkpt lat="45.48761" lon="5.97742">
        <ele>363.1</ele>
        <time>2014-08-24T10:29:47Z</time>
      </trkpt>
      <trkpt lat="45.48751" lon="5.97741">
        <ele>364.6</ele>
        <time>2014-08-24T10:29:51Z</time>
      </trkpt>
      <trkpt lat="45.48741" lon="5.9774">
        <ele>366.8</ele>
        <time>2014-08-24T10:29:55Z</time>
      </trkpt>
      <trkpt lat="45.48731" lon="5.97738">
        <ele>368.2</ele>
        <time>2014-08-24T10:29:59Z</time>
      </trkpt>
      <trkpt lat="45.48721" lon="5.97735">
        <ele>368.9</ele>
        <time>2014-08-24T10:30:03Z</time>
      </trkpt>
      <trkpt lat="45.48711" lon="5.97731">
        <ele>370.1</ele>
        <time>2014-08-24T10:30:07Z</time>
      </trkpt>
      <trkpt lat="45.48702" lon="5.97729">
        <ele>371.2</ele>
        <time>2014-08-24T10:30:11Z</time>
      </trkpt>
      <trkpt lat="45.48692" lon="5.97729">
        <ele>372.6</ele>
        <time>2014-08-24T10:30:15Z</time>
      </trkpt>
      <trkpt lat="45.48683" lon="5.97731">
        <ele>373.7</ele>
        <time>2014-08-24T10:30:19Z</time>
      </trkpt>
      <trkpt lat="45.48674" lon="5.97735">
        <ele>374.5</ele>
        <time>2014-08-24T10:30:23Z</time>
      </trkpt>
      <trkpt lat="45.48664" lon="5.97739">
        <ele>374.7</ele>
        <time>2014-08-24T10:30:27Z</time>
      </trkpt>
      <trkpt lat="45.48653" lon="5.9774">
        <ele>375</ele>
        <time>2014-08-24T10:30:31Z</time>
      </trkpt>
      <trkpt lat="45.48645" lon="5.97735">
        <ele>375.9</ele>
        <time>2014-08-24T10:30:35Z</time>
      </trkpt>
      <trkpt lat="45.48636" lon="5.97729">
        <ele>377</ele>
        <time>2014-08-24T10:30:39Z</time>
      </trkpt>
      <trkpt lat="45.48627" lon="5.97726">
        <ele>378.2</ele>
        <time>2014-08-24T10:30:43Z</time>
      </trkpt>
      <trkpt lat="45.48617" lon="5.97725">
        <ele>379.4</ele>
        <time>2014-08-24T10:30:47Z</time>
      </trkpt>
      <trkpt lat="45.48608" lon="5.97728">
        <ele>380.2</ele>
        <time>2014-08-24T10:30:51Z</time>
      </trkpt>
      <trkpt lat="45.486" lon="5.97735">
        <ele>381.3</ele>
        <time>2014-08-24T10:30:55Z</time>
      </trkpt>
      <trkpt lat="45.48591" lon="5.97744">
        <ele>382.6</ele>
        <time>2014-08-24T10:30:59Z</time>
      </trkpt>
      <trkpt lat="45.48581" lon="5.97749">
        <ele>383.3</ele>
        <time>2014-08-24T10:31:03Z</time>
      </trkpt>
      <trkpt lat="45.4857" lon="5.97749">
        <ele>383.7</ele>
        <time>2014-08-24T10:31:07Z</time>
      </trkpt>
      <trkpt lat="45.4856" lon="5.97744">
        <ele>384.1</ele>
        <time>2014-08-24T10:31:10Z</time>
      </trkpt>
      <trkpt lat="45.48547" lon="5.97738">
        <ele>384</ele>
        <time>2014-08-24T10:31:13Z</time>
      </trkpt>
      <trkpt lat="45.48537" lon="5.97732">
        <ele>383.3</ele>
        <time>2014-08-24T10:31:15Z</time>
      </trkpt>
      <trkpt lat="45.48525" lon="5.97731">
        <ele>383.5</ele>
        <time>2014-08-24T10:31:17Z</time>
      </trkpt>
      <trkpt lat="45.48513" lon="5.97734">
        <ele>383</ele>
        <time>2014-08-24T10:31:19Z</time>
      </trkpt>
      <trkpt lat="45.48501" lon="5.9774">
        <ele>382.3</ele>
        <time>2014-08-24T10:31:21Z</time>
      </trkpt>
      <trkpt lat="45.48489" lon="5.97744">
        <ele>382.1</ele>
        <time>2014-08-24T10:31:23Z</time>
      </trkpt>
      <trkpt lat="45.48476" lon="5.97746">
        <ele>381.8</ele>
        <time>2014-08-24T10:31:25Z</time>
      </trkpt>
      <trkpt lat="45.48464" lon="5.97748">
        <ele>381.3</ele>
        <time>2014-08-24T10:31:27Z</time>
      </trkpt>
      <trkpt lat="45.48452" lon="5.97752">
        <ele>381.2</ele>
        <time>2014-08-24T10:31:29Z</time>
      </trkpt>
      <trkpt lat="45.48441" lon="5.97755">
        <ele>381.4</ele>
        <time>2014-08-24T10:31:31Z</time>
      </trkpt>
      <trkpt lat="45.48432" lon="5.97758">
        <ele>381.4</ele>
        <time>2014-08-24T10:31:33Z</time>
      </trkpt>
      <trkpt lat="45.4842" lon="5.97764">
        <ele>382.2</ele>
        <time>2014-08-24T10:31:36Z</time>
      </trkpt>
      <trkpt lat="45.48409" lon="5.97767">
        <ele>383.5</ele>
        <time>2014-08-24T10:31:40Z</time>
      </trkpt>
      <trkpt lat="45.48398" lon="5.97769">
        <ele>384.8</ele>
        <time>2014-08-24T10:31:44Z</time>
      </trkpt>
      <trkpt lat="45.48386" lon="5.97769">
        <ele>386</ele>
        <time>2014-08-24T10:31:48Z</time>
      </trkpt>
      <trkpt lat="45.48375" lon="5.97771">
        <ele>386.7</ele>
        <time>2014-08-24T10:31:52Z</time>
      </trkpt>
      <trkpt lat="45.48364" lon="5.97774">
        <ele>387.6</ele>
        <time>2014-08-24T10:31:57Z</time>
      </trkpt>
      <trkpt lat="45.48354" lon="5.97779">
        <ele>388.7</ele>
        <time>2014-08-24T10:32:02Z</time>
      </trkpt>
      <trkpt lat="45.48345" lon="5.9778">
        <ele>389.9</ele>
        <time>2014-08-24T10:32:06Z</time>
      </trkpt>
      <trkpt lat="45.48334" lon="5.97778">
        <ele>391.8</ele>
        <time>2014-08-24T10:32:11Z</time>
      </trkpt>
      <trkpt lat="45.48323" lon="5.97776">
        <ele>393.2</ele>
        <time>2014-08-24T10:32:16Z</time>
      </trkpt>
      <trkpt lat="45.48312" lon="5.97774">
        <ele>394.9</ele>
        <time>2014-08-24T10:32:21Z</time>
      </trkpt>
      <trkpt lat="45.48301" lon="5.97771">
        <ele>396</ele>
        <time>2014-08-24T10:32:26Z</time>
      </trkpt>
      <trkpt lat="45.48291" lon="5.97769">
        <ele>396.9</ele>
        <time>2014-08-24T10:32:31Z</time>
      </trkpt>
      <trkpt lat="45.4828" lon="5.97766">
        <ele>398.4</ele>
        <time>2014-08-24T10:32:36Z</time>
      </trkpt>
      <trkpt lat="45.48271" lon="5.97761">
        <ele>399.7</ele>
        <time>2014-08-24T10:32:41Z</time>
      </trkpt>
      <trkpt lat="45.48261" lon="5.97755">
        <ele>401.4</ele>
        <time>2014-08-24T10:32:46Z</time>
      </trkpt>
      <trkpt lat="45.48251" lon="5.9775">
        <ele>403.1</ele>
        <time>2014-08-24T10:32:51Z</time>
      </trkpt>
      <trkpt lat="45.48241" lon="5.97744">
        <ele>404.8</ele>
        <time>2014-08-24T10:32:56Z</time>
      </trkpt>
      <trkpt lat="45.48231" lon="5.97739">
        <ele>406.5</ele>
        <time>2014-08-24T10:33:01Z</time>
      </trkpt>
      <trkpt lat="45.48221" lon="5.97734">
        <ele>407.8</ele>
        <time>2014-08-24T10:33:06Z</time>
      </trkpt>
      <trkpt lat="45.48212" lon="5.97727">
        <ele>409.3</ele>
        <time>2014-08-24T10:33:11Z</time>
      </trkpt>
      <trkpt lat="45.48203" lon="5.9772">
        <ele>410.3</ele>
        <time>2014-08-24T10:33:16Z</time>
      </trkpt>
      <trkpt lat="45.48195" lon="5.9771">
        <ele>412</ele>
        <time>2014-08-24T10:33:21Z</time>
      </trkpt>
      <trkpt lat="45.48189" lon="5.97698">
        <ele>413.3</ele>
        <time>2014-08-24T10:33:26Z</time>
      </trkpt>
      <trkpt lat="45.48183" lon="5.97685">
        <ele>414.5</ele>
        <time>2014-08-24T10:33:31Z</time>
      </trkpt>
      <trkpt lat="45.48178" lon="5.97674">
        <ele>415.6</ele>
        <time>2014-08-24T10:33:35Z</time>
      </trkpt>
      <trkpt lat="45.48172" lon="5.97663">
        <ele>416.5</ele>
        <time>2014-08-24T10:33:39Z</time>
      </trkpt>
      <trkpt lat="45.48168" lon="5.9765">
        <ele>416.8</ele>
        <time>2014-08-24T10:33:43Z</time>
      </trkpt>
      <trkpt lat="45.48164" lon="5.97634">
        <ele>417.2</ele>
        <time>2014-08-24T10:33:47Z</time>
      </trkpt>
      <trkpt lat="45.48164" lon="5.9762">
        <ele>417.4</ele>
        <time>2014-08-24T10:33:50Z</time>
      </trkpt>
      <trkpt lat="45.48167" lon="5.97605">
        <ele>417.3</ele>
        <time>2014-08-24T10:33:53Z</time>
      </trkpt>
      <trkpt lat="45.4817" lon="5.9759">
        <ele>417.3</ele>
        <time>2014-08-24T10:33:56Z</time>
      </trkpt>
      <trkpt lat="45.48168" lon="5.97574">
        <ele>417.5</ele>
        <time>2014-08-24T10:33:59Z</time>
      </trkpt>
      <trkpt lat="45.48163" lon="5.9756">
        <ele>417.8</ele>
        <time>2014-08-24T10:34:02Z</time>
      </trkpt>
      <trkpt lat="45.48157" lon="5.97547">
        <ele>417.9</ele>
        <time>2014-08-24T10:34:05Z</time>
      </trkpt>
      <trkpt lat="45.48149" lon="5.97533">
        <ele>418.1</ele>
        <time>2014-08-24T10:34:08Z</time>
      </trkpt>
      <trkpt lat="45.48141" lon="5.97518">
        <ele>418.1</ele>
        <time>2014-08-24T10:34:11Z</time>
      </trkpt>
      <trkpt lat="45.48135" lon="5.97509">
        <ele>418</ele>
        <time>2014-08-24T10:34:13Z</time>
      </trkpt>
      <trkpt lat="45.48127" lon="5.97502">
        <ele>417.6</ele>
        <time>2014-08-24T10:34:15Z</time>
      </trkpt>
      <trkpt lat="45.48118" lon="5.975">
        <ele>417.4</ele>
        <time>2014-08-24T10:34:17Z</time>
      </trkpt>
      <trkpt lat="45.48108" lon="5.97501">
        <ele>417.9</ele>
        <time>2014-08-24T10:34:19Z</time>
      </trkpt>
      <trkpt lat="45.48098" lon="5.97504">
        <ele>417.9</ele>
        <time>2014-08-24T10:34:21Z</time>
      </trkpt>
      <trkpt lat="45.48089" lon="5.97506">
        <ele>418.3</ele>
        <time>2014-08-24T10:34:23Z</time>
      </trkpt>
      <trkpt lat="45.48076" lon="5.9751">
        <ele>418.4</ele>
        <time>2014-08-24T10:34:26Z</time>
      </trkpt>
      <trkpt lat="45.48065" lon="5.97512">
        <ele>418.8</ele>
        <time>2014-08-24T10:34:29Z</time>
      </trkpt>
      <trkpt lat="45.48053" lon="5.97513">
        <ele>419.5</ele>
        <time>2014-08-24T10:34:32Z</time>
      </trkpt>
      <trkpt lat="45.48041" lon="5.97516">
        <ele>419.9</ele>
        <time>2014-08-24T10:34:35Z</time>
      </trkpt>
      <trkpt lat="45.4803" lon="5.97517">
        <ele>420.6</ele>
        <time>2014-08-24T10:34:38Z</time>
      </trkpt>
      <trkpt lat="45.48018" lon="5.97519">
        <ele>421.6</ele>
        <time>2014-08-24T10:34:41Z</time>
      </trkpt>
      <trkpt lat="45.48006" lon="5.9752">
        <ele>422.2</ele>
        <time>2014-08-24T10:34:44Z</time>
      </trkpt>
      <trkpt lat="45.47995" lon="5.97522">
        <ele>423.1</ele>
        <time>2014-08-24T10:34:47Z</time>
      </trkpt>
      <trkpt lat="45.47983" lon="5.97523">
        <ele>423.3</ele>
        <time>2014-08-24T10:34:50Z</time>
      </trkpt>
      <trkpt lat="45.47972" lon="5.97525">
        <ele>423.7</ele>
        <time>2014-08-24T10:34:53Z</time>
      </trkpt>
      <trkpt lat="45.47961" lon="5.97526">
        <ele>424.3</ele>
        <time>2014-08-24T10:34:56Z</time>
      </trkpt>
      <trkpt lat="45.47952" lon="5.9752">
        <ele>425</ele>
        <time>2014-08-24T10:34:59Z</time>
      </trkpt>
      <trkpt lat="45.47946" lon="5.97509">
        <ele>425.9</ele>
        <time>2014-08-24T10:35:02Z</time>
      </trkpt>
      <trkpt lat="45.47938" lon="5.97501">
        <ele>426.5</ele>
        <time>2014-08-24T10:35:05Z</time>
      </trkpt>
      <trkpt lat="45.47929" lon="5.97494">
        <ele>427.1</ele>
        <time>2014-08-24T10:35:08Z</time>
      </trkpt>
      <trkpt lat="45.47921" lon="5.97489">
        <ele>427.6</ele>
        <time>2014-08-24T10:35:11Z</time>
      </trkpt>
      <trkpt lat="45.47912" lon="5.97485">
        <ele>428.1</ele>
        <time>2014-08-24T10:35:14Z</time>
      </trkpt>
      <trkpt lat="45.47903" lon="5.9748">
        <ele>428.8</ele>
        <time>2014-08-24T10:35:17Z</time>
      </trkpt>
      <trkpt lat="45.47894" lon="5.97476">
        <ele>429.6</ele>
        <time>2014-08-24T10:35:20Z</time>
      </trkpt>
      <trkpt lat="45.47885" lon="5.97472">
        <ele>430.2</ele>
        <time>2014-08-24T10:35:23Z</time>
      </trkpt>
      <trkpt lat="45.47876" lon="5.97466">
        <ele>431</ele>
        <time>2014-08-24T10:35:26Z</time>
      </trkpt>
      <trkpt lat="45.47868" lon="5.97459">
        <ele>431.7</ele>
        <time>2014-08-24T10:35:29Z</time>
      </trkpt>
      <trkpt lat="45.47861" lon="5.97449">
        <ele>432.4</ele>
        <time>2014-08-24T10:35:32Z</time>
      </trkpt>
      <trkpt lat="45.47856" lon="5.97439">
        <ele>433.3</ele>
        <time>2014-08-24T10:35:35Z</time>
      </trkpt>
      <trkpt lat="45.47852" lon="5.97423">
        <ele>434.4</ele>
        <time>2014-08-24T10:35:39Z</time>
      </trkpt>
      <trkpt lat="45.47851" lon="5.97406">
        <ele>435.5</ele>
        <time>2014-08-24T10:35:43Z</time>
      </trkpt>
      <trkpt lat="45.47854" lon="5.97391">
        <ele>436.2</ele>
        <time>2014-08-24T10:35:47Z</time>
      </trkpt>
      <trkpt lat="45.47858" lon="5.9738">
        <ele>436.9</ele>
        <time>2014-08-24T10:35:50Z</time>
      </trkpt>
      <trkpt lat="45.47863" lon="5.97367">
        <ele>437.5</ele>
        <time>2014-08-24T10:35:54Z</time>
      </trkpt>
      <trkpt lat="45.4787" lon="5.97353">
        <ele>438.6</ele>
        <time>2014-08-24T10:35:58Z</time>
      </trkpt>
      <trkpt lat="45.47875" lon="5.9734">
        <ele>439.2</ele>
        <time>2014-08-24T10:36:02Z</time>
      </trkpt>
      <trkpt lat="45.4788" lon="5.97327">
        <ele>440.2</ele>
        <time>2014-08-24T10:36:06Z</time>
      </trkpt>
      <trkpt lat="45.47882" lon="5.97313">
        <ele>440.9</ele>
        <time>2014-08-24T10:36:10Z</time>
      </trkpt>
      <trkpt lat="45.47884" lon="5.973">
        <ele>441.8</ele>
        <time>2014-08-24T10:36:14Z</time>
      </trkpt>
      <trkpt lat="45.47886" lon="5.97286">
        <ele>442.7</ele>
        <time>2014-08-24T10:36:18Z</time>
      </trkpt>
      <trkpt lat="45.47882" lon="5.97274">
        <ele>443.6</ele>
        <time>2014-08-24T10:36:22Z</time>
      </trkpt>
      <trkpt lat="45.47879" lon="5.97261">
        <ele>444.1</ele>
        <time>2014-08-24T10:36:26Z</time>
      </trkpt>
      <trkpt lat="45.47874" lon="5.97248">
        <ele>445.1</ele>
        <time>2014-08-24T10:36:30Z</time>
      </trkpt>
      <trkpt lat="45.47869" lon="5.97236">
        <ele>445.8</ele>
        <time>2014-08-24T10:36:34Z</time>
      </trkpt>
      <trkpt lat="45.47865" lon="5.97224">
        <ele>446.7</ele>
        <time>2014-08-24T10:36:38Z</time>
      </trkpt>
      <trkpt lat="45.47861" lon="5.9721">
        <ele>447.9</ele>
        <time>2014-08-24T10:36:43Z</time>
      </trkpt>
      <trkpt lat="45.47857" lon="5.97195">
        <ele>449.1</ele>
        <time>2014-08-24T10:36:48Z</time>
      </trkpt>
      <trkpt lat="45.47854" lon="5.97182">
        <ele>450.4</ele>
        <time>2014-08-24T10:36:52Z</time>
      </trkpt>
      <trkpt lat="45.47852" lon="5.9717">
        <ele>451.5</ele>
        <time>2014-08-24T10:36:56Z</time>
      </trkpt>
      <trkpt lat="45.47849" lon="5.97155">
        <ele>452.7</ele>
        <time>2014-08-24T10:37:01Z</time>
      </trkpt>
      <trkpt lat="45.47848" lon="5.9714">
        <ele>454.2</ele>
        <time>2014-08-24T10:37:06Z</time>
      </trkpt>
      <trkpt lat="45.47846" lon="5.97124">
        <ele>454.7</ele>
        <time>2014-08-24T10:37:11Z</time>
      </trkpt>
      <trkpt lat="45.47847" lon="5.97111">
        <ele>456</ele>
        <time>2014-08-24T10:37:15Z</time>
      </trkpt>
      <trkpt lat="45.47847" lon="5.97096">
        <ele>456.9</ele>
        <time>2014-08-24T10:37:20Z</time>
      </trkpt>
      <trkpt lat="45.47846" lon="5.97082">
        <ele>457.9</ele>
        <time>2014-08-24T10:37:24Z</time>
      </trkpt>
      <trkpt lat="45.47845" lon="5.97069">
        <ele>458.8</ele>
        <time>2014-08-24T10:37:28Z</time>
      </trkpt>
      <trkpt lat="45.47843" lon="5.97054">
        <ele>459.6</ele>
        <time>2014-08-24T10:37:32Z</time>
      </trkpt>
      <trkpt lat="45.47839" lon="5.9704">
        <ele>460.1</ele>
        <time>2014-08-24T10:37:36Z</time>
      </trkpt>
      <trkpt lat="45.47834" lon="5.97029">
        <ele>460.5</ele>
        <time>2014-08-24T10:37:39Z</time>
      </trkpt>
      <trkpt lat="45.47829" lon="5.97018">
        <ele>460.6</ele>
        <time>2014-08-24T10:37:42Z</time>
      </trkpt>
      <trkpt lat="45.47823" lon="5.97008">
        <ele>460.7</ele>
        <time>2014-08-24T10:37:45Z</time>
      </trkpt>
      <trkpt lat="45.47817" lon="5.96996">
        <ele>460.8</ele>
        <time>2014-08-24T10:37:48Z</time>
      </trkpt>
      <trkpt lat="45.47815" lon="5.96983">
        <ele>461.2</ele>
        <time>2014-08-24T10:37:51Z</time>
      </trkpt>
      <trkpt lat="45.47815" lon="5.9697">
        <ele>461.6</ele>
        <time>2014-08-24T10:37:54Z</time>
      </trkpt>
      <trkpt lat="45.47817" lon="5.96954">
        <ele>462.3</ele>
        <time>2014-08-24T10:37:58Z</time>
      </trkpt>
      <trkpt lat="45.4782" lon="5.96941">
        <ele>463.3</ele>
        <time>2014-08-24T10:38:02Z</time>
      </trkpt>
      <trkpt lat="45.47826" lon="5.96931">
        <ele>464</ele>
        <time>2014-08-24T10:38:06Z</time>
      </trkpt>
      <trkpt lat="45.47834" lon="5.9692">
        <ele>465.4</ele>
        <time>2014-08-24T10:38:11Z</time>
      </trkpt>
      <trkpt lat="45.47843" lon="5.9691">
        <ele>466.4</ele>
        <time>2014-08-24T10:38:16Z</time>
      </trkpt>
      <trkpt lat="45.4785" lon="5.96902">
        <ele>467.5</ele>
        <time>2014-08-24T10:38:20Z</time>
      </trkpt>
      <trkpt lat="45.47857" lon="5.96891">
        <ele>468.7</ele>
        <time>2014-08-24T10:38:25Z</time>
      </trkpt>
      <trkpt lat="45.47866" lon="5.96881">
        <ele>469.8</ele>
        <time>2014-08-24T10:38:30Z</time>
      </trkpt>
      <trkpt lat="45.47874" lon="5.96871">
        <ele>470.6</ele>
        <time>2014-08-24T10:38:35Z</time>
      </trkpt>
      <trkpt lat="45.47882" lon="5.96861">
        <ele>471.9</ele>
        <time>2014-08-24T10:38:40Z</time>
      </trkpt>
      <trkpt lat="45.47888" lon="5.9685">
        <ele>472.9</ele>
        <time>2014-08-24T10:38:44Z</time>
      </trkpt>
      <trkpt lat="45.47892" lon="5.96839">
        <ele>473.6</ele>
        <time>2014-08-24T10:38:48Z</time>
      </trkpt>
      <trkpt lat="45.47898" lon="5.96827">
        <ele>474.7</ele>
        <time>2014-08-24T10:38:53Z</time>
      </trkpt>
      <trkpt lat="45.47903" lon="5.96814">
        <ele>475.2</ele>
        <time>2014-08-24T10:38:58Z</time>
      </trkpt>
      <trkpt lat="45.47909" lon="5.96804">
        <ele>475.8</ele>
        <time>2014-08-24T10:39:02Z</time>
      </trkpt>
      <trkpt lat="45.47914" lon="5.96791">
        <ele>476.8</ele>
        <time>2014-08-24T10:39:07Z</time>
      </trkpt>
      <trkpt lat="45.47916" lon="5.96776">
        <ele>478</ele>
        <time>2014-08-24T10:39:12Z</time>
      </trkpt>
      <trkpt lat="45.47913" lon="5.96763">
        <ele>479.1</ele>
        <time>2014-08-24T10:39:17Z</time>
      </trkpt>
      <trkpt lat="45.47903" lon="5.96761">
        <ele>479.8</ele>
        <time>2014-08-24T10:39:22Z</time>
      </trkpt>
      <trkpt lat="45.47893" lon="5.96756">
        <ele>480.9</ele>
        <time>2014-08-24T10:39:27Z</time>
      </trkpt>
      <trkpt lat="45.47883" lon="5.96751">
        <ele>481.6</ele>
        <time>2014-08-24T10:39:32Z</time>
      </trkpt>
      <trkpt lat="45.47874" lon="5.96749">
        <ele>482.2</ele>
        <time>2014-08-24T10:39:36Z</time>
      </trkpt>
      <trkpt lat="45.47864" lon="5.96745">
        <ele>482.6</ele>
        <time>2014-08-24T10:39:40Z</time>
      </trkpt>
      <trkpt lat="45.47852" lon="5.96744">
        <ele>483.3</ele>
        <time>2014-08-24T10:39:44Z</time>
      </trkpt>
      <trkpt lat="45.47842" lon="5.96743">
        <ele>483.4</ele>
        <time>2014-08-24T10:39:48Z</time>
      </trkpt>
      <trkpt lat="45.47832" lon="5.96743">
        <ele>483.7</ele>
        <time>2014-08-24T10:39:52Z</time>
      </trkpt>
      <trkpt lat="45.47823" lon="5.96742">
        <ele>484</ele>
        <time>2014-08-24T10:39:56Z</time>
      </trkpt>
      <trkpt lat="45.47813" lon="5.96737">
        <ele>484.6</ele>
        <time>2014-08-24T10:40:00Z</time>
      </trkpt>
      <trkpt lat="45.47807" lon="5.96729">
        <ele>485.7</ele>
        <time>2014-08-24T10:40:04Z</time>
      </trkpt>
      <trkpt lat="45.47801" lon="5.96716">
        <ele>487.3</ele>
        <time>2014-08-24T10:40:09Z</time>
      </trkpt>
      <trkpt lat="45.47798" lon="5.96703">
        <ele>489.2</ele>
        <time>2014-08-24T10:40:14Z</time>
      </trkpt>
      <trkpt lat="45.47795" lon="5.96688">
        <ele>490.9</ele>
        <time>2014-08-24T10:40:19Z</time>
      </trkpt>
      <trkpt lat="45.47793" lon="5.96675">
        <ele>492</ele>
        <time>2014-08-24T10:40:23Z</time>
      </trkpt>
      <trkpt lat="45.4779" lon="5.96661">
        <ele>493.3</ele>
        <time>2014-08-24T10:40:28Z</time>
      </trkpt>
      <trkpt lat="45.47784" lon="5.96647">
        <ele>494.8</ele>
        <time>2014-08-24T10:40:33Z</time>
      </trkpt>
      <trkpt lat="45.47777" lon="5.96637">
        <ele>496</ele>
        <time>2014-08-24T10:40:38Z</time>
      </trkpt>
      <trkpt lat="45.47767" lon="5.96632">
        <ele>497.5</ele>
        <time>2014-08-24T10:40:43Z</time>
      </trkpt>
      <trkpt lat="45.47758" lon="5.96629">
        <ele>498.5</ele>
        <time>2014-08-24T10:40:47Z</time>
      </trkpt>
      <trkpt lat="45.47749" lon="5.96628">
        <ele>499.4</ele>
        <time>2014-08-24T10:40:51Z</time>
      </trkpt>
      <trkpt lat="45.47739" lon="5.9663">
        <ele>500.6</ele>
        <time>2014-08-24T10:40:55Z</time>
      </trkpt>
      <trkpt lat="45.47729" lon="5.96631">
        <ele>501.5</ele>
        <time>2014-08-24T10:40:59Z</time>
      </trkpt>
      <trkpt lat="45.47719" lon="5.96628">
        <ele>502.5</ele>
        <time>2014-08-24T10:41:04Z</time>
      </trkpt>
      <trkpt lat="45.4771" lon="5.9662">
        <ele>503.7</ele>
        <time>2014-08-24T10:41:09Z</time>
      </trkpt>
      <trkpt lat="45.47709" lon="5.96606">
        <ele>504.9</ele>
        <time>2014-08-24T10:41:14Z</time>
      </trkpt>
      <trkpt lat="45.47714" lon="5.96593">
        <ele>506.2</ele>
        <time>2014-08-24T10:41:19Z</time>
      </trkpt>
      <trkpt lat="45.47724" lon="5.96586">
        <ele>507.2</ele>
        <time>2014-08-24T10:41:24Z</time>
      </trkpt>
      <trkpt lat="45.47733" lon="5.96585">
        <ele>508.2</ele>
        <time>2014-08-24T10:41:29Z</time>
      </trkpt>
      <trkpt lat="45.47743" lon="5.96584">
        <ele>509.3</ele>
        <time>2014-08-24T10:41:34Z</time>
      </trkpt>
      <trkpt lat="45.47752" lon="5.9658">
        <ele>510.4</ele>
        <time>2014-08-24T10:41:38Z</time>
      </trkpt>
      <trkpt lat="45.47759" lon="5.9657">
        <ele>511.5</ele>
        <time>2014-08-24T10:41:43Z</time>
      </trkpt>
      <trkpt lat="45.47763" lon="5.96557">
        <ele>512.8</ele>
        <time>2014-08-24T10:41:48Z</time>
      </trkpt>
      <trkpt lat="45.47764" lon="5.96544">
        <ele>514.4</ele>
        <time>2014-08-24T10:41:54Z</time>
      </trkpt>
      <trkpt lat="45.47767" lon="5.9653">
        <ele>515.7</ele>
        <time>2014-08-24T10:42:00Z</time>
      </trkpt>
      <trkpt lat="45.47766" lon="5.96515">
        <ele>517.2</ele>
        <time>2014-08-24T10:42:05Z</time>
      </trkpt>
      <trkpt lat="45.47764" lon="5.96501">
        <ele>518.3</ele>
        <time>2014-08-24T10:42:10Z</time>
      </trkpt>
      <trkpt lat="45.47764" lon="5.96487">
        <ele>519.5</ele>
        <time>2014-08-24T10:42:15Z</time>
      </trkpt>
      <trkpt lat="45.47764" lon="5.96472">
        <ele>521.1</ele>
        <time>2014-08-24T10:42:20Z</time>
      </trkpt>
      <trkpt lat="45.47763" lon="5.96457">
        <ele>522.8</ele>
        <time>2014-08-24T10:42:26Z</time>
      </trkpt>
      <trkpt lat="45.47761" lon="5.96442">
        <ele>524.2</ele>
        <time>2014-08-24T10:42:32Z</time>
      </trkpt>
      <trkpt lat="45.47758" lon="5.96428">
        <ele>526</ele>
        <time>2014-08-24T10:42:38Z</time>
      </trkpt>
      <trkpt lat="45.47757" lon="5.96413">
        <ele>527.4</ele>
        <time>2014-08-24T10:42:44Z</time>
      </trkpt>
      <trkpt lat="45.47755" lon="5.96397">
        <ele>528.9</ele>
        <time>2014-08-24T10:42:50Z</time>
      </trkpt>
      <trkpt lat="45.47754" lon="5.96384">
        <ele>529.9</ele>
        <time>2014-08-24T10:42:55Z</time>
      </trkpt>
      <trkpt lat="45.47753" lon="5.9637">
        <ele>530.8</ele>
        <time>2014-08-24T10:43:00Z</time>
      </trkpt>
      <trkpt lat="45.47751" lon="5.96356">
        <ele>532.1</ele>
        <time>2014-08-24T10:43:05Z</time>
      </trkpt>
      <trkpt lat="45.47749" lon="5.96343">
        <ele>532.9</ele>
        <time>2014-08-24T10:43:10Z</time>
      </trkpt>
      <trkpt lat="45.47745" lon="5.96329">
        <ele>534.4</ele>
        <time>2014-08-24T10:43:16Z</time>
      </trkpt>
      <trkpt lat="45.47744" lon="5.96314">
        <ele>535.8</ele>
        <time>2014-08-24T10:43:22Z</time>
      </trkpt>
      <trkpt lat="45.47744" lon="5.96301">
        <ele>536.8</ele>
        <time>2014-08-24T10:43:27Z</time>
      </trkpt>
      <trkpt lat="45.47744" lon="5.96287">
        <ele>537.6</ele>
        <time>2014-08-24T10:43:32Z</time>
      </trkpt>
      <trkpt lat="45.47745" lon="5.96274">
        <ele>538.1</ele>
        <time>2014-08-24T10:43:37Z</time>
      </trkpt>
      <trkpt lat="45.47745" lon="5.96261">
        <ele>539.2</ele>
        <time>2014-08-24T10:43:42Z</time>
      </trkpt>
      <trkpt lat="45.47745" lon="5.96246">
        <ele>540.2</ele>
        <time>2014-08-24T10:43:47Z</time>
      </trkpt>
      <trkpt lat="45.47745" lon="5.96232">
        <ele>541.1</ele>
        <time>2014-08-24T10:43:52Z</time>
      </trkpt>
      <trkpt lat="45.47744" lon="5.96218">
        <ele>541.6</ele>
        <time>2014-08-24T10:43:57Z</time>
      </trkpt>
      <trkpt lat="45.47745" lon="5.96204">
        <ele>542.3</ele>
        <time>2014-08-24T10:44:02Z</time>
      </trkpt>
      <trkpt lat="45.47745" lon="5.96189">
        <ele>543</ele>
        <time>2014-08-24T10:44:07Z</time>
      </trkpt>
      <trkpt lat="45.47745" lon="5.96174">
        <ele>543.9</ele>
        <time>2014-08-24T10:44:12Z</time>
      </trkpt>
      <trkpt lat="45.47746" lon="5.96159">
        <ele>544.9</ele>
        <time>2014-08-24T10:44:17Z</time>
      </trkpt>
      <trkpt lat="45.47748" lon="5.96143">
        <ele>546.1</ele>
        <time>2014-08-24T10:44:22Z</time>
      </trkpt>
      <trkpt lat="45.4775" lon="5.96127">
        <ele>547.9</ele>
        <time>2014-08-24T10:44:27Z</time>
      </trkpt>
      <trkpt lat="45.47752" lon="5.96114">
        <ele>548.8</ele>
        <time>2014-08-24T10:44:31Z</time>
      </trkpt>
      <trkpt lat="45.47756" lon="5.96099">
        <ele>549.8</ele>
        <time>2014-08-24T10:44:36Z</time>
      </trkpt>
      <trkpt lat="45.47757" lon="5.96085">
        <ele>550.1</ele>
        <time>2014-08-24T10:44:41Z</time>
      </trkpt>
      <trkpt lat="45.4776" lon="5.96072">
        <ele>550.6</ele>
        <time>2014-08-24T10:44:45Z</time>
      </trkpt>
      <trkpt lat="45.47763" lon="5.96059">
        <ele>551.2</ele>
        <time>2014-08-24T10:44:49Z</time>
      </trkpt>
      <trkpt lat="45.47766" lon="5.96046">
        <ele>551.6</ele>
        <time>2014-08-24T10:44:53Z</time>
      </trkpt>
      <trkpt lat="45.4777" lon="5.96033">
        <ele>552.2</ele>
        <time>2014-08-24T10:44:57Z</time>
      </trkpt>
      <trkpt lat="45.47772" lon="5.96018">
        <ele>552.9</ele>
        <time>2014-08-24T10:45:02Z</time>
      </trkpt>
      <trkpt lat="45.47773" lon="5.96005">
        <ele>554.1</ele>
        <time>2014-08-24T10:45:06Z</time>
      </trkpt>
      <trkpt lat="45.47774" lon="5.9599">
        <ele>555.4</ele>
        <time>2014-08-24T10:45:11Z</time>
      </trkpt>
      <trkpt lat="45.47775" lon="5.95974">
        <ele>556.9</ele>
        <time>2014-08-24T10:45:16Z</time>
      </trkpt>
      <trkpt lat="45.47775" lon="5.9596">
        <ele>558.1</ele>
        <time>2014-08-24T10:45:21Z</time>
      </trkpt>
      <trkpt lat="45.47775" lon="5.95946">
        <ele>559.4</ele>
        <time>2014-08-24T10:45:26Z</time>
      </trkpt>
      <trkpt lat="45.47773" lon="5.95932">
        <ele>560.6</ele>
        <time>2014-08-24T10:45:31Z</time>
      </trkpt>
      <trkpt lat="45.47772" lon="5.95917">
        <ele>562</ele>
        <time>2014-08-24T10:45:36Z</time>
      </trkpt>
      <trkpt lat="45.47772" lon="5.95904">
        <ele>563.2</ele>
        <time>2014-08-24T10:45:41Z</time>
      </trkpt>
      <trkpt lat="45.47772" lon="5.9589">
        <ele>564.5</ele>
        <time>2014-08-24T10:45:46Z</time>
      </trkpt>
      <trkpt lat="45.47771" lon="5.95876">
        <ele>566.1</ele>
        <time>2014-08-24T10:45:51Z</time>
      </trkpt>
      <trkpt lat="45.4777" lon="5.95862">
        <ele>567.3</ele>
        <time>2014-08-24T10:45:56Z</time>
      </trkpt>
      <trkpt lat="45.4777" lon="5.95848">
        <ele>568.8</ele>
        <time>2014-08-24T10:46:01Z</time>
      </trkpt>
      <trkpt lat="45.47771" lon="5.95834">
        <ele>570.7</ele>
        <time>2014-08-24T10:46:06Z</time>
      </trkpt>
      <trkpt lat="45.47771" lon="5.9582">
        <ele>572.3</ele>
        <time>2014-08-24T10:46:11Z</time>
      </trkpt>
      <trkpt lat="45.47771" lon="5.95807">
        <ele>573.7</ele>
        <time>2014-08-24T10:46:16Z</time>
      </trkpt>
      <trkpt lat="45.47772" lon="5.95792">
        <ele>575.1</ele>
        <time>2014-08-24T10:46:22Z</time>
      </trkpt>
      <trkpt lat="45.47772" lon="5.95778">
        <ele>576.2</ele>
        <time>2014-08-24T10:46:27Z</time>
      </trkpt>
      <trkpt lat="45.47772" lon="5.95764">
        <ele>577.5</ele>
        <time>2014-08-24T10:46:32Z</time>
      </trkpt>
      <trkpt lat="45.47774" lon="5.95749">
        <ele>578.4</ele>
        <time>2014-08-24T10:46:37Z</time>
      </trkpt>
      <trkpt lat="45.47775" lon="5.95735">
        <ele>579.3</ele>
        <time>2014-08-24T10:46:42Z</time>
      </trkpt>
      <trkpt lat="45.47777" lon="5.95723">
        <ele>580.5</ele>
        <time>2014-08-24T10:46:47Z</time>
      </trkpt>
      <trkpt lat="45.47781" lon="5.95708">
        <ele>581.4</ele>
        <time>2014-08-24T10:46:53Z</time>
      </trkpt>
      <trkpt lat="45.47785" lon="5.95697">
        <ele>582.5</ele>
        <time>2014-08-24T10:46:58Z</time>
      </trkpt>
      <trkpt lat="45.4779" lon="5.95684">
        <ele>583.7</ele>
        <time>2014-08-24T10:47:03Z</time>
      </trkpt>
      <trkpt lat="45.47796" lon="5.95671">
        <ele>584.6</ele>
        <time>2014-08-24T10:47:08Z</time>
      </trkpt>
      <trkpt lat="45.478" lon="5.95657">
        <ele>585.6</ele>
        <time>2014-08-24T10:47:13Z</time>
      </trkpt>
      <trkpt lat="45.47805" lon="5.95645">
        <ele>586.2</ele>
        <time>2014-08-24T10:47:18Z</time>
      </trkpt>
      <trkpt lat="45.4781" lon="5.95634">
        <ele>586.8</ele>
        <time>2014-08-24T10:47:23Z</time>
      </trkpt>
      <trkpt lat="45.47816" lon="5.95622">
        <ele>587.7</ele>
        <time>2014-08-24T10:47:28Z</time>
      </trkpt>
      <trkpt lat="45.4782" lon="5.95611">
        <ele>589.4</ele>
        <time>2014-08-24T10:47:35Z</time>
      </trkpt>
      <trkpt lat="45.47827" lon="5.95602">
        <ele>590.2</ele>
        <time>2014-08-24T10:47:39Z</time>
      </trkpt>
      <trkpt lat="45.47835" lon="5.95593">
        <ele>592.1</ele>
        <time>2014-08-24T10:47:46Z</time>
      </trkpt>
      <trkpt lat="45.47842" lon="5.95585">
        <ele>593.9</ele>
        <time>2014-08-24T10:47:52Z</time>
      </trkpt>
      <trkpt lat="45.4785" lon="5.95575">
        <ele>595.1</ele>
        <time>2014-08-24T10:47:57Z</time>
      </trkpt>
      <trkpt lat="45.47858" lon="5.95566">
        <ele>596.1</ele>
        <time>2014-08-24T10:48:02Z</time>
      </trkpt>
      <trkpt lat="45.47865" lon="5.95554">
        <ele>597.1</ele>
        <time>2014-08-24T10:48:07Z</time>
      </trkpt>
      <trkpt lat="45.47872" lon="5.95544">
        <ele>598.3</ele>
        <time>2014-08-24T10:48:12Z</time>
      </trkpt>
      <trkpt lat="45.47878" lon="5.95531">
        <ele>599.4</ele>
        <time>2014-08-24T10:48:19Z</time>
      </trkpt>
      <trkpt lat="45.47885" lon="5.95522">
        <ele>600.2</ele>
        <time>2014-08-24T10:48:24Z</time>
      </trkpt>
      <trkpt lat="45.47893" lon="5.95514">
        <ele>601.4</ele>
        <time>2014-08-24T10:48:30Z</time>
      </trkpt>
      <trkpt lat="45.47901" lon="5.95505">
        <ele>601.8</ele>
        <time>2014-08-24T10:48:35Z</time>
      </trkpt>
      <trkpt lat="45.47907" lon="5.95496">
        <ele>602.3</ele>
        <time>2014-08-24T10:48:39Z</time>
      </trkpt>
      <trkpt lat="45.47914" lon="5.95485">
        <ele>603.2</ele>
        <time>2014-08-24T10:48:44Z</time>
      </trkpt>
      <trkpt lat="45.47919" lon="5.95473">
        <ele>604</ele>
        <time>2014-08-24T10:48:49Z</time>
      </trkpt>
      <trkpt lat="45.47923" lon="5.95461">
        <ele>605.2</ele>
        <time>2014-08-24T10:48:55Z</time>
      </trkpt>
      <trkpt lat="45.4793" lon="5.9545">
        <ele>606.5</ele>
        <time>2014-08-24T10:49:00Z</time>
      </trkpt>
      <trkpt lat="45.47936" lon="5.95439">
        <ele>607.8</ele>
        <time>2014-08-24T10:49:05Z</time>
      </trkpt>
      <trkpt lat="45.47944" lon="5.95432">
        <ele>608.8</ele>
        <time>2014-08-24T10:49:09Z</time>
      </trkpt>
      <trkpt lat="45.47953" lon="5.95424">
        <ele>609.6</ele>
        <time>2014-08-24T10:49:12Z</time>
      </trkpt>
      <trkpt lat="45.4796" lon="5.95415">
        <ele>610.8</ele>
        <time>2014-08-24T10:49:16Z</time>
      </trkpt>
      <trkpt lat="45.47968" lon="5.95404">
        <ele>611.9</ele>
        <time>2014-08-24T10:49:21Z</time>
      </trkpt>
      <trkpt lat="45.47976" lon="5.95397">
        <ele>612.7</ele>
        <time>2014-08-24T10:49:25Z</time>
      </trkpt>
      <trkpt lat="45.47984" lon="5.95387">
        <ele>613.7</ele>
        <time>2014-08-24T10:49:30Z</time>
      </trkpt>
      <trkpt lat="45.47992" lon="5.95379">
        <ele>614.5</ele>
        <time>2014-08-24T10:49:34Z</time>
      </trkpt>
      <trkpt lat="45.48" lon="5.95371">
        <ele>615.1</ele>
        <time>2014-08-24T10:49:38Z</time>
      </trkpt>
      <trkpt lat="45.48008" lon="5.95361">
        <ele>616</ele>
        <time>2014-08-24T10:49:42Z</time>
      </trkpt>
      <trkpt lat="45.48016" lon="5.95354">
        <ele>616.6</ele>
        <time>2014-08-24T10:49:46Z</time>
      </trkpt>
      <trkpt lat="45.48026" lon="5.95348">
        <ele>617.7</ele>
        <time>2014-08-24T10:49:50Z</time>
      </trkpt>
      <trkpt lat="45.48035" lon="5.95343">
        <ele>618.1</ele>
        <time>2014-08-24T10:49:54Z</time>
      </trkpt>
      <trkpt lat="45.48045" lon="5.95338">
        <ele>618.6</ele>
        <time>2014-08-24T10:49:58Z</time>
      </trkpt>
      <trkpt lat="45.48055" lon="5.95331">
        <ele>619.2</ele>
        <time>2014-08-24T10:50:03Z</time>
      </trkpt>
      <trkpt lat="45.48061" lon="5.95321">
        <ele>619.9</ele>
        <time>2014-08-24T10:50:07Z</time>
      </trkpt>
      <trkpt lat="45.4807" lon="5.95309">
        <ele>620.3</ele>
        <time>2014-08-24T10:50:11Z</time>
      </trkpt>
      <trkpt lat="45.48076" lon="5.95297">
        <ele>620.6</ele>
        <time>2014-08-24T10:50:15Z</time>
      </trkpt>
      <trkpt lat="45.48083" lon="5.95288">
        <ele>621.1</ele>
        <time>2014-08-24T10:50:19Z</time>
      </trkpt>
      <trkpt lat="45.48091" lon="5.95277">
        <ele>622.3</ele>
        <time>2014-08-24T10:50:24Z</time>
      </trkpt>
      <trkpt lat="45.48097" lon="5.95265">
        <ele>622.9</ele>
        <time>2014-08-24T10:50:28Z</time>
      </trkpt>
      <trkpt lat="45.48104" lon="5.95253">
        <ele>623.8</ele>
        <time>2014-08-24T10:50:32Z</time>
      </trkpt>
      <trkpt lat="45.48111" lon="5.9524">
        <ele>624.5</ele>
        <time>2014-08-24T10:50:36Z</time>
      </trkpt>
      <trkpt lat="45.48115" lon="5.95226">
        <ele>625.2</ele>
        <time>2014-08-24T10:50:40Z</time>
      </trkpt>
      <trkpt lat="45.48119" lon="5.95215">
        <ele>625.9</ele>
        <time>2014-08-24T10:50:43Z</time>
      </trkpt>
      <trkpt lat="45.48122" lon="5.952">
        <ele>626</ele>
        <time>2014-08-24T10:50:47Z</time>
      </trkpt>
      <trkpt lat="45.48121" lon="5.95186">
        <ele>626.6</ele>
        <time>2014-08-24T10:50:51Z</time>
      </trkpt>
      <trkpt lat="45.48119" lon="5.95173">
        <ele>627.3</ele>
        <time>2014-08-24T10:50:55Z</time>
      </trkpt>
      <trkpt lat="45.48115" lon="5.95158">
        <ele>627.7</ele>
        <time>2014-08-24T10:50:59Z</time>
      </trkpt>
      <trkpt lat="45.48112" lon="5.95145">
        <ele>628.2</ele>
        <time>2014-08-24T10:51:02Z</time>
      </trkpt>
      <trkpt lat="45.48109" lon="5.95129">
        <ele>628.6</ele>
        <time>2014-08-24T10:51:06Z</time>
      </trkpt>
      <trkpt lat="45.48105" lon="5.95114">
        <ele>629.3</ele>
        <time>2014-08-24T10:51:10Z</time>
      </trkpt>
      <trkpt lat="45.48102" lon="5.95098">
        <ele>629.7</ele>
        <time>2014-08-24T10:51:14Z</time>
      </trkpt>
      <trkpt lat="45.48099" lon="5.95083">
        <ele>630.3</ele>
        <time>2014-08-24T10:51:18Z</time>
      </trkpt>
      <trkpt lat="45.48101" lon="5.95069">
        <ele>631</ele>
        <time>2014-08-24T10:51:21Z</time>
      </trkpt>
      <trkpt lat="45.48099" lon="5.95055">
        <ele>631.5</ele>
        <time>2014-08-24T10:51:24Z</time>
      </trkpt>
      <trkpt lat="45.48098" lon="5.95039">
        <ele>631.9</ele>
        <time>2014-08-24T10:51:28Z</time>
      </trkpt>
      <trkpt lat="45.48093" lon="5.95023">
        <ele>633.1</ele>
        <time>2014-08-24T10:51:32Z</time>
      </trkpt>
      <trkpt lat="45.48092" lon="5.95008">
        <ele>634.1</ele>
        <time>2014-08-24T10:51:36Z</time>
      </trkpt>
      <trkpt lat="45.48088" lon="5.94994">
        <ele>635</ele>
        <time>2014-08-24T10:51:40Z</time>
      </trkpt>
      <trkpt lat="45.48085" lon="5.9498">
        <ele>635.9</ele>
        <time>2014-08-24T10:51:44Z</time>
      </trkpt>
      <trkpt lat="45.48084" lon="5.94966">
        <ele>636.8</ele>
        <time>2014-08-24T10:51:48Z</time>
      </trkpt>
      <trkpt lat="45.48083" lon="5.94952">
        <ele>637.4</ele>
        <time>2014-08-24T10:51:52Z</time>
      </trkpt>
      <trkpt lat="45.48081" lon="5.94939">
        <ele>638.2</ele>
        <time>2014-08-24T10:51:56Z</time>
      </trkpt>
      <trkpt lat="45.48084" lon="5.94924">
        <ele>639</ele>
        <time>2014-08-24T10:52:00Z</time>
      </trkpt>
      <trkpt lat="45.48087" lon="5.94913">
        <ele>639.5</ele>
        <time>2014-08-24T10:52:03Z</time>
      </trkpt>
      <trkpt lat="45.48092" lon="5.949">
        <ele>639.8</ele>
        <time>2014-08-24T10:52:06Z</time>
      </trkpt>
      <trkpt lat="45.48096" lon="5.94885">
        <ele>640.5</ele>
        <time>2014-08-24T10:52:10Z</time>
      </trkpt>
      <trkpt lat="45.48096" lon="5.9487">
        <ele>641</ele>
        <time>2014-08-24T10:52:14Z</time>
      </trkpt>
      <trkpt lat="45.48093" lon="5.94856">
        <ele>641.4</ele>
        <time>2014-08-24T10:52:17Z</time>
      </trkpt>
      <trkpt lat="45.48087" lon="5.94845">
        <ele>641.9</ele>
        <time>2014-08-24T10:52:20Z</time>
      </trkpt>
      <trkpt lat="45.48077" lon="5.94838">
        <ele>642.2</ele>
        <time>2014-08-24T10:52:24Z</time>
      </trkpt>
      <trkpt lat="45.48066" lon="5.94841">
        <ele>642.5</ele>
        <time>2014-08-24T10:52:28Z</time>
      </trkpt>
      <trkpt lat="45.4806" lon="5.94855">
        <ele>642.6</ele>
        <time>2014-08-24T10:52:32Z</time>
      </trkpt>
      <trkpt lat="45.48057" lon="5.94869">
        <ele>642.9</ele>
        <time>2014-08-24T10:52:36Z</time>
      </trkpt>
      <trkpt lat="45.48056" lon="5.94885">
        <ele>643.5</ele>
        <time>2014-08-24T10:52:41Z</time>
      </trkpt>
      <trkpt lat="45.48055" lon="5.94899">
        <ele>644.2</ele>
        <time>2014-08-24T10:52:45Z</time>
      </trkpt>
      <trkpt lat="45.48056" lon="5.94911">
        <ele>644.4</ele>
        <time>2014-08-24T10:52:48Z</time>
      </trkpt>
      <trkpt lat="45.48055" lon="5.94925">
        <ele>645</ele>
        <time>2014-08-24T10:52:52Z</time>
      </trkpt>
      <trkpt lat="45.48054" lon="5.9494">
        <ele>645.6</ele>
        <time>2014-08-24T10:52:57Z</time>
      </trkpt>
      <trkpt lat="45.48054" lon="5.94954">
        <ele>646.5</ele>
        <time>2014-08-24T10:53:01Z</time>
      </trkpt>
      <trkpt lat="45.48055" lon="5.94968">
        <ele>646.9</ele>
        <time>2014-08-24T10:53:04Z</time>
      </trkpt>
      <trkpt lat="45.48055" lon="5.94981">
        <ele>647.4</ele>
        <time>2014-08-24T10:53:08Z</time>
      </trkpt>
      <trkpt lat="45.48057" lon="5.94996">
        <ele>647.8</ele>
        <time>2014-08-24T10:53:11Z</time>
      </trkpt>
      <trkpt lat="45.48059" lon="5.95009">
        <ele>648.5</ele>
        <time>2014-08-24T10:53:14Z</time>
      </trkpt>
      <trkpt lat="45.48061" lon="5.95023">
        <ele>649.1</ele>
        <time>2014-08-24T10:53:18Z</time>
      </trkpt>
      <trkpt lat="45.48064" lon="5.95038">
        <ele>649.9</ele>
        <time>2014-08-24T10:53:22Z</time>
      </trkpt>
      <trkpt lat="45.48065" lon="5.95052">
        <ele>650.4</ele>
        <time>2014-08-24T10:53:25Z</time>
      </trkpt>
      <trkpt lat="45.48066" lon="5.95065">
        <ele>651.1</ele>
        <time>2014-08-24T10:53:28Z</time>
      </trkpt>
      <trkpt lat="45.48064" lon="5.95079">
        <ele>651.5</ele>
        <time>2014-08-24T10:53:32Z</time>
      </trkpt>
      <trkpt lat="45.4806" lon="5.95093">
        <ele>652.4</ele>
        <time>2014-08-24T10:53:37Z</time>
      </trkpt>
      <trkpt lat="45.48057" lon="5.95109">
        <ele>653.3</ele>
        <time>2014-08-24T10:53:42Z</time>
      </trkpt>
      <trkpt lat="45.48052" lon="5.95119">
        <ele>654.2</ele>
        <time>2014-08-24T10:53:46Z</time>
      </trkpt>
      <trkpt lat="45.48049" lon="5.95135">
        <ele>655</ele>
        <time>2014-08-24T10:53:50Z</time>
      </trkpt>
      <trkpt lat="45.4804" lon="5.95142">
        <ele>655.6</ele>
        <time>2014-08-24T10:53:54Z</time>
      </trkpt>
      <trkpt lat="45.48029" lon="5.95141">
        <ele>656.6</ele>
        <time>2014-08-24T10:53:58Z</time>
      </trkpt>
      <trkpt lat="45.4802" lon="5.95141">
        <ele>657.6</ele>
        <time>2014-08-24T10:54:02Z</time>
      </trkpt>
      <trkpt lat="45.48011" lon="5.95137">
        <ele>658.1</ele>
        <time>2014-08-24T10:54:06Z</time>
      </trkpt>
      <trkpt lat="45.48003" lon="5.95131">
        <ele>658.9</ele>
        <time>2014-08-24T10:54:10Z</time>
      </trkpt>
      <trkpt lat="45.47995" lon="5.95123">
        <ele>659.5</ele>
        <time>2014-08-24T10:54:14Z</time>
      </trkpt>
      <trkpt lat="45.47987" lon="5.95117">
        <ele>660.2</ele>
        <time>2014-08-24T10:54:18Z</time>
      </trkpt>
      <trkpt lat="45.4798" lon="5.95108">
        <ele>661</ele>
        <time>2014-08-24T10:54:22Z</time>
      </trkpt>
      <trkpt lat="45.4797" lon="5.951">
        <ele>661.5</ele>
        <time>2014-08-24T10:54:26Z</time>
      </trkpt>
      <trkpt lat="45.47959" lon="5.95094">
        <ele>662.5</ele>
        <time>2014-08-24T10:54:30Z</time>
      </trkpt>
      <trkpt lat="45.47948" lon="5.95091">
        <ele>663.1</ele>
        <time>2014-08-24T10:54:34Z</time>
      </trkpt>
      <trkpt lat="45.47937" lon="5.95086">
        <ele>663.9</ele>
        <time>2014-08-24T10:54:38Z</time>
      </trkpt>
      <trkpt lat="45.47927" lon="5.95083">
        <ele>664.6</ele>
        <time>2014-08-24T10:54:42Z</time>
      </trkpt>
      <trkpt lat="45.47916" lon="5.95082">
        <ele>665.3</ele>
        <time>2014-08-24T10:54:46Z</time>
      </trkpt>
      <trkpt lat="45.47907" lon="5.95078">
        <ele>666.2</ele>
        <time>2014-08-24T10:54:50Z</time>
      </trkpt>
      <trkpt lat="45.47898" lon="5.95074">
        <ele>666.9</ele>
        <time>2014-08-24T10:54:54Z</time>
      </trkpt>
      <trkpt lat="45.47889" lon="5.95068">
        <ele>667.8</ele>
        <time>2014-08-24T10:54:58Z</time>
      </trkpt>
      <trkpt lat="45.47881" lon="5.95058">
        <ele>668.7</ele>
        <time>2014-08-24T10:55:02Z</time>
      </trkpt>
      <trkpt lat="45.47872" lon="5.95052">
        <ele>669.4</ele>
        <time>2014-08-24T10:55:06Z</time>
      </trkpt>
      <trkpt lat="45.47863" lon="5.95047">
        <ele>670.2</ele>
        <time>2014-08-24T10:55:10Z</time>
      </trkpt>
      <trkpt lat="45.47854" lon="5.95042">
        <ele>670.8</ele>
        <time>2014-08-24T10:55:14Z</time>
      </trkpt>
      <trkpt lat="45.47845" lon="5.95038">
        <ele>671.8</ele>
        <time>2014-08-24T10:55:18Z</time>
      </trkpt>
      <trkpt lat="45.47837" lon="5.95036">
        <ele>672.6</ele>
        <time>2014-08-24T10:55:22Z</time>
      </trkpt>
      <trkpt lat="45.47827" lon="5.95037">
        <ele>673.7</ele>
        <time>2014-08-24T10:55:26Z</time>
      </trkpt>
      <trkpt lat="45.47817" lon="5.95036">
        <ele>674.9</ele>
        <time>2014-08-24T10:55:31Z</time>
      </trkpt>
      <trkpt lat="45.47807" lon="5.95033">
        <ele>676</ele>
        <time>2014-08-24T10:55:36Z</time>
      </trkpt>
      <trkpt lat="45.47801" lon="5.95022">
        <ele>677</ele>
        <time>2014-08-24T10:55:41Z</time>
      </trkpt>
      <trkpt lat="45.47799" lon="5.95008">
        <ele>678</ele>
        <time>2014-08-24T10:55:46Z</time>
      </trkpt>
      <trkpt lat="45.47799" lon="5.94994">
        <ele>679.2</ele>
        <time>2014-08-24T10:55:51Z</time>
      </trkpt>
      <trkpt lat="45.47798" lon="5.9498">
        <ele>680.9</ele>
        <time>2014-08-24T10:55:56Z</time>
      </trkpt>
      <trkpt lat="45.47796" lon="5.94968">
        <ele>681.7</ele>
        <time>2014-08-24T10:56:01Z</time>
      </trkpt>
      <trkpt lat="45.47794" lon="5.94955">
        <ele>682.6</ele>
        <time>2014-08-24T10:56:05Z</time>
      </trkpt>
      <trkpt lat="45.47793" lon="5.94941">
        <ele>683.5</ele>
        <time>2014-08-24T10:56:10Z</time>
      </trkpt>
      <trkpt lat="45.47794" lon="5.94927">
        <ele>684.5</ele>
        <time>2014-08-24T10:56:15Z</time>
      </trkpt>
      <trkpt lat="45.478" lon="5.94915">
        <ele>685.4</ele>
        <time>2014-08-24T10:56:19Z</time>
      </trkpt>
      <trkpt lat="45.47809" lon="5.94909">
        <ele>686.4</ele>
        <time>2014-08-24T10:56:23Z</time>
      </trkpt>
      <trkpt lat="45.4782" lon="5.94912">
        <ele>687.5</ele>
        <time>2014-08-24T10:56:28Z</time>
      </trkpt>
      <trkpt lat="45.47826" lon="5.94922">
        <ele>688.3</ele>
        <time>2014-08-24T10:56:32Z</time>
      </trkpt>
      <trkpt lat="45.47833" lon="5.94935">
        <ele>689.7</ele>
        <time>2014-08-24T10:56:37Z</time>
      </trkpt>
      <trkpt lat="45.4784" lon="5.94944">
        <ele>690.2</ele>
        <time>2014-08-24T10:56:41Z</time>
      </trkpt>
      <trkpt lat="45.47847" lon="5.94955">
        <ele>691.6</ele>
        <time>2014-08-24T10:56:46Z</time>
      </trkpt>
      <trkpt lat="45.47856" lon="5.94962">
        <ele>692.3</ele>
        <time>2014-08-24T10:56:50Z</time>
      </trkpt>
      <trkpt lat="45.47865" lon="5.94966">
        <ele>692.8</ele>
        <time>2014-08-24T10:56:55Z</time>
      </trkpt>
      <trkpt lat="45.47873" lon="5.94959">
        <ele>694</ele>
        <time>2014-08-24T10:57:01Z</time>
      </trkpt>
      <trkpt lat="45.47876" lon="5.94946">
        <ele>694.4</ele>
        <time>2014-08-24T10:57:05Z</time>
      </trkpt>
      <trkpt lat="45.47875" lon="5.94929">
        <ele>694.8</ele>
        <time>2014-08-24T10:57:09Z</time>
      </trkpt>
      <trkpt lat="45.47872" lon="5.94913">
        <ele>695</ele>
        <time>2014-08-24T10:57:12Z</time>
      </trkpt>
      <trkpt lat="45.47868" lon="5.94898">
        <ele>695</ele>
        <time>2014-08-24T10:57:15Z</time>
      </trkpt>
      <trkpt lat="45.47865" lon="5.94882">
        <ele>694.8</ele>
        <time>2014-08-24T10:57:18Z</time>
      </trkpt>
      <trkpt lat="45.47861" lon="5.94867">
        <ele>695.2</ele>
        <time>2014-08-24T10:57:21Z</time>
      </trkpt>
      <trkpt lat="45.4786" lon="5.94852">
        <ele>695.2</ele>
        <time>2014-08-24T10:57:24Z</time>
      </trkpt>
      <trkpt lat="45.47861" lon="5.94837">
        <ele>695.6</ele>
        <time>2014-08-24T10:57:28Z</time>
      </trkpt>
      <trkpt lat="45.47863" lon="5.94822">
        <ele>696.5</ele>
        <time>2014-08-24T10:57:33Z</time>
      </trkpt>
      <trkpt lat="45.47868" lon="5.94809">
        <ele>698.2</ele>
        <time>2014-08-24T10:57:51Z</time>
      </trkpt>
      <trkpt lat="45.47871" lon="5.94795">
        <ele>699.2</ele>
        <time>2014-08-24T10:57:56Z</time>
      </trkpt>
      <trkpt lat="45.47874" lon="5.94782">
        <ele>700.1</ele>
        <time>2014-08-24T10:58:01Z</time>
      </trkpt>
      <trkpt lat="45.47876" lon="5.94768">
        <ele>701.3</ele>
        <time>2014-08-24T10:58:06Z</time>
      </trkpt>
      <trkpt lat="45.47875" lon="5.94755">
        <ele>702.4</ele>
        <time>2014-08-24T10:58:10Z</time>
      </trkpt>
      <trkpt lat="45.47874" lon="5.9474">
        <ele>703.6</ele>
        <time>2014-08-24T10:58:15Z</time>
      </trkpt>
      <trkpt lat="45.47874" lon="5.94727">
        <ele>705</ele>
        <time>2014-08-24T10:58:20Z</time>
      </trkpt>
      <trkpt lat="45.47873" lon="5.94714">
        <ele>705.9</ele>
        <time>2014-08-24T10:58:25Z</time>
      </trkpt>
      <trkpt lat="45.4787" lon="5.94699">
        <ele>706.9</ele>
        <time>2014-08-24T10:58:30Z</time>
      </trkpt>
      <trkpt lat="45.47868" lon="5.94684">
        <ele>707.9</ele>
        <time>2014-08-24T10:58:35Z</time>
      </trkpt>
      <trkpt lat="45.47864" lon="5.94673">
        <ele>708.9</ele>
        <time>2014-08-24T10:58:39Z</time>
      </trkpt>
      <trkpt lat="45.47861" lon="5.94659">
        <ele>709.8</ele>
        <time>2014-08-24T10:58:44Z</time>
      </trkpt>
      <trkpt lat="45.47857" lon="5.94645">
        <ele>711.1</ele>
        <time>2014-08-24T10:58:49Z</time>
      </trkpt>
      <trkpt lat="45.47852" lon="5.94634">
        <ele>712</ele>
        <time>2014-08-24T10:58:53Z</time>
      </trkpt>
      <trkpt lat="45.47848" lon="5.94619">
        <ele>713.3</ele>
        <time>2014-08-24T10:58:58Z</time>
      </trkpt>
      <trkpt lat="45.47843" lon="5.94606">
        <ele>714.8</ele>
        <time>2014-08-24T10:59:03Z</time>
      </trkpt>
      <trkpt lat="45.47839" lon="5.94592">
        <ele>715.5</ele>
        <time>2014-08-24T10:59:08Z</time>
      </trkpt>
      <trkpt lat="45.47836" lon="5.94578">
        <ele>716.9</ele>
        <time>2014-08-24T10:59:13Z</time>
      </trkpt>
      <trkpt lat="45.47831" lon="5.94564">
        <ele>718.5</ele>
        <time>2014-08-24T10:59:18Z</time>
      </trkpt>
      <trkpt lat="45.47827" lon="5.9455">
        <ele>719.9</ele>
        <time>2014-08-24T10:59:23Z</time>
      </trkpt>
      <trkpt lat="45.47821" lon="5.94536">
        <ele>721</ele>
        <time>2014-08-24T10:59:28Z</time>
      </trkpt>
      <trkpt lat="45.47816" lon="5.94522">
        <ele>722</ele>
        <time>2014-08-24T10:59:33Z</time>
      </trkpt>
      <trkpt lat="45.47811" lon="5.94509">
        <ele>722.9</ele>
        <time>2014-08-24T10:59:38Z</time>
      </trkpt>
      <trkpt lat="45.47808" lon="5.94495">
        <ele>724</ele>
        <time>2014-08-24T10:59:43Z</time>
      </trkpt>
      <trkpt lat="45.47808" lon="5.9448">
        <ele>725.3</ele>
        <time>2014-08-24T10:59:49Z</time>
      </trkpt>
      <trkpt lat="45.47813" lon="5.94469">
        <ele>726.1</ele>
        <time>2014-08-24T10:59:52Z</time>
      </trkpt>
      <trkpt lat="45.47819" lon="5.94457">
        <ele>727.6</ele>
        <time>2014-08-24T10:59:57Z</time>
      </trkpt>
      <trkpt lat="45.47825" lon="5.94448">
        <ele>728.8</ele>
        <time>2014-08-24T11:00:02Z</time>
      </trkpt>
      <trkpt lat="45.47835" lon="5.94441">
        <ele>730.5</ele>
        <time>2014-08-24T11:00:09Z</time>
      </trkpt>
      <trkpt lat="45.47843" lon="5.94435">
        <ele>731.4</ele>
        <time>2014-08-24T11:00:13Z</time>
      </trkpt>
      <trkpt lat="45.4785" lon="5.94426">
        <ele>732.7</ele>
        <time>2014-08-24T11:00:18Z</time>
      </trkpt>
      <trkpt lat="45.47855" lon="5.94412">
        <ele>734.3</ele>
        <time>2014-08-24T11:00:24Z</time>
      </trkpt>
      <trkpt lat="45.47857" lon="5.94397">
        <ele>735.1</ele>
        <time>2014-08-24T11:00:29Z</time>
      </trkpt>
      <trkpt lat="45.47858" lon="5.94384">
        <ele>736</ele>
        <time>2014-08-24T11:00:34Z</time>
      </trkpt>
      <trkpt lat="45.47857" lon="5.94371">
        <ele>737.1</ele>
        <time>2014-08-24T11:00:39Z</time>
      </trkpt>
      <trkpt lat="45.47858" lon="5.94356">
        <ele>738.6</ele>
        <time>2014-08-24T11:00:45Z</time>
      </trkpt>
      <trkpt lat="45.4786" lon="5.94342">
        <ele>740</ele>
        <time>2014-08-24T11:00:51Z</time>
      </trkpt>
      <trkpt lat="45.47865" lon="5.94328">
        <ele>741.8</ele>
        <time>2014-08-24T11:00:58Z</time>
      </trkpt>
      <trkpt lat="45.47871" lon="5.94318">
        <ele>743.3</ele>
        <time>2014-08-24T11:01:04Z</time>
      </trkpt>
      <trkpt lat="45.47877" lon="5.94309">
        <ele>744.5</ele>
        <time>2014-08-24T11:01:10Z</time>
      </trkpt>
      <trkpt lat="45.47883" lon="5.94298">
        <ele>745.9</ele>
        <time>2014-08-24T11:01:16Z</time>
      </trkpt>
      <trkpt lat="45.47888" lon="5.94284">
        <ele>747.8</ele>
        <time>2014-08-24T11:01:22Z</time>
      </trkpt>
      <trkpt lat="45.47888" lon="5.94271">
        <ele>749.5</ele>
        <time>2014-08-24T11:01:27Z</time>
      </trkpt>
      <trkpt lat="45.47884" lon="5.94257">
        <ele>750.7</ele>
        <time>2014-08-24T11:01:32Z</time>
      </trkpt>
      <trkpt lat="45.47876" lon="5.94246">
        <ele>751.9</ele>
        <time>2014-08-24T11:01:37Z</time>
      </trkpt>
      <trkpt lat="45.47867" lon="5.9424">
        <ele>752.9</ele>
        <time>2014-08-24T11:01:42Z</time>
      </trkpt>
      <trkpt lat="45.47857" lon="5.94235">
        <ele>753.9</ele>
        <time>2014-08-24T11:01:47Z</time>
      </trkpt>
      <trkpt lat="45.47848" lon="5.94228">
        <ele>754.6</ele>
        <time>2014-08-24T11:01:52Z</time>
      </trkpt>
      <trkpt lat="45.47839" lon="5.94221">
        <ele>755.8</ele>
        <time>2014-08-24T11:01:57Z</time>
      </trkpt>
      <trkpt lat="45.4783" lon="5.94215">
        <ele>757.4</ele>
        <time>2014-08-24T11:02:02Z</time>
      </trkpt>
      <trkpt lat="45.4782" lon="5.94214">
        <ele>759.1</ele>
        <time>2014-08-24T11:02:07Z</time>
      </trkpt>
      <trkpt lat="45.4781" lon="5.94215">
        <ele>760.3</ele>
        <time>2014-08-24T11:02:12Z</time>
      </trkpt>
      <trkpt lat="45.47801" lon="5.94216">
        <ele>761.2</ele>
        <time>2014-08-24T11:02:17Z</time>
      </trkpt>
      <trkpt lat="45.47792" lon="5.94218">
        <ele>762.5</ele>
        <time>2014-08-24T11:02:22Z</time>
      </trkpt>
      <trkpt lat="45.47782" lon="5.94221">
        <ele>763.8</ele>
        <time>2014-08-24T11:02:27Z</time>
      </trkpt>
      <trkpt lat="45.47773" lon="5.94221">
        <ele>765.5</ele>
        <time>2014-08-24T11:02:32Z</time>
      </trkpt>
      <trkpt lat="45.47763" lon="5.94223">
        <ele>766.8</ele>
        <time>2014-08-24T11:02:37Z</time>
      </trkpt>
      <trkpt lat="45.47754" lon="5.94222">
        <ele>767.9</ele>
        <time>2014-08-24T11:02:42Z</time>
      </trkpt>
      <trkpt lat="45.47744" lon="5.9422">
        <ele>769.2</ele>
        <time>2014-08-24T11:02:47Z</time>
      </trkpt>
      <trkpt lat="45.47735" lon="5.94215">
        <ele>770.5</ele>
        <time>2014-08-24T11:02:52Z</time>
      </trkpt>
      <trkpt lat="45.47728" lon="5.94205">
        <ele>771.9</ele>
        <time>2014-08-24T11:02:58Z</time>
      </trkpt>
      <trkpt lat="45.47721" lon="5.94195">
        <ele>772.9</ele>
        <time>2014-08-24T11:03:03Z</time>
      </trkpt>
      <trkpt lat="45.47711" lon="5.94189">
        <ele>774.5</ele>
        <time>2014-08-24T11:03:08Z</time>
      </trkpt>
      <trkpt lat="45.47702" lon="5.94187">
        <ele>775.7</ele>
        <time>2014-08-24T11:03:13Z</time>
      </trkpt>
      <trkpt lat="45.47692" lon="5.94187">
        <ele>777</ele>
        <time>2014-08-24T11:03:19Z</time>
      </trkpt>
      <trkpt lat="45.47683" lon="5.94186">
        <ele>778.3</ele>
        <time>2014-08-24T11:03:25Z</time>
      </trkpt>
      <trkpt lat="45.47672" lon="5.94187">
        <ele>779.6</ele>
        <time>2014-08-24T11:03:31Z</time>
      </trkpt>
      <trkpt lat="45.47662" lon="5.9419">
        <ele>780.7</ele>
        <time>2014-08-24T11:03:36Z</time>
      </trkpt>
      <trkpt lat="45.47653" lon="5.94186">
        <ele>781.9</ele>
        <time>2014-08-24T11:03:43Z</time>
      </trkpt>
      <trkpt lat="45.47651" lon="5.94172">
        <ele>784.4</ele>
        <time>2014-08-24T11:03:51Z</time>
      </trkpt>
      <trkpt lat="45.47656" lon="5.9416">
        <ele>785.6</ele>
        <time>2014-08-24T11:03:57Z</time>
      </trkpt>
      <trkpt lat="45.47662" lon="5.9415">
        <ele>786.7</ele>
        <time>2014-08-24T11:04:02Z</time>
      </trkpt>
      <trkpt lat="45.47668" lon="5.94139">
        <ele>788</ele>
        <time>2014-08-24T11:04:08Z</time>
      </trkpt>
      <trkpt lat="45.47677" lon="5.94129">
        <ele>788.9</ele>
        <time>2014-08-24T11:04:13Z</time>
      </trkpt>
      <trkpt lat="45.47686" lon="5.94119">
        <ele>790.1</ele>
        <time>2014-08-24T11:04:19Z</time>
      </trkpt>
      <trkpt lat="45.47695" lon="5.94112">
        <ele>791.5</ele>
        <time>2014-08-24T11:04:25Z</time>
      </trkpt>
      <trkpt lat="45.47703" lon="5.94105">
        <ele>792.7</ele>
        <time>2014-08-24T11:04:32Z</time>
      </trkpt>
      <trkpt lat="45.47711" lon="5.94097">
        <ele>793.9</ele>
        <time>2014-08-24T11:04:38Z</time>
      </trkpt>
      <trkpt lat="45.4772" lon="5.9409">
        <ele>795.2</ele>
        <time>2014-08-24T11:04:44Z</time>
      </trkpt>
      <trkpt lat="45.47729" lon="5.94088">
        <ele>796.5</ele>
        <time>2014-08-24T11:04:52Z</time>
      </trkpt>
      <trkpt lat="45.47739" lon="5.9409">
        <ele>798.3</ele>
        <time>2014-08-24T11:05:00Z</time>
      </trkpt>
      <trkpt lat="45.47748" lon="5.94093">
        <ele>799.4</ele>
        <time>2014-08-24T11:05:06Z</time>
      </trkpt>
      <trkpt lat="45.47757" lon="5.94097">
        <ele>800.7</ele>
        <time>2014-08-24T11:05:13Z</time>
      </trkpt>
      <trkpt lat="45.47767" lon="5.94095">
        <ele>802.2</ele>
        <time>2014-08-24T11:05:20Z</time>
      </trkpt>
      <trkpt lat="45.47773" lon="5.94085">
        <ele>803.7</ele>
        <time>2014-08-24T11:05:26Z</time>
      </trkpt>
      <trkpt lat="45.47777" lon="5.94071">
        <ele>804.7</ele>
        <time>2014-08-24T11:05:32Z</time>
      </trkpt>
      <trkpt lat="45.4778" lon="5.94058">
        <ele>805.8</ele>
        <time>2014-08-24T11:05:37Z</time>
      </trkpt>
      <trkpt lat="45.47781" lon="5.94043">
        <ele>807.2</ele>
        <time>2014-08-24T11:05:43Z</time>
      </trkpt>
      <trkpt lat="45.47782" lon="5.9403">
        <ele>808.2</ele>
        <time>2014-08-24T11:05:49Z</time>
      </trkpt>
      <trkpt lat="45.47781" lon="5.94015">
        <ele>809.6</ele>
        <time>2014-08-24T11:05:55Z</time>
      </trkpt>
      <trkpt lat="45.47781" lon="5.94002">
        <ele>811.1</ele>
        <time>2014-08-24T11:06:01Z</time>
      </trkpt>
      <trkpt lat="45.47781" lon="5.93989">
        <ele>811.9</ele>
        <time>2014-08-24T11:06:06Z</time>
      </trkpt>
      <trkpt lat="45.47781" lon="5.93976">
        <ele>813.4</ele>
        <time>2014-08-24T11:06:11Z</time>
      </trkpt>
      <trkpt lat="45.47781" lon="5.93963">
        <ele>814.2</ele>
        <time>2014-08-24T11:06:16Z</time>
      </trkpt>
      <trkpt lat="45.47779" lon="5.93949">
        <ele>815.2</ele>
        <time>2014-08-24T11:06:22Z</time>
      </trkpt>
      <trkpt lat="45.47777" lon="5.93934">
        <ele>816.8</ele>
        <time>2014-08-24T11:06:28Z</time>
      </trkpt>
      <trkpt lat="45.47775" lon="5.93919">
        <ele>818.1</ele>
        <time>2014-08-24T11:06:35Z</time>
      </trkpt>
      <trkpt lat="45.47777" lon="5.93905">
        <ele>819.5</ele>
        <time>2014-08-24T11:06:42Z</time>
      </trkpt>
      <trkpt lat="45.47781" lon="5.93891">
        <ele>820.8</ele>
        <time>2014-08-24T11:06:48Z</time>
      </trkpt>
      <trkpt lat="45.47782" lon="5.93877">
        <ele>822.2</ele>
        <time>2014-08-24T11:06:54Z</time>
      </trkpt>
      <trkpt lat="45.47786" lon="5.93864">
        <ele>823.2</ele>
        <time>2014-08-24T11:07:00Z</time>
      </trkpt>
      <trkpt lat="45.4779" lon="5.9385">
        <ele>824.4</ele>
        <time>2014-08-24T11:07:06Z</time>
      </trkpt>
      <trkpt lat="45.47795" lon="5.93836">
        <ele>825.9</ele>
        <time>2014-08-24T11:07:12Z</time>
      </trkpt>
      <trkpt lat="45.478" lon="5.93824">
        <ele>827.2</ele>
        <time>2014-08-24T11:07:17Z</time>
      </trkpt>
      <trkpt lat="45.47802" lon="5.93811">
        <ele>828.4</ele>
        <time>2014-08-24T11:07:23Z</time>
      </trkpt>
      <trkpt lat="45.47806" lon="5.93799">
        <ele>829.9</ele>
        <time>2014-08-24T11:07:30Z</time>
      </trkpt>
      <trkpt lat="45.47812" lon="5.93787">
        <ele>831.6</ele>
        <time>2014-08-24T11:07:37Z</time>
      </trkpt>
      <trkpt lat="45.47817" lon="5.93776">
        <ele>832.9</ele>
        <time>2014-08-24T11:07:43Z</time>
      </trkpt>
      <trkpt lat="45.47824" lon="5.93765">
        <ele>833.7</ele>
        <time>2014-08-24T11:07:49Z</time>
      </trkpt>
      <trkpt lat="45.4783" lon="5.93755">
        <ele>834.7</ele>
        <time>2014-08-24T11:07:55Z</time>
      </trkpt>
      <trkpt lat="45.47835" lon="5.93742">
        <ele>835.8</ele>
        <time>2014-08-24T11:08:02Z</time>
      </trkpt>
      <trkpt lat="45.47839" lon="5.93728">
        <ele>836.9</ele>
        <time>2014-08-24T11:08:07Z</time>
      </trkpt>
      <trkpt lat="45.47843" lon="5.93715">
        <ele>837.9</ele>
        <time>2014-08-24T11:08:12Z</time>
      </trkpt>
      <trkpt lat="45.47846" lon="5.93702">
        <ele>839</ele>
        <time>2014-08-24T11:08:18Z</time>
      </trkpt>
      <trkpt lat="45.4785" lon="5.93688">
        <ele>840.1</ele>
        <time>2014-08-24T11:08:23Z</time>
      </trkpt>
      <trkpt lat="45.47854" lon="5.93674">
        <ele>841.2</ele>
        <time>2014-08-24T11:08:29Z</time>
      </trkpt>
      <trkpt lat="45.47858" lon="5.93662">
        <ele>842.9</ele>
        <time>2014-08-24T11:08:35Z</time>
      </trkpt>
      <trkpt lat="45.47862" lon="5.9365">
        <ele>843.6</ele>
        <time>2014-08-24T11:08:40Z</time>
      </trkpt>
      <trkpt lat="45.47869" lon="5.93639">
        <ele>844.5</ele>
        <time>2014-08-24T11:08:45Z</time>
      </trkpt>
      <trkpt lat="45.47877" lon="5.93632">
        <ele>845.7</ele>
        <time>2014-08-24T11:08:50Z</time>
      </trkpt>
      <trkpt lat="45.47886" lon="5.93627">
        <ele>846.7</ele>
        <time>2014-08-24T11:08:55Z</time>
      </trkpt>
      <trkpt lat="45.47895" lon="5.93623">
        <ele>847.6</ele>
        <time>2014-08-24T11:08:59Z</time>
      </trkpt>
      <trkpt lat="45.47905" lon="5.93622">
        <ele>849.2</ele>
        <time>2014-08-24T11:09:05Z</time>
      </trkpt>
      <trkpt lat="45.47915" lon="5.93618">
        <ele>849.9</ele>
        <time>2014-08-24T11:09:10Z</time>
      </trkpt>
      <trkpt lat="45.47924" lon="5.93613">
        <ele>850.8</ele>
        <time>2014-08-24T11:09:14Z</time>
      </trkpt>
      <trkpt lat="45.47932" lon="5.93606">
        <ele>851.6</ele>
        <time>2014-08-24T11:09:18Z</time>
      </trkpt>
      <trkpt lat="45.4794" lon="5.93598">
        <ele>853.4</ele>
        <time>2014-08-24T11:09:27Z</time>
      </trkpt>
      <trkpt lat="45.47947" lon="5.93586">
        <ele>855.5</ele>
        <time>2014-08-24T11:09:36Z</time>
      </trkpt>
      <trkpt lat="45.47953" lon="5.93575">
        <ele>857.2</ele>
        <time>2014-08-24T11:09:43Z</time>
      </trkpt>
      <trkpt lat="45.47953" lon="5.93561">
        <ele>858.3</ele>
        <time>2014-08-24T11:09:49Z</time>
      </trkpt>
      <trkpt lat="45.47946" lon="5.93552">
        <ele>858.9</ele>
        <time>2014-08-24T11:09:53Z</time>
      </trkpt>
      <trkpt lat="45.47937" lon="5.93548">
        <ele>859.5</ele>
        <time>2014-08-24T11:09:57Z</time>
      </trkpt>
      <trkpt lat="45.47927" lon="5.9355">
        <ele>860.3</ele>
        <time>2014-08-24T11:10:01Z</time>
      </trkpt>
      <trkpt lat="45.47918" lon="5.93552">
        <ele>861.4</ele>
        <time>2014-08-24T11:10:05Z</time>
      </trkpt>
      <trkpt lat="45.47908" lon="5.93554">
        <ele>862.6</ele>
        <time>2014-08-24T11:10:09Z</time>
      </trkpt>
      <trkpt lat="45.47897" lon="5.93553">
        <ele>863.3</ele>
        <time>2014-08-24T11:10:13Z</time>
      </trkpt>
      <trkpt lat="45.47888" lon="5.93547">
        <ele>863.8</ele>
        <time>2014-08-24T11:10:17Z</time>
      </trkpt>
      <trkpt lat="45.4788" lon="5.93541">
        <ele>864.5</ele>
        <time>2014-08-24T11:10:21Z</time>
      </trkpt>
      <trkpt lat="45.47874" lon="5.93531">
        <ele>865.4</ele>
        <time>2014-08-24T11:10:25Z</time>
      </trkpt>
      <trkpt lat="45.47868" lon="5.93518">
        <ele>865.9</ele>
        <time>2014-08-24T11:10:30Z</time>
      </trkpt>
      <trkpt lat="45.47862" lon="5.93505">
        <ele>866.9</ele>
        <time>2014-08-24T11:10:35Z</time>
      </trkpt>
      <trkpt lat="45.47855" lon="5.93494">
        <ele>868.2</ele>
        <time>2014-08-24T11:10:40Z</time>
      </trkpt>
      <trkpt lat="45.47846" lon="5.93486">
        <ele>869</ele>
        <time>2014-08-24T11:10:45Z</time>
      </trkpt>
      <trkpt lat="45.47836" lon="5.93483">
        <ele>870.1</ele>
        <time>2014-08-24T11:10:50Z</time>
      </trkpt>
      <trkpt lat="45.47826" lon="5.93482">
        <ele>871.3</ele>
        <time>2014-08-24T11:10:55Z</time>
      </trkpt>
      <trkpt lat="45.47815" lon="5.93482">
        <ele>872.4</ele>
        <time>2014-08-24T11:11:00Z</time>
      </trkpt>
      <trkpt lat="45.47806" lon="5.93478">
        <ele>873.8</ele>
        <time>2014-08-24T11:11:05Z</time>
      </trkpt>
      <trkpt lat="45.47796" lon="5.93473">
        <ele>875.1</ele>
        <time>2014-08-24T11:11:10Z</time>
      </trkpt>
      <trkpt lat="45.47787" lon="5.93467">
        <ele>876.1</ele>
        <time>2014-08-24T11:11:15Z</time>
      </trkpt>
      <trkpt lat="45.47778" lon="5.93461">
        <ele>877.4</ele>
        <time>2014-08-24T11:11:20Z</time>
      </trkpt>
      <trkpt lat="45.47771" lon="5.93453">
        <ele>879.3</ele>
        <time>2014-08-24T11:11:25Z</time>
      </trkpt>
      <trkpt lat="45.47763" lon="5.93445">
        <ele>880.3</ele>
        <time>2014-08-24T11:11:30Z</time>
      </trkpt>
      <trkpt lat="45.47758" lon="5.93434">
        <ele>881.5</ele>
        <time>2014-08-24T11:11:35Z</time>
      </trkpt>
      <trkpt lat="45.47753" lon="5.93421">
        <ele>882.7</ele>
        <time>2014-08-24T11:11:40Z</time>
      </trkpt>
      <trkpt lat="45.47751" lon="5.93408">
        <ele>883.9</ele>
        <time>2014-08-24T11:11:45Z</time>
      </trkpt>
      <trkpt lat="45.47752" lon="5.93393">
        <ele>885.6</ele>
        <time>2014-08-24T11:11:51Z</time>
      </trkpt>
      <trkpt lat="45.47758" lon="5.93383">
        <ele>886.8</ele>
        <time>2014-08-24T11:11:56Z</time>
      </trkpt>
      <trkpt lat="45.47766" lon="5.93372">
        <ele>888.2</ele>
        <time>2014-08-24T11:12:01Z</time>
      </trkpt>
      <trkpt lat="45.47774" lon="5.93365">
        <ele>889.3</ele>
        <time>2014-08-24T11:12:05Z</time>
      </trkpt>
      <trkpt lat="45.47782" lon="5.93358">
        <ele>889.8</ele>
        <time>2014-08-24T11:12:08Z</time>
      </trkpt>
      <trkpt lat="45.47793" lon="5.93353">
        <ele>890.8</ele>
        <time>2014-08-24T11:12:12Z</time>
      </trkpt>
      <trkpt lat="45.47803" lon="5.93352">
        <ele>892</ele>
        <time>2014-08-24T11:12:17Z</time>
      </trkpt>
      <trkpt lat="45.47814" lon="5.93356">
        <ele>893.2</ele>
        <time>2014-08-24T11:12:22Z</time>
      </trkpt>
      <trkpt lat="45.47822" lon="5.93363">
        <ele>894.7</ele>
        <time>2014-08-24T11:12:27Z</time>
      </trkpt>
      <trkpt lat="45.4783" lon="5.9337">
        <ele>895.8</ele>
        <time>2014-08-24T11:12:32Z</time>
      </trkpt>
      <trkpt lat="45.4784" lon="5.93373">
        <ele>897.2</ele>
        <time>2014-08-24T11:12:37Z</time>
      </trkpt>
      <trkpt lat="45.47847" lon="5.93365">
        <ele>898.1</ele>
        <time>2014-08-24T11:12:42Z</time>
      </trkpt>
      <trkpt lat="45.47848" lon="5.93349">
        <ele>898.8</ele>
        <time>2014-08-24T11:12:46Z</time>
      </trkpt>
      <trkpt lat="45.47844" lon="5.93336">
        <ele>899.4</ele>
        <time>2014-08-24T11:12:50Z</time>
      </trkpt>
      <trkpt lat="45.47834" lon="5.93328">
        <ele>899.7</ele>
        <time>2014-08-24T11:12:54Z</time>
      </trkpt>
      <trkpt lat="45.47824" lon="5.9332">
        <ele>900.5</ele>
        <time>2014-08-24T11:12:58Z</time>
      </trkpt>
      <trkpt lat="45.47815" lon="5.93313">
        <ele>900.9</ele>
        <time>2014-08-24T11:13:02Z</time>
      </trkpt>
      <trkpt lat="45.47805" lon="5.93309">
        <ele>901.2</ele>
        <time>2014-08-24T11:13:06Z</time>
      </trkpt>
      <trkpt lat="45.47795" lon="5.93301">
        <ele>901.2</ele>
        <time>2014-08-24T11:13:10Z</time>
      </trkpt>
      <trkpt lat="45.47788" lon="5.93293">
        <ele>901.1</ele>
        <time>2014-08-24T11:13:13Z</time>
      </trkpt>
      <trkpt lat="45.4778" lon="5.9328">
        <ele>901</ele>
        <time>2014-08-24T11:13:17Z</time>
      </trkpt>
      <trkpt lat="45.47775" lon="5.93266">
        <ele>901.4</ele>
        <time>2014-08-24T11:13:21Z</time>
      </trkpt>
      <trkpt lat="45.47773" lon="5.9325">
        <ele>901.3</ele>
        <time>2014-08-24T11:13:25Z</time>
      </trkpt>
      <trkpt lat="45.47777" lon="5.93236">
        <ele>901.4</ele>
        <time>2014-08-24T11:13:28Z</time>
      </trkpt>
      <trkpt lat="45.47782" lon="5.93224">
        <ele>901.5</ele>
        <time>2014-08-24T11:13:31Z</time>
      </trkpt>
      <trkpt lat="45.47787" lon="5.93211">
        <ele>901.4</ele>
        <time>2014-08-24T11:13:34Z</time>
      </trkpt>
      <trkpt lat="45.4779" lon="5.93198">
        <ele>901.3</ele>
        <time>2014-08-24T11:13:37Z</time>
      </trkpt>
      <trkpt lat="45.47792" lon="5.93185">
        <ele>901.4</ele>
        <time>2014-08-24T11:13:40Z</time>
      </trkpt>
      <trkpt lat="45.47794" lon="5.93172">
        <ele>901.7</ele>
        <time>2014-08-24T11:13:43Z</time>
      </trkpt>
      <trkpt lat="45.47797" lon="5.9316">
        <ele>902.2</ele>
        <time>2014-08-24T11:13:46Z</time>
      </trkpt>
      <trkpt lat="45.47799" lon="5.93144">
        <ele>902.7</ele>
        <time>2014-08-24T11:13:50Z</time>
      </trkpt>
      <trkpt lat="45.47799" lon="5.93129">
        <ele>903.4</ele>
        <time>2014-08-24T11:13:54Z</time>
      </trkpt>
      <trkpt lat="45.478" lon="5.93116">
        <ele>903.8</ele>
        <time>2014-08-24T11:13:58Z</time>
      </trkpt>
      <trkpt lat="45.47802" lon="5.93102">
        <ele>904.8</ele>
        <time>2014-08-24T11:14:03Z</time>
      </trkpt>
      <trkpt lat="45.47804" lon="5.93088">
        <ele>906.2</ele>
        <time>2014-08-24T11:14:08Z</time>
      </trkpt>
      <trkpt lat="45.47806" lon="5.93073">
        <ele>907.1</ele>
        <time>2014-08-24T11:14:13Z</time>
      </trkpt>
      <trkpt lat="45.47808" lon="5.9306">
        <ele>907.8</ele>
        <time>2014-08-24T11:14:17Z</time>
      </trkpt>
      <trkpt lat="45.47806" lon="5.93046">
        <ele>908.9</ele>
        <time>2014-08-24T11:14:22Z</time>
      </trkpt>
      <trkpt lat="45.47806" lon="5.93032">
        <ele>910.4</ele>
        <time>2014-08-24T11:14:27Z</time>
      </trkpt>
      <trkpt lat="45.47804" lon="5.93018">
        <ele>911.8</ele>
        <time>2014-08-24T11:14:32Z</time>
      </trkpt>
      <trkpt lat="45.47803" lon="5.93003">
        <ele>912.6</ele>
        <time>2014-08-24T11:14:37Z</time>
      </trkpt>
      <trkpt lat="45.47802" lon="5.92989">
        <ele>913.8</ele>
        <time>2014-08-24T11:14:42Z</time>
      </trkpt>
      <trkpt lat="45.47802" lon="5.92973">
        <ele>914.8</ele>
        <time>2014-08-24T11:14:48Z</time>
      </trkpt>
      <trkpt lat="45.47803" lon="5.92958">
        <ele>916.2</ele>
        <time>2014-08-24T11:14:53Z</time>
      </trkpt>
      <trkpt lat="45.47802" lon="5.92944">
        <ele>917.6</ele>
        <time>2014-08-24T11:14:58Z</time>
      </trkpt>
      <trkpt lat="45.47801" lon="5.92931">
        <ele>918.5</ele>
        <time>2014-08-24T11:15:02Z</time>
      </trkpt>
      <trkpt lat="45.478" lon="5.92918">
        <ele>919.2</ele>
        <time>2014-08-24T11:15:06Z</time>
      </trkpt>
      <trkpt lat="45.47795" lon="5.92906">
        <ele>920.4</ele>
        <time>2014-08-24T11:15:11Z</time>
      </trkpt>
      <trkpt lat="45.47791" lon="5.92892">
        <ele>921</ele>
        <time>2014-08-24T11:15:16Z</time>
      </trkpt>
      <trkpt lat="45.47789" lon="5.92878">
        <ele>921.9</ele>
        <time>2014-08-24T11:15:21Z</time>
      </trkpt>
      <trkpt lat="45.47785" lon="5.92866">
        <ele>922.6</ele>
        <time>2014-08-24T11:15:26Z</time>
      </trkpt>
      <trkpt lat="45.47777" lon="5.92855">
        <ele>923.5</ele>
        <time>2014-08-24T11:15:31Z</time>
      </trkpt>
      <trkpt lat="45.47771" lon="5.92843">
        <ele>924.6</ele>
        <time>2014-08-24T11:15:36Z</time>
      </trkpt>
      <trkpt lat="45.47766" lon="5.9283">
        <ele>925.6</ele>
        <time>2014-08-24T11:15:41Z</time>
      </trkpt>
      <trkpt lat="45.47761" lon="5.92816">
        <ele>926.6</ele>
        <time>2014-08-24T11:15:46Z</time>
      </trkpt>
      <trkpt lat="45.47758" lon="5.92803">
        <ele>927.8</ele>
        <time>2014-08-24T11:15:51Z</time>
      </trkpt>
      <trkpt lat="45.47757" lon="5.92788">
        <ele>928.6</ele>
        <time>2014-08-24T11:15:56Z</time>
      </trkpt>
      <trkpt lat="45.47758" lon="5.92774">
        <ele>929.5</ele>
        <time>2014-08-24T11:16:01Z</time>
      </trkpt>
      <trkpt lat="45.4776" lon="5.92759">
        <ele>931.1</ele>
        <time>2014-08-24T11:16:06Z</time>
      </trkpt>
      <trkpt lat="45.47761" lon="5.92743">
        <ele>932</ele>
        <time>2014-08-24T11:16:11Z</time>
      </trkpt>
      <trkpt lat="45.4776" lon="5.92728">
        <ele>932.7</ele>
        <time>2014-08-24T11:16:16Z</time>
      </trkpt>
      <trkpt lat="45.47758" lon="5.92713">
        <ele>933.8</ele>
        <time>2014-08-24T11:16:21Z</time>
      </trkpt>
      <trkpt lat="45.47755" lon="5.92698">
        <ele>934.5</ele>
        <time>2014-08-24T11:16:26Z</time>
      </trkpt>
      <trkpt lat="45.47754" lon="5.92686">
        <ele>935.1</ele>
        <time>2014-08-24T11:16:30Z</time>
      </trkpt>
      <trkpt lat="45.47754" lon="5.92668">
        <ele>936.7</ele>
        <time>2014-08-24T11:16:35Z</time>
      </trkpt>
      <trkpt lat="45.47755" lon="5.92654">
        <ele>937.2</ele>
        <time>2014-08-24T11:16:38Z</time>
      </trkpt>
      <trkpt lat="45.47753" lon="5.92639">
        <ele>938</ele>
        <time>2014-08-24T11:16:43Z</time>
      </trkpt>
      <trkpt lat="45.47753" lon="5.92625">
        <ele>938.8</ele>
        <time>2014-08-24T11:16:47Z</time>
      </trkpt>
      <trkpt lat="45.47751" lon="5.92611">
        <ele>939.9</ele>
        <time>2014-08-24T11:16:52Z</time>
      </trkpt>
      <trkpt lat="45.47752" lon="5.92597">
        <ele>940.5</ele>
        <time>2014-08-24T11:16:56Z</time>
      </trkpt>
      <trkpt lat="45.47752" lon="5.92582">
        <ele>941.8</ele>
        <time>2014-08-24T11:17:01Z</time>
      </trkpt>
      <trkpt lat="45.47751" lon="5.92567">
        <ele>942.5</ele>
        <time>2014-08-24T11:17:06Z</time>
      </trkpt>
      <trkpt lat="45.47748" lon="5.92552">
        <ele>943.7</ele>
        <time>2014-08-24T11:17:11Z</time>
      </trkpt>
      <trkpt lat="45.47744" lon="5.92538">
        <ele>944.5</ele>
        <time>2014-08-24T11:17:16Z</time>
      </trkpt>
      <trkpt lat="45.47742" lon="5.92524">
        <ele>945.5</ele>
        <time>2014-08-24T11:17:22Z</time>
      </trkpt>
      <trkpt lat="45.47741" lon="5.9251">
        <ele>946.8</ele>
        <time>2014-08-24T11:17:28Z</time>
      </trkpt>
      <trkpt lat="45.47741" lon="5.92495">
        <ele>948</ele>
        <time>2014-08-24T11:17:34Z</time>
      </trkpt>
      <trkpt lat="45.47744" lon="5.92482">
        <ele>949.1</ele>
        <time>2014-08-24T11:17:40Z</time>
      </trkpt>
      <trkpt lat="45.47747" lon="5.92469">
        <ele>950.3</ele>
        <time>2014-08-24T11:17:46Z</time>
      </trkpt>
      <trkpt lat="45.4775" lon="5.92455">
        <ele>951.5</ele>
        <time>2014-08-24T11:17:52Z</time>
      </trkpt>
      <trkpt lat="45.47753" lon="5.92442">
        <ele>952.3</ele>
        <time>2014-08-24T11:17:58Z</time>
      </trkpt>
      <trkpt lat="45.47756" lon="5.92429">
        <ele>953.1</ele>
        <time>2014-08-24T11:18:04Z</time>
      </trkpt>
      <trkpt lat="45.47757" lon="5.92415">
        <ele>954.5</ele>
        <time>2014-08-24T11:18:10Z</time>
      </trkpt>
      <trkpt lat="45.47756" lon="5.92402">
        <ele>955.2</ele>
        <time>2014-08-24T11:18:15Z</time>
      </trkpt>
      <trkpt lat="45.47749" lon="5.92392">
        <ele>955.7</ele>
        <time>2014-08-24T11:18:20Z</time>
      </trkpt>
      <trkpt lat="45.47746" lon="5.9238">
        <ele>956.6</ele>
        <time>2014-08-24T11:18:25Z</time>
      </trkpt>
      <trkpt lat="45.47742" lon="5.92367">
        <ele>957.5</ele>
        <time>2014-08-24T11:18:30Z</time>
      </trkpt>
      <trkpt lat="45.4774" lon="5.92354">
        <ele>958.1</ele>
        <time>2014-08-24T11:18:35Z</time>
      </trkpt>
      <trkpt lat="45.47738" lon="5.92339">
        <ele>959.2</ele>
        <time>2014-08-24T11:18:40Z</time>
      </trkpt>
      <trkpt lat="45.47735" lon="5.92326">
        <ele>960.5</ele>
        <time>2014-08-24T11:18:45Z</time>
      </trkpt>
      <trkpt lat="45.47731" lon="5.92312">
        <ele>961.4</ele>
        <time>2014-08-24T11:18:50Z</time>
      </trkpt>
      <trkpt lat="45.47729" lon="5.92297">
        <ele>962.7</ele>
        <time>2014-08-24T11:18:55Z</time>
      </trkpt>
      <trkpt lat="45.47725" lon="5.92284">
        <ele>963.7</ele>
        <time>2014-08-24T11:19:00Z</time>
      </trkpt>
      <trkpt lat="45.47721" lon="5.92272">
        <ele>964.3</ele>
        <time>2014-08-24T11:19:05Z</time>
      </trkpt>
      <trkpt lat="45.47719" lon="5.92259">
        <ele>965.8</ele>
        <time>2014-08-24T11:19:10Z</time>
      </trkpt>
      <trkpt lat="45.4772" lon="5.92244">
        <ele>966.6</ele>
        <time>2014-08-24T11:19:15Z</time>
      </trkpt>
      <trkpt lat="45.4772" lon="5.92231">
        <ele>967.4</ele>
        <time>2014-08-24T11:19:19Z</time>
      </trkpt>
      <trkpt lat="45.47722" lon="5.92217">
        <ele>968.1</ele>
        <time>2014-08-24T11:19:24Z</time>
      </trkpt>
      <trkpt lat="45.47724" lon="5.92202">
        <ele>968.6</ele>
        <time>2014-08-24T11:19:29Z</time>
      </trkpt>
      <trkpt lat="45.47729" lon="5.92187">
        <ele>969.9</ele>
        <time>2014-08-24T11:19:35Z</time>
      </trkpt>
      <trkpt lat="45.47735" lon="5.92175">
        <ele>970.8</ele>
        <time>2014-08-24T11:19:39Z</time>
      </trkpt>
      <trkpt lat="45.4774" lon="5.92163">
        <ele>972.1</ele>
        <time>2014-08-24T11:19:44Z</time>
      </trkpt>
      <trkpt lat="45.47748" lon="5.92152">
        <ele>973.3</ele>
        <time>2014-08-24T11:19:50Z</time>
      </trkpt>
      <trkpt lat="45.47755" lon="5.92144">
        <ele>974.5</ele>
        <time>2014-08-24T11:19:56Z</time>
      </trkpt>
      <trkpt lat="45.47763" lon="5.92137">
        <ele>975.7</ele>
        <time>2014-08-24T11:20:01Z</time>
      </trkpt>
      <trkpt lat="45.47773" lon="5.92132">
        <ele>976.4</ele>
        <time>2014-08-24T11:20:05Z</time>
      </trkpt>
      <trkpt lat="45.47782" lon="5.92128">
        <ele>977.8</ele>
        <time>2014-08-24T11:20:11Z</time>
      </trkpt>
      <trkpt lat="45.47791" lon="5.92124">
        <ele>978.9</ele>
        <time>2014-08-24T11:20:17Z</time>
      </trkpt>
      <trkpt lat="45.47799" lon="5.92119">
        <ele>979.7</ele>
        <time>2014-08-24T11:20:22Z</time>
      </trkpt>
      <trkpt lat="45.47809" lon="5.92115">
        <ele>980.8</ele>
        <time>2014-08-24T11:20:28Z</time>
      </trkpt>
      <trkpt lat="45.47819" lon="5.92112">
        <ele>982.2</ele>
        <time>2014-08-24T11:20:34Z</time>
      </trkpt>
      <trkpt lat="45.47829" lon="5.9211">
        <ele>983.7</ele>
        <time>2014-08-24T11:20:40Z</time>
      </trkpt>
      <trkpt lat="45.47838" lon="5.9211">
        <ele>985.1</ele>
        <time>2014-08-24T11:20:46Z</time>
      </trkpt>
      <trkpt lat="45.47849" lon="5.92108">
        <ele>986.3</ele>
        <time>2014-08-24T11:20:52Z</time>
      </trkpt>
      <trkpt lat="45.47857" lon="5.92103">
        <ele>987.2</ele>
        <time>2014-08-24T11:20:57Z</time>
      </trkpt>
      <trkpt lat="45.47865" lon="5.92097">
        <ele>988.4</ele>
        <time>2014-08-24T11:21:02Z</time>
      </trkpt>
      <trkpt lat="45.47873" lon="5.9209">
        <ele>989.5</ele>
        <time>2014-08-24T11:21:07Z</time>
      </trkpt>
      <trkpt lat="45.47882" lon="5.92088">
        <ele>990.1</ele>
        <time>2014-08-24T11:21:12Z</time>
      </trkpt>
      <trkpt lat="45.47893" lon="5.92085">
        <ele>991.4</ele>
        <time>2014-08-24T11:21:18Z</time>
      </trkpt>
      <trkpt lat="45.47902" lon="5.92082">
        <ele>992.1</ele>
        <time>2014-08-24T11:21:24Z</time>
      </trkpt>
      <trkpt lat="45.47911" lon="5.92079">
        <ele>993.2</ele>
        <time>2014-08-24T11:21:29Z</time>
      </trkpt>
      <trkpt lat="45.4792" lon="5.92076">
        <ele>993.9</ele>
        <time>2014-08-24T11:21:34Z</time>
      </trkpt>
      <trkpt lat="45.47929" lon="5.92071">
        <ele>994.6</ele>
        <time>2014-08-24T11:21:38Z</time>
      </trkpt>
      <trkpt lat="45.47937" lon="5.92063">
        <ele>995.4</ele>
        <time>2014-08-24T11:21:42Z</time>
      </trkpt>
      <trkpt lat="45.47942" lon="5.92051">
        <ele>996.1</ele>
        <time>2014-08-24T11:21:47Z</time>
      </trkpt>
      <trkpt lat="45.47947" lon="5.92039">
        <ele>996.9</ele>
        <time>2014-08-24T11:21:52Z</time>
      </trkpt>
      <trkpt lat="45.47952" lon="5.92028">
        <ele>997.9</ele>
        <time>2014-08-24T11:21:57Z</time>
      </trkpt>
      <trkpt lat="45.47957" lon="5.92017">
        <ele>999.2</ele>
        <time>2014-08-24T11:22:03Z</time>
      </trkpt>
      <trkpt lat="45.47966" lon="5.92007">
        <ele>1000.6</ele>
        <time>2014-08-24T11:22:08Z</time>
      </trkpt>
      <trkpt lat="45.47975" lon="5.91999">
        <ele>1001.6</ele>
        <time>2014-08-24T11:22:14Z</time>
      </trkpt>
      <trkpt lat="45.47985" lon="5.91996">
        <ele>1002.9</ele>
        <time>2014-08-24T11:22:20Z</time>
      </trkpt>
      <trkpt lat="45.47994" lon="5.91999">
        <ele>1004.2</ele>
        <time>2014-08-24T11:22:26Z</time>
      </trkpt>
      <trkpt lat="45.48003" lon="5.92006">
        <ele>1005.1</ele>
        <time>2014-08-24T11:22:32Z</time>
      </trkpt>
      <trkpt lat="45.48012" lon="5.9201">
        <ele>1006</ele>
        <time>2014-08-24T11:22:38Z</time>
      </trkpt>
      <trkpt lat="45.48021" lon="5.92014">
        <ele>1007.2</ele>
        <time>2014-08-24T11:22:43Z</time>
      </trkpt>
      <trkpt lat="45.48032" lon="5.92017">
        <ele>1008.6</ele>
        <time>2014-08-24T11:22:49Z</time>
      </trkpt>
      <trkpt lat="45.48042" lon="5.92021">
        <ele>1009.8</ele>
        <time>2014-08-24T11:22:54Z</time>
      </trkpt>
      <trkpt lat="45.48052" lon="5.92024">
        <ele>1011.1</ele>
        <time>2014-08-24T11:22:59Z</time>
      </trkpt>
      <trkpt lat="45.48062" lon="5.92024">
        <ele>1011.9</ele>
        <time>2014-08-24T11:23:04Z</time>
      </trkpt>
      <trkpt lat="45.48073" lon="5.9202">
        <ele>1012.8</ele>
        <time>2014-08-24T11:23:09Z</time>
      </trkpt>
      <trkpt lat="45.48082" lon="5.92014">
        <ele>1013.5</ele>
        <time>2014-08-24T11:23:14Z</time>
      </trkpt>
      <trkpt lat="45.48091" lon="5.92004">
        <ele>1014.3</ele>
        <time>2014-08-24T11:23:19Z</time>
      </trkpt>
      <trkpt lat="45.48098" lon="5.91997">
        <ele>1015.1</ele>
        <time>2014-08-24T11:23:23Z</time>
      </trkpt>
      <trkpt lat="45.48108" lon="5.9199">
        <ele>1016</ele>
        <time>2014-08-24T11:23:29Z</time>
      </trkpt>
      <trkpt lat="45.48116" lon="5.9198">
        <ele>1016.9</ele>
        <time>2014-08-24T11:23:34Z</time>
      </trkpt>
      <trkpt lat="45.48124" lon="5.91968">
        <ele>1018.4</ele>
        <time>2014-08-24T11:23:40Z</time>
      </trkpt>
      <trkpt lat="45.4813" lon="5.91957">
        <ele>1019.8</ele>
        <time>2014-08-24T11:23:46Z</time>
      </trkpt>
      <trkpt lat="45.48136" lon="5.91944">
        <ele>1021</ele>
        <time>2014-08-24T11:23:52Z</time>
      </trkpt>
      <trkpt lat="45.48141" lon="5.91932">
        <ele>1022.5</ele>
        <time>2014-08-24T11:23:57Z</time>
      </trkpt>
      <trkpt lat="45.48149" lon="5.91921">
        <ele>1023.9</ele>
        <time>2014-08-24T11:24:03Z</time>
      </trkpt>
      <trkpt lat="45.48156" lon="5.91911">
        <ele>1025.2</ele>
        <time>2014-08-24T11:24:08Z</time>
      </trkpt>
      <trkpt lat="45.48159" lon="5.91896">
        <ele>1026.5</ele>
        <time>2014-08-24T11:24:13Z</time>
      </trkpt>
      <trkpt lat="45.48159" lon="5.91882">
        <ele>1027.8</ele>
        <time>2014-08-24T11:24:17Z</time>
      </trkpt>
      <trkpt lat="45.48152" lon="5.91874">
        <ele>1028.6</ele>
        <time>2014-08-24T11:24:22Z</time>
      </trkpt>
      <trkpt lat="45.48143" lon="5.91869">
        <ele>1029.2</ele>
        <time>2014-08-24T11:24:28Z</time>
      </trkpt>
      <trkpt lat="45.48134" lon="5.91867">
        <ele>1030.8</ele>
        <time>2014-08-24T11:24:34Z</time>
      </trkpt>
      <trkpt lat="45.48124" lon="5.91863">
        <ele>1031.5</ele>
        <time>2014-08-24T11:24:40Z</time>
      </trkpt>
      <trkpt lat="45.48114" lon="5.91862">
        <ele>1032.7</ele>
        <time>2014-08-24T11:24:46Z</time>
      </trkpt>
      <trkpt lat="45.48105" lon="5.91861">
        <ele>1033.6</ele>
        <time>2014-08-24T11:24:52Z</time>
      </trkpt>
      <trkpt lat="45.48095" lon="5.91858">
        <ele>1034.8</ele>
        <time>2014-08-24T11:24:58Z</time>
      </trkpt>
      <trkpt lat="45.48085" lon="5.91854">
        <ele>1035.7</ele>
        <time>2014-08-24T11:25:04Z</time>
      </trkpt>
      <trkpt lat="45.48076" lon="5.91849">
        <ele>1036.7</ele>
        <time>2014-08-24T11:25:10Z</time>
      </trkpt>
      <trkpt lat="45.48067" lon="5.91844">
        <ele>1037.5</ele>
        <time>2014-08-24T11:25:16Z</time>
      </trkpt>
      <trkpt lat="45.48058" lon="5.9184">
        <ele>1038.1</ele>
        <time>2014-08-24T11:25:22Z</time>
      </trkpt>
      <trkpt lat="45.48048" lon="5.91845">
        <ele>1039.6</ele>
        <time>2014-08-24T11:25:29Z</time>
      </trkpt>
      <trkpt lat="45.48038" lon="5.91851">
        <ele>1040.9</ele>
        <time>2014-08-24T11:25:35Z</time>
      </trkpt>
      <trkpt lat="45.48029" lon="5.91854">
        <ele>1041.7</ele>
        <time>2014-08-24T11:25:40Z</time>
      </trkpt>
      <trkpt lat="45.4802" lon="5.91854">
        <ele>1042.4</ele>
        <time>2014-08-24T11:25:45Z</time>
      </trkpt>
      <trkpt lat="45.48012" lon="5.91843">
        <ele>1043.2</ele>
        <time>2014-08-24T11:25:51Z</time>
      </trkpt>
      <trkpt lat="45.4801" lon="5.91829">
        <ele>1044.2</ele>
        <time>2014-08-24T11:25:57Z</time>
      </trkpt>
      <trkpt lat="45.48015" lon="5.91818">
        <ele>1044.6</ele>
        <time>2014-08-24T11:26:02Z</time>
      </trkpt>
      <trkpt lat="45.48024" lon="5.91809">
        <ele>1045.8</ele>
        <time>2014-08-24T11:26:08Z</time>
      </trkpt>
      <trkpt lat="45.48033" lon="5.91805">
        <ele>1046.6</ele>
        <time>2014-08-24T11:26:13Z</time>
      </trkpt>
      <trkpt lat="45.48041" lon="5.91797">
        <ele>1047.3</ele>
        <time>2014-08-24T11:26:18Z</time>
      </trkpt>
      <trkpt lat="45.48051" lon="5.91788">
        <ele>1048.1</ele>
        <time>2014-08-24T11:26:24Z</time>
      </trkpt>
      <trkpt lat="45.48056" lon="5.91777">
        <ele>1049.1</ele>
        <time>2014-08-24T11:26:29Z</time>
      </trkpt>
      <trkpt lat="45.4806" lon="5.91765">
        <ele>1049.7</ele>
        <time>2014-08-24T11:26:33Z</time>
      </trkpt>
      <trkpt lat="45.48065" lon="5.91754">
        <ele>1050.3</ele>
        <time>2014-08-24T11:26:37Z</time>
      </trkpt>
      <trkpt lat="45.48071" lon="5.91742">
        <ele>1050.8</ele>
        <time>2014-08-24T11:26:42Z</time>
      </trkpt>
      <trkpt lat="45.48079" lon="5.91733">
        <ele>1051.8</ele>
        <time>2014-08-24T11:26:47Z</time>
      </trkpt>
      <trkpt lat="45.48089" lon="5.9173">
        <ele>1052.9</ele>
        <time>2014-08-24T11:26:53Z</time>
      </trkpt>
      <trkpt lat="45.48099" lon="5.91728">
        <ele>1053.5</ele>
        <time>2014-08-24T11:26:59Z</time>
      </trkpt>
      <trkpt lat="45.48109" lon="5.91729">
        <ele>1054.2</ele>
        <time>2014-08-24T11:27:05Z</time>
      </trkpt>
      <trkpt lat="45.4812" lon="5.91731">
        <ele>1055.2</ele>
        <time>2014-08-24T11:27:11Z</time>
      </trkpt>
      <trkpt lat="45.48129" lon="5.91733">
        <ele>1056.1</ele>
        <time>2014-08-24T11:27:15Z</time>
      </trkpt>
      <trkpt lat="45.48139" lon="5.91734">
        <ele>1056.6</ele>
        <time>2014-08-24T11:27:19Z</time>
      </trkpt>
      <trkpt lat="45.48151" lon="5.91732">
        <ele>1057.4</ele>
        <time>2014-08-24T11:27:24Z</time>
      </trkpt>
      <trkpt lat="45.4816" lon="5.91736">
        <ele>1058.1</ele>
        <time>2014-08-24T11:27:28Z</time>
      </trkpt>
      <trkpt lat="45.48168" lon="5.91744">
        <ele>1059.1</ele>
        <time>2014-08-24T11:27:32Z</time>
      </trkpt>
      <trkpt lat="45.48177" lon="5.91748">
        <ele>1059.8</ele>
        <time>2014-08-24T11:27:36Z</time>
      </trkpt>
      <trkpt lat="45.48186" lon="5.91748">
        <ele>1060.3</ele>
        <time>2014-08-24T11:27:40Z</time>
      </trkpt>
      <trkpt lat="45.48195" lon="5.91742">
        <ele>1061.5</ele>
        <time>2014-08-24T11:27:45Z</time>
      </trkpt>
      <trkpt lat="45.48201" lon="5.91727">
        <ele>1062.2</ele>
        <time>2014-08-24T11:27:49Z</time>
      </trkpt>
      <trkpt lat="45.48207" lon="5.91717">
        <ele>1062.6</ele>
        <time>2014-08-24T11:27:52Z</time>
      </trkpt>
      <trkpt lat="45.48211" lon="5.91703">
        <ele>1063.2</ele>
        <time>2014-08-24T11:27:55Z</time>
      </trkpt>
      <trkpt lat="45.48216" lon="5.91692">
        <ele>1064</ele>
        <time>2014-08-24T11:27:59Z</time>
      </trkpt>
      <trkpt lat="45.48221" lon="5.91677">
        <ele>1064.9</ele>
        <time>2014-08-24T11:28:03Z</time>
      </trkpt>
      <trkpt lat="45.48222" lon="5.91663">
        <ele>1066.2</ele>
        <time>2014-08-24T11:28:07Z</time>
      </trkpt>
      <trkpt lat="45.48221" lon="5.91648">
        <ele>1066.9</ele>
        <time>2014-08-24T11:28:12Z</time>
      </trkpt>
      <trkpt lat="45.48216" lon="5.91636">
        <ele>1067.6</ele>
        <time>2014-08-24T11:28:16Z</time>
      </trkpt>
      <trkpt lat="45.4821" lon="5.91623">
        <ele>1068.7</ele>
        <time>2014-08-24T11:28:21Z</time>
      </trkpt>
      <trkpt lat="45.48203" lon="5.91611">
        <ele>1069.9</ele>
        <time>2014-08-24T11:28:25Z</time>
      </trkpt>
      <trkpt lat="45.48197" lon="5.91601">
        <ele>1070.6</ele>
        <time>2014-08-24T11:28:30Z</time>
      </trkpt>
      <trkpt lat="45.48191" lon="5.9159">
        <ele>1071.4</ele>
        <time>2014-08-24T11:28:35Z</time>
      </trkpt>
      <trkpt lat="45.48185" lon="5.91578">
        <ele>1072.9</ele>
        <time>2014-08-24T11:28:40Z</time>
      </trkpt>
      <trkpt lat="45.48181" lon="5.91565">
        <ele>1073.7</ele>
        <time>2014-08-24T11:28:45Z</time>
      </trkpt>
      <trkpt lat="45.48177" lon="5.91551">
        <ele>1074.7</ele>
        <time>2014-08-24T11:28:50Z</time>
      </trkpt>
      <trkpt lat="45.4817" lon="5.91541">
        <ele>1075.3</ele>
        <time>2014-08-24T11:28:54Z</time>
      </trkpt>
      <trkpt lat="45.48162" lon="5.91531">
        <ele>1076.4</ele>
        <time>2014-08-24T11:28:59Z</time>
      </trkpt>
      <trkpt lat="45.48152" lon="5.91526">
        <ele>1077</ele>
        <time>2014-08-24T11:29:04Z</time>
      </trkpt>
      <trkpt lat="45.48142" lon="5.91525">
        <ele>1077.8</ele>
        <time>2014-08-24T11:29:09Z</time>
      </trkpt>
      <trkpt lat="45.48132" lon="5.91523">
        <ele>1079.2</ele>
        <time>2014-08-24T11:29:14Z</time>
      </trkpt>
      <trkpt lat="45.48121" lon="5.91523">
        <ele>1080.1</ele>
        <time>2014-08-24T11:29:19Z</time>
      </trkpt>
      <trkpt lat="45.48112" lon="5.91523">
        <ele>1080.5</ele>
        <time>2014-08-24T11:29:23Z</time>
      </trkpt>
      <trkpt lat="45.48102" lon="5.91524">
        <ele>1081.4</ele>
        <time>2014-08-24T11:29:27Z</time>
      </trkpt>
      <trkpt lat="45.48091" lon="5.91524">
        <ele>1082</ele>
        <time>2014-08-24T11:29:31Z</time>
      </trkpt>
      <trkpt lat="45.48082" lon="5.91523">
        <ele>1082.4</ele>
        <time>2014-08-24T11:29:35Z</time>
      </trkpt>
      <trkpt lat="45.48072" lon="5.91519">
        <ele>1083.2</ele>
        <time>2014-08-24T11:29:39Z</time>
      </trkpt>
      <trkpt lat="45.48062" lon="5.91516">
        <ele>1083.7</ele>
        <time>2014-08-24T11:29:43Z</time>
      </trkpt>
      <trkpt lat="45.48054" lon="5.91508">
        <ele>1084.6</ele>
        <time>2014-08-24T11:29:47Z</time>
      </trkpt>
      <trkpt lat="45.48052" lon="5.91494">
        <ele>1085.3</ele>
        <time>2014-08-24T11:29:52Z</time>
      </trkpt>
      <trkpt lat="45.48042" lon="5.91486">
        <ele>1085.4</ele>
        <time>2014-08-24T11:29:56Z</time>
      </trkpt>
      <trkpt lat="45.48032" lon="5.91477">
        <ele>1085.2</ele>
        <time>2014-08-24T11:30:00Z</time>
      </trkpt>
      <trkpt lat="45.48025" lon="5.91468">
        <ele>1084.4</ele>
        <time>2014-08-24T11:30:03Z</time>
      </trkpt>
      <trkpt lat="45.48019" lon="5.91455">
        <ele>1083.9</ele>
        <time>2014-08-24T11:30:06Z</time>
      </trkpt>
      <trkpt lat="45.48015" lon="5.91439">
        <ele>1083.4</ele>
        <time>2014-08-24T11:30:09Z</time>
      </trkpt>
      <trkpt lat="45.48015" lon="5.91422">
        <ele>1083</ele>
        <time>2014-08-24T11:30:12Z</time>
      </trkpt>
      <trkpt lat="45.48014" lon="5.91406">
        <ele>1083.4</ele>
        <time>2014-08-24T11:30:16Z</time>
      </trkpt>
      <trkpt lat="45.48015" lon="5.91392">
        <ele>1083.9</ele>
        <time>2014-08-24T11:30:20Z</time>
      </trkpt>
      <trkpt lat="45.48012" lon="5.91376">
        <ele>1083.4</ele>
        <time>2014-08-24T11:30:26Z</time>
      </trkpt>
      <trkpt lat="45.48013" lon="5.91363">
        <ele>1084.2</ele>
        <time>2014-08-24T11:30:31Z</time>
      </trkpt>
      <trkpt lat="45.48015" lon="5.9135">
        <ele>1085.1</ele>
        <time>2014-08-24T11:30:36Z</time>
      </trkpt>
      <trkpt lat="45.48018" lon="5.91336">
        <ele>1084.9</ele>
        <time>2014-08-24T11:30:41Z</time>
      </trkpt>
      <trkpt lat="45.48019" lon="5.91323">
        <ele>1085.7</ele>
        <time>2014-08-24T11:30:45Z</time>
      </trkpt>
      <trkpt lat="45.48018" lon="5.91308">
        <ele>1087.2</ele>
        <time>2014-08-24T11:30:50Z</time>
      </trkpt>
      <trkpt lat="45.48019" lon="5.91294">
        <ele>1087.1</ele>
        <time>2014-08-24T11:30:55Z</time>
      </trkpt>
      <trkpt lat="45.48022" lon="5.91281">
        <ele>1088</ele>
        <time>2014-08-24T11:30:59Z</time>
      </trkpt>
      <trkpt lat="45.48025" lon="5.91267">
        <ele>1088.6</ele>
        <time>2014-08-24T11:31:04Z</time>
      </trkpt>
      <trkpt lat="45.48023" lon="5.91254">
        <ele>1090</ele>
        <time>2014-08-24T11:31:11Z</time>
      </trkpt>
      <trkpt lat="45.48021" lon="5.9124">
        <ele>1091.4</ele>
        <time>2014-08-24T11:31:19Z</time>
      </trkpt>
      <trkpt lat="45.48021" lon="5.91225">
        <ele>1092</ele>
        <time>2014-08-24T11:31:23Z</time>
      </trkpt>
      <trkpt lat="45.48019" lon="5.91211">
        <ele>1093.2</ele>
        <time>2014-08-24T11:31:28Z</time>
      </trkpt>
      <trkpt lat="45.48022" lon="5.91198">
        <ele>1094.5</ele>
        <time>2014-08-24T11:31:33Z</time>
      </trkpt>
      <trkpt lat="45.48019" lon="5.91184">
        <ele>1096.2</ele>
        <time>2014-08-24T11:31:41Z</time>
      </trkpt>
      <trkpt lat="45.48018" lon="5.91169">
        <ele>1097.3</ele>
        <time>2014-08-24T11:31:47Z</time>
      </trkpt>
      <trkpt lat="45.48015" lon="5.91154">
        <ele>1098</ele>
        <time>2014-08-24T11:31:53Z</time>
      </trkpt>
      <trkpt lat="45.48007" lon="5.91133">
        <ele>1098</ele>
        <time>2014-08-24T11:32:02Z</time>
      </trkpt>
      <trkpt lat="45.47997" lon="5.91117">
        <ele>1099</ele>
        <time>2014-08-24T11:32:10Z</time>
      </trkpt>
      <trkpt lat="45.47988" lon="5.91101">
        <ele>1100</ele>
        <time>2014-08-24T11:32:18Z</time>
      </trkpt>
      <trkpt lat="45.47982" lon="5.91091">
        <ele>1100.9</ele>
        <time>2014-08-24T11:32:25Z</time>
      </trkpt>
      <trkpt lat="45.47976" lon="5.91081">
        <ele>1100</ele>
        <time>2014-08-24T11:32:29Z</time>
      </trkpt>
      <trkpt lat="45.47971" lon="5.91067">
        <ele>1100</ele>
        <time>2014-08-24T11:32:35Z</time>
      </trkpt>
      <trkpt lat="45.4797" lon="5.91054">
        <ele>1101.7</ele>
        <time>2014-08-24T11:32:41Z</time>
      </trkpt>
      <trkpt lat="45.47967" lon="5.91041">
        <ele>1102.1</ele>
        <time>2014-08-24T11:32:46Z</time>
      </trkpt>
      <trkpt lat="45.47965" lon="5.91025">
        <ele>1102.1</ele>
        <time>2014-08-24T11:32:51Z</time>
      </trkpt>
      <trkpt lat="45.47961" lon="5.91012">
        <ele>1102.3</ele>
        <time>2014-08-24T11:32:55Z</time>
      </trkpt>
      <trkpt lat="45.47959" lon="5.90999">
        <ele>1101.8</ele>
        <time>2014-08-24T11:32:59Z</time>
      </trkpt>
      <trkpt lat="45.47956" lon="5.90986">
        <ele>1101.9</ele>
        <time>2014-08-24T11:33:03Z</time>
      </trkpt>
      <trkpt lat="45.47954" lon="5.90971">
        <ele>1102.1</ele>
        <time>2014-08-24T11:33:07Z</time>
      </trkpt>
      <trkpt lat="45.47949" lon="5.90958">
        <ele>1102.9</ele>
        <time>2014-08-24T11:33:12Z</time>
      </trkpt>
      <trkpt lat="45.47949" lon="5.90944">
        <ele>1104.1</ele>
        <time>2014-08-24T11:33:17Z</time>
      </trkpt>
      <trkpt lat="45.47948" lon="5.90931">
        <ele>1105.1</ele>
        <time>2014-08-24T11:33:24Z</time>
      </trkpt>
      <trkpt lat="45.47946" lon="5.90918">
        <ele>1106.7</ele>
        <time>2014-08-24T11:33:34Z</time>
      </trkpt>
      <trkpt lat="45.47939" lon="5.90904">
        <ele>1107</ele>
        <time>2014-08-24T11:33:40Z</time>
      </trkpt>
      <trkpt lat="45.47934" lon="5.90893">
        <ele>1108</ele>
        <time>2014-08-24T11:33:46Z</time>
      </trkpt>
      <trkpt lat="45.47929" lon="5.90882">
        <ele>1109</ele>
        <time>2014-08-24T11:33:54Z</time>
      </trkpt>
      <trkpt lat="45.47926" lon="5.90868">
        <ele>1110</ele>
        <time>2014-08-24T11:34:01Z</time>
      </trkpt>
      <trkpt lat="45.47922" lon="5.90856">
        <ele>1110.8</ele>
        <time>2014-08-24T11:34:07Z</time>
      </trkpt>
      <trkpt lat="45.47918" lon="5.90843">
        <ele>1112.1</ele>
        <time>2014-08-24T11:34:15Z</time>
      </trkpt>
      <trkpt lat="45.47913" lon="5.90831">
        <ele>1112.6</ele>
        <time>2014-08-24T11:34:22Z</time>
      </trkpt>
      <trkpt lat="45.47911" lon="5.90814">
        <ele>1113.5</ele>
        <time>2014-08-24T11:34:31Z</time>
      </trkpt>
      <trkpt lat="45.47915" lon="5.90802">
        <ele>1113.2</ele>
        <time>2014-08-24T11:35:02Z</time>
      </trkpt>
      <trkpt lat="45.4792" lon="5.90791">
        <ele>1113</ele>
        <time>2014-08-24T11:35:28Z</time>
      </trkpt>
      <trkpt lat="45.4792" lon="5.90776">
        <ele>1114.3</ele>
        <time>2014-08-24T11:36:19Z</time>
      </trkpt>
      <trkpt lat="45.47918" lon="5.90763">
        <ele>1115.3</ele>
        <time>2014-08-24T11:36:26Z</time>
      </trkpt>
      <trkpt lat="45.47916" lon="5.9075">
        <ele>1116.1</ele>
        <time>2014-08-24T11:36:34Z</time>
      </trkpt>
      <trkpt lat="45.47914" lon="5.90736">
        <ele>1117.2</ele>
        <time>2014-08-24T11:36:39Z</time>
      </trkpt>
      <trkpt lat="45.47911" lon="5.9072">
        <ele>1117.6</ele>
        <time>2014-08-24T11:36:46Z</time>
      </trkpt>
      <trkpt lat="45.47906" lon="5.907">
        <ele>1117</ele>
        <time>2014-08-24T11:36:53Z</time>
      </trkpt>
      <trkpt lat="45.47901" lon="5.90685">
        <ele>1117.7</ele>
        <time>2014-08-24T11:36:58Z</time>
      </trkpt>
      <trkpt lat="45.47894" lon="5.90671">
        <ele>1118</ele>
        <time>2014-08-24T11:37:02Z</time>
      </trkpt>
      <trkpt lat="45.47889" lon="5.90657">
        <ele>1119</ele>
        <time>2014-08-24T11:37:07Z</time>
      </trkpt>
      <trkpt lat="45.47884" lon="5.90644">
        <ele>1119.2</ele>
        <time>2014-08-24T11:37:12Z</time>
      </trkpt>
      <trkpt lat="45.47884" lon="5.9063">
        <ele>1120.1</ele>
        <time>2014-08-24T11:37:16Z</time>
      </trkpt>
      <trkpt lat="45.47882" lon="5.90616">
        <ele>1121</ele>
        <time>2014-08-24T11:37:21Z</time>
      </trkpt>
      <trkpt lat="45.47878" lon="5.90602">
        <ele>1121.3</ele>
        <time>2014-08-24T11:37:26Z</time>
      </trkpt>
      <trkpt lat="45.47876" lon="5.90588">
        <ele>1121.4</ele>
        <time>2014-08-24T11:37:30Z</time>
      </trkpt>
      <trkpt lat="45.47875" lon="5.9057">
        <ele>1120.5</ele>
        <time>2014-08-24T11:37:34Z</time>
      </trkpt>
      <trkpt lat="45.47875" lon="5.90552">
        <ele>1120.4</ele>
        <time>2014-08-24T11:37:37Z</time>
      </trkpt>
      <trkpt lat="45.47871" lon="5.90534">
        <ele>1119.5</ele>
        <time>2014-08-24T11:37:40Z</time>
      </trkpt>
      <trkpt lat="45.47869" lon="5.90519">
        <ele>1119.6</ele>
        <time>2014-08-24T11:37:43Z</time>
      </trkpt>
      <trkpt lat="45.47869" lon="5.90503">
        <ele>1119.2</ele>
        <time>2014-08-24T11:37:47Z</time>
      </trkpt>
      <trkpt lat="45.47871" lon="5.90487">
        <ele>1119.3</ele>
        <time>2014-08-24T11:37:50Z</time>
      </trkpt>
      <trkpt lat="45.47871" lon="5.90474">
        <ele>1119.3</ele>
        <time>2014-08-24T11:37:52Z</time>
      </trkpt>
      <trkpt lat="45.47872" lon="5.90456">
        <ele>1119.9</ele>
        <time>2014-08-24T11:37:55Z</time>
      </trkpt>
      <trkpt lat="45.47873" lon="5.90439">
        <ele>1119.7</ele>
        <time>2014-08-24T11:37:58Z</time>
      </trkpt>
      <trkpt lat="45.47873" lon="5.90424">
        <ele>1119.4</ele>
        <time>2014-08-24T11:38:01Z</time>
      </trkpt>
      <trkpt lat="45.47876" lon="5.90412">
        <ele>1120.5</ele>
        <time>2014-08-24T11:38:04Z</time>
      </trkpt>
      <trkpt lat="45.47878" lon="5.90397">
        <ele>1121.2</ele>
        <time>2014-08-24T11:38:08Z</time>
      </trkpt>
      <trkpt lat="45.47876" lon="5.90385">
        <ele>1121.5</ele>
        <time>2014-08-24T11:38:12Z</time>
      </trkpt>
      <trkpt lat="45.47874" lon="5.9037">
        <ele>1122.6</ele>
        <time>2014-08-24T11:38:18Z</time>
      </trkpt>
      <trkpt lat="45.47875" lon="5.90355">
        <ele>1124.1</ele>
        <time>2014-08-24T11:38:24Z</time>
      </trkpt>
      <trkpt lat="45.47876" lon="5.90341">
        <ele>1125.1</ele>
        <time>2014-08-24T11:38:29Z</time>
      </trkpt>
      <trkpt lat="45.47877" lon="5.90328">
        <ele>1125.7</ele>
        <time>2014-08-24T11:38:33Z</time>
      </trkpt>
      <trkpt lat="45.47878" lon="5.90315">
        <ele>1125.7</ele>
        <time>2014-08-24T11:38:36Z</time>
      </trkpt>
      <trkpt lat="45.4788" lon="5.90299">
        <ele>1126.2</ele>
        <time>2014-08-24T11:38:40Z</time>
      </trkpt>
      <trkpt lat="45.47883" lon="5.90283">
        <ele>1125.8</ele>
        <time>2014-08-24T11:38:44Z</time>
      </trkpt>
      <trkpt lat="45.47885" lon="5.90269">
        <ele>1126.1</ele>
        <time>2014-08-24T11:38:47Z</time>
      </trkpt>
      <trkpt lat="45.47887" lon="5.90256">
        <ele>1125.5</ele>
        <time>2014-08-24T11:38:50Z</time>
      </trkpt>
      <trkpt lat="45.47888" lon="5.90242">
        <ele>1125.5</ele>
        <time>2014-08-24T11:38:55Z</time>
      </trkpt>
      <trkpt lat="45.47886" lon="5.90229">
        <ele>1127.2</ele>
        <time>2014-08-24T11:39:00Z</time>
      </trkpt>
      <trkpt lat="45.47885" lon="5.90212">
        <ele>1128.3</ele>
        <time>2014-08-24T11:39:06Z</time>
      </trkpt>
      <trkpt lat="45.47886" lon="5.90197">
        <ele>1129.7</ele>
        <time>2014-08-24T11:39:12Z</time>
      </trkpt>
      <trkpt lat="45.47891" lon="5.90184">
        <ele>1130.2</ele>
        <time>2014-08-24T11:39:16Z</time>
      </trkpt>
      <trkpt lat="45.47895" lon="5.90171">
        <ele>1129.9</ele>
        <time>2014-08-24T11:39:21Z</time>
      </trkpt>
      <trkpt lat="45.47897" lon="5.90156">
        <ele>1129.8</ele>
        <time>2014-08-24T11:39:25Z</time>
      </trkpt>
      <trkpt lat="45.47899" lon="5.9014">
        <ele>1129.5</ele>
        <time>2014-08-24T11:39:29Z</time>
      </trkpt>
      <trkpt lat="45.47899" lon="5.90124">
        <ele>1129.4</ele>
        <time>2014-08-24T11:39:33Z</time>
      </trkpt>
      <trkpt lat="45.47904" lon="5.90108">
        <ele>1129.2</ele>
        <time>2014-08-24T11:39:38Z</time>
      </trkpt>
      <trkpt lat="45.47908" lon="5.90089">
        <ele>1128.5</ele>
        <time>2014-08-24T11:39:41Z</time>
      </trkpt>
      <trkpt lat="45.47912" lon="5.90074">
        <ele>1128.1</ele>
        <time>2014-08-24T11:39:44Z</time>
      </trkpt>
      <trkpt lat="45.47916" lon="5.90057">
        <ele>1128.9</ele>
        <time>2014-08-24T11:39:48Z</time>
      </trkpt>
      <trkpt lat="45.47924" lon="5.90048">
        <ele>1127.7</ele>
        <time>2014-08-24T11:39:52Z</time>
      </trkpt>
      <trkpt lat="45.47914" lon="5.9005">
        <ele>1124.4</ele>
        <time>2014-08-24T11:40:03Z</time>
      </trkpt>
      <trkpt lat="45.47907" lon="5.90041">
        <ele>1122.8</ele>
        <time>2014-08-24T11:40:07Z</time>
      </trkpt>
      <trkpt lat="45.47899" lon="5.90034">
        <ele>1122</ele>
        <time>2014-08-24T11:40:10Z</time>
      </trkpt>
      <trkpt lat="45.47886" lon="5.90024">
        <ele>1112</ele>
        <time>2014-08-24T11:42:01Z</time>
      </trkpt>
      <trkpt lat="45.47876" lon="5.90031">
        <ele>1113.4</ele>
        <time>2014-08-24T11:42:38Z</time>
      </trkpt>
      <trkpt lat="45.47866" lon="5.90026">
        <ele>1112.3</ele>
        <time>2014-08-24T11:42:41Z</time>
      </trkpt>
      <trkpt lat="45.47856" lon="5.90021">
        <ele>1111.2</ele>
        <time>2014-08-24T11:42:44Z</time>
      </trkpt>
      <trkpt lat="45.47846" lon="5.90017">
        <ele>1110.9</ele>
        <time>2014-08-24T11:42:47Z</time>
      </trkpt>
      <trkpt lat="45.47839" lon="5.90006">
        <ele>1109.4</ele>
        <time>2014-08-24T11:42:51Z</time>
      </trkpt>
      <trkpt lat="45.47832" lon="5.89995">
        <ele>1107.8</ele>
        <time>2014-08-24T11:42:54Z</time>
      </trkpt>
      <trkpt lat="45.47823" lon="5.89987">
        <ele>1107.1</ele>
        <time>2014-08-24T11:42:58Z</time>
      </trkpt>
      <trkpt lat="45.47814" lon="5.8998">
        <ele>1105.7</ele>
        <time>2014-08-24T11:43:01Z</time>
      </trkpt>
      <trkpt lat="45.47803" lon="5.89976">
        <ele>1105.3</ele>
        <time>2014-08-24T11:43:05Z</time>
      </trkpt>
      <trkpt lat="45.47795" lon="5.89973">
        <ele>1105.2</ele>
        <time>2014-08-24T11:43:08Z</time>
      </trkpt>
      <trkpt lat="45.47786" lon="5.89965">
        <ele>1104</ele>
        <time>2014-08-24T11:43:10Z</time>
      </trkpt>
      <trkpt lat="45.47778" lon="5.8996">
        <ele>1104.1</ele>
        <time>2014-08-24T11:43:13Z</time>
      </trkpt>
      <trkpt lat="45.47767" lon="5.89956">
        <ele>1102.9</ele>
        <time>2014-08-24T11:43:17Z</time>
      </trkpt>
      <trkpt lat="45.47757" lon="5.89953">
        <ele>1101.8</ele>
        <time>2014-08-24T11:43:20Z</time>
      </trkpt>
      <trkpt lat="45.47748" lon="5.89942">
        <ele>1099.6</ele>
        <time>2014-08-24T11:43:24Z</time>
      </trkpt>
      <trkpt lat="45.47739" lon="5.89935">
        <ele>1097.7</ele>
        <time>2014-08-24T11:43:28Z</time>
      </trkpt>
      <trkpt lat="45.4773" lon="5.8993">
        <ele>1094.9</ele>
        <time>2014-08-24T11:43:33Z</time>
      </trkpt>
      <trkpt lat="45.4772" lon="5.89929">
        <ele>1092.5</ele>
        <time>2014-08-24T11:43:38Z</time>
      </trkpt>
      <trkpt lat="45.47709" lon="5.89921">
        <ele>1089</ele>
        <time>2014-08-24T11:43:42Z</time>
      </trkpt>
      <trkpt lat="45.47699" lon="5.89914">
        <ele>1086.8</ele>
        <time>2014-08-24T11:43:45Z</time>
      </trkpt>
      <trkpt lat="45.47691" lon="5.89905">
        <ele>1083.2</ele>
        <time>2014-08-24T11:43:49Z</time>
      </trkpt>
      <trkpt lat="45.47681" lon="5.89896">
        <ele>1079.3</ele>
        <time>2014-08-24T11:43:54Z</time>
      </trkpt>
      <trkpt lat="45.4767" lon="5.89885">
        <ele>1077.2</ele>
        <time>2014-08-24T11:43:57Z</time>
      </trkpt>
      <trkpt lat="45.47662" lon="5.89875">
        <ele>1072.7</ele>
        <time>2014-08-24T11:44:00Z</time>
      </trkpt>
      <trkpt lat="45.47653" lon="5.89861">
        <ele>1071.5</ele>
        <time>2014-08-24T11:44:03Z</time>
      </trkpt>
      <trkpt lat="45.47647" lon="5.8985">
        <ele>1069.8</ele>
        <time>2014-08-24T11:44:07Z</time>
      </trkpt>
      <trkpt lat="45.4764" lon="5.8984">
        <ele>1066.7</ele>
        <time>2014-08-24T11:44:11Z</time>
      </trkpt>
      <trkpt lat="45.47631" lon="5.89822">
        <ele>1064.2</ele>
        <time>2014-08-24T11:44:16Z</time>
      </trkpt>
      <trkpt lat="45.47621" lon="5.89814">
        <ele>1059.8</ele>
        <time>2014-08-24T11:44:21Z</time>
      </trkpt>
      <trkpt lat="45.47614" lon="5.89801">
        <ele>1057.4</ele>
        <time>2014-08-24T11:44:24Z</time>
      </trkpt>
      <trkpt lat="45.47605" lon="5.8979">
        <ele>1055.3</ele>
        <time>2014-08-24T11:44:27Z</time>
      </trkpt>
      <trkpt lat="45.47595" lon="5.89781">
        <ele>1052.2</ele>
        <time>2014-08-24T11:44:31Z</time>
      </trkpt>
      <trkpt lat="45.47584" lon="5.89774">
        <ele>1050.9</ele>
        <time>2014-08-24T11:44:34Z</time>
      </trkpt>
      <trkpt lat="45.47574" lon="5.89771">
        <ele>1049.2</ele>
        <time>2014-08-24T11:44:36Z</time>
      </trkpt>
      <trkpt lat="45.47565" lon="5.89766">
        <ele>1047.8</ele>
        <time>2014-08-24T11:44:38Z</time>
      </trkpt>
      <trkpt lat="45.47555" lon="5.89762">
        <ele>1046.1</ele>
        <time>2014-08-24T11:44:42Z</time>
      </trkpt>
      <trkpt lat="45.4754" lon="5.89757">
        <ele>1044.3</ele>
        <time>2014-08-24T11:44:45Z</time>
      </trkpt>
      <trkpt lat="45.4753" lon="5.8975">
        <ele>1043.2</ele>
        <time>2014-08-24T11:44:47Z</time>
      </trkpt>
      <trkpt lat="45.4752" lon="5.89745">
        <ele>1041.3</ele>
        <time>2014-08-24T11:44:50Z</time>
      </trkpt>
      <trkpt lat="45.4751" lon="5.89739">
        <ele>1039</ele>
        <time>2014-08-24T11:44:55Z</time>
      </trkpt>
      <trkpt lat="45.47504" lon="5.89726">
        <ele>1035.8</ele>
        <time>2014-08-24T11:44:58Z</time>
      </trkpt>
      <trkpt lat="45.47498" lon="5.89717">
        <ele>1032.3</ele>
        <time>2014-08-24T11:45:02Z</time>
      </trkpt>
      <trkpt lat="45.47488" lon="5.8971">
        <ele>1028.7</ele>
        <time>2014-08-24T11:45:06Z</time>
      </trkpt>
      <trkpt lat="45.47478" lon="5.89708">
        <ele>1025.8</ele>
        <time>2014-08-24T11:45:10Z</time>
      </trkpt>
      <trkpt lat="45.4747" lon="5.89699">
        <ele>1021.9</ele>
        <time>2014-08-24T11:45:14Z</time>
      </trkpt>
      <trkpt lat="45.4746" lon="5.89688">
        <ele>1020.9</ele>
        <time>2014-08-24T11:45:17Z</time>
      </trkpt>
      <trkpt lat="45.47452" lon="5.8968">
        <ele>1018.3</ele>
        <time>2014-08-24T11:45:19Z</time>
      </trkpt>
      <trkpt lat="45.47441" lon="5.89671">
        <ele>1015.3</ele>
        <time>2014-08-24T11:45:22Z</time>
      </trkpt>
      <trkpt lat="45.47433" lon="5.89666">
        <ele>1011.7</ele>
        <time>2014-08-24T11:45:30Z</time>
      </trkpt>
      <trkpt lat="45.47423" lon="5.89667">
        <ele>1011</ele>
        <time>2014-08-24T11:45:34Z</time>
      </trkpt>
      <trkpt lat="45.47415" lon="5.89675">
        <ele>1010.2</ele>
        <time>2014-08-24T11:45:37Z</time>
      </trkpt>
      <trkpt lat="45.47407" lon="5.89684">
        <ele>1010.8</ele>
        <time>2014-08-24T11:45:41Z</time>
      </trkpt>
      <trkpt lat="45.47397" lon="5.89693">
        <ele>1010</ele>
        <time>2014-08-24T11:45:48Z</time>
      </trkpt>
      <trkpt lat="45.47388" lon="5.89697">
        <ele>1007.3</ele>
        <time>2014-08-24T11:45:51Z</time>
      </trkpt>
      <trkpt lat="45.47377" lon="5.89701">
        <ele>1003.8</ele>
        <time>2014-08-24T11:45:55Z</time>
      </trkpt>
      <trkpt lat="45.47374" lon="5.89716">
        <ele>999.6</ele>
        <time>2014-08-24T11:45:59Z</time>
      </trkpt>
      <trkpt lat="45.47379" lon="5.89729">
        <ele>996.7</ele>
        <time>2014-08-24T11:46:02Z</time>
      </trkpt>
      <trkpt lat="45.47383" lon="5.8974">
        <ele>993.9</ele>
        <time>2014-08-24T11:46:05Z</time>
      </trkpt>
      <trkpt lat="45.47381" lon="5.89756">
        <ele>990.9</ele>
        <time>2014-08-24T11:46:09Z</time>
      </trkpt>
      <trkpt lat="45.47381" lon="5.89769">
        <ele>988.3</ele>
        <time>2014-08-24T11:46:12Z</time>
      </trkpt>
      <trkpt lat="45.47379" lon="5.89787">
        <ele>985.6</ele>
        <time>2014-08-24T11:46:16Z</time>
      </trkpt>
      <trkpt lat="45.47378" lon="5.89805">
        <ele>982.9</ele>
        <time>2014-08-24T11:46:19Z</time>
      </trkpt>
      <trkpt lat="45.47373" lon="5.89818">
        <ele>981.2</ele>
        <time>2014-08-24T11:46:21Z</time>
      </trkpt>
      <trkpt lat="45.47369" lon="5.89832">
        <ele>978.7</ele>
        <time>2014-08-24T11:46:23Z</time>
      </trkpt>
      <trkpt lat="45.47367" lon="5.89848">
        <ele>975.1</ele>
        <time>2014-08-24T11:46:26Z</time>
      </trkpt>
      <trkpt lat="45.47366" lon="5.89862">
        <ele>971.8</ele>
        <time>2014-08-24T11:46:29Z</time>
      </trkpt>
      <trkpt lat="45.4736" lon="5.89875">
        <ele>968.8</ele>
        <time>2014-08-24T11:46:32Z</time>
      </trkpt>
      <trkpt lat="45.47351" lon="5.89878">
        <ele>966.4</ele>
        <time>2014-08-24T11:46:34Z</time>
      </trkpt>
      <trkpt lat="45.47337" lon="5.89876">
        <ele>966.8</ele>
        <time>2014-08-24T11:46:37Z</time>
      </trkpt>
      <trkpt lat="45.47327" lon="5.89877">
        <ele>964.9</ele>
        <time>2014-08-24T11:46:40Z</time>
      </trkpt>
      <trkpt lat="45.47318" lon="5.89887">
        <ele>964.8</ele>
        <time>2014-08-24T11:46:44Z</time>
      </trkpt>
      <trkpt lat="45.4731" lon="5.89895">
        <ele>964</ele>
        <time>2014-08-24T11:46:49Z</time>
      </trkpt>
      <trkpt lat="45.47299" lon="5.89892">
        <ele>963</ele>
        <time>2014-08-24T11:46:53Z</time>
      </trkpt>
      <trkpt lat="45.47289" lon="5.8989">
        <ele>960.8</ele>
        <time>2014-08-24T11:46:56Z</time>
      </trkpt>
      <trkpt lat="45.47279" lon="5.89886">
        <ele>959.7</ele>
        <time>2014-08-24T11:47:00Z</time>
      </trkpt>
      <trkpt lat="45.4727" lon="5.89876">
        <ele>956.6</ele>
        <time>2014-08-24T11:47:03Z</time>
      </trkpt>
      <trkpt lat="45.47258" lon="5.89872">
        <ele>953.8</ele>
        <time>2014-08-24T11:47:06Z</time>
      </trkpt>
      <trkpt lat="45.47249" lon="5.89876">
        <ele>950.9</ele>
        <time>2014-08-24T11:47:09Z</time>
      </trkpt>
      <trkpt lat="45.47239" lon="5.89878">
        <ele>949.4</ele>
        <time>2014-08-24T11:47:12Z</time>
      </trkpt>
      <trkpt lat="45.4723" lon="5.89879">
        <ele>947.3</ele>
        <time>2014-08-24T11:47:14Z</time>
      </trkpt>
      <trkpt lat="45.4722" lon="5.89876">
        <ele>945.5</ele>
        <time>2014-08-24T11:47:16Z</time>
      </trkpt>
      <trkpt lat="45.47211" lon="5.8987">
        <ele>943.4</ele>
        <time>2014-08-24T11:47:18Z</time>
      </trkpt>
      <trkpt lat="45.47203" lon="5.89859">
        <ele>940.2</ele>
        <time>2014-08-24T11:47:21Z</time>
      </trkpt>
      <trkpt lat="45.47198" lon="5.89845">
        <ele>936.5</ele>
        <time>2014-08-24T11:47:24Z</time>
      </trkpt>
      <trkpt lat="45.4719" lon="5.89834">
        <ele>934</ele>
        <time>2014-08-24T11:47:26Z</time>
      </trkpt>
      <trkpt lat="45.47179" lon="5.89824">
        <ele>933.8</ele>
        <time>2014-08-24T11:47:28Z</time>
      </trkpt>
      <trkpt lat="45.4717" lon="5.89818">
        <ele>933.5</ele>
        <time>2014-08-24T11:47:30Z</time>
      </trkpt>
      <trkpt lat="45.47161" lon="5.89811">
        <ele>933.3</ele>
        <time>2014-08-24T11:47:32Z</time>
      </trkpt>
      <trkpt lat="45.4715" lon="5.89801">
        <ele>932.5</ele>
        <time>2014-08-24T11:47:34Z</time>
      </trkpt>
      <trkpt lat="45.4714" lon="5.89796">
        <ele>931.5</ele>
        <time>2014-08-24T11:47:35Z</time>
      </trkpt>
      <trkpt lat="45.47127" lon="5.89784">
        <ele>929.9</ele>
        <time>2014-08-24T11:47:37Z</time>
      </trkpt>
      <trkpt lat="45.47116" lon="5.89777">
        <ele>929.5</ele>
        <time>2014-08-24T11:47:39Z</time>
      </trkpt>
      <trkpt lat="45.47106" lon="5.89777">
        <ele>928.8</ele>
        <time>2014-08-24T11:47:42Z</time>
      </trkpt>
      <trkpt lat="45.47095" lon="5.89775">
        <ele>927.7</ele>
        <time>2014-08-24T11:47:45Z</time>
      </trkpt>
      <trkpt lat="45.47085" lon="5.89772">
        <ele>926.6</ele>
        <time>2014-08-24T11:47:48Z</time>
      </trkpt>
      <trkpt lat="45.47075" lon="5.89768">
        <ele>924.8</ele>
        <time>2014-08-24T11:47:51Z</time>
      </trkpt>
      <trkpt lat="45.47067" lon="5.89763">
        <ele>922.9</ele>
        <time>2014-08-24T11:47:54Z</time>
      </trkpt>
      <trkpt lat="45.47057" lon="5.89759">
        <ele>920.6</ele>
        <time>2014-08-24T11:48:01Z</time>
      </trkpt>
      <trkpt lat="45.47047" lon="5.89756">
        <ele>918.7</ele>
        <time>2014-08-24T11:48:06Z</time>
      </trkpt>
      <trkpt lat="45.47038" lon="5.89756">
        <ele>916.1</ele>
        <time>2014-08-24T11:48:10Z</time>
      </trkpt>
      <trkpt lat="45.47027" lon="5.89762">
        <ele>912.8</ele>
        <time>2014-08-24T11:48:15Z</time>
      </trkpt>
      <trkpt lat="45.47018" lon="5.89763">
        <ele>908.9</ele>
        <time>2014-08-24T11:48:20Z</time>
      </trkpt>
      <trkpt lat="45.4701" lon="5.89753">
        <ele>905</ele>
        <time>2014-08-24T11:48:26Z</time>
      </trkpt>
      <trkpt lat="45.47001" lon="5.89744">
        <ele>901.4</ele>
        <time>2014-08-24T11:48:30Z</time>
      </trkpt>
      <trkpt lat="45.46991" lon="5.89741">
        <ele>898.3</ele>
        <time>2014-08-24T11:48:33Z</time>
      </trkpt>
      <trkpt lat="45.46983" lon="5.89736">
        <ele>895.4</ele>
        <time>2014-08-24T11:48:37Z</time>
      </trkpt>
      <trkpt lat="45.46973" lon="5.89739">
        <ele>891.4</ele>
        <time>2014-08-24T11:48:42Z</time>
      </trkpt>
      <trkpt lat="45.46964" lon="5.89736">
        <ele>888.9</ele>
        <time>2014-08-24T11:48:46Z</time>
      </trkpt>
      <trkpt lat="45.46955" lon="5.89724">
        <ele>885.5</ele>
        <time>2014-08-24T11:48:50Z</time>
      </trkpt>
      <trkpt lat="45.46947" lon="5.89715">
        <ele>881.7</ele>
        <time>2014-08-24T11:48:54Z</time>
      </trkpt>
      <trkpt lat="45.46938" lon="5.89712">
        <ele>879.4</ele>
        <time>2014-08-24T11:48:57Z</time>
      </trkpt>
      <trkpt lat="45.46926" lon="5.89715">
        <ele>877.6</ele>
        <time>2014-08-24T11:49:00Z</time>
      </trkpt>
      <trkpt lat="45.46916" lon="5.89713">
        <ele>875.9</ele>
        <time>2014-08-24T11:49:03Z</time>
      </trkpt>
      <trkpt lat="45.46906" lon="5.89714">
        <ele>873.9</ele>
        <time>2014-08-24T11:49:06Z</time>
      </trkpt>
      <trkpt lat="45.46895" lon="5.89716">
        <ele>871.2</ele>
        <time>2014-08-24T11:49:09Z</time>
      </trkpt>
      <trkpt lat="45.46886" lon="5.89709">
        <ele>869.8</ele>
        <time>2014-08-24T11:49:12Z</time>
      </trkpt>
      <trkpt lat="45.46877" lon="5.8971">
        <ele>868.3</ele>
        <time>2014-08-24T11:49:15Z</time>
      </trkpt>
      <trkpt lat="45.46868" lon="5.89706">
        <ele>865.8</ele>
        <time>2014-08-24T11:49:20Z</time>
      </trkpt>
      <trkpt lat="45.46859" lon="5.89711">
        <ele>864.1</ele>
        <time>2014-08-24T11:49:28Z</time>
      </trkpt>
      <trkpt lat="45.46847" lon="5.89717">
        <ele>863.1</ele>
        <time>2014-08-24T11:49:31Z</time>
      </trkpt>
      <trkpt lat="45.46837" lon="5.89719">
        <ele>862.8</ele>
        <time>2014-08-24T11:49:33Z</time>
      </trkpt>
      <trkpt lat="45.46828" lon="5.89707">
        <ele>863</ele>
        <time>2014-08-24T11:49:36Z</time>
      </trkpt>
      <trkpt lat="45.46827" lon="5.89693">
        <ele>863</ele>
        <time>2014-08-24T11:49:39Z</time>
      </trkpt>
      <trkpt lat="45.46829" lon="5.89678">
        <ele>863.8</ele>
        <time>2014-08-24T11:49:43Z</time>
      </trkpt>
      <trkpt lat="45.46825" lon="5.89665">
        <ele>864.5</ele>
        <time>2014-08-24T11:49:46Z</time>
      </trkpt>
      <trkpt lat="45.46816" lon="5.89656">
        <ele>864.9</ele>
        <time>2014-08-24T11:49:49Z</time>
      </trkpt>
      <trkpt lat="45.46806" lon="5.89651">
        <ele>865.4</ele>
        <time>2014-08-24T11:49:52Z</time>
      </trkpt>
      <trkpt lat="45.46796" lon="5.89647">
        <ele>865.9</ele>
        <time>2014-08-24T11:49:55Z</time>
      </trkpt>
      <trkpt lat="45.46786" lon="5.89641">
        <ele>866.3</ele>
        <time>2014-08-24T11:49:58Z</time>
      </trkpt>
      <trkpt lat="45.46777" lon="5.89634">
        <ele>866.9</ele>
        <time>2014-08-24T11:50:01Z</time>
      </trkpt>
      <trkpt lat="45.46765" lon="5.89629">
        <ele>867.6</ele>
        <time>2014-08-24T11:50:04Z</time>
      </trkpt>
      <trkpt lat="45.46755" lon="5.89622">
        <ele>868.1</ele>
        <time>2014-08-24T11:50:07Z</time>
      </trkpt>
      <trkpt lat="45.46746" lon="5.89616">
        <ele>868.7</ele>
        <time>2014-08-24T11:50:10Z</time>
      </trkpt>
      <trkpt lat="45.46738" lon="5.89609">
        <ele>869.5</ele>
        <time>2014-08-24T11:50:13Z</time>
      </trkpt>
      <trkpt lat="45.46729" lon="5.89602">
        <ele>869.6</ele>
        <time>2014-08-24T11:50:16Z</time>
      </trkpt>
      <trkpt lat="45.4672" lon="5.89596">
        <ele>869.9</ele>
        <time>2014-08-24T11:50:20Z</time>
      </trkpt>
      <trkpt lat="45.46709" lon="5.89593">
        <ele>870.8</ele>
        <time>2014-08-24T11:50:26Z</time>
      </trkpt>
      <trkpt lat="45.46697" lon="5.89593">
        <ele>872.2</ele>
        <time>2014-08-24T11:50:30Z</time>
      </trkpt>
      <trkpt lat="45.46687" lon="5.89595">
        <ele>872</ele>
        <time>2014-08-24T11:50:33Z</time>
      </trkpt>
      <trkpt lat="45.46677" lon="5.89598">
        <ele>871.9</ele>
        <time>2014-08-24T11:50:36Z</time>
      </trkpt>
      <trkpt lat="45.46665" lon="5.89599">
        <ele>871.4</ele>
        <time>2014-08-24T11:50:39Z</time>
      </trkpt>
      <trkpt lat="45.46652" lon="5.89599">
        <ele>871.2</ele>
        <time>2014-08-24T11:50:42Z</time>
      </trkpt>
      <trkpt lat="45.46642" lon="5.89599">
        <ele>870.5</ele>
        <time>2014-08-24T11:50:44Z</time>
      </trkpt>
      <trkpt lat="45.46633" lon="5.89598">
        <ele>870.3</ele>
        <time>2014-08-24T11:50:46Z</time>
      </trkpt>
      <trkpt lat="45.46622" lon="5.89593">
        <ele>869.8</ele>
        <time>2014-08-24T11:50:48Z</time>
      </trkpt>
      <trkpt lat="45.46612" lon="5.89585">
        <ele>869.3</ele>
        <time>2014-08-24T11:50:50Z</time>
      </trkpt>
      <trkpt lat="45.46601" lon="5.89578">
        <ele>869</ele>
        <time>2014-08-24T11:50:52Z</time>
      </trkpt>
      <trkpt lat="45.46589" lon="5.89575">
        <ele>868.6</ele>
        <time>2014-08-24T11:50:54Z</time>
      </trkpt>
      <trkpt lat="45.46576" lon="5.89577">
        <ele>868.1</ele>
        <time>2014-08-24T11:50:56Z</time>
      </trkpt>
      <trkpt lat="45.46566" lon="5.8958">
        <ele>867.6</ele>
        <time>2014-08-24T11:50:58Z</time>
      </trkpt>
      <trkpt lat="45.46557" lon="5.89584">
        <ele>867.1</ele>
        <time>2014-08-24T11:51:00Z</time>
      </trkpt>
      <trkpt lat="45.46547" lon="5.89589">
        <ele>866.5</ele>
        <time>2014-08-24T11:51:02Z</time>
      </trkpt>
      <trkpt lat="45.46538" lon="5.89593">
        <ele>865.9</ele>
        <time>2014-08-24T11:51:04Z</time>
      </trkpt>
      <trkpt lat="45.46526" lon="5.89594">
        <ele>865</ele>
        <time>2014-08-24T11:51:07Z</time>
      </trkpt>
      <trkpt lat="45.46516" lon="5.89597">
        <ele>864.4</ele>
        <time>2014-08-24T11:51:10Z</time>
      </trkpt>
      <trkpt lat="45.46507" lon="5.896">
        <ele>863.7</ele>
        <time>2014-08-24T11:51:13Z</time>
      </trkpt>
      <trkpt lat="45.46498" lon="5.89606">
        <ele>863.3</ele>
        <time>2014-08-24T11:51:16Z</time>
      </trkpt>
      <trkpt lat="45.46507" lon="5.89603">
        <ele>862.3</ele>
        <time>2014-08-24T11:51:58Z</time>
      </trkpt>
      <trkpt lat="45.46516" lon="5.89599">
        <ele>863</ele>
        <time>2014-08-24T11:52:02Z</time>
      </trkpt>
      <trkpt lat="45.46525" lon="5.89596">
        <ele>863.5</ele>
        <time>2014-08-24T11:52:05Z</time>
      </trkpt>
      <trkpt lat="45.46534" lon="5.89594">
        <ele>863.9</ele>
        <time>2014-08-24T11:52:08Z</time>
      </trkpt>
      <trkpt lat="45.46544" lon="5.89591">
        <ele>864.2</ele>
        <time>2014-08-24T11:52:11Z</time>
      </trkpt>
      <trkpt lat="45.46555" lon="5.89586">
        <ele>865.1</ele>
        <time>2014-08-24T11:52:15Z</time>
      </trkpt>
      <trkpt lat="45.46566" lon="5.89582">
        <ele>865.8</ele>
        <time>2014-08-24T11:52:19Z</time>
      </trkpt>
      <trkpt lat="45.46561" lon="5.89568">
        <ele>863.4</ele>
        <time>2014-08-24T11:52:42Z</time>
      </trkpt>
      <trkpt lat="45.46554" lon="5.89559">
        <ele>860.4</ele>
        <time>2014-08-24T11:52:47Z</time>
      </trkpt>
      <trkpt lat="45.46557" lon="5.89545">
        <ele>856.6</ele>
        <time>2014-08-24T11:52:56Z</time>
      </trkpt>
      <trkpt lat="45.46564" lon="5.89536">
        <ele>853</ele>
        <time>2014-08-24T11:53:02Z</time>
      </trkpt>
      <trkpt lat="45.4656" lon="5.89524">
        <ele>847.1</ele>
        <time>2014-08-24T11:53:24Z</time>
      </trkpt>
      <trkpt lat="45.46568" lon="5.89517">
        <ele>844.5</ele>
        <time>2014-08-24T11:53:44Z</time>
      </trkpt>
      <trkpt lat="45.46564" lon="5.89498">
        <ele>839</ele>
        <time>2014-08-24T11:54:05Z</time>
      </trkpt>
      <trkpt lat="45.46554" lon="5.8951">
        <ele>838</ele>
        <time>2014-08-24T11:54:29Z</time>
      </trkpt>
      <trkpt lat="45.46545" lon="5.89516">
        <ele>838</ele>
        <time>2014-08-24T11:54:33Z</time>
      </trkpt>
      <trkpt lat="45.46532" lon="5.89522">
        <ele>838</ele>
        <time>2014-08-24T11:54:41Z</time>
      </trkpt>
      <trkpt lat="45.4652" lon="5.89519">
        <ele>838</ele>
        <time>2014-08-24T11:54:49Z</time>
      </trkpt>
      <trkpt lat="45.46507" lon="5.89523">
        <ele>838</ele>
        <time>2014-08-24T11:55:01Z</time>
      </trkpt>
      <trkpt lat="45.46492" lon="5.89528">
        <ele>838</ele>
        <time>2014-08-24T11:55:09Z</time>
      </trkpt>
      <trkpt lat="45.46479" lon="5.89531">
        <ele>839</ele>
        <time>2014-08-24T11:55:17Z</time>
      </trkpt>
      <trkpt lat="45.46468" lon="5.89536">
        <ele>840</ele>
        <time>2014-08-24T11:55:29Z</time>
      </trkpt>
      <trkpt lat="45.46457" lon="5.89542">
        <ele>840</ele>
        <time>2014-08-24T11:55:41Z</time>
      </trkpt>
      <trkpt lat="45.46447" lon="5.89544">
        <ele>841</ele>
        <time>2014-08-24T11:55:48Z</time>
      </trkpt>
      <trkpt lat="45.46437" lon="5.89545">
        <ele>841.3</ele>
        <time>2014-08-24T11:55:54Z</time>
      </trkpt>
      <trkpt lat="45.46428" lon="5.89547">
        <ele>840.8</ele>
        <time>2014-08-24T11:55:58Z</time>
      </trkpt>
      <trkpt lat="45.46417" lon="5.89549">
        <ele>839.6</ele>
        <time>2014-08-24T11:56:04Z</time>
      </trkpt>
      <trkpt lat="45.46408" lon="5.89544">
        <ele>839.1</ele>
        <time>2014-08-24T11:56:09Z</time>
      </trkpt>
      <trkpt lat="45.46398" lon="5.89541">
        <ele>838.1</ele>
        <time>2014-08-24T11:56:13Z</time>
      </trkpt>
      <trkpt lat="45.46389" lon="5.89536">
        <ele>836.3</ele>
        <time>2014-08-24T11:56:19Z</time>
      </trkpt>
      <trkpt lat="45.4638" lon="5.89539">
        <ele>836.4</ele>
        <time>2014-08-24T11:56:30Z</time>
      </trkpt>
      <trkpt lat="45.4637" lon="5.89539">
        <ele>835.2</ele>
        <time>2014-08-24T11:56:41Z</time>
      </trkpt>
      <trkpt lat="45.46361" lon="5.89538">
        <ele>836.7</ele>
        <time>2014-08-24T11:56:52Z</time>
      </trkpt>
      <trkpt lat="45.46354" lon="5.89529">
        <ele>837.5</ele>
        <time>2014-08-24T11:57:01Z</time>
      </trkpt>
      <trkpt lat="45.46348" lon="5.89517">
        <ele>836.4</ele>
        <time>2014-08-24T11:57:06Z</time>
      </trkpt>
      <trkpt lat="45.46341" lon="5.89506">
        <ele>835.3</ele>
        <time>2014-08-24T11:57:16Z</time>
      </trkpt>
      <trkpt lat="45.46332" lon="5.89497">
        <ele>836.4</ele>
        <time>2014-08-24T11:57:21Z</time>
      </trkpt>
      <trkpt lat="45.46324" lon="5.8949">
        <ele>840.3</ele>
        <time>2014-08-24T11:57:29Z</time>
      </trkpt>
      <trkpt lat="45.46314" lon="5.89486">
        <ele>840.6</ele>
        <time>2014-08-24T11:57:37Z</time>
      </trkpt>
      <trkpt lat="45.46305" lon="5.89484">
        <ele>843.2</ele>
        <time>2014-08-24T11:57:45Z</time>
      </trkpt>
      <trkpt lat="45.46295" lon="5.89481">
        <ele>846.2</ele>
        <time>2014-08-24T11:57:52Z</time>
      </trkpt>
      <trkpt lat="45.46286" lon="5.8948">
        <ele>848.4</ele>
        <time>2014-08-24T11:57:58Z</time>
      </trkpt>
      <trkpt lat="45.46277" lon="5.89481">
        <ele>850</ele>
        <time>2014-08-24T11:58:04Z</time>
      </trkpt>
      <trkpt lat="45.46267" lon="5.89487">
        <ele>851.1</ele>
        <time>2014-08-24T11:58:09Z</time>
      </trkpt>
      <trkpt lat="45.46257" lon="5.89489">
        <ele>851.7</ele>
        <time>2014-08-24T11:58:14Z</time>
      </trkpt>
      <trkpt lat="45.46248" lon="5.89485">
        <ele>852</ele>
        <time>2014-08-24T11:58:18Z</time>
      </trkpt>
      <trkpt lat="45.4624" lon="5.89476">
        <ele>852.6</ele>
        <time>2014-08-24T11:58:22Z</time>
      </trkpt>
      <trkpt lat="45.46231" lon="5.89466">
        <ele>854</ele>
        <time>2014-08-24T11:58:28Z</time>
      </trkpt>
      <trkpt lat="45.46219" lon="5.89456">
        <ele>856.4</ele>
        <time>2014-08-24T11:58:36Z</time>
      </trkpt>
      <trkpt lat="45.4621" lon="5.8945">
        <ele>857.4</ele>
        <time>2014-08-24T11:58:41Z</time>
      </trkpt>
      <trkpt lat="45.46202" lon="5.89444">
        <ele>858.8</ele>
        <time>2014-08-24T11:58:46Z</time>
      </trkpt>
      <trkpt lat="45.46193" lon="5.89441">
        <ele>858.7</ele>
        <time>2014-08-24T11:58:50Z</time>
      </trkpt>
      <trkpt lat="45.46183" lon="5.89435">
        <ele>858.5</ele>
        <time>2014-08-24T11:58:53Z</time>
      </trkpt>
      <trkpt lat="45.46174" lon="5.89431">
        <ele>858.6</ele>
        <time>2014-08-24T11:58:56Z</time>
      </trkpt>
      <trkpt lat="45.46165" lon="5.89424">
        <ele>859.2</ele>
        <time>2014-08-24T11:59:02Z</time>
      </trkpt>
      <trkpt lat="45.46154" lon="5.89417">
        <ele>860.1</ele>
        <time>2014-08-24T11:59:06Z</time>
      </trkpt>
      <trkpt lat="45.46144" lon="5.89414">
        <ele>861.4</ele>
        <time>2014-08-24T11:59:12Z</time>
      </trkpt>
      <trkpt lat="45.46136" lon="5.89402">
        <ele>861.9</ele>
        <time>2014-08-24T11:59:16Z</time>
      </trkpt>
      <trkpt lat="45.4613" lon="5.89389">
        <ele>860.7</ele>
        <time>2014-08-24T11:59:20Z</time>
      </trkpt>
      <trkpt lat="45.46125" lon="5.8937">
        <ele>859</ele>
        <time>2014-08-24T11:59:24Z</time>
      </trkpt>
      <trkpt lat="45.46121" lon="5.89356">
        <ele>858.9</ele>
        <time>2014-08-24T11:59:28Z</time>
      </trkpt>
      <trkpt lat="45.46115" lon="5.89344">
        <ele>856.7</ele>
        <time>2014-08-24T11:59:32Z</time>
      </trkpt>
      <trkpt lat="45.46102" lon="5.8933">
        <ele>854.7</ele>
        <time>2014-08-24T11:59:37Z</time>
      </trkpt>
      <trkpt lat="45.46093" lon="5.89317">
        <ele>853</ele>
        <time>2014-08-24T11:59:40Z</time>
      </trkpt>
      <trkpt lat="45.46083" lon="5.89305">
        <ele>851</ele>
        <time>2014-08-24T11:59:45Z</time>
      </trkpt>
      <trkpt lat="45.4607" lon="5.8929">
        <ele>850</ele>
        <time>2014-08-24T11:59:49Z</time>
      </trkpt>
      <trkpt lat="45.46049" lon="5.89284">
        <ele>848</ele>
        <time>2014-08-24T11:59:53Z</time>
      </trkpt>
      <trkpt lat="45.46036" lon="5.89287">
        <ele>848.6</ele>
        <time>2014-08-24T11:59:56Z</time>
      </trkpt>
      <trkpt lat="45.46025" lon="5.89288">
        <ele>847.5</ele>
        <time>2014-08-24T11:59:58Z</time>
      </trkpt>
      <trkpt lat="45.46014" lon="5.89286">
        <ele>846.6</ele>
        <time>2014-08-24T12:00:00Z</time>
      </trkpt>
      <trkpt lat="45.46003" lon="5.89286">
        <ele>844.4</ele>
        <time>2014-08-24T12:00:02Z</time>
      </trkpt>
      <trkpt lat="45.45992" lon="5.89291">
        <ele>844.1</ele>
        <time>2014-08-24T12:00:05Z</time>
      </trkpt>
      <trkpt lat="45.45981" lon="5.89291">
        <ele>843.7</ele>
        <time>2014-08-24T12:00:10Z</time>
      </trkpt>
      <trkpt lat="45.45972" lon="5.89282">
        <ele>843.4</ele>
        <time>2014-08-24T12:00:13Z</time>
      </trkpt>
      <trkpt lat="45.45965" lon="5.89271">
        <ele>842.5</ele>
        <time>2014-08-24T12:00:15Z</time>
      </trkpt>
      <trkpt lat="45.45957" lon="5.89261">
        <ele>841.4</ele>
        <time>2014-08-24T12:00:18Z</time>
      </trkpt>
      <trkpt lat="45.45946" lon="5.89256">
        <ele>839.9</ele>
        <time>2014-08-24T12:00:22Z</time>
      </trkpt>
      <trkpt lat="45.45936" lon="5.89258">
        <ele>839</ele>
        <time>2014-08-24T12:00:25Z</time>
      </trkpt>
      <trkpt lat="45.45926" lon="5.89254">
        <ele>837.8</ele>
        <time>2014-08-24T12:00:30Z</time>
      </trkpt>
      <trkpt lat="45.45916" lon="5.89249">
        <ele>838.6</ele>
        <time>2014-08-24T12:00:34Z</time>
      </trkpt>
      <trkpt lat="45.45906" lon="5.89245">
        <ele>838</ele>
        <time>2014-08-24T12:00:37Z</time>
      </trkpt>
      <trkpt lat="45.45896" lon="5.89239">
        <ele>837.7</ele>
        <time>2014-08-24T12:00:40Z</time>
      </trkpt>
      <trkpt lat="45.45889" lon="5.8923">
        <ele>837.4</ele>
        <time>2014-08-24T12:00:43Z</time>
      </trkpt>
      <trkpt lat="45.45882" lon="5.89222">
        <ele>837.9</ele>
        <time>2014-08-24T12:00:47Z</time>
      </trkpt>
      <trkpt lat="45.45874" lon="5.89209">
        <ele>837.9</ele>
        <time>2014-08-24T12:00:51Z</time>
      </trkpt>
      <trkpt lat="45.45868" lon="5.89193">
        <ele>837.1</ele>
        <time>2014-08-24T12:00:54Z</time>
      </trkpt>
      <trkpt lat="45.45863" lon="5.8918">
        <ele>834.3</ele>
        <time>2014-08-24T12:00:58Z</time>
      </trkpt>
      <trkpt lat="45.45858" lon="5.89167">
        <ele>834.5</ele>
        <time>2014-08-24T12:01:01Z</time>
      </trkpt>
      <trkpt lat="45.45853" lon="5.89155">
        <ele>833.7</ele>
        <time>2014-08-24T12:01:04Z</time>
      </trkpt>
      <trkpt lat="45.45845" lon="5.89145">
        <ele>833.9</ele>
        <time>2014-08-24T12:01:08Z</time>
      </trkpt>
      <trkpt lat="45.45839" lon="5.89137">
        <ele>834</ele>
        <time>2014-08-24T12:01:12Z</time>
      </trkpt>
      <trkpt lat="45.4583" lon="5.8913">
        <ele>833.5</ele>
        <time>2014-08-24T12:01:16Z</time>
      </trkpt>
      <trkpt lat="45.4582" lon="5.89127">
        <ele>834</ele>
        <time>2014-08-24T12:01:21Z</time>
      </trkpt>
      <trkpt lat="45.45811" lon="5.89121">
        <ele>834.6</ele>
        <time>2014-08-24T12:01:26Z</time>
      </trkpt>
      <trkpt lat="45.45804" lon="5.89114">
        <ele>834.8</ele>
        <time>2014-08-24T12:01:30Z</time>
      </trkpt>
      <trkpt lat="45.45794" lon="5.89106">
        <ele>835.4</ele>
        <time>2014-08-24T12:01:34Z</time>
      </trkpt>
      <trkpt lat="45.45785" lon="5.89097">
        <ele>836.1</ele>
        <time>2014-08-24T12:01:37Z</time>
      </trkpt>
      <trkpt lat="45.45783" lon="5.89084">
        <ele>836</ele>
        <time>2014-08-24T12:01:41Z</time>
      </trkpt>
      <trkpt lat="45.45789" lon="5.89072">
        <ele>835.5</ele>
        <time>2014-08-24T12:01:45Z</time>
      </trkpt>
      <trkpt lat="45.45796" lon="5.89058">
        <ele>834.2</ele>
        <time>2014-08-24T12:01:49Z</time>
      </trkpt>
      <trkpt lat="45.4581" lon="5.89046">
        <ele>829</ele>
        <time>2014-08-24T12:01:54Z</time>
      </trkpt>
      <trkpt lat="45.45819" lon="5.89043">
        <ele>832.9</ele>
        <time>2014-08-24T12:01:57Z</time>
      </trkpt>
      <trkpt lat="45.45831" lon="5.89039">
        <ele>832.6</ele>
        <time>2014-08-24T12:02:00Z</time>
      </trkpt>
      <trkpt lat="45.45841" lon="5.89035">
        <ele>832.1</ele>
        <time>2014-08-24T12:02:02Z</time>
      </trkpt>
      <trkpt lat="45.45851" lon="5.89029">
        <ele>831.5</ele>
        <time>2014-08-24T12:02:04Z</time>
      </trkpt>
      <trkpt lat="45.45861" lon="5.89023">
        <ele>831</ele>
        <time>2014-08-24T12:02:06Z</time>
      </trkpt>
      <trkpt lat="45.45871" lon="5.89015">
        <ele>830.7</ele>
        <time>2014-08-24T12:02:08Z</time>
      </trkpt>
      <trkpt lat="45.45877" lon="5.89005">
        <ele>830.5</ele>
        <time>2014-08-24T12:02:10Z</time>
      </trkpt>
      <trkpt lat="45.45884" lon="5.88994">
        <ele>830</ele>
        <time>2014-08-24T12:02:12Z</time>
      </trkpt>
      <trkpt lat="45.4589" lon="5.88983">
        <ele>829.6</ele>
        <time>2014-08-24T12:02:15Z</time>
      </trkpt>
      <trkpt lat="45.45898" lon="5.88974">
        <ele>829.4</ele>
        <time>2014-08-24T12:02:26Z</time>
      </trkpt>
      <trkpt lat="45.45906" lon="5.88967">
        <ele>829.9</ele>
        <time>2014-08-24T12:02:29Z</time>
      </trkpt>
      <trkpt lat="45.45913" lon="5.88958">
        <ele>830.2</ele>
        <time>2014-08-24T12:02:33Z</time>
      </trkpt>
      <trkpt lat="45.45912" lon="5.88944">
        <ele>832.2</ele>
        <time>2014-08-24T12:03:10Z</time>
      </trkpt>
      <trkpt lat="45.45909" lon="5.88927">
        <ele>833</ele>
        <time>2014-08-24T12:03:16Z</time>
      </trkpt>
      <trkpt lat="45.45906" lon="5.88914">
        <ele>833.3</ele>
        <time>2014-08-24T12:03:19Z</time>
      </trkpt>
      <trkpt lat="45.45902" lon="5.889">
        <ele>833.8</ele>
        <time>2014-08-24T12:03:22Z</time>
      </trkpt>
      <trkpt lat="45.45896" lon="5.88889">
        <ele>834.5</ele>
        <time>2014-08-24T12:03:26Z</time>
      </trkpt>
      <trkpt lat="45.45885" lon="5.88881">
        <ele>834.9</ele>
        <time>2014-08-24T12:03:30Z</time>
      </trkpt>
      <trkpt lat="45.45873" lon="5.88873">
        <ele>834.2</ele>
        <time>2014-08-24T12:03:33Z</time>
      </trkpt>
      <trkpt lat="45.45861" lon="5.88869">
        <ele>833.4</ele>
        <time>2014-08-24T12:03:35Z</time>
      </trkpt>
      <trkpt lat="45.45849" lon="5.88866">
        <ele>832.1</ele>
        <time>2014-08-24T12:03:37Z</time>
      </trkpt>
      <trkpt lat="45.45836" lon="5.88863">
        <ele>829.9</ele>
        <time>2014-08-24T12:03:39Z</time>
      </trkpt>
      <trkpt lat="45.45824" lon="5.88859">
        <ele>829</ele>
        <time>2014-08-24T12:03:41Z</time>
      </trkpt>
      <trkpt lat="45.45814" lon="5.88856">
        <ele>827.9</ele>
        <time>2014-08-24T12:03:43Z</time>
      </trkpt>
      <trkpt lat="45.45808" lon="5.88844">
        <ele>829</ele>
        <time>2014-08-24T12:03:46Z</time>
      </trkpt>
      <trkpt lat="45.45801" lon="5.88828">
        <ele>825.8</ele>
        <time>2014-08-24T12:03:49Z</time>
      </trkpt>
      <trkpt lat="45.45795" lon="5.88817">
        <ele>824.3</ele>
        <time>2014-08-24T12:03:51Z</time>
      </trkpt>
      <trkpt lat="45.45786" lon="5.88804">
        <ele>823.5</ele>
        <time>2014-08-24T12:03:54Z</time>
      </trkpt>
      <trkpt lat="45.45778" lon="5.88797">
        <ele>822</ele>
        <time>2014-08-24T12:03:56Z</time>
      </trkpt>
      <trkpt lat="45.45769" lon="5.88794">
        <ele>821.6</ele>
        <time>2014-08-24T12:03:58Z</time>
      </trkpt>
      <trkpt lat="45.4576" lon="5.88791">
        <ele>817.6</ele>
        <time>2014-08-24T12:04:00Z</time>
      </trkpt>
      <trkpt lat="45.45749" lon="5.88791">
        <ele>819.6</ele>
        <time>2014-08-24T12:04:03Z</time>
      </trkpt>
      <trkpt lat="45.45737" lon="5.88791">
        <ele>818.8</ele>
        <time>2014-08-24T12:04:06Z</time>
      </trkpt>
      <trkpt lat="45.45727" lon="5.88795">
        <ele>817.7</ele>
        <time>2014-08-24T12:04:10Z</time>
      </trkpt>
      <trkpt lat="45.45718" lon="5.8879">
        <ele>816.6</ele>
        <time>2014-08-24T12:04:14Z</time>
      </trkpt>
      <trkpt lat="45.45708" lon="5.88791">
        <ele>815.1</ele>
        <time>2014-08-24T12:04:17Z</time>
      </trkpt>
      <trkpt lat="45.45698" lon="5.88798">
        <ele>813.1</ele>
        <time>2014-08-24T12:04:21Z</time>
      </trkpt>
      <trkpt lat="45.45682" lon="5.88802">
        <ele>810.7</ele>
        <time>2014-08-24T12:04:24Z</time>
      </trkpt>
      <trkpt lat="45.4567" lon="5.88793">
        <ele>809</ele>
        <time>2014-08-24T12:04:28Z</time>
      </trkpt>
      <trkpt lat="45.45663" lon="5.88782">
        <ele>810.3</ele>
        <time>2014-08-24T12:04:34Z</time>
      </trkpt>
      <trkpt lat="45.45651" lon="5.88771">
        <ele>811</ele>
        <time>2014-08-24T12:04:39Z</time>
      </trkpt>
      <trkpt lat="45.45641" lon="5.88763">
        <ele>813</ele>
        <time>2014-08-24T12:04:43Z</time>
      </trkpt>
      <trkpt lat="45.45625" lon="5.88748">
        <ele>814</ele>
        <time>2014-08-24T12:04:51Z</time>
      </trkpt>
      <trkpt lat="45.45615" lon="5.88742">
        <ele>816.3</ele>
        <time>2014-08-24T12:04:56Z</time>
      </trkpt>
      <trkpt lat="45.45606" lon="5.88734">
        <ele>816.7</ele>
        <time>2014-08-24T12:05:00Z</time>
      </trkpt>
      <trkpt lat="45.45599" lon="5.88722">
        <ele>816.9</ele>
        <time>2014-08-24T12:05:03Z</time>
      </trkpt>
      <trkpt lat="45.45592" lon="5.8871">
        <ele>816.6</ele>
        <time>2014-08-24T12:05:06Z</time>
      </trkpt>
      <trkpt lat="45.45588" lon="5.88698">
        <ele>816.6</ele>
        <time>2014-08-24T12:05:08Z</time>
      </trkpt>
      <trkpt lat="45.45584" lon="5.88682">
        <ele>816.5</ele>
        <time>2014-08-24T12:05:11Z</time>
      </trkpt>
      <trkpt lat="45.45581" lon="5.88667">
        <ele>816.2</ele>
        <time>2014-08-24T12:05:15Z</time>
      </trkpt>
      <trkpt lat="45.45578" lon="5.88652">
        <ele>816.8</ele>
        <time>2014-08-24T12:05:18Z</time>
      </trkpt>
      <trkpt lat="45.45576" lon="5.88639">
        <ele>816.9</ele>
        <time>2014-08-24T12:05:21Z</time>
      </trkpt>
      <trkpt lat="45.45571" lon="5.88627">
        <ele>818.2</ele>
        <time>2014-08-24T12:05:27Z</time>
      </trkpt>
      <trkpt lat="45.45564" lon="5.88617">
        <ele>819.7</ele>
        <time>2014-08-24T12:05:36Z</time>
      </trkpt>
      <trkpt lat="45.4556" lon="5.88602">
        <ele>819.9</ele>
        <time>2014-08-24T12:05:39Z</time>
      </trkpt>
      <trkpt lat="45.45554" lon="5.8859">
        <ele>819.7</ele>
        <time>2014-08-24T12:05:41Z</time>
      </trkpt>
      <trkpt lat="45.45544" lon="5.88574">
        <ele>819.2</ele>
        <time>2014-08-24T12:05:43Z</time>
      </trkpt>
      <trkpt lat="45.45534" lon="5.8856">
        <ele>818.6</ele>
        <time>2014-08-24T12:05:45Z</time>
      </trkpt>
      <trkpt lat="45.45524" lon="5.88545">
        <ele>817.8</ele>
        <time>2014-08-24T12:05:47Z</time>
      </trkpt>
      <trkpt lat="45.45516" lon="5.88534">
        <ele>817.2</ele>
        <time>2014-08-24T12:05:49Z</time>
      </trkpt>
      <trkpt lat="45.45506" lon="5.88522">
        <ele>816.4</ele>
        <time>2014-08-24T12:05:51Z</time>
      </trkpt>
      <trkpt lat="45.45494" lon="5.88507">
        <ele>815.8</ele>
        <time>2014-08-24T12:05:53Z</time>
      </trkpt>
      <trkpt lat="45.45482" lon="5.88491">
        <ele>814.8</ele>
        <time>2014-08-24T12:05:55Z</time>
      </trkpt>
      <trkpt lat="45.4547" lon="5.88477">
        <ele>814</ele>
        <time>2014-08-24T12:05:57Z</time>
      </trkpt>
      <trkpt lat="45.45459" lon="5.88462">
        <ele>813.4</ele>
        <time>2014-08-24T12:05:59Z</time>
      </trkpt>
      <trkpt lat="45.45447" lon="5.88448">
        <ele>812.2</ele>
        <time>2014-08-24T12:06:01Z</time>
      </trkpt>
      <trkpt lat="45.45434" lon="5.88434">
        <ele>811.2</ele>
        <time>2014-08-24T12:06:03Z</time>
      </trkpt>
      <trkpt lat="45.45422" lon="5.88418">
        <ele>809.7</ele>
        <time>2014-08-24T12:06:05Z</time>
      </trkpt>
      <trkpt lat="45.45408" lon="5.88408">
        <ele>808.3</ele>
        <time>2014-08-24T12:06:07Z</time>
      </trkpt>
      <trkpt lat="45.45391" lon="5.88406">
        <ele>807</ele>
        <time>2014-08-24T12:06:09Z</time>
      </trkpt>
      <trkpt lat="45.45375" lon="5.88413">
        <ele>805.5</ele>
        <time>2014-08-24T12:06:11Z</time>
      </trkpt>
      <trkpt lat="45.45359" lon="5.8842">
        <ele>804.5</ele>
        <time>2014-08-24T12:06:13Z</time>
      </trkpt>
      <trkpt lat="45.45345" lon="5.88424">
        <ele>803.3</ele>
        <time>2014-08-24T12:06:15Z</time>
      </trkpt>
      <trkpt lat="45.45334" lon="5.88428">
        <ele>802.1</ele>
        <time>2014-08-24T12:06:17Z</time>
      </trkpt>
      <trkpt lat="45.45324" lon="5.88429">
        <ele>801.2</ele>
        <time>2014-08-24T12:06:19Z</time>
      </trkpt>
      <trkpt lat="45.45312" lon="5.88429">
        <ele>800.2</ele>
        <time>2014-08-24T12:06:21Z</time>
      </trkpt>
      <trkpt lat="45.45301" lon="5.88426">
        <ele>799.5</ele>
        <time>2014-08-24T12:06:23Z</time>
      </trkpt>
      <trkpt lat="45.45289" lon="5.88418">
        <ele>798.4</ele>
        <time>2014-08-24T12:06:25Z</time>
      </trkpt>
      <trkpt lat="45.45279" lon="5.88413">
        <ele>798</ele>
        <time>2014-08-24T12:06:27Z</time>
      </trkpt>
      <trkpt lat="45.45269" lon="5.88407">
        <ele>797.4</ele>
        <time>2014-08-24T12:06:29Z</time>
      </trkpt>
      <trkpt lat="45.4526" lon="5.88401">
        <ele>796.9</ele>
        <time>2014-08-24T12:06:31Z</time>
      </trkpt>
      <trkpt lat="45.45251" lon="5.88395">
        <ele>795.3</ele>
        <time>2014-08-24T12:06:37Z</time>
      </trkpt>
      <trkpt lat="45.45238" lon="5.88394">
        <ele>795</ele>
        <time>2014-08-24T12:06:43Z</time>
      </trkpt>
      <trkpt lat="45.45221" lon="5.88389">
        <ele>794</ele>
        <time>2014-08-24T12:06:46Z</time>
      </trkpt>
      <trkpt lat="45.45198" lon="5.88389">
        <ele>793</ele>
        <time>2014-08-24T12:06:50Z</time>
      </trkpt>
      <trkpt lat="45.45174" lon="5.88383">
        <ele>792</ele>
        <time>2014-08-24T12:06:54Z</time>
      </trkpt>
      <trkpt lat="45.4515" lon="5.88376">
        <ele>792</ele>
        <time>2014-08-24T12:06:58Z</time>
      </trkpt>
      <trkpt lat="45.45136" lon="5.8837">
        <ele>792.1</ele>
        <time>2014-08-24T12:07:01Z</time>
      </trkpt>
      <trkpt lat="45.45124" lon="5.88367">
        <ele>792.2</ele>
        <time>2014-08-24T12:07:03Z</time>
      </trkpt>
      <trkpt lat="45.45114" lon="5.88362">
        <ele>792.1</ele>
        <time>2014-08-24T12:07:05Z</time>
      </trkpt>
      <trkpt lat="45.45104" lon="5.88355">
        <ele>791.9</ele>
        <time>2014-08-24T12:07:07Z</time>
      </trkpt>
      <trkpt lat="45.45092" lon="5.88351">
        <ele>791.6</ele>
        <time>2014-08-24T12:07:09Z</time>
      </trkpt>
      <trkpt lat="45.4508" lon="5.88348">
        <ele>791.7</ele>
        <time>2014-08-24T12:07:11Z</time>
      </trkpt>
      <trkpt lat="45.45069" lon="5.88342">
        <ele>791.5</ele>
        <time>2014-08-24T12:07:13Z</time>
      </trkpt>
      <trkpt lat="45.45057" lon="5.88337">
        <ele>791.4</ele>
        <time>2014-08-24T12:07:15Z</time>
      </trkpt>
      <trkpt lat="45.45045" lon="5.88331">
        <ele>790.9</ele>
        <time>2014-08-24T12:07:17Z</time>
      </trkpt>
      <trkpt lat="45.45034" lon="5.88322">
        <ele>790.9</ele>
        <time>2014-08-24T12:07:19Z</time>
      </trkpt>
      <trkpt lat="45.45023" lon="5.88312">
        <ele>790.9</ele>
        <time>2014-08-24T12:07:21Z</time>
      </trkpt>
      <trkpt lat="45.45014" lon="5.88299">
        <ele>790.9</ele>
        <time>2014-08-24T12:07:23Z</time>
      </trkpt>
      <trkpt lat="45.45006" lon="5.88286">
        <ele>791</ele>
        <time>2014-08-24T12:07:25Z</time>
      </trkpt>
      <trkpt lat="45.44998" lon="5.88276">
        <ele>791.1</ele>
        <time>2014-08-24T12:07:27Z</time>
      </trkpt>
      <trkpt lat="45.44989" lon="5.88269">
        <ele>791.7</ele>
        <time>2014-08-24T12:07:29Z</time>
      </trkpt>
      <trkpt lat="45.44981" lon="5.88263">
        <ele>791.8</ele>
        <time>2014-08-24T12:07:31Z</time>
      </trkpt>
      <trkpt lat="45.44973" lon="5.88257">
        <ele>792</ele>
        <time>2014-08-24T12:07:33Z</time>
      </trkpt>
      <trkpt lat="45.44965" lon="5.88249">
        <ele>792.1</ele>
        <time>2014-08-24T12:07:35Z</time>
      </trkpt>
      <trkpt lat="45.44955" lon="5.88243">
        <ele>792.2</ele>
        <time>2014-08-24T12:07:37Z</time>
      </trkpt>
      <trkpt lat="45.44945" lon="5.88236">
        <ele>792.5</ele>
        <time>2014-08-24T12:07:39Z</time>
      </trkpt>
      <trkpt lat="45.44936" lon="5.88229">
        <ele>792.5</ele>
        <time>2014-08-24T12:07:41Z</time>
      </trkpt>
      <trkpt lat="45.44926" lon="5.88221">
        <ele>792.7</ele>
        <time>2014-08-24T12:07:43Z</time>
      </trkpt>
      <trkpt lat="45.44917" lon="5.88213">
        <ele>792.9</ele>
        <time>2014-08-24T12:07:45Z</time>
      </trkpt>
      <trkpt lat="45.44908" lon="5.88204">
        <ele>792.9</ele>
        <time>2014-08-24T12:07:47Z</time>
      </trkpt>
      <trkpt lat="45.449" lon="5.88191">
        <ele>792.7</ele>
        <time>2014-08-24T12:07:49Z</time>
      </trkpt>
      <trkpt lat="45.44892" lon="5.88179">
        <ele>792.5</ele>
        <time>2014-08-24T12:07:51Z</time>
      </trkpt>
      <trkpt lat="45.44883" lon="5.88167">
        <ele>792.4</ele>
        <time>2014-08-24T12:07:53Z</time>
      </trkpt>
      <trkpt lat="45.44874" lon="5.88157">
        <ele>792</ele>
        <time>2014-08-24T12:07:55Z</time>
      </trkpt>
      <trkpt lat="45.44864" lon="5.88147">
        <ele>791.9</ele>
        <time>2014-08-24T12:07:57Z</time>
      </trkpt>
      <trkpt lat="45.44853" lon="5.88138">
        <ele>791.9</ele>
        <time>2014-08-24T12:07:59Z</time>
      </trkpt>
      <trkpt lat="45.44843" lon="5.88128">
        <ele>791.9</ele>
        <time>2014-08-24T12:08:01Z</time>
      </trkpt>
      <trkpt lat="45.44832" lon="5.88118">
        <ele>791.8</ele>
        <time>2014-08-24T12:08:03Z</time>
      </trkpt>
      <trkpt lat="45.44822" lon="5.8811">
        <ele>791.4</ele>
        <time>2014-08-24T12:08:05Z</time>
      </trkpt>
      <trkpt lat="45.44812" lon="5.881">
        <ele>791.1</ele>
        <time>2014-08-24T12:08:07Z</time>
      </trkpt>
      <trkpt lat="45.44802" lon="5.88091">
        <ele>791.2</ele>
        <time>2014-08-24T12:08:09Z</time>
      </trkpt>
      <trkpt lat="45.44794" lon="5.88082">
        <ele>790.9</ele>
        <time>2014-08-24T12:08:11Z</time>
      </trkpt>
      <trkpt lat="45.44787" lon="5.88075">
        <ele>790.6</ele>
        <time>2014-08-24T12:08:13Z</time>
      </trkpt>
      <trkpt lat="45.44781" lon="5.88061">
        <ele>790.2</ele>
        <time>2014-08-24T12:08:16Z</time>
      </trkpt>
      <trkpt lat="45.44781" lon="5.88045">
        <ele>789.4</ele>
        <time>2014-08-24T12:08:18Z</time>
      </trkpt>
      <trkpt lat="45.44781" lon="5.88029">
        <ele>788.5</ele>
        <time>2014-08-24T12:08:20Z</time>
      </trkpt>
      <trkpt lat="45.4478" lon="5.88014">
        <ele>787.1</ele>
        <time>2014-08-24T12:08:22Z</time>
      </trkpt>
      <trkpt lat="45.4478" lon="5.87999">
        <ele>785.8</ele>
        <time>2014-08-24T12:08:24Z</time>
      </trkpt>
      <trkpt lat="45.4478" lon="5.87981">
        <ele>784.2</ele>
        <time>2014-08-24T12:08:26Z</time>
      </trkpt>
      <trkpt lat="45.44773" lon="5.87961">
        <ele>782.4</ele>
        <time>2014-08-24T12:08:28Z</time>
      </trkpt>
      <trkpt lat="45.44767" lon="5.8795">
        <ele>781.5</ele>
        <time>2014-08-24T12:08:29Z</time>
      </trkpt>
      <trkpt lat="45.44762" lon="5.87939">
        <ele>780.6</ele>
        <time>2014-08-24T12:08:30Z</time>
      </trkpt>
      <trkpt lat="45.44755" lon="5.87919">
        <ele>779</ele>
        <time>2014-08-24T12:08:32Z</time>
      </trkpt>
      <trkpt lat="45.44746" lon="5.87903">
        <ele>777.3</ele>
        <time>2014-08-24T12:08:34Z</time>
      </trkpt>
      <trkpt lat="45.44733" lon="5.87891">
        <ele>775.7</ele>
        <time>2014-08-24T12:08:36Z</time>
      </trkpt>
      <trkpt lat="45.44719" lon="5.8788">
        <ele>774</ele>
        <time>2014-08-24T12:08:38Z</time>
      </trkpt>
      <trkpt lat="45.44704" lon="5.87868">
        <ele>772.2</ele>
        <time>2014-08-24T12:08:40Z</time>
      </trkpt>
      <trkpt lat="45.44691" lon="5.87858">
        <ele>770.7</ele>
        <time>2014-08-24T12:08:42Z</time>
      </trkpt>
      <trkpt lat="45.44686" lon="5.87843">
        <ele>769.8</ele>
        <time>2014-08-24T12:08:44Z</time>
      </trkpt>
      <trkpt lat="45.44689" lon="5.87831">
        <ele>769.3</ele>
        <time>2014-08-24T12:08:46Z</time>
      </trkpt>
      <trkpt lat="45.44696" lon="5.87818">
        <ele>769.5</ele>
        <time>2014-08-24T12:08:49Z</time>
      </trkpt>
      <trkpt lat="45.44702" lon="5.87806">
        <ele>770.4</ele>
        <time>2014-08-24T12:08:53Z</time>
      </trkpt>
      <trkpt lat="45.44693" lon="5.87796">
        <ele>770.2</ele>
        <time>2014-08-24T12:08:59Z</time>
      </trkpt>
      <trkpt lat="45.44684" lon="5.87791">
        <ele>769.5</ele>
        <time>2014-08-24T12:09:02Z</time>
      </trkpt>
      <trkpt lat="45.44672" lon="5.87788">
        <ele>768</ele>
        <time>2014-08-24T12:09:06Z</time>
      </trkpt>
      <trkpt lat="45.44663" lon="5.87783">
        <ele>769.1</ele>
        <time>2014-08-24T12:09:09Z</time>
      </trkpt>
      <trkpt lat="45.44651" lon="5.87782">
        <ele>769.9</ele>
        <time>2014-08-24T12:09:14Z</time>
      </trkpt>
      <trkpt lat="45.44642" lon="5.87783">
        <ele>770.9</ele>
        <time>2014-08-24T12:09:28Z</time>
      </trkpt>
      <trkpt lat="45.4463" lon="5.87784">
        <ele>770.2</ele>
        <time>2014-08-24T12:09:32Z</time>
      </trkpt>
      <trkpt lat="45.4462" lon="5.87785">
        <ele>770.1</ele>
        <time>2014-08-24T12:09:34Z</time>
      </trkpt>
      <trkpt lat="45.4461" lon="5.87786">
        <ele>770.5</ele>
        <time>2014-08-24T12:09:36Z</time>
      </trkpt>
      <trkpt lat="45.44598" lon="5.87785">
        <ele>770</ele>
        <time>2014-08-24T12:09:38Z</time>
      </trkpt>
      <trkpt lat="45.44588" lon="5.87786">
        <ele>770.7</ele>
        <time>2014-08-24T12:09:40Z</time>
      </trkpt>
      <trkpt lat="45.44578" lon="5.87789">
        <ele>769.3</ele>
        <time>2014-08-24T12:09:43Z</time>
      </trkpt>
      <trkpt lat="45.44568" lon="5.87793">
        <ele>771.4</ele>
        <time>2014-08-24T12:09:47Z</time>
      </trkpt>
      <trkpt lat="45.44557" lon="5.87795">
        <ele>772.5</ele>
        <time>2014-08-24T12:09:52Z</time>
      </trkpt>
      <trkpt lat="45.44548" lon="5.87788">
        <ele>773.3</ele>
        <time>2014-08-24T12:09:56Z</time>
      </trkpt>
      <trkpt lat="45.44539" lon="5.87784">
        <ele>773.4</ele>
        <time>2014-08-24T12:10:00Z</time>
      </trkpt>
      <trkpt lat="45.44528" lon="5.87781">
        <ele>773.8</ele>
        <time>2014-08-24T12:10:14Z</time>
      </trkpt>
      <trkpt lat="45.44518" lon="5.87776">
        <ele>774.7</ele>
        <time>2014-08-24T12:10:18Z</time>
      </trkpt>
      <trkpt lat="45.44508" lon="5.87772">
        <ele>774.9</ele>
        <time>2014-08-24T12:10:24Z</time>
      </trkpt>
      <trkpt lat="45.44498" lon="5.87772">
        <ele>774.7</ele>
        <time>2014-08-24T12:10:28Z</time>
      </trkpt>
      <trkpt lat="45.44487" lon="5.87768">
        <ele>774.9</ele>
        <time>2014-08-24T12:10:32Z</time>
      </trkpt>
      <trkpt lat="45.44475" lon="5.8777">
        <ele>773.9</ele>
        <time>2014-08-24T12:10:35Z</time>
      </trkpt>
      <trkpt lat="45.44465" lon="5.87771">
        <ele>774.1</ele>
        <time>2014-08-24T12:10:37Z</time>
      </trkpt>
      <trkpt lat="45.44456" lon="5.87774">
        <ele>773.7</ele>
        <time>2014-08-24T12:10:39Z</time>
      </trkpt>
      <trkpt lat="45.44447" lon="5.8777">
        <ele>772.2</ele>
        <time>2014-08-24T12:10:44Z</time>
      </trkpt>
      <trkpt lat="45.44437" lon="5.87765">
        <ele>769.9</ele>
        <time>2014-08-24T12:10:49Z</time>
      </trkpt>
      <trkpt lat="45.44426" lon="5.87773">
        <ele>768.3</ele>
        <time>2014-08-24T12:10:52Z</time>
      </trkpt>
      <trkpt lat="45.4442" lon="5.87782">
        <ele>767.8</ele>
        <time>2014-08-24T12:10:56Z</time>
      </trkpt>
      <trkpt lat="45.44412" lon="5.87791">
        <ele>766.2</ele>
        <time>2014-08-24T12:11:03Z</time>
      </trkpt>
      <trkpt lat="45.44401" lon="5.87789">
        <ele>764.4</ele>
        <time>2014-08-24T12:11:07Z</time>
      </trkpt>
      <trkpt lat="45.44393" lon="5.87797">
        <ele>763.6</ele>
        <time>2014-08-24T12:11:12Z</time>
      </trkpt>
      <trkpt lat="45.44387" lon="5.87807">
        <ele>760.5</ele>
        <time>2014-08-24T12:11:18Z</time>
      </trkpt>
      <trkpt lat="45.44378" lon="5.87804">
        <ele>758.7</ele>
        <time>2014-08-24T12:11:23Z</time>
      </trkpt>
      <trkpt lat="45.44369" lon="5.87809">
        <ele>758.7</ele>
        <time>2014-08-24T12:11:31Z</time>
      </trkpt>
      <trkpt lat="45.44358" lon="5.87809">
        <ele>757.1</ele>
        <time>2014-08-24T12:11:37Z</time>
      </trkpt>
      <trkpt lat="45.44345" lon="5.87805">
        <ele>756.7</ele>
        <time>2014-08-24T12:11:41Z</time>
      </trkpt>
      <trkpt lat="45.44336" lon="5.87808">
        <ele>756</ele>
        <time>2014-08-24T12:11:45Z</time>
      </trkpt>
      <trkpt lat="45.44325" lon="5.87809">
        <ele>754.9</ele>
        <time>2014-08-24T12:11:48Z</time>
      </trkpt>
      <trkpt lat="45.44314" lon="5.87807">
        <ele>753.1</ele>
        <time>2014-08-24T12:11:51Z</time>
      </trkpt>
      <trkpt lat="45.44309" lon="5.87822">
        <ele>750.7</ele>
        <time>2014-08-24T12:11:56Z</time>
      </trkpt>
      <trkpt lat="45.44305" lon="5.87834">
        <ele>749.9</ele>
        <time>2014-08-24T12:12:00Z</time>
      </trkpt>
      <trkpt lat="45.44311" lon="5.87847">
        <ele>750.5</ele>
        <time>2014-08-24T12:12:05Z</time>
      </trkpt>
      <trkpt lat="45.44317" lon="5.87865">
        <ele>750</ele>
        <time>2014-08-24T12:12:10Z</time>
      </trkpt>
      <trkpt lat="45.44327" lon="5.87867">
        <ele>750</ele>
        <time>2014-08-24T12:12:22Z</time>
      </trkpt>
      <trkpt lat="45.44336" lon="5.87876">
        <ele>748</ele>
        <time>2014-08-24T12:12:38Z</time>
      </trkpt>
      <trkpt lat="45.44339" lon="5.87893">
        <ele>758.2</ele>
        <time>2014-08-24T12:13:35Z</time>
      </trkpt>
      <trkpt lat="45.44337" lon="5.87906">
        <ele>755.8</ele>
        <time>2014-08-24T12:13:46Z</time>
      </trkpt>
      <trkpt lat="45.44329" lon="5.87901">
        <ele>753</ele>
        <time>2014-08-24T12:14:02Z</time>
      </trkpt>
      <trkpt lat="45.4432" lon="5.87895">
        <ele>750.2</ele>
        <time>2014-08-24T12:14:14Z</time>
      </trkpt>
      <trkpt lat="45.44312" lon="5.87888">
        <ele>748.6</ele>
        <time>2014-08-24T12:14:29Z</time>
      </trkpt>
      <trkpt lat="45.44302" lon="5.87886">
        <ele>748.2</ele>
        <time>2014-08-24T12:15:14Z</time>
      </trkpt>
      <trkpt lat="45.4429" lon="5.8788">
        <ele>746.5</ele>
        <time>2014-08-24T12:15:18Z</time>
      </trkpt>
      <trkpt lat="45.44281" lon="5.87871">
        <ele>746.7</ele>
        <time>2014-08-24T12:15:21Z</time>
      </trkpt>
      <trkpt lat="45.44268" lon="5.87869">
        <ele>746</ele>
        <time>2014-08-24T12:15:27Z</time>
      </trkpt>
      <trkpt lat="45.4426" lon="5.87853">
        <ele>746</ele>
        <time>2014-08-24T12:15:35Z</time>
      </trkpt>
      <trkpt lat="45.44255" lon="5.87839">
        <ele>746</ele>
        <time>2014-08-24T12:15:43Z</time>
      </trkpt>
      <trkpt lat="45.44251" lon="5.87827">
        <ele>746</ele>
        <time>2014-08-24T12:15:51Z</time>
      </trkpt>
      <trkpt lat="45.44251" lon="5.8781">
        <ele>748</ele>
        <time>2014-08-24T12:16:03Z</time>
      </trkpt>
      <trkpt lat="45.44257" lon="5.87799">
        <ele>748</ele>
        <time>2014-08-24T12:16:11Z</time>
      </trkpt>
      <trkpt lat="45.44256" lon="5.87782">
        <ele>748</ele>
        <time>2014-08-24T12:16:15Z</time>
      </trkpt>
      <trkpt lat="45.44248" lon="5.87763">
        <ele>747</ele>
        <time>2014-08-24T12:16:19Z</time>
      </trkpt>
      <trkpt lat="45.44241" lon="5.87753">
        <ele>747.2</ele>
        <time>2014-08-24T12:16:24Z</time>
      </trkpt>
      <trkpt lat="45.44233" lon="5.87744">
        <ele>747.3</ele>
        <time>2014-08-24T12:16:31Z</time>
      </trkpt>
      <trkpt lat="45.44225" lon="5.87749">
        <ele>747.6</ele>
        <time>2014-08-24T12:16:36Z</time>
      </trkpt>
      <trkpt lat="45.44216" lon="5.87752">
        <ele>747.3</ele>
        <time>2014-08-24T12:16:41Z</time>
      </trkpt>
      <trkpt lat="45.44206" lon="5.87752">
        <ele>747.4</ele>
        <time>2014-08-24T12:16:47Z</time>
      </trkpt>
      <trkpt lat="45.44198" lon="5.87759">
        <ele>747.2</ele>
        <time>2014-08-24T12:16:56Z</time>
      </trkpt>
      <trkpt lat="45.44189" lon="5.87769">
        <ele>747.9</ele>
        <time>2014-08-24T12:17:03Z</time>
      </trkpt>
      <trkpt lat="45.44181" lon="5.87778">
        <ele>748</ele>
        <time>2014-08-24T12:17:07Z</time>
      </trkpt>
      <trkpt lat="45.44175" lon="5.8779">
        <ele>748.1</ele>
        <time>2014-08-24T12:17:11Z</time>
      </trkpt>
      <trkpt lat="45.44163" lon="5.87801">
        <ele>747</ele>
        <time>2014-08-24T12:17:14Z</time>
      </trkpt>
      <trkpt lat="45.4415" lon="5.87813">
        <ele>747</ele>
        <time>2014-08-24T12:17:19Z</time>
      </trkpt>
      <trkpt lat="45.44142" lon="5.8782">
        <ele>747</ele>
        <time>2014-08-24T12:17:23Z</time>
      </trkpt>
      <trkpt lat="45.44133" lon="5.87823">
        <ele>747.9</ele>
        <time>2014-08-24T12:17:31Z</time>
      </trkpt>
      <trkpt lat="45.44122" lon="5.87821">
        <ele>748.9</ele>
        <time>2014-08-24T12:17:36Z</time>
      </trkpt>
      <trkpt lat="45.44113" lon="5.8781">
        <ele>749</ele>
        <time>2014-08-24T12:17:41Z</time>
      </trkpt>
      <trkpt lat="45.44107" lon="5.87799">
        <ele>749</ele>
        <time>2014-08-24T12:17:44Z</time>
      </trkpt>
      <trkpt lat="45.44104" lon="5.87785">
        <ele>747.9</ele>
        <time>2014-08-24T12:17:49Z</time>
      </trkpt>
      <trkpt lat="45.44093" lon="5.87779">
        <ele>747.3</ele>
        <time>2014-08-24T12:17:55Z</time>
      </trkpt>
      <trkpt lat="45.44082" lon="5.87773">
        <ele>747</ele>
        <time>2014-08-24T12:17:59Z</time>
      </trkpt>
      <trkpt lat="45.44071" lon="5.87772">
        <ele>747.2</ele>
        <time>2014-08-24T12:18:03Z</time>
      </trkpt>
      <trkpt lat="45.4406" lon="5.87774">
        <ele>747.6</ele>
        <time>2014-08-24T12:18:07Z</time>
      </trkpt>
      <trkpt lat="45.44053" lon="5.87781">
        <ele>747.5</ele>
        <time>2014-08-24T12:18:12Z</time>
      </trkpt>
      <trkpt lat="45.44048" lon="5.87792">
        <ele>747.3</ele>
        <time>2014-08-24T12:18:17Z</time>
      </trkpt>
      <trkpt lat="45.44043" lon="5.87803">
        <ele>748.8</ele>
        <time>2014-08-24T12:18:44Z</time>
      </trkpt>
      <trkpt lat="45.44036" lon="5.87812">
        <ele>750.6</ele>
        <time>2014-08-24T12:18:51Z</time>
      </trkpt>
      <trkpt lat="45.44025" lon="5.87815">
        <ele>750.6</ele>
        <time>2014-08-24T12:18:54Z</time>
      </trkpt>
      <trkpt lat="45.44015" lon="5.87816">
        <ele>749.8</ele>
        <time>2014-08-24T12:18:58Z</time>
      </trkpt>
      <trkpt lat="45.44005" lon="5.87812">
        <ele>749.8</ele>
        <time>2014-08-24T12:19:01Z</time>
      </trkpt>
      <trkpt lat="45.43992" lon="5.87812">
        <ele>749.4</ele>
        <time>2014-08-24T12:19:04Z</time>
      </trkpt>
      <trkpt lat="45.43983" lon="5.8781">
        <ele>749.2</ele>
        <time>2014-08-24T12:19:07Z</time>
      </trkpt>
      <trkpt lat="45.43971" lon="5.87807">
        <ele>748.3</ele>
        <time>2014-08-24T12:19:27Z</time>
      </trkpt>
      <trkpt lat="45.4396" lon="5.87805">
        <ele>748.2</ele>
        <time>2014-08-24T12:19:32Z</time>
      </trkpt>
      <trkpt lat="45.4395" lon="5.878">
        <ele>747.6</ele>
        <time>2014-08-24T12:19:36Z</time>
      </trkpt>
      <trkpt lat="45.43941" lon="5.87797">
        <ele>748.6</ele>
        <time>2014-08-24T12:19:41Z</time>
      </trkpt>
      <trkpt lat="45.43932" lon="5.87796">
        <ele>749</ele>
        <time>2014-08-24T12:19:46Z</time>
      </trkpt>
      <trkpt lat="45.43922" lon="5.87793">
        <ele>748.7</ele>
        <time>2014-08-24T12:19:56Z</time>
      </trkpt>
      <trkpt lat="45.43912" lon="5.8779">
        <ele>749.2</ele>
        <time>2014-08-24T12:20:01Z</time>
      </trkpt>
      <trkpt lat="45.43902" lon="5.87787">
        <ele>748.7</ele>
        <time>2014-08-24T12:20:06Z</time>
      </trkpt>
      <trkpt lat="45.43892" lon="5.8778">
        <ele>749.5</ele>
        <time>2014-08-24T12:20:10Z</time>
      </trkpt>
      <trkpt lat="45.43878" lon="5.87772">
        <ele>749.3</ele>
        <time>2014-08-24T12:20:13Z</time>
      </trkpt>
      <trkpt lat="45.43867" lon="5.87763">
        <ele>749.7</ele>
        <time>2014-08-24T12:20:15Z</time>
      </trkpt>
      <trkpt lat="45.43859" lon="5.87756">
        <ele>749.7</ele>
        <time>2014-08-24T12:20:17Z</time>
      </trkpt>
      <trkpt lat="45.43848" lon="5.8775">
        <ele>748.9</ele>
        <time>2014-08-24T12:20:20Z</time>
      </trkpt>
      <trkpt lat="45.43838" lon="5.87746">
        <ele>748</ele>
        <time>2014-08-24T12:20:22Z</time>
      </trkpt>
      <trkpt lat="45.43826" lon="5.87742">
        <ele>749</ele>
        <time>2014-08-24T12:20:26Z</time>
      </trkpt>
      <trkpt lat="45.43815" lon="5.87736">
        <ele>749</ele>
        <time>2014-08-24T12:20:30Z</time>
      </trkpt>
      <trkpt lat="45.43804" lon="5.87728">
        <ele>750</ele>
        <time>2014-08-24T12:20:34Z</time>
      </trkpt>
      <trkpt lat="45.43792" lon="5.87721">
        <ele>750</ele>
        <time>2014-08-24T12:20:38Z</time>
      </trkpt>
      <trkpt lat="45.4378" lon="5.87723">
        <ele>751</ele>
        <time>2014-08-24T12:20:46Z</time>
      </trkpt>
      <trkpt lat="45.43798" lon="5.87729">
        <ele>752</ele>
        <time>2014-08-24T12:20:58Z</time>
      </trkpt>
      <trkpt lat="45.43809" lon="5.87733">
        <ele>753</ele>
        <time>2014-08-24T12:21:02Z</time>
      </trkpt>
      <trkpt lat="45.43826" lon="5.87744">
        <ele>755</ele>
        <time>2014-08-24T12:21:08Z</time>
      </trkpt>
      <trkpt lat="45.43842" lon="5.87757">
        <ele>756</ele>
        <time>2014-08-24T12:21:14Z</time>
      </trkpt>
      <trkpt lat="45.4385" lon="5.87766">
        <ele>758.5</ele>
        <time>2014-08-24T12:21:19Z</time>
      </trkpt>
      <trkpt lat="45.43873" lon="5.8778">
        <ele>758</ele>
        <time>2014-08-24T12:21:25Z</time>
      </trkpt>
      <trkpt lat="45.43887" lon="5.8779">
        <ele>755.2</ele>
        <time>2014-08-24T12:21:30Z</time>
      </trkpt>
      <trkpt lat="45.43896" lon="5.87796">
        <ele>761.1</ele>
        <time>2014-08-24T12:21:33Z</time>
      </trkpt>
      <trkpt lat="45.43906" lon="5.878">
        <ele>752.6</ele>
        <time>2014-08-24T12:21:36Z</time>
      </trkpt>
      <trkpt lat="45.43916" lon="5.87804">
        <ele>759.4</ele>
        <time>2014-08-24T12:21:39Z</time>
      </trkpt>
      <trkpt lat="45.43925" lon="5.87808">
        <ele>762.1</ele>
        <time>2014-08-24T12:21:42Z</time>
      </trkpt>
      <trkpt lat="45.43934" lon="5.87813">
        <ele>763.7</ele>
        <time>2014-08-24T12:21:45Z</time>
      </trkpt>
      <trkpt lat="45.43944" lon="5.87817">
        <ele>765</ele>
        <time>2014-08-24T12:21:48Z</time>
      </trkpt>
      <trkpt lat="45.43954" lon="5.87822">
        <ele>765.8</ele>
        <time>2014-08-24T12:21:51Z</time>
      </trkpt>
      <trkpt lat="45.43963" lon="5.87828">
        <ele>766.4</ele>
        <time>2014-08-24T12:21:54Z</time>
      </trkpt>
      <trkpt lat="45.43973" lon="5.87835">
        <ele>767.2</ele>
        <time>2014-08-24T12:21:57Z</time>
      </trkpt>
      <trkpt lat="45.43983" lon="5.87842">
        <ele>768.3</ele>
        <time>2014-08-24T12:22:00Z</time>
      </trkpt>
      <trkpt lat="45.43993" lon="5.8785">
        <ele>768.7</ele>
        <time>2014-08-24T12:22:03Z</time>
      </trkpt>
      <trkpt lat="45.44003" lon="5.87858">
        <ele>769.5</ele>
        <time>2014-08-24T12:22:06Z</time>
      </trkpt>
      <trkpt lat="45.44014" lon="5.87868">
        <ele>770.3</ele>
        <time>2014-08-24T12:22:09Z</time>
      </trkpt>
      <trkpt lat="45.44023" lon="5.87875">
        <ele>771.1</ele>
        <time>2014-08-24T12:22:12Z</time>
      </trkpt>
      <trkpt lat="45.44031" lon="5.87888">
        <ele>771.7</ele>
        <time>2014-08-24T12:22:15Z</time>
      </trkpt>
      <trkpt lat="45.44037" lon="5.879">
        <ele>772</ele>
        <time>2014-08-24T12:22:17Z</time>
      </trkpt>
      <trkpt lat="45.44047" lon="5.87913">
        <ele>772.8</ele>
        <time>2014-08-24T12:22:20Z</time>
      </trkpt>
      <trkpt lat="45.44056" lon="5.87921">
        <ele>773.5</ele>
        <time>2014-08-24T12:22:23Z</time>
      </trkpt>
      <trkpt lat="45.44066" lon="5.87929">
        <ele>774.4</ele>
        <time>2014-08-24T12:22:27Z</time>
      </trkpt>
      <trkpt lat="45.44075" lon="5.87936">
        <ele>775.5</ele>
        <time>2014-08-24T12:22:30Z</time>
      </trkpt>
      <trkpt lat="45.44084" lon="5.87942">
        <ele>776.5</ele>
        <time>2014-08-24T12:22:33Z</time>
      </trkpt>
      <trkpt lat="45.44093" lon="5.87947">
        <ele>777.3</ele>
        <time>2014-08-24T12:22:36Z</time>
      </trkpt>
      <trkpt lat="45.44102" lon="5.87952">
        <ele>778.5</ele>
        <time>2014-08-24T12:22:39Z</time>
      </trkpt>
      <trkpt lat="45.44111" lon="5.87956">
        <ele>779.4</ele>
        <time>2014-08-24T12:22:42Z</time>
      </trkpt>
      <trkpt lat="45.44122" lon="5.87959">
        <ele>780.5</ele>
        <time>2014-08-24T12:22:46Z</time>
      </trkpt>
      <trkpt lat="45.44132" lon="5.87963">
        <ele>781.6</ele>
        <time>2014-08-24T12:22:50Z</time>
      </trkpt>
      <trkpt lat="45.44143" lon="5.87965">
        <ele>782.8</ele>
        <time>2014-08-24T12:22:54Z</time>
      </trkpt>
      <trkpt lat="45.44152" lon="5.87968">
        <ele>784</ele>
        <time>2014-08-24T12:22:58Z</time>
      </trkpt>
      <trkpt lat="45.44163" lon="5.87972">
        <ele>784.9</ele>
        <time>2014-08-24T12:23:02Z</time>
      </trkpt>
      <trkpt lat="45.44173" lon="5.87974">
        <ele>786</ele>
        <time>2014-08-24T12:23:06Z</time>
      </trkpt>
      <trkpt lat="45.44184" lon="5.87979">
        <ele>787.2</ele>
        <time>2014-08-24T12:23:10Z</time>
      </trkpt>
      <trkpt lat="45.44195" lon="5.87985">
        <ele>788.2</ele>
        <time>2014-08-24T12:23:14Z</time>
      </trkpt>
      <trkpt lat="45.44204" lon="5.87989">
        <ele>789.1</ele>
        <time>2014-08-24T12:23:17Z</time>
      </trkpt>
      <trkpt lat="45.44213" lon="5.87992">
        <ele>790</ele>
        <time>2014-08-24T12:23:20Z</time>
      </trkpt>
      <trkpt lat="45.44221" lon="5.87998">
        <ele>790.7</ele>
        <time>2014-08-24T12:23:23Z</time>
      </trkpt>
      <trkpt lat="45.44231" lon="5.88003">
        <ele>791.8</ele>
        <time>2014-08-24T12:23:27Z</time>
      </trkpt>
      <trkpt lat="45.44242" lon="5.88007">
        <ele>792.5</ele>
        <time>2014-08-24T12:23:31Z</time>
      </trkpt>
      <trkpt lat="45.44251" lon="5.88011">
        <ele>793.7</ele>
        <time>2014-08-24T12:23:35Z</time>
      </trkpt>
      <trkpt lat="45.4426" lon="5.88016">
        <ele>794.9</ele>
        <time>2014-08-24T12:23:39Z</time>
      </trkpt>
      <trkpt lat="45.44251" lon="5.88023">
        <ele>796.3</ele>
        <time>2014-08-24T12:23:44Z</time>
      </trkpt>
      <trkpt lat="45.44242" lon="5.8802">
        <ele>797.4</ele>
        <time>2014-08-24T12:23:48Z</time>
      </trkpt>
      <trkpt lat="45.44232" lon="5.88017">
        <ele>798.4</ele>
        <time>2014-08-24T12:23:52Z</time>
      </trkpt>
      <trkpt lat="45.44222" lon="5.88013">
        <ele>798.7</ele>
        <time>2014-08-24T12:23:56Z</time>
      </trkpt>
      <trkpt lat="45.4421" lon="5.8801">
        <ele>799.3</ele>
        <time>2014-08-24T12:24:00Z</time>
      </trkpt>
      <trkpt lat="45.44201" lon="5.8801">
        <ele>799.8</ele>
        <time>2014-08-24T12:24:03Z</time>
      </trkpt>
      <trkpt lat="45.44191" lon="5.88012">
        <ele>799.8</ele>
        <time>2014-08-24T12:24:06Z</time>
      </trkpt>
      <trkpt lat="45.44181" lon="5.88015">
        <ele>801.1</ele>
        <time>2014-08-24T12:24:10Z</time>
      </trkpt>
      <trkpt lat="45.44171" lon="5.88017">
        <ele>801.7</ele>
        <time>2014-08-24T12:24:14Z</time>
      </trkpt>
      <trkpt lat="45.44161" lon="5.8802">
        <ele>802.6</ele>
        <time>2014-08-24T12:24:18Z</time>
      </trkpt>
      <trkpt lat="45.44152" lon="5.88023">
        <ele>803.7</ele>
        <time>2014-08-24T12:24:22Z</time>
      </trkpt>
      <trkpt lat="45.4414" lon="5.88026">
        <ele>805.1</ele>
        <time>2014-08-24T12:24:27Z</time>
      </trkpt>
      <trkpt lat="45.4413" lon="5.88032">
        <ele>807</ele>
        <time>2014-08-24T12:24:33Z</time>
      </trkpt>
      <trkpt lat="45.44121" lon="5.88033">
        <ele>808</ele>
        <time>2014-08-24T12:24:37Z</time>
      </trkpt>
      <trkpt lat="45.44111" lon="5.88032">
        <ele>809.3</ele>
        <time>2014-08-24T12:24:41Z</time>
      </trkpt>
      <trkpt lat="45.441" lon="5.8803">
        <ele>810</ele>
        <time>2014-08-24T12:24:45Z</time>
      </trkpt>
      <trkpt lat="45.4409" lon="5.8803">
        <ele>811.3</ele>
        <time>2014-08-24T12:24:50Z</time>
      </trkpt>
      <trkpt lat="45.44079" lon="5.88029">
        <ele>813</ele>
        <time>2014-08-24T12:24:55Z</time>
      </trkpt>
      <trkpt lat="45.44069" lon="5.88029">
        <ele>814.9</ele>
        <time>2014-08-24T12:25:00Z</time>
      </trkpt>
      <trkpt lat="45.44058" lon="5.88027">
        <ele>816.6</ele>
        <time>2014-08-24T12:25:05Z</time>
      </trkpt>
      <trkpt lat="45.44048" lon="5.88028">
        <ele>817.6</ele>
        <time>2014-08-24T12:25:09Z</time>
      </trkpt>
      <trkpt lat="45.44039" lon="5.88026">
        <ele>818.4</ele>
        <time>2014-08-24T12:25:13Z</time>
      </trkpt>
      <trkpt lat="45.44028" lon="5.88025">
        <ele>819</ele>
        <time>2014-08-24T12:25:18Z</time>
      </trkpt>
      <trkpt lat="45.44018" lon="5.88021">
        <ele>819.4</ele>
        <time>2014-08-24T12:25:22Z</time>
      </trkpt>
      <trkpt lat="45.44008" lon="5.88015">
        <ele>819.6</ele>
        <time>2014-08-24T12:25:25Z</time>
      </trkpt>
      <trkpt lat="45.43995" lon="5.88009">
        <ele>819.5</ele>
        <time>2014-08-24T12:25:28Z</time>
      </trkpt>
      <trkpt lat="45.43986" lon="5.88004">
        <ele>819.4</ele>
        <time>2014-08-24T12:25:30Z</time>
      </trkpt>
      <trkpt lat="45.43975" lon="5.87999">
        <ele>819.2</ele>
        <time>2014-08-24T12:25:33Z</time>
      </trkpt>
      <trkpt lat="45.43966" lon="5.87992">
        <ele>819.7</ele>
        <time>2014-08-24T12:25:36Z</time>
      </trkpt>
      <trkpt lat="45.43958" lon="5.87983">
        <ele>819.8</ele>
        <time>2014-08-24T12:25:39Z</time>
      </trkpt>
      <trkpt lat="45.43949" lon="5.87973">
        <ele>820.3</ele>
        <time>2014-08-24T12:25:42Z</time>
      </trkpt>
      <trkpt lat="45.43938" lon="5.87964">
        <ele>820.5</ele>
        <time>2014-08-24T12:25:45Z</time>
      </trkpt>
      <trkpt lat="45.43929" lon="5.87958">
        <ele>820.8</ele>
        <time>2014-08-24T12:25:48Z</time>
      </trkpt>
      <trkpt lat="45.43921" lon="5.87952">
        <ele>821.3</ele>
        <time>2014-08-24T12:25:51Z</time>
      </trkpt>
      <trkpt lat="45.43911" lon="5.87946">
        <ele>822.4</ele>
        <time>2014-08-24T12:25:55Z</time>
      </trkpt>
      <trkpt lat="45.43902" lon="5.87945">
        <ele>823.1</ele>
        <time>2014-08-24T12:25:58Z</time>
      </trkpt>
      <trkpt lat="45.43892" lon="5.87947">
        <ele>823.4</ele>
        <time>2014-08-24T12:26:01Z</time>
      </trkpt>
      <trkpt lat="45.43881" lon="5.87951">
        <ele>823.8</ele>
        <time>2014-08-24T12:26:04Z</time>
      </trkpt>
      <trkpt lat="45.4387" lon="5.87955">
        <ele>823.9</ele>
        <time>2014-08-24T12:26:07Z</time>
      </trkpt>
      <trkpt lat="45.43857" lon="5.87958">
        <ele>824</ele>
        <time>2014-08-24T12:26:10Z</time>
      </trkpt>
      <trkpt lat="45.43848" lon="5.87956">
        <ele>824</ele>
        <time>2014-08-24T12:26:12Z</time>
      </trkpt>
      <trkpt lat="45.43835" lon="5.87952">
        <ele>824.2</ele>
        <time>2014-08-24T12:26:15Z</time>
      </trkpt>
      <trkpt lat="45.43825" lon="5.87944">
        <ele>824.4</ele>
        <time>2014-08-24T12:26:18Z</time>
      </trkpt>
      <trkpt lat="45.43816" lon="5.87939">
        <ele>824.2</ele>
        <time>2014-08-24T12:26:21Z</time>
      </trkpt>
      <trkpt lat="45.43804" lon="5.87935">
        <ele>822.7</ele>
        <time>2014-08-24T12:26:25Z</time>
      </trkpt>
      <trkpt lat="45.43795" lon="5.87933">
        <ele>825.5</ele>
        <time>2014-08-24T12:26:27Z</time>
      </trkpt>
      <trkpt lat="45.43783" lon="5.87932">
        <ele>830</ele>
        <time>2014-08-24T12:26:30Z</time>
      </trkpt>
      <trkpt lat="45.43773" lon="5.87933">
        <ele>828.5</ele>
        <time>2014-08-24T12:26:33Z</time>
      </trkpt>
      <trkpt lat="45.43763" lon="5.87933">
        <ele>827.4</ele>
        <time>2014-08-24T12:26:36Z</time>
      </trkpt>
      <trkpt lat="45.43752" lon="5.87935">
        <ele>827.3</ele>
        <time>2014-08-24T12:26:40Z</time>
      </trkpt>
      <trkpt lat="45.43741" lon="5.87938">
        <ele>828.6</ele>
        <time>2014-08-24T12:26:44Z</time>
      </trkpt>
      <trkpt lat="45.43732" lon="5.87945">
        <ele>829.3</ele>
        <time>2014-08-24T12:26:48Z</time>
      </trkpt>
      <trkpt lat="45.43723" lon="5.8795">
        <ele>830.2</ele>
        <time>2014-08-24T12:26:52Z</time>
      </trkpt>
      <trkpt lat="45.4371" lon="5.87952">
        <ele>830.6</ele>
        <time>2014-08-24T12:26:55Z</time>
      </trkpt>
      <trkpt lat="45.43698" lon="5.87952">
        <ele>831.2</ele>
        <time>2014-08-24T12:26:58Z</time>
      </trkpt>
      <trkpt lat="45.43688" lon="5.87952">
        <ele>832</ele>
        <time>2014-08-24T12:27:01Z</time>
      </trkpt>
      <trkpt lat="45.43679" lon="5.87951">
        <ele>832.8</ele>
        <time>2014-08-24T12:27:04Z</time>
      </trkpt>
      <trkpt lat="45.43666" lon="5.8795">
        <ele>833.5</ele>
        <time>2014-08-24T12:27:08Z</time>
      </trkpt>
      <trkpt lat="45.43655" lon="5.87951">
        <ele>834.3</ele>
        <time>2014-08-24T12:27:11Z</time>
      </trkpt>
      <trkpt lat="45.43643" lon="5.87954">
        <ele>835.2</ele>
        <time>2014-08-24T12:27:15Z</time>
      </trkpt>
      <trkpt lat="45.43632" lon="5.87956">
        <ele>835.6</ele>
        <time>2014-08-24T12:27:19Z</time>
      </trkpt>
      <trkpt lat="45.4362" lon="5.87954">
        <ele>835.4</ele>
        <time>2014-08-24T12:27:23Z</time>
      </trkpt>
      <trkpt lat="45.4361" lon="5.87954">
        <ele>835.5</ele>
        <time>2014-08-24T12:27:26Z</time>
      </trkpt>
      <trkpt lat="45.43595" lon="5.87953">
        <ele>834.8</ele>
        <time>2014-08-24T12:27:29Z</time>
      </trkpt>
      <trkpt lat="45.43583" lon="5.87953">
        <ele>835</ele>
        <time>2014-08-24T12:27:31Z</time>
      </trkpt>
      <trkpt lat="45.43571" lon="5.87951">
        <ele>833.8</ele>
        <time>2014-08-24T12:27:33Z</time>
      </trkpt>
      <trkpt lat="45.43559" lon="5.87949">
        <ele>833.1</ele>
        <time>2014-08-24T12:27:35Z</time>
      </trkpt>
      <trkpt lat="45.43547" lon="5.87946">
        <ele>832.2</ele>
        <time>2014-08-24T12:27:37Z</time>
      </trkpt>
      <trkpt lat="45.43536" lon="5.87941">
        <ele>831.5</ele>
        <time>2014-08-24T12:27:39Z</time>
      </trkpt>
      <trkpt lat="45.43523" lon="5.87938">
        <ele>831.3</ele>
        <time>2014-08-24T12:27:41Z</time>
      </trkpt>
      <trkpt lat="45.4351" lon="5.87934">
        <ele>831.2</ele>
        <time>2014-08-24T12:27:43Z</time>
      </trkpt>
      <trkpt lat="45.43497" lon="5.87931">
        <ele>830.4</ele>
        <time>2014-08-24T12:27:45Z</time>
      </trkpt>
      <trkpt lat="45.43483" lon="5.87928">
        <ele>829.5</ele>
        <time>2014-08-24T12:27:47Z</time>
      </trkpt>
      <trkpt lat="45.4347" lon="5.87927">
        <ele>828.5</ele>
        <time>2014-08-24T12:27:49Z</time>
      </trkpt>
      <trkpt lat="45.43459" lon="5.87927">
        <ele>821.4</ele>
        <time>2014-08-24T12:27:51Z</time>
      </trkpt>
      <trkpt lat="45.43449" lon="5.87928">
        <ele>824</ele>
        <time>2014-08-24T12:27:53Z</time>
      </trkpt>
      <trkpt lat="45.43438" lon="5.8793">
        <ele>825.1</ele>
        <time>2014-08-24T12:27:55Z</time>
      </trkpt>
      <trkpt lat="45.43428" lon="5.87931">
        <ele>825.5</ele>
        <time>2014-08-24T12:27:57Z</time>
      </trkpt>
      <trkpt lat="45.43414" lon="5.87934">
        <ele>825.3</ele>
        <time>2014-08-24T12:27:59Z</time>
      </trkpt>
      <trkpt lat="45.434" lon="5.87939">
        <ele>825</ele>
        <time>2014-08-24T12:28:01Z</time>
      </trkpt>
      <trkpt lat="45.43386" lon="5.87947">
        <ele>824.4</ele>
        <time>2014-08-24T12:28:03Z</time>
      </trkpt>
      <trkpt lat="45.4337" lon="5.87954">
        <ele>823.9</ele>
        <time>2014-08-24T12:28:05Z</time>
      </trkpt>
      <trkpt lat="45.43354" lon="5.87957">
        <ele>822.9</ele>
        <time>2014-08-24T12:28:07Z</time>
      </trkpt>
      <trkpt lat="45.43339" lon="5.87961">
        <ele>824.9</ele>
        <time>2014-08-24T12:28:09Z</time>
      </trkpt>
      <trkpt lat="45.43326" lon="5.87966">
        <ele>824.7</ele>
        <time>2014-08-24T12:28:11Z</time>
      </trkpt>
      <trkpt lat="45.43314" lon="5.87967">
        <ele>824.1</ele>
        <time>2014-08-24T12:28:13Z</time>
      </trkpt>
      <trkpt lat="45.43304" lon="5.87967">
        <ele>823.6</ele>
        <time>2014-08-24T12:28:15Z</time>
      </trkpt>
      <trkpt lat="45.43292" lon="5.87967">
        <ele>823.1</ele>
        <time>2014-08-24T12:28:18Z</time>
      </trkpt>
      <trkpt lat="45.43282" lon="5.87969">
        <ele>823.2</ele>
        <time>2014-08-24T12:28:21Z</time>
      </trkpt>
      <trkpt lat="45.43269" lon="5.87967">
        <ele>824.1</ele>
        <time>2014-08-24T12:28:26Z</time>
      </trkpt>
      <trkpt lat="45.43261" lon="5.87975">
        <ele>825</ele>
        <time>2014-08-24T12:28:30Z</time>
      </trkpt>
      <trkpt lat="45.43252" lon="5.87983">
        <ele>825.9</ele>
        <time>2014-08-24T12:28:34Z</time>
      </trkpt>
      <trkpt lat="45.43243" lon="5.87983">
        <ele>826</ele>
        <time>2014-08-24T12:28:37Z</time>
      </trkpt>
      <trkpt lat="45.43233" lon="5.87985">
        <ele>823.2</ele>
        <time>2014-08-24T12:28:42Z</time>
      </trkpt>
      <trkpt lat="45.43223" lon="5.87981">
        <ele>828.3</ele>
        <time>2014-08-24T12:28:48Z</time>
      </trkpt>
      <trkpt lat="45.43215" lon="5.87987">
        <ele>831</ele>
        <time>2014-08-24T12:29:01Z</time>
      </trkpt>
      <trkpt lat="45.43208" lon="5.87977">
        <ele>834.6</ele>
        <time>2014-08-24T12:29:13Z</time>
      </trkpt>
      <trkpt lat="45.43198" lon="5.87976">
        <ele>833.1</ele>
        <time>2014-08-24T12:29:17Z</time>
      </trkpt>
      <trkpt lat="45.43187" lon="5.87974">
        <ele>832.8</ele>
        <time>2014-08-24T12:29:22Z</time>
      </trkpt>
      <trkpt lat="45.43178" lon="5.87972">
        <ele>833.5</ele>
        <time>2014-08-24T12:29:26Z</time>
      </trkpt>
      <trkpt lat="45.43169" lon="5.87968">
        <ele>834.2</ele>
        <time>2014-08-24T12:29:30Z</time>
      </trkpt>
      <trkpt lat="45.43162" lon="5.8796">
        <ele>834.9</ele>
        <time>2014-08-24T12:29:34Z</time>
      </trkpt>
      <trkpt lat="45.43153" lon="5.87953">
        <ele>836.4</ele>
        <time>2014-08-24T12:29:39Z</time>
      </trkpt>
      <trkpt lat="45.43144" lon="5.87943">
        <ele>838.2</ele>
        <time>2014-08-24T12:29:44Z</time>
      </trkpt>
      <trkpt lat="45.43137" lon="5.87931">
        <ele>839.6</ele>
        <time>2014-08-24T12:29:49Z</time>
      </trkpt>
      <trkpt lat="45.43132" lon="5.8792">
        <ele>838.9</ele>
        <time>2014-08-24T12:29:53Z</time>
      </trkpt>
      <trkpt lat="45.43126" lon="5.87908">
        <ele>839.2</ele>
        <time>2014-08-24T12:29:58Z</time>
      </trkpt>
      <trkpt lat="45.43121" lon="5.87897">
        <ele>838.5</ele>
        <time>2014-08-24T12:30:02Z</time>
      </trkpt>
      <trkpt lat="45.43115" lon="5.87884">
        <ele>839.9</ele>
        <time>2014-08-24T12:30:07Z</time>
      </trkpt>
      <trkpt lat="45.43111" lon="5.8787">
        <ele>841</ele>
        <time>2014-08-24T12:30:12Z</time>
      </trkpt>
      <trkpt lat="45.43106" lon="5.87858">
        <ele>841.4</ele>
        <time>2014-08-24T12:30:16Z</time>
      </trkpt>
      <trkpt lat="45.43112" lon="5.87846">
        <ele>842.4</ele>
        <time>2014-08-24T12:30:21Z</time>
      </trkpt>
      <trkpt lat="45.43121" lon="5.87842">
        <ele>843.3</ele>
        <time>2014-08-24T12:30:26Z</time>
      </trkpt>
      <trkpt lat="45.4313" lon="5.87837">
        <ele>843.9</ele>
        <time>2014-08-24T12:30:31Z</time>
      </trkpt>
      <trkpt lat="45.43137" lon="5.87828">
        <ele>844.9</ele>
        <time>2014-08-24T12:30:36Z</time>
      </trkpt>
      <trkpt lat="45.43138" lon="5.87816">
        <ele>846.7</ele>
        <time>2014-08-24T12:30:42Z</time>
      </trkpt>
      <trkpt lat="45.43134" lon="5.87802">
        <ele>849.7</ele>
        <time>2014-08-24T12:30:48Z</time>
      </trkpt>
      <trkpt lat="45.43129" lon="5.87792">
        <ele>850.4</ele>
        <time>2014-08-24T12:30:53Z</time>
      </trkpt>
      <trkpt lat="45.43102" lon="5.87737">
        <ele>850</ele>
        <time>2014-08-24T12:31:00Z</time>
      </trkpt>
      <trkpt lat="45.43089" lon="5.8772">
        <ele>851.1</ele>
        <time>2014-08-24T12:31:05Z</time>
      </trkpt>
      <trkpt lat="45.4308" lon="5.87712">
        <ele>851.4</ele>
        <time>2014-08-24T12:31:10Z</time>
      </trkpt>
      <trkpt lat="45.4307" lon="5.87706">
        <ele>851.6</ele>
        <time>2014-08-24T12:31:15Z</time>
      </trkpt>
      <trkpt lat="45.43061" lon="5.87701">
        <ele>852.9</ele>
        <time>2014-08-24T12:31:20Z</time>
      </trkpt>
      <trkpt lat="45.43055" lon="5.87691">
        <ele>853.9</ele>
        <time>2014-08-24T12:31:26Z</time>
      </trkpt>
      <trkpt lat="45.43049" lon="5.87679">
        <ele>855.8</ele>
        <time>2014-08-24T12:31:33Z</time>
      </trkpt>
      <trkpt lat="45.43042" lon="5.8767">
        <ele>857.4</ele>
        <time>2014-08-24T12:31:39Z</time>
      </trkpt>
      <trkpt lat="45.43033" lon="5.87663">
        <ele>858.9</ele>
        <time>2014-08-24T12:31:45Z</time>
      </trkpt>
      <trkpt lat="45.43024" lon="5.87656">
        <ele>860.6</ele>
        <time>2014-08-24T12:31:51Z</time>
      </trkpt>
      <trkpt lat="45.43016" lon="5.87652">
        <ele>862.1</ele>
        <time>2014-08-24T12:31:57Z</time>
      </trkpt>
      <trkpt lat="45.43007" lon="5.87644">
        <ele>863.3</ele>
        <time>2014-08-24T12:32:03Z</time>
      </trkpt>
      <trkpt lat="45.42998" lon="5.87641">
        <ele>864.9</ele>
        <time>2014-08-24T12:32:09Z</time>
      </trkpt>
      <trkpt lat="45.42989" lon="5.87639">
        <ele>866.5</ele>
        <time>2014-08-24T12:32:15Z</time>
      </trkpt>
      <trkpt lat="45.42978" lon="5.87641">
        <ele>866.9</ele>
        <time>2014-08-24T12:32:20Z</time>
      </trkpt>
      <trkpt lat="45.42969" lon="5.87641">
        <ele>867.5</ele>
        <time>2014-08-24T12:32:25Z</time>
      </trkpt>
      <trkpt lat="45.4296" lon="5.87637">
        <ele>868.7</ele>
        <time>2014-08-24T12:32:31Z</time>
      </trkpt>
      <trkpt lat="45.42953" lon="5.87627">
        <ele>870</ele>
        <time>2014-08-24T12:32:37Z</time>
      </trkpt>
      <trkpt lat="45.42947" lon="5.87615">
        <ele>870.9</ele>
        <time>2014-08-24T12:32:44Z</time>
      </trkpt>
      <trkpt lat="45.42941" lon="5.87605">
        <ele>871.7</ele>
        <time>2014-08-24T12:32:49Z</time>
      </trkpt>
      <trkpt lat="45.42934" lon="5.87597">
        <ele>872.5</ele>
        <time>2014-08-24T12:32:54Z</time>
      </trkpt>
      <trkpt lat="45.42926" lon="5.87591">
        <ele>873.3</ele>
        <time>2014-08-24T12:32:59Z</time>
      </trkpt>
      <trkpt lat="45.42917" lon="5.87587">
        <ele>874.3</ele>
        <time>2014-08-24T12:33:04Z</time>
      </trkpt>
      <trkpt lat="45.42908" lon="5.87585">
        <ele>876</ele>
        <time>2014-08-24T12:33:09Z</time>
      </trkpt>
      <trkpt lat="45.42899" lon="5.87587">
        <ele>877.3</ele>
        <time>2014-08-24T12:33:16Z</time>
      </trkpt>
      <trkpt lat="45.4289" lon="5.87594">
        <ele>879</ele>
        <time>2014-08-24T12:33:21Z</time>
      </trkpt>
      <trkpt lat="45.4288" lon="5.87598">
        <ele>880.8</ele>
        <time>2014-08-24T12:33:27Z</time>
      </trkpt>
      <trkpt lat="45.42871" lon="5.87597">
        <ele>882.3</ele>
        <time>2014-08-24T12:33:34Z</time>
      </trkpt>
      <trkpt lat="45.42861" lon="5.87592">
        <ele>883.3</ele>
        <time>2014-08-24T12:33:40Z</time>
      </trkpt>
      <trkpt lat="45.42853" lon="5.87587">
        <ele>884</ele>
        <time>2014-08-24T12:33:45Z</time>
      </trkpt>
      <trkpt lat="45.42843" lon="5.87586">
        <ele>884.4</ele>
        <time>2014-08-24T12:33:50Z</time>
      </trkpt>
      <trkpt lat="45.42832" lon="5.87584">
        <ele>884.5</ele>
        <time>2014-08-24T12:33:55Z</time>
      </trkpt>
      <trkpt lat="45.42822" lon="5.87582">
        <ele>884.9</ele>
        <time>2014-08-24T12:34:00Z</time>
      </trkpt>
      <trkpt lat="45.42812" lon="5.8758">
        <ele>885.9</ele>
        <time>2014-08-24T12:34:05Z</time>
      </trkpt>
      <trkpt lat="45.42802" lon="5.87581">
        <ele>887</ele>
        <time>2014-08-24T12:34:09Z</time>
      </trkpt>
      <trkpt lat="45.42793" lon="5.87589">
        <ele>887.8</ele>
        <time>2014-08-24T12:34:14Z</time>
      </trkpt>
      <trkpt lat="45.42788" lon="5.87601">
        <ele>888.8</ele>
        <time>2014-08-24T12:34:20Z</time>
      </trkpt>
      <trkpt lat="45.42779" lon="5.87603">
        <ele>890.8</ele>
        <time>2014-08-24T12:34:28Z</time>
      </trkpt>
      <trkpt lat="45.4277" lon="5.87599">
        <ele>892.4</ele>
        <time>2014-08-24T12:34:35Z</time>
      </trkpt>
      <trkpt lat="45.42762" lon="5.87594">
        <ele>893.3</ele>
        <time>2014-08-24T12:34:41Z</time>
      </trkpt>
      <trkpt lat="45.42751" lon="5.87589">
        <ele>894</ele>
        <time>2014-08-24T12:34:45Z</time>
      </trkpt>
      <trkpt lat="45.4274" lon="5.87584">
        <ele>894.4</ele>
        <time>2014-08-24T12:34:49Z</time>
      </trkpt>
      <trkpt lat="45.42731" lon="5.87579">
        <ele>894.6</ele>
        <time>2014-08-24T12:34:52Z</time>
      </trkpt>
      <trkpt lat="45.42722" lon="5.87574">
        <ele>894.9</ele>
        <time>2014-08-24T12:34:56Z</time>
      </trkpt>
      <trkpt lat="45.42712" lon="5.87572">
        <ele>896.8</ele>
        <time>2014-08-24T12:35:02Z</time>
      </trkpt>
      <trkpt lat="45.42702" lon="5.87576">
        <ele>897.9</ele>
        <time>2014-08-24T12:35:08Z</time>
      </trkpt>
      <trkpt lat="45.42693" lon="5.87581">
        <ele>898.9</ele>
        <time>2014-08-24T12:35:13Z</time>
      </trkpt>
      <trkpt lat="45.42684" lon="5.87585">
        <ele>900.5</ele>
        <time>2014-08-24T12:35:20Z</time>
      </trkpt>
      <trkpt lat="45.42675" lon="5.87585">
        <ele>901.9</ele>
        <time>2014-08-24T12:35:26Z</time>
      </trkpt>
      <trkpt lat="45.42665" lon="5.87586">
        <ele>902.5</ele>
        <time>2014-08-24T12:35:32Z</time>
      </trkpt>
      <trkpt lat="45.42654" lon="5.87586">
        <ele>903.8</ele>
        <time>2014-08-24T12:37:46Z</time>
      </trkpt>
      <trkpt lat="45.42643" lon="5.87589">
        <ele>903.4</ele>
        <time>2014-08-24T12:37:50Z</time>
      </trkpt>
      <trkpt lat="45.42632" lon="5.87591">
        <ele>903.2</ele>
        <time>2014-08-24T12:37:54Z</time>
      </trkpt>
      <trkpt lat="45.42622" lon="5.87596">
        <ele>903.3</ele>
        <time>2014-08-24T12:37:58Z</time>
      </trkpt>
      <trkpt lat="45.42613" lon="5.87601">
        <ele>904.2</ele>
        <time>2014-08-24T12:38:02Z</time>
      </trkpt>
      <trkpt lat="45.42604" lon="5.87607">
        <ele>905.2</ele>
        <time>2014-08-24T12:38:08Z</time>
      </trkpt>
      <trkpt lat="45.42593" lon="5.87609">
        <ele>906.2</ele>
        <time>2014-08-24T12:38:14Z</time>
      </trkpt>
      <trkpt lat="45.42584" lon="5.87607">
        <ele>907.8</ele>
        <time>2014-08-24T12:38:20Z</time>
      </trkpt>
      <trkpt lat="45.42573" lon="5.87608">
        <ele>908.7</ele>
        <time>2014-08-24T12:38:25Z</time>
      </trkpt>
      <trkpt lat="45.42562" lon="5.87612">
        <ele>907.7</ele>
        <time>2014-08-24T12:38:30Z</time>
      </trkpt>
      <trkpt lat="45.42553" lon="5.87613">
        <ele>907.5</ele>
        <time>2014-08-24T12:38:33Z</time>
      </trkpt>
      <trkpt lat="45.42542" lon="5.87616">
        <ele>907.4</ele>
        <time>2014-08-24T12:38:36Z</time>
      </trkpt>
      <trkpt lat="45.42531" lon="5.87618">
        <ele>907.6</ele>
        <time>2014-08-24T12:38:40Z</time>
      </trkpt>
      <trkpt lat="45.4252" lon="5.8762">
        <ele>907.5</ele>
        <time>2014-08-24T12:38:44Z</time>
      </trkpt>
      <trkpt lat="45.42509" lon="5.87622">
        <ele>908.2</ele>
        <time>2014-08-24T12:38:48Z</time>
      </trkpt>
      <trkpt lat="45.42498" lon="5.87624">
        <ele>908.2</ele>
        <time>2014-08-24T12:38:52Z</time>
      </trkpt>
      <trkpt lat="45.42488" lon="5.87627">
        <ele>908.7</ele>
        <time>2014-08-24T12:38:56Z</time>
      </trkpt>
      <trkpt lat="45.42475" lon="5.87636">
        <ele>908.8</ele>
        <time>2014-08-24T12:38:59Z</time>
      </trkpt>
      <trkpt lat="45.42463" lon="5.87646">
        <ele>907.6</ele>
        <time>2014-08-24T12:39:01Z</time>
      </trkpt>
      <trkpt lat="45.42452" lon="5.87656">
        <ele>906.7</ele>
        <time>2014-08-24T12:39:03Z</time>
      </trkpt>
      <trkpt lat="45.42441" lon="5.87662">
        <ele>906.2</ele>
        <time>2014-08-24T12:39:05Z</time>
      </trkpt>
      <trkpt lat="45.42433" lon="5.87667">
        <ele>905.6</ele>
        <time>2014-08-24T12:39:07Z</time>
      </trkpt>
      <trkpt lat="45.42423" lon="5.87671">
        <ele>906.1</ele>
        <time>2014-08-24T12:39:11Z</time>
      </trkpt>
      <trkpt lat="45.42411" lon="5.87675">
        <ele>906.3</ele>
        <time>2014-08-24T12:39:15Z</time>
      </trkpt>
      <trkpt lat="45.42398" lon="5.87677">
        <ele>906.9</ele>
        <time>2014-08-24T12:39:18Z</time>
      </trkpt>
      <trkpt lat="45.42386" lon="5.87678">
        <ele>907</ele>
        <time>2014-08-24T12:39:21Z</time>
      </trkpt>
      <trkpt lat="45.42374" lon="5.87679">
        <ele>907.4</ele>
        <time>2014-08-24T12:39:24Z</time>
      </trkpt>
      <trkpt lat="45.42363" lon="5.87679">
        <ele>907.8</ele>
        <time>2014-08-24T12:39:27Z</time>
      </trkpt>
      <trkpt lat="45.42352" lon="5.87685">
        <ele>907.9</ele>
        <time>2014-08-24T12:39:30Z</time>
      </trkpt>
      <trkpt lat="45.42342" lon="5.87688">
        <ele>908.2</ele>
        <time>2014-08-24T12:39:33Z</time>
      </trkpt>
      <trkpt lat="45.42329" lon="5.87685">
        <ele>908.1</ele>
        <time>2014-08-24T12:39:36Z</time>
      </trkpt>
      <trkpt lat="45.42318" lon="5.87678">
        <ele>908</ele>
        <time>2014-08-24T12:39:39Z</time>
      </trkpt>
      <trkpt lat="45.42309" lon="5.87676">
        <ele>907.2</ele>
        <time>2014-08-24T12:39:42Z</time>
      </trkpt>
      <trkpt lat="45.42299" lon="5.87675">
        <ele>906.9</ele>
        <time>2014-08-24T12:39:44Z</time>
      </trkpt>
      <trkpt lat="45.42289" lon="5.87675">
        <ele>904.5</ele>
        <time>2014-08-24T12:39:46Z</time>
      </trkpt>
      <trkpt lat="45.42279" lon="5.87677">
        <ele>904</ele>
        <time>2014-08-24T12:39:48Z</time>
      </trkpt>
      <trkpt lat="45.42271" lon="5.87682">
        <ele>903.3</ele>
        <time>2014-08-24T12:39:50Z</time>
      </trkpt>
      <trkpt lat="45.42262" lon="5.87689">
        <ele>902</ele>
        <time>2014-08-24T12:39:52Z</time>
      </trkpt>
      <trkpt lat="45.42251" lon="5.87697">
        <ele>901.1</ele>
        <time>2014-08-24T12:39:54Z</time>
      </trkpt>
      <trkpt lat="45.42241" lon="5.87703">
        <ele>892.2</ele>
        <time>2014-08-24T12:39:56Z</time>
      </trkpt>
      <trkpt lat="45.4223" lon="5.87703">
        <ele>895.5</ele>
        <time>2014-08-24T12:39:58Z</time>
      </trkpt>
      <trkpt lat="45.4222" lon="5.87702">
        <ele>897.4</ele>
        <time>2014-08-24T12:40:00Z</time>
      </trkpt>
      <trkpt lat="45.42209" lon="5.877">
        <ele>898.4</ele>
        <time>2014-08-24T12:40:02Z</time>
      </trkpt>
      <trkpt lat="45.42199" lon="5.87699">
        <ele>898.7</ele>
        <time>2014-08-24T12:40:04Z</time>
      </trkpt>
      <trkpt lat="45.42188" lon="5.87695">
        <ele>898.9</ele>
        <time>2014-08-24T12:40:06Z</time>
      </trkpt>
      <trkpt lat="45.42177" lon="5.87688">
        <ele>899.4</ele>
        <time>2014-08-24T12:40:08Z</time>
      </trkpt>
      <trkpt lat="45.42166" lon="5.87681">
        <ele>899</ele>
        <time>2014-08-24T12:40:10Z</time>
      </trkpt>
      <trkpt lat="45.42155" lon="5.87675">
        <ele>898.9</ele>
        <time>2014-08-24T12:40:12Z</time>
      </trkpt>
      <trkpt lat="45.42143" lon="5.8767">
        <ele>898.6</ele>
        <time>2014-08-24T12:40:14Z</time>
      </trkpt>
      <trkpt lat="45.42133" lon="5.87665">
        <ele>898.8</ele>
        <time>2014-08-24T12:40:16Z</time>
      </trkpt>
      <trkpt lat="45.42123" lon="5.87661">
        <ele>898.8</ele>
        <time>2014-08-24T12:40:18Z</time>
      </trkpt>
      <trkpt lat="45.42113" lon="5.87659">
        <ele>901.7</ele>
        <time>2014-08-24T12:40:20Z</time>
      </trkpt>
      <trkpt lat="45.42101" lon="5.87656">
        <ele>902</ele>
        <time>2014-08-24T12:40:23Z</time>
      </trkpt>
      <trkpt lat="45.42091" lon="5.87651">
        <ele>902.2</ele>
        <time>2014-08-24T12:40:26Z</time>
      </trkpt>
      <trkpt lat="45.42082" lon="5.8764">
        <ele>902.6</ele>
        <time>2014-08-24T12:40:30Z</time>
      </trkpt>
      <trkpt lat="45.42077" lon="5.87627">
        <ele>903.4</ele>
        <time>2014-08-24T12:40:34Z</time>
      </trkpt>
      <trkpt lat="45.42073" lon="5.87615">
        <ele>904</ele>
        <time>2014-08-24T12:40:37Z</time>
      </trkpt>
      <trkpt lat="45.4207" lon="5.87601">
        <ele>904.4</ele>
        <time>2014-08-24T12:40:40Z</time>
      </trkpt>
      <trkpt lat="45.42068" lon="5.87588">
        <ele>905.2</ele>
        <time>2014-08-24T12:40:43Z</time>
      </trkpt>
      <trkpt lat="45.42066" lon="5.87574">
        <ele>905.9</ele>
        <time>2014-08-24T12:40:46Z</time>
      </trkpt>
      <trkpt lat="45.42063" lon="5.8756">
        <ele>906.7</ele>
        <time>2014-08-24T12:40:49Z</time>
      </trkpt>
      <trkpt lat="45.42061" lon="5.87547">
        <ele>905.1</ele>
        <time>2014-08-24T12:40:52Z</time>
      </trkpt>
      <trkpt lat="45.42057" lon="5.87533">
        <ele>907.5</ele>
        <time>2014-08-24T12:40:56Z</time>
      </trkpt>
      <trkpt lat="45.42055" lon="5.87519">
        <ele>908.7</ele>
        <time>2014-08-24T12:41:00Z</time>
      </trkpt>
      <trkpt lat="45.42053" lon="5.87507">
        <ele>909.1</ele>
        <time>2014-08-24T12:41:03Z</time>
      </trkpt>
      <trkpt lat="45.42048" lon="5.87495">
        <ele>909.5</ele>
        <time>2014-08-24T12:41:05Z</time>
      </trkpt>
      <trkpt lat="45.42043" lon="5.87484">
        <ele>909.9</ele>
        <time>2014-08-24T12:41:07Z</time>
      </trkpt>
      <trkpt lat="45.42031" lon="5.87467">
        <ele>910.3</ele>
        <time>2014-08-24T12:41:10Z</time>
      </trkpt>
      <trkpt lat="45.42023" lon="5.87455">
        <ele>910.6</ele>
        <time>2014-08-24T12:41:11Z</time>
      </trkpt>
      <trkpt lat="45.42015" lon="5.87442">
        <ele>911.2</ele>
        <time>2014-08-24T12:41:13Z</time>
      </trkpt>
      <trkpt lat="45.42008" lon="5.87428">
        <ele>911.5</ele>
        <time>2014-08-24T12:41:16Z</time>
      </trkpt>
      <trkpt lat="45.42003" lon="5.87417">
        <ele>912.2</ele>
        <time>2014-08-24T12:41:18Z</time>
      </trkpt>
      <trkpt lat="45.41997" lon="5.87403">
        <ele>912.8</ele>
        <time>2014-08-24T12:41:21Z</time>
      </trkpt>
      <trkpt lat="45.4199" lon="5.87394">
        <ele>913.2</ele>
        <time>2014-08-24T12:41:23Z</time>
      </trkpt>
      <trkpt lat="45.41982" lon="5.8738">
        <ele>913.7</ele>
        <time>2014-08-24T12:41:26Z</time>
      </trkpt>
      <trkpt lat="45.41973" lon="5.87368">
        <ele>913.9</ele>
        <time>2014-08-24T12:41:28Z</time>
      </trkpt>
      <trkpt lat="45.41966" lon="5.87359">
        <ele>914.4</ele>
        <time>2014-08-24T12:41:30Z</time>
      </trkpt>
      <trkpt lat="45.41961" lon="5.87346">
        <ele>914.8</ele>
        <time>2014-08-24T12:41:34Z</time>
      </trkpt>
      <trkpt lat="45.41962" lon="5.8733">
        <ele>915.7</ele>
        <time>2014-08-24T12:41:38Z</time>
      </trkpt>
      <trkpt lat="45.41964" lon="5.87316">
        <ele>916.5</ele>
        <time>2014-08-24T12:41:41Z</time>
      </trkpt>
      <trkpt lat="45.41968" lon="5.87303">
        <ele>916.9</ele>
        <time>2014-08-24T12:41:44Z</time>
      </trkpt>
      <trkpt lat="45.41966" lon="5.8729">
        <ele>917.7</ele>
        <time>2014-08-24T12:41:47Z</time>
      </trkpt>
      <trkpt lat="45.41967" lon="5.87277">
        <ele>918.6</ele>
        <time>2014-08-24T12:41:50Z</time>
      </trkpt>
      <trkpt lat="45.41965" lon="5.87261">
        <ele>919.2</ele>
        <time>2014-08-24T12:41:54Z</time>
      </trkpt>
      <trkpt lat="45.41956" lon="5.8725">
        <ele>919.5</ele>
        <time>2014-08-24T12:41:56Z</time>
      </trkpt>
      <trkpt lat="45.41949" lon="5.87236">
        <ele>919.6</ele>
        <time>2014-08-24T12:41:59Z</time>
      </trkpt>
      <trkpt lat="45.41944" lon="5.87221">
        <ele>919.2</ele>
        <time>2014-08-24T12:42:02Z</time>
      </trkpt>
      <trkpt lat="45.41941" lon="5.87209">
        <ele>919</ele>
        <time>2014-08-24T12:42:05Z</time>
      </trkpt>
      <trkpt lat="45.41932" lon="5.87196">
        <ele>919</ele>
        <time>2014-08-24T12:42:08Z</time>
      </trkpt>
      <trkpt lat="45.41926" lon="5.87187">
        <ele>919</ele>
        <time>2014-08-24T12:42:10Z</time>
      </trkpt>
      <trkpt lat="45.41917" lon="5.87174">
        <ele>919</ele>
        <time>2014-08-24T12:42:13Z</time>
      </trkpt>
      <trkpt lat="45.41908" lon="5.87164">
        <ele>919</ele>
        <time>2014-08-24T12:42:15Z</time>
      </trkpt>
      <trkpt lat="45.419" lon="5.87148">
        <ele>919.2</ele>
        <time>2014-08-24T12:42:18Z</time>
      </trkpt>
      <trkpt lat="45.41894" lon="5.87138">
        <ele>919.2</ele>
        <time>2014-08-24T12:42:20Z</time>
      </trkpt>
      <trkpt lat="45.41885" lon="5.87125">
        <ele>919.8</ele>
        <time>2014-08-24T12:42:23Z</time>
      </trkpt>
      <trkpt lat="45.41877" lon="5.87112">
        <ele>920.3</ele>
        <time>2014-08-24T12:42:26Z</time>
      </trkpt>
      <trkpt lat="45.41869" lon="5.87102">
        <ele>920.7</ele>
        <time>2014-08-24T12:42:29Z</time>
      </trkpt>
      <trkpt lat="45.41861" lon="5.87091">
        <ele>921.4</ele>
        <time>2014-08-24T12:42:32Z</time>
      </trkpt>
      <trkpt lat="45.41854" lon="5.87077">
        <ele>921.8</ele>
        <time>2014-08-24T12:42:35Z</time>
      </trkpt>
      <trkpt lat="45.4185" lon="5.87065">
        <ele>923</ele>
        <time>2014-08-24T12:42:38Z</time>
      </trkpt>
      <trkpt lat="45.4184" lon="5.8706">
        <ele>923.1</ele>
        <time>2014-08-24T12:42:44Z</time>
      </trkpt>
      <trkpt lat="45.41835" lon="5.87049">
        <ele>923.3</ele>
        <time>2014-08-24T12:42:57Z</time>
      </trkpt>
      <trkpt lat="45.41826" lon="5.87043">
        <ele>922.7</ele>
        <time>2014-08-24T12:43:02Z</time>
      </trkpt>
      <trkpt lat="45.41817" lon="5.87037">
        <ele>921.6</ele>
        <time>2014-08-24T12:43:05Z</time>
      </trkpt>
      <trkpt lat="45.41808" lon="5.87034">
        <ele>921.4</ele>
        <time>2014-08-24T12:43:07Z</time>
      </trkpt>
      <trkpt lat="45.41798" lon="5.87031">
        <ele>920.3</ele>
        <time>2014-08-24T12:43:09Z</time>
      </trkpt>
      <trkpt lat="45.41788" lon="5.87028">
        <ele>918.2</ele>
        <time>2014-08-24T12:43:11Z</time>
      </trkpt>
      <trkpt lat="45.41778" lon="5.87022">
        <ele>916.8</ele>
        <time>2014-08-24T12:43:13Z</time>
      </trkpt>
      <trkpt lat="45.41768" lon="5.87014">
        <ele>915.7</ele>
        <time>2014-08-24T12:43:15Z</time>
      </trkpt>
      <trkpt lat="45.41756" lon="5.87005">
        <ele>914.6</ele>
        <time>2014-08-24T12:43:17Z</time>
      </trkpt>
      <trkpt lat="45.41745" lon="5.86998">
        <ele>913.7</ele>
        <time>2014-08-24T12:43:19Z</time>
      </trkpt>
      <trkpt lat="45.41737" lon="5.86991">
        <ele>911.3</ele>
        <time>2014-08-24T12:43:21Z</time>
      </trkpt>
      <trkpt lat="45.41727" lon="5.86988">
        <ele>908.5</ele>
        <time>2014-08-24T12:43:25Z</time>
      </trkpt>
      <trkpt lat="45.4172" lon="5.8698">
        <ele>907</ele>
        <time>2014-08-24T12:43:34Z</time>
      </trkpt>
      <trkpt lat="45.41712" lon="5.86969">
        <ele>904.9</ele>
        <time>2014-08-24T12:43:38Z</time>
      </trkpt>
      <trkpt lat="45.41704" lon="5.86962">
        <ele>901.8</ele>
        <time>2014-08-24T12:43:41Z</time>
      </trkpt>
      <trkpt lat="45.41697" lon="5.86955">
        <ele>899.2</ele>
        <time>2014-08-24T12:43:45Z</time>
      </trkpt>
      <trkpt lat="45.41689" lon="5.86948">
        <ele>895.1</ele>
        <time>2014-08-24T12:43:49Z</time>
      </trkpt>
      <trkpt lat="45.41681" lon="5.86941">
        <ele>892.3</ele>
        <time>2014-08-24T12:43:53Z</time>
      </trkpt>
      <trkpt lat="45.41672" lon="5.86932">
        <ele>888.6</ele>
        <time>2014-08-24T12:43:58Z</time>
      </trkpt>
      <trkpt lat="45.41662" lon="5.86926">
        <ele>885.7</ele>
        <time>2014-08-24T12:44:01Z</time>
      </trkpt>
      <trkpt lat="45.41654" lon="5.86921">
        <ele>884.3</ele>
        <time>2014-08-24T12:44:04Z</time>
      </trkpt>
      <trkpt lat="45.41645" lon="5.86911">
        <ele>882.4</ele>
        <time>2014-08-24T12:44:09Z</time>
      </trkpt>
      <trkpt lat="45.41638" lon="5.86901">
        <ele>881</ele>
        <time>2014-08-24T12:44:14Z</time>
      </trkpt>
      <trkpt lat="45.41633" lon="5.86891">
        <ele>877.9</ele>
        <time>2014-08-24T12:44:19Z</time>
      </trkpt>
      <trkpt lat="45.41626" lon="5.8688">
        <ele>875.4</ele>
        <time>2014-08-24T12:44:24Z</time>
      </trkpt>
      <trkpt lat="45.4162" lon="5.86867">
        <ele>872.9</ele>
        <time>2014-08-24T12:44:29Z</time>
      </trkpt>
      <trkpt lat="45.41615" lon="5.86856">
        <ele>870.7</ele>
        <time>2014-08-24T12:44:33Z</time>
      </trkpt>
      <trkpt lat="45.41608" lon="5.86843">
        <ele>869.5</ele>
        <time>2014-08-24T12:44:36Z</time>
      </trkpt>
      <trkpt lat="45.41598" lon="5.86828">
        <ele>868.7</ele>
        <time>2014-08-24T12:44:38Z</time>
      </trkpt>
      <trkpt lat="45.41589" lon="5.8681">
        <ele>867.4</ele>
        <time>2014-08-24T12:44:40Z</time>
      </trkpt>
      <trkpt lat="45.4158" lon="5.86798">
        <ele>866</ele>
        <time>2014-08-24T12:44:42Z</time>
      </trkpt>
      <trkpt lat="45.41572" lon="5.86788">
        <ele>864.7</ele>
        <time>2014-08-24T12:44:44Z</time>
      </trkpt>
      <trkpt lat="45.41565" lon="5.86777">
        <ele>863.2</ele>
        <time>2014-08-24T12:44:46Z</time>
      </trkpt>
      <trkpt lat="45.4156" lon="5.86766">
        <ele>861.7</ele>
        <time>2014-08-24T12:44:48Z</time>
      </trkpt>
      <trkpt lat="45.41552" lon="5.86758">
        <ele>860.3</ele>
        <time>2014-08-24T12:44:51Z</time>
      </trkpt>
      <trkpt lat="45.41542" lon="5.86761">
        <ele>859.5</ele>
        <time>2014-08-24T12:44:55Z</time>
      </trkpt>
      <trkpt lat="45.41531" lon="5.86765">
        <ele>858.2</ele>
        <time>2014-08-24T12:44:58Z</time>
      </trkpt>
      <trkpt lat="45.41518" lon="5.86768">
        <ele>857.1</ele>
        <time>2014-08-24T12:45:01Z</time>
      </trkpt>
      <trkpt lat="45.41509" lon="5.86771">
        <ele>856.5</ele>
        <time>2014-08-24T12:45:03Z</time>
      </trkpt>
      <trkpt lat="45.415" lon="5.86775">
        <ele>855.7</ele>
        <time>2014-08-24T12:45:05Z</time>
      </trkpt>
      <trkpt lat="45.41491" lon="5.86782">
        <ele>855.6</ele>
        <time>2014-08-24T12:45:07Z</time>
      </trkpt>
      <trkpt lat="45.41482" lon="5.8679">
        <ele>854.9</ele>
        <time>2014-08-24T12:45:09Z</time>
      </trkpt>
      <trkpt lat="45.41475" lon="5.86802">
        <ele>854.6</ele>
        <time>2014-08-24T12:45:11Z</time>
      </trkpt>
      <trkpt lat="45.4147" lon="5.86815">
        <ele>853.8</ele>
        <time>2014-08-24T12:45:13Z</time>
      </trkpt>
      <trkpt lat="45.41462" lon="5.86823">
        <ele>853.2</ele>
        <time>2014-08-24T12:45:15Z</time>
      </trkpt>
      <trkpt lat="45.41451" lon="5.86824">
        <ele>852.5</ele>
        <time>2014-08-24T12:45:17Z</time>
      </trkpt>
      <trkpt lat="45.41441" lon="5.86819">
        <ele>852.1</ele>
        <time>2014-08-24T12:45:19Z</time>
      </trkpt>
      <trkpt lat="45.41432" lon="5.86813">
        <ele>851.7</ele>
        <time>2014-08-24T12:45:21Z</time>
      </trkpt>
      <trkpt lat="45.41423" lon="5.86806">
        <ele>851.4</ele>
        <time>2014-08-24T12:45:23Z</time>
      </trkpt>
      <trkpt lat="45.41415" lon="5.86797">
        <ele>850.7</ele>
        <time>2014-08-24T12:45:25Z</time>
      </trkpt>
      <trkpt lat="45.41403" lon="5.86798">
        <ele>849.7</ele>
        <time>2014-08-24T12:45:28Z</time>
      </trkpt>
      <trkpt lat="45.41394" lon="5.86805">
        <ele>849.4</ele>
        <time>2014-08-24T12:45:30Z</time>
      </trkpt>
      <trkpt lat="45.41385" lon="5.86813">
        <ele>849.1</ele>
        <time>2014-08-24T12:45:32Z</time>
      </trkpt>
      <trkpt lat="45.41379" lon="5.86823">
        <ele>849</ele>
        <time>2014-08-24T12:45:34Z</time>
      </trkpt>
      <trkpt lat="45.41372" lon="5.86836">
        <ele>849.4</ele>
        <time>2014-08-24T12:45:37Z</time>
      </trkpt>
      <trkpt lat="45.41369" lon="5.8685">
        <ele>850.6</ele>
        <time>2014-08-24T12:45:41Z</time>
      </trkpt>
      <trkpt lat="45.41365" lon="5.86865">
        <ele>852.7</ele>
        <time>2014-08-24T12:45:46Z</time>
      </trkpt>
      <trkpt lat="45.41359" lon="5.86876">
        <ele>853.8</ele>
        <time>2014-08-24T12:45:50Z</time>
      </trkpt>
      <trkpt lat="45.41352" lon="5.86888">
        <ele>854.4</ele>
        <time>2014-08-24T12:45:54Z</time>
      </trkpt>
      <trkpt lat="45.41344" lon="5.86897">
        <ele>855</ele>
        <time>2014-08-24T12:45:57Z</time>
      </trkpt>
      <trkpt lat="45.41336" lon="5.86906">
        <ele>855.4</ele>
        <time>2014-08-24T12:46:00Z</time>
      </trkpt>
      <trkpt lat="45.41328" lon="5.86912">
        <ele>856.1</ele>
        <time>2014-08-24T12:46:03Z</time>
      </trkpt>
      <trkpt lat="45.41319" lon="5.8692">
        <ele>856.6</ele>
        <time>2014-08-24T12:46:07Z</time>
      </trkpt>
      <trkpt lat="45.41312" lon="5.86929">
        <ele>857</ele>
        <time>2014-08-24T12:46:16Z</time>
      </trkpt>
      <trkpt lat="45.41305" lon="5.86939">
        <ele>857.2</ele>
        <time>2014-08-24T12:46:21Z</time>
      </trkpt>
      <trkpt lat="45.41296" lon="5.86948">
        <ele>857.3</ele>
        <time>2014-08-24T12:46:25Z</time>
      </trkpt>
      <trkpt lat="45.41288" lon="5.86956">
        <ele>857.2</ele>
        <time>2014-08-24T12:46:28Z</time>
      </trkpt>
      <trkpt lat="45.4128" lon="5.86964">
        <ele>857.3</ele>
        <time>2014-08-24T12:46:31Z</time>
      </trkpt>
      <trkpt lat="45.41274" lon="5.86975">
        <ele>857.5</ele>
        <time>2014-08-24T12:46:34Z</time>
      </trkpt>
      <trkpt lat="45.41266" lon="5.86984">
        <ele>857.6</ele>
        <time>2014-08-24T12:46:37Z</time>
      </trkpt>
      <trkpt lat="45.41255" lon="5.86989">
        <ele>857.2</ele>
        <time>2014-08-24T12:46:41Z</time>
      </trkpt>
      <trkpt lat="45.41246" lon="5.86992">
        <ele>856.6</ele>
        <time>2014-08-24T12:46:44Z</time>
      </trkpt>
      <trkpt lat="45.41236" lon="5.86997">
        <ele>856.2</ele>
        <time>2014-08-24T12:46:47Z</time>
      </trkpt>
      <trkpt lat="45.41228" lon="5.87003">
        <ele>855.7</ele>
        <time>2014-08-24T12:46:49Z</time>
      </trkpt>
      <trkpt lat="45.41219" lon="5.8701">
        <ele>855.8</ele>
        <time>2014-08-24T12:46:51Z</time>
      </trkpt>
      <trkpt lat="45.41208" lon="5.87017">
        <ele>854.6</ele>
        <time>2014-08-24T12:46:54Z</time>
      </trkpt>
      <trkpt lat="45.41198" lon="5.87023">
        <ele>854.5</ele>
        <time>2014-08-24T12:46:58Z</time>
      </trkpt>
      <trkpt lat="45.41191" lon="5.87031">
        <ele>856.3</ele>
        <time>2014-08-24T12:47:04Z</time>
      </trkpt>
      <trkpt lat="45.41181" lon="5.8704">
        <ele>857.2</ele>
        <time>2014-08-24T12:47:08Z</time>
      </trkpt>
      <trkpt lat="45.41174" lon="5.87055">
        <ele>857.2</ele>
        <time>2014-08-24T12:47:11Z</time>
      </trkpt>
      <trkpt lat="45.41169" lon="5.87067">
        <ele>856.2</ele>
        <time>2014-08-24T12:47:13Z</time>
      </trkpt>
      <trkpt lat="45.41165" lon="5.8708">
        <ele>855.5</ele>
        <time>2014-08-24T12:47:15Z</time>
      </trkpt>
      <trkpt lat="45.4116" lon="5.87095">
        <ele>855.1</ele>
        <time>2014-08-24T12:47:18Z</time>
      </trkpt>
      <trkpt lat="45.41153" lon="5.87111">
        <ele>854.1</ele>
        <time>2014-08-24T12:47:21Z</time>
      </trkpt>
      <trkpt lat="45.41147" lon="5.87128">
        <ele>851.3</ele>
        <time>2014-08-24T12:47:24Z</time>
      </trkpt>
      <trkpt lat="45.41142" lon="5.8714">
        <ele>852</ele>
        <time>2014-08-24T12:47:26Z</time>
      </trkpt>
      <trkpt lat="45.41135" lon="5.87152">
        <ele>851.2</ele>
        <time>2014-08-24T12:47:29Z</time>
      </trkpt>
      <trkpt lat="45.41127" lon="5.8716">
        <ele>852</ele>
        <time>2014-08-24T12:47:33Z</time>
      </trkpt>
      <trkpt lat="45.41119" lon="5.87167">
        <ele>852.9</ele>
        <time>2014-08-24T12:47:38Z</time>
      </trkpt>
      <trkpt lat="45.4111" lon="5.87171">
        <ele>854.1</ele>
        <time>2014-08-24T12:47:43Z</time>
      </trkpt>
      <trkpt lat="45.41101" lon="5.87176">
        <ele>855.8</ele>
        <time>2014-08-24T12:47:47Z</time>
      </trkpt>
      <trkpt lat="45.41093" lon="5.87186">
        <ele>857.5</ele>
        <time>2014-08-24T12:47:52Z</time>
      </trkpt>
      <trkpt lat="45.41088" lon="5.87201">
        <ele>856.9</ele>
        <time>2014-08-24T12:47:57Z</time>
      </trkpt>
      <trkpt lat="45.41082" lon="5.87213">
        <ele>856.3</ele>
        <time>2014-08-24T12:48:00Z</time>
      </trkpt>
      <trkpt lat="45.41075" lon="5.87223">
        <ele>855.4</ele>
        <time>2014-08-24T12:48:03Z</time>
      </trkpt>
      <trkpt lat="45.41068" lon="5.87239">
        <ele>855.1</ele>
        <time>2014-08-24T12:48:06Z</time>
      </trkpt>
      <trkpt lat="45.41063" lon="5.87253">
        <ele>854</ele>
        <time>2014-08-24T12:48:09Z</time>
      </trkpt>
      <trkpt lat="45.41059" lon="5.87268">
        <ele>853.6</ele>
        <time>2014-08-24T12:48:13Z</time>
      </trkpt>
      <trkpt lat="45.41053" lon="5.87284">
        <ele>853.4</ele>
        <time>2014-08-24T12:48:16Z</time>
      </trkpt>
      <trkpt lat="45.41048" lon="5.87295">
        <ele>853.2</ele>
        <time>2014-08-24T12:48:18Z</time>
      </trkpt>
      <trkpt lat="45.41041" lon="5.87307">
        <ele>852.9</ele>
        <time>2014-08-24T12:48:21Z</time>
      </trkpt>
      <trkpt lat="45.41035" lon="5.87316">
        <ele>852.9</ele>
        <time>2014-08-24T12:48:24Z</time>
      </trkpt>
      <trkpt lat="45.41028" lon="5.87325">
        <ele>852.5</ele>
        <time>2014-08-24T12:48:28Z</time>
      </trkpt>
      <trkpt lat="45.41023" lon="5.87336">
        <ele>852</ele>
        <time>2014-08-24T12:48:31Z</time>
      </trkpt>
      <trkpt lat="45.41018" lon="5.87348">
        <ele>851.1</ele>
        <time>2014-08-24T12:48:33Z</time>
      </trkpt>
      <trkpt lat="45.41016" lon="5.87362">
        <ele>849.1</ele>
        <time>2014-08-24T12:48:35Z</time>
      </trkpt>
      <trkpt lat="45.41014" lon="5.87377">
        <ele>850.2</ele>
        <time>2014-08-24T12:48:38Z</time>
      </trkpt>
      <trkpt lat="45.41011" lon="5.87393">
        <ele>850.2</ele>
        <time>2014-08-24T12:48:41Z</time>
      </trkpt>
      <trkpt lat="45.41008" lon="5.8741">
        <ele>850.8</ele>
        <time>2014-08-24T12:48:44Z</time>
      </trkpt>
      <trkpt lat="45.41004" lon="5.87426">
        <ele>850.1</ele>
        <time>2014-08-24T12:48:47Z</time>
      </trkpt>
      <trkpt lat="45.40997" lon="5.8744">
        <ele>850.3</ele>
        <time>2014-08-24T12:48:50Z</time>
      </trkpt>
      <trkpt lat="45.40989" lon="5.87452">
        <ele>850.4</ele>
        <time>2014-08-24T12:48:53Z</time>
      </trkpt>
      <trkpt lat="45.40982" lon="5.87464">
        <ele>850.8</ele>
        <time>2014-08-24T12:48:56Z</time>
      </trkpt>
      <trkpt lat="45.40975" lon="5.87478">
        <ele>851.9</ele>
        <time>2014-08-24T12:48:59Z</time>
      </trkpt>
      <trkpt lat="45.40969" lon="5.87491">
        <ele>852.3</ele>
        <time>2014-08-24T12:49:02Z</time>
      </trkpt>
      <trkpt lat="45.4096" lon="5.87501">
        <ele>852.4</ele>
        <time>2014-08-24T12:49:06Z</time>
      </trkpt>
      <trkpt lat="45.40958" lon="5.87515">
        <ele>852.1</ele>
        <time>2014-08-24T12:49:09Z</time>
      </trkpt>
      <trkpt lat="45.4095" lon="5.87528">
        <ele>850.1</ele>
        <time>2014-08-24T12:49:15Z</time>
      </trkpt>
      <trkpt lat="45.40944" lon="5.87543">
        <ele>848.2</ele>
        <time>2014-08-24T12:49:18Z</time>
      </trkpt>
      <trkpt lat="45.4094" lon="5.87559">
        <ele>845.6</ele>
        <time>2014-08-24T12:49:21Z</time>
      </trkpt>
      <trkpt lat="45.40937" lon="5.87572">
        <ele>843.8</ele>
        <time>2014-08-24T12:49:24Z</time>
      </trkpt>
      <trkpt lat="45.40933" lon="5.87586">
        <ele>841.3</ele>
        <time>2014-08-24T12:49:26Z</time>
      </trkpt>
      <trkpt lat="45.4093" lon="5.87598">
        <ele>838.8</ele>
        <time>2014-08-24T12:49:28Z</time>
      </trkpt>
      <trkpt lat="45.40923" lon="5.87613">
        <ele>836.1</ele>
        <time>2014-08-24T12:49:31Z</time>
      </trkpt>
      <trkpt lat="45.40915" lon="5.87627">
        <ele>833.2</ele>
        <time>2014-08-24T12:49:34Z</time>
      </trkpt>
      <trkpt lat="45.40907" lon="5.87639">
        <ele>829.9</ele>
        <time>2014-08-24T12:49:37Z</time>
      </trkpt>
      <trkpt lat="45.40899" lon="5.87652">
        <ele>827.1</ele>
        <time>2014-08-24T12:49:40Z</time>
      </trkpt>
      <trkpt lat="45.40888" lon="5.87662">
        <ele>824.3</ele>
        <time>2014-08-24T12:49:43Z</time>
      </trkpt>
      <trkpt lat="45.40883" lon="5.87672">
        <ele>820.7</ele>
        <time>2014-08-24T12:49:45Z</time>
      </trkpt>
      <trkpt lat="45.40873" lon="5.87686">
        <ele>817.9</ele>
        <time>2014-08-24T12:49:48Z</time>
      </trkpt>
      <trkpt lat="45.40867" lon="5.87697">
        <ele>816.3</ele>
        <time>2014-08-24T12:49:50Z</time>
      </trkpt>
      <trkpt lat="45.40862" lon="5.87708">
        <ele>814.7</ele>
        <time>2014-08-24T12:49:52Z</time>
      </trkpt>
      <trkpt lat="45.40854" lon="5.87717">
        <ele>813.1</ele>
        <time>2014-08-24T12:49:55Z</time>
      </trkpt>
      <trkpt lat="45.40845" lon="5.87727">
        <ele>810.2</ele>
        <time>2014-08-24T12:49:58Z</time>
      </trkpt>
      <trkpt lat="45.40838" lon="5.87742">
        <ele>807.9</ele>
        <time>2014-08-24T12:50:01Z</time>
      </trkpt>
      <trkpt lat="45.40832" lon="5.87754">
        <ele>804</ele>
        <time>2014-08-24T12:50:03Z</time>
      </trkpt>
      <trkpt lat="45.40818" lon="5.87772">
        <ele>800</ele>
        <time>2014-08-24T12:50:07Z</time>
      </trkpt>
      <trkpt lat="45.40804" lon="5.87792">
        <ele>796</ele>
        <time>2014-08-24T12:50:11Z</time>
      </trkpt>
      <trkpt lat="45.40797" lon="5.87807">
        <ele>793.7</ele>
        <time>2014-08-24T12:50:14Z</time>
      </trkpt>
      <trkpt lat="45.4079" lon="5.87817">
        <ele>791</ele>
        <time>2014-08-24T12:50:16Z</time>
      </trkpt>
      <trkpt lat="45.40783" lon="5.87828">
        <ele>788.7</ele>
        <time>2014-08-24T12:50:18Z</time>
      </trkpt>
      <trkpt lat="45.40779" lon="5.87841">
        <ele>787.2</ele>
        <time>2014-08-24T12:50:20Z</time>
      </trkpt>
      <trkpt lat="45.40777" lon="5.87855">
        <ele>784.6</ele>
        <time>2014-08-24T12:50:24Z</time>
      </trkpt>
      <trkpt lat="45.4077" lon="5.87863">
        <ele>784.8</ele>
        <time>2014-08-24T12:50:28Z</time>
      </trkpt>
      <trkpt lat="45.40765" lon="5.87879">
        <ele>777</ele>
        <time>2014-08-24T12:50:49Z</time>
      </trkpt>
      <trkpt lat="45.4076" lon="5.87895">
        <ele>787</ele>
        <time>2014-08-24T12:50:57Z</time>
      </trkpt>
      <trkpt lat="45.40751" lon="5.87906">
        <ele>785</ele>
        <time>2014-08-24T12:51:01Z</time>
      </trkpt>
      <trkpt lat="45.40743" lon="5.8792">
        <ele>782</ele>
        <time>2014-08-24T12:51:05Z</time>
      </trkpt>
      <trkpt lat="45.40739" lon="5.87936">
        <ele>781</ele>
        <time>2014-08-24T12:51:09Z</time>
      </trkpt>
      <trkpt lat="45.40738" lon="5.87952">
        <ele>780</ele>
        <time>2014-08-24T12:51:13Z</time>
      </trkpt>
      <trkpt lat="45.40731" lon="5.87979">
        <ele>778</ele>
        <time>2014-08-24T12:51:21Z</time>
      </trkpt>
      <trkpt lat="45.40721" lon="5.87997">
        <ele>776</ele>
        <time>2014-08-24T12:51:25Z</time>
      </trkpt>
      <trkpt lat="45.40707" lon="5.88012">
        <ele>775</ele>
        <time>2014-08-24T12:51:29Z</time>
      </trkpt>
      <trkpt lat="45.40691" lon="5.88026">
        <ele>773</ele>
        <time>2014-08-24T12:51:33Z</time>
      </trkpt>
      <trkpt lat="45.40677" lon="5.88035">
        <ele>771</ele>
        <time>2014-08-24T12:51:37Z</time>
      </trkpt>
      <trkpt lat="45.40666" lon="5.88044">
        <ele>770</ele>
        <time>2014-08-24T12:51:41Z</time>
      </trkpt>
      <trkpt lat="45.40659" lon="5.88035">
        <ele>773</ele>
        <time>2014-08-24T12:52:38Z</time>
      </trkpt>
      <trkpt lat="45.40674" lon="5.88036">
        <ele>772</ele>
        <time>2014-08-24T12:52:57Z</time>
      </trkpt>
      <trkpt lat="45.40692" lon="5.88026">
        <ele>772</ele>
        <time>2014-08-24T12:53:03Z</time>
      </trkpt>
      <trkpt lat="45.40702" lon="5.88017">
        <ele>772</ele>
        <time>2014-08-24T12:53:07Z</time>
      </trkpt>
      <trkpt lat="45.4071" lon="5.88004">
        <ele>773</ele>
        <time>2014-08-24T12:53:11Z</time>
      </trkpt>
      <trkpt lat="45.40715" lon="5.8799">
        <ele>775</ele>
        <time>2014-08-24T12:53:15Z</time>
      </trkpt>
      <trkpt lat="45.40716" lon="5.87975">
        <ele>776</ele>
        <time>2014-08-24T12:53:19Z</time>
      </trkpt>
      <trkpt lat="45.40716" lon="5.8796">
        <ele>778</ele>
        <time>2014-08-24T12:53:23Z</time>
      </trkpt>
      <trkpt lat="45.40715" lon="5.87946">
        <ele>779</ele>
        <time>2014-08-24T12:53:27Z</time>
      </trkpt>
      <trkpt lat="45.40713" lon="5.8793">
        <ele>779</ele>
        <time>2014-08-24T12:53:31Z</time>
      </trkpt>
      <trkpt lat="45.40712" lon="5.87914">
        <ele>780</ele>
        <time>2014-08-24T12:53:35Z</time>
      </trkpt>
      <trkpt lat="45.40714" lon="5.879">
        <ele>781</ele>
        <time>2014-08-24T12:53:39Z</time>
      </trkpt>
      <trkpt lat="45.40718" lon="5.87886">
        <ele>782</ele>
        <time>2014-08-24T12:53:43Z</time>
      </trkpt>
      <trkpt lat="45.40722" lon="5.87872">
        <ele>783</ele>
        <time>2014-08-24T12:53:47Z</time>
      </trkpt>
      <trkpt lat="45.40722" lon="5.8785">
        <ele>784</ele>
        <time>2014-08-24T12:53:55Z</time>
      </trkpt>
      <trkpt lat="45.40721" lon="5.87837">
        <ele>784</ele>
        <time>2014-08-24T12:53:59Z</time>
      </trkpt>
      <trkpt lat="45.40722" lon="5.8782">
        <ele>783</ele>
        <time>2014-08-24T12:54:03Z</time>
      </trkpt>
      <trkpt lat="45.40721" lon="5.87794">
        <ele>781</ele>
        <time>2014-08-24T12:54:07Z</time>
      </trkpt>
      <trkpt lat="45.40722" lon="5.87768">
        <ele>779</ele>
        <time>2014-08-24T12:54:11Z</time>
      </trkpt>
      <trkpt lat="45.40724" lon="5.87747">
        <ele>780</ele>
        <time>2014-08-24T12:54:15Z</time>
      </trkpt>
      <trkpt lat="45.40726" lon="5.87729">
        <ele>780</ele>
        <time>2014-08-24T12:54:19Z</time>
      </trkpt>
      <trkpt lat="45.40727" lon="5.87709">
        <ele>781</ele>
        <time>2014-08-24T12:54:23Z</time>
      </trkpt>
      <trkpt lat="45.40729" lon="5.8769">
        <ele>781</ele>
        <time>2014-08-24T12:54:27Z</time>
      </trkpt>
      <trkpt lat="45.4073" lon="5.87668">
        <ele>781</ele>
        <time>2014-08-24T12:54:31Z</time>
      </trkpt>
      <trkpt lat="45.40732" lon="5.87645">
        <ele>782</ele>
        <time>2014-08-24T12:54:35Z</time>
      </trkpt>
      <trkpt lat="45.40733" lon="5.87625">
        <ele>782</ele>
        <time>2014-08-24T12:54:39Z</time>
      </trkpt>
      <trkpt lat="45.40733" lon="5.87606">
        <ele>783</ele>
        <time>2014-08-24T12:54:43Z</time>
      </trkpt>
      <trkpt lat="45.40732" lon="5.87586">
        <ele>784</ele>
        <time>2014-08-24T12:54:47Z</time>
      </trkpt>
      <trkpt lat="45.40733" lon="5.87569">
        <ele>785</ele>
        <time>2014-08-24T12:54:51Z</time>
      </trkpt>
      <trkpt lat="45.40733" lon="5.87551">
        <ele>785</ele>
        <time>2014-08-24T12:54:55Z</time>
      </trkpt>
      <trkpt lat="45.40732" lon="5.87528">
        <ele>786</ele>
        <time>2014-08-24T12:54:59Z</time>
      </trkpt>
      <trkpt lat="45.40732" lon="5.87504">
        <ele>785</ele>
        <time>2014-08-24T12:55:03Z</time>
      </trkpt>
      <trkpt lat="45.40733" lon="5.87487">
        <ele>785.3</ele>
        <time>2014-08-24T12:55:06Z</time>
      </trkpt>
      <trkpt lat="45.40733" lon="5.87473">
        <ele>785.1</ele>
        <time>2014-08-24T12:55:08Z</time>
      </trkpt>
      <trkpt lat="45.40734" lon="5.87459">
        <ele>785.1</ele>
        <time>2014-08-24T12:55:10Z</time>
      </trkpt>
      <trkpt lat="45.40735" lon="5.87446">
        <ele>785</ele>
        <time>2014-08-24T12:55:12Z</time>
      </trkpt>
      <trkpt lat="45.40737" lon="5.87434">
        <ele>783.6</ele>
        <time>2014-08-24T12:55:14Z</time>
      </trkpt>
      <trkpt lat="45.4074" lon="5.87421">
        <ele>783</ele>
        <time>2014-08-24T12:55:16Z</time>
      </trkpt>
      <trkpt lat="45.40746" lon="5.87411">
        <ele>782.9</ele>
        <time>2014-08-24T12:55:18Z</time>
      </trkpt>
      <trkpt lat="45.40748" lon="5.87394">
        <ele>782</ele>
        <time>2014-08-24T12:55:21Z</time>
      </trkpt>
      <trkpt lat="45.40748" lon="5.8738">
        <ele>781.8</ele>
        <time>2014-08-24T12:55:24Z</time>
      </trkpt>
      <trkpt lat="45.40744" lon="5.87364">
        <ele>782.3</ele>
        <time>2014-08-24T12:55:27Z</time>
      </trkpt>
      <trkpt lat="45.4074" lon="5.87346">
        <ele>781.3</ele>
        <time>2014-08-24T12:55:30Z</time>
      </trkpt>
      <trkpt lat="45.4074" lon="5.87333">
        <ele>781.4</ele>
        <time>2014-08-24T12:55:32Z</time>
      </trkpt>
      <trkpt lat="45.40743" lon="5.87318">
        <ele>781.5</ele>
        <time>2014-08-24T12:55:34Z</time>
      </trkpt>
      <trkpt lat="45.40745" lon="5.87304">
        <ele>780.9</ele>
        <time>2014-08-24T12:55:36Z</time>
      </trkpt>
      <trkpt lat="45.40748" lon="5.87288">
        <ele>780.8</ele>
        <time>2014-08-24T12:55:39Z</time>
      </trkpt>
      <trkpt lat="45.40751" lon="5.87275">
        <ele>780.2</ele>
        <time>2014-08-24T12:55:43Z</time>
      </trkpt>
      <trkpt lat="45.40757" lon="5.87262">
        <ele>781.2</ele>
        <time>2014-08-24T12:55:48Z</time>
      </trkpt>
      <trkpt lat="45.40756" lon="5.87247">
        <ele>780.9</ele>
        <time>2014-08-24T12:55:52Z</time>
      </trkpt>
      <trkpt lat="45.40756" lon="5.87232">
        <ele>782.5</ele>
        <time>2014-08-24T12:55:56Z</time>
      </trkpt>
      <trkpt lat="45.40759" lon="5.87203">
        <ele>781</ele>
        <time>2014-08-24T12:56:00Z</time>
      </trkpt>
      <trkpt lat="45.40764" lon="5.87178">
        <ele>781</ele>
        <time>2014-08-24T12:56:04Z</time>
      </trkpt>
      <trkpt lat="45.40764" lon="5.87157">
        <ele>778</ele>
        <time>2014-08-24T12:56:08Z</time>
      </trkpt>
      <trkpt lat="45.40763" lon="5.87129">
        <ele>775</ele>
        <time>2014-08-24T12:56:12Z</time>
      </trkpt>
      <trkpt lat="45.40757" lon="5.87101">
        <ele>773</ele>
        <time>2014-08-24T12:56:16Z</time>
      </trkpt>
      <trkpt lat="45.40757" lon="5.87075">
        <ele>770</ele>
        <time>2014-08-24T12:56:20Z</time>
      </trkpt>
      <trkpt lat="45.40759" lon="5.87045">
        <ele>767</ele>
        <time>2014-08-24T12:56:24Z</time>
      </trkpt>
      <trkpt lat="45.4076" lon="5.87025">
        <ele>767.3</ele>
        <time>2014-08-24T12:56:27Z</time>
      </trkpt>
      <trkpt lat="45.40757" lon="5.87009">
        <ele>765.1</ele>
        <time>2014-08-24T12:56:29Z</time>
      </trkpt>
      <trkpt lat="45.40755" lon="5.86996">
        <ele>763</ele>
        <time>2014-08-24T12:56:31Z</time>
      </trkpt>
      <trkpt lat="45.40754" lon="5.86977">
        <ele>763.2</ele>
        <time>2014-08-24T12:56:34Z</time>
      </trkpt>
      <trkpt lat="45.40753" lon="5.86963">
        <ele>761.7</ele>
        <time>2014-08-24T12:56:36Z</time>
      </trkpt>
      <trkpt lat="45.40749" lon="5.86947">
        <ele>761</ele>
        <time>2014-08-24T12:56:39Z</time>
      </trkpt>
      <trkpt lat="45.40748" lon="5.86933">
        <ele>760.1</ele>
        <time>2014-08-24T12:56:43Z</time>
      </trkpt>
      <trkpt lat="45.40822" lon="5.87">
        <ele>758</ele>
        <time>2014-08-24T12:56:50Z</time>
      </trkpt>
      <trkpt lat="45.40812" lon="5.86999">
        <ele>749.4</ele>
        <time>2014-08-24T12:57:05Z</time>
      </trkpt>
      <trkpt lat="45.40801" lon="5.86997">
        <ele>757</ele>
        <time>2014-08-24T12:57:19Z</time>
      </trkpt>
      <trkpt lat="45.40792" lon="5.86996">
        <ele>755.5</ele>
        <time>2014-08-24T12:57:22Z</time>
      </trkpt>
      <trkpt lat="45.40783" lon="5.86987">
        <ele>754</ele>
        <time>2014-08-24T12:57:25Z</time>
      </trkpt>
      <trkpt lat="45.40785" lon="5.86971">
        <ele>753.6</ele>
        <time>2014-08-24T12:57:29Z</time>
      </trkpt>
      <trkpt lat="45.40784" lon="5.86957">
        <ele>752.2</ele>
        <time>2014-08-24T12:57:35Z</time>
      </trkpt>
      <trkpt lat="45.40789" lon="5.86946">
        <ele>752.4</ele>
        <time>2014-08-24T12:57:39Z</time>
      </trkpt>
      <trkpt lat="45.40797" lon="5.86936">
        <ele>753.5</ele>
        <time>2014-08-24T12:57:43Z</time>
      </trkpt>
      <trkpt lat="45.408" lon="5.86923">
        <ele>754.2</ele>
        <time>2014-08-24T12:57:47Z</time>
      </trkpt>
      <trkpt lat="45.40807" lon="5.86911">
        <ele>754.7</ele>
        <time>2014-08-24T12:57:51Z</time>
      </trkpt>
      <trkpt lat="45.40811" lon="5.86899">
        <ele>755.7</ele>
        <time>2014-08-24T12:57:55Z</time>
      </trkpt>
      <trkpt lat="45.40813" lon="5.86884">
        <ele>755.5</ele>
        <time>2014-08-24T12:58:00Z</time>
      </trkpt>
      <trkpt lat="45.40821" lon="5.8687">
        <ele>756.2</ele>
        <time>2014-08-24T12:58:08Z</time>
      </trkpt>
      <trkpt lat="45.40828" lon="5.86862">
        <ele>757</ele>
        <time>2014-08-24T12:58:14Z</time>
      </trkpt>
      <trkpt lat="45.40831" lon="5.86847">
        <ele>757.8</ele>
        <time>2014-08-24T12:58:21Z</time>
      </trkpt>
      <trkpt lat="45.40835" lon="5.86835">
        <ele>759.3</ele>
        <time>2014-08-24T12:58:25Z</time>
      </trkpt>
      <trkpt lat="45.40834" lon="5.86821">
        <ele>759.9</ele>
        <time>2014-08-24T12:58:29Z</time>
      </trkpt>
      <trkpt lat="45.40834" lon="5.86805">
        <ele>761</ele>
        <time>2014-08-24T12:58:34Z</time>
      </trkpt>
      <trkpt lat="45.40837" lon="5.86792">
        <ele>762</ele>
        <time>2014-08-24T12:58:40Z</time>
      </trkpt>
      <trkpt lat="45.40845" lon="5.86783">
        <ele>762.4</ele>
        <time>2014-08-24T12:58:48Z</time>
      </trkpt>
      <trkpt lat="45.40849" lon="5.86769">
        <ele>762.3</ele>
        <time>2014-08-24T12:58:53Z</time>
      </trkpt>
      <trkpt lat="45.40851" lon="5.86753">
        <ele>761.7</ele>
        <time>2014-08-24T12:58:57Z</time>
      </trkpt>
      <trkpt lat="45.40864" lon="5.86743">
        <ele>761.4</ele>
        <time>2014-08-24T12:59:00Z</time>
      </trkpt>
      <trkpt lat="45.40873" lon="5.86734">
        <ele>760.9</ele>
        <time>2014-08-24T12:59:06Z</time>
      </trkpt>
      <trkpt lat="45.4088" lon="5.86722">
        <ele>762.4</ele>
        <time>2014-08-24T12:59:13Z</time>
      </trkpt>
      <trkpt lat="45.40882" lon="5.8671">
        <ele>762.5</ele>
        <time>2014-08-24T12:59:17Z</time>
      </trkpt>
      <trkpt lat="45.40883" lon="5.86693">
        <ele>762.2</ele>
        <time>2014-08-24T12:59:21Z</time>
      </trkpt>
      <trkpt lat="45.40884" lon="5.86678">
        <ele>762.3</ele>
        <time>2014-08-24T12:59:26Z</time>
      </trkpt>
      <trkpt lat="45.40882" lon="5.86663">
        <ele>762.1</ele>
        <time>2014-08-24T12:59:31Z</time>
      </trkpt>
      <trkpt lat="45.40881" lon="5.8665">
        <ele>757</ele>
        <time>2014-08-24T12:59:36Z</time>
      </trkpt>
      <trkpt lat="45.40885" lon="5.86638">
        <ele>754.7</ele>
        <time>2014-08-24T12:59:39Z</time>
      </trkpt>
      <trkpt lat="45.40885" lon="5.86624">
        <ele>753.2</ele>
        <time>2014-08-24T12:59:41Z</time>
      </trkpt>
      <trkpt lat="45.40886" lon="5.86607">
        <ele>749</ele>
        <time>2014-08-24T12:59:44Z</time>
      </trkpt>
      <trkpt lat="45.40893" lon="5.86592">
        <ele>746.5</ele>
        <time>2014-08-24T12:59:47Z</time>
      </trkpt>
      <trkpt lat="45.40896" lon="5.86578">
        <ele>744.8</ele>
        <time>2014-08-24T12:59:49Z</time>
      </trkpt>
      <trkpt lat="45.409" lon="5.86565">
        <ele>744.3</ele>
        <time>2014-08-24T12:59:52Z</time>
      </trkpt>
      <trkpt lat="45.40902" lon="5.86546">
        <ele>741.8</ele>
        <time>2014-08-24T12:59:55Z</time>
      </trkpt>
      <trkpt lat="45.40903" lon="5.86531">
        <ele>738.6</ele>
        <time>2014-08-24T12:59:58Z</time>
      </trkpt>
      <trkpt lat="45.40909" lon="5.86517">
        <ele>735.8</ele>
        <time>2014-08-24T13:00:03Z</time>
      </trkpt>
      <trkpt lat="45.40913" lon="5.865">
        <ele>733.4</ele>
        <time>2014-08-24T13:00:06Z</time>
      </trkpt>
      <trkpt lat="45.40913" lon="5.86485">
        <ele>731.2</ele>
        <time>2014-08-24T13:00:09Z</time>
      </trkpt>
      <trkpt lat="45.40911" lon="5.8647">
        <ele>729.6</ele>
        <time>2014-08-24T13:00:13Z</time>
      </trkpt>
      <trkpt lat="45.40907" lon="5.86451">
        <ele>728</ele>
        <time>2014-08-24T13:00:17Z</time>
      </trkpt>
      <trkpt lat="45.40904" lon="5.86436">
        <ele>728.6</ele>
        <time>2014-08-24T13:00:22Z</time>
      </trkpt>
      <trkpt lat="45.409" lon="5.86424">
        <ele>728.9</ele>
        <time>2014-08-24T13:00:25Z</time>
      </trkpt>
      <trkpt lat="45.40913" lon="5.86398">
        <ele>728</ele>
        <time>2014-08-24T13:00:31Z</time>
      </trkpt>
      <trkpt lat="45.4091" lon="5.86376">
        <ele>728.3</ele>
        <time>2014-08-24T13:00:36Z</time>
      </trkpt>
      <trkpt lat="45.40936" lon="5.86367">
        <ele>728</ele>
        <time>2014-08-24T13:00:43Z</time>
      </trkpt>
      <trkpt lat="45.40959" lon="5.8633">
        <ele>729</ele>
        <time>2014-08-24T13:00:52Z</time>
      </trkpt>
      <trkpt lat="45.40958" lon="5.86315">
        <ele>729.9</ele>
        <time>2014-08-24T13:00:57Z</time>
      </trkpt>
      <trkpt lat="45.40984" lon="5.86309">
        <ele>728</ele>
        <time>2014-08-24T13:01:05Z</time>
      </trkpt>
      <trkpt lat="45.40994" lon="5.86287">
        <ele>727</ele>
        <time>2014-08-24T13:01:10Z</time>
      </trkpt>
      <trkpt lat="45.41001" lon="5.86273">
        <ele>726.4</ele>
        <time>2014-08-24T13:01:13Z</time>
      </trkpt>
      <trkpt lat="45.41002" lon="5.86257">
        <ele>724.5</ele>
        <time>2014-08-24T13:01:16Z</time>
      </trkpt>
      <trkpt lat="45.41002" lon="5.86244">
        <ele>723.7</ele>
        <time>2014-08-24T13:01:19Z</time>
      </trkpt>
      <trkpt lat="45.41" lon="5.86228">
        <ele>722.7</ele>
        <time>2014-08-24T13:01:23Z</time>
      </trkpt>
      <trkpt lat="45.40997" lon="5.86213">
        <ele>721</ele>
        <time>2014-08-24T13:01:27Z</time>
      </trkpt>
      <trkpt lat="45.40993" lon="5.86199">
        <ele>720.6</ele>
        <time>2014-08-24T13:01:30Z</time>
      </trkpt>
      <trkpt lat="45.40991" lon="5.86179">
        <ele>721.1</ele>
        <time>2014-08-24T13:01:33Z</time>
      </trkpt>
      <trkpt lat="45.40991" lon="5.86163">
        <ele>719</ele>
        <time>2014-08-24T13:01:36Z</time>
      </trkpt>
      <trkpt lat="45.40989" lon="5.8615">
        <ele>717.4</ele>
        <time>2014-08-24T13:01:39Z</time>
      </trkpt>
      <trkpt lat="45.40987" lon="5.86135">
        <ele>714.8</ele>
        <time>2014-08-24T13:01:43Z</time>
      </trkpt>
      <trkpt lat="45.4099" lon="5.86122">
        <ele>713.6</ele>
        <time>2014-08-24T13:01:47Z</time>
      </trkpt>
      <trkpt lat="45.4099" lon="5.86106">
        <ele>710</ele>
        <time>2014-08-24T13:01:52Z</time>
      </trkpt>
      <trkpt lat="45.40993" lon="5.86093">
        <ele>706.4</ele>
        <time>2014-08-24T13:01:57Z</time>
      </trkpt>
      <trkpt lat="45.40999" lon="5.86082">
        <ele>701.7</ele>
        <time>2014-08-24T13:02:04Z</time>
      </trkpt>
      <trkpt lat="45.41006" lon="5.86073">
        <ele>700</ele>
        <time>2014-08-24T13:02:09Z</time>
      </trkpt>
      <trkpt lat="45.41014" lon="5.86065">
        <ele>699</ele>
        <time>2014-08-24T13:02:18Z</time>
      </trkpt>
      <trkpt lat="45.4102" lon="5.86054">
        <ele>699</ele>
        <time>2014-08-24T13:02:22Z</time>
      </trkpt>
      <trkpt lat="45.41026" lon="5.86039">
        <ele>698.4</ele>
        <time>2014-08-24T13:02:25Z</time>
      </trkpt>
      <trkpt lat="45.41037" lon="5.86026">
        <ele>697.8</ele>
        <time>2014-08-24T13:02:27Z</time>
      </trkpt>
      <trkpt lat="45.41043" lon="5.86013">
        <ele>697.5</ele>
        <time>2014-08-24T13:02:29Z</time>
      </trkpt>
      <trkpt lat="45.4105" lon="5.85998">
        <ele>696.9</ele>
        <time>2014-08-24T13:02:31Z</time>
      </trkpt>
      <trkpt lat="45.4106" lon="5.85982">
        <ele>696.3</ele>
        <time>2014-08-24T13:02:33Z</time>
      </trkpt>
      <trkpt lat="45.41066" lon="5.85957">
        <ele>694</ele>
        <time>2014-08-24T13:02:35Z</time>
      </trkpt>
      <trkpt lat="45.41073" lon="5.85931">
        <ele>693.9</ele>
        <time>2014-08-24T13:02:38Z</time>
      </trkpt>
      <trkpt lat="45.41085" lon="5.85909">
        <ele>692</ele>
        <time>2014-08-24T13:02:40Z</time>
      </trkpt>
      <trkpt lat="45.41098" lon="5.85891">
        <ele>691.1</ele>
        <time>2014-08-24T13:02:43Z</time>
      </trkpt>
      <trkpt lat="45.41108" lon="5.85878">
        <ele>689.7</ele>
        <time>2014-08-24T13:02:45Z</time>
      </trkpt>
      <trkpt lat="45.41119" lon="5.85863">
        <ele>688.1</ele>
        <time>2014-08-24T13:02:47Z</time>
      </trkpt>
      <trkpt lat="45.41129" lon="5.85848">
        <ele>686.7</ele>
        <time>2014-08-24T13:02:49Z</time>
      </trkpt>
      <trkpt lat="45.41141" lon="5.85825">
        <ele>684</ele>
        <time>2014-08-24T13:02:51Z</time>
      </trkpt>
      <trkpt lat="45.41171" lon="5.85788">
        <ele>682</ele>
        <time>2014-08-24T13:02:55Z</time>
      </trkpt>
      <trkpt lat="45.41198" lon="5.85753">
        <ele>679</ele>
        <time>2014-08-24T13:02:59Z</time>
      </trkpt>
      <trkpt lat="45.41214" lon="5.85732">
        <ele>678.2</ele>
        <time>2014-08-24T13:03:02Z</time>
      </trkpt>
      <trkpt lat="45.41227" lon="5.85717">
        <ele>676.9</ele>
        <time>2014-08-24T13:03:04Z</time>
      </trkpt>
      <trkpt lat="45.4124" lon="5.85703">
        <ele>675.6</ele>
        <time>2014-08-24T13:03:06Z</time>
      </trkpt>
      <trkpt lat="45.41262" lon="5.85677">
        <ele>673</ele>
        <time>2014-08-24T13:03:09Z</time>
      </trkpt>
      <trkpt lat="45.41294" lon="5.85645">
        <ele>670</ele>
        <time>2014-08-24T13:03:13Z</time>
      </trkpt>
      <trkpt lat="45.41324" lon="5.85614">
        <ele>668</ele>
        <time>2014-08-24T13:03:17Z</time>
      </trkpt>
      <trkpt lat="45.41351" lon="5.85587">
        <ele>667</ele>
        <time>2014-08-24T13:03:21Z</time>
      </trkpt>
      <trkpt lat="45.41363" lon="5.85576">
        <ele>655.7</ele>
        <time>2014-08-24T13:03:24Z</time>
      </trkpt>
      <trkpt lat="45.41371" lon="5.85569">
        <ele>660.3</ele>
        <time>2014-08-24T13:03:26Z</time>
      </trkpt>
      <trkpt lat="45.41377" lon="5.85558">
        <ele>663.2</ele>
        <time>2014-08-24T13:03:29Z</time>
      </trkpt>
      <trkpt lat="45.41388" lon="5.85549">
        <ele>664.1</ele>
        <time>2014-08-24T13:03:32Z</time>
      </trkpt>
      <trkpt lat="45.41394" lon="5.85537">
        <ele>664</ele>
        <time>2014-08-24T13:03:35Z</time>
      </trkpt>
      <trkpt lat="45.41405" lon="5.85533">
        <ele>663.6</ele>
        <time>2014-08-24T13:03:37Z</time>
      </trkpt>
      <trkpt lat="45.41414" lon="5.85529">
        <ele>663</ele>
        <time>2014-08-24T13:03:39Z</time>
      </trkpt>
      <trkpt lat="45.41415" lon="5.85512">
        <ele>662</ele>
        <time>2014-08-24T13:03:42Z</time>
      </trkpt>
      <trkpt lat="45.41415" lon="5.85492">
        <ele>660.7</ele>
        <time>2014-08-24T13:03:45Z</time>
      </trkpt>
      <trkpt lat="45.41416" lon="5.85476">
        <ele>660.2</ele>
        <time>2014-08-24T13:03:48Z</time>
      </trkpt>
      <trkpt lat="45.41418" lon="5.85463">
        <ele>659.8</ele>
        <time>2014-08-24T13:03:51Z</time>
      </trkpt>
      <trkpt lat="45.41405" lon="5.85459">
        <ele>659.5</ele>
        <time>2014-08-24T13:04:12Z</time>
      </trkpt>
      <trkpt lat="45.41395" lon="5.85458">
        <ele>658.3</ele>
        <time>2014-08-24T13:04:15Z</time>
      </trkpt>
      <trkpt lat="45.41384" lon="5.85458">
        <ele>659.9</ele>
        <time>2014-08-24T13:04:19Z</time>
      </trkpt>
      <trkpt lat="45.41374" lon="5.85455">
        <ele>660.6</ele>
        <time>2014-08-24T13:04:23Z</time>
      </trkpt>
      <trkpt lat="45.41366" lon="5.85447">
        <ele>660.9</ele>
        <time>2014-08-24T13:04:26Z</time>
      </trkpt>
      <trkpt lat="45.41359" lon="5.85435">
        <ele>661.4</ele>
        <time>2014-08-24T13:04:29Z</time>
      </trkpt>
      <trkpt lat="45.41353" lon="5.85425">
        <ele>661.7</ele>
        <time>2014-08-24T13:04:32Z</time>
      </trkpt>
      <trkpt lat="45.41345" lon="5.85417">
        <ele>662.3</ele>
        <time>2014-08-24T13:04:35Z</time>
      </trkpt>
      <trkpt lat="45.41337" lon="5.85409">
        <ele>662.9</ele>
        <time>2014-08-24T13:04:38Z</time>
      </trkpt>
      <trkpt lat="45.41328" lon="5.85401">
        <ele>663.5</ele>
        <time>2014-08-24T13:04:41Z</time>
      </trkpt>
      <trkpt lat="45.4132" lon="5.85393">
        <ele>664</ele>
        <time>2014-08-24T13:04:44Z</time>
      </trkpt>
      <trkpt lat="45.41312" lon="5.85386">
        <ele>664.4</ele>
        <time>2014-08-24T13:04:47Z</time>
      </trkpt>
      <trkpt lat="45.41303" lon="5.8538">
        <ele>665.2</ele>
        <time>2014-08-24T13:04:50Z</time>
      </trkpt>
      <trkpt lat="45.41292" lon="5.85374">
        <ele>666.4</ele>
        <time>2014-08-24T13:04:54Z</time>
      </trkpt>
      <trkpt lat="45.41282" lon="5.85372">
        <ele>666.3</ele>
        <time>2014-08-24T13:04:58Z</time>
      </trkpt>
      <trkpt lat="45.41272" lon="5.85366">
        <ele>667.4</ele>
        <time>2014-08-24T13:05:02Z</time>
      </trkpt>
      <trkpt lat="45.41261" lon="5.8536">
        <ele>669</ele>
        <time>2014-08-24T13:05:06Z</time>
      </trkpt>
      <trkpt lat="45.41251" lon="5.85355">
        <ele>669.4</ele>
        <time>2014-08-24T13:05:10Z</time>
      </trkpt>
      <trkpt lat="45.41241" lon="5.85349">
        <ele>669.7</ele>
        <time>2014-08-24T13:05:14Z</time>
      </trkpt>
      <trkpt lat="45.41231" lon="5.85344">
        <ele>670.1</ele>
        <time>2014-08-24T13:05:18Z</time>
      </trkpt>
      <trkpt lat="45.41221" lon="5.85339">
        <ele>670.4</ele>
        <time>2014-08-24T13:05:22Z</time>
      </trkpt>
      <trkpt lat="45.41212" lon="5.85333">
        <ele>671.1</ele>
        <time>2014-08-24T13:05:26Z</time>
      </trkpt>
      <trkpt lat="45.41205" lon="5.85324">
        <ele>672</ele>
        <time>2014-08-24T13:05:30Z</time>
      </trkpt>
      <trkpt lat="45.41198" lon="5.85316">
        <ele>672.7</ele>
        <time>2014-08-24T13:05:34Z</time>
      </trkpt>
      <trkpt lat="45.41189" lon="5.85307">
        <ele>674.2</ele>
        <time>2014-08-24T13:05:39Z</time>
      </trkpt>
      <trkpt lat="45.41179" lon="5.85301">
        <ele>675.5</ele>
        <time>2014-08-24T13:05:44Z</time>
      </trkpt>
      <trkpt lat="45.4117" lon="5.85297">
        <ele>677.1</ele>
        <time>2014-08-24T13:05:49Z</time>
      </trkpt>
      <trkpt lat="45.4116" lon="5.85298">
        <ele>678.6</ele>
        <time>2014-08-24T13:05:55Z</time>
      </trkpt>
      <trkpt lat="45.41152" lon="5.85304">
        <ele>680</ele>
        <time>2014-08-24T13:06:00Z</time>
      </trkpt>
      <trkpt lat="45.41142" lon="5.85306">
        <ele>681</ele>
        <time>2014-08-24T13:06:05Z</time>
      </trkpt>
      <trkpt lat="45.41132" lon="5.85298">
        <ele>682.3</ele>
        <time>2014-08-24T13:06:10Z</time>
      </trkpt>
      <trkpt lat="45.41125" lon="5.85288">
        <ele>683.2</ele>
        <time>2014-08-24T13:06:14Z</time>
      </trkpt>
      <trkpt lat="45.4112" lon="5.85276">
        <ele>684.3</ele>
        <time>2014-08-24T13:06:19Z</time>
      </trkpt>
      <trkpt lat="45.41116" lon="5.85262">
        <ele>685.4</ele>
        <time>2014-08-24T13:06:24Z</time>
      </trkpt>
      <trkpt lat="45.41114" lon="5.85248">
        <ele>686.1</ele>
        <time>2014-08-24T13:06:29Z</time>
      </trkpt>
      <trkpt lat="45.41115" lon="5.85233">
        <ele>687.2</ele>
        <time>2014-08-24T13:06:34Z</time>
      </trkpt>
      <trkpt lat="45.41119" lon="5.85219">
        <ele>688.7</ele>
        <time>2014-08-24T13:06:39Z</time>
      </trkpt>
      <trkpt lat="45.41127" lon="5.85212">
        <ele>690.3</ele>
        <time>2014-08-24T13:06:44Z</time>
      </trkpt>
      <trkpt lat="45.41137" lon="5.85212">
        <ele>692.5</ele>
        <time>2014-08-24T13:06:51Z</time>
      </trkpt>
      <trkpt lat="45.41147" lon="5.85216">
        <ele>694.3</ele>
        <time>2014-08-24T13:06:57Z</time>
      </trkpt>
      <trkpt lat="45.41157" lon="5.85218">
        <ele>695.8</ele>
        <time>2014-08-24T13:07:02Z</time>
      </trkpt>
      <trkpt lat="45.41166" lon="5.8522">
        <ele>696.6</ele>
        <time>2014-08-24T13:07:06Z</time>
      </trkpt>
      <trkpt lat="45.41175" lon="5.85219">
        <ele>697.5</ele>
        <time>2014-08-24T13:07:10Z</time>
      </trkpt>
      <trkpt lat="45.41171" lon="5.85205">
        <ele>698.1</ele>
        <time>2014-08-24T13:07:15Z</time>
      </trkpt>
      <trkpt lat="45.41163" lon="5.85194">
        <ele>698.8</ele>
        <time>2014-08-24T13:07:20Z</time>
      </trkpt>
      <trkpt lat="45.41155" lon="5.85185">
        <ele>699.4</ele>
        <time>2014-08-24T13:07:25Z</time>
      </trkpt>
      <trkpt lat="45.41148" lon="5.85176">
        <ele>700.3</ele>
        <time>2014-08-24T13:07:30Z</time>
      </trkpt>
      <trkpt lat="45.41141" lon="5.85166">
        <ele>701.3</ele>
        <time>2014-08-24T13:07:35Z</time>
      </trkpt>
      <trkpt lat="45.41133" lon="5.85157">
        <ele>702.6</ele>
        <time>2014-08-24T13:07:40Z</time>
      </trkpt>
      <trkpt lat="45.41124" lon="5.85148">
        <ele>703.7</ele>
        <time>2014-08-24T13:07:45Z</time>
      </trkpt>
      <trkpt lat="45.41115" lon="5.85139">
        <ele>704.8</ele>
        <time>2014-08-24T13:07:50Z</time>
      </trkpt>
      <trkpt lat="45.41106" lon="5.85131">
        <ele>705.8</ele>
        <time>2014-08-24T13:07:55Z</time>
      </trkpt>
      <trkpt lat="45.41097" lon="5.85125">
        <ele>707</ele>
        <time>2014-08-24T13:08:00Z</time>
      </trkpt>
      <trkpt lat="45.41088" lon="5.8512">
        <ele>707.8</ele>
        <time>2014-08-24T13:08:05Z</time>
      </trkpt>
      <trkpt lat="45.41079" lon="5.85117">
        <ele>708.6</ele>
        <time>2014-08-24T13:08:10Z</time>
      </trkpt>
      <trkpt lat="45.41069" lon="5.85112">
        <ele>709.6</ele>
        <time>2014-08-24T13:08:15Z</time>
      </trkpt>
      <trkpt lat="45.41058" lon="5.85108">
        <ele>710.5</ele>
        <time>2014-08-24T13:08:19Z</time>
      </trkpt>
      <trkpt lat="45.41049" lon="5.85102">
        <ele>711.4</ele>
        <time>2014-08-24T13:08:23Z</time>
      </trkpt>
      <trkpt lat="45.4104" lon="5.85097">
        <ele>711.8</ele>
        <time>2014-08-24T13:08:27Z</time>
      </trkpt>
      <trkpt lat="45.41032" lon="5.85088">
        <ele>712.6</ele>
        <time>2014-08-24T13:08:31Z</time>
      </trkpt>
      <trkpt lat="45.41026" lon="5.85077">
        <ele>713.2</ele>
        <time>2014-08-24T13:08:35Z</time>
      </trkpt>
      <trkpt lat="45.4102" lon="5.85066">
        <ele>713.5</ele>
        <time>2014-08-24T13:08:39Z</time>
      </trkpt>
      <trkpt lat="45.41014" lon="5.85055">
        <ele>714</ele>
        <time>2014-08-24T13:08:43Z</time>
      </trkpt>
      <trkpt lat="45.41008" lon="5.85044">
        <ele>714.9</ele>
        <time>2014-08-24T13:08:47Z</time>
      </trkpt>
      <trkpt lat="45.41002" lon="5.85034">
        <ele>715.8</ele>
        <time>2014-08-24T13:08:51Z</time>
      </trkpt>
      <trkpt lat="45.40996" lon="5.85024">
        <ele>717</ele>
        <time>2014-08-24T13:08:55Z</time>
      </trkpt>
      <trkpt lat="45.40987" lon="5.85014">
        <ele>718</ele>
        <time>2014-08-24T13:09:00Z</time>
      </trkpt>
      <trkpt lat="45.40979" lon="5.85007">
        <ele>719</ele>
        <time>2014-08-24T13:09:04Z</time>
      </trkpt>
      <trkpt lat="45.4097" lon="5.84999">
        <ele>720</ele>
        <time>2014-08-24T13:09:09Z</time>
      </trkpt>
      <trkpt lat="45.4096" lon="5.84993">
        <ele>720.8</ele>
        <time>2014-08-24T13:09:14Z</time>
      </trkpt>
      <trkpt lat="45.40951" lon="5.84987">
        <ele>722.1</ele>
        <time>2014-08-24T13:09:19Z</time>
      </trkpt>
      <trkpt lat="45.40943" lon="5.84979">
        <ele>723.4</ele>
        <time>2014-08-24T13:09:24Z</time>
      </trkpt>
      <trkpt lat="45.40934" lon="5.84971">
        <ele>724.4</ele>
        <time>2014-08-24T13:09:29Z</time>
      </trkpt>
      <trkpt lat="45.40926" lon="5.84963">
        <ele>725.6</ele>
        <time>2014-08-24T13:09:34Z</time>
      </trkpt>
      <trkpt lat="45.40917" lon="5.84956">
        <ele>726.5</ele>
        <time>2014-08-24T13:09:39Z</time>
      </trkpt>
      <trkpt lat="45.4091" lon="5.84948">
        <ele>729.7</ele>
        <time>2014-08-24T13:09:44Z</time>
      </trkpt>
      <trkpt lat="45.40901" lon="5.84939">
        <ele>729.4</ele>
        <time>2014-08-24T13:09:49Z</time>
      </trkpt>
      <trkpt lat="45.40892" lon="5.84934">
        <ele>730.4</ele>
        <time>2014-08-24T13:09:54Z</time>
      </trkpt>
      <trkpt lat="45.40883" lon="5.84925">
        <ele>731.2</ele>
        <time>2014-08-24T13:09:59Z</time>
      </trkpt>
      <trkpt lat="45.40875" lon="5.84918">
        <ele>732.2</ele>
        <time>2014-08-24T13:10:04Z</time>
      </trkpt>
      <trkpt lat="45.40868" lon="5.84908">
        <ele>733.2</ele>
        <time>2014-08-24T13:10:09Z</time>
      </trkpt>
      <trkpt lat="45.4086" lon="5.84899">
        <ele>734.1</ele>
        <time>2014-08-24T13:10:14Z</time>
      </trkpt>
      <trkpt lat="45.40852" lon="5.8489">
        <ele>735.4</ele>
        <time>2014-08-24T13:10:19Z</time>
      </trkpt>
      <trkpt lat="45.40844" lon="5.84879">
        <ele>736.5</ele>
        <time>2014-08-24T13:10:24Z</time>
      </trkpt>
      <trkpt lat="45.40836" lon="5.84871">
        <ele>737.8</ele>
        <time>2014-08-24T13:10:29Z</time>
      </trkpt>
      <trkpt lat="45.40827" lon="5.84865">
        <ele>738.9</ele>
        <time>2014-08-24T13:10:34Z</time>
      </trkpt>
      <trkpt lat="45.40817" lon="5.84864">
        <ele>740.2</ele>
        <time>2014-08-24T13:10:39Z</time>
      </trkpt>
      <trkpt lat="45.40808" lon="5.84865">
        <ele>741.7</ele>
        <time>2014-08-24T13:10:44Z</time>
      </trkpt>
      <trkpt lat="45.40798" lon="5.84867">
        <ele>742.9</ele>
        <time>2014-08-24T13:10:49Z</time>
      </trkpt>
      <trkpt lat="45.40789" lon="5.84867">
        <ele>744.3</ele>
        <time>2014-08-24T13:10:54Z</time>
      </trkpt>
      <trkpt lat="45.40779" lon="5.84867">
        <ele>745.8</ele>
        <time>2014-08-24T13:10:59Z</time>
      </trkpt>
      <trkpt lat="45.4077" lon="5.84867">
        <ele>746</ele>
        <time>2014-08-24T13:11:03Z</time>
      </trkpt>
      <trkpt lat="45.4076" lon="5.84869">
        <ele>747.7</ele>
        <time>2014-08-24T13:11:09Z</time>
      </trkpt>
      <trkpt lat="45.4075" lon="5.84871">
        <ele>748.9</ele>
        <time>2014-08-24T13:11:14Z</time>
      </trkpt>
      <trkpt lat="45.40741" lon="5.84876">
        <ele>749.9</ele>
        <time>2014-08-24T13:11:19Z</time>
      </trkpt>
      <trkpt lat="45.40731" lon="5.84877">
        <ele>750.9</ele>
        <time>2014-08-24T13:11:24Z</time>
      </trkpt>
      <trkpt lat="45.40721" lon="5.84877">
        <ele>752.1</ele>
        <time>2014-08-24T13:11:29Z</time>
      </trkpt>
      <trkpt lat="45.40712" lon="5.84882">
        <ele>753.1</ele>
        <time>2014-08-24T13:11:34Z</time>
      </trkpt>
      <trkpt lat="45.40704" lon="5.84889">
        <ele>754.6</ele>
        <time>2014-08-24T13:11:39Z</time>
      </trkpt>
      <trkpt lat="45.40696" lon="5.84897">
        <ele>755.8</ele>
        <time>2014-08-24T13:11:44Z</time>
      </trkpt>
      <trkpt lat="45.40686" lon="5.84899">
        <ele>756.3</ele>
        <time>2014-08-24T13:11:49Z</time>
      </trkpt>
      <trkpt lat="45.40678" lon="5.84892">
        <ele>756.6</ele>
        <time>2014-08-24T13:11:53Z</time>
      </trkpt>
      <trkpt lat="45.40669" lon="5.84883">
        <ele>757.8</ele>
        <time>2014-08-24T13:11:58Z</time>
      </trkpt>
      <trkpt lat="45.40664" lon="5.84873">
        <ele>758.7</ele>
        <time>2014-08-24T13:12:02Z</time>
      </trkpt>
      <trkpt lat="45.40658" lon="5.84863">
        <ele>759.7</ele>
        <time>2014-08-24T13:12:06Z</time>
      </trkpt>
      <trkpt lat="45.4065" lon="5.84852">
        <ele>761.1</ele>
        <time>2014-08-24T13:12:11Z</time>
      </trkpt>
      <trkpt lat="45.40641" lon="5.84843">
        <ele>762.3</ele>
        <time>2014-08-24T13:12:16Z</time>
      </trkpt>
      <trkpt lat="45.40632" lon="5.84838">
        <ele>762.9</ele>
        <time>2014-08-24T13:12:21Z</time>
      </trkpt>
      <trkpt lat="45.40622" lon="5.84832">
        <ele>763</ele>
        <time>2014-08-24T13:12:25Z</time>
      </trkpt>
      <trkpt lat="45.40612" lon="5.84826">
        <ele>763.5</ele>
        <time>2014-08-24T13:12:29Z</time>
      </trkpt>
      <trkpt lat="45.40603" lon="5.84821">
        <ele>764.1</ele>
        <time>2014-08-24T13:12:33Z</time>
      </trkpt>
      <trkpt lat="45.40594" lon="5.84815">
        <ele>765.4</ele>
        <time>2014-08-24T13:12:39Z</time>
      </trkpt>
      <trkpt lat="45.40585" lon="5.84812">
        <ele>767.3</ele>
        <time>2014-08-24T13:12:45Z</time>
      </trkpt>
      <trkpt lat="45.40576" lon="5.8481">
        <ele>768.1</ele>
        <time>2014-08-24T13:12:51Z</time>
      </trkpt>
      <trkpt lat="45.40565" lon="5.84806">
        <ele>769.7</ele>
        <time>2014-08-24T13:12:58Z</time>
      </trkpt>
      <trkpt lat="45.40555" lon="5.84805">
        <ele>770.5</ele>
        <time>2014-08-24T13:13:02Z</time>
      </trkpt>
      <trkpt lat="45.40545" lon="5.84804">
        <ele>770.9</ele>
        <time>2014-08-24T13:13:06Z</time>
      </trkpt>
      <trkpt lat="45.40535" lon="5.84803">
        <ele>771.7</ele>
        <time>2014-08-24T13:13:10Z</time>
      </trkpt>
      <trkpt lat="45.40526" lon="5.84807">
        <ele>773.4</ele>
        <time>2014-08-24T13:13:16Z</time>
      </trkpt>
      <trkpt lat="45.40517" lon="5.84816">
        <ele>774.5</ele>
        <time>2014-08-24T13:13:22Z</time>
      </trkpt>
      <trkpt lat="45.40513" lon="5.84829">
        <ele>775.7</ele>
        <time>2014-08-24T13:13:28Z</time>
      </trkpt>
      <trkpt lat="45.40507" lon="5.84839">
        <ele>777.2</ele>
        <time>2014-08-24T13:13:34Z</time>
      </trkpt>
      <trkpt lat="45.40502" lon="5.84851">
        <ele>778.5</ele>
        <time>2014-08-24T13:13:39Z</time>
      </trkpt>
      <trkpt lat="45.40495" lon="5.84862">
        <ele>779.9</ele>
        <time>2014-08-24T13:13:45Z</time>
      </trkpt>
      <trkpt lat="45.40487" lon="5.84869">
        <ele>781.8</ele>
        <time>2014-08-24T13:13:50Z</time>
      </trkpt>
      <trkpt lat="45.40479" lon="5.84875">
        <ele>783.4</ele>
        <time>2014-08-24T13:13:55Z</time>
      </trkpt>
      <trkpt lat="45.4047" lon="5.84878">
        <ele>784.4</ele>
        <time>2014-08-24T13:13:59Z</time>
      </trkpt>
      <trkpt lat="45.4046" lon="5.8488">
        <ele>785.3</ele>
        <time>2014-08-24T13:14:04Z</time>
      </trkpt>
      <trkpt lat="45.40451" lon="5.84875">
        <ele>786.4</ele>
        <time>2014-08-24T13:14:09Z</time>
      </trkpt>
      <trkpt lat="45.40444" lon="5.84866">
        <ele>787.3</ele>
        <time>2014-08-24T13:14:14Z</time>
      </trkpt>
      <trkpt lat="45.40438" lon="5.84857">
        <ele>787.7</ele>
        <time>2014-08-24T13:14:18Z</time>
      </trkpt>
      <trkpt lat="45.4043" lon="5.8485">
        <ele>787.7</ele>
        <time>2014-08-24T13:14:22Z</time>
      </trkpt>
      <trkpt lat="45.40421" lon="5.84847">
        <ele>788.1</ele>
        <time>2014-08-24T13:14:26Z</time>
      </trkpt>
      <trkpt lat="45.4041" lon="5.84845">
        <ele>789.1</ele>
        <time>2014-08-24T13:14:31Z</time>
      </trkpt>
      <trkpt lat="45.404" lon="5.84847">
        <ele>790.2</ele>
        <time>2014-08-24T13:14:36Z</time>
      </trkpt>
      <trkpt lat="45.4039" lon="5.84847">
        <ele>790.8</ele>
        <time>2014-08-24T13:14:41Z</time>
      </trkpt>
      <trkpt lat="45.40379" lon="5.84846">
        <ele>790.7</ele>
        <time>2014-08-24T13:14:45Z</time>
      </trkpt>
      <trkpt lat="45.4037" lon="5.84846">
        <ele>791</ele>
        <time>2014-08-24T13:14:48Z</time>
      </trkpt>
      <trkpt lat="45.40361" lon="5.84846">
        <ele>791.2</ele>
        <time>2014-08-24T13:14:51Z</time>
      </trkpt>
      <trkpt lat="45.4035" lon="5.84846">
        <ele>791.8</ele>
        <time>2014-08-24T13:14:55Z</time>
      </trkpt>
      <trkpt lat="45.4034" lon="5.84846">
        <ele>792.8</ele>
        <time>2014-08-24T13:14:59Z</time>
      </trkpt>
      <trkpt lat="45.40331" lon="5.84846">
        <ele>793.5</ele>
        <time>2014-08-24T13:15:03Z</time>
      </trkpt>
      <trkpt lat="45.4032" lon="5.84846">
        <ele>795.4</ele>
        <time>2014-08-24T13:15:08Z</time>
      </trkpt>
      <trkpt lat="45.40311" lon="5.84847">
        <ele>796.2</ele>
        <time>2014-08-24T13:15:12Z</time>
      </trkpt>
      <trkpt lat="45.40301" lon="5.84847">
        <ele>797.5</ele>
        <time>2014-08-24T13:15:17Z</time>
      </trkpt>
      <trkpt lat="45.40291" lon="5.8485">
        <ele>798.4</ele>
        <time>2014-08-24T13:15:22Z</time>
      </trkpt>
      <trkpt lat="45.40281" lon="5.84852">
        <ele>799.9</ele>
        <time>2014-08-24T13:15:28Z</time>
      </trkpt>
      <trkpt lat="45.40272" lon="5.84853">
        <ele>800.8</ele>
        <time>2014-08-24T13:15:33Z</time>
      </trkpt>
      <trkpt lat="45.40261" lon="5.84853">
        <ele>801.8</ele>
        <time>2014-08-24T13:15:38Z</time>
      </trkpt>
      <trkpt lat="45.40253" lon="5.84849">
        <ele>802.7</ele>
        <time>2014-08-24T13:15:42Z</time>
      </trkpt>
      <trkpt lat="45.40243" lon="5.84843">
        <ele>803.5</ele>
        <time>2014-08-24T13:15:47Z</time>
      </trkpt>
      <trkpt lat="45.40232" lon="5.84841">
        <ele>804.4</ele>
        <time>2014-08-24T13:15:53Z</time>
      </trkpt>
      <trkpt lat="45.40222" lon="5.84843">
        <ele>806</ele>
        <time>2014-08-24T13:15:58Z</time>
      </trkpt>
      <trkpt lat="45.40213" lon="5.84847">
        <ele>805.5</ele>
        <time>2014-08-24T13:16:02Z</time>
      </trkpt>
      <trkpt lat="45.40203" lon="5.84851">
        <ele>806.4</ele>
        <time>2014-08-24T13:16:08Z</time>
      </trkpt>
      <trkpt lat="45.40195" lon="5.84856">
        <ele>807.4</ele>
        <time>2014-08-24T13:16:13Z</time>
      </trkpt>
      <trkpt lat="45.40185" lon="5.84861">
        <ele>808.5</ele>
        <time>2014-08-24T13:16:17Z</time>
      </trkpt>
      <trkpt lat="45.40176" lon="5.84863">
        <ele>809.6</ele>
        <time>2014-08-24T13:16:21Z</time>
      </trkpt>
      <trkpt lat="45.40164" lon="5.84861">
        <ele>808.8</ele>
        <time>2014-08-24T13:16:25Z</time>
      </trkpt>
      <trkpt lat="45.40155" lon="5.84856">
        <ele>809</ele>
        <time>2014-08-24T13:16:28Z</time>
      </trkpt>
      <trkpt lat="45.40145" lon="5.84852">
        <ele>809.4</ele>
        <time>2014-08-24T13:16:32Z</time>
      </trkpt>
      <trkpt lat="45.40135" lon="5.84852">
        <ele>810.5</ele>
        <time>2014-08-24T13:16:36Z</time>
      </trkpt>
      <trkpt lat="45.40125" lon="5.84854">
        <ele>810.9</ele>
        <time>2014-08-24T13:16:41Z</time>
      </trkpt>
      <trkpt lat="45.40116" lon="5.84858">
        <ele>811</ele>
        <time>2014-08-24T13:16:45Z</time>
      </trkpt>
      <trkpt lat="45.40106" lon="5.84862">
        <ele>811.4</ele>
        <time>2014-08-24T13:16:48Z</time>
      </trkpt>
      <trkpt lat="45.40096" lon="5.84864">
        <ele>811.1</ele>
        <time>2014-08-24T13:16:51Z</time>
      </trkpt>
      <trkpt lat="45.40086" lon="5.84868">
        <ele>810.8</ele>
        <time>2014-08-24T13:16:54Z</time>
      </trkpt>
      <trkpt lat="45.40073" lon="5.84873">
        <ele>810.2</ele>
        <time>2014-08-24T13:16:57Z</time>
      </trkpt>
      <trkpt lat="45.40064" lon="5.8487">
        <ele>809</ele>
        <time>2014-08-24T13:16:59Z</time>
      </trkpt>
      <trkpt lat="45.40054" lon="5.84865">
        <ele>810.2</ele>
        <time>2014-08-24T13:17:03Z</time>
      </trkpt>
      <trkpt lat="45.40047" lon="5.84857">
        <ele>811.8</ele>
        <time>2014-08-24T13:17:11Z</time>
      </trkpt>
      <trkpt lat="45.4004" lon="5.84848">
        <ele>813.1</ele>
        <time>2014-08-24T13:17:16Z</time>
      </trkpt>
      <trkpt lat="45.40033" lon="5.84838">
        <ele>814.6</ele>
        <time>2014-08-24T13:17:21Z</time>
      </trkpt>
      <trkpt lat="45.40028" lon="5.84827">
        <ele>815.7</ele>
        <time>2014-08-24T13:17:26Z</time>
      </trkpt>
      <trkpt lat="45.40018" lon="5.84823">
        <ele>817.7</ele>
        <time>2014-08-24T13:17:33Z</time>
      </trkpt>
      <trkpt lat="45.40008" lon="5.84823">
        <ele>819.4</ele>
        <time>2014-08-24T13:18:12Z</time>
      </trkpt>
      <trkpt lat="45.39999" lon="5.84827">
        <ele>820.5</ele>
        <time>2014-08-24T13:18:36Z</time>
      </trkpt>
      <trkpt lat="45.39993" lon="5.84837">
        <ele>820.7</ele>
        <time>2014-08-24T13:18:38Z</time>
      </trkpt>
      <trkpt lat="45.39984" lon="5.8484">
        <ele>821.2</ele>
        <time>2014-08-24T13:18:44Z</time>
      </trkpt>
      <trkpt lat="45.39974" lon="5.84841">
        <ele>821.9</ele>
        <time>2014-08-24T13:18:49Z</time>
      </trkpt>
      <trkpt lat="45.39963" lon="5.8484">
        <ele>822.9</ele>
        <time>2014-08-24T13:18:54Z</time>
      </trkpt>
      <trkpt lat="45.39953" lon="5.84842">
        <ele>823.5</ele>
        <time>2014-08-24T13:18:59Z</time>
      </trkpt>
      <trkpt lat="45.39942" lon="5.84844">
        <ele>824.3</ele>
        <time>2014-08-24T13:19:05Z</time>
      </trkpt>
      <trkpt lat="45.39932" lon="5.84846">
        <ele>824.9</ele>
        <time>2014-08-24T13:19:10Z</time>
      </trkpt>
      <trkpt lat="45.39921" lon="5.84846">
        <ele>825.3</ele>
        <time>2014-08-24T13:19:15Z</time>
      </trkpt>
      <trkpt lat="45.39912" lon="5.84846">
        <ele>825.4</ele>
        <time>2014-08-24T13:19:19Z</time>
      </trkpt>
      <trkpt lat="45.39902" lon="5.84847">
        <ele>826</ele>
        <time>2014-08-24T13:19:23Z</time>
      </trkpt>
      <trkpt lat="45.39892" lon="5.84848">
        <ele>826.6</ele>
        <time>2014-08-24T13:19:27Z</time>
      </trkpt>
      <trkpt lat="45.39882" lon="5.84848">
        <ele>826.3</ele>
        <time>2014-08-24T13:19:31Z</time>
      </trkpt>
      <trkpt lat="45.39872" lon="5.8485">
        <ele>825.8</ele>
        <time>2014-08-24T13:19:36Z</time>
      </trkpt>
      <trkpt lat="45.39863" lon="5.84851">
        <ele>826.2</ele>
        <time>2014-08-24T13:19:41Z</time>
      </trkpt>
      <trkpt lat="45.39854" lon="5.84852">
        <ele>826.3</ele>
        <time>2014-08-24T13:19:49Z</time>
      </trkpt>
      <trkpt lat="45.39845" lon="5.84851">
        <ele>827</ele>
        <time>2014-08-24T13:19:57Z</time>
      </trkpt>
      <trkpt lat="45.39835" lon="5.84852">
        <ele>829.1</ele>
        <time>2014-08-24T13:20:08Z</time>
      </trkpt>
      <trkpt lat="45.39826" lon="5.84847">
        <ele>830.6</ele>
        <time>2014-08-24T13:20:18Z</time>
      </trkpt>
      <trkpt lat="45.39818" lon="5.84841">
        <ele>831.3</ele>
        <time>2014-08-24T13:20:26Z</time>
      </trkpt>
      <trkpt lat="45.39808" lon="5.84837">
        <ele>832.3</ele>
        <time>2014-08-24T13:20:34Z</time>
      </trkpt>
      <trkpt lat="45.39799" lon="5.8483">
        <ele>833.5</ele>
        <time>2014-08-24T13:21:03Z</time>
      </trkpt>
      <trkpt lat="45.3979" lon="5.8483">
        <ele>833.4</ele>
        <time>2014-08-24T13:21:08Z</time>
      </trkpt>
      <trkpt lat="45.39779" lon="5.84827">
        <ele>832.7</ele>
        <time>2014-08-24T13:21:14Z</time>
      </trkpt>
      <trkpt lat="45.39768" lon="5.84824">
        <ele>832</ele>
        <time>2014-08-24T13:21:18Z</time>
      </trkpt>
      <trkpt lat="45.39757" lon="5.84821">
        <ele>831.4</ele>
        <time>2014-08-24T13:21:22Z</time>
      </trkpt>
      <trkpt lat="45.39748" lon="5.84816">
        <ele>831.3</ele>
        <time>2014-08-24T13:21:27Z</time>
      </trkpt>
      <trkpt lat="45.39738" lon="5.84812">
        <ele>831.6</ele>
        <time>2014-08-24T13:21:32Z</time>
      </trkpt>
      <trkpt lat="45.39729" lon="5.84816">
        <ele>831.4</ele>
        <time>2014-08-24T13:21:36Z</time>
      </trkpt>
      <trkpt lat="45.39721" lon="5.84822">
        <ele>831.7</ele>
        <time>2014-08-24T13:21:39Z</time>
      </trkpt>
      <trkpt lat="45.39711" lon="5.84831">
        <ele>831</ele>
        <time>2014-08-24T13:21:43Z</time>
      </trkpt>
      <trkpt lat="45.39703" lon="5.84836">
        <ele>830.9</ele>
        <time>2014-08-24T13:21:46Z</time>
      </trkpt>
      <trkpt lat="45.39692" lon="5.84842">
        <ele>831.3</ele>
        <time>2014-08-24T13:21:50Z</time>
      </trkpt>
      <trkpt lat="45.39682" lon="5.84844">
        <ele>831.7</ele>
        <time>2014-08-24T13:21:55Z</time>
      </trkpt>
      <trkpt lat="45.39671" lon="5.84846">
        <ele>832.2</ele>
        <time>2014-08-24T13:22:00Z</time>
      </trkpt>
      <trkpt lat="45.39662" lon="5.8485">
        <ele>832.1</ele>
        <time>2014-08-24T13:22:03Z</time>
      </trkpt>
      <trkpt lat="45.39654" lon="5.84857">
        <ele>831.6</ele>
        <time>2014-08-24T13:22:07Z</time>
      </trkpt>
      <trkpt lat="45.39645" lon="5.84847">
        <ele>831</ele>
        <time>2014-08-24T13:23:35Z</time>
      </trkpt>
      <trkpt lat="45.3964" lon="5.84835">
        <ele>833.1</ele>
        <time>2014-08-24T13:23:42Z</time>
      </trkpt>
      <trkpt lat="45.39639" lon="5.84822">
        <ele>834.7</ele>
        <time>2014-08-24T13:23:49Z</time>
      </trkpt>
      <trkpt lat="45.39642" lon="5.84807">
        <ele>836</ele>
        <time>2014-08-24T13:23:56Z</time>
      </trkpt>
      <trkpt lat="45.39642" lon="5.84793">
        <ele>837.8</ele>
        <time>2014-08-24T13:24:04Z</time>
      </trkpt>
      <trkpt lat="45.39638" lon="5.8478">
        <ele>839.6</ele>
        <time>2014-08-24T13:24:10Z</time>
      </trkpt>
      <trkpt lat="45.39634" lon="5.84766">
        <ele>840.9</ele>
        <time>2014-08-24T13:24:17Z</time>
      </trkpt>
      <trkpt lat="45.39632" lon="5.84753">
        <ele>842.4</ele>
        <time>2014-08-24T13:24:24Z</time>
      </trkpt>
      <trkpt lat="45.3963" lon="5.8474">
        <ele>844.6</ele>
        <time>2014-08-24T13:24:33Z</time>
      </trkpt>
      <trkpt lat="45.39628" lon="5.84726">
        <ele>846.4</ele>
        <time>2014-08-24T13:24:41Z</time>
      </trkpt>
      <trkpt lat="45.39628" lon="5.84712">
        <ele>848.6</ele>
        <time>2014-08-24T13:24:49Z</time>
      </trkpt>
      <trkpt lat="45.3963" lon="5.84698">
        <ele>850.7</ele>
        <time>2014-08-24T13:24:57Z</time>
      </trkpt>
      <trkpt lat="45.39626" lon="5.84685">
        <ele>852.6</ele>
        <time>2014-08-24T13:25:04Z</time>
      </trkpt>
      <trkpt lat="45.39622" lon="5.84672">
        <ele>854.1</ele>
        <time>2014-08-24T13:25:13Z</time>
      </trkpt>
      <trkpt lat="45.39619" lon="5.8466">
        <ele>855.6</ele>
        <time>2014-08-24T13:25:22Z</time>
      </trkpt>
      <trkpt lat="45.3962" lon="5.84646">
        <ele>857</ele>
        <time>2014-08-24T13:25:54Z</time>
      </trkpt>
      <trkpt lat="45.3962" lon="5.84633">
        <ele>858.8</ele>
        <time>2014-08-24T13:26:02Z</time>
      </trkpt>
      <trkpt lat="45.39619" lon="5.84619">
        <ele>860.7</ele>
        <time>2014-08-24T13:26:08Z</time>
      </trkpt>
      <trkpt lat="45.39618" lon="5.84606">
        <ele>862.1</ele>
        <time>2014-08-24T13:26:15Z</time>
      </trkpt>
      <trkpt lat="45.39618" lon="5.84592">
        <ele>863.6</ele>
        <time>2014-08-24T13:26:22Z</time>
      </trkpt>
      <trkpt lat="45.39621" lon="5.84578">
        <ele>865.6</ele>
        <time>2014-08-24T13:26:29Z</time>
      </trkpt>
      <trkpt lat="45.39624" lon="5.84566">
        <ele>867.1</ele>
        <time>2014-08-24T13:26:36Z</time>
      </trkpt>
      <trkpt lat="45.39626" lon="5.84552">
        <ele>868.9</ele>
        <time>2014-08-24T13:26:43Z</time>
      </trkpt>
      <trkpt lat="45.39628" lon="5.84538">
        <ele>870.4</ele>
        <time>2014-08-24T13:26:50Z</time>
      </trkpt>
      <trkpt lat="45.39626" lon="5.84525">
        <ele>871.8</ele>
        <time>2014-08-24T13:26:55Z</time>
      </trkpt>
      <trkpt lat="45.39623" lon="5.84512">
        <ele>873.8</ele>
        <time>2014-08-24T13:27:03Z</time>
      </trkpt>
      <trkpt lat="45.39624" lon="5.84499">
        <ele>876.2</ele>
        <time>2014-08-24T13:27:12Z</time>
      </trkpt>
      <trkpt lat="45.39615" lon="5.84499">
        <ele>877.4</ele>
        <time>2014-08-24T13:27:21Z</time>
      </trkpt>
      <trkpt lat="45.39605" lon="5.84502">
        <ele>878</ele>
        <time>2014-08-24T13:27:27Z</time>
      </trkpt>
      <trkpt lat="45.39596" lon="5.84504">
        <ele>878.1</ele>
        <time>2014-08-24T13:27:32Z</time>
      </trkpt>
      <trkpt lat="45.39586" lon="5.84503">
        <ele>878.5</ele>
        <time>2014-08-24T13:27:37Z</time>
      </trkpt>
      <trkpt lat="45.39575" lon="5.84503">
        <ele>878</ele>
        <time>2014-08-24T13:27:42Z</time>
      </trkpt>
      <trkpt lat="45.39565" lon="5.84501">
        <ele>878.5</ele>
        <time>2014-08-24T13:27:46Z</time>
      </trkpt>
      <trkpt lat="45.39554" lon="5.84498">
        <ele>879</ele>
        <time>2014-08-24T13:27:51Z</time>
      </trkpt>
      <trkpt lat="45.39543" lon="5.84497">
        <ele>879.2</ele>
        <time>2014-08-24T13:27:54Z</time>
      </trkpt>
      <trkpt lat="45.39534" lon="5.84495">
        <ele>879.8</ele>
        <time>2014-08-24T13:27:57Z</time>
      </trkpt>
      <trkpt lat="45.39522" lon="5.84495">
        <ele>879.9</ele>
        <time>2014-08-24T13:28:01Z</time>
      </trkpt>
      <trkpt lat="45.39513" lon="5.84501">
        <ele>880.8</ele>
        <time>2014-08-24T13:28:05Z</time>
      </trkpt>
      <trkpt lat="45.39503" lon="5.84507">
        <ele>881.5</ele>
        <time>2014-08-24T13:28:09Z</time>
      </trkpt>
      <trkpt lat="45.39494" lon="5.84513">
        <ele>882.6</ele>
        <time>2014-08-24T13:28:13Z</time>
      </trkpt>
      <trkpt lat="45.39486" lon="5.84519">
        <ele>883</ele>
        <time>2014-08-24T13:28:18Z</time>
      </trkpt>
      <trkpt lat="45.39476" lon="5.84522">
        <ele>883.3</ele>
        <time>2014-08-24T13:28:22Z</time>
      </trkpt>
      <trkpt lat="45.39467" lon="5.84523">
        <ele>883.7</ele>
        <time>2014-08-24T13:28:26Z</time>
      </trkpt>
      <trkpt lat="45.39457" lon="5.84524">
        <ele>884.6</ele>
        <time>2014-08-24T13:28:31Z</time>
      </trkpt>
      <trkpt lat="45.39448" lon="5.84523">
        <ele>885.9</ele>
        <time>2014-08-24T13:28:35Z</time>
      </trkpt>
      <trkpt lat="45.39438" lon="5.84526">
        <ele>887.3</ele>
        <time>2014-08-24T13:28:39Z</time>
      </trkpt>
      <trkpt lat="45.39429" lon="5.84529">
        <ele>888.4</ele>
        <time>2014-08-24T13:28:44Z</time>
      </trkpt>
      <trkpt lat="45.3942" lon="5.84534">
        <ele>889.6</ele>
        <time>2014-08-24T13:28:49Z</time>
      </trkpt>
      <trkpt lat="45.39409" lon="5.84536">
        <ele>891.6</ele>
        <time>2014-08-24T13:28:55Z</time>
      </trkpt>
      <trkpt lat="45.39401" lon="5.84541">
        <ele>891.8</ele>
        <time>2014-08-24T13:29:01Z</time>
      </trkpt>
      <trkpt lat="45.3939" lon="5.84546">
        <ele>890.9</ele>
        <time>2014-08-24T13:29:06Z</time>
      </trkpt>
      <trkpt lat="45.39381" lon="5.84548">
        <ele>892.1</ele>
        <time>2014-08-24T13:29:10Z</time>
      </trkpt>
      <trkpt lat="45.39371" lon="5.84547">
        <ele>892.1</ele>
        <time>2014-08-24T13:29:14Z</time>
      </trkpt>
      <trkpt lat="45.39362" lon="5.84547">
        <ele>892</ele>
        <time>2014-08-24T13:29:18Z</time>
      </trkpt>
      <trkpt lat="45.39352" lon="5.84544">
        <ele>892.8</ele>
        <time>2014-08-24T13:29:22Z</time>
      </trkpt>
      <trkpt lat="45.39342" lon="5.8454">
        <ele>893.2</ele>
        <time>2014-08-24T13:29:26Z</time>
      </trkpt>
      <trkpt lat="45.39331" lon="5.84534">
        <ele>893.9</ele>
        <time>2014-08-24T13:29:30Z</time>
      </trkpt>
      <trkpt lat="45.39321" lon="5.84527">
        <ele>893.7</ele>
        <time>2014-08-24T13:29:34Z</time>
      </trkpt>
      <trkpt lat="45.39309" lon="5.84523">
        <ele>893</ele>
        <time>2014-08-24T13:29:38Z</time>
      </trkpt>
      <trkpt lat="45.39299" lon="5.84523">
        <ele>892.6</ele>
        <time>2014-08-24T13:29:42Z</time>
      </trkpt>
      <trkpt lat="45.39289" lon="5.84522">
        <ele>892.5</ele>
        <time>2014-08-24T13:29:46Z</time>
      </trkpt>
      <trkpt lat="45.39278" lon="5.84524">
        <ele>892.8</ele>
        <time>2014-08-24T13:29:50Z</time>
      </trkpt>
      <trkpt lat="45.39269" lon="5.84532">
        <ele>892.4</ele>
        <time>2014-08-24T13:29:53Z</time>
      </trkpt>
      <trkpt lat="45.39265" lon="5.84544">
        <ele>892.9</ele>
        <time>2014-08-24T13:29:57Z</time>
      </trkpt>
      <trkpt lat="45.39267" lon="5.84557">
        <ele>893.8</ele>
        <time>2014-08-24T13:30:01Z</time>
      </trkpt>
      <trkpt lat="45.3927" lon="5.84571">
        <ele>895</ele>
        <time>2014-08-24T13:30:06Z</time>
      </trkpt>
      <trkpt lat="45.3927" lon="5.84586">
        <ele>896.1</ele>
        <time>2014-08-24T13:30:12Z</time>
      </trkpt>
      <trkpt lat="45.39267" lon="5.84598">
        <ele>897.3</ele>
        <time>2014-08-24T13:30:17Z</time>
      </trkpt>
      <trkpt lat="45.39262" lon="5.8461">
        <ele>899.1</ele>
        <time>2014-08-24T13:30:23Z</time>
      </trkpt>
      <trkpt lat="45.3925" lon="5.84615">
        <ele>899.8</ele>
        <time>2014-08-24T13:30:28Z</time>
      </trkpt>
      <trkpt lat="45.3924" lon="5.84617">
        <ele>900.4</ele>
        <time>2014-08-24T13:30:32Z</time>
      </trkpt>
      <trkpt lat="45.39231" lon="5.84621">
        <ele>900.8</ele>
        <time>2014-08-24T13:30:36Z</time>
      </trkpt>
      <trkpt lat="45.39221" lon="5.84626">
        <ele>901.5</ele>
        <time>2014-08-24T13:30:41Z</time>
      </trkpt>
      <trkpt lat="45.39211" lon="5.84631">
        <ele>901.6</ele>
        <time>2014-08-24T13:30:46Z</time>
      </trkpt>
      <trkpt lat="45.39204" lon="5.84637">
        <ele>902.8</ele>
        <time>2014-08-24T13:30:51Z</time>
      </trkpt>
      <trkpt lat="45.39194" lon="5.84641">
        <ele>903.5</ele>
        <time>2014-08-24T13:30:56Z</time>
      </trkpt>
      <trkpt lat="45.39184" lon="5.84638">
        <ele>904</ele>
        <time>2014-08-24T13:31:00Z</time>
      </trkpt>
      <trkpt lat="45.39174" lon="5.84639">
        <ele>905</ele>
        <time>2014-08-24T13:31:05Z</time>
      </trkpt>
      <trkpt lat="45.39164" lon="5.84641">
        <ele>906.2</ele>
        <time>2014-08-24T13:31:10Z</time>
      </trkpt>
      <trkpt lat="45.39154" lon="5.84644">
        <ele>906.2</ele>
        <time>2014-08-24T13:31:15Z</time>
      </trkpt>
      <trkpt lat="45.39145" lon="5.8464">
        <ele>907.9</ele>
        <time>2014-08-24T13:31:20Z</time>
      </trkpt>
      <trkpt lat="45.39136" lon="5.84637">
        <ele>908.6</ele>
        <time>2014-08-24T13:31:25Z</time>
      </trkpt>
      <trkpt lat="45.39126" lon="5.84632">
        <ele>909.5</ele>
        <time>2014-08-24T13:31:30Z</time>
      </trkpt>
      <trkpt lat="45.39115" lon="5.84629">
        <ele>909.7</ele>
        <time>2014-08-24T13:31:36Z</time>
      </trkpt>
      <trkpt lat="45.39106" lon="5.84628">
        <ele>910.7</ele>
        <time>2014-08-24T13:31:42Z</time>
      </trkpt>
      <trkpt lat="45.39096" lon="5.84627">
        <ele>911.6</ele>
        <time>2014-08-24T13:31:47Z</time>
      </trkpt>
      <trkpt lat="45.39086" lon="5.8463">
        <ele>911.7</ele>
        <time>2014-08-24T13:31:52Z</time>
      </trkpt>
      <trkpt lat="45.39077" lon="5.8463">
        <ele>911.9</ele>
        <time>2014-08-24T13:31:56Z</time>
      </trkpt>
      <trkpt lat="45.39068" lon="5.84631">
        <ele>911.5</ele>
        <time>2014-08-24T13:32:00Z</time>
      </trkpt>
      <trkpt lat="45.39058" lon="5.84635">
        <ele>911.7</ele>
        <time>2014-08-24T13:32:06Z</time>
      </trkpt>
      <trkpt lat="45.39049" lon="5.84635">
        <ele>912.9</ele>
        <time>2014-08-24T13:32:12Z</time>
      </trkpt>
      <trkpt lat="45.3904" lon="5.84633">
        <ele>914.2</ele>
        <time>2014-08-24T13:32:18Z</time>
      </trkpt>
      <trkpt lat="45.39031" lon="5.84633">
        <ele>915.1</ele>
        <time>2014-08-24T13:32:23Z</time>
      </trkpt>
      <trkpt lat="45.39023" lon="5.84637">
        <ele>916.2</ele>
        <time>2014-08-24T13:32:29Z</time>
      </trkpt>
      <trkpt lat="45.39014" lon="5.84643">
        <ele>917.9</ele>
        <time>2014-08-24T13:32:34Z</time>
      </trkpt>
      <trkpt lat="45.39005" lon="5.84649">
        <ele>917.9</ele>
        <time>2014-08-24T13:32:39Z</time>
      </trkpt>
      <trkpt lat="45.38995" lon="5.84653">
        <ele>917.4</ele>
        <time>2014-08-24T13:32:44Z</time>
      </trkpt>
      <trkpt lat="45.38985" lon="5.84651">
        <ele>917.5</ele>
        <time>2014-08-24T13:32:49Z</time>
      </trkpt>
      <trkpt lat="45.38975" lon="5.84651">
        <ele>918.6</ele>
        <time>2014-08-24T13:32:55Z</time>
      </trkpt>
      <trkpt lat="45.38965" lon="5.84647">
        <ele>919.5</ele>
        <time>2014-08-24T13:33:01Z</time>
      </trkpt>
      <trkpt lat="45.38956" lon="5.84645">
        <ele>920.7</ele>
        <time>2014-08-24T13:33:06Z</time>
      </trkpt>
      <trkpt lat="45.38947" lon="5.8464">
        <ele>921.6</ele>
        <time>2014-08-24T13:33:11Z</time>
      </trkpt>
      <trkpt lat="45.38938" lon="5.84634">
        <ele>922.6</ele>
        <time>2014-08-24T13:33:16Z</time>
      </trkpt>
      <trkpt lat="45.38931" lon="5.84626">
        <ele>923.7</ele>
        <time>2014-08-24T13:33:21Z</time>
      </trkpt>
      <trkpt lat="45.38923" lon="5.84618">
        <ele>925.2</ele>
        <time>2014-08-24T13:33:27Z</time>
      </trkpt>
      <trkpt lat="45.38916" lon="5.84608">
        <ele>926.4</ele>
        <time>2014-08-24T13:33:33Z</time>
      </trkpt>
      <trkpt lat="45.38909" lon="5.84599">
        <ele>927</ele>
        <time>2014-08-24T13:33:39Z</time>
      </trkpt>
      <trkpt lat="45.38903" lon="5.84589">
        <ele>928.9</ele>
        <time>2014-08-24T13:33:46Z</time>
      </trkpt>
      <trkpt lat="45.38895" lon="5.8458">
        <ele>930.4</ele>
        <time>2014-08-24T13:33:52Z</time>
      </trkpt>
      <trkpt lat="45.38887" lon="5.84571">
        <ele>931.4</ele>
        <time>2014-08-24T13:33:58Z</time>
      </trkpt>
      <trkpt lat="45.38878" lon="5.84567">
        <ele>931.7</ele>
        <time>2014-08-24T13:34:03Z</time>
      </trkpt>
      <trkpt lat="45.38869" lon="5.84563">
        <ele>932.1</ele>
        <time>2014-08-24T13:34:08Z</time>
      </trkpt>
      <trkpt lat="45.38859" lon="5.84557">
        <ele>932.2</ele>
        <time>2014-08-24T13:34:13Z</time>
      </trkpt>
      <trkpt lat="45.38849" lon="5.84553">
        <ele>933</ele>
        <time>2014-08-24T13:34:17Z</time>
      </trkpt>
      <trkpt lat="45.3884" lon="5.84549">
        <ele>933.3</ele>
        <time>2014-08-24T13:34:21Z</time>
      </trkpt>
      <trkpt lat="45.3883" lon="5.84543">
        <ele>934</ele>
        <time>2014-08-24T13:34:26Z</time>
      </trkpt>
      <trkpt lat="45.38821" lon="5.84541">
        <ele>934.7</ele>
        <time>2014-08-24T13:34:31Z</time>
      </trkpt>
      <trkpt lat="45.38811" lon="5.84536">
        <ele>935.1</ele>
        <time>2014-08-24T13:34:37Z</time>
      </trkpt>
      <trkpt lat="45.38801" lon="5.84531">
        <ele>935.2</ele>
        <time>2014-08-24T13:34:42Z</time>
      </trkpt>
      <trkpt lat="45.3879" lon="5.84528">
        <ele>935.4</ele>
        <time>2014-08-24T13:34:47Z</time>
      </trkpt>
      <trkpt lat="45.38782" lon="5.84526">
        <ele>936.2</ele>
        <time>2014-08-24T13:34:53Z</time>
      </trkpt>
      <trkpt lat="45.38771" lon="5.84524">
        <ele>938.8</ele>
        <time>2014-08-24T13:34:59Z</time>
      </trkpt>
      <trkpt lat="45.38762" lon="5.84519">
        <ele>938.4</ele>
        <time>2014-08-24T13:35:05Z</time>
      </trkpt>
      <trkpt lat="45.38751" lon="5.84521">
        <ele>939.3</ele>
        <time>2014-08-24T13:35:17Z</time>
      </trkpt>
      <trkpt lat="45.38739" lon="5.84527">
        <ele>938.7</ele>
        <time>2014-08-24T13:35:21Z</time>
      </trkpt>
      <trkpt lat="45.3873" lon="5.84533">
        <ele>937.4</ele>
        <time>2014-08-24T13:35:23Z</time>
      </trkpt>
      <trkpt lat="45.38719" lon="5.84537">
        <ele>936.2</ele>
        <time>2014-08-24T13:35:25Z</time>
      </trkpt>
      <trkpt lat="45.38709" lon="5.84543">
        <ele>936.2</ele>
        <time>2014-08-24T13:35:27Z</time>
      </trkpt>
      <trkpt lat="45.38698" lon="5.84551">
        <ele>935.8</ele>
        <time>2014-08-24T13:35:30Z</time>
      </trkpt>
      <trkpt lat="45.38688" lon="5.84557">
        <ele>935.2</ele>
        <time>2014-08-24T13:35:34Z</time>
      </trkpt>
      <trkpt lat="45.38678" lon="5.84564">
        <ele>934.8</ele>
        <time>2014-08-24T13:35:39Z</time>
      </trkpt>
      <trkpt lat="45.38669" lon="5.84569">
        <ele>934.5</ele>
        <time>2014-08-24T13:35:43Z</time>
      </trkpt>
      <trkpt lat="45.38659" lon="5.84576">
        <ele>934</ele>
        <time>2014-08-24T13:35:47Z</time>
      </trkpt>
      <trkpt lat="45.38648" lon="5.84579">
        <ele>932.8</ele>
        <time>2014-08-24T13:35:51Z</time>
      </trkpt>
      <trkpt lat="45.3864" lon="5.84571">
        <ele>932</ele>
        <time>2014-08-24T13:35:54Z</time>
      </trkpt>
      <trkpt lat="45.38633" lon="5.84563">
        <ele>930.3</ele>
        <time>2014-08-24T13:35:57Z</time>
      </trkpt>
      <trkpt lat="45.38625" lon="5.84554">
        <ele>927.9</ele>
        <time>2014-08-24T13:36:01Z</time>
      </trkpt>
      <trkpt lat="45.38618" lon="5.84543">
        <ele>926.9</ele>
        <time>2014-08-24T13:36:04Z</time>
      </trkpt>
      <trkpt lat="45.3861" lon="5.84531">
        <ele>923.4</ele>
        <time>2014-08-24T13:36:08Z</time>
      </trkpt>
      <trkpt lat="45.38602" lon="5.84522">
        <ele>922.7</ele>
        <time>2014-08-24T13:36:11Z</time>
      </trkpt>
      <trkpt lat="45.38592" lon="5.84523">
        <ele>919.8</ele>
        <time>2014-08-24T13:36:15Z</time>
      </trkpt>
      <trkpt lat="45.38593" lon="5.84536">
        <ele>919</ele>
        <time>2014-08-24T13:36:19Z</time>
      </trkpt>
      <trkpt lat="45.38593" lon="5.84549">
        <ele>919.3</ele>
        <time>2014-08-24T13:36:25Z</time>
      </trkpt>
      <trkpt lat="45.38591" lon="5.84563">
        <ele>919</ele>
        <time>2014-08-24T13:36:32Z</time>
      </trkpt>
      <trkpt lat="45.38588" lon="5.84576">
        <ele>920.2</ele>
        <time>2014-08-24T13:36:38Z</time>
      </trkpt>
      <trkpt lat="45.38584" lon="5.8459">
        <ele>923.1</ele>
        <time>2014-08-24T13:36:45Z</time>
      </trkpt>
      <trkpt lat="45.38582" lon="5.84603">
        <ele>925.7</ele>
        <time>2014-08-24T13:36:53Z</time>
      </trkpt>
      <trkpt lat="45.38575" lon="5.84614">
        <ele>932.7</ele>
        <time>2014-08-24T13:37:57Z</time>
      </trkpt>
      <trkpt lat="45.38573" lon="5.8463">
        <ele>934</ele>
        <time>2014-08-24T13:38:03Z</time>
      </trkpt>
      <trkpt lat="45.38568" lon="5.84641">
        <ele>935.3</ele>
        <time>2014-08-24T13:38:09Z</time>
      </trkpt>
      <trkpt lat="45.38566" lon="5.84654">
        <ele>935.1</ele>
        <time>2014-08-24T13:38:24Z</time>
      </trkpt>
      <trkpt lat="45.3856" lon="5.84665">
        <ele>934.5</ele>
        <time>2014-08-24T13:38:29Z</time>
      </trkpt>
      <trkpt lat="45.38553" lon="5.84673">
        <ele>935.2</ele>
        <time>2014-08-24T13:38:39Z</time>
      </trkpt>
      <trkpt lat="45.38545" lon="5.84682">
        <ele>935</ele>
        <time>2014-08-24T13:38:45Z</time>
      </trkpt>
      <trkpt lat="45.38538" lon="5.8469">
        <ele>934.6</ele>
        <time>2014-08-24T13:38:50Z</time>
      </trkpt>
      <trkpt lat="45.38529" lon="5.84696">
        <ele>934.4</ele>
        <time>2014-08-24T13:38:55Z</time>
      </trkpt>
      <trkpt lat="45.38521" lon="5.84701">
        <ele>934.1</ele>
        <time>2014-08-24T13:39:00Z</time>
      </trkpt>
      <trkpt lat="45.38512" lon="5.84707">
        <ele>933.1</ele>
        <time>2014-08-24T13:39:06Z</time>
      </trkpt>
      <trkpt lat="45.38503" lon="5.84714">
        <ele>932.8</ele>
        <time>2014-08-24T13:39:13Z</time>
      </trkpt>
      <trkpt lat="45.38495" lon="5.84721">
        <ele>932.2</ele>
        <time>2014-08-24T13:39:19Z</time>
      </trkpt>
      <trkpt lat="45.38485" lon="5.84726">
        <ele>932.3</ele>
        <time>2014-08-24T13:39:26Z</time>
      </trkpt>
      <trkpt lat="45.38476" lon="5.84733">
        <ele>931.3</ele>
        <time>2014-08-24T13:39:33Z</time>
      </trkpt>
      <trkpt lat="45.38467" lon="5.84738">
        <ele>931.6</ele>
        <time>2014-08-24T13:39:37Z</time>
      </trkpt>
      <trkpt lat="45.38455" lon="5.84739">
        <ele>931.3</ele>
        <time>2014-08-24T13:39:41Z</time>
      </trkpt>
      <trkpt lat="45.38446" lon="5.84739">
        <ele>931.7</ele>
        <time>2014-08-24T13:39:47Z</time>
      </trkpt>
      <trkpt lat="45.38437" lon="5.84737">
        <ele>931.5</ele>
        <time>2014-08-24T13:39:52Z</time>
      </trkpt>
      <trkpt lat="45.38427" lon="5.84739">
        <ele>931.4</ele>
        <time>2014-08-24T13:39:55Z</time>
      </trkpt>
      <trkpt lat="45.38417" lon="5.84743">
        <ele>930.3</ele>
        <time>2014-08-24T13:39:58Z</time>
      </trkpt>
      <trkpt lat="45.38408" lon="5.84747">
        <ele>930.2</ele>
        <time>2014-08-24T13:40:00Z</time>
      </trkpt>
      <trkpt lat="45.38398" lon="5.84756">
        <ele>929.4</ele>
        <time>2014-08-24T13:40:03Z</time>
      </trkpt>
      <trkpt lat="45.3839" lon="5.84766">
        <ele>927.4</ele>
        <time>2014-08-24T13:40:06Z</time>
      </trkpt>
      <trkpt lat="45.38381" lon="5.84779">
        <ele>927.1</ele>
        <time>2014-08-24T13:40:09Z</time>
      </trkpt>
      <trkpt lat="45.38368" lon="5.84783">
        <ele>926.3</ele>
        <time>2014-08-24T13:40:12Z</time>
      </trkpt>
      <trkpt lat="45.38357" lon="5.84784">
        <ele>926.1</ele>
        <time>2014-08-24T13:40:15Z</time>
      </trkpt>
      <trkpt lat="45.38348" lon="5.84786">
        <ele>926.1</ele>
        <time>2014-08-24T13:40:18Z</time>
      </trkpt>
      <trkpt lat="45.38338" lon="5.84788">
        <ele>925.9</ele>
        <time>2014-08-24T13:40:22Z</time>
      </trkpt>
      <trkpt lat="45.38328" lon="5.84795">
        <ele>924.5</ele>
        <time>2014-08-24T13:40:44Z</time>
      </trkpt>
      <trkpt lat="45.38318" lon="5.84802">
        <ele>924.1</ele>
        <time>2014-08-24T13:40:47Z</time>
      </trkpt>
      <trkpt lat="45.3831" lon="5.84807">
        <ele>923.8</ele>
        <time>2014-08-24T13:40:49Z</time>
      </trkpt>
      <trkpt lat="45.383" lon="5.84807">
        <ele>923.3</ele>
        <time>2014-08-24T13:40:51Z</time>
      </trkpt>
      <trkpt lat="45.38291" lon="5.84808">
        <ele>922.7</ele>
        <time>2014-08-24T13:40:53Z</time>
      </trkpt>
      <trkpt lat="45.38281" lon="5.84812">
        <ele>920.4</ele>
        <time>2014-08-24T13:40:55Z</time>
      </trkpt>
      <trkpt lat="45.38271" lon="5.84818">
        <ele>920.9</ele>
        <time>2014-08-24T13:40:57Z</time>
      </trkpt>
      <trkpt lat="45.38259" lon="5.8482">
        <ele>920.8</ele>
        <time>2014-08-24T13:40:59Z</time>
      </trkpt>
      <trkpt lat="45.38248" lon="5.84822">
        <ele>920.6</ele>
        <time>2014-08-24T13:41:01Z</time>
      </trkpt>
      <trkpt lat="45.38237" lon="5.84822">
        <ele>919.9</ele>
        <time>2014-08-24T13:41:03Z</time>
      </trkpt>
      <trkpt lat="45.38227" lon="5.84822">
        <ele>919.8</ele>
        <time>2014-08-24T13:41:05Z</time>
      </trkpt>
      <trkpt lat="45.38215" lon="5.84822">
        <ele>918.9</ele>
        <time>2014-08-24T13:41:08Z</time>
      </trkpt>
      <trkpt lat="45.38204" lon="5.84821">
        <ele>918.9</ele>
        <time>2014-08-24T13:41:11Z</time>
      </trkpt>
      <trkpt lat="45.38194" lon="5.8482">
        <ele>918</ele>
        <time>2014-08-24T13:41:14Z</time>
      </trkpt>
      <trkpt lat="45.38182" lon="5.84819">
        <ele>918.6</ele>
        <time>2014-08-24T13:41:18Z</time>
      </trkpt>
      <trkpt lat="45.38171" lon="5.84816">
        <ele>918.5</ele>
        <time>2014-08-24T13:41:21Z</time>
      </trkpt>
      <trkpt lat="45.3816" lon="5.84813">
        <ele>918.6</ele>
        <time>2014-08-24T13:41:24Z</time>
      </trkpt>
      <trkpt lat="45.38149" lon="5.84814">
        <ele>918.1</ele>
        <time>2014-08-24T13:41:27Z</time>
      </trkpt>
      <trkpt lat="45.38138" lon="5.84815">
        <ele>918</ele>
        <time>2014-08-24T13:41:30Z</time>
      </trkpt>
      <trkpt lat="45.38126" lon="5.84812">
        <ele>917.9</ele>
        <time>2014-08-24T13:41:33Z</time>
      </trkpt>
      <trkpt lat="45.38115" lon="5.84808">
        <ele>918</ele>
        <time>2014-08-24T13:41:36Z</time>
      </trkpt>
      <trkpt lat="45.38104" lon="5.84805">
        <ele>917.4</ele>
        <time>2014-08-24T13:41:39Z</time>
      </trkpt>
      <trkpt lat="45.38094" lon="5.84802">
        <ele>917.7</ele>
        <time>2014-08-24T13:41:42Z</time>
      </trkpt>
      <trkpt lat="45.38083" lon="5.84807">
        <ele>918.1</ele>
        <time>2014-08-24T13:41:46Z</time>
      </trkpt>
      <trkpt lat="45.38075" lon="5.84814">
        <ele>918.1</ele>
        <time>2014-08-24T13:41:49Z</time>
      </trkpt>
      <trkpt lat="45.38065" lon="5.84819">
        <ele>917.9</ele>
        <time>2014-08-24T13:41:52Z</time>
      </trkpt>
      <trkpt lat="45.38055" lon="5.84825">
        <ele>918.2</ele>
        <time>2014-08-24T13:41:55Z</time>
      </trkpt>
      <trkpt lat="45.38046" lon="5.84832">
        <ele>918.7</ele>
        <time>2014-08-24T13:41:58Z</time>
      </trkpt>
      <trkpt lat="45.38036" lon="5.84835">
        <ele>918.8</ele>
        <time>2014-08-24T13:42:01Z</time>
      </trkpt>
      <trkpt lat="45.38021" lon="5.84833">
        <ele>919</ele>
        <time>2014-08-24T13:42:05Z</time>
      </trkpt>
      <trkpt lat="45.3801" lon="5.84827">
        <ele>920.4</ele>
        <time>2014-08-24T13:42:09Z</time>
      </trkpt>
      <trkpt lat="45.38001" lon="5.84821">
        <ele>920.7</ele>
        <time>2014-08-24T13:42:12Z</time>
      </trkpt>
      <trkpt lat="45.37991" lon="5.84811">
        <ele>920</ele>
        <time>2014-08-24T13:42:16Z</time>
      </trkpt>
      <trkpt lat="45.3798" lon="5.84805">
        <ele>923.1</ele>
        <time>2014-08-24T13:42:21Z</time>
      </trkpt>
      <trkpt lat="45.37971" lon="5.84803">
        <ele>922.7</ele>
        <time>2014-08-24T13:42:25Z</time>
      </trkpt>
      <trkpt lat="45.37965" lon="5.84793">
        <ele>923.3</ele>
        <time>2014-08-24T13:42:29Z</time>
      </trkpt>
      <trkpt lat="45.37965" lon="5.84808">
        <ele>922.7</ele>
        <time>2014-08-24T13:43:11Z</time>
      </trkpt>
      <trkpt lat="45.37966" lon="5.84795">
        <ele>922.5</ele>
        <time>2014-08-24T13:43:49Z</time>
      </trkpt>
      <trkpt lat="45.37956" lon="5.84808">
        <ele>921</ele>
        <time>2014-08-24T13:46:44Z</time>
      </trkpt>
      <trkpt lat="45.37962" lon="5.84818">
        <ele>918.7</ele>
        <time>2014-08-24T13:52:47Z</time>
      </trkpt>
      <trkpt lat="45.37962" lon="5.84834">
        <ele>918.1</ele>
        <time>2014-08-24T13:52:52Z</time>
      </trkpt>
      <trkpt lat="45.37957" lon="5.84846">
        <ele>908.8</ele>
        <time>2014-08-24T13:52:58Z</time>
      </trkpt>
      <trkpt lat="45.37962" lon="5.8486">
        <ele>915.4</ele>
        <time>2014-08-24T13:53:03Z</time>
      </trkpt>
      <trkpt lat="45.37966" lon="5.84872">
        <ele>916.5</ele>
        <time>2014-08-24T13:53:07Z</time>
      </trkpt>
      <trkpt lat="45.37971" lon="5.84884">
        <ele>916.7</ele>
        <time>2014-08-24T13:53:11Z</time>
      </trkpt>
      <trkpt lat="45.37974" lon="5.84898">
        <ele>917.1</ele>
        <time>2014-08-24T13:53:15Z</time>
      </trkpt>
      <trkpt lat="45.37975" lon="5.84914">
        <ele>917</ele>
        <time>2014-08-24T13:53:19Z</time>
      </trkpt>
      <trkpt lat="45.37975" lon="5.84929">
        <ele>917.3</ele>
        <time>2014-08-24T13:53:23Z</time>
      </trkpt>
      <trkpt lat="45.37976" lon="5.84944">
        <ele>917.7</ele>
        <time>2014-08-24T13:53:27Z</time>
      </trkpt>
      <trkpt lat="45.3798" lon="5.84959">
        <ele>918.3</ele>
        <time>2014-08-24T13:53:31Z</time>
      </trkpt>
      <trkpt lat="45.37985" lon="5.84969">
        <ele>918.9</ele>
        <time>2014-08-24T13:53:35Z</time>
      </trkpt>
      <trkpt lat="45.37993" lon="5.84978">
        <ele>920</ele>
        <time>2014-08-24T13:53:39Z</time>
      </trkpt>
      <trkpt lat="45.38" lon="5.84989">
        <ele>920.7</ele>
        <time>2014-08-24T13:53:43Z</time>
      </trkpt>
      <trkpt lat="45.38009" lon="5.84997">
        <ele>921.6</ele>
        <time>2014-08-24T13:53:47Z</time>
      </trkpt>
      <trkpt lat="45.38018" lon="5.85005">
        <ele>922</ele>
        <time>2014-08-24T13:53:51Z</time>
      </trkpt>
      <trkpt lat="45.38026" lon="5.85014">
        <ele>922.7</ele>
        <time>2014-08-24T13:53:55Z</time>
      </trkpt>
      <trkpt lat="45.38035" lon="5.85022">
        <ele>923.5</ele>
        <time>2014-08-24T13:53:59Z</time>
      </trkpt>
      <trkpt lat="45.38043" lon="5.8503">
        <ele>924.2</ele>
        <time>2014-08-24T13:54:03Z</time>
      </trkpt>
      <trkpt lat="45.3805" lon="5.85042">
        <ele>924.4</ele>
        <time>2014-08-24T13:54:07Z</time>
      </trkpt>
      <trkpt lat="45.38056" lon="5.85056">
        <ele>924.9</ele>
        <time>2014-08-24T13:54:11Z</time>
      </trkpt>
      <trkpt lat="45.38062" lon="5.8507">
        <ele>925.2</ele>
        <time>2014-08-24T13:54:15Z</time>
      </trkpt>
      <trkpt lat="45.38066" lon="5.85085">
        <ele>925.4</ele>
        <time>2014-08-24T13:54:19Z</time>
      </trkpt>
      <trkpt lat="45.38071" lon="5.85099">
        <ele>925.5</ele>
        <time>2014-08-24T13:54:23Z</time>
      </trkpt>
      <trkpt lat="45.38075" lon="5.85113">
        <ele>916.3</ele>
        <time>2014-08-24T13:54:27Z</time>
      </trkpt>
      <trkpt lat="45.38075" lon="5.85128">
        <ele>923.6</ele>
        <time>2014-08-24T13:54:31Z</time>
      </trkpt>
      <trkpt lat="45.38072" lon="5.85142">
        <ele>925.4</ele>
        <time>2014-08-24T13:54:35Z</time>
      </trkpt>
      <trkpt lat="45.38067" lon="5.85154">
        <ele>926.5</ele>
        <time>2014-08-24T13:54:40Z</time>
      </trkpt>
      <trkpt lat="45.38061" lon="5.85165">
        <ele>927.6</ele>
        <time>2014-08-24T13:54:45Z</time>
      </trkpt>
      <trkpt lat="45.38054" lon="5.85175">
        <ele>928.4</ele>
        <time>2014-08-24T13:54:50Z</time>
      </trkpt>
      <trkpt lat="45.38047" lon="5.85186">
        <ele>929.1</ele>
        <time>2014-08-24T13:54:55Z</time>
      </trkpt>
      <trkpt lat="45.38039" lon="5.85196">
        <ele>929.5</ele>
        <time>2014-08-24T13:55:00Z</time>
      </trkpt>
      <trkpt lat="45.38032" lon="5.85208">
        <ele>930.8</ele>
        <time>2014-08-24T13:55:05Z</time>
      </trkpt>
      <trkpt lat="45.38026" lon="5.8522">
        <ele>931.7</ele>
        <time>2014-08-24T13:55:10Z</time>
      </trkpt>
      <trkpt lat="45.3802" lon="5.85234">
        <ele>932.6</ele>
        <time>2014-08-24T13:55:15Z</time>
      </trkpt>
      <trkpt lat="45.38016" lon="5.85247">
        <ele>928.7</ele>
        <time>2014-08-24T13:55:20Z</time>
      </trkpt>
      <trkpt lat="45.3801" lon="5.85259">
        <ele>936.2</ele>
        <time>2014-08-24T13:55:25Z</time>
      </trkpt>
      <trkpt lat="45.38001" lon="5.85268">
        <ele>934.7</ele>
        <time>2014-08-24T13:55:31Z</time>
      </trkpt>
      <trkpt lat="45.37993" lon="5.85278">
        <ele>936.2</ele>
        <time>2014-08-24T13:55:37Z</time>
      </trkpt>
      <trkpt lat="45.37984" lon="5.85286">
        <ele>937</ele>
        <time>2014-08-24T13:55:43Z</time>
      </trkpt>
      <trkpt lat="45.37976" lon="5.85294">
        <ele>939.1</ele>
        <time>2014-08-24T13:55:50Z</time>
      </trkpt>
      <trkpt lat="45.37969" lon="5.85305">
        <ele>940.5</ele>
        <time>2014-08-24T13:55:57Z</time>
      </trkpt>
      <trkpt lat="45.3796" lon="5.85308">
        <ele>941.2</ele>
        <time>2014-08-24T13:56:01Z</time>
      </trkpt>
      <trkpt lat="45.37951" lon="5.85311">
        <ele>942.1</ele>
        <time>2014-08-24T13:56:06Z</time>
      </trkpt>
      <trkpt lat="45.3794" lon="5.85313">
        <ele>942.3</ele>
        <time>2014-08-24T13:56:10Z</time>
      </trkpt>
      <trkpt lat="45.37929" lon="5.85316">
        <ele>942.8</ele>
        <time>2014-08-24T13:56:14Z</time>
      </trkpt>
      <trkpt lat="45.3792" lon="5.8532">
        <ele>943.5</ele>
        <time>2014-08-24T13:56:18Z</time>
      </trkpt>
      <trkpt lat="45.3791" lon="5.85323">
        <ele>944.3</ele>
        <time>2014-08-24T13:56:22Z</time>
      </trkpt>
      <trkpt lat="45.37899" lon="5.85325">
        <ele>945</ele>
        <time>2014-08-24T13:56:26Z</time>
      </trkpt>
      <trkpt lat="45.37889" lon="5.85328">
        <ele>945.7</ele>
        <time>2014-08-24T13:56:31Z</time>
      </trkpt>
      <trkpt lat="45.37879" lon="5.8533">
        <ele>946.6</ele>
        <time>2014-08-24T13:56:35Z</time>
      </trkpt>
      <trkpt lat="45.3787" lon="5.85335">
        <ele>947.5</ele>
        <time>2014-08-24T13:56:39Z</time>
      </trkpt>
      <trkpt lat="45.37861" lon="5.85341">
        <ele>948.1</ele>
        <time>2014-08-24T13:56:43Z</time>
      </trkpt>
      <trkpt lat="45.37852" lon="5.85345">
        <ele>948.6</ele>
        <time>2014-08-24T13:56:46Z</time>
      </trkpt>
      <trkpt lat="45.37843" lon="5.85354">
        <ele>949.4</ele>
        <time>2014-08-24T13:56:50Z</time>
      </trkpt>
      <trkpt lat="45.37837" lon="5.85363">
        <ele>950.2</ele>
        <time>2014-08-24T13:56:54Z</time>
      </trkpt>
      <trkpt lat="45.37828" lon="5.85375">
        <ele>951</ele>
        <time>2014-08-24T13:56:57Z</time>
      </trkpt>
      <trkpt lat="45.37823" lon="5.85387">
        <ele>951.9</ele>
        <time>2014-08-24T13:57:01Z</time>
      </trkpt>
      <trkpt lat="45.37817" lon="5.85398">
        <ele>953.5</ele>
        <time>2014-08-24T13:57:06Z</time>
      </trkpt>
      <trkpt lat="45.37812" lon="5.85409">
        <ele>955.2</ele>
        <time>2014-08-24T13:57:11Z</time>
      </trkpt>
      <trkpt lat="45.37805" lon="5.8542">
        <ele>956.3</ele>
        <time>2014-08-24T13:57:16Z</time>
      </trkpt>
      <trkpt lat="45.37804" lon="5.85433">
        <ele>957.3</ele>
        <time>2014-08-24T13:57:21Z</time>
      </trkpt>
      <trkpt lat="45.37797" lon="5.85445">
        <ele>958.1</ele>
        <time>2014-08-24T13:57:26Z</time>
      </trkpt>
      <trkpt lat="45.37792" lon="5.85457">
        <ele>958.6</ele>
        <time>2014-08-24T13:57:30Z</time>
      </trkpt>
      <trkpt lat="45.37786" lon="5.85468">
        <ele>959.5</ele>
        <time>2014-08-24T13:57:36Z</time>
      </trkpt>
      <trkpt lat="45.37782" lon="5.85479">
        <ele>960.2</ele>
        <time>2014-08-24T13:57:41Z</time>
      </trkpt>
      <trkpt lat="45.37777" lon="5.8549">
        <ele>960.3</ele>
        <time>2014-08-24T13:57:45Z</time>
      </trkpt>
      <trkpt lat="45.37771" lon="5.85502">
        <ele>960.9</ele>
        <time>2014-08-24T13:57:48Z</time>
      </trkpt>
      <trkpt lat="45.3777" lon="5.85517">
        <ele>961.2</ele>
        <time>2014-08-24T13:57:52Z</time>
      </trkpt>
      <trkpt lat="45.37763" lon="5.85525">
        <ele>961.7</ele>
        <time>2014-08-24T13:57:56Z</time>
      </trkpt>
      <trkpt lat="45.37754" lon="5.85533">
        <ele>962.2</ele>
        <time>2014-08-24T13:58:00Z</time>
      </trkpt>
      <trkpt lat="45.37747" lon="5.85543">
        <ele>962.9</ele>
        <time>2014-08-24T13:58:04Z</time>
      </trkpt>
      <trkpt lat="45.37738" lon="5.85552">
        <ele>963.3</ele>
        <time>2014-08-24T13:58:07Z</time>
      </trkpt>
      <trkpt lat="45.37729" lon="5.85564">
        <ele>964.1</ele>
        <time>2014-08-24T13:58:11Z</time>
      </trkpt>
      <trkpt lat="45.3772" lon="5.85571">
        <ele>965</ele>
        <time>2014-08-24T13:58:14Z</time>
      </trkpt>
      <trkpt lat="45.37711" lon="5.85583">
        <ele>965.8</ele>
        <time>2014-08-24T13:58:17Z</time>
      </trkpt>
      <trkpt lat="45.37703" lon="5.85591">
        <ele>966.6</ele>
        <time>2014-08-24T13:58:21Z</time>
      </trkpt>
      <trkpt lat="45.37695" lon="5.85597">
        <ele>967.5</ele>
        <time>2014-08-24T13:58:25Z</time>
      </trkpt>
      <trkpt lat="45.37689" lon="5.8561">
        <ele>967.9</ele>
        <time>2014-08-24T13:58:29Z</time>
      </trkpt>
      <trkpt lat="45.37686" lon="5.85623">
        <ele>968.5</ele>
        <time>2014-08-24T13:58:33Z</time>
      </trkpt>
      <trkpt lat="45.3768" lon="5.85635">
        <ele>969.1</ele>
        <time>2014-08-24T13:58:37Z</time>
      </trkpt>
      <trkpt lat="45.37677" lon="5.85649">
        <ele>969.7</ele>
        <time>2014-08-24T13:58:42Z</time>
      </trkpt>
      <trkpt lat="45.37673" lon="5.85636">
        <ele>968.6</ele>
        <time>2014-08-24T14:01:33Z</time>
      </trkpt>
      <trkpt lat="45.37677" lon="5.85619">
        <ele>968.1</ele>
        <time>2014-08-24T14:01:36Z</time>
      </trkpt>
      <trkpt lat="45.37681" lon="5.85607">
        <ele>967.9</ele>
        <time>2014-08-24T14:01:38Z</time>
      </trkpt>
      <trkpt lat="45.37689" lon="5.85599">
        <ele>967.5</ele>
        <time>2014-08-24T14:01:40Z</time>
      </trkpt>
      <trkpt lat="45.37696" lon="5.85592">
        <ele>967.2</ele>
        <time>2014-08-24T14:01:42Z</time>
      </trkpt>
      <trkpt lat="45.37706" lon="5.85577">
        <ele>966.4</ele>
        <time>2014-08-24T14:01:45Z</time>
      </trkpt>
      <trkpt lat="45.37712" lon="5.85565">
        <ele>965.8</ele>
        <time>2014-08-24T14:01:47Z</time>
      </trkpt>
      <trkpt lat="45.3772" lon="5.85555">
        <ele>965.2</ele>
        <time>2014-08-24T14:01:49Z</time>
      </trkpt>
      <trkpt lat="45.37729" lon="5.85543">
        <ele>964.5</ele>
        <time>2014-08-24T14:01:51Z</time>
      </trkpt>
      <trkpt lat="45.37738" lon="5.85533">
        <ele>963.8</ele>
        <time>2014-08-24T14:01:53Z</time>
      </trkpt>
      <trkpt lat="45.37746" lon="5.85519">
        <ele>963.1</ele>
        <time>2014-08-24T14:01:55Z</time>
      </trkpt>
      <trkpt lat="45.37754" lon="5.85505">
        <ele>962.3</ele>
        <time>2014-08-24T14:01:57Z</time>
      </trkpt>
      <trkpt lat="45.37762" lon="5.85487">
        <ele>961.8</ele>
        <time>2014-08-24T14:01:59Z</time>
      </trkpt>
      <trkpt lat="45.37773" lon="5.85483">
        <ele>961.4</ele>
        <time>2014-08-24T14:02:01Z</time>
      </trkpt>
      <trkpt lat="45.37782" lon="5.85474">
        <ele>961</ele>
        <time>2014-08-24T14:02:03Z</time>
      </trkpt>
      <trkpt lat="45.37788" lon="5.85458">
        <ele>960.5</ele>
        <time>2014-08-24T14:02:05Z</time>
      </trkpt>
      <trkpt lat="45.37794" lon="5.85441">
        <ele>959.6</ele>
        <time>2014-08-24T14:02:07Z</time>
      </trkpt>
      <trkpt lat="45.37801" lon="5.85426">
        <ele>958.2</ele>
        <time>2014-08-24T14:02:09Z</time>
      </trkpt>
      <trkpt lat="45.37808" lon="5.85411">
        <ele>957</ele>
        <time>2014-08-24T14:02:11Z</time>
      </trkpt>
      <trkpt lat="45.37811" lon="5.85391">
        <ele>955.2</ele>
        <time>2014-08-24T14:02:13Z</time>
      </trkpt>
      <trkpt lat="45.3782" lon="5.85374">
        <ele>953.5</ele>
        <time>2014-08-24T14:02:15Z</time>
      </trkpt>
      <trkpt lat="45.37832" lon="5.8536">
        <ele>951.9</ele>
        <time>2014-08-24T14:02:17Z</time>
      </trkpt>
      <trkpt lat="45.3784" lon="5.85352">
        <ele>951.3</ele>
        <time>2014-08-24T14:02:18Z</time>
      </trkpt>
      <trkpt lat="45.37856" lon="5.85341">
        <ele>949.9</ele>
        <time>2014-08-24T14:02:20Z</time>
      </trkpt>
      <trkpt lat="45.37869" lon="5.85335">
        <ele>948.9</ele>
        <time>2014-08-24T14:02:22Z</time>
      </trkpt>
      <trkpt lat="45.37879" lon="5.85328">
        <ele>948.5</ele>
        <time>2014-08-24T14:02:23Z</time>
      </trkpt>
      <trkpt lat="45.37894" lon="5.85324">
        <ele>947.3</ele>
        <time>2014-08-24T14:02:25Z</time>
      </trkpt>
      <trkpt lat="45.37902" lon="5.8532">
        <ele>946.7</ele>
        <time>2014-08-24T14:02:26Z</time>
      </trkpt>
      <trkpt lat="45.37918" lon="5.85312">
        <ele>946</ele>
        <time>2014-08-24T14:02:28Z</time>
      </trkpt>
      <trkpt lat="45.37932" lon="5.85312">
        <ele>945.2</ele>
        <time>2014-08-24T14:02:30Z</time>
      </trkpt>
      <trkpt lat="45.37945" lon="5.85309">
        <ele>944.2</ele>
        <time>2014-08-24T14:02:32Z</time>
      </trkpt>
      <trkpt lat="45.37955" lon="5.85302">
        <ele>943.6</ele>
        <time>2014-08-24T14:02:34Z</time>
      </trkpt>
      <trkpt lat="45.37964" lon="5.85294">
        <ele>942.3</ele>
        <time>2014-08-24T14:02:36Z</time>
      </trkpt>
      <trkpt lat="45.37975" lon="5.85284">
        <ele>941.2</ele>
        <time>2014-08-24T14:02:39Z</time>
      </trkpt>
      <trkpt lat="45.37982" lon="5.85275">
        <ele>939.7</ele>
        <time>2014-08-24T14:02:42Z</time>
      </trkpt>
      <trkpt lat="45.37993" lon="5.8527">
        <ele>938</ele>
        <time>2014-08-24T14:03:16Z</time>
      </trkpt>
      <trkpt lat="45.38006" lon="5.85262">
        <ele>937.6</ele>
        <time>2014-08-24T14:03:18Z</time>
      </trkpt>
      <trkpt lat="45.38013" lon="5.85248">
        <ele>936.6</ele>
        <time>2014-08-24T14:03:21Z</time>
      </trkpt>
      <trkpt lat="45.38019" lon="5.85237">
        <ele>936</ele>
        <time>2014-08-24T14:03:23Z</time>
      </trkpt>
      <trkpt lat="45.38024" lon="5.85225">
        <ele>935.5</ele>
        <time>2014-08-24T14:03:25Z</time>
      </trkpt>
      <trkpt lat="45.3803" lon="5.85215">
        <ele>934.6</ele>
        <time>2014-08-24T14:03:27Z</time>
      </trkpt>
      <trkpt lat="45.38036" lon="5.85204">
        <ele>933.9</ele>
        <time>2014-08-24T14:03:29Z</time>
      </trkpt>
      <trkpt lat="45.38044" lon="5.85193">
        <ele>932.9</ele>
        <time>2014-08-24T14:03:31Z</time>
      </trkpt>
      <trkpt lat="45.38052" lon="5.85183">
        <ele>932</ele>
        <time>2014-08-24T14:03:33Z</time>
      </trkpt>
      <trkpt lat="45.38059" lon="5.85174">
        <ele>930.9</ele>
        <time>2014-08-24T14:03:35Z</time>
      </trkpt>
      <trkpt lat="45.38065" lon="5.85164">
        <ele>930.3</ele>
        <time>2014-08-24T14:03:37Z</time>
      </trkpt>
      <trkpt lat="45.38072" lon="5.85155">
        <ele>929.4</ele>
        <time>2014-08-24T14:03:39Z</time>
      </trkpt>
      <trkpt lat="45.3808" lon="5.85142">
        <ele>928.6</ele>
        <time>2014-08-24T14:03:42Z</time>
      </trkpt>
      <trkpt lat="45.38086" lon="5.85132">
        <ele>927.5</ele>
        <time>2014-08-24T14:03:46Z</time>
      </trkpt>
      <trkpt lat="45.38085" lon="5.85118">
        <ele>927</ele>
        <time>2014-08-24T14:03:50Z</time>
      </trkpt>
      <trkpt lat="45.3808" lon="5.85105">
        <ele>926.9</ele>
        <time>2014-08-24T14:03:53Z</time>
      </trkpt>
      <trkpt lat="45.38074" lon="5.85088">
        <ele>926.4</ele>
        <time>2014-08-24T14:03:56Z</time>
      </trkpt>
      <trkpt lat="45.38069" lon="5.85076">
        <ele>926.2</ele>
        <time>2014-08-24T14:03:58Z</time>
      </trkpt>
      <trkpt lat="45.38065" lon="5.85064">
        <ele>926</ele>
        <time>2014-08-24T14:04:00Z</time>
      </trkpt>
      <trkpt lat="45.38059" lon="5.85047">
        <ele>925.7</ele>
        <time>2014-08-24T14:04:03Z</time>
      </trkpt>
      <trkpt lat="45.38053" lon="5.85037">
        <ele>925.6</ele>
        <time>2014-08-24T14:04:05Z</time>
      </trkpt>
      <trkpt lat="45.38043" lon="5.85024">
        <ele>925.4</ele>
        <time>2014-08-24T14:04:08Z</time>
      </trkpt>
      <trkpt lat="45.38033" lon="5.85015">
        <ele>925.1</ele>
        <time>2014-08-24T14:04:11Z</time>
      </trkpt>
      <trkpt lat="45.38023" lon="5.85005">
        <ele>924.8</ele>
        <time>2014-08-24T14:04:14Z</time>
      </trkpt>
      <trkpt lat="45.38016" lon="5.84996">
        <ele>924.4</ele>
        <time>2014-08-24T14:04:16Z</time>
      </trkpt>
      <trkpt lat="45.38008" lon="5.84987">
        <ele>923.8</ele>
        <time>2014-08-24T14:04:18Z</time>
      </trkpt>
      <trkpt lat="45.37999" lon="5.8498">
        <ele>923.4</ele>
        <time>2014-08-24T14:04:20Z</time>
      </trkpt>
      <trkpt lat="45.37993" lon="5.84971">
        <ele>923</ele>
        <time>2014-08-24T14:04:22Z</time>
      </trkpt>
      <trkpt lat="45.37985" lon="5.84962">
        <ele>922.6</ele>
        <time>2014-08-24T14:04:24Z</time>
      </trkpt>
      <trkpt lat="45.37978" lon="5.8495">
        <ele>921.7</ele>
        <time>2014-08-24T14:04:26Z</time>
      </trkpt>
      <trkpt lat="45.37977" lon="5.84932">
        <ele>920.8</ele>
        <time>2014-08-24T14:04:28Z</time>
      </trkpt>
      <trkpt lat="45.37978" lon="5.84914">
        <ele>919.9</ele>
        <time>2014-08-24T14:04:30Z</time>
      </trkpt>
      <trkpt lat="45.37978" lon="5.84898">
        <ele>919.3</ele>
        <time>2014-08-24T14:04:32Z</time>
      </trkpt>
      <trkpt lat="45.37974" lon="5.84883">
        <ele>918.9</ele>
        <time>2014-08-24T14:04:34Z</time>
      </trkpt>
      <trkpt lat="45.37968" lon="5.84871">
        <ele>918.7</ele>
        <time>2014-08-24T14:04:36Z</time>
      </trkpt>
      <trkpt lat="45.37964" lon="5.8486">
        <ele>918.4</ele>
        <time>2014-08-24T14:04:38Z</time>
      </trkpt>
      <trkpt lat="45.37963" lon="5.84842">
        <ele>918.4</ele>
        <time>2014-08-24T14:04:41Z</time>
      </trkpt>
      <trkpt lat="45.37967" lon="5.8483">
        <ele>918.7</ele>
        <time>2014-08-24T14:04:44Z</time>
      </trkpt>
      <trkpt lat="45.3797" lon="5.84816">
        <ele>919.2</ele>
        <time>2014-08-24T14:04:48Z</time>
      </trkpt>
      <trkpt lat="45.37971" lon="5.84801">
        <ele>919.6</ele>
        <time>2014-08-24T14:04:52Z</time>
      </trkpt>
      <trkpt lat="45.37966" lon="5.84787">
        <ele>919.7</ele>
        <time>2014-08-24T14:04:56Z</time>
      </trkpt>
      <trkpt lat="45.3796" lon="5.84777">
        <ele>919.8</ele>
        <time>2014-08-24T14:04:59Z</time>
      </trkpt>
      <trkpt lat="45.37952" lon="5.84766">
        <ele>907.7</ele>
        <time>2014-08-24T14:05:03Z</time>
      </trkpt>
      <trkpt lat="45.37945" lon="5.84758">
        <ele>914.2</ele>
        <time>2014-08-24T14:05:07Z</time>
      </trkpt>
      <trkpt lat="45.37939" lon="5.84746">
        <ele>923</ele>
        <time>2014-08-24T14:05:11Z</time>
      </trkpt>
      <trkpt lat="45.37932" lon="5.84733">
        <ele>922.9</ele>
        <time>2014-08-24T14:05:15Z</time>
      </trkpt>
      <trkpt lat="45.37925" lon="5.84722">
        <ele>923.5</ele>
        <time>2014-08-24T14:05:19Z</time>
      </trkpt>
      <trkpt lat="45.37916" lon="5.84709">
        <ele>924.3</ele>
        <time>2014-08-24T14:05:23Z</time>
      </trkpt>
      <trkpt lat="45.37909" lon="5.84697">
        <ele>923.6</ele>
        <time>2014-08-24T14:05:27Z</time>
      </trkpt>
      <trkpt lat="45.37901" lon="5.84684">
        <ele>924</ele>
        <time>2014-08-24T14:05:31Z</time>
      </trkpt>
      <trkpt lat="45.37895" lon="5.84675">
        <ele>924.6</ele>
        <time>2014-08-24T14:05:35Z</time>
      </trkpt>
      <trkpt lat="45.37886" lon="5.84666">
        <ele>925.7</ele>
        <time>2014-08-24T14:05:40Z</time>
      </trkpt>
      <trkpt lat="45.37878" lon="5.84659">
        <ele>926.4</ele>
        <time>2014-08-24T14:05:45Z</time>
      </trkpt>
      <trkpt lat="45.3787" lon="5.84652">
        <ele>927.6</ele>
        <time>2014-08-24T14:05:50Z</time>
      </trkpt>
      <trkpt lat="45.3786" lon="5.84644">
        <ele>928.1</ele>
        <time>2014-08-24T14:05:56Z</time>
      </trkpt>
      <trkpt lat="45.37851" lon="5.84637">
        <ele>928.7</ele>
        <time>2014-08-24T14:06:02Z</time>
      </trkpt>
      <trkpt lat="45.37843" lon="5.84629">
        <ele>930</ele>
        <time>2014-08-24T14:06:08Z</time>
      </trkpt>
      <trkpt lat="45.37835" lon="5.8462">
        <ele>930.7</ele>
        <time>2014-08-24T14:06:14Z</time>
      </trkpt>
      <trkpt lat="45.37828" lon="5.84612">
        <ele>932</ele>
        <time>2014-08-24T14:06:20Z</time>
      </trkpt>
      <trkpt lat="45.3782" lon="5.84604">
        <ele>933.6</ele>
        <time>2014-08-24T14:06:26Z</time>
      </trkpt>
      <trkpt lat="45.37813" lon="5.84596">
        <ele>934.2</ele>
        <time>2014-08-24T14:06:31Z</time>
      </trkpt>
      <trkpt lat="45.37804" lon="5.84589">
        <ele>935.3</ele>
        <time>2014-08-24T14:06:36Z</time>
      </trkpt>
      <trkpt lat="45.37794" lon="5.84584">
        <ele>935.6</ele>
        <time>2014-08-24T14:06:41Z</time>
      </trkpt>
      <trkpt lat="45.37786" lon="5.84579">
        <ele>936.8</ele>
        <time>2014-08-24T14:06:46Z</time>
      </trkpt>
      <trkpt lat="45.37777" lon="5.84576">
        <ele>936.9</ele>
        <time>2014-08-24T14:06:51Z</time>
      </trkpt>
      <trkpt lat="45.37768" lon="5.84572">
        <ele>937.9</ele>
        <time>2014-08-24T14:06:56Z</time>
      </trkpt>
      <trkpt lat="45.37759" lon="5.84568">
        <ele>939.2</ele>
        <time>2014-08-24T14:07:01Z</time>
      </trkpt>
      <trkpt lat="45.3775" lon="5.84562">
        <ele>940.5</ele>
        <time>2014-08-24T14:07:07Z</time>
      </trkpt>
      <trkpt lat="45.37741" lon="5.84556">
        <ele>942.1</ele>
        <time>2014-08-24T14:07:13Z</time>
      </trkpt>
      <trkpt lat="45.37732" lon="5.8455">
        <ele>943.2</ele>
        <time>2014-08-24T14:07:20Z</time>
      </trkpt>
      <trkpt lat="45.37723" lon="5.84544">
        <ele>944</ele>
        <time>2014-08-24T14:07:26Z</time>
      </trkpt>
      <trkpt lat="45.37714" lon="5.84538">
        <ele>944.8</ele>
        <time>2014-08-24T14:07:32Z</time>
      </trkpt>
      <trkpt lat="45.37704" lon="5.84531">
        <ele>945.5</ele>
        <time>2014-08-24T14:07:38Z</time>
      </trkpt>
      <trkpt lat="45.37695" lon="5.84526">
        <ele>946</ele>
        <time>2014-08-24T14:07:44Z</time>
      </trkpt>
      <trkpt lat="45.37687" lon="5.84519">
        <ele>947.2</ele>
        <time>2014-08-24T14:07:50Z</time>
      </trkpt>
      <trkpt lat="45.37682" lon="5.84507">
        <ele>948</ele>
        <time>2014-08-24T14:07:57Z</time>
      </trkpt>
      <trkpt lat="45.37676" lon="5.84496">
        <ele>949.4</ele>
        <time>2014-08-24T14:08:04Z</time>
      </trkpt>
      <trkpt lat="45.3767" lon="5.84484">
        <ele>950.6</ele>
        <time>2014-08-24T14:08:11Z</time>
      </trkpt>
      <trkpt lat="45.37663" lon="5.84474">
        <ele>952.1</ele>
        <time>2014-08-24T14:08:18Z</time>
      </trkpt>
      <trkpt lat="45.37655" lon="5.84466">
        <ele>953.3</ele>
        <time>2014-08-24T14:08:25Z</time>
      </trkpt>
      <trkpt lat="45.37646" lon="5.84459">
        <ele>953.9</ele>
        <time>2014-08-24T14:08:32Z</time>
      </trkpt>
      <trkpt lat="45.37637" lon="5.84455">
        <ele>954</ele>
        <time>2014-08-24T14:08:37Z</time>
      </trkpt>
      <trkpt lat="45.37628" lon="5.84447">
        <ele>955</ele>
        <time>2014-08-24T14:08:43Z</time>
      </trkpt>
      <trkpt lat="45.3762" lon="5.84438">
        <ele>956.1</ele>
        <time>2014-08-24T14:08:49Z</time>
      </trkpt>
      <trkpt lat="45.37614" lon="5.84427">
        <ele>956.6</ele>
        <time>2014-08-24T14:08:55Z</time>
      </trkpt>
      <trkpt lat="45.37609" lon="5.84417">
        <ele>957.8</ele>
        <time>2014-08-24T14:09:01Z</time>
      </trkpt>
      <trkpt lat="45.37603" lon="5.84405">
        <ele>959.1</ele>
        <time>2014-08-24T14:09:07Z</time>
      </trkpt>
      <trkpt lat="45.37597" lon="5.84396">
        <ele>960</ele>
        <time>2014-08-24T14:09:13Z</time>
      </trkpt>
      <trkpt lat="45.3759" lon="5.84386">
        <ele>961.3</ele>
        <time>2014-08-24T14:09:19Z</time>
      </trkpt>
      <trkpt lat="45.37582" lon="5.84379">
        <ele>962.5</ele>
        <time>2014-08-24T14:09:25Z</time>
      </trkpt>
      <trkpt lat="45.37573" lon="5.84372">
        <ele>963.7</ele>
        <time>2014-08-24T14:09:31Z</time>
      </trkpt>
      <trkpt lat="45.37564" lon="5.84364">
        <ele>964.7</ele>
        <time>2014-08-24T14:09:37Z</time>
      </trkpt>
      <trkpt lat="45.37556" lon="5.84355">
        <ele>965.4</ele>
        <time>2014-08-24T14:09:43Z</time>
      </trkpt>
      <trkpt lat="45.37547" lon="5.84347">
        <ele>965.8</ele>
        <time>2014-08-24T14:09:49Z</time>
      </trkpt>
      <trkpt lat="45.37539" lon="5.84338">
        <ele>966.3</ele>
        <time>2014-08-24T14:09:55Z</time>
      </trkpt>
      <trkpt lat="45.37532" lon="5.84331">
        <ele>966.8</ele>
        <time>2014-08-24T14:10:00Z</time>
      </trkpt>
      <trkpt lat="45.37523" lon="5.84324">
        <ele>966.7</ele>
        <time>2014-08-24T14:10:05Z</time>
      </trkpt>
      <trkpt lat="45.37515" lon="5.84317">
        <ele>967.6</ele>
        <time>2014-08-24T14:10:11Z</time>
      </trkpt>
      <trkpt lat="45.37507" lon="5.84309">
        <ele>968.5</ele>
        <time>2014-08-24T14:10:16Z</time>
      </trkpt>
      <trkpt lat="45.37499" lon="5.84303">
        <ele>969.3</ele>
        <time>2014-08-24T14:10:21Z</time>
      </trkpt>
      <trkpt lat="45.3749" lon="5.84295">
        <ele>969.7</ele>
        <time>2014-08-24T14:10:27Z</time>
      </trkpt>
      <trkpt lat="45.37481" lon="5.84289">
        <ele>970.7</ele>
        <time>2014-08-24T14:10:32Z</time>
      </trkpt>
      <trkpt lat="45.37473" lon="5.84283">
        <ele>971.4</ele>
        <time>2014-08-24T14:10:37Z</time>
      </trkpt>
      <trkpt lat="45.37465" lon="5.84275">
        <ele>972.5</ele>
        <time>2014-08-24T14:10:43Z</time>
      </trkpt>
      <trkpt lat="45.37457" lon="5.84266">
        <ele>974.5</ele>
        <time>2014-08-24T14:10:49Z</time>
      </trkpt>
      <trkpt lat="45.37449" lon="5.84258">
        <ele>975.6</ele>
        <time>2014-08-24T14:10:55Z</time>
      </trkpt>
      <trkpt lat="45.37439" lon="5.84252">
        <ele>977.2</ele>
        <time>2014-08-24T14:11:02Z</time>
      </trkpt>
      <trkpt lat="45.37431" lon="5.84246">
        <ele>978.5</ele>
        <time>2014-08-24T14:11:08Z</time>
      </trkpt>
      <trkpt lat="45.37423" lon="5.8424">
        <ele>979.3</ele>
        <time>2014-08-24T14:11:14Z</time>
      </trkpt>
      <trkpt lat="45.37414" lon="5.84233">
        <ele>980.4</ele>
        <time>2014-08-24T14:11:21Z</time>
      </trkpt>
      <trkpt lat="45.37406" lon="5.84226">
        <ele>981.2</ele>
        <time>2014-08-24T14:11:27Z</time>
      </trkpt>
      <trkpt lat="45.37397" lon="5.84219">
        <ele>982.2</ele>
        <time>2014-08-24T14:11:33Z</time>
      </trkpt>
      <trkpt lat="45.37389" lon="5.84211">
        <ele>983.3</ele>
        <time>2014-08-24T14:11:39Z</time>
      </trkpt>
      <trkpt lat="45.3738" lon="5.84204">
        <ele>984.4</ele>
        <time>2014-08-24T14:11:45Z</time>
      </trkpt>
      <trkpt lat="45.37371" lon="5.84201">
        <ele>985.3</ele>
        <time>2014-08-24T14:11:51Z</time>
      </trkpt>
      <trkpt lat="45.37361" lon="5.842">
        <ele>986.4</ele>
        <time>2014-08-24T14:11:57Z</time>
      </trkpt>
      <trkpt lat="45.37351" lon="5.84199">
        <ele>986.8</ele>
        <time>2014-08-24T14:12:03Z</time>
      </trkpt>
      <trkpt lat="45.37341" lon="5.84196">
        <ele>987.6</ele>
        <time>2014-08-24T14:12:09Z</time>
      </trkpt>
      <trkpt lat="45.37331" lon="5.84192">
        <ele>988.5</ele>
        <time>2014-08-24T14:12:16Z</time>
      </trkpt>
      <trkpt lat="45.37322" lon="5.84189">
        <ele>991.4</ele>
        <time>2014-08-24T14:12:23Z</time>
      </trkpt>
      <trkpt lat="45.37313" lon="5.84184">
        <ele>991.3</ele>
        <time>2014-08-24T14:12:30Z</time>
      </trkpt>
      <trkpt lat="45.37304" lon="5.84177">
        <ele>992.2</ele>
        <time>2014-08-24T14:12:37Z</time>
      </trkpt>
      <trkpt lat="45.37296" lon="5.84171">
        <ele>993.9</ele>
        <time>2014-08-24T14:12:45Z</time>
      </trkpt>
      <trkpt lat="45.37287" lon="5.84167">
        <ele>995.4</ele>
        <time>2014-08-24T14:12:52Z</time>
      </trkpt>
      <trkpt lat="45.37277" lon="5.84161">
        <ele>997.2</ele>
        <time>2014-08-24T14:12:59Z</time>
      </trkpt>
      <trkpt lat="45.3727" lon="5.84151">
        <ele>998.4</ele>
        <time>2014-08-24T14:13:06Z</time>
      </trkpt>
      <trkpt lat="45.37261" lon="5.84146">
        <ele>999.5</ele>
        <time>2014-08-24T14:13:14Z</time>
      </trkpt>
      <trkpt lat="45.37252" lon="5.84144">
        <ele>1001.4</ele>
        <time>2014-08-24T14:13:21Z</time>
      </trkpt>
      <trkpt lat="45.37243" lon="5.84142">
        <ele>1002.8</ele>
        <time>2014-08-24T14:13:28Z</time>
      </trkpt>
      <trkpt lat="45.37233" lon="5.84137">
        <ele>1003.4</ele>
        <time>2014-08-24T14:13:36Z</time>
      </trkpt>
      <trkpt lat="45.37224" lon="5.84131">
        <ele>1005.8</ele>
        <time>2014-08-24T14:13:43Z</time>
      </trkpt>
      <trkpt lat="45.37215" lon="5.84125">
        <ele>1007</ele>
        <time>2014-08-24T14:13:51Z</time>
      </trkpt>
      <trkpt lat="45.37206" lon="5.8412">
        <ele>1008.5</ele>
        <time>2014-08-24T14:13:58Z</time>
      </trkpt>
      <trkpt lat="45.37197" lon="5.84119">
        <ele>1010</ele>
        <time>2014-08-24T14:14:05Z</time>
      </trkpt>
      <trkpt lat="45.37188" lon="5.84117">
        <ele>1011.4</ele>
        <time>2014-08-24T14:14:13Z</time>
      </trkpt>
      <trkpt lat="45.37178" lon="5.84115">
        <ele>1013.4</ele>
        <time>2014-08-24T14:14:20Z</time>
      </trkpt>
      <trkpt lat="45.37171" lon="5.84105">
        <ele>1015.3</ele>
        <time>2014-08-24T14:14:27Z</time>
      </trkpt>
      <trkpt lat="45.37162" lon="5.84099">
        <ele>1016.3</ele>
        <time>2014-08-24T14:14:33Z</time>
      </trkpt>
      <trkpt lat="45.37153" lon="5.84092">
        <ele>1017.2</ele>
        <time>2014-08-24T14:14:40Z</time>
      </trkpt>
      <trkpt lat="45.37145" lon="5.84083">
        <ele>1017.8</ele>
        <time>2014-08-24T14:14:46Z</time>
      </trkpt>
      <trkpt lat="45.37139" lon="5.84072">
        <ele>1018.1</ele>
        <time>2014-08-24T14:14:52Z</time>
      </trkpt>
      <trkpt lat="45.37133" lon="5.84061">
        <ele>1018.7</ele>
        <time>2014-08-24T14:14:58Z</time>
      </trkpt>
      <trkpt lat="45.37128" lon="5.84049">
        <ele>1019.4</ele>
        <time>2014-08-24T14:15:04Z</time>
      </trkpt>
      <trkpt lat="45.37122" lon="5.84037">
        <ele>1020.4</ele>
        <time>2014-08-24T14:15:10Z</time>
      </trkpt>
      <trkpt lat="45.37114" lon="5.8403">
        <ele>1021</ele>
        <time>2014-08-24T14:15:17Z</time>
      </trkpt>
      <trkpt lat="45.37109" lon="5.84018">
        <ele>1022.3</ele>
        <time>2014-08-24T14:15:23Z</time>
      </trkpt>
      <trkpt lat="45.37104" lon="5.84006">
        <ele>1023.6</ele>
        <time>2014-08-24T14:15:30Z</time>
      </trkpt>
      <trkpt lat="45.37101" lon="5.83993">
        <ele>1025.1</ele>
        <time>2014-08-24T14:15:37Z</time>
      </trkpt>
      <trkpt lat="45.37101" lon="5.8398">
        <ele>1026.2</ele>
        <time>2014-08-24T14:15:44Z</time>
      </trkpt>
      <trkpt lat="45.37098" lon="5.83967">
        <ele>1028.2</ele>
        <time>2014-08-24T14:15:51Z</time>
      </trkpt>
      <trkpt lat="45.37092" lon="5.83955">
        <ele>1030.5</ele>
        <time>2014-08-24T14:15:58Z</time>
      </trkpt>
      <trkpt lat="45.37086" lon="5.83945">
        <ele>1031.8</ele>
        <time>2014-08-24T14:16:05Z</time>
      </trkpt>
      <trkpt lat="45.37078" lon="5.83939">
        <ele>1033.2</ele>
        <time>2014-08-24T14:16:11Z</time>
      </trkpt>
      <trkpt lat="45.37069" lon="5.83937">
        <ele>1034.2</ele>
        <time>2014-08-24T14:16:16Z</time>
      </trkpt>
      <trkpt lat="45.37059" lon="5.83935">
        <ele>1036</ele>
        <time>2014-08-24T14:16:23Z</time>
      </trkpt>
      <trkpt lat="45.37049" lon="5.83934">
        <ele>1037.5</ele>
        <time>2014-08-24T14:16:30Z</time>
      </trkpt>
      <trkpt lat="45.3704" lon="5.83929">
        <ele>1038.2</ele>
        <time>2014-08-24T14:16:37Z</time>
      </trkpt>
      <trkpt lat="45.37032" lon="5.8392">
        <ele>1039.5</ele>
        <time>2014-08-24T14:16:44Z</time>
      </trkpt>
      <trkpt lat="45.37026" lon="5.83908">
        <ele>1041.2</ele>
        <time>2014-08-24T14:16:51Z</time>
      </trkpt>
      <trkpt lat="45.37023" lon="5.83896">
        <ele>1042.3</ele>
        <time>2014-08-24T14:16:58Z</time>
      </trkpt>
      <trkpt lat="45.37017" lon="5.83886">
        <ele>1044.1</ele>
        <time>2014-08-24T14:17:05Z</time>
      </trkpt>
      <trkpt lat="45.37012" lon="5.83875">
        <ele>1045.9</ele>
        <time>2014-08-24T14:17:14Z</time>
      </trkpt>
      <trkpt lat="45.37007" lon="5.83863">
        <ele>1047.5</ele>
        <time>2014-08-24T14:17:22Z</time>
      </trkpt>
      <trkpt lat="45.37" lon="5.83854">
        <ele>1048.7</ele>
        <time>2014-08-24T14:17:30Z</time>
      </trkpt>
      <trkpt lat="45.36993" lon="5.83843">
        <ele>1050.3</ele>
        <time>2014-08-24T14:17:39Z</time>
      </trkpt>
      <trkpt lat="45.36986" lon="5.83835">
        <ele>1051.1</ele>
        <time>2014-08-24T14:17:46Z</time>
      </trkpt>
      <trkpt lat="45.36977" lon="5.83831">
        <ele>1052.9</ele>
        <time>2014-08-24T14:17:56Z</time>
      </trkpt>
      <trkpt lat="45.36968" lon="5.83825">
        <ele>1054.8</ele>
        <time>2014-08-24T14:18:04Z</time>
      </trkpt>
      <trkpt lat="45.36964" lon="5.83812">
        <ele>1056.1</ele>
        <time>2014-08-24T14:18:11Z</time>
      </trkpt>
      <trkpt lat="45.36961" lon="5.83799">
        <ele>1057.9</ele>
        <time>2014-08-24T14:18:19Z</time>
      </trkpt>
      <trkpt lat="45.36959" lon="5.83785">
        <ele>1060</ele>
        <time>2014-08-24T14:18:27Z</time>
      </trkpt>
      <trkpt lat="45.36954" lon="5.83774">
        <ele>1061.9</ele>
        <time>2014-08-24T14:18:34Z</time>
      </trkpt>
      <trkpt lat="45.36951" lon="5.83761">
        <ele>1064.2</ele>
        <time>2014-08-24T14:18:41Z</time>
      </trkpt>
      <trkpt lat="45.36958" lon="5.83753">
        <ele>1065.1</ele>
        <time>2014-08-24T14:18:48Z</time>
      </trkpt>
      <trkpt lat="45.36951" lon="5.83745">
        <ele>1065.8</ele>
        <time>2014-08-24T14:18:59Z</time>
      </trkpt>
      <trkpt lat="45.36942" lon="5.83745">
        <ele>1066.9</ele>
        <time>2014-08-24T14:19:08Z</time>
      </trkpt>
      <trkpt lat="45.36933" lon="5.83738">
        <ele>1068.4</ele>
        <time>2014-08-24T14:19:16Z</time>
      </trkpt>
      <trkpt lat="45.36924" lon="5.83733">
        <ele>1069.9</ele>
        <time>2014-08-24T14:19:23Z</time>
      </trkpt>
      <trkpt lat="45.36916" lon="5.83727">
        <ele>1071.2</ele>
        <time>2014-08-24T14:19:30Z</time>
      </trkpt>
      <trkpt lat="45.36908" lon="5.83719">
        <ele>1072.8</ele>
        <time>2014-08-24T14:19:37Z</time>
      </trkpt>
      <trkpt lat="45.369" lon="5.83712">
        <ele>1074.7</ele>
        <time>2014-08-24T14:19:45Z</time>
      </trkpt>
      <trkpt lat="45.36891" lon="5.83708">
        <ele>1076.3</ele>
        <time>2014-08-24T14:19:52Z</time>
      </trkpt>
      <trkpt lat="45.36882" lon="5.83702">
        <ele>1077.2</ele>
        <time>2014-08-24T14:19:59Z</time>
      </trkpt>
      <trkpt lat="45.36874" lon="5.83694">
        <ele>1078.6</ele>
        <time>2014-08-24T14:20:07Z</time>
      </trkpt>
      <trkpt lat="45.36866" lon="5.83688">
        <ele>1079.7</ele>
        <time>2014-08-24T14:20:15Z</time>
      </trkpt>
      <trkpt lat="45.36859" lon="5.83679">
        <ele>1080.3</ele>
        <time>2014-08-24T14:20:21Z</time>
      </trkpt>
      <trkpt lat="45.36853" lon="5.8367">
        <ele>1081.1</ele>
        <time>2014-08-24T14:20:27Z</time>
      </trkpt>
      <trkpt lat="45.36845" lon="5.83661">
        <ele>1082.7</ele>
        <time>2014-08-24T14:20:34Z</time>
      </trkpt>
      <trkpt lat="45.36837" lon="5.83653">
        <ele>1083.7</ele>
        <time>2014-08-24T14:20:41Z</time>
      </trkpt>
      <trkpt lat="45.36829" lon="5.83645">
        <ele>1085</ele>
        <time>2014-08-24T14:20:48Z</time>
      </trkpt>
      <trkpt lat="45.3682" lon="5.83638">
        <ele>1086.2</ele>
        <time>2014-08-24T14:20:55Z</time>
      </trkpt>
      <trkpt lat="45.36812" lon="5.8363">
        <ele>1087</ele>
        <time>2014-08-24T14:21:02Z</time>
      </trkpt>
      <trkpt lat="45.36804" lon="5.83622">
        <ele>1088.1</ele>
        <time>2014-08-24T14:21:09Z</time>
      </trkpt>
      <trkpt lat="45.36797" lon="5.83611">
        <ele>1088.8</ele>
        <time>2014-08-24T14:21:16Z</time>
      </trkpt>
      <trkpt lat="45.36791" lon="5.83601">
        <ele>1089.8</ele>
        <time>2014-08-24T14:21:22Z</time>
      </trkpt>
      <trkpt lat="45.36787" lon="5.83588">
        <ele>1090.5</ele>
        <time>2014-08-24T14:21:29Z</time>
      </trkpt>
      <trkpt lat="45.36783" lon="5.83575">
        <ele>1091</ele>
        <time>2014-08-24T14:21:36Z</time>
      </trkpt>
      <trkpt lat="45.36778" lon="5.83562">
        <ele>1091.1</ele>
        <time>2014-08-24T14:21:43Z</time>
      </trkpt>
      <trkpt lat="45.36774" lon="5.83549">
        <ele>1091.5</ele>
        <time>2014-08-24T14:21:50Z</time>
      </trkpt>
      <trkpt lat="45.36771" lon="5.83535">
        <ele>1092.8</ele>
        <time>2014-08-24T14:21:57Z</time>
      </trkpt>
      <trkpt lat="45.36767" lon="5.83524">
        <ele>1094.2</ele>
        <time>2014-08-24T14:22:03Z</time>
      </trkpt>
      <trkpt lat="45.36762" lon="5.83512">
        <ele>1096.4</ele>
        <time>2014-08-24T14:22:09Z</time>
      </trkpt>
      <trkpt lat="45.36755" lon="5.83503">
        <ele>1100.1</ele>
        <time>2014-08-24T14:22:31Z</time>
      </trkpt>
      <trkpt lat="45.36755" lon="5.8349">
        <ele>1101.3</ele>
        <time>2014-08-24T14:22:49Z</time>
      </trkpt>
      <trkpt lat="45.36747" lon="5.8348">
        <ele>1101.9</ele>
        <time>2014-08-24T14:22:55Z</time>
      </trkpt>
      <trkpt lat="45.36737" lon="5.83474">
        <ele>1102.4</ele>
        <time>2014-08-24T14:23:01Z</time>
      </trkpt>
      <trkpt lat="45.36729" lon="5.83468">
        <ele>1105.3</ele>
        <time>2014-08-24T14:23:07Z</time>
      </trkpt>
      <trkpt lat="45.36719" lon="5.83462">
        <ele>1105.4</ele>
        <time>2014-08-24T14:23:13Z</time>
      </trkpt>
      <trkpt lat="45.3671" lon="5.83456">
        <ele>1105.9</ele>
        <time>2014-08-24T14:23:19Z</time>
      </trkpt>
      <trkpt lat="45.36701" lon="5.83452">
        <ele>1106.6</ele>
        <time>2014-08-24T14:23:25Z</time>
      </trkpt>
      <trkpt lat="45.36692" lon="5.83447">
        <ele>1107.4</ele>
        <time>2014-08-24T14:23:31Z</time>
      </trkpt>
      <trkpt lat="45.36683" lon="5.83442">
        <ele>1108</ele>
        <time>2014-08-24T14:23:36Z</time>
      </trkpt>
      <trkpt lat="45.36673" lon="5.8344">
        <ele>1110.9</ele>
        <time>2014-08-24T14:23:41Z</time>
      </trkpt>
      <trkpt lat="45.36663" lon="5.83437">
        <ele>1110.7</ele>
        <time>2014-08-24T14:23:46Z</time>
      </trkpt>
      <trkpt lat="45.36654" lon="5.83436">
        <ele>1111.2</ele>
        <time>2014-08-24T14:23:50Z</time>
      </trkpt>
      <trkpt lat="45.36642" lon="5.83435">
        <ele>1111.6</ele>
        <time>2014-08-24T14:23:55Z</time>
      </trkpt>
      <trkpt lat="45.36631" lon="5.83435">
        <ele>1112.8</ele>
        <time>2014-08-24T14:24:00Z</time>
      </trkpt>
      <trkpt lat="45.3662" lon="5.83436">
        <ele>1113.4</ele>
        <time>2014-08-24T14:24:05Z</time>
      </trkpt>
      <trkpt lat="45.3661" lon="5.83434">
        <ele>1114.8</ele>
        <time>2014-08-24T14:24:10Z</time>
      </trkpt>
      <trkpt lat="45.366" lon="5.83431">
        <ele>1115.6</ele>
        <time>2014-08-24T14:24:15Z</time>
      </trkpt>
      <trkpt lat="45.3659" lon="5.83429">
        <ele>1116.4</ele>
        <time>2014-08-24T14:24:20Z</time>
      </trkpt>
      <trkpt lat="45.3658" lon="5.83426">
        <ele>1117.3</ele>
        <time>2014-08-24T14:24:25Z</time>
      </trkpt>
      <trkpt lat="45.3657" lon="5.83422">
        <ele>1118.2</ele>
        <time>2014-08-24T14:24:30Z</time>
      </trkpt>
      <trkpt lat="45.3656" lon="5.83417">
        <ele>1119.2</ele>
        <time>2014-08-24T14:24:35Z</time>
      </trkpt>
      <trkpt lat="45.36552" lon="5.8341">
        <ele>1119.7</ele>
        <time>2014-08-24T14:24:40Z</time>
      </trkpt>
      <trkpt lat="45.36543" lon="5.83403">
        <ele>1120.5</ele>
        <time>2014-08-24T14:24:45Z</time>
      </trkpt>
      <trkpt lat="45.36535" lon="5.83398">
        <ele>1119.6</ele>
        <time>2014-08-24T14:26:11Z</time>
      </trkpt>
      <trkpt lat="45.36525" lon="5.83391">
        <ele>1119.1</ele>
        <time>2014-08-24T14:26:15Z</time>
      </trkpt>
      <trkpt lat="45.36515" lon="5.83383">
        <ele>1118.5</ele>
        <time>2014-08-24T14:26:18Z</time>
      </trkpt>
      <trkpt lat="45.36503" lon="5.83374">
        <ele>1118</ele>
        <time>2014-08-24T14:26:21Z</time>
      </trkpt>
      <trkpt lat="45.36494" lon="5.83367">
        <ele>1117.4</ele>
        <time>2014-08-24T14:26:23Z</time>
      </trkpt>
      <trkpt lat="45.36486" lon="5.83359">
        <ele>1116.7</ele>
        <time>2014-08-24T14:26:25Z</time>
      </trkpt>
      <trkpt lat="45.36476" lon="5.83351">
        <ele>1115.8</ele>
        <time>2014-08-24T14:26:27Z</time>
      </trkpt>
      <trkpt lat="45.36466" lon="5.83343">
        <ele>1115</ele>
        <time>2014-08-24T14:26:29Z</time>
      </trkpt>
      <trkpt lat="45.36456" lon="5.83335">
        <ele>1114.1</ele>
        <time>2014-08-24T14:26:31Z</time>
      </trkpt>
      <trkpt lat="45.36447" lon="5.83325">
        <ele>1112.7</ele>
        <time>2014-08-24T14:26:34Z</time>
      </trkpt>
      <trkpt lat="45.36439" lon="5.83318">
        <ele>1111.7</ele>
        <time>2014-08-24T14:26:37Z</time>
      </trkpt>
      <trkpt lat="45.36431" lon="5.83308">
        <ele>1110.5</ele>
        <time>2014-08-24T14:26:40Z</time>
      </trkpt>
      <trkpt lat="45.3642" lon="5.83295">
        <ele>1109.5</ele>
        <time>2014-08-24T14:26:43Z</time>
      </trkpt>
      <trkpt lat="45.36411" lon="5.83286">
        <ele>1108.9</ele>
        <time>2014-08-24T14:26:45Z</time>
      </trkpt>
      <trkpt lat="45.36402" lon="5.83276">
        <ele>1108.3</ele>
        <time>2014-08-24T14:26:47Z</time>
      </trkpt>
      <trkpt lat="45.36395" lon="5.83266">
        <ele>1107.1</ele>
        <time>2014-08-24T14:26:49Z</time>
      </trkpt>
      <trkpt lat="45.36388" lon="5.83254">
        <ele>1106</ele>
        <time>2014-08-24T14:26:51Z</time>
      </trkpt>
      <trkpt lat="45.36382" lon="5.83237">
        <ele>1105</ele>
        <time>2014-08-24T14:26:53Z</time>
      </trkpt>
      <trkpt lat="45.36376" lon="5.83219">
        <ele>1103.8</ele>
        <time>2014-08-24T14:26:55Z</time>
      </trkpt>
      <trkpt lat="45.36371" lon="5.83202">
        <ele>1102.5</ele>
        <time>2014-08-24T14:26:57Z</time>
      </trkpt>
      <trkpt lat="45.36364" lon="5.83187">
        <ele>1101.4</ele>
        <time>2014-08-24T14:26:59Z</time>
      </trkpt>
      <trkpt lat="45.36354" lon="5.83176">
        <ele>1100.4</ele>
        <time>2014-08-24T14:27:01Z</time>
      </trkpt>
      <trkpt lat="45.36343" lon="5.83165">
        <ele>1099.3</ele>
        <time>2014-08-24T14:27:03Z</time>
      </trkpt>
      <trkpt lat="45.36331" lon="5.83156">
        <ele>1098.2</ele>
        <time>2014-08-24T14:27:05Z</time>
      </trkpt>
      <trkpt lat="45.3632" lon="5.83146">
        <ele>1096.8</ele>
        <time>2014-08-24T14:27:07Z</time>
      </trkpt>
      <trkpt lat="45.3631" lon="5.83134">
        <ele>1095.9</ele>
        <time>2014-08-24T14:27:09Z</time>
      </trkpt>
      <trkpt lat="45.36299" lon="5.83123">
        <ele>1094.8</ele>
        <time>2014-08-24T14:27:11Z</time>
      </trkpt>
      <trkpt lat="45.36288" lon="5.83111">
        <ele>1094.1</ele>
        <time>2014-08-24T14:27:13Z</time>
      </trkpt>
      <trkpt lat="45.36278" lon="5.83099">
        <ele>1093.1</ele>
        <time>2014-08-24T14:27:15Z</time>
      </trkpt>
      <trkpt lat="45.36267" lon="5.83086">
        <ele>1092.1</ele>
        <time>2014-08-24T14:27:17Z</time>
      </trkpt>
      <trkpt lat="45.36256" lon="5.83073">
        <ele>1091.2</ele>
        <time>2014-08-24T14:27:19Z</time>
      </trkpt>
      <trkpt lat="45.36243" lon="5.83059">
        <ele>1090.1</ele>
        <time>2014-08-24T14:27:21Z</time>
      </trkpt>
      <trkpt lat="45.36231" lon="5.83045">
        <ele>1088.7</ele>
        <time>2014-08-24T14:27:23Z</time>
      </trkpt>
      <trkpt lat="45.36219" lon="5.83032">
        <ele>1087.2</ele>
        <time>2014-08-24T14:27:25Z</time>
      </trkpt>
      <trkpt lat="45.36209" lon="5.83021">
        <ele>1085.6</ele>
        <time>2014-08-24T14:27:27Z</time>
      </trkpt>
      <trkpt lat="45.362" lon="5.83011">
        <ele>1084.2</ele>
        <time>2014-08-24T14:27:29Z</time>
      </trkpt>
      <trkpt lat="45.3619" lon="5.83004">
        <ele>1082.7</ele>
        <time>2014-08-24T14:27:31Z</time>
      </trkpt>
      <trkpt lat="45.36181" lon="5.83">
        <ele>1081.7</ele>
        <time>2014-08-24T14:27:33Z</time>
      </trkpt>
      <trkpt lat="45.36169" lon="5.82997">
        <ele>1080.5</ele>
        <time>2014-08-24T14:27:36Z</time>
      </trkpt>
      <trkpt lat="45.3616" lon="5.82994">
        <ele>1079.5</ele>
        <time>2014-08-24T14:27:40Z</time>
      </trkpt>
      <trkpt lat="45.3615" lon="5.82992">
        <ele>1077.9</ele>
        <time>2014-08-24T14:28:47Z</time>
      </trkpt>
      <trkpt lat="45.36143" lon="5.83001">
        <ele>1077.4</ele>
        <time>2014-08-24T14:28:49Z</time>
      </trkpt>
      <trkpt lat="45.36134" lon="5.8301">
        <ele>1077.5</ele>
        <time>2014-08-24T14:28:52Z</time>
      </trkpt>
      <trkpt lat="45.36125" lon="5.83017">
        <ele>1077.8</ele>
        <time>2014-08-24T14:28:57Z</time>
      </trkpt>
      <trkpt lat="45.36115" lon="5.83023">
        <ele>1078.1</ele>
        <time>2014-08-24T14:29:02Z</time>
      </trkpt>
      <trkpt lat="45.36106" lon="5.8303">
        <ele>1078.9</ele>
        <time>2014-08-24T14:29:07Z</time>
      </trkpt>
      <trkpt lat="45.36096" lon="5.83033">
        <ele>1079.8</ele>
        <time>2014-08-24T14:29:12Z</time>
      </trkpt>
      <trkpt lat="45.36086" lon="5.83039">
        <ele>1080.3</ele>
        <time>2014-08-24T14:29:17Z</time>
      </trkpt>
      <trkpt lat="45.36076" lon="5.83043">
        <ele>1080.7</ele>
        <time>2014-08-24T14:29:21Z</time>
      </trkpt>
      <trkpt lat="45.36067" lon="5.83048">
        <ele>1081</ele>
        <time>2014-08-24T14:29:25Z</time>
      </trkpt>
      <trkpt lat="45.36058" lon="5.83054">
        <ele>1081</ele>
        <time>2014-08-24T14:29:29Z</time>
      </trkpt>
      <trkpt lat="45.36048" lon="5.83059">
        <ele>1082</ele>
        <time>2014-08-24T14:29:33Z</time>
      </trkpt>
      <trkpt lat="45.36039" lon="5.83062">
        <ele>1082.7</ele>
        <time>2014-08-24T14:29:37Z</time>
      </trkpt>
      <trkpt lat="45.3603" lon="5.83067">
        <ele>1083</ele>
        <time>2014-08-24T14:29:41Z</time>
      </trkpt>
      <trkpt lat="45.36022" lon="5.83075">
        <ele>1083.6</ele>
        <time>2014-08-24T14:29:45Z</time>
      </trkpt>
      <trkpt lat="45.36014" lon="5.83083">
        <ele>1083.9</ele>
        <time>2014-08-24T14:29:49Z</time>
      </trkpt>
      <trkpt lat="45.36004" lon="5.83092">
        <ele>1084.4</ele>
        <time>2014-08-24T14:29:53Z</time>
      </trkpt>
      <trkpt lat="45.35994" lon="5.831">
        <ele>1084.9</ele>
        <time>2014-08-24T14:29:57Z</time>
      </trkpt>
      <trkpt lat="45.35985" lon="5.83109">
        <ele>1084.8</ele>
        <time>2014-08-24T14:30:01Z</time>
      </trkpt>
      <trkpt lat="45.35975" lon="5.83118">
        <ele>1085.3</ele>
        <time>2014-08-24T14:30:05Z</time>
      </trkpt>
      <trkpt lat="45.35966" lon="5.83127">
        <ele>1085.4</ele>
        <time>2014-08-24T14:30:09Z</time>
      </trkpt>
      <trkpt lat="45.35956" lon="5.83137">
        <ele>1085.6</ele>
        <time>2014-08-24T14:30:13Z</time>
      </trkpt>
      <trkpt lat="45.35948" lon="5.83144">
        <ele>1086.2</ele>
        <time>2014-08-24T14:30:16Z</time>
      </trkpt>
      <trkpt lat="45.35938" lon="5.83153">
        <ele>1086</ele>
        <time>2014-08-24T14:30:19Z</time>
      </trkpt>
      <trkpt lat="45.35928" lon="5.83162">
        <ele>1086.7</ele>
        <time>2014-08-24T14:30:23Z</time>
      </trkpt>
      <trkpt lat="45.35919" lon="5.83169">
        <ele>1087.2</ele>
        <time>2014-08-24T14:30:26Z</time>
      </trkpt>
      <trkpt lat="45.35911" lon="5.83177">
        <ele>1087.4</ele>
        <time>2014-08-24T14:30:29Z</time>
      </trkpt>
      <trkpt lat="45.35904" lon="5.83187">
        <ele>1088.3</ele>
        <time>2014-08-24T14:30:32Z</time>
      </trkpt>
      <trkpt lat="45.35897" lon="5.83197">
        <ele>1088.1</ele>
        <time>2014-08-24T14:30:35Z</time>
      </trkpt>
      <trkpt lat="45.3589" lon="5.83207">
        <ele>1088.6</ele>
        <time>2014-08-24T14:30:38Z</time>
      </trkpt>
      <trkpt lat="45.35885" lon="5.83219">
        <ele>1089.1</ele>
        <time>2014-08-24T14:30:41Z</time>
      </trkpt>
      <trkpt lat="45.35879" lon="5.83229">
        <ele>1089.3</ele>
        <time>2014-08-24T14:30:44Z</time>
      </trkpt>
      <trkpt lat="45.3587" lon="5.8324">
        <ele>1090.2</ele>
        <time>2014-08-24T14:30:48Z</time>
      </trkpt>
      <trkpt lat="45.35861" lon="5.83249">
        <ele>1090.3</ele>
        <time>2014-08-24T14:30:52Z</time>
      </trkpt>
      <trkpt lat="45.35851" lon="5.83257">
        <ele>1090.7</ele>
        <time>2014-08-24T14:30:56Z</time>
      </trkpt>
      <trkpt lat="45.35842" lon="5.83266">
        <ele>1091</ele>
        <time>2014-08-24T14:31:00Z</time>
      </trkpt>
      <trkpt lat="45.35832" lon="5.83273">
        <ele>1091.6</ele>
        <time>2014-08-24T14:31:04Z</time>
      </trkpt>
      <trkpt lat="45.35822" lon="5.83278">
        <ele>1092.2</ele>
        <time>2014-08-24T14:31:08Z</time>
      </trkpt>
      <trkpt lat="45.35812" lon="5.83279">
        <ele>1092.8</ele>
        <time>2014-08-24T14:31:12Z</time>
      </trkpt>
      <trkpt lat="45.35803" lon="5.83275">
        <ele>1093.5</ele>
        <time>2014-08-24T14:31:16Z</time>
      </trkpt>
      <trkpt lat="45.35798" lon="5.83261">
        <ele>1094</ele>
        <time>2014-08-24T14:31:20Z</time>
      </trkpt>
      <trkpt lat="45.35794" lon="5.83247">
        <ele>1094.7</ele>
        <time>2014-08-24T14:31:24Z</time>
      </trkpt>
      <trkpt lat="45.35793" lon="5.83232">
        <ele>1095.5</ele>
        <time>2014-08-24T14:31:28Z</time>
      </trkpt>
      <trkpt lat="45.35793" lon="5.83216">
        <ele>1096.1</ele>
        <time>2014-08-24T14:31:32Z</time>
      </trkpt>
      <trkpt lat="45.35792" lon="5.83202">
        <ele>1096</ele>
        <time>2014-08-24T14:31:36Z</time>
      </trkpt>
      <trkpt lat="45.35792" lon="5.83188">
        <ele>1096.9</ele>
        <time>2014-08-24T14:31:40Z</time>
      </trkpt>
      <trkpt lat="45.3579" lon="5.83173">
        <ele>1097.4</ele>
        <time>2014-08-24T14:31:44Z</time>
      </trkpt>
      <trkpt lat="45.35787" lon="5.83158">
        <ele>1097.3</ele>
        <time>2014-08-24T14:31:48Z</time>
      </trkpt>
      <trkpt lat="45.35782" lon="5.83147">
        <ele>1098</ele>
        <time>2014-08-24T14:31:52Z</time>
      </trkpt>
      <trkpt lat="45.35775" lon="5.83137">
        <ele>1098.5</ele>
        <time>2014-08-24T14:31:57Z</time>
      </trkpt>
      <trkpt lat="45.35767" lon="5.83128">
        <ele>1099.1</ele>
        <time>2014-08-24T14:32:03Z</time>
      </trkpt>
      <trkpt lat="45.35757" lon="5.83127">
        <ele>1100.4</ele>
        <time>2014-08-24T14:32:09Z</time>
      </trkpt>
      <trkpt lat="45.35748" lon="5.83128">
        <ele>1100.9</ele>
        <time>2014-08-24T14:32:15Z</time>
      </trkpt>
      <trkpt lat="45.35738" lon="5.83126">
        <ele>1102.1</ele>
        <time>2014-08-24T14:32:22Z</time>
      </trkpt>
      <trkpt lat="45.35728" lon="5.8313">
        <ele>1103</ele>
        <time>2014-08-24T14:32:29Z</time>
      </trkpt>
      <trkpt lat="45.35719" lon="5.83134">
        <ele>1103.7</ele>
        <time>2014-08-24T14:32:35Z</time>
      </trkpt>
      <trkpt lat="45.3571" lon="5.83137">
        <ele>1104.9</ele>
        <time>2014-08-24T14:32:41Z</time>
      </trkpt>
      <trkpt lat="45.357" lon="5.83138">
        <ele>1106.5</ele>
        <time>2014-08-24T14:32:47Z</time>
      </trkpt>
      <trkpt lat="45.3569" lon="5.83139">
        <ele>1107.6</ele>
        <time>2014-08-24T14:32:53Z</time>
      </trkpt>
      <trkpt lat="45.35681" lon="5.8314">
        <ele>1108.6</ele>
        <time>2014-08-24T14:32:58Z</time>
      </trkpt>
      <trkpt lat="45.3567" lon="5.83139">
        <ele>1110.3</ele>
        <time>2014-08-24T14:33:04Z</time>
      </trkpt>
      <trkpt lat="45.35661" lon="5.8313">
        <ele>1111.6</ele>
        <time>2014-08-24T14:33:11Z</time>
      </trkpt>
      <trkpt lat="45.35654" lon="5.8312">
        <ele>1112.3</ele>
        <time>2014-08-24T14:33:17Z</time>
      </trkpt>
      <trkpt lat="45.35649" lon="5.83108">
        <ele>1112.8</ele>
        <time>2014-08-24T14:33:23Z</time>
      </trkpt>
      <trkpt lat="45.35646" lon="5.83095">
        <ele>1113.6</ele>
        <time>2014-08-24T14:33:29Z</time>
      </trkpt>
      <trkpt lat="45.35643" lon="5.83082">
        <ele>1114.7</ele>
        <time>2014-08-24T14:33:35Z</time>
      </trkpt>
      <trkpt lat="45.35639" lon="5.83069">
        <ele>1115.4</ele>
        <time>2014-08-24T14:33:41Z</time>
      </trkpt>
      <trkpt lat="45.35633" lon="5.83058">
        <ele>1116.5</ele>
        <time>2014-08-24T14:33:47Z</time>
      </trkpt>
      <trkpt lat="45.35624" lon="5.83052">
        <ele>1117.4</ele>
        <time>2014-08-24T14:33:53Z</time>
      </trkpt>
      <trkpt lat="45.35615" lon="5.83051">
        <ele>1118.5</ele>
        <time>2014-08-24T14:34:00Z</time>
      </trkpt>
      <trkpt lat="45.35606" lon="5.83056">
        <ele>1119.3</ele>
        <time>2014-08-24T14:34:06Z</time>
      </trkpt>
      <trkpt lat="45.35598" lon="5.83063">
        <ele>1120.8</ele>
        <time>2014-08-24T14:34:12Z</time>
      </trkpt>
      <trkpt lat="45.35589" lon="5.83068">
        <ele>1121.7</ele>
        <time>2014-08-24T14:34:18Z</time>
      </trkpt>
      <trkpt lat="45.3558" lon="5.83073">
        <ele>1122.2</ele>
        <time>2014-08-24T14:34:24Z</time>
      </trkpt>
      <trkpt lat="45.3557" lon="5.83077">
        <ele>1123.4</ele>
        <time>2014-08-24T14:34:30Z</time>
      </trkpt>
      <trkpt lat="45.35561" lon="5.83073">
        <ele>1124.2</ele>
        <time>2014-08-24T14:34:35Z</time>
      </trkpt>
      <trkpt lat="45.35556" lon="5.8306">
        <ele>1124.6</ele>
        <time>2014-08-24T14:34:41Z</time>
      </trkpt>
      <trkpt lat="45.35553" lon="5.83047">
        <ele>1125.3</ele>
        <time>2014-08-24T14:34:47Z</time>
      </trkpt>
      <trkpt lat="45.35548" lon="5.83033">
        <ele>1125.5</ele>
        <time>2014-08-24T14:34:53Z</time>
      </trkpt>
      <trkpt lat="45.35541" lon="5.83022">
        <ele>1126.2</ele>
        <time>2014-08-24T14:34:57Z</time>
      </trkpt>
      <trkpt lat="45.35532" lon="5.83016">
        <ele>1126.2</ele>
        <time>2014-08-24T14:35:00Z</time>
      </trkpt>
      <trkpt lat="45.35524" lon="5.83008">
        <ele>1126.1</ele>
        <time>2014-08-24T14:35:04Z</time>
      </trkpt>
      <trkpt lat="45.35516" lon="5.83001">
        <ele>1125.4</ele>
        <time>2014-08-24T14:35:09Z</time>
      </trkpt>
      <trkpt lat="45.35506" lon="5.82999">
        <ele>1125.4</ele>
        <time>2014-08-24T14:35:17Z</time>
      </trkpt>
      <trkpt lat="45.35499" lon="5.82988">
        <ele>1126.2</ele>
        <time>2014-08-24T14:35:24Z</time>
      </trkpt>
      <trkpt lat="45.35494" lon="5.82976">
        <ele>1127</ele>
        <time>2014-08-24T14:35:30Z</time>
      </trkpt>
      <trkpt lat="45.35483" lon="5.82975">
        <ele>1125.7</ele>
        <time>2014-08-24T14:35:35Z</time>
      </trkpt>
      <trkpt lat="45.35473" lon="5.82978">
        <ele>1124.3</ele>
        <time>2014-08-24T14:35:38Z</time>
      </trkpt>
      <trkpt lat="45.35463" lon="5.82976">
        <ele>1122.2</ele>
        <time>2014-08-24T14:35:41Z</time>
      </trkpt>
      <trkpt lat="45.35454" lon="5.82974">
        <ele>1120.5</ele>
        <time>2014-08-24T14:35:44Z</time>
      </trkpt>
      <trkpt lat="45.35441" lon="5.82972">
        <ele>1118</ele>
        <time>2014-08-24T14:35:47Z</time>
      </trkpt>
      <trkpt lat="45.35431" lon="5.8297">
        <ele>1117</ele>
        <time>2014-08-24T14:35:49Z</time>
      </trkpt>
      <trkpt lat="45.35421" lon="5.82967">
        <ele>1115.8</ele>
        <time>2014-08-24T14:35:51Z</time>
      </trkpt>
      <trkpt lat="45.35412" lon="5.82961">
        <ele>1113.8</ele>
        <time>2014-08-24T14:35:53Z</time>
      </trkpt>
      <trkpt lat="45.35402" lon="5.82956">
        <ele>1112.5</ele>
        <time>2014-08-24T14:35:55Z</time>
      </trkpt>
      <trkpt lat="45.3539" lon="5.8295">
        <ele>1111</ele>
        <time>2014-08-24T14:35:57Z</time>
      </trkpt>
      <trkpt lat="45.35379" lon="5.82946">
        <ele>1110.1</ele>
        <time>2014-08-24T14:35:59Z</time>
      </trkpt>
      <trkpt lat="45.35368" lon="5.82938">
        <ele>1107.7</ele>
        <time>2014-08-24T14:36:02Z</time>
      </trkpt>
      <trkpt lat="45.3536" lon="5.82935">
        <ele>1107.8</ele>
        <time>2014-08-24T14:36:04Z</time>
      </trkpt>
      <trkpt lat="45.3535" lon="5.82932">
        <ele>1106.6</ele>
        <time>2014-08-24T14:36:06Z</time>
      </trkpt>
      <trkpt lat="45.35341" lon="5.82926">
        <ele>1106.8</ele>
        <time>2014-08-24T14:36:08Z</time>
      </trkpt>
      <trkpt lat="45.35332" lon="5.8292">
        <ele>1106.4</ele>
        <time>2014-08-24T14:36:10Z</time>
      </trkpt>
      <trkpt lat="45.35322" lon="5.82913">
        <ele>1104.7</ele>
        <time>2014-08-24T14:36:12Z</time>
      </trkpt>
      <trkpt lat="45.3531" lon="5.82907">
        <ele>1104.3</ele>
        <time>2014-08-24T14:36:15Z</time>
      </trkpt>
      <trkpt lat="45.353" lon="5.82901">
        <ele>1104.3</ele>
        <time>2014-08-24T14:36:17Z</time>
      </trkpt>
      <trkpt lat="45.35291" lon="5.82893">
        <ele>1103</ele>
        <time>2014-08-24T14:36:19Z</time>
      </trkpt>
      <trkpt lat="45.35279" lon="5.82889">
        <ele>1102.3</ele>
        <time>2014-08-24T14:36:21Z</time>
      </trkpt>
      <trkpt lat="45.35269" lon="5.82889">
        <ele>1101.8</ele>
        <time>2014-08-24T14:36:23Z</time>
      </trkpt>
      <trkpt lat="45.35257" lon="5.82889">
        <ele>1101.2</ele>
        <time>2014-08-24T14:36:26Z</time>
      </trkpt>
      <trkpt lat="45.35246" lon="5.82892">
        <ele>1101.8</ele>
        <time>2014-08-24T14:36:31Z</time>
      </trkpt>
      <trkpt lat="45.35239" lon="5.82882">
        <ele>1101.7</ele>
        <time>2014-08-24T14:36:37Z</time>
      </trkpt>
      <trkpt lat="45.35232" lon="5.82867">
        <ele>1099.8</ele>
        <time>2014-08-24T14:36:40Z</time>
      </trkpt>
      <trkpt lat="45.35225" lon="5.82855">
        <ele>1097.7</ele>
        <time>2014-08-24T14:36:42Z</time>
      </trkpt>
      <trkpt lat="45.3522" lon="5.82843">
        <ele>1096.7</ele>
        <time>2014-08-24T14:36:44Z</time>
      </trkpt>
      <trkpt lat="45.35213" lon="5.8283">
        <ele>1095.4</ele>
        <time>2014-08-24T14:36:47Z</time>
      </trkpt>
      <trkpt lat="45.35205" lon="5.82818">
        <ele>1094.2</ele>
        <time>2014-08-24T14:36:51Z</time>
      </trkpt>
      <trkpt lat="45.35195" lon="5.82807">
        <ele>1092.5</ele>
        <time>2014-08-24T14:36:54Z</time>
      </trkpt>
      <trkpt lat="45.35185" lon="5.82799">
        <ele>1091.4</ele>
        <time>2014-08-24T14:36:57Z</time>
      </trkpt>
      <trkpt lat="45.35175" lon="5.82792">
        <ele>1090.4</ele>
        <time>2014-08-24T14:37:00Z</time>
      </trkpt>
      <trkpt lat="45.35166" lon="5.82781">
        <ele>1089.8</ele>
        <time>2014-08-24T14:37:03Z</time>
      </trkpt>
      <trkpt lat="45.35158" lon="5.82768">
        <ele>1089.4</ele>
        <time>2014-08-24T14:37:06Z</time>
      </trkpt>
      <trkpt lat="45.35149" lon="5.82758">
        <ele>1089.1</ele>
        <time>2014-08-24T14:37:09Z</time>
      </trkpt>
      <trkpt lat="45.35138" lon="5.82752">
        <ele>1089.1</ele>
        <time>2014-08-24T14:37:12Z</time>
      </trkpt>
      <trkpt lat="45.35128" lon="5.8274">
        <ele>1088.6</ele>
        <time>2014-08-24T14:37:15Z</time>
      </trkpt>
      <trkpt lat="45.35121" lon="5.82731">
        <ele>1088.5</ele>
        <time>2014-08-24T14:37:17Z</time>
      </trkpt>
      <trkpt lat="45.35111" lon="5.82721">
        <ele>1088.2</ele>
        <time>2014-08-24T14:37:20Z</time>
      </trkpt>
      <trkpt lat="45.35102" lon="5.82715">
        <ele>1088.3</ele>
        <time>2014-08-24T14:37:24Z</time>
      </trkpt>
      <trkpt lat="45.35092" lon="5.82711">
        <ele>1088.9</ele>
        <time>2014-08-24T14:37:28Z</time>
      </trkpt>
      <trkpt lat="45.35081" lon="5.82706">
        <ele>1089.6</ele>
        <time>2014-08-24T14:37:32Z</time>
      </trkpt>
      <trkpt lat="45.35072" lon="5.82698">
        <ele>1090.3</ele>
        <time>2014-08-24T14:37:36Z</time>
      </trkpt>
      <trkpt lat="45.35066" lon="5.82688">
        <ele>1090.8</ele>
        <time>2014-08-24T14:37:40Z</time>
      </trkpt>
      <trkpt lat="45.3506" lon="5.82677">
        <ele>1091.5</ele>
        <time>2014-08-24T14:37:44Z</time>
      </trkpt>
      <trkpt lat="45.35053" lon="5.82667">
        <ele>1092.3</ele>
        <time>2014-08-24T14:37:48Z</time>
      </trkpt>
      <trkpt lat="45.35047" lon="5.82655">
        <ele>1092.7</ele>
        <time>2014-08-24T14:37:52Z</time>
      </trkpt>
      <trkpt lat="45.35043" lon="5.82642">
        <ele>1093.5</ele>
        <time>2014-08-24T14:37:56Z</time>
      </trkpt>
      <trkpt lat="45.35035" lon="5.8263">
        <ele>1094.9</ele>
        <time>2014-08-24T14:38:01Z</time>
      </trkpt>
      <trkpt lat="45.35025" lon="5.82623">
        <ele>1094.7</ele>
        <time>2014-08-24T14:38:05Z</time>
      </trkpt>
      <trkpt lat="45.35017" lon="5.82617">
        <ele>1095.2</ele>
        <time>2014-08-24T14:38:08Z</time>
      </trkpt>
      <trkpt lat="45.35005" lon="5.82607">
        <ele>1094.7</ele>
        <time>2014-08-24T14:38:11Z</time>
      </trkpt>
      <trkpt lat="45.34996" lon="5.82599">
        <ele>1093</ele>
        <time>2014-08-24T14:38:13Z</time>
      </trkpt>
      <trkpt lat="45.34984" lon="5.8259">
        <ele>1091.8</ele>
        <time>2014-08-24T14:38:16Z</time>
      </trkpt>
      <trkpt lat="45.34977" lon="5.82583">
        <ele>1092.4</ele>
        <time>2014-08-24T14:38:18Z</time>
      </trkpt>
      <trkpt lat="45.3497" lon="5.82574">
        <ele>1091.9</ele>
        <time>2014-08-24T14:38:20Z</time>
      </trkpt>
      <trkpt lat="45.34964" lon="5.82562">
        <ele>1091.3</ele>
        <time>2014-08-24T14:38:22Z</time>
      </trkpt>
      <trkpt lat="45.3496" lon="5.82549">
        <ele>1090.1</ele>
        <time>2014-08-24T14:38:24Z</time>
      </trkpt>
      <trkpt lat="45.34956" lon="5.82535">
        <ele>1089.8</ele>
        <time>2014-08-24T14:38:26Z</time>
      </trkpt>
      <trkpt lat="45.34951" lon="5.8252">
        <ele>1090</ele>
        <time>2014-08-24T14:38:28Z</time>
      </trkpt>
      <trkpt lat="45.34947" lon="5.82507">
        <ele>1088.7</ele>
        <time>2014-08-24T14:38:30Z</time>
      </trkpt>
      <trkpt lat="45.34942" lon="5.82493">
        <ele>1087.9</ele>
        <time>2014-08-24T14:38:32Z</time>
      </trkpt>
      <trkpt lat="45.34936" lon="5.82481">
        <ele>1086.9</ele>
        <time>2014-08-24T14:38:34Z</time>
      </trkpt>
      <trkpt lat="45.34928" lon="5.82469">
        <ele>1085</ele>
        <time>2014-08-24T14:38:37Z</time>
      </trkpt>
      <trkpt lat="45.34918" lon="5.82462">
        <ele>1082.9</ele>
        <time>2014-08-24T14:38:40Z</time>
      </trkpt>
      <trkpt lat="45.3491" lon="5.82456">
        <ele>1081.7</ele>
        <time>2014-08-24T14:38:42Z</time>
      </trkpt>
      <trkpt lat="45.34901" lon="5.82447">
        <ele>1081.9</ele>
        <time>2014-08-24T14:38:44Z</time>
      </trkpt>
      <trkpt lat="45.34893" lon="5.82438">
        <ele>1081.2</ele>
        <time>2014-08-24T14:38:46Z</time>
      </trkpt>
      <trkpt lat="45.34884" lon="5.82431">
        <ele>1079.3</ele>
        <time>2014-08-24T14:38:48Z</time>
      </trkpt>
      <trkpt lat="45.34876" lon="5.82425">
        <ele>1079.1</ele>
        <time>2014-08-24T14:38:50Z</time>
      </trkpt>
      <trkpt lat="45.34866" lon="5.82416">
        <ele>1078.8</ele>
        <time>2014-08-24T14:38:53Z</time>
      </trkpt>
      <trkpt lat="45.34857" lon="5.82409">
        <ele>1077.8</ele>
        <time>2014-08-24T14:38:55Z</time>
      </trkpt>
      <trkpt lat="45.34849" lon="5.82402">
        <ele>1076.9</ele>
        <time>2014-08-24T14:38:57Z</time>
      </trkpt>
      <trkpt lat="45.34837" lon="5.82393">
        <ele>1076.4</ele>
        <time>2014-08-24T14:39:00Z</time>
      </trkpt>
      <trkpt lat="45.34826" lon="5.82385">
        <ele>1075.8</ele>
        <time>2014-08-24T14:39:03Z</time>
      </trkpt>
      <trkpt lat="45.34816" lon="5.82378">
        <ele>1075.1</ele>
        <time>2014-08-24T14:39:05Z</time>
      </trkpt>
      <trkpt lat="45.34806" lon="5.82369">
        <ele>1074.7</ele>
        <time>2014-08-24T14:39:07Z</time>
      </trkpt>
      <trkpt lat="45.34796" lon="5.8236">
        <ele>1074.6</ele>
        <time>2014-08-24T14:39:09Z</time>
      </trkpt>
      <trkpt lat="45.34786" lon="5.82353">
        <ele>1073.3</ele>
        <time>2014-08-24T14:39:11Z</time>
      </trkpt>
      <trkpt lat="45.34776" lon="5.82354">
        <ele>1072.3</ele>
        <time>2014-08-24T14:39:13Z</time>
      </trkpt>
      <trkpt lat="45.34764" lon="5.82356">
        <ele>1071.2</ele>
        <time>2014-08-24T14:39:15Z</time>
      </trkpt>
      <trkpt lat="45.34753" lon="5.82357">
        <ele>1068.6</ele>
        <time>2014-08-24T14:39:17Z</time>
      </trkpt>
      <trkpt lat="45.34741" lon="5.8236">
        <ele>1066.9</ele>
        <time>2014-08-24T14:39:19Z</time>
      </trkpt>
      <trkpt lat="45.3473" lon="5.82366">
        <ele>1065.2</ele>
        <time>2014-08-24T14:39:21Z</time>
      </trkpt>
      <trkpt lat="45.34719" lon="5.82373">
        <ele>1064.4</ele>
        <time>2014-08-24T14:39:23Z</time>
      </trkpt>
      <trkpt lat="45.34707" lon="5.82381">
        <ele>1062.6</ele>
        <time>2014-08-24T14:39:25Z</time>
      </trkpt>
      <trkpt lat="45.34692" lon="5.82387">
        <ele>1061.1</ele>
        <time>2014-08-24T14:39:27Z</time>
      </trkpt>
      <trkpt lat="45.34676" lon="5.82387">
        <ele>1059.7</ele>
        <time>2014-08-24T14:39:29Z</time>
      </trkpt>
      <trkpt lat="45.3466" lon="5.82382">
        <ele>1058</ele>
        <time>2014-08-24T14:39:31Z</time>
      </trkpt>
      <trkpt lat="45.34644" lon="5.82373">
        <ele>1057.7</ele>
        <time>2014-08-24T14:39:33Z</time>
      </trkpt>
      <trkpt lat="45.34631" lon="5.82365">
        <ele>1055.8</ele>
        <time>2014-08-24T14:39:35Z</time>
      </trkpt>
      <trkpt lat="45.34617" lon="5.82362">
        <ele>1053.9</ele>
        <time>2014-08-24T14:39:37Z</time>
      </trkpt>
      <trkpt lat="45.34602" lon="5.82362">
        <ele>1053.7</ele>
        <time>2014-08-24T14:39:39Z</time>
      </trkpt>
      <trkpt lat="45.34588" lon="5.82359">
        <ele>1053.2</ele>
        <time>2014-08-24T14:39:41Z</time>
      </trkpt>
      <trkpt lat="45.34576" lon="5.82347">
        <ele>1051.1</ele>
        <time>2014-08-24T14:39:43Z</time>
      </trkpt>
      <trkpt lat="45.34564" lon="5.82339">
        <ele>1049.9</ele>
        <time>2014-08-24T14:39:45Z</time>
      </trkpt>
      <trkpt lat="45.34551" lon="5.82336">
        <ele>1049.4</ele>
        <time>2014-08-24T14:39:47Z</time>
      </trkpt>
      <trkpt lat="45.34541" lon="5.82337">
        <ele>1049.4</ele>
        <time>2014-08-24T14:39:49Z</time>
      </trkpt>
      <trkpt lat="45.34532" lon="5.82338">
        <ele>1049</ele>
        <time>2014-08-24T14:39:51Z</time>
      </trkpt>
      <trkpt lat="45.34522" lon="5.82336">
        <ele>1049</ele>
        <time>2014-08-24T14:39:53Z</time>
      </trkpt>
      <trkpt lat="45.34513" lon="5.82333">
        <ele>1049.4</ele>
        <time>2014-08-24T14:39:55Z</time>
      </trkpt>
      <trkpt lat="45.34502" lon="5.82329">
        <ele>1049.6</ele>
        <time>2014-08-24T14:39:58Z</time>
      </trkpt>
      <trkpt lat="45.34497" lon="5.82317">
        <ele>1049.3</ele>
        <time>2014-08-24T14:40:51Z</time>
      </trkpt>
      <trkpt lat="45.34493" lon="5.82302">
        <ele>1047.7</ele>
        <time>2014-08-24T14:40:56Z</time>
      </trkpt>
      <trkpt lat="45.34491" lon="5.82285">
        <ele>1045.5</ele>
        <time>2014-08-24T14:40:59Z</time>
      </trkpt>
      <trkpt lat="45.34492" lon="5.82272">
        <ele>1043.4</ele>
        <time>2014-08-24T14:41:01Z</time>
      </trkpt>
      <trkpt lat="45.34494" lon="5.82259">
        <ele>1041.3</ele>
        <time>2014-08-24T14:41:03Z</time>
      </trkpt>
      <trkpt lat="45.34495" lon="5.82246">
        <ele>1039.1</ele>
        <time>2014-08-24T14:41:05Z</time>
      </trkpt>
      <trkpt lat="45.34497" lon="5.82231">
        <ele>1036.5</ele>
        <time>2014-08-24T14:41:08Z</time>
      </trkpt>
      <trkpt lat="45.34493" lon="5.82218">
        <ele>1033</ele>
        <time>2014-08-24T14:41:11Z</time>
      </trkpt>
      <trkpt lat="45.34486" lon="5.82207">
        <ele>1031</ele>
        <time>2014-08-24T14:41:14Z</time>
      </trkpt>
      <trkpt lat="45.3448" lon="5.82192">
        <ele>1026.3</ele>
        <time>2014-08-24T14:41:18Z</time>
      </trkpt>
      <trkpt lat="45.34475" lon="5.82181">
        <ele>1024.6</ele>
        <time>2014-08-24T14:41:21Z</time>
      </trkpt>
      <trkpt lat="45.34468" lon="5.82172">
        <ele>1023</ele>
        <time>2014-08-24T14:41:24Z</time>
      </trkpt>
      <trkpt lat="45.3446" lon="5.82164">
        <ele>1020.9</ele>
        <time>2014-08-24T14:41:28Z</time>
      </trkpt>
      <trkpt lat="45.34448" lon="5.82157">
        <ele>1017.5</ele>
        <time>2014-08-24T14:41:33Z</time>
      </trkpt>
      <trkpt lat="45.34441" lon="5.82148">
        <ele>1014.7</ele>
        <time>2014-08-24T14:41:37Z</time>
      </trkpt>
      <trkpt lat="45.34435" lon="5.82137">
        <ele>1012.5</ele>
        <time>2014-08-24T14:41:40Z</time>
      </trkpt>
      <trkpt lat="45.34428" lon="5.82128">
        <ele>1010.1</ele>
        <time>2014-08-24T14:41:43Z</time>
      </trkpt>
      <trkpt lat="45.3442" lon="5.82116">
        <ele>1006.4</ele>
        <time>2014-08-24T14:41:47Z</time>
      </trkpt>
      <trkpt lat="45.34412" lon="5.82102">
        <ele>1004.2</ele>
        <time>2014-08-24T14:41:51Z</time>
      </trkpt>
      <trkpt lat="45.344" lon="5.82093">
        <ele>1002.3</ele>
        <time>2014-08-24T14:41:54Z</time>
      </trkpt>
      <trkpt lat="45.34389" lon="5.82083">
        <ele>1001.6</ele>
        <time>2014-08-24T14:41:57Z</time>
      </trkpt>
      <trkpt lat="45.34378" lon="5.82077">
        <ele>999.6</ele>
        <time>2014-08-24T14:42:00Z</time>
      </trkpt>
      <trkpt lat="45.34366" lon="5.8207">
        <ele>998.2</ele>
        <time>2014-08-24T14:42:03Z</time>
      </trkpt>
      <trkpt lat="45.34355" lon="5.82063">
        <ele>995.7</ele>
        <time>2014-08-24T14:42:06Z</time>
      </trkpt>
      <trkpt lat="45.34346" lon="5.82056">
        <ele>991.8</ele>
        <time>2014-08-24T14:42:10Z</time>
      </trkpt>
      <trkpt lat="45.34336" lon="5.82053">
        <ele>990.5</ele>
        <time>2014-08-24T14:42:14Z</time>
      </trkpt>
      <trkpt lat="45.34327" lon="5.82046">
        <ele>988.7</ele>
        <time>2014-08-24T14:42:17Z</time>
      </trkpt>
      <trkpt lat="45.34316" lon="5.82041">
        <ele>985.9</ele>
        <time>2014-08-24T14:42:21Z</time>
      </trkpt>
      <trkpt lat="45.34304" lon="5.82038">
        <ele>984.3</ele>
        <time>2014-08-24T14:42:25Z</time>
      </trkpt>
      <trkpt lat="45.34294" lon="5.82035">
        <ele>980.5</ele>
        <time>2014-08-24T14:42:30Z</time>
      </trkpt>
      <trkpt lat="45.34283" lon="5.82028">
        <ele>976.5</ele>
        <time>2014-08-24T14:42:35Z</time>
      </trkpt>
      <trkpt lat="45.34275" lon="5.82022">
        <ele>975.9</ele>
        <time>2014-08-24T14:42:38Z</time>
      </trkpt>
      <trkpt lat="45.34266" lon="5.8203">
        <ele>972.3</ele>
        <time>2014-08-24T14:42:42Z</time>
      </trkpt>
      <trkpt lat="45.34265" lon="5.82017">
        <ele>969.3</ele>
        <time>2014-08-24T14:42:47Z</time>
      </trkpt>
      <trkpt lat="45.3427" lon="5.81998">
        <ele>967.6</ele>
        <time>2014-08-24T14:42:50Z</time>
      </trkpt>
      <trkpt lat="45.34277" lon="5.8198">
        <ele>966.3</ele>
        <time>2014-08-24T14:42:52Z</time>
      </trkpt>
      <trkpt lat="45.34282" lon="5.81964">
        <ele>965.2</ele>
        <time>2014-08-24T14:42:54Z</time>
      </trkpt>
      <trkpt lat="45.34287" lon="5.81951">
        <ele>963.7</ele>
        <time>2014-08-24T14:42:56Z</time>
      </trkpt>
      <trkpt lat="45.34295" lon="5.8194">
        <ele>962.5</ele>
        <time>2014-08-24T14:42:58Z</time>
      </trkpt>
      <trkpt lat="45.34303" lon="5.81932">
        <ele>960.9</ele>
        <time>2014-08-24T14:43:00Z</time>
      </trkpt>
      <trkpt lat="45.34312" lon="5.81926">
        <ele>960.5</ele>
        <time>2014-08-24T14:43:02Z</time>
      </trkpt>
      <trkpt lat="45.34321" lon="5.81924">
        <ele>959.6</ele>
        <time>2014-08-24T14:43:04Z</time>
      </trkpt>
      <trkpt lat="45.34333" lon="5.81924">
        <ele>958.3</ele>
        <time>2014-08-24T14:43:07Z</time>
      </trkpt>
      <trkpt lat="45.34345" lon="5.81928">
        <ele>955</ele>
        <time>2014-08-24T14:43:10Z</time>
      </trkpt>
      <trkpt lat="45.34356" lon="5.81932">
        <ele>954.6</ele>
        <time>2014-08-24T14:43:13Z</time>
      </trkpt>
      <trkpt lat="45.34365" lon="5.81931">
        <ele>952.4</ele>
        <time>2014-08-24T14:43:17Z</time>
      </trkpt>
      <trkpt lat="45.34375" lon="5.81934">
        <ele>950.4</ele>
        <time>2014-08-24T14:43:25Z</time>
      </trkpt>
      <trkpt lat="45.34383" lon="5.81924">
        <ele>948.3</ele>
        <time>2014-08-24T14:43:30Z</time>
      </trkpt>
      <trkpt lat="45.34392" lon="5.81916">
        <ele>944</ele>
        <time>2014-08-24T14:43:34Z</time>
      </trkpt>
      <trkpt lat="45.34401" lon="5.81912">
        <ele>942</ele>
        <time>2014-08-24T14:43:37Z</time>
      </trkpt>
      <trkpt lat="45.34403" lon="5.81896">
        <ele>937.6</ele>
        <time>2014-08-24T14:43:41Z</time>
      </trkpt>
      <trkpt lat="45.344" lon="5.81882">
        <ele>934</ele>
        <time>2014-08-24T14:43:44Z</time>
      </trkpt>
      <trkpt lat="45.34402" lon="5.81869">
        <ele>931.2</ele>
        <time>2014-08-24T14:43:47Z</time>
      </trkpt>
      <trkpt lat="45.34406" lon="5.81854">
        <ele>928.4</ele>
        <time>2014-08-24T14:43:50Z</time>
      </trkpt>
      <trkpt lat="45.3441" lon="5.8184">
        <ele>926.9</ele>
        <time>2014-08-24T14:43:52Z</time>
      </trkpt>
      <trkpt lat="45.34409" lon="5.81827">
        <ele>924.2</ele>
        <time>2014-08-24T14:43:54Z</time>
      </trkpt>
      <trkpt lat="45.34404" lon="5.81814">
        <ele>920.3</ele>
        <time>2014-08-24T14:43:58Z</time>
      </trkpt>
      <trkpt lat="45.34405" lon="5.81797">
        <ele>917.6</ele>
        <time>2014-08-24T14:44:01Z</time>
      </trkpt>
      <trkpt lat="45.34401" lon="5.81784">
        <ele>914.2</ele>
        <time>2014-08-24T14:44:09Z</time>
      </trkpt>
      <trkpt lat="45.34395" lon="5.81769">
        <ele>911.3</ele>
        <time>2014-08-24T14:44:13Z</time>
      </trkpt>
      <trkpt lat="45.34391" lon="5.81754">
        <ele>908.3</ele>
        <time>2014-08-24T14:44:16Z</time>
      </trkpt>
      <trkpt lat="45.3439" lon="5.81738">
        <ele>906</ele>
        <time>2014-08-24T14:44:20Z</time>
      </trkpt>
      <trkpt lat="45.3439" lon="5.81723">
        <ele>901.9</ele>
        <time>2014-08-24T14:44:25Z</time>
      </trkpt>
      <trkpt lat="45.34388" lon="5.81709">
        <ele>899.7</ele>
        <time>2014-08-24T14:44:29Z</time>
      </trkpt>
      <trkpt lat="45.34385" lon="5.81695">
        <ele>894.9</ele>
        <time>2014-08-24T14:44:35Z</time>
      </trkpt>
      <trkpt lat="45.34383" lon="5.81682">
        <ele>892.2</ele>
        <time>2014-08-24T14:44:38Z</time>
      </trkpt>
      <trkpt lat="45.3438" lon="5.81667">
        <ele>887.8</ele>
        <time>2014-08-24T14:44:42Z</time>
      </trkpt>
      <trkpt lat="45.34379" lon="5.81653">
        <ele>885.2</ele>
        <time>2014-08-24T14:44:45Z</time>
      </trkpt>
      <trkpt lat="45.34378" lon="5.81637">
        <ele>882.1</ele>
        <time>2014-08-24T14:44:49Z</time>
      </trkpt>
      <trkpt lat="45.34371" lon="5.81626">
        <ele>879.6</ele>
        <time>2014-08-24T14:44:53Z</time>
      </trkpt>
      <trkpt lat="45.34362" lon="5.81616">
        <ele>878.8</ele>
        <time>2014-08-24T14:44:57Z</time>
      </trkpt>
      <trkpt lat="45.34354" lon="5.81611">
        <ele>878.4</ele>
        <time>2014-08-24T14:45:01Z</time>
      </trkpt>
      <trkpt lat="45.34345" lon="5.81612">
        <ele>878.8</ele>
        <time>2014-08-24T14:45:07Z</time>
      </trkpt>
      <trkpt lat="45.34334" lon="5.81611">
        <ele>878.7</ele>
        <time>2014-08-24T14:45:13Z</time>
      </trkpt>
      <trkpt lat="45.34324" lon="5.81607">
        <ele>879.1</ele>
        <time>2014-08-24T14:45:18Z</time>
      </trkpt>
      <trkpt lat="45.34315" lon="5.81604">
        <ele>879.4</ele>
        <time>2014-08-24T14:45:23Z</time>
      </trkpt>
      <trkpt lat="45.34303" lon="5.81602">
        <ele>879.9</ele>
        <time>2014-08-24T14:45:29Z</time>
      </trkpt>
      <trkpt lat="45.34293" lon="5.81602">
        <ele>879.7</ele>
        <time>2014-08-24T14:45:32Z</time>
      </trkpt>
      <trkpt lat="45.34281" lon="5.81602">
        <ele>879</ele>
        <time>2014-08-24T14:45:35Z</time>
      </trkpt>
      <trkpt lat="45.3427" lon="5.81604">
        <ele>879.3</ele>
        <time>2014-08-24T14:45:38Z</time>
      </trkpt>
      <trkpt lat="45.34262" lon="5.8161">
        <ele>878.4</ele>
        <time>2014-08-24T14:45:40Z</time>
      </trkpt>
      <trkpt lat="45.34251" lon="5.81613">
        <ele>877.2</ele>
        <time>2014-08-24T14:45:42Z</time>
      </trkpt>
      <trkpt lat="45.3424" lon="5.81614">
        <ele>876.1</ele>
        <time>2014-08-24T14:45:44Z</time>
      </trkpt>
      <trkpt lat="45.34228" lon="5.8161">
        <ele>874.1</ele>
        <time>2014-08-24T14:45:47Z</time>
      </trkpt>
      <trkpt lat="45.34219" lon="5.81609">
        <ele>872.6</ele>
        <time>2014-08-24T14:45:49Z</time>
      </trkpt>
      <trkpt lat="45.34208" lon="5.81605">
        <ele>870.6</ele>
        <time>2014-08-24T14:45:52Z</time>
      </trkpt>
      <trkpt lat="45.34199" lon="5.81598">
        <ele>868.9</ele>
        <time>2014-08-24T14:45:55Z</time>
      </trkpt>
      <trkpt lat="45.34188" lon="5.81594">
        <ele>865.9</ele>
        <time>2014-08-24T14:46:06Z</time>
      </trkpt>
      <trkpt lat="45.34178" lon="5.81597">
        <ele>865</ele>
        <time>2014-08-24T14:46:13Z</time>
      </trkpt>
      <trkpt lat="45.34168" lon="5.81598">
        <ele>865.6</ele>
        <time>2014-08-24T14:46:34Z</time>
      </trkpt>
      <trkpt lat="45.34162" lon="5.81611">
        <ele>864.7</ele>
        <time>2014-08-24T14:46:38Z</time>
      </trkpt>
      <trkpt lat="45.34158" lon="5.81627">
        <ele>864.3</ele>
        <time>2014-08-24T14:46:41Z</time>
      </trkpt>
      <trkpt lat="45.34152" lon="5.81643">
        <ele>864.4</ele>
        <time>2014-08-24T14:46:44Z</time>
      </trkpt>
      <trkpt lat="45.34146" lon="5.81661">
        <ele>864.1</ele>
        <time>2014-08-24T14:46:47Z</time>
      </trkpt>
      <trkpt lat="45.34143" lon="5.81673">
        <ele>864</ele>
        <time>2014-08-24T14:46:49Z</time>
      </trkpt>
      <trkpt lat="45.34138" lon="5.81685">
        <ele>864</ele>
        <time>2014-08-24T14:46:51Z</time>
      </trkpt>
      <trkpt lat="45.34135" lon="5.81697">
        <ele>864.2</ele>
        <time>2014-08-24T14:46:53Z</time>
      </trkpt>
      <trkpt lat="45.34131" lon="5.81709">
        <ele>864.2</ele>
        <time>2014-08-24T14:46:55Z</time>
      </trkpt>
      <trkpt lat="45.34126" lon="5.81726">
        <ele>864.3</ele>
        <time>2014-08-24T14:46:58Z</time>
      </trkpt>
      <trkpt lat="45.34119" lon="5.81741">
        <ele>864.6</ele>
        <time>2014-08-24T14:47:01Z</time>
      </trkpt>
      <trkpt lat="45.34113" lon="5.81758">
        <ele>864.8</ele>
        <time>2014-08-24T14:47:04Z</time>
      </trkpt>
      <trkpt lat="45.34108" lon="5.81775">
        <ele>865</ele>
        <time>2014-08-24T14:47:07Z</time>
      </trkpt>
      <trkpt lat="45.34103" lon="5.81791">
        <ele>865.2</ele>
        <time>2014-08-24T14:47:10Z</time>
      </trkpt>
      <trkpt lat="45.34099" lon="5.81808">
        <ele>865.4</ele>
        <time>2014-08-24T14:47:13Z</time>
      </trkpt>
      <trkpt lat="45.34097" lon="5.81826">
        <ele>865.4</ele>
        <time>2014-08-24T14:47:16Z</time>
      </trkpt>
      <trkpt lat="45.34096" lon="5.81839">
        <ele>864.9</ele>
        <time>2014-08-24T14:47:18Z</time>
      </trkpt>
      <trkpt lat="45.34095" lon="5.81855">
        <ele>865</ele>
        <time>2014-08-24T14:47:20Z</time>
      </trkpt>
      <trkpt lat="45.34094" lon="5.81871">
        <ele>864.4</ele>
        <time>2014-08-24T14:47:22Z</time>
      </trkpt>
      <trkpt lat="45.34093" lon="5.81888">
        <ele>863.8</ele>
        <time>2014-08-24T14:47:24Z</time>
      </trkpt>
      <trkpt lat="45.34091" lon="5.81905">
        <ele>863.5</ele>
        <time>2014-08-24T14:47:26Z</time>
      </trkpt>
      <trkpt lat="45.34088" lon="5.81923">
        <ele>863.3</ele>
        <time>2014-08-24T14:47:28Z</time>
      </trkpt>
      <trkpt lat="45.34083" lon="5.81938">
        <ele>862.5</ele>
        <time>2014-08-24T14:47:30Z</time>
      </trkpt>
      <trkpt lat="45.34078" lon="5.81953">
        <ele>862.5</ele>
        <time>2014-08-24T14:47:32Z</time>
      </trkpt>
      <trkpt lat="45.34072" lon="5.81967">
        <ele>862.3</ele>
        <time>2014-08-24T14:47:34Z</time>
      </trkpt>
      <trkpt lat="45.34067" lon="5.8198">
        <ele>862</ele>
        <time>2014-08-24T14:47:36Z</time>
      </trkpt>
      <trkpt lat="45.3406" lon="5.81994">
        <ele>861.8</ele>
        <time>2014-08-24T14:47:38Z</time>
      </trkpt>
      <trkpt lat="45.34052" lon="5.82005">
        <ele>861.6</ele>
        <time>2014-08-24T14:47:40Z</time>
      </trkpt>
      <trkpt lat="45.34044" lon="5.82015">
        <ele>861.6</ele>
        <time>2014-08-24T14:47:42Z</time>
      </trkpt>
      <trkpt lat="45.34036" lon="5.82026">
        <ele>861.3</ele>
        <time>2014-08-24T14:47:44Z</time>
      </trkpt>
      <trkpt lat="45.34027" lon="5.82037">
        <ele>861.2</ele>
        <time>2014-08-24T14:47:46Z</time>
      </trkpt>
      <trkpt lat="45.3402" lon="5.82048">
        <ele>860.6</ele>
        <time>2014-08-24T14:47:48Z</time>
      </trkpt>
      <trkpt lat="45.34014" lon="5.82061">
        <ele>860.7</ele>
        <time>2014-08-24T14:47:50Z</time>
      </trkpt>
      <trkpt lat="45.34008" lon="5.82073">
        <ele>860.7</ele>
        <time>2014-08-24T14:47:52Z</time>
      </trkpt>
      <trkpt lat="45.34003" lon="5.82086">
        <ele>860.9</ele>
        <time>2014-08-24T14:47:54Z</time>
      </trkpt>
      <trkpt lat="45.33998" lon="5.821">
        <ele>861.1</ele>
        <time>2014-08-24T14:47:56Z</time>
      </trkpt>
      <trkpt lat="45.33994" lon="5.82113">
        <ele>861.1</ele>
        <time>2014-08-24T14:47:58Z</time>
      </trkpt>
      <trkpt lat="45.33988" lon="5.82124">
        <ele>861.2</ele>
        <time>2014-08-24T14:48:00Z</time>
      </trkpt>
      <trkpt lat="45.33977" lon="5.82136">
        <ele>861.3</ele>
        <time>2014-08-24T14:48:03Z</time>
      </trkpt>
      <trkpt lat="45.33969" lon="5.82144">
        <ele>861.5</ele>
        <time>2014-08-24T14:48:05Z</time>
      </trkpt>
      <trkpt lat="45.33963" lon="5.82155">
        <ele>861.5</ele>
        <time>2014-08-24T14:48:07Z</time>
      </trkpt>
      <trkpt lat="45.33957" lon="5.82169">
        <ele>861.3</ele>
        <time>2014-08-24T14:48:09Z</time>
      </trkpt>
      <trkpt lat="45.33951" lon="5.82185">
        <ele>861</ele>
        <time>2014-08-24T14:48:11Z</time>
      </trkpt>
      <trkpt lat="45.33944" lon="5.822">
        <ele>860.6</ele>
        <time>2014-08-24T14:48:13Z</time>
      </trkpt>
      <trkpt lat="45.33936" lon="5.82212">
        <ele>860.6</ele>
        <time>2014-08-24T14:48:15Z</time>
      </trkpt>
      <trkpt lat="45.33927" lon="5.82223">
        <ele>860.1</ele>
        <time>2014-08-24T14:48:17Z</time>
      </trkpt>
      <trkpt lat="45.33918" lon="5.82232">
        <ele>859.9</ele>
        <time>2014-08-24T14:48:19Z</time>
      </trkpt>
      <trkpt lat="45.33909" lon="5.8224">
        <ele>860</ele>
        <time>2014-08-24T14:48:21Z</time>
      </trkpt>
      <trkpt lat="45.33901" lon="5.82248">
        <ele>860.2</ele>
        <time>2014-08-24T14:48:23Z</time>
      </trkpt>
      <trkpt lat="45.33891" lon="5.82258">
        <ele>863.4</ele>
        <time>2014-08-24T14:48:26Z</time>
      </trkpt>
      <trkpt lat="45.33882" lon="5.82268">
        <ele>864</ele>
        <time>2014-08-24T14:48:29Z</time>
      </trkpt>
      <trkpt lat="45.33874" lon="5.82279">
        <ele>861.4</ele>
        <time>2014-08-24T14:48:32Z</time>
      </trkpt>
      <trkpt lat="45.33867" lon="5.82291">
        <ele>863.4</ele>
        <time>2014-08-24T14:48:35Z</time>
      </trkpt>
      <trkpt lat="45.33858" lon="5.82302">
        <ele>863.4</ele>
        <time>2014-08-24T14:48:37Z</time>
      </trkpt>
      <trkpt lat="45.33851" lon="5.82317">
        <ele>863.7</ele>
        <time>2014-08-24T14:48:40Z</time>
      </trkpt>
      <trkpt lat="45.33846" lon="5.82333">
        <ele>863.5</ele>
        <time>2014-08-24T14:48:43Z</time>
      </trkpt>
      <trkpt lat="45.33841" lon="5.82349">
        <ele>863.9</ele>
        <time>2014-08-24T14:48:46Z</time>
      </trkpt>
      <trkpt lat="45.33838" lon="5.82365">
        <ele>864</ele>
        <time>2014-08-24T14:48:49Z</time>
      </trkpt>
      <trkpt lat="45.33837" lon="5.82378">
        <ele>864.9</ele>
        <time>2014-08-24T14:48:52Z</time>
      </trkpt>
      <trkpt lat="45.33836" lon="5.82392">
        <ele>866.1</ele>
        <time>2014-08-24T14:48:56Z</time>
      </trkpt>
      <trkpt lat="45.33835" lon="5.82407">
        <ele>867.3</ele>
        <time>2014-08-24T14:49:01Z</time>
      </trkpt>
      <trkpt lat="45.3383" lon="5.8242">
        <ele>868.2</ele>
        <time>2014-08-24T14:49:07Z</time>
      </trkpt>
      <trkpt lat="45.33822" lon="5.82429">
        <ele>869.3</ele>
        <time>2014-08-24T14:49:13Z</time>
      </trkpt>
      <trkpt lat="45.33815" lon="5.82437">
        <ele>870.1</ele>
        <time>2014-08-24T14:49:19Z</time>
      </trkpt>
      <trkpt lat="45.33813" lon="5.8245">
        <ele>871.6</ele>
        <time>2014-08-24T14:49:26Z</time>
      </trkpt>
      <trkpt lat="45.33809" lon="5.82463">
        <ele>873.1</ele>
        <time>2014-08-24T14:49:34Z</time>
      </trkpt>
      <trkpt lat="45.33804" lon="5.82476">
        <ele>874.5</ele>
        <time>2014-08-24T14:49:40Z</time>
      </trkpt>
      <trkpt lat="45.33799" lon="5.82486">
        <ele>876.7</ele>
        <time>2014-08-24T14:49:49Z</time>
      </trkpt>
      <trkpt lat="45.33791" lon="5.82495">
        <ele>878.1</ele>
        <time>2014-08-24T14:49:57Z</time>
      </trkpt>
      <trkpt lat="45.33785" lon="5.82506">
        <ele>880.1</ele>
        <time>2014-08-24T14:50:07Z</time>
      </trkpt>
      <trkpt lat="45.33781" lon="5.82517">
        <ele>882.1</ele>
        <time>2014-08-24T14:50:15Z</time>
      </trkpt>
      <trkpt lat="45.3378" lon="5.82532">
        <ele>884.3</ele>
        <time>2014-08-24T14:50:24Z</time>
      </trkpt>
      <trkpt lat="45.33779" lon="5.82544">
        <ele>884.6</ele>
        <time>2014-08-24T14:50:30Z</time>
      </trkpt>
      <trkpt lat="45.33777" lon="5.82557">
        <ele>886.5</ele>
        <time>2014-08-24T14:50:36Z</time>
      </trkpt>
      <trkpt lat="45.33772" lon="5.8257">
        <ele>887.1</ele>
        <time>2014-08-24T14:50:42Z</time>
      </trkpt>
      <trkpt lat="45.33772" lon="5.82583">
        <ele>887.7</ele>
        <time>2014-08-24T14:50:47Z</time>
      </trkpt>
      <trkpt lat="45.33773" lon="5.82597">
        <ele>888.8</ele>
        <time>2014-08-24T14:50:54Z</time>
      </trkpt>
      <trkpt lat="45.33771" lon="5.82612">
        <ele>889.8</ele>
        <time>2014-08-24T14:51:02Z</time>
      </trkpt>
      <trkpt lat="45.33768" lon="5.82625">
        <ele>891.5</ele>
        <time>2014-08-24T14:51:10Z</time>
      </trkpt>
      <trkpt lat="45.33766" lon="5.82638">
        <ele>892.5</ele>
        <time>2014-08-24T14:51:17Z</time>
      </trkpt>
      <trkpt lat="45.33765" lon="5.82652">
        <ele>892.7</ele>
        <time>2014-08-24T14:51:24Z</time>
      </trkpt>
      <trkpt lat="45.33765" lon="5.82666">
        <ele>892.8</ele>
        <time>2014-08-24T14:51:30Z</time>
      </trkpt>
      <trkpt lat="45.33767" lon="5.8268">
        <ele>893.5</ele>
        <time>2014-08-24T14:51:35Z</time>
      </trkpt>
      <trkpt lat="45.3377" lon="5.82694">
        <ele>894.9</ele>
        <time>2014-08-24T14:51:41Z</time>
      </trkpt>
      <trkpt lat="45.33766" lon="5.82708">
        <ele>895.5</ele>
        <time>2014-08-24T14:51:46Z</time>
      </trkpt>
      <trkpt lat="45.33764" lon="5.82722">
        <ele>896.4</ele>
        <time>2014-08-24T14:51:51Z</time>
      </trkpt>
      <trkpt lat="45.3376" lon="5.82734">
        <ele>897.2</ele>
        <time>2014-08-24T14:51:56Z</time>
      </trkpt>
      <trkpt lat="45.33756" lon="5.82748">
        <ele>898</ele>
        <time>2014-08-24T14:52:01Z</time>
      </trkpt>
      <trkpt lat="45.33754" lon="5.82761">
        <ele>898.3</ele>
        <time>2014-08-24T14:52:06Z</time>
      </trkpt>
      <trkpt lat="45.33751" lon="5.82774">
        <ele>898.2</ele>
        <time>2014-08-24T14:52:11Z</time>
      </trkpt>
      <trkpt lat="45.33746" lon="5.82786">
        <ele>898.7</ele>
        <time>2014-08-24T14:52:17Z</time>
      </trkpt>
      <trkpt lat="45.33747" lon="5.82773">
        <ele>899.6</ele>
        <time>2014-08-24T14:52:26Z</time>
      </trkpt>
      <trkpt lat="45.33748" lon="5.82759">
        <ele>901.2</ele>
        <time>2014-08-24T14:52:32Z</time>
      </trkpt>
      <trkpt lat="45.3375" lon="5.82746">
        <ele>902.8</ele>
        <time>2014-08-24T14:52:38Z</time>
      </trkpt>
      <trkpt lat="45.33748" lon="5.82732">
        <ele>900.2</ele>
        <time>2014-08-24T14:52:44Z</time>
      </trkpt>
      <trkpt lat="45.33745" lon="5.82718">
        <ele>902.6</ele>
        <time>2014-08-24T14:52:49Z</time>
      </trkpt>
      <trkpt lat="45.3374" lon="5.82707">
        <ele>903.6</ele>
        <time>2014-08-24T14:52:53Z</time>
      </trkpt>
      <trkpt lat="45.33737" lon="5.82693">
        <ele>904.2</ele>
        <time>2014-08-24T14:52:58Z</time>
      </trkpt>
      <trkpt lat="45.33736" lon="5.82679">
        <ele>905.2</ele>
        <time>2014-08-24T14:53:03Z</time>
      </trkpt>
      <trkpt lat="45.33733" lon="5.82665">
        <ele>906.1</ele>
        <time>2014-08-24T14:53:08Z</time>
      </trkpt>
      <trkpt lat="45.33733" lon="5.82649">
        <ele>906.9</ele>
        <time>2014-08-24T14:53:13Z</time>
      </trkpt>
      <trkpt lat="45.33736" lon="5.82631">
        <ele>907.7</ele>
        <time>2014-08-24T14:53:17Z</time>
      </trkpt>
      <trkpt lat="45.33739" lon="5.82618">
        <ele>908.2</ele>
        <time>2014-08-24T14:53:21Z</time>
      </trkpt>
      <trkpt lat="45.33742" lon="5.82605">
        <ele>909.2</ele>
        <time>2014-08-24T14:53:25Z</time>
      </trkpt>
      <trkpt lat="45.33742" lon="5.8259">
        <ele>909.7</ele>
        <time>2014-08-24T14:53:29Z</time>
      </trkpt>
      <trkpt lat="45.33742" lon="5.82573">
        <ele>910.6</ele>
        <time>2014-08-24T14:53:33Z</time>
      </trkpt>
      <trkpt lat="45.33743" lon="5.82559">
        <ele>910.8</ele>
        <time>2014-08-24T14:53:36Z</time>
      </trkpt>
      <trkpt lat="45.33745" lon="5.82544">
        <ele>911.3</ele>
        <time>2014-08-24T14:53:40Z</time>
      </trkpt>
      <trkpt lat="45.33745" lon="5.82529">
        <ele>912.1</ele>
        <time>2014-08-24T14:53:44Z</time>
      </trkpt>
      <trkpt lat="45.33747" lon="5.82516">
        <ele>912.3</ele>
        <time>2014-08-24T14:53:47Z</time>
      </trkpt>
      <trkpt lat="45.33748" lon="5.82502">
        <ele>912.3</ele>
        <time>2014-08-24T14:53:49Z</time>
      </trkpt>
      <trkpt lat="45.33748" lon="5.82487">
        <ele>912.5</ele>
        <time>2014-08-24T14:53:52Z</time>
      </trkpt>
      <trkpt lat="45.3375" lon="5.8247">
        <ele>912.4</ele>
        <time>2014-08-24T14:53:55Z</time>
      </trkpt>
      <trkpt lat="45.33751" lon="5.82456">
        <ele>912.3</ele>
        <time>2014-08-24T14:53:58Z</time>
      </trkpt>
      <trkpt lat="45.33752" lon="5.82442">
        <ele>912.5</ele>
        <time>2014-08-24T14:54:01Z</time>
      </trkpt>
      <trkpt lat="45.33752" lon="5.82428">
        <ele>912.6</ele>
        <time>2014-08-24T14:54:04Z</time>
      </trkpt>
      <trkpt lat="45.33752" lon="5.82413">
        <ele>912.5</ele>
        <time>2014-08-24T14:54:08Z</time>
      </trkpt>
      <trkpt lat="45.33751" lon="5.82399">
        <ele>912.4</ele>
        <time>2014-08-24T14:54:11Z</time>
      </trkpt>
      <trkpt lat="45.33753" lon="5.82386">
        <ele>912.2</ele>
        <time>2014-08-24T14:54:13Z</time>
      </trkpt>
      <trkpt lat="45.33752" lon="5.82374">
        <ele>912.3</ele>
        <time>2014-08-24T14:54:15Z</time>
      </trkpt>
      <trkpt lat="45.33755" lon="5.82359">
        <ele>912.6</ele>
        <time>2014-08-24T14:54:18Z</time>
      </trkpt>
      <trkpt lat="45.33757" lon="5.82344">
        <ele>912.7</ele>
        <time>2014-08-24T14:54:21Z</time>
      </trkpt>
      <trkpt lat="45.33755" lon="5.82328">
        <ele>913</ele>
        <time>2014-08-24T14:54:25Z</time>
      </trkpt>
      <trkpt lat="45.33753" lon="5.82314">
        <ele>913.6</ele>
        <time>2014-08-24T14:54:29Z</time>
      </trkpt>
      <trkpt lat="45.33753" lon="5.82301">
        <ele>914.4</ele>
        <time>2014-08-24T14:54:33Z</time>
      </trkpt>
      <trkpt lat="45.33753" lon="5.82287">
        <ele>914.9</ele>
        <time>2014-08-24T14:54:38Z</time>
      </trkpt>
      <trkpt lat="45.33751" lon="5.82273">
        <ele>915.7</ele>
        <time>2014-08-24T14:54:42Z</time>
      </trkpt>
      <trkpt lat="45.33749" lon="5.8226">
        <ele>916.1</ele>
        <time>2014-08-24T14:54:45Z</time>
      </trkpt>
      <trkpt lat="45.33751" lon="5.82246">
        <ele>917.3</ele>
        <time>2014-08-24T14:54:49Z</time>
      </trkpt>
      <trkpt lat="45.33753" lon="5.82233">
        <ele>917.6</ele>
        <time>2014-08-24T14:54:52Z</time>
      </trkpt>
      <trkpt lat="45.33757" lon="5.8222">
        <ele>918.8</ele>
        <time>2014-08-24T14:54:57Z</time>
      </trkpt>
      <trkpt lat="45.33761" lon="5.82207">
        <ele>919.8</ele>
        <time>2014-08-24T14:55:01Z</time>
      </trkpt>
      <trkpt lat="45.33763" lon="5.82193">
        <ele>921.1</ele>
        <time>2014-08-24T14:55:05Z</time>
      </trkpt>
      <trkpt lat="45.33766" lon="5.82181">
        <ele>921.6</ele>
        <time>2014-08-24T14:55:08Z</time>
      </trkpt>
      <trkpt lat="45.33769" lon="5.82169">
        <ele>922.3</ele>
        <time>2014-08-24T14:55:11Z</time>
      </trkpt>
      <trkpt lat="45.3377" lon="5.82154">
        <ele>922.7</ele>
        <time>2014-08-24T14:55:15Z</time>
      </trkpt>
      <trkpt lat="45.33771" lon="5.82141">
        <ele>923</ele>
        <time>2014-08-24T14:55:18Z</time>
      </trkpt>
      <trkpt lat="45.33771" lon="5.82126">
        <ele>923.4</ele>
        <time>2014-08-24T14:55:21Z</time>
      </trkpt>
      <trkpt lat="45.3377" lon="5.82111">
        <ele>923.8</ele>
        <time>2014-08-24T14:55:25Z</time>
      </trkpt>
      <trkpt lat="45.33768" lon="5.82095">
        <ele>923.9</ele>
        <time>2014-08-24T14:55:29Z</time>
      </trkpt>
      <trkpt lat="45.33766" lon="5.82081">
        <ele>924.3</ele>
        <time>2014-08-24T14:55:36Z</time>
      </trkpt>
      <trkpt lat="45.33756" lon="5.82085">
        <ele>925.5</ele>
        <time>2014-08-24T14:55:44Z</time>
      </trkpt>
      <trkpt lat="45.33748" lon="5.8209">
        <ele>926.6</ele>
        <time>2014-08-24T14:55:51Z</time>
      </trkpt>
      <trkpt lat="45.3374" lon="5.82098">
        <ele>928.3</ele>
        <time>2014-08-24T14:55:57Z</time>
      </trkpt>
      <trkpt lat="45.33733" lon="5.82109">
        <ele>929.5</ele>
        <time>2014-08-24T14:56:05Z</time>
      </trkpt>
      <trkpt lat="45.33725" lon="5.82117">
        <ele>931.7</ele>
        <time>2014-08-24T14:56:13Z</time>
      </trkpt>
      <trkpt lat="45.33718" lon="5.82127">
        <ele>933.3</ele>
        <time>2014-08-24T14:56:21Z</time>
      </trkpt>
      <trkpt lat="45.33716" lon="5.8214">
        <ele>934.5</ele>
        <time>2014-08-24T14:56:27Z</time>
      </trkpt>
      <trkpt lat="45.33713" lon="5.82152">
        <ele>935.7</ele>
        <time>2014-08-24T14:56:34Z</time>
      </trkpt>
      <trkpt lat="45.33709" lon="5.82164">
        <ele>937.2</ele>
        <time>2014-08-24T14:56:40Z</time>
      </trkpt>
      <trkpt lat="45.33706" lon="5.82177">
        <ele>938.9</ele>
        <time>2014-08-24T14:56:47Z</time>
      </trkpt>
      <trkpt lat="45.33705" lon="5.82192">
        <ele>940.1</ele>
        <time>2014-08-24T14:56:54Z</time>
      </trkpt>
      <trkpt lat="45.33702" lon="5.82205">
        <ele>941.6</ele>
        <time>2014-08-24T14:57:01Z</time>
      </trkpt>
      <trkpt lat="45.33696" lon="5.82216">
        <ele>942.5</ele>
        <time>2014-08-24T14:57:09Z</time>
      </trkpt>
      <trkpt lat="45.33687" lon="5.82222">
        <ele>943.4</ele>
        <time>2014-08-24T14:57:16Z</time>
      </trkpt>
      <trkpt lat="45.33681" lon="5.82213">
        <ele>944</ele>
        <time>2014-08-24T14:57:23Z</time>
      </trkpt>
      <trkpt lat="45.33679" lon="5.82198">
        <ele>945.2</ele>
        <time>2014-08-24T14:57:32Z</time>
      </trkpt>
      <trkpt lat="45.33678" lon="5.82184">
        <ele>946.7</ele>
        <time>2014-08-24T14:57:40Z</time>
      </trkpt>
      <trkpt lat="45.33678" lon="5.82171">
        <ele>948.5</ele>
        <time>2014-08-24T14:57:50Z</time>
      </trkpt>
      <trkpt lat="45.33677" lon="5.82157">
        <ele>949.9</ele>
        <time>2014-08-24T14:57:58Z</time>
      </trkpt>
      <trkpt lat="45.33674" lon="5.82144">
        <ele>951.3</ele>
        <time>2014-08-24T14:58:04Z</time>
      </trkpt>
      <trkpt lat="45.33669" lon="5.82134">
        <ele>952.8</ele>
        <time>2014-08-24T14:58:10Z</time>
      </trkpt>
      <trkpt lat="45.33664" lon="5.82122">
        <ele>954.2</ele>
        <time>2014-08-24T14:58:19Z</time>
      </trkpt>
      <trkpt lat="45.33657" lon="5.82113">
        <ele>954.8</ele>
        <time>2014-08-24T14:58:25Z</time>
      </trkpt>
      <trkpt lat="45.33649" lon="5.82105">
        <ele>956.5</ele>
        <time>2014-08-24T14:58:33Z</time>
      </trkpt>
      <trkpt lat="45.33643" lon="5.82094">
        <ele>957.7</ele>
        <time>2014-08-24T14:58:41Z</time>
      </trkpt>
      <trkpt lat="45.33637" lon="5.82083">
        <ele>959.1</ele>
        <time>2014-08-24T14:58:49Z</time>
      </trkpt>
      <trkpt lat="45.3363" lon="5.82074">
        <ele>960.9</ele>
        <time>2014-08-24T14:58:57Z</time>
      </trkpt>
      <trkpt lat="45.33632" lon="5.82061">
        <ele>964</ele>
        <time>2014-08-24T14:59:14Z</time>
      </trkpt>
      <trkpt lat="45.33624" lon="5.82052">
        <ele>964.2</ele>
        <time>2014-08-24T14:59:16Z</time>
      </trkpt>
      <trkpt lat="45.33613" lon="5.82041">
        <ele>964.9</ele>
        <time>2014-08-24T14:59:19Z</time>
      </trkpt>
      <trkpt lat="45.33605" lon="5.82032">
        <ele>966.5</ele>
        <time>2014-08-24T14:59:23Z</time>
      </trkpt>
      <trkpt lat="45.33598" lon="5.82023">
        <ele>967.6</ele>
        <time>2014-08-24T14:59:28Z</time>
      </trkpt>
      <trkpt lat="45.33592" lon="5.82011">
        <ele>967.6</ele>
        <time>2014-08-24T14:59:35Z</time>
      </trkpt>
      <trkpt lat="45.33589" lon="5.81999">
        <ele>968.1</ele>
        <time>2014-08-24T14:59:41Z</time>
      </trkpt>
      <trkpt lat="45.33587" lon="5.81984">
        <ele>969.4</ele>
        <time>2014-08-24T14:59:47Z</time>
      </trkpt>
      <trkpt lat="45.33586" lon="5.81969">
        <ele>970.4</ele>
        <time>2014-08-24T14:59:55Z</time>
      </trkpt>
      <trkpt lat="45.33583" lon="5.81956">
        <ele>971.5</ele>
        <time>2014-08-24T15:00:01Z</time>
      </trkpt>
      <trkpt lat="45.3358" lon="5.81943">
        <ele>972.4</ele>
        <time>2014-08-24T15:00:07Z</time>
      </trkpt>
      <trkpt lat="45.33579" lon="5.8193">
        <ele>973.8</ele>
        <time>2014-08-24T15:00:13Z</time>
      </trkpt>
      <trkpt lat="45.33582" lon="5.81916">
        <ele>975.3</ele>
        <time>2014-08-24T15:01:27Z</time>
      </trkpt>
      <trkpt lat="45.33588" lon="5.81905">
        <ele>976</ele>
        <time>2014-08-24T15:01:33Z</time>
      </trkpt>
      <trkpt lat="45.33589" lon="5.81891">
        <ele>976.5</ele>
        <time>2014-08-24T15:01:41Z</time>
      </trkpt>
      <trkpt lat="45.33585" lon="5.81878">
        <ele>977.3</ele>
        <time>2014-08-24T15:01:47Z</time>
      </trkpt>
      <trkpt lat="45.33581" lon="5.81866">
        <ele>978.2</ele>
        <time>2014-08-24T15:01:54Z</time>
      </trkpt>
      <trkpt lat="45.33576" lon="5.81855">
        <ele>979.7</ele>
        <time>2014-08-24T15:02:01Z</time>
      </trkpt>
      <trkpt lat="45.33568" lon="5.81845">
        <ele>980.7</ele>
        <time>2014-08-24T15:02:07Z</time>
      </trkpt>
      <trkpt lat="45.33562" lon="5.81835">
        <ele>981.6</ele>
        <time>2014-08-24T15:02:13Z</time>
      </trkpt>
      <trkpt lat="45.33554" lon="5.81825">
        <ele>982.5</ele>
        <time>2014-08-24T15:02:20Z</time>
      </trkpt>
      <trkpt lat="45.33547" lon="5.81817">
        <ele>983.3</ele>
        <time>2014-08-24T15:02:26Z</time>
      </trkpt>
      <trkpt lat="45.3354" lon="5.81807">
        <ele>984.6</ele>
        <time>2014-08-24T15:02:33Z</time>
      </trkpt>
      <trkpt lat="45.33532" lon="5.81798">
        <ele>986</ele>
        <time>2014-08-24T15:02:40Z</time>
      </trkpt>
      <trkpt lat="45.33524" lon="5.8179">
        <ele>987.3</ele>
        <time>2014-08-24T15:02:47Z</time>
      </trkpt>
      <trkpt lat="45.33516" lon="5.81783">
        <ele>989.1</ele>
        <time>2014-08-24T15:02:54Z</time>
      </trkpt>
      <trkpt lat="45.33508" lon="5.81775">
        <ele>989.5</ele>
        <time>2014-08-24T15:03:02Z</time>
      </trkpt>
      <trkpt lat="45.33499" lon="5.81767">
        <ele>990.9</ele>
        <time>2014-08-24T15:03:10Z</time>
      </trkpt>
      <trkpt lat="45.33491" lon="5.8176">
        <ele>992.6</ele>
        <time>2014-08-24T15:03:17Z</time>
      </trkpt>
      <trkpt lat="45.33483" lon="5.81753">
        <ele>993.8</ele>
        <time>2014-08-24T15:03:24Z</time>
      </trkpt>
      <trkpt lat="45.33476" lon="5.81746">
        <ele>994.9</ele>
        <time>2014-08-24T15:03:31Z</time>
      </trkpt>
      <trkpt lat="45.33466" lon="5.81742">
        <ele>996.5</ele>
        <time>2014-08-24T15:03:38Z</time>
      </trkpt>
      <trkpt lat="45.33457" lon="5.81737">
        <ele>997.9</ele>
        <time>2014-08-24T15:03:45Z</time>
      </trkpt>
      <trkpt lat="45.33448" lon="5.8173">
        <ele>999.1</ele>
        <time>2014-08-24T15:03:52Z</time>
      </trkpt>
      <trkpt lat="45.33439" lon="5.81724">
        <ele>1000.4</ele>
        <time>2014-08-24T15:03:59Z</time>
      </trkpt>
      <trkpt lat="45.3343" lon="5.81719">
        <ele>1001.3</ele>
        <time>2014-08-24T15:04:05Z</time>
      </trkpt>
      <trkpt lat="45.33423" lon="5.81709">
        <ele>1002.6</ele>
        <time>2014-08-24T15:04:11Z</time>
      </trkpt>
      <trkpt lat="45.33415" lon="5.81702">
        <ele>1003.6</ele>
        <time>2014-08-24T15:04:17Z</time>
      </trkpt>
      <trkpt lat="45.33407" lon="5.81694">
        <ele>1004.9</ele>
        <time>2014-08-24T15:04:24Z</time>
      </trkpt>
      <trkpt lat="45.33399" lon="5.81687">
        <ele>1006.4</ele>
        <time>2014-08-24T15:04:32Z</time>
      </trkpt>
      <trkpt lat="45.3339" lon="5.81681">
        <ele>1007.2</ele>
        <time>2014-08-24T15:04:39Z</time>
      </trkpt>
      <trkpt lat="45.33381" lon="5.81675">
        <ele>1008.6</ele>
        <time>2014-08-24T15:04:46Z</time>
      </trkpt>
      <trkpt lat="45.33372" lon="5.81669">
        <ele>1009.7</ele>
        <time>2014-08-24T15:04:53Z</time>
      </trkpt>
      <trkpt lat="45.33362" lon="5.81664">
        <ele>1011</ele>
        <time>2014-08-24T15:05:00Z</time>
      </trkpt>
      <trkpt lat="45.33352" lon="5.8166">
        <ele>1012.2</ele>
        <time>2014-08-24T15:05:06Z</time>
      </trkpt>
      <trkpt lat="45.33342" lon="5.81657">
        <ele>1013.3</ele>
        <time>2014-08-24T15:05:12Z</time>
      </trkpt>
      <trkpt lat="45.33333" lon="5.81654">
        <ele>1014.5</ele>
        <time>2014-08-24T15:05:18Z</time>
      </trkpt>
      <trkpt lat="45.33324" lon="5.81652">
        <ele>1015.5</ele>
        <time>2014-08-24T15:05:24Z</time>
      </trkpt>
      <trkpt lat="45.33316" lon="5.81647">
        <ele>1017.1</ele>
        <time>2014-08-24T15:05:30Z</time>
      </trkpt>
      <trkpt lat="45.33306" lon="5.81641">
        <ele>1018.4</ele>
        <time>2014-08-24T15:05:37Z</time>
      </trkpt>
      <trkpt lat="45.33297" lon="5.81636">
        <ele>1019.2</ele>
        <time>2014-08-24T15:05:43Z</time>
      </trkpt>
      <trkpt lat="45.33289" lon="5.8163">
        <ele>1020.6</ele>
        <time>2014-08-24T15:05:51Z</time>
      </trkpt>
      <trkpt lat="45.33281" lon="5.81623">
        <ele>1021.3</ele>
        <time>2014-08-24T15:05:56Z</time>
      </trkpt>
      <trkpt lat="45.33272" lon="5.81614">
        <ele>1021.4</ele>
        <time>2014-08-24T15:06:01Z</time>
      </trkpt>
      <trkpt lat="45.33263" lon="5.81607">
        <ele>1022.4</ele>
        <time>2014-08-24T15:06:06Z</time>
      </trkpt>
      <trkpt lat="45.33254" lon="5.816">
        <ele>1022.8</ele>
        <time>2014-08-24T15:06:11Z</time>
      </trkpt>
      <trkpt lat="45.33245" lon="5.81594">
        <ele>1024.2</ele>
        <time>2014-08-24T15:06:16Z</time>
      </trkpt>
      <trkpt lat="45.33235" lon="5.81587">
        <ele>1025</ele>
        <time>2014-08-24T15:06:21Z</time>
      </trkpt>
      <trkpt lat="45.33226" lon="5.81581">
        <ele>1025.9</ele>
        <time>2014-08-24T15:06:26Z</time>
      </trkpt>
      <trkpt lat="45.33218" lon="5.81575">
        <ele>1027</ele>
        <time>2014-08-24T15:06:31Z</time>
      </trkpt>
      <trkpt lat="45.33209" lon="5.81569">
        <ele>1027.5</ele>
        <time>2014-08-24T15:06:36Z</time>
      </trkpt>
      <trkpt lat="45.33199" lon="5.81567">
        <ele>1028.3</ele>
        <time>2014-08-24T15:06:41Z</time>
      </trkpt>
      <trkpt lat="45.3319" lon="5.81565">
        <ele>1029.2</ele>
        <time>2014-08-24T15:06:46Z</time>
      </trkpt>
      <trkpt lat="45.3318" lon="5.81566">
        <ele>1029.8</ele>
        <time>2014-08-24T15:06:52Z</time>
      </trkpt>
      <trkpt lat="45.33171" lon="5.81567">
        <ele>1030.3</ele>
        <time>2014-08-24T15:06:57Z</time>
      </trkpt>
      <trkpt lat="45.33161" lon="5.81567">
        <ele>1030.8</ele>
        <time>2014-08-24T15:07:02Z</time>
      </trkpt>
      <trkpt lat="45.33151" lon="5.81564">
        <ele>1031.8</ele>
        <time>2014-08-24T15:07:07Z</time>
      </trkpt>
      <trkpt lat="45.33142" lon="5.81561">
        <ele>1032.2</ele>
        <time>2014-08-24T15:07:12Z</time>
      </trkpt>
      <trkpt lat="45.33133" lon="5.81559">
        <ele>1033.5</ele>
        <time>2014-08-24T15:07:17Z</time>
      </trkpt>
      <trkpt lat="45.33124" lon="5.81555">
        <ele>1034.6</ele>
        <time>2014-08-24T15:07:22Z</time>
      </trkpt>
      <trkpt lat="45.33115" lon="5.81553">
        <ele>1035.5</ele>
        <time>2014-08-24T15:07:28Z</time>
      </trkpt>
      <trkpt lat="45.33106" lon="5.81554">
        <ele>1036.1</ele>
        <time>2014-08-24T15:07:33Z</time>
      </trkpt>
      <trkpt lat="45.33096" lon="5.81555">
        <ele>1036.1</ele>
        <time>2014-08-24T15:07:38Z</time>
      </trkpt>
      <trkpt lat="45.33086" lon="5.81557">
        <ele>1035.7</ele>
        <time>2014-08-24T15:07:42Z</time>
      </trkpt>
      <trkpt lat="45.33077" lon="5.81557">
        <ele>1035.3</ele>
        <time>2014-08-24T15:07:45Z</time>
      </trkpt>
      <trkpt lat="45.33067" lon="5.81558">
        <ele>1035.5</ele>
        <time>2014-08-24T15:07:48Z</time>
      </trkpt>
      <trkpt lat="45.33056" lon="5.81556">
        <ele>1035</ele>
        <time>2014-08-24T15:07:51Z</time>
      </trkpt>
      <trkpt lat="45.33043" lon="5.81556">
        <ele>1035</ele>
        <time>2014-08-24T15:07:54Z</time>
      </trkpt>
      <trkpt lat="45.33032" lon="5.81554">
        <ele>1034.9</ele>
        <time>2014-08-24T15:07:57Z</time>
      </trkpt>
      <trkpt lat="45.33022" lon="5.81553">
        <ele>1034.8</ele>
        <time>2014-08-24T15:08:00Z</time>
      </trkpt>
      <trkpt lat="45.33013" lon="5.81552">
        <ele>1034.8</ele>
        <time>2014-08-24T15:08:03Z</time>
      </trkpt>
      <trkpt lat="45.33003" lon="5.81551">
        <ele>1035</ele>
        <time>2014-08-24T15:08:06Z</time>
      </trkpt>
      <trkpt lat="45.32993" lon="5.81548">
        <ele>1034.5</ele>
        <time>2014-08-24T15:08:09Z</time>
      </trkpt>
      <trkpt lat="45.32982" lon="5.81546">
        <ele>1034.5</ele>
        <time>2014-08-24T15:08:12Z</time>
      </trkpt>
      <trkpt lat="45.32972" lon="5.81544">
        <ele>1035</ele>
        <time>2014-08-24T15:08:16Z</time>
      </trkpt>
      <trkpt lat="45.32961" lon="5.81546">
        <ele>1035.4</ele>
        <time>2014-08-24T15:08:21Z</time>
      </trkpt>
      <trkpt lat="45.32963" lon="5.81559">
        <ele>1036.1</ele>
        <time>2014-08-24T15:08:27Z</time>
      </trkpt>
      <trkpt lat="45.32972" lon="5.81564">
        <ele>1037.4</ele>
        <time>2014-08-24T15:08:34Z</time>
      </trkpt>
      <trkpt lat="45.32981" lon="5.81566">
        <ele>1039.3</ele>
        <time>2014-08-24T15:08:43Z</time>
      </trkpt>
      <trkpt lat="45.32991" lon="5.81569">
        <ele>1040.6</ele>
        <time>2014-08-24T15:08:49Z</time>
      </trkpt>
      <trkpt lat="45.32999" lon="5.81575">
        <ele>1041.8</ele>
        <time>2014-08-24T15:08:55Z</time>
      </trkpt>
      <trkpt lat="45.33007" lon="5.81579">
        <ele>1042.9</ele>
        <time>2014-08-24T15:09:01Z</time>
      </trkpt>
      <trkpt lat="45.33017" lon="5.81585">
        <ele>1044</ele>
        <time>2014-08-24T15:09:08Z</time>
      </trkpt>
      <trkpt lat="45.33025" lon="5.81588">
        <ele>1045.4</ele>
        <time>2014-08-24T15:09:15Z</time>
      </trkpt>
      <trkpt lat="45.33035" lon="5.81594">
        <ele>1046.5</ele>
        <time>2014-08-24T15:09:22Z</time>
      </trkpt>
      <trkpt lat="45.33043" lon="5.81599">
        <ele>1047.9</ele>
        <time>2014-08-24T15:09:29Z</time>
      </trkpt>
      <trkpt lat="45.33052" lon="5.81605">
        <ele>1049.4</ele>
        <time>2014-08-24T15:09:35Z</time>
      </trkpt>
      <trkpt lat="45.3306" lon="5.81613">
        <ele>1050</ele>
        <time>2014-08-24T15:09:41Z</time>
      </trkpt>
      <trkpt lat="45.33068" lon="5.8162">
        <ele>1051.6</ele>
        <time>2014-08-24T15:09:47Z</time>
      </trkpt>
      <trkpt lat="45.33077" lon="5.81625">
        <ele>1053.2</ele>
        <time>2014-08-24T15:09:56Z</time>
      </trkpt>
      <trkpt lat="45.33087" lon="5.81632">
        <ele>1056</ele>
        <time>2014-08-24T15:10:13Z</time>
      </trkpt>
      <trkpt lat="45.33095" lon="5.81637">
        <ele>1056.3</ele>
        <time>2014-08-24T15:10:16Z</time>
      </trkpt>
      <trkpt lat="45.33104" lon="5.81646">
        <ele>1056.7</ele>
        <time>2014-08-24T15:10:19Z</time>
      </trkpt>
      <trkpt lat="45.33114" lon="5.81651">
        <ele>1057.1</ele>
        <time>2014-08-24T15:10:22Z</time>
      </trkpt>
      <trkpt lat="45.33123" lon="5.81658">
        <ele>1057.8</ele>
        <time>2014-08-24T15:10:27Z</time>
      </trkpt>
      <trkpt lat="45.33133" lon="5.81658">
        <ele>1058.9</ele>
        <time>2014-08-24T15:10:33Z</time>
      </trkpt>
      <trkpt lat="45.33143" lon="5.81663">
        <ele>1060</ele>
        <time>2014-08-24T15:10:39Z</time>
      </trkpt>
      <trkpt lat="45.33151" lon="5.81669">
        <ele>1061.1</ele>
        <time>2014-08-24T15:10:44Z</time>
      </trkpt>
      <trkpt lat="45.3316" lon="5.8167">
        <ele>1061.8</ele>
        <time>2014-08-24T15:10:51Z</time>
      </trkpt>
      <trkpt lat="45.3317" lon="5.81673">
        <ele>1062.9</ele>
        <time>2014-08-24T15:10:57Z</time>
      </trkpt>
      <trkpt lat="45.33179" lon="5.81677">
        <ele>1064.4</ele>
        <time>2014-08-24T15:11:04Z</time>
      </trkpt>
      <trkpt lat="45.33189" lon="5.81682">
        <ele>1066.1</ele>
        <time>2014-08-24T15:11:10Z</time>
      </trkpt>
      <trkpt lat="45.33198" lon="5.81691">
        <ele>1067.1</ele>
        <time>2014-08-24T15:11:16Z</time>
      </trkpt>
      <trkpt lat="45.33207" lon="5.81693">
        <ele>1067.7</ele>
        <time>2014-08-24T15:11:23Z</time>
      </trkpt>
      <trkpt lat="45.33216" lon="5.81697">
        <ele>1068.5</ele>
        <time>2014-08-24T15:11:29Z</time>
      </trkpt>
      <trkpt lat="45.33225" lon="5.81699">
        <ele>1068.7</ele>
        <time>2014-08-24T15:11:34Z</time>
      </trkpt>
      <trkpt lat="45.33233" lon="5.81711">
        <ele>1069.3</ele>
        <time>2014-08-24T15:12:29Z</time>
      </trkpt>
      <trkpt lat="45.33241" lon="5.81717">
        <ele>1069.4</ele>
        <time>2014-08-24T15:12:33Z</time>
      </trkpt>
      <trkpt lat="45.33252" lon="5.81723">
        <ele>1069.4</ele>
        <time>2014-08-24T15:12:37Z</time>
      </trkpt>
      <trkpt lat="45.33262" lon="5.81728">
        <ele>1069.6</ele>
        <time>2014-08-24T15:12:41Z</time>
      </trkpt>
      <trkpt lat="45.33271" lon="5.81737">
        <ele>1069.9</ele>
        <time>2014-08-24T15:12:46Z</time>
      </trkpt>
      <trkpt lat="45.3328" lon="5.81745">
        <ele>1064.3</ele>
        <time>2014-08-24T15:12:50Z</time>
      </trkpt>
      <trkpt lat="45.33291" lon="5.81754">
        <ele>1058.4</ele>
        <time>2014-08-24T15:12:54Z</time>
      </trkpt>
      <trkpt lat="45.33301" lon="5.81763">
        <ele>1069.1</ele>
        <time>2014-08-24T15:12:58Z</time>
      </trkpt>
      <trkpt lat="45.3331" lon="5.81772">
        <ele>1069.4</ele>
        <time>2014-08-24T15:13:01Z</time>
      </trkpt>
      <trkpt lat="45.33319" lon="5.81781">
        <ele>1070.7</ele>
        <time>2014-08-24T15:13:04Z</time>
      </trkpt>
      <trkpt lat="45.33328" lon="5.8179">
        <ele>1071.2</ele>
        <time>2014-08-24T15:13:06Z</time>
      </trkpt>
      <trkpt lat="45.33335" lon="5.81799">
        <ele>1071</ele>
        <time>2014-08-24T15:13:09Z</time>
      </trkpt>
      <trkpt lat="45.33343" lon="5.81809">
        <ele>1071.4</ele>
        <time>2014-08-24T15:13:14Z</time>
      </trkpt>
      <trkpt lat="45.33351" lon="5.81817">
        <ele>1071.9</ele>
        <time>2014-08-24T15:13:18Z</time>
      </trkpt>
      <trkpt lat="45.33358" lon="5.81826">
        <ele>1072.7</ele>
        <time>2014-08-24T15:13:23Z</time>
      </trkpt>
      <trkpt lat="45.33365" lon="5.81836">
        <ele>1073.2</ele>
        <time>2014-08-24T15:13:29Z</time>
      </trkpt>
      <trkpt lat="45.3337" lon="5.81847">
        <ele>1074.2</ele>
        <time>2014-08-24T15:13:33Z</time>
      </trkpt>
      <trkpt lat="45.33377" lon="5.81859">
        <ele>1074</ele>
        <time>2014-08-24T15:13:36Z</time>
      </trkpt>
      <trkpt lat="45.33385" lon="5.81868">
        <ele>1074.5</ele>
        <time>2014-08-24T15:13:39Z</time>
      </trkpt>
      <trkpt lat="45.33394" lon="5.81879">
        <ele>1074.3</ele>
        <time>2014-08-24T15:13:43Z</time>
      </trkpt>
      <trkpt lat="45.33401" lon="5.81891">
        <ele>1074.2</ele>
        <time>2014-08-24T15:13:47Z</time>
      </trkpt>
      <trkpt lat="45.33407" lon="5.81902">
        <ele>1075.3</ele>
        <time>2014-08-24T15:13:51Z</time>
      </trkpt>
      <trkpt lat="45.33411" lon="5.81913">
        <ele>1075.9</ele>
        <time>2014-08-24T15:13:55Z</time>
      </trkpt>
      <trkpt lat="45.33416" lon="5.81925">
        <ele>1076.5</ele>
        <time>2014-08-24T15:13:59Z</time>
      </trkpt>
      <trkpt lat="45.33417" lon="5.81939">
        <ele>1077.7</ele>
        <time>2014-08-24T15:14:04Z</time>
      </trkpt>
      <trkpt lat="45.33419" lon="5.81953">
        <ele>1078.2</ele>
        <time>2014-08-24T15:14:09Z</time>
      </trkpt>
      <trkpt lat="45.3342" lon="5.81967">
        <ele>1079.9</ele>
        <time>2014-08-24T15:14:15Z</time>
      </trkpt>
      <trkpt lat="45.3342" lon="5.81981">
        <ele>1080.7</ele>
        <time>2014-08-24T15:14:21Z</time>
      </trkpt>
      <trkpt lat="45.33419" lon="5.81994">
        <ele>1082</ele>
        <time>2014-08-24T15:14:27Z</time>
      </trkpt>
      <trkpt lat="45.3342" lon="5.82009">
        <ele>1083.4</ele>
        <time>2014-08-24T15:14:33Z</time>
      </trkpt>
      <trkpt lat="45.33422" lon="5.82022">
        <ele>1084.7</ele>
        <time>2014-08-24T15:14:38Z</time>
      </trkpt>
      <trkpt lat="45.33425" lon="5.82036">
        <ele>1085.5</ele>
        <time>2014-08-24T15:14:43Z</time>
      </trkpt>
      <trkpt lat="45.33427" lon="5.82048">
        <ele>1087</ele>
        <time>2014-08-24T15:14:49Z</time>
      </trkpt>
      <trkpt lat="45.33425" lon="5.82062">
        <ele>1087.5</ele>
        <time>2014-08-24T15:14:55Z</time>
      </trkpt>
      <trkpt lat="45.33419" lon="5.82073">
        <ele>1088.9</ele>
        <time>2014-08-24T15:15:01Z</time>
      </trkpt>
      <trkpt lat="45.33415" lon="5.82085">
        <ele>1089.7</ele>
        <time>2014-08-24T15:15:08Z</time>
      </trkpt>
      <trkpt lat="45.3342" lon="5.82099">
        <ele>1090.2</ele>
        <time>2014-08-24T15:15:13Z</time>
      </trkpt>
      <trkpt lat="45.33424" lon="5.82113">
        <ele>1091</ele>
        <time>2014-08-24T15:15:18Z</time>
      </trkpt>
      <trkpt lat="45.33428" lon="5.82125">
        <ele>1092.1</ele>
        <time>2014-08-24T15:15:23Z</time>
      </trkpt>
      <trkpt lat="45.33434" lon="5.82137">
        <ele>1093.2</ele>
        <time>2014-08-24T15:15:28Z</time>
      </trkpt>
      <trkpt lat="45.33441" lon="5.82148">
        <ele>1094.3</ele>
        <time>2014-08-24T15:15:34Z</time>
      </trkpt>
      <trkpt lat="45.33447" lon="5.82157">
        <ele>1095.7</ele>
        <time>2014-08-24T15:15:39Z</time>
      </trkpt>
      <trkpt lat="45.33455" lon="5.82166">
        <ele>1096.9</ele>
        <time>2014-08-24T15:15:44Z</time>
      </trkpt>
      <trkpt lat="45.3346" lon="5.82177">
        <ele>1098.1</ele>
        <time>2014-08-24T15:15:49Z</time>
      </trkpt>
      <trkpt lat="45.33468" lon="5.82187">
        <ele>1098.7</ele>
        <time>2014-08-24T15:15:55Z</time>
      </trkpt>
      <trkpt lat="45.33474" lon="5.82197">
        <ele>1099.8</ele>
        <time>2014-08-24T15:16:00Z</time>
      </trkpt>
      <trkpt lat="45.33478" lon="5.82209">
        <ele>1100.5</ele>
        <time>2014-08-24T15:16:06Z</time>
      </trkpt>
      <trkpt lat="45.33481" lon="5.82223">
        <ele>1102</ele>
        <time>2014-08-24T15:16:12Z</time>
      </trkpt>
      <trkpt lat="45.33482" lon="5.82237">
        <ele>1103.2</ele>
        <time>2014-08-24T15:16:18Z</time>
      </trkpt>
      <trkpt lat="45.33486" lon="5.82251">
        <ele>1103.8</ele>
        <time>2014-08-24T15:16:24Z</time>
      </trkpt>
      <trkpt lat="45.33489" lon="5.82265">
        <ele>1104.6</ele>
        <time>2014-08-24T15:16:30Z</time>
      </trkpt>
      <trkpt lat="45.33491" lon="5.82279">
        <ele>1105.7</ele>
        <time>2014-08-24T15:16:36Z</time>
      </trkpt>
      <trkpt lat="45.33488" lon="5.82291">
        <ele>1106.2</ele>
        <time>2014-08-24T15:16:41Z</time>
      </trkpt>
      <trkpt lat="45.33479" lon="5.82297">
        <ele>1108</ele>
        <time>2014-08-24T15:16:47Z</time>
      </trkpt>
      <trkpt lat="45.33471" lon="5.82303">
        <ele>1109.1</ele>
        <time>2014-08-24T15:16:52Z</time>
      </trkpt>
      <trkpt lat="45.33462" lon="5.82306">
        <ele>1109.7</ele>
        <time>2014-08-24T15:16:57Z</time>
      </trkpt>
      <trkpt lat="45.33452" lon="5.82309">
        <ele>1109.5</ele>
        <time>2014-08-24T15:17:02Z</time>
      </trkpt>
      <trkpt lat="45.33442" lon="5.82311">
        <ele>1109.3</ele>
        <time>2014-08-24T15:17:06Z</time>
      </trkpt>
      <trkpt lat="45.33432" lon="5.82315">
        <ele>1109.2</ele>
        <time>2014-08-24T15:17:09Z</time>
      </trkpt>
      <trkpt lat="45.33423" lon="5.8232">
        <ele>1109.6</ele>
        <time>2014-08-24T15:17:12Z</time>
      </trkpt>
      <trkpt lat="45.33411" lon="5.82324">
        <ele>1109.6</ele>
        <time>2014-08-24T15:17:16Z</time>
      </trkpt>
      <trkpt lat="45.33401" lon="5.82328">
        <ele>1109.7</ele>
        <time>2014-08-24T15:17:19Z</time>
      </trkpt>
      <trkpt lat="45.33392" lon="5.8233">
        <ele>1109.2</ele>
        <time>2014-08-24T15:17:22Z</time>
      </trkpt>
      <trkpt lat="45.33383" lon="5.82333">
        <ele>1109</ele>
        <time>2014-08-24T15:17:25Z</time>
      </trkpt>
      <trkpt lat="45.33373" lon="5.82337">
        <ele>1109</ele>
        <time>2014-08-24T15:17:28Z</time>
      </trkpt>
      <trkpt lat="45.33365" lon="5.82344">
        <ele>1109.2</ele>
        <time>2014-08-24T15:17:31Z</time>
      </trkpt>
      <trkpt lat="45.33359" lon="5.82354">
        <ele>1109.2</ele>
        <time>2014-08-24T15:17:35Z</time>
      </trkpt>
      <trkpt lat="45.33352" lon="5.82365">
        <ele>1110.1</ele>
        <time>2014-08-24T15:17:40Z</time>
      </trkpt>
      <trkpt lat="45.33345" lon="5.82378">
        <ele>1110.3</ele>
        <time>2014-08-24T15:17:45Z</time>
      </trkpt>
      <trkpt lat="45.33336" lon="5.82388">
        <ele>1111</ele>
        <time>2014-08-24T15:17:49Z</time>
      </trkpt>
      <trkpt lat="45.33329" lon="5.824">
        <ele>1111.7</ele>
        <time>2014-08-24T15:17:54Z</time>
      </trkpt>
      <trkpt lat="45.33324" lon="5.82411">
        <ele>1112.6</ele>
        <time>2014-08-24T15:17:59Z</time>
      </trkpt>
      <trkpt lat="45.33321" lon="5.82423">
        <ele>1114</ele>
        <time>2014-08-24T15:18:04Z</time>
      </trkpt>
      <trkpt lat="45.33323" lon="5.82437">
        <ele>1114.5</ele>
        <time>2014-08-24T15:18:09Z</time>
      </trkpt>
      <trkpt lat="45.33328" lon="5.8245">
        <ele>1116</ele>
        <time>2014-08-24T15:18:15Z</time>
      </trkpt>
      <trkpt lat="45.33334" lon="5.82459">
        <ele>1117.4</ele>
        <time>2014-08-24T15:18:23Z</time>
      </trkpt>
      <trkpt lat="45.33342" lon="5.82467">
        <ele>1118.4</ele>
        <time>2014-08-24T15:18:29Z</time>
      </trkpt>
      <trkpt lat="45.33349" lon="5.82477">
        <ele>1119.9</ele>
        <time>2014-08-24T15:18:36Z</time>
      </trkpt>
      <trkpt lat="45.33357" lon="5.82486">
        <ele>1120.9</ele>
        <time>2014-08-24T15:18:42Z</time>
      </trkpt>
      <trkpt lat="45.33365" lon="5.82496">
        <ele>1122.1</ele>
        <time>2014-08-24T15:18:48Z</time>
      </trkpt>
      <trkpt lat="45.33372" lon="5.82505">
        <ele>1123.2</ele>
        <time>2014-08-24T15:18:54Z</time>
      </trkpt>
      <trkpt lat="45.33376" lon="5.82518">
        <ele>1124.3</ele>
        <time>2014-08-24T15:19:00Z</time>
      </trkpt>
      <trkpt lat="45.33374" lon="5.82532">
        <ele>1124.8</ele>
        <time>2014-08-24T15:19:08Z</time>
      </trkpt>
      <trkpt lat="45.33377" lon="5.82546">
        <ele>1125.5</ele>
        <time>2014-08-24T15:19:14Z</time>
      </trkpt>
      <trkpt lat="45.3338" lon="5.8256">
        <ele>1126.3</ele>
        <time>2014-08-24T15:19:19Z</time>
      </trkpt>
      <trkpt lat="45.33385" lon="5.82572">
        <ele>1127.4</ele>
        <time>2014-08-24T15:19:25Z</time>
      </trkpt>
      <trkpt lat="45.33382" lon="5.82585">
        <ele>1128.3</ele>
        <time>2014-08-24T15:19:31Z</time>
      </trkpt>
      <trkpt lat="45.33381" lon="5.82598">
        <ele>1129</ele>
        <time>2014-08-24T15:19:37Z</time>
      </trkpt>
      <trkpt lat="45.33382" lon="5.82614">
        <ele>1129.9</ele>
        <time>2014-08-24T15:19:43Z</time>
      </trkpt>
      <trkpt lat="45.33384" lon="5.82628">
        <ele>1130.8</ele>
        <time>2014-08-24T15:19:49Z</time>
      </trkpt>
      <trkpt lat="45.33381" lon="5.82641">
        <ele>1132.6</ele>
        <time>2014-08-24T15:19:55Z</time>
      </trkpt>
      <trkpt lat="45.33379" lon="5.82654">
        <ele>1133.2</ele>
        <time>2014-08-24T15:20:01Z</time>
      </trkpt>
      <trkpt lat="45.33373" lon="5.82665">
        <ele>1134.4</ele>
        <time>2014-08-24T15:20:07Z</time>
      </trkpt>
      <trkpt lat="45.33366" lon="5.82675">
        <ele>1136</ele>
        <time>2014-08-24T15:20:13Z</time>
      </trkpt>
      <trkpt lat="45.33358" lon="5.82683">
        <ele>1137</ele>
        <time>2014-08-24T15:20:18Z</time>
      </trkpt>
      <trkpt lat="45.33353" lon="5.82696">
        <ele>1137.7</ele>
        <time>2014-08-24T15:20:24Z</time>
      </trkpt>
      <trkpt lat="45.33349" lon="5.82709">
        <ele>1138.8</ele>
        <time>2014-08-24T15:20:30Z</time>
      </trkpt>
      <trkpt lat="45.33346" lon="5.82721">
        <ele>1139.2</ele>
        <time>2014-08-24T15:20:35Z</time>
      </trkpt>
      <trkpt lat="45.33344" lon="5.82736">
        <ele>1140.2</ele>
        <time>2014-08-24T15:20:41Z</time>
      </trkpt>
      <trkpt lat="45.33343" lon="5.8275">
        <ele>1140.8</ele>
        <time>2014-08-24T15:20:47Z</time>
      </trkpt>
      <trkpt lat="45.33341" lon="5.82764">
        <ele>1141.9</ele>
        <time>2014-08-24T15:20:52Z</time>
      </trkpt>
      <trkpt lat="45.33339" lon="5.82779">
        <ele>1143.1</ele>
        <time>2014-08-24T15:20:58Z</time>
      </trkpt>
      <trkpt lat="45.33337" lon="5.82793">
        <ele>1143.9</ele>
        <time>2014-08-24T15:21:04Z</time>
      </trkpt>
      <trkpt lat="45.33337" lon="5.82808">
        <ele>1144.7</ele>
        <time>2014-08-24T15:21:10Z</time>
      </trkpt>
      <trkpt lat="45.33339" lon="5.82822">
        <ele>1146.1</ele>
        <time>2014-08-24T15:21:16Z</time>
      </trkpt>
      <trkpt lat="45.33343" lon="5.82835">
        <ele>1147.2</ele>
        <time>2014-08-24T15:21:22Z</time>
      </trkpt>
      <trkpt lat="45.33341" lon="5.82849">
        <ele>1148.3</ele>
        <time>2014-08-24T15:21:28Z</time>
      </trkpt>
      <trkpt lat="45.33333" lon="5.82855">
        <ele>1149.4</ele>
        <time>2014-08-24T15:21:34Z</time>
      </trkpt>
      <trkpt lat="45.33329" lon="5.82843">
        <ele>1149.9</ele>
        <time>2014-08-24T15:21:40Z</time>
      </trkpt>
      <trkpt lat="45.33327" lon="5.82829">
        <ele>1151.1</ele>
        <time>2014-08-24T15:21:47Z</time>
      </trkpt>
      <trkpt lat="45.33327" lon="5.82815">
        <ele>1152</ele>
        <time>2014-08-24T15:21:53Z</time>
      </trkpt>
      <trkpt lat="45.33324" lon="5.82803">
        <ele>1152.9</ele>
        <time>2014-08-24T15:21:59Z</time>
      </trkpt>
      <trkpt lat="45.3332" lon="5.8279">
        <ele>1153.5</ele>
        <time>2014-08-24T15:22:05Z</time>
      </trkpt>
      <trkpt lat="45.33316" lon="5.82778">
        <ele>1154.5</ele>
        <time>2014-08-24T15:22:10Z</time>
      </trkpt>
      <trkpt lat="45.33315" lon="5.82764">
        <ele>1155</ele>
        <time>2014-08-24T15:22:16Z</time>
      </trkpt>
      <trkpt lat="45.33312" lon="5.82751">
        <ele>1156.2</ele>
        <time>2014-08-24T15:22:22Z</time>
      </trkpt>
      <trkpt lat="45.33313" lon="5.82736">
        <ele>1157</ele>
        <time>2014-08-24T15:22:28Z</time>
      </trkpt>
      <trkpt lat="45.33313" lon="5.82722">
        <ele>1158.2</ele>
        <time>2014-08-24T15:22:34Z</time>
      </trkpt>
      <trkpt lat="45.33314" lon="5.82709">
        <ele>1159.4</ele>
        <time>2014-08-24T15:22:39Z</time>
      </trkpt>
      <trkpt lat="45.33315" lon="5.82696">
        <ele>1160.3</ele>
        <time>2014-08-24T15:22:45Z</time>
      </trkpt>
      <trkpt lat="45.33318" lon="5.82684">
        <ele>1160.8</ele>
        <time>2014-08-24T15:22:51Z</time>
      </trkpt>
      <trkpt lat="45.3332" lon="5.82671">
        <ele>1162.1</ele>
        <time>2014-08-24T15:22:57Z</time>
      </trkpt>
      <trkpt lat="45.33319" lon="5.82657">
        <ele>1163.9</ele>
        <time>2014-08-24T15:23:04Z</time>
      </trkpt>
      <trkpt lat="45.3332" lon="5.82643">
        <ele>1165</ele>
        <time>2014-08-24T15:23:12Z</time>
      </trkpt>
      <trkpt lat="45.33316" lon="5.82631">
        <ele>1166.2</ele>
        <time>2014-08-24T15:23:19Z</time>
      </trkpt>
      <trkpt lat="45.33309" lon="5.82618">
        <ele>1167.1</ele>
        <time>2014-08-24T15:23:24Z</time>
      </trkpt>
      <trkpt lat="45.33303" lon="5.82607">
        <ele>1168.1</ele>
        <time>2014-08-24T15:23:30Z</time>
      </trkpt>
      <trkpt lat="45.33298" lon="5.82595">
        <ele>1168.3</ele>
        <time>2014-08-24T15:23:37Z</time>
      </trkpt>
      <trkpt lat="45.33289" lon="5.82589">
        <ele>1168.4</ele>
        <time>2014-08-24T15:23:42Z</time>
      </trkpt>
      <trkpt lat="45.33281" lon="5.82583">
        <ele>1168.4</ele>
        <time>2014-08-24T15:23:46Z</time>
      </trkpt>
      <trkpt lat="45.33272" lon="5.82577">
        <ele>1168.8</ele>
        <time>2014-08-24T15:23:50Z</time>
      </trkpt>
      <trkpt lat="45.33263" lon="5.82571">
        <ele>1169.1</ele>
        <time>2014-08-24T15:23:54Z</time>
      </trkpt>
      <trkpt lat="45.33254" lon="5.82568">
        <ele>1169.1</ele>
        <time>2014-08-24T15:23:59Z</time>
      </trkpt>
      <trkpt lat="45.33243" lon="5.8257">
        <ele>1169.6</ele>
        <time>2014-08-24T15:24:04Z</time>
      </trkpt>
      <trkpt lat="45.33233" lon="5.82574">
        <ele>1170.3</ele>
        <time>2014-08-24T15:24:09Z</time>
      </trkpt>
      <trkpt lat="45.33224" lon="5.8258">
        <ele>1170.5</ele>
        <time>2014-08-24T15:24:14Z</time>
      </trkpt>
      <trkpt lat="45.33215" lon="5.82583">
        <ele>1170.8</ele>
        <time>2014-08-24T15:24:19Z</time>
      </trkpt>
      <trkpt lat="45.33205" lon="5.82583">
        <ele>1172.4</ele>
        <time>2014-08-24T15:24:26Z</time>
      </trkpt>
      <trkpt lat="45.33196" lon="5.82581">
        <ele>1173.3</ele>
        <time>2014-08-24T15:24:32Z</time>
      </trkpt>
      <trkpt lat="45.33187" lon="5.82575">
        <ele>1174.3</ele>
        <time>2014-08-24T15:24:37Z</time>
      </trkpt>
      <trkpt lat="45.33178" lon="5.82566">
        <ele>1175.2</ele>
        <time>2014-08-24T15:24:44Z</time>
      </trkpt>
      <trkpt lat="45.3317" lon="5.8256">
        <ele>1175.6</ele>
        <time>2014-08-24T15:24:49Z</time>
      </trkpt>
      <trkpt lat="45.3316" lon="5.8255">
        <ele>1177.2</ele>
        <time>2014-08-24T15:24:56Z</time>
      </trkpt>
      <trkpt lat="45.33153" lon="5.82542">
        <ele>1177.9</ele>
        <time>2014-08-24T15:25:00Z</time>
      </trkpt>
      <trkpt lat="45.3315" lon="5.82528">
        <ele>1178.5</ele>
        <time>2014-08-24T15:25:04Z</time>
      </trkpt>
      <trkpt lat="45.33147" lon="5.82513">
        <ele>1179.5</ele>
        <time>2014-08-24T15:25:09Z</time>
      </trkpt>
      <trkpt lat="45.33144" lon="5.82499">
        <ele>1180</ele>
        <time>2014-08-24T15:25:14Z</time>
      </trkpt>
      <trkpt lat="45.3314" lon="5.82486">
        <ele>1181</ele>
        <time>2014-08-24T15:25:19Z</time>
      </trkpt>
      <trkpt lat="45.33134" lon="5.82475">
        <ele>1181.2</ele>
        <time>2014-08-24T15:25:24Z</time>
      </trkpt>
      <trkpt lat="45.33126" lon="5.82466">
        <ele>1181.3</ele>
        <time>2014-08-24T15:25:30Z</time>
      </trkpt>
      <trkpt lat="45.3312" lon="5.82457">
        <ele>1182.1</ele>
        <time>2014-08-24T15:25:36Z</time>
      </trkpt>
      <trkpt lat="45.33115" lon="5.82444">
        <ele>1183.6</ele>
        <time>2014-08-24T15:25:43Z</time>
      </trkpt>
      <trkpt lat="45.33112" lon="5.8243">
        <ele>1184.2</ele>
        <time>2014-08-24T15:25:48Z</time>
      </trkpt>
      <trkpt lat="45.33114" lon="5.82417">
        <ele>1185.3</ele>
        <time>2014-08-24T15:25:54Z</time>
      </trkpt>
      <trkpt lat="45.33116" lon="5.82402">
        <ele>1185.7</ele>
        <time>2014-08-24T15:26:00Z</time>
      </trkpt>
      <trkpt lat="45.33117" lon="5.82388">
        <ele>1186.5</ele>
        <time>2014-08-24T15:26:05Z</time>
      </trkpt>
      <trkpt lat="45.33121" lon="5.82376">
        <ele>1186.7</ele>
        <time>2014-08-24T15:26:10Z</time>
      </trkpt>
      <trkpt lat="45.33123" lon="5.82363">
        <ele>1187.8</ele>
        <time>2014-08-24T15:26:15Z</time>
      </trkpt>
      <trkpt lat="45.33127" lon="5.8235">
        <ele>1188.4</ele>
        <time>2014-08-24T15:26:20Z</time>
      </trkpt>
      <trkpt lat="45.33132" lon="5.82339">
        <ele>1189.1</ele>
        <time>2014-08-24T15:26:25Z</time>
      </trkpt>
      <trkpt lat="45.33137" lon="5.82328">
        <ele>1190.3</ele>
        <time>2014-08-24T15:26:30Z</time>
      </trkpt>
      <trkpt lat="45.33141" lon="5.82315">
        <ele>1191.1</ele>
        <time>2014-08-24T15:26:35Z</time>
      </trkpt>
      <trkpt lat="45.33145" lon="5.82304">
        <ele>1191.8</ele>
        <time>2014-08-24T15:26:40Z</time>
      </trkpt>
      <trkpt lat="45.3315" lon="5.82293">
        <ele>1192.5</ele>
        <time>2014-08-24T15:26:45Z</time>
      </trkpt>
      <trkpt lat="45.33156" lon="5.82282">
        <ele>1194.8</ele>
        <time>2014-08-24T15:26:50Z</time>
      </trkpt>
      <trkpt lat="45.33163" lon="5.8227">
        <ele>1193.5</ele>
        <time>2014-08-24T15:26:56Z</time>
      </trkpt>
      <trkpt lat="45.33168" lon="5.82259">
        <ele>1194.5</ele>
        <time>2014-08-24T15:27:01Z</time>
      </trkpt>
      <trkpt lat="45.33174" lon="5.8225">
        <ele>1195.4</ele>
        <time>2014-08-24T15:27:06Z</time>
      </trkpt>
      <trkpt lat="45.33181" lon="5.8224">
        <ele>1196.7</ele>
        <time>2014-08-24T15:27:11Z</time>
      </trkpt>
      <trkpt lat="45.33189" lon="5.82231">
        <ele>1198.1</ele>
        <time>2014-08-24T15:27:17Z</time>
      </trkpt>
      <trkpt lat="45.33198" lon="5.82226">
        <ele>1199.2</ele>
        <time>2014-08-24T15:27:23Z</time>
      </trkpt>
      <trkpt lat="45.33205" lon="5.82213">
        <ele>1199.2</ele>
        <time>2014-08-24T15:27:31Z</time>
      </trkpt>
      <trkpt lat="45.33214" lon="5.82201">
        <ele>1198.1</ele>
        <time>2014-08-24T15:27:34Z</time>
      </trkpt>
      <trkpt lat="45.33223" lon="5.82192">
        <ele>1197.9</ele>
        <time>2014-08-24T15:27:37Z</time>
      </trkpt>
      <trkpt lat="45.33237" lon="5.82186">
        <ele>1197.5</ele>
        <time>2014-08-24T15:27:40Z</time>
      </trkpt>
      <trkpt lat="45.3325" lon="5.82184">
        <ele>1196.2</ele>
        <time>2014-08-24T15:27:43Z</time>
      </trkpt>
      <trkpt lat="45.3326" lon="5.82178">
        <ele>1195.2</ele>
        <time>2014-08-24T15:27:46Z</time>
      </trkpt>
      <trkpt lat="45.33267" lon="5.82165">
        <ele>1193.7</ele>
        <time>2014-08-24T15:27:49Z</time>
      </trkpt>
      <trkpt lat="45.33269" lon="5.82147">
        <ele>1192.2</ele>
        <time>2014-08-24T15:27:52Z</time>
      </trkpt>
      <trkpt lat="45.33265" lon="5.82134">
        <ele>1192.1</ele>
        <time>2014-08-24T15:27:57Z</time>
      </trkpt>
      <trkpt lat="45.33264" lon="5.82122">
        <ele>1193.1</ele>
        <time>2014-08-24T15:28:03Z</time>
      </trkpt>
      <trkpt lat="45.33261" lon="5.8211">
        <ele>1194.8</ele>
        <time>2014-08-24T15:28:10Z</time>
      </trkpt>
      <trkpt lat="45.3326" lon="5.82097">
        <ele>1195.9</ele>
        <time>2014-08-24T15:28:18Z</time>
      </trkpt>
      <trkpt lat="45.33257" lon="5.82083">
        <ele>1198.1</ele>
        <time>2014-08-24T15:28:26Z</time>
      </trkpt>
      <trkpt lat="45.33253" lon="5.82071">
        <ele>1199.4</ele>
        <time>2014-08-24T15:28:32Z</time>
      </trkpt>
      <trkpt lat="45.33247" lon="5.82061">
        <ele>1201.2</ele>
        <time>2014-08-24T15:28:39Z</time>
      </trkpt>
      <trkpt lat="45.33239" lon="5.82054">
        <ele>1202.2</ele>
        <time>2014-08-24T15:28:47Z</time>
      </trkpt>
      <trkpt lat="45.33231" lon="5.82045">
        <ele>1203.6</ele>
        <time>2014-08-24T15:28:55Z</time>
      </trkpt>
      <trkpt lat="45.33222" lon="5.8204">
        <ele>1205.2</ele>
        <time>2014-08-24T15:29:03Z</time>
      </trkpt>
      <trkpt lat="45.33213" lon="5.82035">
        <ele>1205.7</ele>
        <time>2014-08-24T15:29:10Z</time>
      </trkpt>
      <trkpt lat="45.33204" lon="5.8203">
        <ele>1206.5</ele>
        <time>2014-08-24T15:29:17Z</time>
      </trkpt>
      <trkpt lat="45.33194" lon="5.82027">
        <ele>1207.8</ele>
        <time>2014-08-24T15:29:24Z</time>
      </trkpt>
      <trkpt lat="45.33184" lon="5.82025">
        <ele>1208.3</ele>
        <time>2014-08-24T15:29:31Z</time>
      </trkpt>
      <trkpt lat="45.33174" lon="5.82026">
        <ele>1209.6</ele>
        <time>2014-08-24T15:29:38Z</time>
      </trkpt>
      <trkpt lat="45.33164" lon="5.82025">
        <ele>1210.6</ele>
        <time>2014-08-24T15:29:46Z</time>
      </trkpt>
      <trkpt lat="45.33157" lon="5.82016">
        <ele>1212.1</ele>
        <time>2014-08-24T15:29:54Z</time>
      </trkpt>
      <trkpt lat="45.3315" lon="5.82007">
        <ele>1213.7</ele>
        <time>2014-08-24T15:30:02Z</time>
      </trkpt>
      <trkpt lat="45.33142" lon="5.81998">
        <ele>1214.8</ele>
        <time>2014-08-24T15:30:08Z</time>
      </trkpt>
      <trkpt lat="45.33135" lon="5.81991">
        <ele>1216.2</ele>
        <time>2014-08-24T15:30:14Z</time>
      </trkpt>
      <trkpt lat="45.33126" lon="5.81985">
        <ele>1217.6</ele>
        <time>2014-08-24T15:30:20Z</time>
      </trkpt>
      <trkpt lat="45.33117" lon="5.81984">
        <ele>1218.6</ele>
        <time>2014-08-24T15:30:27Z</time>
      </trkpt>
      <trkpt lat="45.33108" lon="5.8198">
        <ele>1219.9</ele>
        <time>2014-08-24T15:30:34Z</time>
      </trkpt>
      <trkpt lat="45.33098" lon="5.8198">
        <ele>1221.2</ele>
        <time>2014-08-24T15:30:42Z</time>
      </trkpt>
      <trkpt lat="45.33088" lon="5.8198">
        <ele>1222.2</ele>
        <time>2014-08-24T15:30:49Z</time>
      </trkpt>
      <trkpt lat="45.33078" lon="5.81981">
        <ele>1222.7</ele>
        <time>2014-08-24T15:30:56Z</time>
      </trkpt>
      <trkpt lat="45.33069" lon="5.81981">
        <ele>1223.4</ele>
        <time>2014-08-24T15:31:02Z</time>
      </trkpt>
      <trkpt lat="45.33059" lon="5.81983">
        <ele>1224.7</ele>
        <time>2014-08-24T15:31:08Z</time>
      </trkpt>
      <trkpt lat="45.3305" lon="5.81984">
        <ele>1226</ele>
        <time>2014-08-24T15:31:15Z</time>
      </trkpt>
      <trkpt lat="45.33041" lon="5.81986">
        <ele>1227.3</ele>
        <time>2014-08-24T15:31:21Z</time>
      </trkpt>
      <trkpt lat="45.33031" lon="5.81988">
        <ele>1228.8</ele>
        <time>2014-08-24T15:31:29Z</time>
      </trkpt>
      <trkpt lat="45.33021" lon="5.8199">
        <ele>1229.7</ele>
        <time>2014-08-24T15:31:36Z</time>
      </trkpt>
      <trkpt lat="45.33012" lon="5.81987">
        <ele>1231</ele>
        <time>2014-08-24T15:31:43Z</time>
      </trkpt>
      <trkpt lat="45.33003" lon="5.81983">
        <ele>1232</ele>
        <time>2014-08-24T15:31:50Z</time>
      </trkpt>
      <trkpt lat="45.32994" lon="5.81979">
        <ele>1233.5</ele>
        <time>2014-08-24T15:31:57Z</time>
      </trkpt>
      <trkpt lat="45.32985" lon="5.81973">
        <ele>1235</ele>
        <time>2014-08-24T15:32:04Z</time>
      </trkpt>
      <trkpt lat="45.32976" lon="5.81967">
        <ele>1236.3</ele>
        <time>2014-08-24T15:32:11Z</time>
      </trkpt>
      <trkpt lat="45.32968" lon="5.81961">
        <ele>1237.3</ele>
        <time>2014-08-24T15:32:18Z</time>
      </trkpt>
      <trkpt lat="45.32958" lon="5.81957">
        <ele>1238.4</ele>
        <time>2014-08-24T15:32:25Z</time>
      </trkpt>
      <trkpt lat="45.32948" lon="5.81956">
        <ele>1239.2</ele>
        <time>2014-08-24T15:32:32Z</time>
      </trkpt>
      <trkpt lat="45.32939" lon="5.81956">
        <ele>1240.2</ele>
        <time>2014-08-24T15:32:39Z</time>
      </trkpt>
      <trkpt lat="45.32929" lon="5.81959">
        <ele>1241.8</ele>
        <time>2014-08-24T15:32:46Z</time>
      </trkpt>
      <trkpt lat="45.3292" lon="5.81962">
        <ele>1242.7</ele>
        <time>2014-08-24T15:32:52Z</time>
      </trkpt>
      <trkpt lat="45.3291" lon="5.81966">
        <ele>1244.1</ele>
        <time>2014-08-24T15:32:59Z</time>
      </trkpt>
      <trkpt lat="45.32901" lon="5.81972">
        <ele>1245.4</ele>
        <time>2014-08-24T15:33:06Z</time>
      </trkpt>
      <trkpt lat="45.32893" lon="5.8198">
        <ele>1246.8</ele>
        <time>2014-08-24T15:33:13Z</time>
      </trkpt>
      <trkpt lat="45.32886" lon="5.81988">
        <ele>1247.6</ele>
        <time>2014-08-24T15:33:19Z</time>
      </trkpt>
      <trkpt lat="45.32877" lon="5.81993">
        <ele>1249</ele>
        <time>2014-08-24T15:33:25Z</time>
      </trkpt>
      <trkpt lat="45.32868" lon="5.81996">
        <ele>1250.3</ele>
        <time>2014-08-24T15:33:32Z</time>
      </trkpt>
      <trkpt lat="45.32858" lon="5.81993">
        <ele>1251.9</ele>
        <time>2014-08-24T15:33:40Z</time>
      </trkpt>
      <trkpt lat="45.32848" lon="5.81993">
        <ele>1252.6</ele>
        <time>2014-08-24T15:33:47Z</time>
      </trkpt>
      <trkpt lat="45.32839" lon="5.8199">
        <ele>1253.6</ele>
        <time>2014-08-24T15:33:53Z</time>
      </trkpt>
      <trkpt lat="45.3283" lon="5.81988">
        <ele>1254.1</ele>
        <time>2014-08-24T15:33:59Z</time>
      </trkpt>
      <trkpt lat="45.3282" lon="5.81991">
        <ele>1255.3</ele>
        <time>2014-08-24T15:34:06Z</time>
      </trkpt>
      <trkpt lat="45.32816" lon="5.82003">
        <ele>1256.3</ele>
        <time>2014-08-24T15:34:14Z</time>
      </trkpt>
      <trkpt lat="45.32826" lon="5.82008">
        <ele>1257</ele>
        <time>2014-08-24T15:34:21Z</time>
      </trkpt>
      <trkpt lat="45.32836" lon="5.82007">
        <ele>1257.8</ele>
        <time>2014-08-24T15:34:28Z</time>
      </trkpt>
      <trkpt lat="45.32845" lon="5.82011">
        <ele>1259.1</ele>
        <time>2014-08-24T15:34:38Z</time>
      </trkpt>
      <trkpt lat="45.32854" lon="5.82018">
        <ele>1260.5</ele>
        <time>2014-08-24T15:34:48Z</time>
      </trkpt>
      <trkpt lat="45.32861" lon="5.82027">
        <ele>1262.2</ele>
        <time>2014-08-24T15:34:56Z</time>
      </trkpt>
      <trkpt lat="45.32867" lon="5.82037">
        <ele>1263.5</ele>
        <time>2014-08-24T15:35:03Z</time>
      </trkpt>
      <trkpt lat="45.32874" lon="5.82048">
        <ele>1264.4</ele>
        <time>2014-08-24T15:35:11Z</time>
      </trkpt>
      <trkpt lat="45.32881" lon="5.82058">
        <ele>1265.8</ele>
        <time>2014-08-24T15:35:18Z</time>
      </trkpt>
      <trkpt lat="45.32888" lon="5.82069">
        <ele>1266.8</ele>
        <time>2014-08-24T15:35:25Z</time>
      </trkpt>
      <trkpt lat="45.32891" lon="5.82081">
        <ele>1267.7</ele>
        <time>2014-08-24T15:35:33Z</time>
      </trkpt>
      <trkpt lat="45.32892" lon="5.82095">
        <ele>1268.9</ele>
        <time>2014-08-24T15:35:41Z</time>
      </trkpt>
      <trkpt lat="45.32896" lon="5.82108">
        <ele>1269.5</ele>
        <time>2014-08-24T15:35:47Z</time>
      </trkpt>
      <trkpt lat="45.32899" lon="5.8212">
        <ele>1270.9</ele>
        <time>2014-08-24T15:35:52Z</time>
      </trkpt>
      <trkpt lat="45.32902" lon="5.82133">
        <ele>1271.9</ele>
        <time>2014-08-24T15:35:59Z</time>
      </trkpt>
      <trkpt lat="45.329" lon="5.82146">
        <ele>1272.5</ele>
        <time>2014-08-24T15:36:05Z</time>
      </trkpt>
      <trkpt lat="45.3289" lon="5.8215">
        <ele>1273.7</ele>
        <time>2014-08-24T15:36:12Z</time>
      </trkpt>
      <trkpt lat="45.32881" lon="5.82143">
        <ele>1274.7</ele>
        <time>2014-08-24T15:36:19Z</time>
      </trkpt>
      <trkpt lat="45.32872" lon="5.82144">
        <ele>1276.3</ele>
        <time>2014-08-24T15:36:27Z</time>
      </trkpt>
      <trkpt lat="45.32864" lon="5.82149">
        <ele>1277.2</ele>
        <time>2014-08-24T15:36:38Z</time>
      </trkpt>
      <trkpt lat="45.32854" lon="5.8215">
        <ele>1277.7</ele>
        <time>2014-08-24T15:36:45Z</time>
      </trkpt>
      <trkpt lat="45.32845" lon="5.82142">
        <ele>1278.7</ele>
        <time>2014-08-24T15:36:56Z</time>
      </trkpt>
      <trkpt lat="45.3284" lon="5.8213">
        <ele>1279.5</ele>
        <time>2014-08-24T15:37:01Z</time>
      </trkpt>
      <trkpt lat="45.32834" lon="5.82119">
        <ele>1280</ele>
        <time>2014-08-24T15:37:06Z</time>
      </trkpt>
      <trkpt lat="45.32829" lon="5.82108">
        <ele>1281</ele>
        <time>2014-08-24T15:37:12Z</time>
      </trkpt>
      <trkpt lat="45.32822" lon="5.821">
        <ele>1282.2</ele>
        <time>2014-08-24T15:37:19Z</time>
      </trkpt>
      <trkpt lat="45.32813" lon="5.82096">
        <ele>1283.1</ele>
        <time>2014-08-24T15:37:26Z</time>
      </trkpt>
      <trkpt lat="45.32803" lon="5.8209">
        <ele>1284.1</ele>
        <time>2014-08-24T15:37:33Z</time>
      </trkpt>
      <trkpt lat="45.32794" lon="5.82088">
        <ele>1285.2</ele>
        <time>2014-08-24T15:37:39Z</time>
      </trkpt>
      <trkpt lat="45.32785" lon="5.82084">
        <ele>1286.2</ele>
        <time>2014-08-24T15:37:45Z</time>
      </trkpt>
      <trkpt lat="45.32775" lon="5.82082">
        <ele>1287.9</ele>
        <time>2014-08-24T15:37:51Z</time>
      </trkpt>
      <trkpt lat="45.32766" lon="5.82081">
        <ele>1288.6</ele>
        <time>2014-08-24T15:37:56Z</time>
      </trkpt>
      <trkpt lat="45.32756" lon="5.82079">
        <ele>1289.7</ele>
        <time>2014-08-24T15:38:02Z</time>
      </trkpt>
      <trkpt lat="45.32746" lon="5.82078">
        <ele>1290.9</ele>
        <time>2014-08-24T15:38:09Z</time>
      </trkpt>
      <trkpt lat="45.32736" lon="5.82076">
        <ele>1291.3</ele>
        <time>2014-08-24T15:38:17Z</time>
      </trkpt>
      <trkpt lat="45.32727" lon="5.8208">
        <ele>1292</ele>
        <time>2014-08-24T15:38:25Z</time>
      </trkpt>
      <trkpt lat="45.32717" lon="5.82073">
        <ele>1292.3</ele>
        <time>2014-08-24T15:38:37Z</time>
      </trkpt>
      <trkpt lat="45.32712" lon="5.82063">
        <ele>1293</ele>
        <time>2014-08-24T15:38:45Z</time>
      </trkpt>
      <trkpt lat="45.32703" lon="5.82057">
        <ele>1294</ele>
        <time>2014-08-24T15:38:52Z</time>
      </trkpt>
      <trkpt lat="45.32695" lon="5.8205">
        <ele>1294.8</ele>
        <time>2014-08-24T15:39:00Z</time>
      </trkpt>
      <trkpt lat="45.32685" lon="5.82045">
        <ele>1295.9</ele>
        <time>2014-08-24T15:39:05Z</time>
      </trkpt>
      <trkpt lat="45.32676" lon="5.82042">
        <ele>1296.9</ele>
        <time>2014-08-24T15:39:10Z</time>
      </trkpt>
      <trkpt lat="45.32667" lon="5.82039">
        <ele>1297.4</ele>
        <time>2014-08-24T15:39:16Z</time>
      </trkpt>
      <trkpt lat="45.32658" lon="5.82036">
        <ele>1298.3</ele>
        <time>2014-08-24T15:39:22Z</time>
      </trkpt>
      <trkpt lat="45.32648" lon="5.82032">
        <ele>1299.5</ele>
        <time>2014-08-24T15:39:29Z</time>
      </trkpt>
      <trkpt lat="45.32639" lon="5.82032">
        <ele>1299.5</ele>
        <time>2014-08-24T15:39:35Z</time>
      </trkpt>
      <trkpt lat="45.32629" lon="5.82029">
        <ele>1300.2</ele>
        <time>2014-08-24T15:39:42Z</time>
      </trkpt>
      <trkpt lat="45.32619" lon="5.82026">
        <ele>1300.8</ele>
        <time>2014-08-24T15:39:49Z</time>
      </trkpt>
      <trkpt lat="45.3261" lon="5.82026">
        <ele>1302.8</ele>
        <time>2014-08-24T15:39:57Z</time>
      </trkpt>
      <trkpt lat="45.326" lon="5.82022">
        <ele>1304.7</ele>
        <time>2014-08-24T15:40:04Z</time>
      </trkpt>
      <trkpt lat="45.32591" lon="5.82023">
        <ele>1305.6</ele>
        <time>2014-08-24T15:40:13Z</time>
      </trkpt>
      <trkpt lat="45.32581" lon="5.82026">
        <ele>1307</ele>
        <time>2014-08-24T15:40:23Z</time>
      </trkpt>
      <trkpt lat="45.32571" lon="5.82029">
        <ele>1307.9</ele>
        <time>2014-08-24T15:40:30Z</time>
      </trkpt>
      <trkpt lat="45.32563" lon="5.82035">
        <ele>1309.4</ele>
        <time>2014-08-24T15:40:37Z</time>
      </trkpt>
      <trkpt lat="45.32555" lon="5.82042">
        <ele>1310.4</ele>
        <time>2014-08-24T15:40:46Z</time>
      </trkpt>
      <trkpt lat="45.32548" lon="5.82051">
        <ele>1311.6</ele>
        <time>2014-08-24T15:40:53Z</time>
      </trkpt>
      <trkpt lat="45.3254" lon="5.8206">
        <ele>1312.6</ele>
        <time>2014-08-24T15:40:59Z</time>
      </trkpt>
      <trkpt lat="45.32534" lon="5.8207">
        <ele>1313.4</ele>
        <time>2014-08-24T15:41:06Z</time>
      </trkpt>
      <trkpt lat="45.32528" lon="5.8208">
        <ele>1314.7</ele>
        <time>2014-08-24T15:41:13Z</time>
      </trkpt>
      <trkpt lat="45.32521" lon="5.82087">
        <ele>1315.3</ele>
        <time>2014-08-24T15:41:19Z</time>
      </trkpt>
      <trkpt lat="45.32511" lon="5.82091">
        <ele>1315.9</ele>
        <time>2014-08-24T15:41:26Z</time>
      </trkpt>
      <trkpt lat="45.32501" lon="5.82092">
        <ele>1317.4</ele>
        <time>2014-08-24T15:41:34Z</time>
      </trkpt>
      <trkpt lat="45.32491" lon="5.82091">
        <ele>1318.6</ele>
        <time>2014-08-24T15:41:42Z</time>
      </trkpt>
      <trkpt lat="45.32482" lon="5.82095">
        <ele>1320.3</ele>
        <time>2014-08-24T15:41:48Z</time>
      </trkpt>
      <trkpt lat="45.32472" lon="5.82091">
        <ele>1321.7</ele>
        <time>2014-08-24T15:41:54Z</time>
      </trkpt>
      <trkpt lat="45.32463" lon="5.82088">
        <ele>1323.3</ele>
        <time>2014-08-24T15:42:03Z</time>
      </trkpt>
      <trkpt lat="45.32453" lon="5.8209">
        <ele>1323.9</ele>
        <time>2014-08-24T15:42:10Z</time>
      </trkpt>
      <trkpt lat="45.32443" lon="5.82088">
        <ele>1325.9</ele>
        <time>2014-08-24T15:42:16Z</time>
      </trkpt>
      <trkpt lat="45.32434" lon="5.82089">
        <ele>1324.8</ele>
        <time>2014-08-24T15:42:22Z</time>
      </trkpt>
      <trkpt lat="45.32424" lon="5.82085">
        <ele>1324.6</ele>
        <time>2014-08-24T15:42:29Z</time>
      </trkpt>
      <trkpt lat="45.32415" lon="5.82088">
        <ele>1326.6</ele>
        <time>2014-08-24T15:42:39Z</time>
      </trkpt>
      <trkpt lat="45.32407" lon="5.82097">
        <ele>1328.3</ele>
        <time>2014-08-24T15:42:47Z</time>
      </trkpt>
      <trkpt lat="45.32399" lon="5.82104">
        <ele>1329.6</ele>
        <time>2014-08-24T15:42:56Z</time>
      </trkpt>
      <trkpt lat="45.3239" lon="5.82109">
        <ele>1330.3</ele>
        <time>2014-08-24T15:43:03Z</time>
      </trkpt>
      <trkpt lat="45.32381" lon="5.82113">
        <ele>1331.2</ele>
        <time>2014-08-24T15:43:09Z</time>
      </trkpt>
      <trkpt lat="45.32372" lon="5.82115">
        <ele>1332.6</ele>
        <time>2014-08-24T15:43:16Z</time>
      </trkpt>
      <trkpt lat="45.32362" lon="5.82117">
        <ele>1334.1</ele>
        <time>2014-08-24T15:43:24Z</time>
      </trkpt>
      <trkpt lat="45.32354" lon="5.82123">
        <ele>1336.2</ele>
        <time>2014-08-24T15:43:34Z</time>
      </trkpt>
      <trkpt lat="45.32345" lon="5.82127">
        <ele>1337.5</ele>
        <time>2014-08-24T15:43:42Z</time>
      </trkpt>
      <trkpt lat="45.32335" lon="5.82131">
        <ele>1338.8</ele>
        <time>2014-08-24T15:43:49Z</time>
      </trkpt>
      <trkpt lat="45.32325" lon="5.82131">
        <ele>1339.4</ele>
        <time>2014-08-24T15:43:55Z</time>
      </trkpt>
      <trkpt lat="45.32315" lon="5.82133">
        <ele>1340</ele>
        <time>2014-08-24T15:44:02Z</time>
      </trkpt>
      <trkpt lat="45.32306" lon="5.82137">
        <ele>1340.3</ele>
        <time>2014-08-24T15:44:07Z</time>
      </trkpt>
      <trkpt lat="45.32295" lon="5.82139">
        <ele>1341</ele>
        <time>2014-08-24T15:44:13Z</time>
      </trkpt>
      <trkpt lat="45.32285" lon="5.82138">
        <ele>1342.8</ele>
        <time>2014-08-24T15:44:19Z</time>
      </trkpt>
      <trkpt lat="45.32275" lon="5.82138">
        <ele>1343.3</ele>
        <time>2014-08-24T15:44:24Z</time>
      </trkpt>
      <trkpt lat="45.32268" lon="5.82148">
        <ele>1343.4</ele>
        <time>2014-08-24T15:44:31Z</time>
      </trkpt>
      <trkpt lat="45.32261" lon="5.82158">
        <ele>1344.1</ele>
        <time>2014-08-24T15:44:39Z</time>
      </trkpt>
      <trkpt lat="45.32262" lon="5.82172">
        <ele>1344.6</ele>
        <time>2014-08-24T15:44:45Z</time>
      </trkpt>
      <trkpt lat="45.3226" lon="5.82185">
        <ele>1345.1</ele>
        <time>2014-08-24T15:44:51Z</time>
      </trkpt>
      <trkpt lat="45.32258" lon="5.82198">
        <ele>1345.4</ele>
        <time>2014-08-24T15:44:57Z</time>
      </trkpt>
      <trkpt lat="45.32252" lon="5.82209">
        <ele>1347.4</ele>
        <time>2014-08-24T15:46:16Z</time>
      </trkpt>
      <trkpt lat="45.32246" lon="5.82221">
        <ele>1348.1</ele>
        <time>2014-08-24T15:46:22Z</time>
      </trkpt>
      <trkpt lat="45.3224" lon="5.8223">
        <ele>1348.8</ele>
        <time>2014-08-24T15:46:30Z</time>
      </trkpt>
      <trkpt lat="45.32233" lon="5.8224">
        <ele>1349.7</ele>
        <time>2014-08-24T15:46:37Z</time>
      </trkpt>
      <trkpt lat="45.32226" lon="5.8225">
        <ele>1350.5</ele>
        <time>2014-08-24T15:46:44Z</time>
      </trkpt>
      <trkpt lat="45.32221" lon="5.82261">
        <ele>1351.5</ele>
        <time>2014-08-24T15:46:50Z</time>
      </trkpt>
      <trkpt lat="45.32215" lon="5.82272">
        <ele>1352.5</ele>
        <time>2014-08-24T15:46:57Z</time>
      </trkpt>
      <trkpt lat="45.32217" lon="5.82285">
        <ele>1353.5</ele>
        <time>2014-08-24T15:47:04Z</time>
      </trkpt>
      <trkpt lat="45.32225" lon="5.82293">
        <ele>1354.8</ele>
        <time>2014-08-24T15:47:11Z</time>
      </trkpt>
      <trkpt lat="45.32233" lon="5.82285">
        <ele>1355.7</ele>
        <time>2014-08-24T15:47:17Z</time>
      </trkpt>
      <trkpt lat="45.32237" lon="5.82273">
        <ele>1356.4</ele>
        <time>2014-08-24T15:47:23Z</time>
      </trkpt>
      <trkpt lat="45.32247" lon="5.82268">
        <ele>1356.8</ele>
        <time>2014-08-24T15:47:29Z</time>
      </trkpt>
      <trkpt lat="45.32257" lon="5.82265">
        <ele>1357.5</ele>
        <time>2014-08-24T15:47:35Z</time>
      </trkpt>
      <trkpt lat="45.32267" lon="5.82265">
        <ele>1358.5</ele>
        <time>2014-08-24T15:47:42Z</time>
      </trkpt>
      <trkpt lat="45.32276" lon="5.82267">
        <ele>1360.3</ele>
        <time>2014-08-24T15:47:51Z</time>
      </trkpt>
      <trkpt lat="45.32284" lon="5.82272">
        <ele>1361.6</ele>
        <time>2014-08-24T15:48:00Z</time>
      </trkpt>
      <trkpt lat="45.32292" lon="5.82279">
        <ele>1362.6</ele>
        <time>2014-08-24T15:48:07Z</time>
      </trkpt>
      <trkpt lat="45.32301" lon="5.82287">
        <ele>1363.9</ele>
        <time>2014-08-24T15:48:13Z</time>
      </trkpt>
      <trkpt lat="45.32309" lon="5.82294">
        <ele>1365</ele>
        <time>2014-08-24T15:48:20Z</time>
      </trkpt>
      <trkpt lat="45.32318" lon="5.82302">
        <ele>1366.2</ele>
        <time>2014-08-24T15:48:26Z</time>
      </trkpt>
      <trkpt lat="45.32325" lon="5.8231">
        <ele>1366.7</ele>
        <time>2014-08-24T15:48:32Z</time>
      </trkpt>
      <trkpt lat="45.32333" lon="5.82317">
        <ele>1367.5</ele>
        <time>2014-08-24T15:48:39Z</time>
      </trkpt>
      <trkpt lat="45.32341" lon="5.82324">
        <ele>1368.1</ele>
        <time>2014-08-24T15:48:46Z</time>
      </trkpt>
      <trkpt lat="45.3235" lon="5.8233">
        <ele>1368.4</ele>
        <time>2014-08-24T15:48:53Z</time>
      </trkpt>
      <trkpt lat="45.32359" lon="5.82333">
        <ele>1369.2</ele>
        <time>2014-08-24T15:49:00Z</time>
      </trkpt>
      <trkpt lat="45.32369" lon="5.82336">
        <ele>1370.5</ele>
        <time>2014-08-24T15:49:06Z</time>
      </trkpt>
      <trkpt lat="45.3238" lon="5.82339">
        <ele>1371.3</ele>
        <time>2014-08-24T15:49:12Z</time>
      </trkpt>
      <trkpt lat="45.32389" lon="5.82342">
        <ele>1372.5</ele>
        <time>2014-08-24T15:49:19Z</time>
      </trkpt>
      <trkpt lat="45.32399" lon="5.82345">
        <ele>1373.4</ele>
        <time>2014-08-24T15:49:26Z</time>
      </trkpt>
      <trkpt lat="45.32409" lon="5.82347">
        <ele>1374.1</ele>
        <time>2014-08-24T15:49:33Z</time>
      </trkpt>
      <trkpt lat="45.32418" lon="5.82347">
        <ele>1375.6</ele>
        <time>2014-08-24T15:49:40Z</time>
      </trkpt>
      <trkpt lat="45.32428" lon="5.82347">
        <ele>1377.2</ele>
        <time>2014-08-24T15:49:47Z</time>
      </trkpt>
      <trkpt lat="45.32438" lon="5.82346">
        <ele>1379.8</ele>
        <time>2014-08-24T15:49:58Z</time>
      </trkpt>
      <trkpt lat="45.32446" lon="5.8235">
        <ele>1379.9</ele>
        <time>2014-08-24T15:50:04Z</time>
      </trkpt>
      <trkpt lat="45.32456" lon="5.82353">
        <ele>1380.1</ele>
        <time>2014-08-24T15:50:11Z</time>
      </trkpt>
      <trkpt lat="45.32465" lon="5.82355">
        <ele>1381.2</ele>
        <time>2014-08-24T15:50:17Z</time>
      </trkpt>
      <trkpt lat="45.32475" lon="5.82357">
        <ele>1381.9</ele>
        <time>2014-08-24T15:50:23Z</time>
      </trkpt>
      <trkpt lat="45.32485" lon="5.8236">
        <ele>1383.4</ele>
        <time>2014-08-24T15:50:30Z</time>
      </trkpt>
      <trkpt lat="45.3249" lon="5.82371">
        <ele>1384.2</ele>
        <time>2014-08-24T15:50:35Z</time>
      </trkpt>
      <trkpt lat="45.32485" lon="5.82383">
        <ele>1385.4</ele>
        <time>2014-08-24T15:50:42Z</time>
      </trkpt>
      <trkpt lat="45.32476" lon="5.82385">
        <ele>1386</ele>
        <time>2014-08-24T15:50:49Z</time>
      </trkpt>
      <trkpt lat="45.32467" lon="5.82388">
        <ele>1387.1</ele>
        <time>2014-08-24T15:50:56Z</time>
      </trkpt>
      <trkpt lat="45.32457" lon="5.82392">
        <ele>1388</ele>
        <time>2014-08-24T15:51:02Z</time>
      </trkpt>
      <trkpt lat="45.32448" lon="5.82396">
        <ele>1388.4</ele>
        <time>2014-08-24T15:51:08Z</time>
      </trkpt>
      <trkpt lat="45.32439" lon="5.824">
        <ele>1389.3</ele>
        <time>2014-08-24T15:51:14Z</time>
      </trkpt>
      <trkpt lat="45.3243" lon="5.82408">
        <ele>1389.9</ele>
        <time>2014-08-24T15:51:20Z</time>
      </trkpt>
      <trkpt lat="45.32422" lon="5.82414">
        <ele>1390.2</ele>
        <time>2014-08-24T15:51:25Z</time>
      </trkpt>
      <trkpt lat="45.32412" lon="5.82411">
        <ele>1390.2</ele>
        <time>2014-08-24T15:51:32Z</time>
      </trkpt>
      <trkpt lat="45.32402" lon="5.82409">
        <ele>1390.5</ele>
        <time>2014-08-24T15:51:39Z</time>
      </trkpt>
      <trkpt lat="45.32392" lon="5.82408">
        <ele>1391</ele>
        <time>2014-08-24T15:51:45Z</time>
      </trkpt>
      <trkpt lat="45.32382" lon="5.82409">
        <ele>1391.5</ele>
        <time>2014-08-24T15:51:51Z</time>
      </trkpt>
      <trkpt lat="45.32372" lon="5.82408">
        <ele>1392.5</ele>
        <time>2014-08-24T15:51:57Z</time>
      </trkpt>
      <trkpt lat="45.32363" lon="5.82411">
        <ele>1393.5</ele>
        <time>2014-08-24T15:52:03Z</time>
      </trkpt>
      <trkpt lat="45.32353" lon="5.82412">
        <ele>1394.6</ele>
        <time>2014-08-24T15:52:09Z</time>
      </trkpt>
      <trkpt lat="45.32345" lon="5.82417">
        <ele>1395.2</ele>
        <time>2014-08-24T15:52:14Z</time>
      </trkpt>
      <trkpt lat="45.32335" lon="5.82422">
        <ele>1395.9</ele>
        <time>2014-08-24T15:52:20Z</time>
      </trkpt>
      <trkpt lat="45.32326" lon="5.82424">
        <ele>1396.4</ele>
        <time>2014-08-24T15:52:25Z</time>
      </trkpt>
      <trkpt lat="45.32316" lon="5.82425">
        <ele>1397.2</ele>
        <time>2014-08-24T15:52:30Z</time>
      </trkpt>
      <trkpt lat="45.32306" lon="5.82426">
        <ele>1398.2</ele>
        <time>2014-08-24T15:52:36Z</time>
      </trkpt>
      <trkpt lat="45.32296" lon="5.8243">
        <ele>1399.1</ele>
        <time>2014-08-24T15:52:43Z</time>
      </trkpt>
      <trkpt lat="45.32286" lon="5.82429">
        <ele>1399.2</ele>
        <time>2014-08-24T15:52:49Z</time>
      </trkpt>
      <trkpt lat="45.32277" lon="5.82427">
        <ele>1400.6</ele>
        <time>2014-08-24T15:52:55Z</time>
      </trkpt>
      <trkpt lat="45.32267" lon="5.82425">
        <ele>1401.5</ele>
        <time>2014-08-24T15:53:01Z</time>
      </trkpt>
      <trkpt lat="45.32258" lon="5.82421">
        <ele>1402.4</ele>
        <time>2014-08-24T15:53:07Z</time>
      </trkpt>
      <trkpt lat="45.32248" lon="5.82421">
        <ele>1403</ele>
        <time>2014-08-24T15:53:13Z</time>
      </trkpt>
      <trkpt lat="45.32239" lon="5.82423">
        <ele>1403.5</ele>
        <time>2014-08-24T15:53:19Z</time>
      </trkpt>
      <trkpt lat="45.3223" lon="5.82425">
        <ele>1405</ele>
        <time>2014-08-24T15:53:26Z</time>
      </trkpt>
      <trkpt lat="45.3222" lon="5.82428">
        <ele>1405.9</ele>
        <time>2014-08-24T15:53:32Z</time>
      </trkpt>
      <trkpt lat="45.32211" lon="5.8243">
        <ele>1406.6</ele>
        <time>2014-08-24T15:53:37Z</time>
      </trkpt>
      <trkpt lat="45.32201" lon="5.8243">
        <ele>1407.6</ele>
        <time>2014-08-24T15:53:43Z</time>
      </trkpt>
      <trkpt lat="45.32192" lon="5.82432">
        <ele>1408.2</ele>
        <time>2014-08-24T15:53:49Z</time>
      </trkpt>
      <trkpt lat="45.32182" lon="5.82436">
        <ele>1409.9</ele>
        <time>2014-08-24T15:53:56Z</time>
      </trkpt>
      <trkpt lat="45.32173" lon="5.82439">
        <ele>1410.2</ele>
        <time>2014-08-24T15:54:01Z</time>
      </trkpt>
      <trkpt lat="45.32163" lon="5.82441">
        <ele>1411.1</ele>
        <time>2014-08-24T15:54:07Z</time>
      </trkpt>
      <trkpt lat="45.32153" lon="5.82441">
        <ele>1412.1</ele>
        <time>2014-08-24T15:54:13Z</time>
      </trkpt>
      <trkpt lat="45.32143" lon="5.82442">
        <ele>1412.4</ele>
        <time>2014-08-24T15:54:19Z</time>
      </trkpt>
      <trkpt lat="45.32134" lon="5.82441">
        <ele>1413</ele>
        <time>2014-08-24T15:54:24Z</time>
      </trkpt>
      <trkpt lat="45.32125" lon="5.82435">
        <ele>1413.5</ele>
        <time>2014-08-24T15:54:29Z</time>
      </trkpt>
      <trkpt lat="45.32117" lon="5.82428">
        <ele>1414.2</ele>
        <time>2014-08-24T15:54:35Z</time>
      </trkpt>
      <trkpt lat="45.3211" lon="5.8242">
        <ele>1414.8</ele>
        <time>2014-08-24T15:54:40Z</time>
      </trkpt>
      <trkpt lat="45.32102" lon="5.8241">
        <ele>1415.5</ele>
        <time>2014-08-24T15:54:46Z</time>
      </trkpt>
      <trkpt lat="45.32093" lon="5.824">
        <ele>1416</ele>
        <time>2014-08-24T15:54:51Z</time>
      </trkpt>
      <trkpt lat="45.32083" lon="5.82395">
        <ele>1416.5</ele>
        <time>2014-08-24T15:54:57Z</time>
      </trkpt>
      <trkpt lat="45.32075" lon="5.82391">
        <ele>1417.2</ele>
        <time>2014-08-24T15:55:02Z</time>
      </trkpt>
      <trkpt lat="45.32065" lon="5.82395">
        <ele>1418</ele>
        <time>2014-08-24T15:55:10Z</time>
      </trkpt>
      <trkpt lat="45.32056" lon="5.824">
        <ele>1419.2</ele>
        <time>2014-08-24T15:55:16Z</time>
      </trkpt>
      <trkpt lat="45.32045" lon="5.82401">
        <ele>1419.6</ele>
        <time>2014-08-24T15:55:22Z</time>
      </trkpt>
      <trkpt lat="45.32036" lon="5.82402">
        <ele>1420.3</ele>
        <time>2014-08-24T15:55:28Z</time>
      </trkpt>
      <trkpt lat="45.32026" lon="5.82404">
        <ele>1421.5</ele>
        <time>2014-08-24T15:55:34Z</time>
      </trkpt>
      <trkpt lat="45.32016" lon="5.82404">
        <ele>1422.3</ele>
        <time>2014-08-24T15:55:40Z</time>
      </trkpt>
      <trkpt lat="45.32006" lon="5.82408">
        <ele>1423.3</ele>
        <time>2014-08-24T15:55:46Z</time>
      </trkpt>
      <trkpt lat="45.31997" lon="5.82406">
        <ele>1424.5</ele>
        <time>2014-08-24T15:55:51Z</time>
      </trkpt>
      <trkpt lat="45.31987" lon="5.82406">
        <ele>1425.4</ele>
        <time>2014-08-24T15:55:56Z</time>
      </trkpt>
      <trkpt lat="45.31978" lon="5.82404">
        <ele>1426.4</ele>
        <time>2014-08-24T15:56:02Z</time>
      </trkpt>
      <trkpt lat="45.31968" lon="5.82404">
        <ele>1427.3</ele>
        <time>2014-08-24T15:56:08Z</time>
      </trkpt>
      <trkpt lat="45.31958" lon="5.82403">
        <ele>1428.1</ele>
        <time>2014-08-24T15:56:14Z</time>
      </trkpt>
      <trkpt lat="45.31948" lon="5.82402">
        <ele>1428.5</ele>
        <time>2014-08-24T15:56:20Z</time>
      </trkpt>
      <trkpt lat="45.31939" lon="5.824">
        <ele>1429.5</ele>
        <time>2014-08-24T15:56:26Z</time>
      </trkpt>
      <trkpt lat="45.3193" lon="5.824">
        <ele>1429.8</ele>
        <time>2014-08-24T15:56:31Z</time>
      </trkpt>
      <trkpt lat="45.31919" lon="5.824">
        <ele>1430.5</ele>
        <time>2014-08-24T15:56:37Z</time>
      </trkpt>
      <trkpt lat="45.3191" lon="5.82399">
        <ele>1431.5</ele>
        <time>2014-08-24T15:56:43Z</time>
      </trkpt>
      <trkpt lat="45.31899" lon="5.824">
        <ele>1431.3</ele>
        <time>2014-08-24T15:56:50Z</time>
      </trkpt>
      <trkpt lat="45.3189" lon="5.82402">
        <ele>1431.4</ele>
        <time>2014-08-24T15:56:54Z</time>
      </trkpt>
      <trkpt lat="45.31881" lon="5.82413">
        <ele>1430.3</ele>
        <time>2014-08-24T15:56:57Z</time>
      </trkpt>
      <trkpt lat="45.31874" lon="5.82425">
        <ele>1429.9</ele>
        <time>2014-08-24T15:56:59Z</time>
      </trkpt>
      <trkpt lat="45.31867" lon="5.82439">
        <ele>1429.7</ele>
        <time>2014-08-24T15:57:01Z</time>
      </trkpt>
      <trkpt lat="45.31857" lon="5.82446">
        <ele>1429.1</ele>
        <time>2014-08-24T15:57:03Z</time>
      </trkpt>
      <trkpt lat="45.31848" lon="5.82448">
        <ele>1429.1</ele>
        <time>2014-08-24T15:57:05Z</time>
      </trkpt>
      <trkpt lat="45.31838" lon="5.8245">
        <ele>1429</ele>
        <time>2014-08-24T15:57:09Z</time>
      </trkpt>
      <trkpt lat="45.31828" lon="5.82451">
        <ele>1429.2</ele>
        <time>2014-08-24T15:57:16Z</time>
      </trkpt>
      <trkpt lat="45.31819" lon="5.82449">
        <ele>1429.3</ele>
        <time>2014-08-24T15:57:20Z</time>
      </trkpt>
      <trkpt lat="45.3181" lon="5.82445">
        <ele>1429.5</ele>
        <time>2014-08-24T15:57:23Z</time>
      </trkpt>
      <trkpt lat="45.318" lon="5.8244">
        <ele>1430</ele>
        <time>2014-08-24T15:57:27Z</time>
      </trkpt>
      <trkpt lat="45.3179" lon="5.82437">
        <ele>1430.8</ele>
        <time>2014-08-24T15:57:31Z</time>
      </trkpt>
      <trkpt lat="45.31779" lon="5.82434">
        <ele>1431</ele>
        <time>2014-08-24T15:57:35Z</time>
      </trkpt>
      <trkpt lat="45.31769" lon="5.8243">
        <ele>1431.5</ele>
        <time>2014-08-24T15:57:39Z</time>
      </trkpt>
      <trkpt lat="45.31759" lon="5.82425">
        <ele>1432.1</ele>
        <time>2014-08-24T15:57:43Z</time>
      </trkpt>
      <trkpt lat="45.31748" lon="5.82421">
        <ele>1432.7</ele>
        <time>2014-08-24T15:57:47Z</time>
      </trkpt>
      <trkpt lat="45.31738" lon="5.8242">
        <ele>1432.8</ele>
        <time>2014-08-24T15:57:51Z</time>
      </trkpt>
      <trkpt lat="45.31726" lon="5.82423">
        <ele>1432.7</ele>
        <time>2014-08-24T15:57:55Z</time>
      </trkpt>
      <trkpt lat="45.31716" lon="5.82422">
        <ele>1432.9</ele>
        <time>2014-08-24T15:57:58Z</time>
      </trkpt>
      <trkpt lat="45.31706" lon="5.82423">
        <ele>1432.6</ele>
        <time>2014-08-24T15:58:01Z</time>
      </trkpt>
      <trkpt lat="45.31696" lon="5.82429">
        <ele>1432.2</ele>
        <time>2014-08-24T15:58:04Z</time>
      </trkpt>
      <trkpt lat="45.31687" lon="5.82436">
        <ele>1432.3</ele>
        <time>2014-08-24T15:58:08Z</time>
      </trkpt>
      <trkpt lat="45.31678" lon="5.82441">
        <ele>1432</ele>
        <time>2014-08-24T15:58:12Z</time>
      </trkpt>
      <trkpt lat="45.31666" lon="5.82448">
        <ele>1432</ele>
        <time>2014-08-24T15:58:16Z</time>
      </trkpt>
      <trkpt lat="45.31655" lon="5.82452">
        <ele>1432.1</ele>
        <time>2014-08-24T15:58:19Z</time>
      </trkpt>
      <trkpt lat="45.31645" lon="5.82455">
        <ele>1432.3</ele>
        <time>2014-08-24T15:58:22Z</time>
      </trkpt>
      <trkpt lat="45.31635" lon="5.82464">
        <ele>1432</ele>
        <time>2014-08-24T15:58:26Z</time>
      </trkpt>
      <trkpt lat="45.31626" lon="5.82473">
        <ele>1431.1</ele>
        <time>2014-08-24T15:58:29Z</time>
      </trkpt>
      <trkpt lat="45.31614" lon="5.82476">
        <ele>1431.1</ele>
        <time>2014-08-24T15:58:32Z</time>
      </trkpt>
      <trkpt lat="45.31604" lon="5.82474">
        <ele>1431.4</ele>
        <time>2014-08-24T15:58:35Z</time>
      </trkpt>
      <trkpt lat="45.31593" lon="5.82473">
        <ele>1431</ele>
        <time>2014-08-24T15:58:38Z</time>
      </trkpt>
      <trkpt lat="45.31582" lon="5.8247">
        <ele>1430.9</ele>
        <time>2014-08-24T15:58:41Z</time>
      </trkpt>
      <trkpt lat="45.3157" lon="5.8247">
        <ele>1430.9</ele>
        <time>2014-08-24T15:58:44Z</time>
      </trkpt>
      <trkpt lat="45.31559" lon="5.82464">
        <ele>1430</ele>
        <time>2014-08-24T15:58:47Z</time>
      </trkpt>
      <trkpt lat="45.31552" lon="5.82449">
        <ele>1429.7</ele>
        <time>2014-08-24T15:58:50Z</time>
      </trkpt>
      <trkpt lat="45.31548" lon="5.82434">
        <ele>1429.4</ele>
        <time>2014-08-24T15:58:53Z</time>
      </trkpt>
      <trkpt lat="45.31542" lon="5.82423">
        <ele>1429.3</ele>
        <time>2014-08-24T15:58:56Z</time>
      </trkpt>
      <trkpt lat="45.31534" lon="5.82414">
        <ele>1429.6</ele>
        <time>2014-08-24T15:58:59Z</time>
      </trkpt>
      <trkpt lat="45.31525" lon="5.82409">
        <ele>1429.5</ele>
        <time>2014-08-24T15:59:01Z</time>
      </trkpt>
      <trkpt lat="45.31516" lon="5.82402">
        <ele>1429.2</ele>
        <time>2014-08-24T15:59:03Z</time>
      </trkpt>
      <trkpt lat="45.31507" lon="5.82397">
        <ele>1429.5</ele>
        <time>2014-08-24T15:59:05Z</time>
      </trkpt>
      <trkpt lat="45.31497" lon="5.82392">
        <ele>1428.8</ele>
        <time>2014-08-24T15:59:08Z</time>
      </trkpt>
      <trkpt lat="45.31487" lon="5.8239">
        <ele>1429.7</ele>
        <time>2014-08-24T15:59:11Z</time>
      </trkpt>
      <trkpt lat="45.31478" lon="5.82389">
        <ele>1430.1</ele>
        <time>2014-08-24T15:59:14Z</time>
      </trkpt>
      <trkpt lat="45.31466" lon="5.82386">
        <ele>1430.5</ele>
        <time>2014-08-24T15:59:18Z</time>
      </trkpt>
      <trkpt lat="45.31457" lon="5.82386">
        <ele>1430.5</ele>
        <time>2014-08-24T15:59:21Z</time>
      </trkpt>
      <trkpt lat="45.31446" lon="5.82387">
        <ele>1430.8</ele>
        <time>2014-08-24T15:59:25Z</time>
      </trkpt>
      <trkpt lat="45.31436" lon="5.82387">
        <ele>1431</ele>
        <time>2014-08-24T15:59:31Z</time>
      </trkpt>
      <trkpt lat="45.31426" lon="5.82386">
        <ele>1431.7</ele>
        <time>2014-08-24T15:59:39Z</time>
      </trkpt>
      <trkpt lat="45.31417" lon="5.82386">
        <ele>1432.7</ele>
        <time>2014-08-24T15:59:45Z</time>
      </trkpt>
      <trkpt lat="45.31407" lon="5.82386">
        <ele>1433.8</ele>
        <time>2014-08-24T15:59:52Z</time>
      </trkpt>
      <trkpt lat="45.31397" lon="5.82388">
        <ele>1434.9</ele>
        <time>2014-08-24T15:59:59Z</time>
      </trkpt>
      <trkpt lat="45.31387" lon="5.82389">
        <ele>1435.5</ele>
        <time>2014-08-24T16:00:05Z</time>
      </trkpt>
      <trkpt lat="45.31376" lon="5.82392">
        <ele>1436</ele>
        <time>2014-08-24T16:00:10Z</time>
      </trkpt>
      <trkpt lat="45.31366" lon="5.82392">
        <ele>1437.1</ele>
        <time>2014-08-24T16:00:16Z</time>
      </trkpt>
      <trkpt lat="45.31355" lon="5.82391">
        <ele>1437.2</ele>
        <time>2014-08-24T16:00:20Z</time>
      </trkpt>
      <trkpt lat="45.31346" lon="5.82391">
        <ele>1438.1</ele>
        <time>2014-08-24T16:00:26Z</time>
      </trkpt>
      <trkpt lat="45.31336" lon="5.82392">
        <ele>1438.9</ele>
        <time>2014-08-24T16:00:32Z</time>
      </trkpt>
      <trkpt lat="45.31326" lon="5.82397">
        <ele>1439.1</ele>
        <time>2014-08-24T16:00:37Z</time>
      </trkpt>
      <trkpt lat="45.31317" lon="5.82396">
        <ele>1440.2</ele>
        <time>2014-08-24T16:00:45Z</time>
      </trkpt>
      <trkpt lat="45.31305" lon="5.82399">
        <ele>1440.9</ele>
        <time>2014-08-24T16:00:51Z</time>
      </trkpt>
      <trkpt lat="45.31295" lon="5.82399">
        <ele>1441.1</ele>
        <time>2014-08-24T16:00:56Z</time>
      </trkpt>
      <trkpt lat="45.31286" lon="5.82401">
        <ele>1442</ele>
        <time>2014-08-24T16:01:04Z</time>
      </trkpt>
      <trkpt lat="45.31277" lon="5.82406">
        <ele>1442.7</ele>
        <time>2014-08-24T16:01:11Z</time>
      </trkpt>
      <trkpt lat="45.31268" lon="5.82405">
        <ele>1442.8</ele>
        <time>2014-08-24T16:01:17Z</time>
      </trkpt>
      <trkpt lat="45.31258" lon="5.824">
        <ele>1443.1</ele>
        <time>2014-08-24T16:01:23Z</time>
      </trkpt>
      <trkpt lat="45.3125" lon="5.82393">
        <ele>1443.9</ele>
        <time>2014-08-24T16:01:29Z</time>
      </trkpt>
      <trkpt lat="45.3124" lon="5.82387">
        <ele>1444.5</ele>
        <time>2014-08-24T16:01:35Z</time>
      </trkpt>
      <trkpt lat="45.31231" lon="5.82383">
        <ele>1444.8</ele>
        <time>2014-08-24T16:01:41Z</time>
      </trkpt>
      <trkpt lat="45.31222" lon="5.82377">
        <ele>1445.7</ele>
        <time>2014-08-24T16:01:47Z</time>
      </trkpt>
      <trkpt lat="45.31212" lon="5.82374">
        <ele>1446.3</ele>
        <time>2014-08-24T16:01:52Z</time>
      </trkpt>
      <trkpt lat="45.31202" lon="5.82374">
        <ele>1447.1</ele>
        <time>2014-08-24T16:01:57Z</time>
      </trkpt>
      <trkpt lat="45.31192" lon="5.82377">
        <ele>1448.2</ele>
        <time>2014-08-24T16:02:04Z</time>
      </trkpt>
      <trkpt lat="45.31183" lon="5.8238">
        <ele>1448.9</ele>
        <time>2014-08-24T16:02:10Z</time>
      </trkpt>
      <trkpt lat="45.31173" lon="5.82384">
        <ele>1449.5</ele>
        <time>2014-08-24T16:02:18Z</time>
      </trkpt>
      <trkpt lat="45.31165" lon="5.82389">
        <ele>1450.5</ele>
        <time>2014-08-24T16:02:24Z</time>
      </trkpt>
      <trkpt lat="45.31159" lon="5.82398">
        <ele>1452</ele>
        <time>2014-08-24T16:02:33Z</time>
      </trkpt>
      <trkpt lat="45.31152" lon="5.82408">
        <ele>1452.9</ele>
        <time>2014-08-24T16:02:40Z</time>
      </trkpt>
      <trkpt lat="45.31146" lon="5.82418">
        <ele>1453.8</ele>
        <time>2014-08-24T16:02:47Z</time>
      </trkpt>
      <trkpt lat="45.31139" lon="5.82428">
        <ele>1454.8</ele>
        <time>2014-08-24T16:02:54Z</time>
      </trkpt>
      <trkpt lat="45.31131" lon="5.82436">
        <ele>1455.5</ele>
        <time>2014-08-24T16:03:01Z</time>
      </trkpt>
      <trkpt lat="45.31122" lon="5.82441">
        <ele>1455.8</ele>
        <time>2014-08-24T16:03:06Z</time>
      </trkpt>
      <trkpt lat="45.31113" lon="5.82445">
        <ele>1456</ele>
        <time>2014-08-24T16:03:11Z</time>
      </trkpt>
      <trkpt lat="45.31104" lon="5.82445">
        <ele>1456.4</ele>
        <time>2014-08-24T16:03:16Z</time>
      </trkpt>
      <trkpt lat="45.31094" lon="5.8244">
        <ele>1456.5</ele>
        <time>2014-08-24T16:03:21Z</time>
      </trkpt>
      <trkpt lat="45.31085" lon="5.82437">
        <ele>1456.6</ele>
        <time>2014-08-24T16:03:25Z</time>
      </trkpt>
      <trkpt lat="45.31074" lon="5.82432">
        <ele>1456.6</ele>
        <time>2014-08-24T16:03:29Z</time>
      </trkpt>
      <trkpt lat="45.31064" lon="5.82427">
        <ele>1456.4</ele>
        <time>2014-08-24T16:03:34Z</time>
      </trkpt>
      <trkpt lat="45.31056" lon="5.8242">
        <ele>1456.2</ele>
        <time>2014-08-24T16:03:38Z</time>
      </trkpt>
      <trkpt lat="45.31047" lon="5.82413">
        <ele>1456.7</ele>
        <time>2014-08-24T16:03:43Z</time>
      </trkpt>
      <trkpt lat="45.31036" lon="5.8241">
        <ele>1457</ele>
        <time>2014-08-24T16:03:48Z</time>
      </trkpt>
      <trkpt lat="45.31026" lon="5.82409">
        <ele>1457.1</ele>
        <time>2014-08-24T16:03:53Z</time>
      </trkpt>
      <trkpt lat="45.31017" lon="5.82409">
        <ele>1458</ele>
        <time>2014-08-24T16:03:58Z</time>
      </trkpt>
      <trkpt lat="45.31006" lon="5.82406">
        <ele>1458.7</ele>
        <time>2014-08-24T16:04:04Z</time>
      </trkpt>
      <trkpt lat="45.30998" lon="5.8241">
        <ele>1459.5</ele>
        <time>2014-08-24T16:04:10Z</time>
      </trkpt>
      <trkpt lat="45.30989" lon="5.82417">
        <ele>1460.5</ele>
        <time>2014-08-24T16:04:17Z</time>
      </trkpt>
      <trkpt lat="45.30982" lon="5.82429">
        <ele>1461.4</ele>
        <time>2014-08-24T16:04:23Z</time>
      </trkpt>
      <trkpt lat="45.30977" lon="5.82441">
        <ele>1461.8</ele>
        <time>2014-08-24T16:04:28Z</time>
      </trkpt>
      <trkpt lat="45.30967" lon="5.8245">
        <ele>1461.8</ele>
        <time>2014-08-24T16:04:32Z</time>
      </trkpt>
      <trkpt lat="45.30957" lon="5.82449">
        <ele>1461.4</ele>
        <time>2014-08-24T16:04:35Z</time>
      </trkpt>
      <trkpt lat="45.30948" lon="5.82444">
        <ele>1461.4</ele>
        <time>2014-08-24T16:04:39Z</time>
      </trkpt>
      <trkpt lat="45.3094" lon="5.82435">
        <ele>1461.3</ele>
        <time>2014-08-24T16:04:43Z</time>
      </trkpt>
      <trkpt lat="45.30931" lon="5.82429">
        <ele>1461.2</ele>
        <time>2014-08-24T16:04:47Z</time>
      </trkpt>
      <trkpt lat="45.30921" lon="5.82428">
        <ele>1461.4</ele>
        <time>2014-08-24T16:04:52Z</time>
      </trkpt>
      <trkpt lat="45.30927" lon="5.82416">
        <ele>1459.3</ele>
        <time>2014-08-24T16:09:33Z</time>
      </trkpt>
      <trkpt lat="45.30931" lon="5.82404">
        <ele>1457</ele>
        <time>2014-08-24T16:09:37Z</time>
      </trkpt>
      <trkpt lat="45.3093" lon="5.82391">
        <ele>1454.9</ele>
        <time>2014-08-24T16:09:42Z</time>
      </trkpt>
      <trkpt lat="45.30924" lon="5.82376">
        <ele>1452</ele>
        <time>2014-08-24T16:10:01Z</time>
      </trkpt>
      <trkpt lat="45.3092" lon="5.82363">
        <ele>1451</ele>
        <time>2014-08-24T16:10:16Z</time>
      </trkpt>
      <trkpt lat="45.30915" lon="5.82352">
        <ele>1449.7</ele>
        <time>2014-08-24T16:10:21Z</time>
      </trkpt>
      <trkpt lat="45.30907" lon="5.82341">
        <ele>1448.5</ele>
        <time>2014-08-24T16:10:24Z</time>
      </trkpt>
      <trkpt lat="45.30899" lon="5.82328">
        <ele>1446.7</ele>
        <time>2014-08-24T16:10:27Z</time>
      </trkpt>
      <trkpt lat="45.30892" lon="5.82317">
        <ele>1444.1</ele>
        <time>2014-08-24T16:10:30Z</time>
      </trkpt>
      <trkpt lat="45.30885" lon="5.82307">
        <ele>1441.8</ele>
        <time>2014-08-24T16:10:33Z</time>
      </trkpt>
      <trkpt lat="45.30879" lon="5.82298">
        <ele>1440.2</ele>
        <time>2014-08-24T16:10:36Z</time>
      </trkpt>
      <trkpt lat="45.30869" lon="5.82287">
        <ele>1435.8</ele>
        <time>2014-08-24T16:10:40Z</time>
      </trkpt>
      <trkpt lat="45.30862" lon="5.82277">
        <ele>1433.3</ele>
        <time>2014-08-24T16:10:43Z</time>
      </trkpt>
      <trkpt lat="45.30855" lon="5.82264">
        <ele>1428.9</ele>
        <time>2014-08-24T16:10:47Z</time>
      </trkpt>
      <trkpt lat="45.30849" lon="5.82251">
        <ele>1426.4</ele>
        <time>2014-08-24T16:10:51Z</time>
      </trkpt>
      <trkpt lat="45.30843" lon="5.82241">
        <ele>1423</ele>
        <time>2014-08-24T16:10:54Z</time>
      </trkpt>
      <trkpt lat="45.30838" lon="5.82229">
        <ele>1421</ele>
        <time>2014-08-24T16:10:57Z</time>
      </trkpt>
      <trkpt lat="45.30834" lon="5.82217">
        <ele>1418.3</ele>
        <time>2014-08-24T16:11:00Z</time>
      </trkpt>
      <trkpt lat="45.30827" lon="5.82206">
        <ele>1416.2</ele>
        <time>2014-08-24T16:11:04Z</time>
      </trkpt>
      <trkpt lat="45.30824" lon="5.82193">
        <ele>1415</ele>
        <time>2014-08-24T16:11:11Z</time>
      </trkpt>
      <trkpt lat="45.30821" lon="5.82181">
        <ele>1413.4</ele>
        <time>2014-08-24T16:11:21Z</time>
      </trkpt>
      <trkpt lat="45.30813" lon="5.82169">
        <ele>1413.3</ele>
        <time>2014-08-24T16:11:26Z</time>
      </trkpt>
      <trkpt lat="45.30805" lon="5.8216">
        <ele>1411.9</ele>
        <time>2014-08-24T16:11:37Z</time>
      </trkpt>
      <trkpt lat="45.308" lon="5.82148">
        <ele>1410.2</ele>
        <time>2014-08-24T16:11:43Z</time>
      </trkpt>
      <trkpt lat="45.30798" lon="5.82134">
        <ele>1409.5</ele>
        <time>2014-08-24T16:11:49Z</time>
      </trkpt>
      <trkpt lat="45.30793" lon="5.82122">
        <ele>1409</ele>
        <time>2014-08-24T16:11:57Z</time>
      </trkpt>
      <trkpt lat="45.30791" lon="5.82109">
        <ele>1407</ele>
        <time>2014-08-24T16:12:04Z</time>
      </trkpt>
      <trkpt lat="45.30794" lon="5.82096">
        <ele>1404.8</ele>
        <time>2014-08-24T16:12:17Z</time>
      </trkpt>
      <trkpt lat="45.30802" lon="5.82088">
        <ele>1403.3</ele>
        <time>2014-08-24T16:12:25Z</time>
      </trkpt>
      <trkpt lat="45.3081" lon="5.82082">
        <ele>1402.1</ele>
        <time>2014-08-24T16:12:35Z</time>
      </trkpt>
      <trkpt lat="45.30819" lon="5.8208">
        <ele>1401.8</ele>
        <time>2014-08-24T16:12:44Z</time>
      </trkpt>
      <trkpt lat="45.30812" lon="5.82071">
        <ele>1397</ele>
        <time>2014-08-24T16:13:08Z</time>
      </trkpt>
      <trkpt lat="45.30802" lon="5.82074">
        <ele>1396.3</ele>
        <time>2014-08-24T16:13:14Z</time>
      </trkpt>
      <trkpt lat="45.30793" lon="5.82076">
        <ele>1394.8</ele>
        <time>2014-08-24T16:13:20Z</time>
      </trkpt>
      <trkpt lat="45.30782" lon="5.82081">
        <ele>1393.1</ele>
        <time>2014-08-24T16:13:26Z</time>
      </trkpt>
      <trkpt lat="45.30772" lon="5.82078">
        <ele>1392.1</ele>
        <time>2014-08-24T16:13:30Z</time>
      </trkpt>
      <trkpt lat="45.30769" lon="5.82091">
        <ele>1389.7</ele>
        <time>2014-08-24T16:13:41Z</time>
      </trkpt>
      <trkpt lat="45.30769" lon="5.82104">
        <ele>1388</ele>
        <time>2014-08-24T16:13:56Z</time>
      </trkpt>
      <trkpt lat="45.30768" lon="5.82117">
        <ele>1385.7</ele>
        <time>2014-08-24T16:14:12Z</time>
      </trkpt>
      <trkpt lat="45.30765" lon="5.8213">
        <ele>1384.3</ele>
        <time>2014-08-24T16:14:27Z</time>
      </trkpt>
      <trkpt lat="45.30765" lon="5.82146">
        <ele>1383.1</ele>
        <time>2014-08-24T16:14:33Z</time>
      </trkpt>
      <trkpt lat="45.30763" lon="5.82159">
        <ele>1381.5</ele>
        <time>2014-08-24T16:14:38Z</time>
      </trkpt>
      <trkpt lat="45.30759" lon="5.82171">
        <ele>1379.7</ele>
        <time>2014-08-24T16:14:49Z</time>
      </trkpt>
      <trkpt lat="45.30757" lon="5.82185">
        <ele>1377.8</ele>
        <time>2014-08-24T16:15:04Z</time>
      </trkpt>
      <trkpt lat="45.30752" lon="5.82196">
        <ele>1376.6</ele>
        <time>2014-08-24T16:15:18Z</time>
      </trkpt>
      <trkpt lat="45.30747" lon="5.82207">
        <ele>1375.7</ele>
        <time>2014-08-24T16:15:33Z</time>
      </trkpt>
      <trkpt lat="45.30745" lon="5.8222">
        <ele>1374.5</ele>
        <time>2014-08-24T16:15:44Z</time>
      </trkpt>
      <trkpt lat="45.30743" lon="5.82233">
        <ele>1372.2</ele>
        <time>2014-08-24T16:15:59Z</time>
      </trkpt>
      <trkpt lat="45.30736" lon="5.82242">
        <ele>1370.5</ele>
        <time>2014-08-24T16:16:06Z</time>
      </trkpt>
      <trkpt lat="45.30729" lon="5.82255">
        <ele>1368.7</ele>
        <time>2014-08-24T16:16:10Z</time>
      </trkpt>
      <trkpt lat="45.30719" lon="5.82264">
        <ele>1365.7</ele>
        <time>2014-08-24T16:16:17Z</time>
      </trkpt>
      <trkpt lat="45.30713" lon="5.82275">
        <ele>1364.4</ele>
        <time>2014-08-24T16:16:21Z</time>
      </trkpt>
      <trkpt lat="45.30706" lon="5.82284">
        <ele>1362.9</ele>
        <time>2014-08-24T16:16:28Z</time>
      </trkpt>
      <trkpt lat="45.30707" lon="5.82297">
        <ele>1362.6</ele>
        <time>2014-08-24T16:16:44Z</time>
      </trkpt>
      <trkpt lat="45.30703" lon="5.82309">
        <ele>1361.7</ele>
        <time>2014-08-24T16:16:56Z</time>
      </trkpt>
      <trkpt lat="45.307" lon="5.82321">
        <ele>1361.1</ele>
        <time>2014-08-24T16:17:03Z</time>
      </trkpt>
      <trkpt lat="45.30696" lon="5.82336">
        <ele>1358.9</ele>
        <time>2014-08-24T16:17:20Z</time>
      </trkpt>
      <trkpt lat="45.30696" lon="5.82349">
        <ele>1358</ele>
        <time>2014-08-24T16:17:34Z</time>
      </trkpt>
      <trkpt lat="45.307" lon="5.82361">
        <ele>1360.4</ele>
        <time>2014-08-24T16:17:49Z</time>
      </trkpt>
      <trkpt lat="45.30697" lon="5.82374">
        <ele>1358.9</ele>
        <time>2014-08-24T16:18:01Z</time>
      </trkpt>
      <trkpt lat="45.30696" lon="5.82388">
        <ele>1356.7</ele>
        <time>2014-08-24T16:18:07Z</time>
      </trkpt>
      <trkpt lat="45.30691" lon="5.824">
        <ele>1355.1</ele>
        <time>2014-08-24T16:18:13Z</time>
      </trkpt>
      <trkpt lat="45.30689" lon="5.82414">
        <ele>1353.8</ele>
        <time>2014-08-24T16:18:19Z</time>
      </trkpt>
      <trkpt lat="45.30686" lon="5.82427">
        <ele>1352.4</ele>
        <time>2014-08-24T16:18:29Z</time>
      </trkpt>
      <trkpt lat="45.30685" lon="5.8244">
        <ele>1351.2</ele>
        <time>2014-08-24T16:18:41Z</time>
      </trkpt>
      <trkpt lat="45.30684" lon="5.82454">
        <ele>1349.3</ele>
        <time>2014-08-24T16:18:48Z</time>
      </trkpt>
      <trkpt lat="45.30676" lon="5.82463">
        <ele>1347.4</ele>
        <time>2014-08-24T16:18:53Z</time>
      </trkpt>
      <trkpt lat="45.30668" lon="5.8247">
        <ele>1345.2</ele>
        <time>2014-08-24T16:18:58Z</time>
      </trkpt>
      <trkpt lat="45.30663" lon="5.82481">
        <ele>1343.1</ele>
        <time>2014-08-24T16:19:11Z</time>
      </trkpt>
      <trkpt lat="45.30658" lon="5.82493">
        <ele>1341.5</ele>
        <time>2014-08-24T16:19:19Z</time>
      </trkpt>
      <trkpt lat="45.3065" lon="5.82503">
        <ele>1339</ele>
        <time>2014-08-24T16:19:40Z</time>
      </trkpt>
      <trkpt lat="45.30641" lon="5.82513">
        <ele>1337.1</ele>
        <time>2014-08-24T16:19:47Z</time>
      </trkpt>
      <trkpt lat="45.30634" lon="5.82524">
        <ele>1335.5</ele>
        <time>2014-08-24T16:19:52Z</time>
      </trkpt>
      <trkpt lat="45.30626" lon="5.82532">
        <ele>1334.4</ele>
        <time>2014-08-24T16:19:57Z</time>
      </trkpt>
      <trkpt lat="45.3062" lon="5.82544">
        <ele>1331.1</ele>
        <time>2014-08-24T16:20:05Z</time>
      </trkpt>
      <trkpt lat="45.30615" lon="5.8253">
        <ele>1330.1</ele>
        <time>2014-08-24T16:20:18Z</time>
      </trkpt>
      <trkpt lat="45.30617" lon="5.82516">
        <ele>1328.4</ele>
        <time>2014-08-24T16:20:23Z</time>
      </trkpt>
      <trkpt lat="45.30619" lon="5.82502">
        <ele>1326.2</ele>
        <time>2014-08-24T16:20:30Z</time>
      </trkpt>
      <trkpt lat="45.3062" lon="5.82489">
        <ele>1325.1</ele>
        <time>2014-08-24T16:20:35Z</time>
      </trkpt>
      <trkpt lat="45.30621" lon="5.82475">
        <ele>1323.3</ele>
        <time>2014-08-24T16:20:44Z</time>
      </trkpt>
      <trkpt lat="45.30624" lon="5.82461">
        <ele>1321.9</ele>
        <time>2014-08-24T16:20:51Z</time>
      </trkpt>
      <trkpt lat="45.30625" lon="5.82448">
        <ele>1320.3</ele>
        <time>2014-08-24T16:20:58Z</time>
      </trkpt>
      <trkpt lat="45.30628" lon="5.82435">
        <ele>1318.7</ele>
        <time>2014-08-24T16:21:05Z</time>
      </trkpt>
      <trkpt lat="45.30632" lon="5.82422">
        <ele>1316.2</ele>
        <time>2014-08-24T16:21:23Z</time>
      </trkpt>
      <trkpt lat="45.30632" lon="5.82408">
        <ele>1315.1</ele>
        <time>2014-08-24T16:21:34Z</time>
      </trkpt>
      <trkpt lat="45.30633" lon="5.82395">
        <ele>1313.7</ele>
        <time>2014-08-24T16:21:43Z</time>
      </trkpt>
      <trkpt lat="45.30632" lon="5.82381">
        <ele>1313</ele>
        <time>2014-08-24T16:21:49Z</time>
      </trkpt>
      <trkpt lat="45.30629" lon="5.82369">
        <ele>1311</ele>
        <time>2014-08-24T16:21:55Z</time>
      </trkpt>
      <trkpt lat="45.30628" lon="5.82355">
        <ele>1310.3</ele>
        <time>2014-08-24T16:22:02Z</time>
      </trkpt>
      <trkpt lat="45.30628" lon="5.82341">
        <ele>1308.1</ele>
        <time>2014-08-24T16:22:09Z</time>
      </trkpt>
      <trkpt lat="45.30628" lon="5.82327">
        <ele>1306.5</ele>
        <time>2014-08-24T16:22:14Z</time>
      </trkpt>
      <trkpt lat="45.3063" lon="5.82313">
        <ele>1304.4</ele>
        <time>2014-08-24T16:22:23Z</time>
      </trkpt>
      <trkpt lat="45.30631" lon="5.82298">
        <ele>1303.6</ele>
        <time>2014-08-24T16:22:27Z</time>
      </trkpt>
      <trkpt lat="45.30631" lon="5.82282">
        <ele>1301.7</ele>
        <time>2014-08-24T16:22:31Z</time>
      </trkpt>
      <trkpt lat="45.30633" lon="5.8227">
        <ele>1300.5</ele>
        <time>2014-08-24T16:22:39Z</time>
      </trkpt>
      <trkpt lat="45.30633" lon="5.82256">
        <ele>1299.4</ele>
        <time>2014-08-24T16:22:48Z</time>
      </trkpt>
      <trkpt lat="45.30633" lon="5.82242">
        <ele>1298</ele>
        <time>2014-08-24T16:22:53Z</time>
      </trkpt>
      <trkpt lat="45.30636" lon="5.82228">
        <ele>1296.1</ele>
        <time>2014-08-24T16:22:59Z</time>
      </trkpt>
      <trkpt lat="45.30633" lon="5.82215">
        <ele>1293.1</ele>
        <time>2014-08-24T16:23:14Z</time>
      </trkpt>
      <trkpt lat="45.30633" lon="5.822">
        <ele>1291.7</ele>
        <time>2014-08-24T16:23:20Z</time>
      </trkpt>
      <trkpt lat="45.30633" lon="5.82186">
        <ele>1290.5</ele>
        <time>2014-08-24T16:23:24Z</time>
      </trkpt>
      <trkpt lat="45.30634" lon="5.82171">
        <ele>1289.4</ele>
        <time>2014-08-24T16:23:29Z</time>
      </trkpt>
      <trkpt lat="45.30633" lon="5.82158">
        <ele>1286.7</ele>
        <time>2014-08-24T16:23:36Z</time>
      </trkpt>
      <trkpt lat="45.30631" lon="5.82143">
        <ele>1284.8</ele>
        <time>2014-08-24T16:23:41Z</time>
      </trkpt>
      <trkpt lat="45.30628" lon="5.82128">
        <ele>1282.7</ele>
        <time>2014-08-24T16:23:45Z</time>
      </trkpt>
      <trkpt lat="45.30628" lon="5.82114">
        <ele>1279.7</ele>
        <time>2014-08-24T16:23:55Z</time>
      </trkpt>
      <trkpt lat="45.30633" lon="5.82103">
        <ele>1278.8</ele>
        <time>2014-08-24T16:24:08Z</time>
      </trkpt>
      <trkpt lat="45.30629" lon="5.82091">
        <ele>1276.3</ele>
        <time>2014-08-24T16:24:15Z</time>
      </trkpt>
      <trkpt lat="45.30626" lon="5.82079">
        <ele>1275.6</ele>
        <time>2014-08-24T16:24:20Z</time>
      </trkpt>
      <trkpt lat="45.30624" lon="5.82065">
        <ele>1274.9</ele>
        <time>2014-08-24T16:24:24Z</time>
      </trkpt>
      <trkpt lat="45.30619" lon="5.82051">
        <ele>1273.1</ele>
        <time>2014-08-24T16:24:29Z</time>
      </trkpt>
      <trkpt lat="45.30611" lon="5.8204">
        <ele>1271.4</ele>
        <time>2014-08-24T16:24:33Z</time>
      </trkpt>
      <trkpt lat="45.30602" lon="5.82029">
        <ele>1267.5</ele>
        <time>2014-08-24T16:24:50Z</time>
      </trkpt>
      <trkpt lat="45.30593" lon="5.82032">
        <ele>1263.7</ele>
        <time>2014-08-24T16:25:03Z</time>
      </trkpt>
      <trkpt lat="45.30584" lon="5.82035">
        <ele>1258.9</ele>
        <time>2014-08-24T16:25:13Z</time>
      </trkpt>
      <trkpt lat="45.30576" lon="5.82042">
        <ele>1254.8</ele>
        <time>2014-08-24T16:25:24Z</time>
      </trkpt>
      <trkpt lat="45.30568" lon="5.82048">
        <ele>1252.8</ele>
        <time>2014-08-24T16:25:33Z</time>
      </trkpt>
      <trkpt lat="45.30566" lon="5.82061">
        <ele>1252.1</ele>
        <time>2014-08-24T16:25:39Z</time>
      </trkpt>
      <trkpt lat="45.30564" lon="5.82075">
        <ele>1252.3</ele>
        <time>2014-08-24T16:25:46Z</time>
      </trkpt>
      <trkpt lat="45.30562" lon="5.82088">
        <ele>1252.9</ele>
        <time>2014-08-24T16:25:52Z</time>
      </trkpt>
      <trkpt lat="45.30557" lon="5.821">
        <ele>1253.9</ele>
        <time>2014-08-24T16:25:57Z</time>
      </trkpt>
      <trkpt lat="45.30556" lon="5.82113">
        <ele>1254.9</ele>
        <time>2014-08-24T16:26:02Z</time>
      </trkpt>
      <trkpt lat="45.3056" lon="5.82125">
        <ele>1255.5</ele>
        <time>2014-08-24T16:26:06Z</time>
      </trkpt>
      <trkpt lat="45.30566" lon="5.82136">
        <ele>1256.2</ele>
        <time>2014-08-24T16:26:11Z</time>
      </trkpt>
      <trkpt lat="45.30573" lon="5.82148">
        <ele>1257.1</ele>
        <time>2014-08-24T16:26:17Z</time>
      </trkpt>
      <trkpt lat="45.30578" lon="5.82158">
        <ele>1258.1</ele>
        <time>2014-08-24T16:26:23Z</time>
      </trkpt>
      <trkpt lat="45.30579" lon="5.82172">
        <ele>1259.5</ele>
        <time>2014-08-24T16:26:30Z</time>
      </trkpt>
      <trkpt lat="45.30578" lon="5.82187">
        <ele>1261</ele>
        <time>2014-08-24T16:26:36Z</time>
      </trkpt>
      <trkpt lat="45.30578" lon="5.822">
        <ele>1262.1</ele>
        <time>2014-08-24T16:26:43Z</time>
      </trkpt>
      <trkpt lat="45.30574" lon="5.82213">
        <ele>1263.2</ele>
        <time>2014-08-24T16:26:51Z</time>
      </trkpt>
      <trkpt lat="45.30572" lon="5.82228">
        <ele>1264.1</ele>
        <time>2014-08-24T16:26:59Z</time>
      </trkpt>
      <trkpt lat="45.30576" lon="5.8224">
        <ele>1265.6</ele>
        <time>2014-08-24T16:27:04Z</time>
      </trkpt>
      <trkpt lat="45.30579" lon="5.82253">
        <ele>1266.8</ele>
        <time>2014-08-24T16:27:09Z</time>
      </trkpt>
      <trkpt lat="45.3058" lon="5.82266">
        <ele>1267.9</ele>
        <time>2014-08-24T16:27:14Z</time>
      </trkpt>
      <trkpt lat="45.30581" lon="5.8228">
        <ele>1268.7</ele>
        <time>2014-08-24T16:27:19Z</time>
      </trkpt>
      <trkpt lat="45.30582" lon="5.82294">
        <ele>1269.8</ele>
        <time>2014-08-24T16:27:25Z</time>
      </trkpt>
      <trkpt lat="45.30581" lon="5.82307">
        <ele>1270.8</ele>
        <time>2014-08-24T16:27:31Z</time>
      </trkpt>
      <trkpt lat="45.30578" lon="5.82319">
        <ele>1272</ele>
        <time>2014-08-24T16:27:38Z</time>
      </trkpt>
      <trkpt lat="45.30575" lon="5.82333">
        <ele>1272.9</ele>
        <time>2014-08-24T16:27:45Z</time>
      </trkpt>
      <trkpt lat="45.30574" lon="5.82346">
        <ele>1274.6</ele>
        <time>2014-08-24T16:27:52Z</time>
      </trkpt>
      <trkpt lat="45.30572" lon="5.82358">
        <ele>1275.9</ele>
        <time>2014-08-24T16:27:58Z</time>
      </trkpt>
      <trkpt lat="45.3057" lon="5.82372">
        <ele>1276.9</ele>
        <time>2014-08-24T16:28:04Z</time>
      </trkpt>
      <trkpt lat="45.30566" lon="5.82384">
        <ele>1278.1</ele>
        <time>2014-08-24T16:28:10Z</time>
      </trkpt>
      <trkpt lat="45.30563" lon="5.82397">
        <ele>1279.1</ele>
        <time>2014-08-24T16:28:15Z</time>
      </trkpt>
      <trkpt lat="45.30559" lon="5.8241">
        <ele>1280.4</ele>
        <time>2014-08-24T16:28:21Z</time>
      </trkpt>
      <trkpt lat="45.30555" lon="5.82423">
        <ele>1281.7</ele>
        <time>2014-08-24T16:28:27Z</time>
      </trkpt>
      <trkpt lat="45.30553" lon="5.82436">
        <ele>1282.5</ele>
        <time>2014-08-24T16:28:32Z</time>
      </trkpt>
      <trkpt lat="45.30553" lon="5.82451">
        <ele>1283.2</ele>
        <time>2014-08-24T16:28:38Z</time>
      </trkpt>
      <trkpt lat="45.30554" lon="5.82465">
        <ele>1284</ele>
        <time>2014-08-24T16:28:43Z</time>
      </trkpt>
      <trkpt lat="45.30553" lon="5.82478">
        <ele>1284.8</ele>
        <time>2014-08-24T16:28:48Z</time>
      </trkpt>
      <trkpt lat="45.30551" lon="5.82491">
        <ele>1285.2</ele>
        <time>2014-08-24T16:28:54Z</time>
      </trkpt>
      <trkpt lat="45.30548" lon="5.82504">
        <ele>1285.8</ele>
        <time>2014-08-24T16:29:00Z</time>
      </trkpt>
      <trkpt lat="45.30543" lon="5.82516">
        <ele>1287.5</ele>
        <time>2014-08-24T16:29:06Z</time>
      </trkpt>
      <trkpt lat="45.30541" lon="5.82529">
        <ele>1288.6</ele>
        <time>2014-08-24T16:29:12Z</time>
      </trkpt>
      <trkpt lat="45.30537" lon="5.82543">
        <ele>1289.5</ele>
        <time>2014-08-24T16:29:19Z</time>
      </trkpt>
      <trkpt lat="45.30534" lon="5.82556">
        <ele>1291</ele>
        <time>2014-08-24T16:29:25Z</time>
      </trkpt>
      <trkpt lat="45.30529" lon="5.82568">
        <ele>1292.3</ele>
        <time>2014-08-24T16:29:31Z</time>
      </trkpt>
      <trkpt lat="45.30524" lon="5.82581">
        <ele>1293</ele>
        <time>2014-08-24T16:29:38Z</time>
      </trkpt>
      <trkpt lat="45.30519" lon="5.82592">
        <ele>1294.6</ele>
        <time>2014-08-24T16:29:45Z</time>
      </trkpt>
      <trkpt lat="45.30516" lon="5.82606">
        <ele>1295.3</ele>
        <time>2014-08-24T16:29:51Z</time>
      </trkpt>
      <trkpt lat="45.30508" lon="5.82616">
        <ele>1297</ele>
        <time>2014-08-24T16:29:58Z</time>
      </trkpt>
      <trkpt lat="45.30502" lon="5.82626">
        <ele>1298.2</ele>
        <time>2014-08-24T16:30:04Z</time>
      </trkpt>
      <trkpt lat="45.30499" lon="5.82639">
        <ele>1299.2</ele>
        <time>2014-08-24T16:30:09Z</time>
      </trkpt>
      <trkpt lat="45.30494" lon="5.82652">
        <ele>1300.7</ele>
        <time>2014-08-24T16:30:15Z</time>
      </trkpt>
      <trkpt lat="45.30489" lon="5.82663">
        <ele>1301.8</ele>
        <time>2014-08-24T16:30:21Z</time>
      </trkpt>
      <trkpt lat="45.30481" lon="5.8267">
        <ele>1303</ele>
        <time>2014-08-24T16:30:27Z</time>
      </trkpt>
      <trkpt lat="45.30472" lon="5.82676">
        <ele>1304.2</ele>
        <time>2014-08-24T16:30:33Z</time>
      </trkpt>
      <trkpt lat="45.30461" lon="5.82679">
        <ele>1305.1</ele>
        <time>2014-08-24T16:30:39Z</time>
      </trkpt>
      <trkpt lat="45.30452" lon="5.82683">
        <ele>1306</ele>
        <time>2014-08-24T16:30:45Z</time>
      </trkpt>
      <trkpt lat="45.30443" lon="5.82687">
        <ele>1307.1</ele>
        <time>2014-08-24T16:30:52Z</time>
      </trkpt>
      <trkpt lat="45.30435" lon="5.8268">
        <ele>1308.3</ele>
        <time>2014-08-24T16:31:00Z</time>
      </trkpt>
      <trkpt lat="45.30429" lon="5.82669">
        <ele>1308.8</ele>
        <time>2014-08-24T16:31:06Z</time>
      </trkpt>
      <trkpt lat="45.30427" lon="5.82655">
        <ele>1309.7</ele>
        <time>2014-08-24T16:31:13Z</time>
      </trkpt>
      <trkpt lat="45.30424" lon="5.82642">
        <ele>1310.5</ele>
        <time>2014-08-24T16:31:18Z</time>
      </trkpt>
      <trkpt lat="45.30421" lon="5.82627">
        <ele>1311.3</ele>
        <time>2014-08-24T16:31:24Z</time>
      </trkpt>
      <trkpt lat="45.3042" lon="5.82613">
        <ele>1312</ele>
        <time>2014-08-24T16:31:30Z</time>
      </trkpt>
      <trkpt lat="45.30421" lon="5.82599">
        <ele>1312.3</ele>
        <time>2014-08-24T16:31:36Z</time>
      </trkpt>
      <trkpt lat="45.30424" lon="5.82585">
        <ele>1312.8</ele>
        <time>2014-08-24T16:31:42Z</time>
      </trkpt>
      <trkpt lat="45.30424" lon="5.82571">
        <ele>1314.3</ele>
        <time>2014-08-24T16:31:48Z</time>
      </trkpt>
      <trkpt lat="45.30423" lon="5.82556">
        <ele>1315.6</ele>
        <time>2014-08-24T16:31:54Z</time>
      </trkpt>
      <trkpt lat="45.30427" lon="5.82543">
        <ele>1317</ele>
        <time>2014-08-24T16:32:00Z</time>
      </trkpt>
      <trkpt lat="45.30433" lon="5.82532">
        <ele>1318.2</ele>
        <time>2014-08-24T16:32:06Z</time>
      </trkpt>
      <trkpt lat="45.30438" lon="5.82521">
        <ele>1319.4</ele>
        <time>2014-08-24T16:32:14Z</time>
      </trkpt>
      <trkpt lat="45.30443" lon="5.82508">
        <ele>1320.4</ele>
        <time>2014-08-24T16:32:21Z</time>
      </trkpt>
      <trkpt lat="45.30441" lon="5.82494">
        <ele>1321.1</ele>
        <time>2014-08-24T16:32:27Z</time>
      </trkpt>
      <trkpt lat="45.30436" lon="5.82482">
        <ele>1321.2</ele>
        <time>2014-08-24T16:32:33Z</time>
      </trkpt>
      <trkpt lat="45.3043" lon="5.82471">
        <ele>1322.1</ele>
        <time>2014-08-24T16:32:39Z</time>
      </trkpt>
      <trkpt lat="45.30423" lon="5.82459">
        <ele>1322.6</ele>
        <time>2014-08-24T16:32:45Z</time>
      </trkpt>
      <trkpt lat="45.3042" lon="5.82445">
        <ele>1323.8</ele>
        <time>2014-08-24T16:32:52Z</time>
      </trkpt>
      <trkpt lat="45.30415" lon="5.82432">
        <ele>1325</ele>
        <time>2014-08-24T16:32:59Z</time>
      </trkpt>
      <trkpt lat="45.30415" lon="5.82418">
        <ele>1326.1</ele>
        <time>2014-08-24T16:33:05Z</time>
      </trkpt>
      <trkpt lat="45.30413" lon="5.82404">
        <ele>1327.3</ele>
        <time>2014-08-24T16:33:11Z</time>
      </trkpt>
      <trkpt lat="45.30411" lon="5.8239">
        <ele>1328.1</ele>
        <time>2014-08-24T16:33:17Z</time>
      </trkpt>
      <trkpt lat="45.30411" lon="5.82375">
        <ele>1328.8</ele>
        <time>2014-08-24T16:33:23Z</time>
      </trkpt>
      <trkpt lat="45.30406" lon="5.82361">
        <ele>1330</ele>
        <time>2014-08-24T16:33:29Z</time>
      </trkpt>
      <trkpt lat="45.30398" lon="5.8235">
        <ele>1330.6</ele>
        <time>2014-08-24T16:33:34Z</time>
      </trkpt>
      <trkpt lat="45.30391" lon="5.82339">
        <ele>1330.6</ele>
        <time>2014-08-24T16:33:39Z</time>
      </trkpt>
      <trkpt lat="45.30382" lon="5.82331">
        <ele>1330.8</ele>
        <time>2014-08-24T16:33:44Z</time>
      </trkpt>
      <trkpt lat="45.30374" lon="5.82322">
        <ele>1330.8</ele>
        <time>2014-08-24T16:33:49Z</time>
      </trkpt>
      <trkpt lat="45.30367" lon="5.82314">
        <ele>1331.1</ele>
        <time>2014-08-24T16:33:54Z</time>
      </trkpt>
      <trkpt lat="45.30359" lon="5.82305">
        <ele>1331.6</ele>
        <time>2014-08-24T16:33:59Z</time>
      </trkpt>
      <trkpt lat="45.30353" lon="5.82294">
        <ele>1333</ele>
        <time>2014-08-24T16:34:06Z</time>
      </trkpt>
      <trkpt lat="45.30348" lon="5.82283">
        <ele>1334.1</ele>
        <time>2014-08-24T16:34:12Z</time>
      </trkpt>
      <trkpt lat="45.30342" lon="5.82273">
        <ele>1335.3</ele>
        <time>2014-08-24T16:34:18Z</time>
      </trkpt>
      <trkpt lat="45.30336" lon="5.82263">
        <ele>1336.7</ele>
        <time>2014-08-24T16:34:23Z</time>
      </trkpt>
      <trkpt lat="45.30329" lon="5.82252">
        <ele>1337.6</ele>
        <time>2014-08-24T16:34:28Z</time>
      </trkpt>
      <trkpt lat="45.30322" lon="5.82243">
        <ele>1338.8</ele>
        <time>2014-08-24T16:34:34Z</time>
      </trkpt>
      <trkpt lat="45.30314" lon="5.82235">
        <ele>1339.4</ele>
        <time>2014-08-24T16:34:40Z</time>
      </trkpt>
      <trkpt lat="45.30305" lon="5.82231">
        <ele>1340</ele>
        <time>2014-08-24T16:34:46Z</time>
      </trkpt>
      <trkpt lat="45.30295" lon="5.8223">
        <ele>1340.7</ele>
        <time>2014-08-24T16:34:51Z</time>
      </trkpt>
      <trkpt lat="45.30285" lon="5.82232">
        <ele>1340.7</ele>
        <time>2014-08-24T16:34:56Z</time>
      </trkpt>
      <trkpt lat="45.30276" lon="5.82233">
        <ele>1341</ele>
        <time>2014-08-24T16:35:01Z</time>
      </trkpt>
      <trkpt lat="45.30265" lon="5.82236">
        <ele>1342.2</ele>
        <time>2014-08-24T16:35:07Z</time>
      </trkpt>
      <trkpt lat="45.30256" lon="5.82239">
        <ele>1342.9</ele>
        <time>2014-08-24T16:35:12Z</time>
      </trkpt>
      <trkpt lat="45.30246" lon="5.82242">
        <ele>1343.8</ele>
        <time>2014-08-24T16:35:17Z</time>
      </trkpt>
      <trkpt lat="45.30236" lon="5.82246">
        <ele>1344.8</ele>
        <time>2014-08-24T16:35:23Z</time>
      </trkpt>
      <trkpt lat="45.30227" lon="5.82248">
        <ele>1347.4</ele>
        <time>2014-08-24T16:35:30Z</time>
      </trkpt>
      <trkpt lat="45.30217" lon="5.82251">
        <ele>1347.5</ele>
        <time>2014-08-24T16:35:37Z</time>
      </trkpt>
      <trkpt lat="45.30207" lon="5.82254">
        <ele>1347.9</ele>
        <time>2014-08-24T16:35:44Z</time>
      </trkpt>
      <trkpt lat="45.30198" lon="5.82256">
        <ele>1348.8</ele>
        <time>2014-08-24T16:35:51Z</time>
      </trkpt>
      <trkpt lat="45.30188" lon="5.82255">
        <ele>1350.7</ele>
        <time>2014-08-24T16:36:00Z</time>
      </trkpt>
      <trkpt lat="45.30179" lon="5.82251">
        <ele>1352.1</ele>
        <time>2014-08-24T16:36:07Z</time>
      </trkpt>
      <trkpt lat="45.3017" lon="5.82246">
        <ele>1353.1</ele>
        <time>2014-08-24T16:36:14Z</time>
      </trkpt>
      <trkpt lat="45.30161" lon="5.82241">
        <ele>1353.9</ele>
        <time>2014-08-24T16:36:20Z</time>
      </trkpt>
      <trkpt lat="45.30151" lon="5.82238">
        <ele>1354.9</ele>
        <time>2014-08-24T16:36:27Z</time>
      </trkpt>
      <trkpt lat="45.30142" lon="5.82233">
        <ele>1355.7</ele>
        <time>2014-08-24T16:36:34Z</time>
      </trkpt>
      <trkpt lat="45.30132" lon="5.82228">
        <ele>1357.1</ele>
        <time>2014-08-24T16:36:42Z</time>
      </trkpt>
      <trkpt lat="45.30123" lon="5.82224">
        <ele>1358.2</ele>
        <time>2014-08-24T16:36:49Z</time>
      </trkpt>
      <trkpt lat="45.30115" lon="5.82218">
        <ele>1359.2</ele>
        <time>2014-08-24T16:36:55Z</time>
      </trkpt>
      <trkpt lat="45.30106" lon="5.82211">
        <ele>1359.9</ele>
        <time>2014-08-24T16:37:02Z</time>
      </trkpt>
      <trkpt lat="45.30098" lon="5.82204">
        <ele>1361.1</ele>
        <time>2014-08-24T16:37:08Z</time>
      </trkpt>
      <trkpt lat="45.3009" lon="5.82197">
        <ele>1361.8</ele>
        <time>2014-08-24T16:37:14Z</time>
      </trkpt>
      <trkpt lat="45.30083" lon="5.82188">
        <ele>1363.1</ele>
        <time>2014-08-24T16:37:20Z</time>
      </trkpt>
      <trkpt lat="45.30074" lon="5.8218">
        <ele>1364.5</ele>
        <time>2014-08-24T16:37:27Z</time>
      </trkpt>
      <trkpt lat="45.30066" lon="5.82174">
        <ele>1365.9</ele>
        <time>2014-08-24T16:37:34Z</time>
      </trkpt>
      <trkpt lat="45.30058" lon="5.82167">
        <ele>1367.6</ele>
        <time>2014-08-24T16:37:42Z</time>
      </trkpt>
      <trkpt lat="45.3005" lon="5.8216">
        <ele>1368.6</ele>
        <time>2014-08-24T16:37:49Z</time>
      </trkpt>
      <trkpt lat="45.30042" lon="5.82152">
        <ele>1370.2</ele>
        <time>2014-08-24T16:37:56Z</time>
      </trkpt>
      <trkpt lat="45.30036" lon="5.82141">
        <ele>1370.9</ele>
        <time>2014-08-24T16:38:03Z</time>
      </trkpt>
      <trkpt lat="45.30031" lon="5.82131">
        <ele>1372.1</ele>
        <time>2014-08-24T16:38:10Z</time>
      </trkpt>
      <trkpt lat="45.30026" lon="5.82121">
        <ele>1373.4</ele>
        <time>2014-08-24T16:38:17Z</time>
      </trkpt>
      <trkpt lat="45.3002" lon="5.8211">
        <ele>1375.1</ele>
        <time>2014-08-24T16:38:24Z</time>
      </trkpt>
      <trkpt lat="45.30014" lon="5.82099">
        <ele>1375.6</ele>
        <time>2014-08-24T16:38:30Z</time>
      </trkpt>
      <trkpt lat="45.30008" lon="5.82089">
        <ele>1376</ele>
        <time>2014-08-24T16:38:36Z</time>
      </trkpt>
      <trkpt lat="45.30001" lon="5.82077">
        <ele>1377.5</ele>
        <time>2014-08-24T16:38:43Z</time>
      </trkpt>
      <trkpt lat="45.29993" lon="5.82071">
        <ele>1378.1</ele>
        <time>2014-08-24T16:38:49Z</time>
      </trkpt>
      <trkpt lat="45.29983" lon="5.82069">
        <ele>1379.3</ele>
        <time>2014-08-24T16:38:56Z</time>
      </trkpt>
      <trkpt lat="45.29973" lon="5.82066">
        <ele>1380.3</ele>
        <time>2014-08-24T16:39:04Z</time>
      </trkpt>
      <trkpt lat="45.29964" lon="5.82066">
        <ele>1380.8</ele>
        <time>2014-08-24T16:39:11Z</time>
      </trkpt>
      <trkpt lat="45.29954" lon="5.82068">
        <ele>1382.1</ele>
        <time>2014-08-24T16:39:17Z</time>
      </trkpt>
      <trkpt lat="45.29945" lon="5.8207">
        <ele>1383.1</ele>
        <time>2014-08-24T16:39:24Z</time>
      </trkpt>
      <trkpt lat="45.29938" lon="5.82079">
        <ele>1384.2</ele>
        <time>2014-08-24T16:39:33Z</time>
      </trkpt>
      <trkpt lat="45.29924" lon="5.82085">
        <ele>1384</ele>
        <time>2014-08-24T16:40:16Z</time>
      </trkpt>
      <trkpt lat="45.29915" lon="5.82083">
        <ele>1386.3</ele>
        <time>2014-08-24T16:40:26Z</time>
      </trkpt>
      <trkpt lat="45.29906" lon="5.82085">
        <ele>1395.3</ele>
        <time>2014-08-24T16:40:34Z</time>
      </trkpt>
      <trkpt lat="45.29896" lon="5.82085">
        <ele>1389.5</ele>
        <time>2014-08-24T16:40:41Z</time>
      </trkpt>
      <trkpt lat="45.29887" lon="5.82092">
        <ele>1389.6</ele>
        <time>2014-08-24T16:40:48Z</time>
      </trkpt>
      <trkpt lat="45.29877" lon="5.82093">
        <ele>1390.7</ele>
        <time>2014-08-24T16:40:55Z</time>
      </trkpt>
      <trkpt lat="45.29868" lon="5.82093">
        <ele>1391.3</ele>
        <time>2014-08-24T16:40:58Z</time>
      </trkpt>
      <trkpt lat="45.29859" lon="5.82096">
        <ele>1392.2</ele>
        <time>2014-08-24T16:41:04Z</time>
      </trkpt>
      <trkpt lat="45.29851" lon="5.82102">
        <ele>1394.6</ele>
        <time>2014-08-24T16:41:11Z</time>
      </trkpt>
      <trkpt lat="45.29842" lon="5.82102">
        <ele>1394.4</ele>
        <time>2014-08-24T16:41:16Z</time>
      </trkpt>
      <trkpt lat="45.29832" lon="5.82104">
        <ele>1394.9</ele>
        <time>2014-08-24T16:41:22Z</time>
      </trkpt>
      <trkpt lat="45.29822" lon="5.82104">
        <ele>1395.4</ele>
        <time>2014-08-24T16:41:26Z</time>
      </trkpt>
      <trkpt lat="45.29812" lon="5.82104">
        <ele>1396.2</ele>
        <time>2014-08-24T16:41:31Z</time>
      </trkpt>
      <trkpt lat="45.29801" lon="5.82103">
        <ele>1396.8</ele>
        <time>2014-08-24T16:41:36Z</time>
      </trkpt>
      <trkpt lat="45.29791" lon="5.82102">
        <ele>1397.7</ele>
        <time>2014-08-24T16:41:41Z</time>
      </trkpt>
      <trkpt lat="45.29782" lon="5.82102">
        <ele>1398.6</ele>
        <time>2014-08-24T16:41:46Z</time>
      </trkpt>
      <trkpt lat="45.29771" lon="5.82102">
        <ele>1399.8</ele>
        <time>2014-08-24T16:41:52Z</time>
      </trkpt>
      <trkpt lat="45.29761" lon="5.82101">
        <ele>1400.7</ele>
        <time>2014-08-24T16:41:57Z</time>
      </trkpt>
      <trkpt lat="45.29751" lon="5.82101">
        <ele>1401.4</ele>
        <time>2014-08-24T16:42:01Z</time>
      </trkpt>
      <trkpt lat="45.2974" lon="5.82101">
        <ele>1402.8</ele>
        <time>2014-08-24T16:42:08Z</time>
      </trkpt>
      <trkpt lat="45.29731" lon="5.82099">
        <ele>1403.1</ele>
        <time>2014-08-24T16:42:13Z</time>
      </trkpt>
      <trkpt lat="45.29721" lon="5.82097">
        <ele>1403</ele>
        <time>2014-08-24T16:42:20Z</time>
      </trkpt>
      <trkpt lat="45.29711" lon="5.82098">
        <ele>1403.3</ele>
        <time>2014-08-24T16:42:24Z</time>
      </trkpt>
      <trkpt lat="45.29701" lon="5.82096">
        <ele>1404</ele>
        <time>2014-08-24T16:42:29Z</time>
      </trkpt>
      <trkpt lat="45.29691" lon="5.82094">
        <ele>1405.2</ele>
        <time>2014-08-24T16:42:34Z</time>
      </trkpt>
      <trkpt lat="45.29678" lon="5.82092">
        <ele>1404.8</ele>
        <time>2014-08-24T16:42:38Z</time>
      </trkpt>
      <trkpt lat="45.29669" lon="5.82089">
        <ele>1404.9</ele>
        <time>2014-08-24T16:42:40Z</time>
      </trkpt>
      <trkpt lat="45.2966" lon="5.82086">
        <ele>1404.9</ele>
        <time>2014-08-24T16:42:42Z</time>
      </trkpt>
      <trkpt lat="45.2965" lon="5.82079">
        <ele>1404.4</ele>
        <time>2014-08-24T16:42:45Z</time>
      </trkpt>
      <trkpt lat="45.29642" lon="5.82073">
        <ele>1405.2</ele>
        <time>2014-08-24T16:42:49Z</time>
      </trkpt>
      <trkpt lat="45.29633" lon="5.82071">
        <ele>1405.2</ele>
        <time>2014-08-24T16:42:53Z</time>
      </trkpt>
      <trkpt lat="45.29622" lon="5.82072">
        <ele>1406.2</ele>
        <time>2014-08-24T16:42:58Z</time>
      </trkpt>
      <trkpt lat="45.29612" lon="5.82077">
        <ele>1406.8</ele>
        <time>2014-08-24T16:43:03Z</time>
      </trkpt>
      <trkpt lat="45.29602" lon="5.8208">
        <ele>1406.9</ele>
        <time>2014-08-24T16:43:07Z</time>
      </trkpt>
      <trkpt lat="45.29592" lon="5.82077">
        <ele>1407.1</ele>
        <time>2014-08-24T16:43:12Z</time>
      </trkpt>
      <trkpt lat="45.29583" lon="5.82073">
        <ele>1407.9</ele>
        <time>2014-08-24T16:43:18Z</time>
      </trkpt>
      <trkpt lat="45.29572" lon="5.82071">
        <ele>1408.7</ele>
        <time>2014-08-24T16:43:23Z</time>
      </trkpt>
      <trkpt lat="45.29562" lon="5.8207">
        <ele>1409.4</ele>
        <time>2014-08-24T16:43:28Z</time>
      </trkpt>
      <trkpt lat="45.29553" lon="5.82073">
        <ele>1410.6</ele>
        <time>2014-08-24T16:43:34Z</time>
      </trkpt>
      <trkpt lat="45.29543" lon="5.82071">
        <ele>1410.9</ele>
        <time>2014-08-24T16:43:39Z</time>
      </trkpt>
      <trkpt lat="45.29533" lon="5.82072">
        <ele>1411.4</ele>
        <time>2014-08-24T16:43:45Z</time>
      </trkpt>
      <trkpt lat="45.29524" lon="5.82073">
        <ele>1412.7</ele>
        <time>2014-08-24T16:43:52Z</time>
      </trkpt>
      <trkpt lat="45.29514" lon="5.82078">
        <ele>1414.1</ele>
        <time>2014-08-24T16:43:58Z</time>
      </trkpt>
      <trkpt lat="45.29504" lon="5.82082">
        <ele>1415.5</ele>
        <time>2014-08-24T16:44:03Z</time>
      </trkpt>
      <trkpt lat="45.29494" lon="5.82083">
        <ele>1416</ele>
        <time>2014-08-24T16:44:08Z</time>
      </trkpt>
      <trkpt lat="45.29484" lon="5.82083">
        <ele>1416.4</ele>
        <time>2014-08-24T16:44:12Z</time>
      </trkpt>
      <trkpt lat="45.29475" lon="5.82079">
        <ele>1416.6</ele>
        <time>2014-08-24T16:44:16Z</time>
      </trkpt>
      <trkpt lat="45.29465" lon="5.82076">
        <ele>1415.2</ele>
        <time>2014-08-24T16:44:22Z</time>
      </trkpt>
      <trkpt lat="45.29454" lon="5.82078">
        <ele>1416.4</ele>
        <time>2014-08-24T16:44:27Z</time>
      </trkpt>
      <trkpt lat="45.29443" lon="5.82072">
        <ele>1416.6</ele>
        <time>2014-08-24T16:44:31Z</time>
      </trkpt>
      <trkpt lat="45.29434" lon="5.82067">
        <ele>1416.9</ele>
        <time>2014-08-24T16:44:34Z</time>
      </trkpt>
      <trkpt lat="45.29424" lon="5.82064">
        <ele>1416.9</ele>
        <time>2014-08-24T16:44:38Z</time>
      </trkpt>
      <trkpt lat="45.29412" lon="5.82064">
        <ele>1417</ele>
        <time>2014-08-24T16:44:42Z</time>
      </trkpt>
      <trkpt lat="45.29402" lon="5.82067">
        <ele>1417</ele>
        <time>2014-08-24T16:44:45Z</time>
      </trkpt>
      <trkpt lat="45.29391" lon="5.82067">
        <ele>1417.5</ele>
        <time>2014-08-24T16:44:48Z</time>
      </trkpt>
      <trkpt lat="45.2938" lon="5.82069">
        <ele>1417.5</ele>
        <time>2014-08-24T16:44:51Z</time>
      </trkpt>
      <trkpt lat="45.2937" lon="5.8207">
        <ele>1417.4</ele>
        <time>2014-08-24T16:44:54Z</time>
      </trkpt>
      <trkpt lat="45.29358" lon="5.82069">
        <ele>1417.3</ele>
        <time>2014-08-24T16:44:58Z</time>
      </trkpt>
      <trkpt lat="45.29347" lon="5.82067">
        <ele>1417.5</ele>
        <time>2014-08-24T16:45:02Z</time>
      </trkpt>
      <trkpt lat="45.29336" lon="5.82064">
        <ele>1418.4</ele>
        <time>2014-08-24T16:45:07Z</time>
      </trkpt>
      <trkpt lat="45.29327" lon="5.82066">
        <ele>1419.1</ele>
        <time>2014-08-24T16:45:11Z</time>
      </trkpt>
      <trkpt lat="45.29317" lon="5.82069">
        <ele>1418.7</ele>
        <time>2014-08-24T16:45:15Z</time>
      </trkpt>
      <trkpt lat="45.29305" lon="5.82068">
        <ele>1418.9</ele>
        <time>2014-08-24T16:45:19Z</time>
      </trkpt>
      <trkpt lat="45.29293" lon="5.82068">
        <ele>1418.6</ele>
        <time>2014-08-24T16:45:22Z</time>
      </trkpt>
      <trkpt lat="45.29282" lon="5.82065">
        <ele>1418.8</ele>
        <time>2014-08-24T16:45:25Z</time>
      </trkpt>
      <trkpt lat="45.2927" lon="5.82063">
        <ele>1418.7</ele>
        <time>2014-08-24T16:45:28Z</time>
      </trkpt>
      <trkpt lat="45.29257" lon="5.8206">
        <ele>1418.8</ele>
        <time>2014-08-24T16:45:31Z</time>
      </trkpt>
      <trkpt lat="45.29245" lon="5.8206">
        <ele>1419</ele>
        <time>2014-08-24T16:45:34Z</time>
      </trkpt>
      <trkpt lat="45.29234" lon="5.82056">
        <ele>1418.8</ele>
        <time>2014-08-24T16:45:37Z</time>
      </trkpt>
      <trkpt lat="45.29223" lon="5.82053">
        <ele>1418.7</ele>
        <time>2014-08-24T16:45:40Z</time>
      </trkpt>
      <trkpt lat="45.29213" lon="5.82051">
        <ele>1417.5</ele>
        <time>2014-08-24T16:45:42Z</time>
      </trkpt>
      <trkpt lat="45.29201" lon="5.82047">
        <ele>1417.7</ele>
        <time>2014-08-24T16:45:44Z</time>
      </trkpt>
      <trkpt lat="45.29189" lon="5.82043">
        <ele>1417.4</ele>
        <time>2014-08-24T16:45:46Z</time>
      </trkpt>
      <trkpt lat="45.29178" lon="5.82041">
        <ele>1416.1</ele>
        <time>2014-08-24T16:45:48Z</time>
      </trkpt>
      <trkpt lat="45.29167" lon="5.82039">
        <ele>1415.8</ele>
        <time>2014-08-24T16:45:50Z</time>
      </trkpt>
      <trkpt lat="45.29154" lon="5.82036">
        <ele>1415.4</ele>
        <time>2014-08-24T16:45:52Z</time>
      </trkpt>
      <trkpt lat="45.2914" lon="5.82034">
        <ele>1414.5</ele>
        <time>2014-08-24T16:45:54Z</time>
      </trkpt>
      <trkpt lat="45.29126" lon="5.82033">
        <ele>1413.8</ele>
        <time>2014-08-24T16:45:56Z</time>
      </trkpt>
      <trkpt lat="45.29112" lon="5.82032">
        <ele>1412.8</ele>
        <time>2014-08-24T16:45:58Z</time>
      </trkpt>
      <trkpt lat="45.29099" lon="5.82024">
        <ele>1413.4</ele>
        <time>2014-08-24T16:46:00Z</time>
      </trkpt>
      <trkpt lat="45.29087" lon="5.82016">
        <ele>1412.9</ele>
        <time>2014-08-24T16:46:02Z</time>
      </trkpt>
      <trkpt lat="45.29075" lon="5.82015">
        <ele>1410.8</ele>
        <time>2014-08-24T16:46:04Z</time>
      </trkpt>
      <trkpt lat="45.29063" lon="5.8202">
        <ele>1410.9</ele>
        <time>2014-08-24T16:46:06Z</time>
      </trkpt>
      <trkpt lat="45.29054" lon="5.82029">
        <ele>1410.2</ele>
        <time>2014-08-24T16:46:08Z</time>
      </trkpt>
      <trkpt lat="45.29046" lon="5.82038">
        <ele>1410</ele>
        <time>2014-08-24T16:46:10Z</time>
      </trkpt>
      <trkpt lat="45.29037" lon="5.82049">
        <ele>1409.8</ele>
        <time>2014-08-24T16:46:12Z</time>
      </trkpt>
      <trkpt lat="45.2903" lon="5.82061">
        <ele>1408.7</ele>
        <time>2014-08-24T16:46:14Z</time>
      </trkpt>
      <trkpt lat="45.2902" lon="5.82069">
        <ele>1408.3</ele>
        <time>2014-08-24T16:46:16Z</time>
      </trkpt>
      <trkpt lat="45.29008" lon="5.82075">
        <ele>1407.8</ele>
        <time>2014-08-24T16:46:18Z</time>
      </trkpt>
      <trkpt lat="45.28995" lon="5.82078">
        <ele>1405.6</ele>
        <time>2014-08-24T16:46:20Z</time>
      </trkpt>
      <trkpt lat="45.2898" lon="5.82077">
        <ele>1405.4</ele>
        <time>2014-08-24T16:46:22Z</time>
      </trkpt>
      <trkpt lat="45.28966" lon="5.82068">
        <ele>1404</ele>
        <time>2014-08-24T16:46:24Z</time>
      </trkpt>
      <trkpt lat="45.28959" lon="5.82056">
        <ele>1403.7</ele>
        <time>2014-08-24T16:46:26Z</time>
      </trkpt>
      <trkpt lat="45.28958" lon="5.82041">
        <ele>1402.8</ele>
        <time>2014-08-24T16:46:28Z</time>
      </trkpt>
      <trkpt lat="45.28957" lon="5.82024">
        <ele>1402.4</ele>
        <time>2014-08-24T16:46:30Z</time>
      </trkpt>
      <trkpt lat="45.28952" lon="5.82006">
        <ele>1402.2</ele>
        <time>2014-08-24T16:46:32Z</time>
      </trkpt>
      <trkpt lat="45.28941" lon="5.81995">
        <ele>1401.3</ele>
        <time>2014-08-24T16:46:34Z</time>
      </trkpt>
      <trkpt lat="45.28927" lon="5.81987">
        <ele>1400.4</ele>
        <time>2014-08-24T16:46:36Z</time>
      </trkpt>
      <trkpt lat="45.28915" lon="5.81981">
        <ele>1400.1</ele>
        <time>2014-08-24T16:46:38Z</time>
      </trkpt>
      <trkpt lat="45.28903" lon="5.81975">
        <ele>1399</ele>
        <time>2014-08-24T16:46:40Z</time>
      </trkpt>
      <trkpt lat="45.28893" lon="5.81971">
        <ele>1398.2</ele>
        <time>2014-08-24T16:46:42Z</time>
      </trkpt>
      <trkpt lat="45.28881" lon="5.81966">
        <ele>1398.7</ele>
        <time>2014-08-24T16:46:44Z</time>
      </trkpt>
      <trkpt lat="45.28868" lon="5.81958">
        <ele>1398.2</ele>
        <time>2014-08-24T16:46:46Z</time>
      </trkpt>
      <trkpt lat="45.28858" lon="5.81951">
        <ele>1397.6</ele>
        <time>2014-08-24T16:46:48Z</time>
      </trkpt>
      <trkpt lat="45.2885" lon="5.81945">
        <ele>1397.2</ele>
        <time>2014-08-24T16:46:50Z</time>
      </trkpt>
      <trkpt lat="45.28839" lon="5.81941">
        <ele>1397.1</ele>
        <time>2014-08-24T16:46:53Z</time>
      </trkpt>
      <trkpt lat="45.28827" lon="5.81943">
        <ele>1397.4</ele>
        <time>2014-08-24T16:46:57Z</time>
      </trkpt>
      <trkpt lat="45.28818" lon="5.81951">
        <ele>1396.7</ele>
        <time>2014-08-24T16:47:00Z</time>
      </trkpt>
      <trkpt lat="45.28808" lon="5.81956">
        <ele>1397.6</ele>
        <time>2014-08-24T16:47:03Z</time>
      </trkpt>
      <trkpt lat="45.28797" lon="5.81963">
        <ele>1397.4</ele>
        <time>2014-08-24T16:47:06Z</time>
      </trkpt>
      <trkpt lat="45.28789" lon="5.81968">
        <ele>1397.2</ele>
        <time>2014-08-24T16:47:08Z</time>
      </trkpt>
      <trkpt lat="45.28778" lon="5.81972">
        <ele>1396.8</ele>
        <time>2014-08-24T16:47:10Z</time>
      </trkpt>
      <trkpt lat="45.28765" lon="5.81975">
        <ele>1395.1</ele>
        <time>2014-08-24T16:47:12Z</time>
      </trkpt>
      <trkpt lat="45.28751" lon="5.81972">
        <ele>1394.2</ele>
        <time>2014-08-24T16:47:14Z</time>
      </trkpt>
      <trkpt lat="45.28738" lon="5.81964">
        <ele>1393.5</ele>
        <time>2014-08-24T16:47:16Z</time>
      </trkpt>
      <trkpt lat="45.28727" lon="5.81956">
        <ele>1393.6</ele>
        <time>2014-08-24T16:47:18Z</time>
      </trkpt>
      <trkpt lat="45.28715" lon="5.81949">
        <ele>1393.4</ele>
        <time>2014-08-24T16:47:20Z</time>
      </trkpt>
      <trkpt lat="45.28704" lon="5.81939">
        <ele>1392</ele>
        <time>2014-08-24T16:47:22Z</time>
      </trkpt>
      <trkpt lat="45.28697" lon="5.81926">
        <ele>1391.2</ele>
        <time>2014-08-24T16:47:24Z</time>
      </trkpt>
      <trkpt lat="45.28689" lon="5.81915">
        <ele>1390.5</ele>
        <time>2014-08-24T16:47:26Z</time>
      </trkpt>
      <trkpt lat="45.28681" lon="5.81908">
        <ele>1390.5</ele>
        <time>2014-08-24T16:47:28Z</time>
      </trkpt>
      <trkpt lat="45.28672" lon="5.81902">
        <ele>1390.8</ele>
        <time>2014-08-24T16:47:31Z</time>
      </trkpt>
      <trkpt lat="45.28662" lon="5.81897">
        <ele>1392.3</ele>
        <time>2014-08-24T16:47:35Z</time>
      </trkpt>
      <trkpt lat="45.28652" lon="5.81893">
        <ele>1393</ele>
        <time>2014-08-24T16:47:38Z</time>
      </trkpt>
      <trkpt lat="45.28641" lon="5.81888">
        <ele>1393.3</ele>
        <time>2014-08-24T16:47:42Z</time>
      </trkpt>
      <trkpt lat="45.2863" lon="5.81883">
        <ele>1392.6</ele>
        <time>2014-08-24T16:47:45Z</time>
      </trkpt>
      <trkpt lat="45.28618" lon="5.81877">
        <ele>1392.4</ele>
        <time>2014-08-24T16:47:48Z</time>
      </trkpt>
      <trkpt lat="45.28609" lon="5.81874">
        <ele>1392.6</ele>
        <time>2014-08-24T16:47:50Z</time>
      </trkpt>
      <trkpt lat="45.28596" lon="5.81867">
        <ele>1393.2</ele>
        <time>2014-08-24T16:47:53Z</time>
      </trkpt>
      <trkpt lat="45.28587" lon="5.81863">
        <ele>1393.1</ele>
        <time>2014-08-24T16:47:55Z</time>
      </trkpt>
      <trkpt lat="45.28578" lon="5.81858">
        <ele>1393.2</ele>
        <time>2014-08-24T16:47:57Z</time>
      </trkpt>
      <trkpt lat="45.2857" lon="5.81852">
        <ele>1392.7</ele>
        <time>2014-08-24T16:47:59Z</time>
      </trkpt>
      <trkpt lat="45.2856" lon="5.81846">
        <ele>1392.9</ele>
        <time>2014-08-24T16:48:01Z</time>
      </trkpt>
      <trkpt lat="45.28549" lon="5.81843">
        <ele>1392</ele>
        <time>2014-08-24T16:48:03Z</time>
      </trkpt>
      <trkpt lat="45.28538" lon="5.81842">
        <ele>1391.8</ele>
        <time>2014-08-24T16:48:05Z</time>
      </trkpt>
      <trkpt lat="45.28526" lon="5.81841">
        <ele>1389.9</ele>
        <time>2014-08-24T16:48:07Z</time>
      </trkpt>
      <trkpt lat="45.28515" lon="5.81836">
        <ele>1389.3</ele>
        <time>2014-08-24T16:48:09Z</time>
      </trkpt>
      <trkpt lat="45.28504" lon="5.8183">
        <ele>1389.5</ele>
        <time>2014-08-24T16:48:11Z</time>
      </trkpt>
      <trkpt lat="45.28493" lon="5.81822">
        <ele>1389</ele>
        <time>2014-08-24T16:48:13Z</time>
      </trkpt>
      <trkpt lat="45.28483" lon="5.81814">
        <ele>1389.3</ele>
        <time>2014-08-24T16:48:15Z</time>
      </trkpt>
      <trkpt lat="45.28473" lon="5.81806">
        <ele>1388.7</ele>
        <time>2014-08-24T16:48:17Z</time>
      </trkpt>
      <trkpt lat="45.28461" lon="5.81795">
        <ele>1387.5</ele>
        <time>2014-08-24T16:48:19Z</time>
      </trkpt>
      <trkpt lat="45.28449" lon="5.81784">
        <ele>1386.4</ele>
        <time>2014-08-24T16:48:21Z</time>
      </trkpt>
      <trkpt lat="45.28436" lon="5.81773">
        <ele>1385.7</ele>
        <time>2014-08-24T16:48:23Z</time>
      </trkpt>
      <trkpt lat="45.28422" lon="5.8176">
        <ele>1383.3</ele>
        <time>2014-08-24T16:48:25Z</time>
      </trkpt>
      <trkpt lat="45.28409" lon="5.81746">
        <ele>1382.8</ele>
        <time>2014-08-24T16:48:27Z</time>
      </trkpt>
      <trkpt lat="45.28395" lon="5.81735">
        <ele>1381.9</ele>
        <time>2014-08-24T16:48:29Z</time>
      </trkpt>
      <trkpt lat="45.2838" lon="5.81727">
        <ele>1382.3</ele>
        <time>2014-08-24T16:48:31Z</time>
      </trkpt>
      <trkpt lat="45.28365" lon="5.8172">
        <ele>1380.9</ele>
        <time>2014-08-24T16:48:33Z</time>
      </trkpt>
      <trkpt lat="45.28351" lon="5.81713">
        <ele>1379.5</ele>
        <time>2014-08-24T16:48:35Z</time>
      </trkpt>
      <trkpt lat="45.2834" lon="5.81707">
        <ele>1379.2</ele>
        <time>2014-08-24T16:48:37Z</time>
      </trkpt>
      <trkpt lat="45.28331" lon="5.81702">
        <ele>1379.3</ele>
        <time>2014-08-24T16:48:39Z</time>
      </trkpt>
      <trkpt lat="45.28322" lon="5.81697">
        <ele>1379.1</ele>
        <time>2014-08-24T16:48:42Z</time>
      </trkpt>
      <trkpt lat="45.28312" lon="5.8169">
        <ele>1380.1</ele>
        <time>2014-08-24T16:48:46Z</time>
      </trkpt>
      <trkpt lat="45.28301" lon="5.81684">
        <ele>1381</ele>
        <time>2014-08-24T16:48:50Z</time>
      </trkpt>
      <trkpt lat="45.2829" lon="5.81678">
        <ele>1381.9</ele>
        <time>2014-08-24T16:48:54Z</time>
      </trkpt>
      <trkpt lat="45.28281" lon="5.81673">
        <ele>1382.6</ele>
        <time>2014-08-24T16:48:57Z</time>
      </trkpt>
      <trkpt lat="45.28273" lon="5.81664">
        <ele>1383.5</ele>
        <time>2014-08-24T16:49:00Z</time>
      </trkpt>
      <trkpt lat="45.28267" lon="5.81653">
        <ele>1383.6</ele>
        <time>2014-08-24T16:49:03Z</time>
      </trkpt>
      <trkpt lat="45.28262" lon="5.8164">
        <ele>1384.1</ele>
        <time>2014-08-24T16:49:06Z</time>
      </trkpt>
      <trkpt lat="45.28262" lon="5.81628">
        <ele>1384.2</ele>
        <time>2014-08-24T16:49:09Z</time>
      </trkpt>
      <trkpt lat="45.28263" lon="5.81612">
        <ele>1383.6</ele>
        <time>2014-08-24T16:49:12Z</time>
      </trkpt>
      <trkpt lat="45.28263" lon="5.81597">
        <ele>1383.6</ele>
        <time>2014-08-24T16:49:15Z</time>
      </trkpt>
      <trkpt lat="45.28267" lon="5.81584">
        <ele>1383.3</ele>
        <time>2014-08-24T16:49:18Z</time>
      </trkpt>
      <trkpt lat="45.28272" lon="5.81572">
        <ele>1383.4</ele>
        <time>2014-08-24T16:49:22Z</time>
      </trkpt>
      <trkpt lat="45.2828" lon="5.81562">
        <ele>1384.6</ele>
        <time>2014-08-24T16:49:27Z</time>
      </trkpt>
      <trkpt lat="45.28289" lon="5.81555">
        <ele>1385.3</ele>
        <time>2014-08-24T16:49:32Z</time>
      </trkpt>
      <trkpt lat="45.28296" lon="5.81546">
        <ele>1386.3</ele>
        <time>2014-08-24T16:49:37Z</time>
      </trkpt>
      <trkpt lat="45.28302" lon="5.81536">
        <ele>1387.2</ele>
        <time>2014-08-24T16:49:42Z</time>
      </trkpt>
      <trkpt lat="45.28299" lon="5.81523">
        <ele>1387.8</ele>
        <time>2014-08-24T16:49:47Z</time>
      </trkpt>
      <trkpt lat="45.28296" lon="5.81511">
        <ele>1387.9</ele>
        <time>2014-08-24T16:49:52Z</time>
      </trkpt>
      <trkpt lat="45.28299" lon="5.81498">
        <ele>1388.4</ele>
        <time>2014-08-24T16:49:57Z</time>
      </trkpt>
      <trkpt lat="45.28306" lon="5.81488">
        <ele>1389.8</ele>
        <time>2014-08-24T16:50:03Z</time>
      </trkpt>
      <trkpt lat="45.28312" lon="5.81478">
        <ele>1390.5</ele>
        <time>2014-08-24T16:50:09Z</time>
      </trkpt>
      <trkpt lat="45.28319" lon="5.81469">
        <ele>1390.8</ele>
        <time>2014-08-24T16:50:14Z</time>
      </trkpt>
      <trkpt lat="45.28328" lon="5.81462">
        <ele>1391.2</ele>
        <time>2014-08-24T16:50:20Z</time>
      </trkpt>
      <trkpt lat="45.28337" lon="5.81456">
        <ele>1391.1</ele>
        <time>2014-08-24T16:50:25Z</time>
      </trkpt>
      <trkpt lat="45.28347" lon="5.81451">
        <ele>1391.2</ele>
        <time>2014-08-24T16:50:30Z</time>
      </trkpt>
      <trkpt lat="45.28354" lon="5.81443">
        <ele>1391.9</ele>
        <time>2014-08-24T16:50:35Z</time>
      </trkpt>
      <trkpt lat="45.28362" lon="5.81434">
        <ele>1393.1</ele>
        <time>2014-08-24T16:50:41Z</time>
      </trkpt>
      <trkpt lat="45.28368" lon="5.81422">
        <ele>1394.3</ele>
        <time>2014-08-24T16:50:47Z</time>
      </trkpt>
      <trkpt lat="45.28374" lon="5.8141">
        <ele>1395.5</ele>
        <time>2014-08-24T16:50:53Z</time>
      </trkpt>
      <trkpt lat="45.28379" lon="5.81398">
        <ele>1396.4</ele>
        <time>2014-08-24T16:50:59Z</time>
      </trkpt>
      <trkpt lat="45.28384" lon="5.81386">
        <ele>1398</ele>
        <time>2014-08-24T16:51:05Z</time>
      </trkpt>
      <trkpt lat="45.28387" lon="5.81373">
        <ele>1399.6</ele>
        <time>2014-08-24T16:51:10Z</time>
      </trkpt>
      <trkpt lat="45.28391" lon="5.81361">
        <ele>1400.5</ele>
        <time>2014-08-24T16:51:16Z</time>
      </trkpt>
      <trkpt lat="45.28395" lon="5.81348">
        <ele>1401.1</ele>
        <time>2014-08-24T16:51:22Z</time>
      </trkpt>
      <trkpt lat="45.28399" lon="5.81336">
        <ele>1401.9</ele>
        <time>2014-08-24T16:51:28Z</time>
      </trkpt>
      <trkpt lat="45.28403" lon="5.81323">
        <ele>1402.4</ele>
        <time>2014-08-24T16:51:34Z</time>
      </trkpt>
      <trkpt lat="45.28404" lon="5.81309">
        <ele>1403.6</ele>
        <time>2014-08-24T16:51:40Z</time>
      </trkpt>
      <trkpt lat="45.28406" lon="5.81295">
        <ele>1404.6</ele>
        <time>2014-08-24T16:51:46Z</time>
      </trkpt>
      <trkpt lat="45.28408" lon="5.81281">
        <ele>1404.7</ele>
        <time>2014-08-24T16:51:52Z</time>
      </trkpt>
      <trkpt lat="45.28411" lon="5.81266">
        <ele>1404.4</ele>
        <time>2014-08-24T16:51:56Z</time>
      </trkpt>
      <trkpt lat="45.28414" lon="5.81252">
        <ele>1404.6</ele>
        <time>2014-08-24T16:52:02Z</time>
      </trkpt>
      <trkpt lat="45.28417" lon="5.81239">
        <ele>1405.4</ele>
        <time>2014-08-24T16:52:08Z</time>
      </trkpt>
      <trkpt lat="45.28421" lon="5.81227">
        <ele>1406.8</ele>
        <time>2014-08-24T16:52:15Z</time>
      </trkpt>
      <trkpt lat="45.28426" lon="5.81214">
        <ele>1408.5</ele>
        <time>2014-08-24T16:52:22Z</time>
      </trkpt>
      <trkpt lat="45.2843" lon="5.81202">
        <ele>1409.7</ele>
        <time>2014-08-24T16:52:29Z</time>
      </trkpt>
      <trkpt lat="45.28435" lon="5.81189">
        <ele>1411</ele>
        <time>2014-08-24T16:52:36Z</time>
      </trkpt>
      <trkpt lat="45.28439" lon="5.81176">
        <ele>1412.3</ele>
        <time>2014-08-24T16:52:43Z</time>
      </trkpt>
      <trkpt lat="45.28441" lon="5.81163">
        <ele>1413.2</ele>
        <time>2014-08-24T16:52:50Z</time>
      </trkpt>
      <trkpt lat="45.28433" lon="5.81155">
        <ele>1414.6</ele>
        <time>2014-08-24T16:52:57Z</time>
      </trkpt>
      <trkpt lat="45.28424" lon="5.81153">
        <ele>1416.2</ele>
        <time>2014-08-24T16:53:05Z</time>
      </trkpt>
      <trkpt lat="45.28415" lon="5.81148">
        <ele>1417.8</ele>
        <time>2014-08-24T16:53:16Z</time>
      </trkpt>
      <trkpt lat="45.28407" lon="5.81136">
        <ele>1417.9</ele>
        <time>2014-08-24T16:54:22Z</time>
      </trkpt>
      <trkpt lat="45.28398" lon="5.81127">
        <ele>1417.7</ele>
        <time>2014-08-24T16:54:26Z</time>
      </trkpt>
      <trkpt lat="45.28389" lon="5.81118">
        <ele>1418.1</ele>
        <time>2014-08-24T16:54:31Z</time>
      </trkpt>
      <trkpt lat="45.2838" lon="5.81109">
        <ele>1418.4</ele>
        <time>2014-08-24T16:54:35Z</time>
      </trkpt>
      <trkpt lat="45.2837" lon="5.81099">
        <ele>1418.2</ele>
        <time>2014-08-24T16:54:37Z</time>
      </trkpt>
      <trkpt lat="45.28361" lon="5.8109">
        <ele>1417.3</ele>
        <time>2014-08-24T16:54:41Z</time>
      </trkpt>
      <trkpt lat="45.28353" lon="5.81082">
        <ele>1417.5</ele>
        <time>2014-08-24T16:54:46Z</time>
      </trkpt>
      <trkpt lat="45.28346" lon="5.81075">
        <ele>1417.7</ele>
        <time>2014-08-24T16:54:49Z</time>
      </trkpt>
      <trkpt lat="45.28338" lon="5.81068">
        <ele>1417.7</ele>
        <time>2014-08-24T16:54:52Z</time>
      </trkpt>
      <trkpt lat="45.28328" lon="5.8106">
        <ele>1417.4</ele>
        <time>2014-08-24T16:54:56Z</time>
      </trkpt>
      <trkpt lat="45.28319" lon="5.81054">
        <ele>1416.9</ele>
        <time>2014-08-24T16:55:00Z</time>
      </trkpt>
      <trkpt lat="45.2831" lon="5.81048">
        <ele>1416.9</ele>
        <time>2014-08-24T16:55:11Z</time>
      </trkpt>
      <trkpt lat="45.28302" lon="5.81041">
        <ele>1417.1</ele>
        <time>2014-08-24T16:55:19Z</time>
      </trkpt>
      <trkpt lat="45.28295" lon="5.81031">
        <ele>1419.7</ele>
        <time>2014-08-24T16:55:31Z</time>
      </trkpt>
      <trkpt lat="45.28289" lon="5.8102">
        <ele>1421.1</ele>
        <time>2014-08-24T16:55:42Z</time>
      </trkpt>
      <trkpt lat="45.28288" lon="5.81007">
        <ele>1420.5</ele>
        <time>2014-08-24T16:55:51Z</time>
      </trkpt>
      <trkpt lat="45.28285" lon="5.80995">
        <ele>1417.7</ele>
        <time>2014-08-24T16:56:02Z</time>
      </trkpt>
      <trkpt lat="45.28279" lon="5.80985">
        <ele>1417.3</ele>
        <time>2014-08-24T16:56:11Z</time>
      </trkpt>
      <trkpt lat="45.28277" lon="5.80971">
        <ele>1416.9</ele>
        <time>2014-08-24T16:56:23Z</time>
      </trkpt>
      <trkpt lat="45.28274" lon="5.80959">
        <ele>1416.1</ele>
        <time>2014-08-24T16:56:31Z</time>
      </trkpt>
      <trkpt lat="45.28269" lon="5.80947">
        <ele>1415.5</ele>
        <time>2014-08-24T16:56:39Z</time>
      </trkpt>
      <trkpt lat="45.28265" lon="5.80935">
        <ele>1414.5</ele>
        <time>2014-08-24T16:56:58Z</time>
      </trkpt>
      <trkpt lat="45.28264" lon="5.80921">
        <ele>1413.9</ele>
        <time>2014-08-24T16:57:02Z</time>
      </trkpt>
      <trkpt lat="45.28264" lon="5.80906">
        <ele>1412.9</ele>
        <time>2014-08-24T16:57:07Z</time>
      </trkpt>
      <trkpt lat="45.28264" lon="5.80893">
        <ele>1412.7</ele>
        <time>2014-08-24T16:57:12Z</time>
      </trkpt>
      <trkpt lat="45.28262" lon="5.8088">
        <ele>1412.3</ele>
        <time>2014-08-24T16:57:16Z</time>
      </trkpt>
      <trkpt lat="45.28258" lon="5.80868">
        <ele>1412</ele>
        <time>2014-08-24T16:57:21Z</time>
      </trkpt>
      <trkpt lat="45.28258" lon="5.80854">
        <ele>1412.4</ele>
        <time>2014-08-24T16:57:28Z</time>
      </trkpt>
      <trkpt lat="45.28258" lon="5.8084">
        <ele>1412.8</ele>
        <time>2014-08-24T16:57:33Z</time>
      </trkpt>
      <trkpt lat="45.28254" lon="5.80827">
        <ele>1413.6</ele>
        <time>2014-08-24T16:57:38Z</time>
      </trkpt>
      <trkpt lat="45.28252" lon="5.80812">
        <ele>1415.2</ele>
        <time>2014-08-24T16:57:46Z</time>
      </trkpt>
      <trkpt lat="45.28249" lon="5.80799">
        <ele>1415.5</ele>
        <time>2014-08-24T16:57:52Z</time>
      </trkpt>
      <trkpt lat="45.28248" lon="5.80785">
        <ele>1416.7</ele>
        <time>2014-08-24T16:58:01Z</time>
      </trkpt>
      <trkpt lat="45.28244" lon="5.80774">
        <ele>1417.4</ele>
        <time>2014-08-24T16:58:11Z</time>
      </trkpt>
      <trkpt lat="45.28239" lon="5.80763">
        <ele>1419.3</ele>
        <time>2014-08-24T16:58:21Z</time>
      </trkpt>
      <trkpt lat="45.28233" lon="5.80753">
        <ele>1420.5</ele>
        <time>2014-08-24T16:58:30Z</time>
      </trkpt>
      <trkpt lat="45.28228" lon="5.80742">
        <ele>1421.1</ele>
        <time>2014-08-24T16:58:39Z</time>
      </trkpt>
      <trkpt lat="45.28231" lon="5.8073">
        <ele>1422.3</ele>
        <time>2014-08-24T16:58:48Z</time>
      </trkpt>
      <trkpt lat="45.28236" lon="5.80717">
        <ele>1423.9</ele>
        <time>2014-08-24T16:58:59Z</time>
      </trkpt>
      <trkpt lat="45.28235" lon="5.80704">
        <ele>1424.4</ele>
        <time>2014-08-24T16:59:18Z</time>
      </trkpt>
      <trkpt lat="45.2824" lon="5.80692">
        <ele>1423.1</ele>
        <time>2014-08-24T16:59:26Z</time>
      </trkpt>
      <trkpt lat="45.28245" lon="5.80682">
        <ele>1420.7</ele>
        <time>2014-08-24T16:59:31Z</time>
      </trkpt>
      <trkpt lat="45.28252" lon="5.80669">
        <ele>1418.2</ele>
        <time>2014-08-24T16:59:36Z</time>
      </trkpt>
      <trkpt lat="45.28256" lon="5.80656">
        <ele>1417.1</ele>
        <time>2014-08-24T16:59:41Z</time>
      </trkpt>
      <trkpt lat="45.28261" lon="5.80644">
        <ele>1416.4</ele>
        <time>2014-08-24T16:59:45Z</time>
      </trkpt>
      <trkpt lat="45.28261" lon="5.80631">
        <ele>1415.9</ele>
        <time>2014-08-24T16:59:54Z</time>
      </trkpt>
      <trkpt lat="45.28264" lon="5.80618">
        <ele>1417.9</ele>
        <time>2014-08-24T17:00:10Z</time>
      </trkpt>
      <trkpt lat="45.28269" lon="5.80608">
        <ele>1417.9</ele>
        <time>2014-08-24T17:00:19Z</time>
      </trkpt>
      <trkpt lat="45.28277" lon="5.80599">
        <ele>1416.6</ele>
        <time>2014-08-24T17:00:29Z</time>
      </trkpt>
      <trkpt lat="45.28284" lon="5.80589">
        <ele>1416</ele>
        <time>2014-08-24T17:00:36Z</time>
      </trkpt>
      <trkpt lat="45.2829" lon="5.80578">
        <ele>1416</ele>
        <time>2014-08-24T17:00:41Z</time>
      </trkpt>
      <trkpt lat="45.28298" lon="5.80566">
        <ele>1416.5</ele>
        <time>2014-08-24T17:00:46Z</time>
      </trkpt>
      <trkpt lat="45.28306" lon="5.80553">
        <ele>1415.6</ele>
        <time>2014-08-24T17:00:50Z</time>
      </trkpt>
      <trkpt lat="45.28312" lon="5.8054">
        <ele>1415.2</ele>
        <time>2014-08-24T17:00:55Z</time>
      </trkpt>
      <trkpt lat="45.28315" lon="5.80526">
        <ele>1414.7</ele>
        <time>2014-08-24T17:01:00Z</time>
      </trkpt>
      <trkpt lat="45.28321" lon="5.80514">
        <ele>1414</ele>
        <time>2014-08-24T17:01:04Z</time>
      </trkpt>
      <trkpt lat="45.28324" lon="5.805">
        <ele>1413.5</ele>
        <time>2014-08-24T17:01:09Z</time>
      </trkpt>
      <trkpt lat="45.28332" lon="5.80488">
        <ele>1411.7</ele>
        <time>2014-08-24T17:01:14Z</time>
      </trkpt>
      <trkpt lat="45.2834" lon="5.8048">
        <ele>1410.9</ele>
        <time>2014-08-24T17:01:19Z</time>
      </trkpt>
      <trkpt lat="45.28346" lon="5.8047">
        <ele>1409.3</ele>
        <time>2014-08-24T17:01:23Z</time>
      </trkpt>
      <trkpt lat="45.28352" lon="5.80459">
        <ele>1407.2</ele>
        <time>2014-08-24T17:01:27Z</time>
      </trkpt>
      <trkpt lat="45.28349" lon="5.80446">
        <ele>1401.7</ele>
        <time>2014-08-24T17:01:41Z</time>
      </trkpt>
      <trkpt lat="45.28359" lon="5.80439">
        <ele>1398.8</ele>
        <time>2014-08-24T17:01:50Z</time>
      </trkpt>
      <trkpt lat="45.28368" lon="5.80432">
        <ele>1396.4</ele>
        <time>2014-08-24T17:01:54Z</time>
      </trkpt>
      <trkpt lat="45.2838" lon="5.8043">
        <ele>1394.5</ele>
        <time>2014-08-24T17:01:58Z</time>
      </trkpt>
      <trkpt lat="45.28387" lon="5.8042">
        <ele>1390.3</ele>
        <time>2014-08-24T17:02:12Z</time>
      </trkpt>
      <trkpt lat="45.28377" lon="5.80415">
        <ele>1387.7</ele>
        <time>2014-08-24T17:02:33Z</time>
      </trkpt>
      <trkpt lat="45.28373" lon="5.80403">
        <ele>1382</ele>
        <time>2014-08-24T17:02:55Z</time>
      </trkpt>
      <trkpt lat="45.28378" lon="5.80392">
        <ele>1376.8</ele>
        <time>2014-08-24T17:03:27Z</time>
      </trkpt>
      <trkpt lat="45.28372" lon="5.80381">
        <ele>1375.3</ele>
        <time>2014-08-24T17:04:10Z</time>
      </trkpt>
      <trkpt lat="45.28372" lon="5.80368">
        <ele>1374.7</ele>
        <time>2014-08-24T17:04:16Z</time>
      </trkpt>
      <trkpt lat="45.28369" lon="5.80354">
        <ele>1373.1</ele>
        <time>2014-08-24T17:04:19Z</time>
      </trkpt>
      <trkpt lat="45.28365" lon="5.80337">
        <ele>1371.3</ele>
        <time>2014-08-24T17:04:22Z</time>
      </trkpt>
      <trkpt lat="45.28368" lon="5.80323">
        <ele>1370.7</ele>
        <time>2014-08-24T17:04:26Z</time>
      </trkpt>
      <trkpt lat="45.28374" lon="5.80311">
        <ele>1369.4</ele>
        <time>2014-08-24T17:04:31Z</time>
      </trkpt>
      <trkpt lat="45.28378" lon="5.80297">
        <ele>1366.2</ele>
        <time>2014-08-24T17:04:36Z</time>
      </trkpt>
      <trkpt lat="45.2838" lon="5.80283">
        <ele>1363.9</ele>
        <time>2014-08-24T17:04:39Z</time>
      </trkpt>
      <trkpt lat="45.28385" lon="5.80265">
        <ele>1361.5</ele>
        <time>2014-08-24T17:04:43Z</time>
      </trkpt>
      <trkpt lat="45.28391" lon="5.80253">
        <ele>1358.8</ele>
        <time>2014-08-24T17:04:47Z</time>
      </trkpt>
      <trkpt lat="45.28393" lon="5.80237">
        <ele>1357.3</ele>
        <time>2014-08-24T17:04:50Z</time>
      </trkpt>
      <trkpt lat="45.28391" lon="5.80223">
        <ele>1355.4</ele>
        <time>2014-08-24T17:04:54Z</time>
      </trkpt>
      <trkpt lat="45.28381" lon="5.80226">
        <ele>1353</ele>
        <time>2014-08-24T17:04:59Z</time>
      </trkpt>
      <trkpt lat="45.28372" lon="5.80231">
        <ele>1351.9</ele>
        <time>2014-08-24T17:05:02Z</time>
      </trkpt>
      <trkpt lat="45.28361" lon="5.80238">
        <ele>1350.3</ele>
        <time>2014-08-24T17:05:06Z</time>
      </trkpt>
      <trkpt lat="45.28352" lon="5.80246">
        <ele>1347.8</ele>
        <time>2014-08-24T17:05:10Z</time>
      </trkpt>
      <trkpt lat="45.28345" lon="5.80255">
        <ele>1346.9</ele>
        <time>2014-08-24T17:05:13Z</time>
      </trkpt>
      <trkpt lat="45.28336" lon="5.8026">
        <ele>1345.9</ele>
        <time>2014-08-24T17:05:17Z</time>
      </trkpt>
      <trkpt lat="45.28327" lon="5.80261">
        <ele>1345.1</ele>
        <time>2014-08-24T17:05:24Z</time>
      </trkpt>
      <trkpt lat="45.28317" lon="5.80261">
        <ele>1344.1</ele>
        <time>2014-08-24T17:05:29Z</time>
      </trkpt>
      <trkpt lat="45.28307" lon="5.80262">
        <ele>1343.3</ele>
        <time>2014-08-24T17:05:33Z</time>
      </trkpt>
      <trkpt lat="45.28296" lon="5.80262">
        <ele>1342.1</ele>
        <time>2014-08-24T17:05:37Z</time>
      </trkpt>
      <trkpt lat="45.28287" lon="5.80253">
        <ele>1340.1</ele>
        <time>2014-08-24T17:05:41Z</time>
      </trkpt>
      <trkpt lat="45.28277" lon="5.80247">
        <ele>1337</ele>
        <time>2014-08-24T17:05:53Z</time>
      </trkpt>
      <trkpt lat="45.28268" lon="5.80243">
        <ele>1336.1</ele>
        <time>2014-08-24T17:05:56Z</time>
      </trkpt>
      <trkpt lat="45.28258" lon="5.80238">
        <ele>1334.9</ele>
        <time>2014-08-24T17:05:58Z</time>
      </trkpt>
      <trkpt lat="45.28248" lon="5.80232">
        <ele>1333.5</ele>
        <time>2014-08-24T17:06:00Z</time>
      </trkpt>
      <trkpt lat="45.28238" lon="5.8023">
        <ele>1332.3</ele>
        <time>2014-08-24T17:06:02Z</time>
      </trkpt>
      <trkpt lat="45.28226" lon="5.80226">
        <ele>1330.1</ele>
        <time>2014-08-24T17:06:05Z</time>
      </trkpt>
      <trkpt lat="45.28216" lon="5.80226">
        <ele>1329.2</ele>
        <time>2014-08-24T17:06:07Z</time>
      </trkpt>
      <trkpt lat="45.28205" lon="5.80226">
        <ele>1328.7</ele>
        <time>2014-08-24T17:06:09Z</time>
      </trkpt>
      <trkpt lat="45.28193" lon="5.80227">
        <ele>1327.1</ele>
        <time>2014-08-24T17:06:11Z</time>
      </trkpt>
      <trkpt lat="45.28182" lon="5.80231">
        <ele>1325.2</ele>
        <time>2014-08-24T17:06:13Z</time>
      </trkpt>
      <trkpt lat="45.2817" lon="5.80236">
        <ele>1322.1</ele>
        <time>2014-08-24T17:06:15Z</time>
      </trkpt>
      <trkpt lat="45.28158" lon="5.80241">
        <ele>1320</ele>
        <time>2014-08-24T17:06:17Z</time>
      </trkpt>
      <trkpt lat="45.28145" lon="5.80246">
        <ele>1315.6</ele>
        <time>2014-08-24T17:06:19Z</time>
      </trkpt>
      <trkpt lat="45.2813" lon="5.80254">
        <ele>1313.6</ele>
        <time>2014-08-24T17:06:21Z</time>
      </trkpt>
      <trkpt lat="45.28117" lon="5.80258">
        <ele>1310.9</ele>
        <time>2014-08-24T17:06:23Z</time>
      </trkpt>
      <trkpt lat="45.28106" lon="5.80256">
        <ele>1309</ele>
        <time>2014-08-24T17:06:25Z</time>
      </trkpt>
      <trkpt lat="45.28095" lon="5.8025">
        <ele>1306.5</ele>
        <time>2014-08-24T17:06:27Z</time>
      </trkpt>
      <trkpt lat="45.28084" lon="5.80242">
        <ele>1304.4</ele>
        <time>2014-08-24T17:06:29Z</time>
      </trkpt>
      <trkpt lat="45.28072" lon="5.80235">
        <ele>1301.6</ele>
        <time>2014-08-24T17:06:31Z</time>
      </trkpt>
      <trkpt lat="45.28061" lon="5.8023">
        <ele>1300</ele>
        <time>2014-08-24T17:06:33Z</time>
      </trkpt>
      <trkpt lat="45.28049" lon="5.80227">
        <ele>1297.1</ele>
        <time>2014-08-24T17:06:36Z</time>
      </trkpt>
      <trkpt lat="45.2804" lon="5.80226">
        <ele>1295.2</ele>
        <time>2014-08-24T17:06:38Z</time>
      </trkpt>
      <trkpt lat="45.2803" lon="5.80225">
        <ele>1291</ele>
        <time>2014-08-24T17:06:40Z</time>
      </trkpt>
      <trkpt lat="45.2802" lon="5.80226">
        <ele>1289.8</ele>
        <time>2014-08-24T17:06:42Z</time>
      </trkpt>
      <trkpt lat="45.28011" lon="5.80225">
        <ele>1288.9</ele>
        <time>2014-08-24T17:06:44Z</time>
      </trkpt>
      <trkpt lat="45.28002" lon="5.80221">
        <ele>1287</ele>
        <time>2014-08-24T17:06:46Z</time>
      </trkpt>
      <trkpt lat="45.27993" lon="5.80214">
        <ele>1284.4</ele>
        <time>2014-08-24T17:06:49Z</time>
      </trkpt>
      <trkpt lat="45.27984" lon="5.80205">
        <ele>1280.3</ele>
        <time>2014-08-24T17:07:16Z</time>
      </trkpt>
      <trkpt lat="45.27974" lon="5.80198">
        <ele>1278.5</ele>
        <time>2014-08-24T17:07:19Z</time>
      </trkpt>
      <trkpt lat="45.27967" lon="5.8019">
        <ele>1278</ele>
        <time>2014-08-24T17:07:21Z</time>
      </trkpt>
      <trkpt lat="45.27959" lon="5.80182">
        <ele>1277.7</ele>
        <time>2014-08-24T17:07:23Z</time>
      </trkpt>
      <trkpt lat="45.2795" lon="5.80173">
        <ele>1277.3</ele>
        <time>2014-08-24T17:07:26Z</time>
      </trkpt>
      <trkpt lat="45.27941" lon="5.8016">
        <ele>1275.1</ele>
        <time>2014-08-24T17:07:29Z</time>
      </trkpt>
      <trkpt lat="45.27934" lon="5.8015">
        <ele>1273.9</ele>
        <time>2014-08-24T17:07:32Z</time>
      </trkpt>
      <trkpt lat="45.27929" lon="5.80137">
        <ele>1272.7</ele>
        <time>2014-08-24T17:07:36Z</time>
      </trkpt>
      <trkpt lat="45.27922" lon="5.80125">
        <ele>1271.7</ele>
        <time>2014-08-24T17:07:40Z</time>
      </trkpt>
      <trkpt lat="45.27913" lon="5.80117">
        <ele>1272.6</ele>
        <time>2014-08-24T17:07:49Z</time>
      </trkpt>
      <trkpt lat="45.27906" lon="5.80105">
        <ele>1272.5</ele>
        <time>2014-08-24T17:07:56Z</time>
      </trkpt>
      <trkpt lat="45.27895" lon="5.80099">
        <ele>1272.6</ele>
        <time>2014-08-24T17:08:00Z</time>
      </trkpt>
      <trkpt lat="45.27886" lon="5.80098">
        <ele>1271.9</ele>
        <time>2014-08-24T17:08:03Z</time>
      </trkpt>
      <trkpt lat="45.27877" lon="5.80102">
        <ele>1273.8</ele>
        <time>2014-08-24T17:08:10Z</time>
      </trkpt>
      <trkpt lat="45.27868" lon="5.80104">
        <ele>1275.1</ele>
        <time>2014-08-24T17:08:16Z</time>
      </trkpt>
      <trkpt lat="45.27858" lon="5.80104">
        <ele>1276.5</ele>
        <time>2014-08-24T17:08:21Z</time>
      </trkpt>
      <trkpt lat="45.27848" lon="5.80099">
        <ele>1278.2</ele>
        <time>2014-08-24T17:08:27Z</time>
      </trkpt>
      <trkpt lat="45.27839" lon="5.80094">
        <ele>1279</ele>
        <time>2014-08-24T17:08:33Z</time>
      </trkpt>
      <trkpt lat="45.27831" lon="5.80087">
        <ele>1279.5</ele>
        <time>2014-08-24T17:08:38Z</time>
      </trkpt>
      <trkpt lat="45.27819" lon="5.80084">
        <ele>1279.8</ele>
        <time>2014-08-24T17:08:42Z</time>
      </trkpt>
      <trkpt lat="45.27808" lon="5.8008">
        <ele>1279.6</ele>
        <time>2014-08-24T17:08:46Z</time>
      </trkpt>
      <trkpt lat="45.27797" lon="5.80074">
        <ele>1278.6</ele>
        <time>2014-08-24T17:08:49Z</time>
      </trkpt>
      <trkpt lat="45.27788" lon="5.80067">
        <ele>1278.3</ele>
        <time>2014-08-24T17:08:51Z</time>
      </trkpt>
      <trkpt lat="45.27779" lon="5.80064">
        <ele>1277.7</ele>
        <time>2014-08-24T17:08:53Z</time>
      </trkpt>
      <trkpt lat="45.27767" lon="5.80064">
        <ele>1277.3</ele>
        <time>2014-08-24T17:08:56Z</time>
      </trkpt>
      <trkpt lat="45.27756" lon="5.80059">
        <ele>1276.1</ele>
        <time>2014-08-24T17:08:59Z</time>
      </trkpt>
      <trkpt lat="45.27746" lon="5.80056">
        <ele>1275</ele>
        <time>2014-08-24T17:09:01Z</time>
      </trkpt>
      <trkpt lat="45.27736" lon="5.80051">
        <ele>1273.9</ele>
        <time>2014-08-24T17:09:03Z</time>
      </trkpt>
      <trkpt lat="45.27727" lon="5.80042">
        <ele>1272.1</ele>
        <time>2014-08-24T17:09:06Z</time>
      </trkpt>
      <trkpt lat="45.27718" lon="5.80032">
        <ele>1271.2</ele>
        <time>2014-08-24T17:09:09Z</time>
      </trkpt>
      <trkpt lat="45.27708" lon="5.80021">
        <ele>1269.3</ele>
        <time>2014-08-24T17:09:12Z</time>
      </trkpt>
      <trkpt lat="45.27697" lon="5.80016">
        <ele>1268</ele>
        <time>2014-08-24T17:09:14Z</time>
      </trkpt>
      <trkpt lat="45.27685" lon="5.80007">
        <ele>1265.9</ele>
        <time>2014-08-24T17:09:16Z</time>
      </trkpt>
      <trkpt lat="45.27674" lon="5.79995">
        <ele>1264.8</ele>
        <time>2014-08-24T17:09:18Z</time>
      </trkpt>
      <trkpt lat="45.27666" lon="5.79983">
        <ele>1262.9</ele>
        <time>2014-08-24T17:09:20Z</time>
      </trkpt>
      <trkpt lat="45.27664" lon="5.79967">
        <ele>1262</ele>
        <time>2014-08-24T17:09:22Z</time>
      </trkpt>
      <trkpt lat="45.27663" lon="5.79947">
        <ele>1259.9</ele>
        <time>2014-08-24T17:09:24Z</time>
      </trkpt>
      <trkpt lat="45.27665" lon="5.7993">
        <ele>1258.5</ele>
        <time>2014-08-24T17:09:26Z</time>
      </trkpt>
      <trkpt lat="45.27664" lon="5.79912">
        <ele>1257.9</ele>
        <time>2014-08-24T17:09:28Z</time>
      </trkpt>
      <trkpt lat="45.27667" lon="5.79895">
        <ele>1257.3</ele>
        <time>2014-08-24T17:09:30Z</time>
      </trkpt>
      <trkpt lat="45.27667" lon="5.79878">
        <ele>1254.8</ele>
        <time>2014-08-24T17:09:32Z</time>
      </trkpt>
      <trkpt lat="45.27664" lon="5.79864">
        <ele>1254.5</ele>
        <time>2014-08-24T17:09:34Z</time>
      </trkpt>
      <trkpt lat="45.27664" lon="5.79849">
        <ele>1254.7</ele>
        <time>2014-08-24T17:09:41Z</time>
      </trkpt>
      <trkpt lat="45.27665" lon="5.79835">
        <ele>1256.6</ele>
        <time>2014-08-24T17:09:47Z</time>
      </trkpt>
      <trkpt lat="45.27664" lon="5.79822">
        <ele>1258.2</ele>
        <time>2014-08-24T17:09:53Z</time>
      </trkpt>
      <trkpt lat="45.27661" lon="5.79809">
        <ele>1260</ele>
        <time>2014-08-24T17:09:59Z</time>
      </trkpt>
      <trkpt lat="45.27655" lon="5.79797">
        <ele>1261.8</ele>
        <time>2014-08-24T17:10:06Z</time>
      </trkpt>
      <trkpt lat="45.27648" lon="5.79788">
        <ele>1263.3</ele>
        <time>2014-08-24T17:10:14Z</time>
      </trkpt>
      <trkpt lat="45.27638" lon="5.79783">
        <ele>1262.9</ele>
        <time>2014-08-24T17:10:18Z</time>
      </trkpt>
      <trkpt lat="45.27627" lon="5.79779">
        <ele>1263</ele>
        <time>2014-08-24T17:10:21Z</time>
      </trkpt>
      <trkpt lat="45.27617" lon="5.79777">
        <ele>1262.2</ele>
        <time>2014-08-24T17:10:23Z</time>
      </trkpt>
      <trkpt lat="45.27606" lon="5.79775">
        <ele>1261.9</ele>
        <time>2014-08-24T17:10:25Z</time>
      </trkpt>
      <trkpt lat="45.27593" lon="5.79771">
        <ele>1261</ele>
        <time>2014-08-24T17:10:27Z</time>
      </trkpt>
      <trkpt lat="45.27581" lon="5.7977">
        <ele>1259.7</ele>
        <time>2014-08-24T17:10:29Z</time>
      </trkpt>
      <trkpt lat="45.27568" lon="5.79766">
        <ele>1258.8</ele>
        <time>2014-08-24T17:10:31Z</time>
      </trkpt>
      <trkpt lat="45.27556" lon="5.79766">
        <ele>1258.1</ele>
        <time>2014-08-24T17:10:33Z</time>
      </trkpt>
      <trkpt lat="45.27545" lon="5.79766">
        <ele>1257.2</ele>
        <time>2014-08-24T17:10:35Z</time>
      </trkpt>
      <trkpt lat="45.27534" lon="5.79758">
        <ele>1256.2</ele>
        <time>2014-08-24T17:10:37Z</time>
      </trkpt>
      <trkpt lat="45.27524" lon="5.79749">
        <ele>1254.8</ele>
        <time>2014-08-24T17:10:39Z</time>
      </trkpt>
      <trkpt lat="45.2751" lon="5.79743">
        <ele>1253.4</ele>
        <time>2014-08-24T17:10:41Z</time>
      </trkpt>
      <trkpt lat="45.27495" lon="5.79742">
        <ele>1252.7</ele>
        <time>2014-08-24T17:10:43Z</time>
      </trkpt>
      <trkpt lat="45.27481" lon="5.79746">
        <ele>1252.1</ele>
        <time>2014-08-24T17:10:45Z</time>
      </trkpt>
      <trkpt lat="45.2747" lon="5.79755">
        <ele>1251.3</ele>
        <time>2014-08-24T17:10:47Z</time>
      </trkpt>
      <trkpt lat="45.2746" lon="5.79764">
        <ele>1250.2</ele>
        <time>2014-08-24T17:10:49Z</time>
      </trkpt>
      <trkpt lat="45.27448" lon="5.79773">
        <ele>1249.9</ele>
        <time>2014-08-24T17:10:51Z</time>
      </trkpt>
      <trkpt lat="45.27435" lon="5.79778">
        <ele>1249.2</ele>
        <time>2014-08-24T17:10:53Z</time>
      </trkpt>
      <trkpt lat="45.27419" lon="5.79786">
        <ele>1248.5</ele>
        <time>2014-08-24T17:10:55Z</time>
      </trkpt>
      <trkpt lat="45.27405" lon="5.79797">
        <ele>1247.7</ele>
        <time>2014-08-24T17:10:57Z</time>
      </trkpt>
      <trkpt lat="45.27393" lon="5.79807">
        <ele>1246.2</ele>
        <time>2014-08-24T17:10:59Z</time>
      </trkpt>
      <trkpt lat="45.2738" lon="5.79815">
        <ele>1244.5</ele>
        <time>2014-08-24T17:11:01Z</time>
      </trkpt>
      <trkpt lat="45.27367" lon="5.79822">
        <ele>1243.6</ele>
        <time>2014-08-24T17:11:03Z</time>
      </trkpt>
      <trkpt lat="45.27353" lon="5.79827">
        <ele>1241.7</ele>
        <time>2014-08-24T17:11:05Z</time>
      </trkpt>
      <trkpt lat="45.27337" lon="5.79824">
        <ele>1240</ele>
        <time>2014-08-24T17:11:07Z</time>
      </trkpt>
      <trkpt lat="45.27322" lon="5.79817">
        <ele>1238.8</ele>
        <time>2014-08-24T17:11:09Z</time>
      </trkpt>
      <trkpt lat="45.27308" lon="5.79808">
        <ele>1237</ele>
        <time>2014-08-24T17:11:11Z</time>
      </trkpt>
      <trkpt lat="45.27296" lon="5.798">
        <ele>1235.6</ele>
        <time>2014-08-24T17:11:13Z</time>
      </trkpt>
      <trkpt lat="45.27283" lon="5.79792">
        <ele>1234</ele>
        <time>2014-08-24T17:11:15Z</time>
      </trkpt>
      <trkpt lat="45.27268" lon="5.79788">
        <ele>1232</ele>
        <time>2014-08-24T17:11:17Z</time>
      </trkpt>
      <trkpt lat="45.27251" lon="5.79785">
        <ele>1231.1</ele>
        <time>2014-08-24T17:11:19Z</time>
      </trkpt>
      <trkpt lat="45.27234" lon="5.79783">
        <ele>1229.9</ele>
        <time>2014-08-24T17:11:21Z</time>
      </trkpt>
      <trkpt lat="45.27219" lon="5.7978">
        <ele>1229</ele>
        <time>2014-08-24T17:11:23Z</time>
      </trkpt>
      <trkpt lat="45.27203" lon="5.79776">
        <ele>1228.1</ele>
        <time>2014-08-24T17:11:25Z</time>
      </trkpt>
      <trkpt lat="45.27189" lon="5.79769">
        <ele>1226.6</ele>
        <time>2014-08-24T17:11:27Z</time>
      </trkpt>
      <trkpt lat="45.27177" lon="5.7976">
        <ele>1225.4</ele>
        <time>2014-08-24T17:11:29Z</time>
      </trkpt>
      <trkpt lat="45.27167" lon="5.79752">
        <ele>1224.3</ele>
        <time>2014-08-24T17:11:31Z</time>
      </trkpt>
      <trkpt lat="45.2716" lon="5.79743">
        <ele>1223.6</ele>
        <time>2014-08-24T17:11:33Z</time>
      </trkpt>
      <trkpt lat="45.27152" lon="5.79732">
        <ele>1223.4</ele>
        <time>2014-08-24T17:11:35Z</time>
      </trkpt>
      <trkpt lat="45.27142" lon="5.7972">
        <ele>1222.1</ele>
        <time>2014-08-24T17:11:37Z</time>
      </trkpt>
      <trkpt lat="45.27132" lon="5.79705">
        <ele>1221.2</ele>
        <time>2014-08-24T17:11:39Z</time>
      </trkpt>
      <trkpt lat="45.27124" lon="5.79688">
        <ele>1220.2</ele>
        <time>2014-08-24T17:11:41Z</time>
      </trkpt>
      <trkpt lat="45.27118" lon="5.79671">
        <ele>1218.8</ele>
        <time>2014-08-24T17:11:43Z</time>
      </trkpt>
      <trkpt lat="45.27112" lon="5.79655">
        <ele>1216.9</ele>
        <time>2014-08-24T17:11:45Z</time>
      </trkpt>
      <trkpt lat="45.27106" lon="5.7964">
        <ele>1215.8</ele>
        <time>2014-08-24T17:11:47Z</time>
      </trkpt>
      <trkpt lat="45.27101" lon="5.79624">
        <ele>1215</ele>
        <time>2014-08-24T17:11:49Z</time>
      </trkpt>
      <trkpt lat="45.271" lon="5.79607">
        <ele>1213.9</ele>
        <time>2014-08-24T17:11:51Z</time>
      </trkpt>
      <trkpt lat="45.27098" lon="5.79588">
        <ele>1212.3</ele>
        <time>2014-08-24T17:11:53Z</time>
      </trkpt>
      <trkpt lat="45.27093" lon="5.79571">
        <ele>1210.6</ele>
        <time>2014-08-24T17:11:55Z</time>
      </trkpt>
      <trkpt lat="45.27088" lon="5.79557">
        <ele>1209.3</ele>
        <time>2014-08-24T17:11:57Z</time>
      </trkpt>
      <trkpt lat="45.27082" lon="5.79543">
        <ele>1208.1</ele>
        <time>2014-08-24T17:11:59Z</time>
      </trkpt>
      <trkpt lat="45.27079" lon="5.79525">
        <ele>1206.5</ele>
        <time>2014-08-24T17:12:01Z</time>
      </trkpt>
      <trkpt lat="45.27076" lon="5.79508">
        <ele>1205.8</ele>
        <time>2014-08-24T17:12:03Z</time>
      </trkpt>
      <trkpt lat="45.27073" lon="5.7949">
        <ele>1204.5</ele>
        <time>2014-08-24T17:12:05Z</time>
      </trkpt>
      <trkpt lat="45.27066" lon="5.79471">
        <ele>1202.2</ele>
        <time>2014-08-24T17:12:07Z</time>
      </trkpt>
      <trkpt lat="45.2706" lon="5.79451">
        <ele>1200.2</ele>
        <time>2014-08-24T17:12:09Z</time>
      </trkpt>
      <trkpt lat="45.27057" lon="5.7943">
        <ele>1198.9</ele>
        <time>2014-08-24T17:12:11Z</time>
      </trkpt>
      <trkpt lat="45.27055" lon="5.79407">
        <ele>1197.4</ele>
        <time>2014-08-24T17:12:13Z</time>
      </trkpt>
      <trkpt lat="45.27054" lon="5.79385">
        <ele>1196.3</ele>
        <time>2014-08-24T17:12:15Z</time>
      </trkpt>
      <trkpt lat="45.27054" lon="5.79367">
        <ele>1194.8</ele>
        <time>2014-08-24T17:12:17Z</time>
      </trkpt>
      <trkpt lat="45.27051" lon="5.79354">
        <ele>1193.3</ele>
        <time>2014-08-24T17:12:19Z</time>
      </trkpt>
      <trkpt lat="45.27042" lon="5.79342">
        <ele>1192.4</ele>
        <time>2014-08-24T17:12:22Z</time>
      </trkpt>
      <trkpt lat="45.27032" lon="5.79336">
        <ele>1191.6</ele>
        <time>2014-08-24T17:12:25Z</time>
      </trkpt>
      <trkpt lat="45.27023" lon="5.79332">
        <ele>1190.8</ele>
        <time>2014-08-24T17:12:27Z</time>
      </trkpt>
      <trkpt lat="45.27012" lon="5.79329">
        <ele>1190.1</ele>
        <time>2014-08-24T17:12:29Z</time>
      </trkpt>
      <trkpt lat="45.27004" lon="5.79326">
        <ele>1189.9</ele>
        <time>2014-08-24T17:12:31Z</time>
      </trkpt>
      <trkpt lat="45.26994" lon="5.79323">
        <ele>1190.3</ele>
        <time>2014-08-24T17:12:34Z</time>
      </trkpt>
      <trkpt lat="45.26983" lon="5.79323">
        <ele>1190.6</ele>
        <time>2014-08-24T17:12:38Z</time>
      </trkpt>
      <trkpt lat="45.26972" lon="5.79328">
        <ele>1191.4</ele>
        <time>2014-08-24T17:12:42Z</time>
      </trkpt>
      <trkpt lat="45.26962" lon="5.79333">
        <ele>1191.4</ele>
        <time>2014-08-24T17:12:46Z</time>
      </trkpt>
      <trkpt lat="45.26952" lon="5.7934">
        <ele>1191.9</ele>
        <time>2014-08-24T17:12:50Z</time>
      </trkpt>
      <trkpt lat="45.26944" lon="5.79347">
        <ele>1192.2</ele>
        <time>2014-08-24T17:12:53Z</time>
      </trkpt>
      <trkpt lat="45.26936" lon="5.79354">
        <ele>1192.6</ele>
        <time>2014-08-24T17:12:56Z</time>
      </trkpt>
      <trkpt lat="45.26927" lon="5.79359">
        <ele>1193</ele>
        <time>2014-08-24T17:12:59Z</time>
      </trkpt>
      <trkpt lat="45.26918" lon="5.79363">
        <ele>1192.8</ele>
        <time>2014-08-24T17:13:02Z</time>
      </trkpt>
      <trkpt lat="45.26909" lon="5.79368">
        <ele>1193.1</ele>
        <time>2014-08-24T17:13:05Z</time>
      </trkpt>
      <trkpt lat="45.26898" lon="5.79371">
        <ele>1193.9</ele>
        <time>2014-08-24T17:13:09Z</time>
      </trkpt>
      <trkpt lat="45.26888" lon="5.79369">
        <ele>1194.3</ele>
        <time>2014-08-24T17:13:13Z</time>
      </trkpt>
      <trkpt lat="45.26877" lon="5.79368">
        <ele>1193.9</ele>
        <time>2014-08-24T17:13:16Z</time>
      </trkpt>
      <trkpt lat="45.26864" lon="5.79364">
        <ele>1193.9</ele>
        <time>2014-08-24T17:13:19Z</time>
      </trkpt>
      <trkpt lat="45.26855" lon="5.7936">
        <ele>1194.2</ele>
        <time>2014-08-24T17:13:21Z</time>
      </trkpt>
      <trkpt lat="45.26844" lon="5.79352">
        <ele>1193.3</ele>
        <time>2014-08-24T17:13:23Z</time>
      </trkpt>
      <trkpt lat="45.26832" lon="5.79338">
        <ele>1193.2</ele>
        <time>2014-08-24T17:13:25Z</time>
      </trkpt>
      <trkpt lat="45.26821" lon="5.79323">
        <ele>1192.7</ele>
        <time>2014-08-24T17:13:27Z</time>
      </trkpt>
      <trkpt lat="45.26808" lon="5.79305">
        <ele>1191.2</ele>
        <time>2014-08-24T17:13:29Z</time>
      </trkpt>
      <trkpt lat="45.268" lon="5.79296">
        <ele>1189.9</ele>
        <time>2014-08-24T17:13:30Z</time>
      </trkpt>
      <trkpt lat="45.26794" lon="5.79287">
        <ele>1188.9</ele>
        <time>2014-08-24T17:13:31Z</time>
      </trkpt>
      <trkpt lat="45.26782" lon="5.7927">
        <ele>1186.8</ele>
        <time>2014-08-24T17:13:33Z</time>
      </trkpt>
      <trkpt lat="45.26771" lon="5.79252">
        <ele>1184.1</ele>
        <time>2014-08-24T17:13:35Z</time>
      </trkpt>
      <trkpt lat="45.26762" lon="5.79232">
        <ele>1183.8</ele>
        <time>2014-08-24T17:13:37Z</time>
      </trkpt>
      <trkpt lat="45.26755" lon="5.79209">
        <ele>1182.6</ele>
        <time>2014-08-24T17:13:39Z</time>
      </trkpt>
      <trkpt lat="45.2675" lon="5.79198">
        <ele>1182.7</ele>
        <time>2014-08-24T17:13:40Z</time>
      </trkpt>
      <trkpt lat="45.2674" lon="5.79179">
        <ele>1181.6</ele>
        <time>2014-08-24T17:13:42Z</time>
      </trkpt>
      <trkpt lat="45.26731" lon="5.79163">
        <ele>1180.8</ele>
        <time>2014-08-24T17:13:44Z</time>
      </trkpt>
      <trkpt lat="45.26724" lon="5.79146">
        <ele>1180.6</ele>
        <time>2014-08-24T17:13:46Z</time>
      </trkpt>
      <trkpt lat="45.26718" lon="5.79126">
        <ele>1179.5</ele>
        <time>2014-08-24T17:13:48Z</time>
      </trkpt>
      <trkpt lat="45.26713" lon="5.79108">
        <ele>1179.8</ele>
        <time>2014-08-24T17:13:50Z</time>
      </trkpt>
      <trkpt lat="45.26709" lon="5.79089">
        <ele>1178.8</ele>
        <time>2014-08-24T17:13:52Z</time>
      </trkpt>
      <trkpt lat="45.26703" lon="5.79072">
        <ele>1177</ele>
        <time>2014-08-24T17:13:54Z</time>
      </trkpt>
      <trkpt lat="45.26698" lon="5.79054">
        <ele>1176.4</ele>
        <time>2014-08-24T17:13:56Z</time>
      </trkpt>
      <trkpt lat="45.26691" lon="5.79036">
        <ele>1175.2</ele>
        <time>2014-08-24T17:13:58Z</time>
      </trkpt>
      <trkpt lat="45.26684" lon="5.79017">
        <ele>1173.9</ele>
        <time>2014-08-24T17:14:00Z</time>
      </trkpt>
      <trkpt lat="45.26677" lon="5.78998">
        <ele>1172.9</ele>
        <time>2014-08-24T17:14:02Z</time>
      </trkpt>
      <trkpt lat="45.26671" lon="5.78979">
        <ele>1171.6</ele>
        <time>2014-08-24T17:14:04Z</time>
      </trkpt>
      <trkpt lat="45.26664" lon="5.78957">
        <ele>1170.3</ele>
        <time>2014-08-24T17:14:06Z</time>
      </trkpt>
      <trkpt lat="45.26657" lon="5.78934">
        <ele>1168.6</ele>
        <time>2014-08-24T17:14:08Z</time>
      </trkpt>
      <trkpt lat="45.2665" lon="5.78912">
        <ele>1167.7</ele>
        <time>2014-08-24T17:14:10Z</time>
      </trkpt>
      <trkpt lat="45.26645" lon="5.78892">
        <ele>1167</ele>
        <time>2014-08-24T17:14:12Z</time>
      </trkpt>
      <trkpt lat="45.26638" lon="5.78874">
        <ele>1166</ele>
        <time>2014-08-24T17:14:14Z</time>
      </trkpt>
      <trkpt lat="45.26634" lon="5.78854">
        <ele>1164.1</ele>
        <time>2014-08-24T17:14:16Z</time>
      </trkpt>
      <trkpt lat="45.26629" lon="5.78835">
        <ele>1162.7</ele>
        <time>2014-08-24T17:14:18Z</time>
      </trkpt>
      <trkpt lat="45.26623" lon="5.7882">
        <ele>1161.4</ele>
        <time>2014-08-24T17:14:20Z</time>
      </trkpt>
      <trkpt lat="45.26617" lon="5.78806">
        <ele>1160.2</ele>
        <time>2014-08-24T17:14:22Z</time>
      </trkpt>
      <trkpt lat="45.26609" lon="5.7879">
        <ele>1157.1</ele>
        <time>2014-08-24T17:14:24Z</time>
      </trkpt>
      <trkpt lat="45.266" lon="5.78775">
        <ele>1156.7</ele>
        <time>2014-08-24T17:14:26Z</time>
      </trkpt>
      <trkpt lat="45.2659" lon="5.78755">
        <ele>1155</ele>
        <time>2014-08-24T17:14:28Z</time>
      </trkpt>
      <trkpt lat="45.26581" lon="5.78733">
        <ele>1154.1</ele>
        <time>2014-08-24T17:14:30Z</time>
      </trkpt>
      <trkpt lat="45.26574" lon="5.78711">
        <ele>1152.7</ele>
        <time>2014-08-24T17:14:32Z</time>
      </trkpt>
      <trkpt lat="45.26566" lon="5.7869">
        <ele>1150.2</ele>
        <time>2014-08-24T17:14:34Z</time>
      </trkpt>
      <trkpt lat="45.26559" lon="5.78669">
        <ele>1149.8</ele>
        <time>2014-08-24T17:14:36Z</time>
      </trkpt>
      <trkpt lat="45.26552" lon="5.78646">
        <ele>1148.5</ele>
        <time>2014-08-24T17:14:38Z</time>
      </trkpt>
      <trkpt lat="45.26544" lon="5.78623">
        <ele>1146.9</ele>
        <time>2014-08-24T17:14:40Z</time>
      </trkpt>
      <trkpt lat="45.26538" lon="5.78601">
        <ele>1145.7</ele>
        <time>2014-08-24T17:14:42Z</time>
      </trkpt>
      <trkpt lat="45.26535" lon="5.7858">
        <ele>1144.1</ele>
        <time>2014-08-24T17:14:44Z</time>
      </trkpt>
      <trkpt lat="45.26535" lon="5.78557">
        <ele>1142.5</ele>
        <time>2014-08-24T17:14:46Z</time>
      </trkpt>
      <trkpt lat="45.26537" lon="5.78535">
        <ele>1140.8</ele>
        <time>2014-08-24T17:14:48Z</time>
      </trkpt>
      <trkpt lat="45.26537" lon="5.78514">
        <ele>1139.9</ele>
        <time>2014-08-24T17:14:50Z</time>
      </trkpt>
      <trkpt lat="45.26537" lon="5.78497">
        <ele>1139.2</ele>
        <time>2014-08-24T17:14:52Z</time>
      </trkpt>
      <trkpt lat="45.2654" lon="5.78484">
        <ele>1138.2</ele>
        <time>2014-08-24T17:14:54Z</time>
      </trkpt>
      <trkpt lat="45.26538" lon="5.78471">
        <ele>1134.7</ele>
        <time>2014-08-24T17:15:04Z</time>
      </trkpt>
      <trkpt lat="45.2653" lon="5.78462">
        <ele>1133.8</ele>
        <time>2014-08-24T17:15:07Z</time>
      </trkpt>
      <trkpt lat="45.26522" lon="5.78452">
        <ele>1132.2</ele>
        <time>2014-08-24T17:15:09Z</time>
      </trkpt>
      <trkpt lat="45.26515" lon="5.78441">
        <ele>1130.7</ele>
        <time>2014-08-24T17:15:11Z</time>
      </trkpt>
      <trkpt lat="45.26509" lon="5.7843">
        <ele>1129.3</ele>
        <time>2014-08-24T17:15:13Z</time>
      </trkpt>
      <trkpt lat="45.26502" lon="5.78419">
        <ele>1127.7</ele>
        <time>2014-08-24T17:15:15Z</time>
      </trkpt>
      <trkpt lat="45.26493" lon="5.78406">
        <ele>1125.8</ele>
        <time>2014-08-24T17:15:17Z</time>
      </trkpt>
      <trkpt lat="45.26484" lon="5.78392">
        <ele>1124</ele>
        <time>2014-08-24T17:15:19Z</time>
      </trkpt>
      <trkpt lat="45.26475" lon="5.78377">
        <ele>1120.7</ele>
        <time>2014-08-24T17:15:21Z</time>
      </trkpt>
      <trkpt lat="45.26467" lon="5.78363">
        <ele>1118.9</ele>
        <time>2014-08-24T17:15:23Z</time>
      </trkpt>
      <trkpt lat="45.2646" lon="5.78353">
        <ele>1117.6</ele>
        <time>2014-08-24T17:15:25Z</time>
      </trkpt>
      <trkpt lat="45.26451" lon="5.78341">
        <ele>1116.2</ele>
        <time>2014-08-24T17:15:28Z</time>
      </trkpt>
      <trkpt lat="45.26442" lon="5.78336">
        <ele>1114.8</ele>
        <time>2014-08-24T17:15:30Z</time>
      </trkpt>
      <trkpt lat="45.26432" lon="5.78333">
        <ele>1114.6</ele>
        <time>2014-08-24T17:15:32Z</time>
      </trkpt>
      <trkpt lat="45.26422" lon="5.78328">
        <ele>1112.2</ele>
        <time>2014-08-24T17:15:34Z</time>
      </trkpt>
      <trkpt lat="45.26412" lon="5.7832">
        <ele>1110.1</ele>
        <time>2014-08-24T17:15:36Z</time>
      </trkpt>
      <trkpt lat="45.26403" lon="5.78312">
        <ele>1108</ele>
        <time>2014-08-24T17:15:38Z</time>
      </trkpt>
      <trkpt lat="45.26394" lon="5.78304">
        <ele>1105.8</ele>
        <time>2014-08-24T17:15:40Z</time>
      </trkpt>
      <trkpt lat="45.26383" lon="5.78299">
        <ele>1102.2</ele>
        <time>2014-08-24T17:15:42Z</time>
      </trkpt>
      <trkpt lat="45.26371" lon="5.78292">
        <ele>1099.6</ele>
        <time>2014-08-24T17:15:44Z</time>
      </trkpt>
      <trkpt lat="45.2636" lon="5.78283">
        <ele>1098</ele>
        <time>2014-08-24T17:15:46Z</time>
      </trkpt>
      <trkpt lat="45.2635" lon="5.78276">
        <ele>1097.4</ele>
        <time>2014-08-24T17:15:48Z</time>
      </trkpt>
      <trkpt lat="45.26339" lon="5.78268">
        <ele>1094.6</ele>
        <time>2014-08-24T17:15:50Z</time>
      </trkpt>
      <trkpt lat="45.26328" lon="5.78263">
        <ele>1094.4</ele>
        <time>2014-08-24T17:15:52Z</time>
      </trkpt>
      <trkpt lat="45.26316" lon="5.78255">
        <ele>1093.1</ele>
        <time>2014-08-24T17:15:54Z</time>
      </trkpt>
      <trkpt lat="45.26306" lon="5.78248">
        <ele>1090.8</ele>
        <time>2014-08-24T17:15:56Z</time>
      </trkpt>
      <trkpt lat="45.26297" lon="5.78242">
        <ele>1089.4</ele>
        <time>2014-08-24T17:15:58Z</time>
      </trkpt>
      <trkpt lat="45.26286" lon="5.78235">
        <ele>1087.6</ele>
        <time>2014-08-24T17:16:00Z</time>
      </trkpt>
      <trkpt lat="45.26276" lon="5.78227">
        <ele>1085.3</ele>
        <time>2014-08-24T17:16:02Z</time>
      </trkpt>
      <trkpt lat="45.26266" lon="5.78222">
        <ele>1083.2</ele>
        <time>2014-08-24T17:16:04Z</time>
      </trkpt>
      <trkpt lat="45.26254" lon="5.78215">
        <ele>1080.8</ele>
        <time>2014-08-24T17:16:07Z</time>
      </trkpt>
      <trkpt lat="45.26244" lon="5.78209">
        <ele>1079.4</ele>
        <time>2014-08-24T17:16:09Z</time>
      </trkpt>
      <trkpt lat="45.26234" lon="5.78202">
        <ele>1078.3</ele>
        <time>2014-08-24T17:16:11Z</time>
      </trkpt>
      <trkpt lat="45.26224" lon="5.78195">
        <ele>1076.6</ele>
        <time>2014-08-24T17:16:13Z</time>
      </trkpt>
      <trkpt lat="45.26214" lon="5.78188">
        <ele>1075.1</ele>
        <time>2014-08-24T17:16:15Z</time>
      </trkpt>
      <trkpt lat="45.26203" lon="5.78179">
        <ele>1074</ele>
        <time>2014-08-24T17:16:17Z</time>
      </trkpt>
      <trkpt lat="45.2619" lon="5.78165">
        <ele>1072.4</ele>
        <time>2014-08-24T17:16:19Z</time>
      </trkpt>
      <trkpt lat="45.26178" lon="5.78151">
        <ele>1070.5</ele>
        <time>2014-08-24T17:16:21Z</time>
      </trkpt>
      <trkpt lat="45.26165" lon="5.78139">
        <ele>1068.3</ele>
        <time>2014-08-24T17:16:23Z</time>
      </trkpt>
      <trkpt lat="45.26153" lon="5.78132">
        <ele>1066.3</ele>
        <time>2014-08-24T17:16:25Z</time>
      </trkpt>
      <trkpt lat="45.26144" lon="5.78126">
        <ele>1064.5</ele>
        <time>2014-08-24T17:16:27Z</time>
      </trkpt>
      <trkpt lat="45.26135" lon="5.78121">
        <ele>1062.1</ele>
        <time>2014-08-24T17:16:31Z</time>
      </trkpt>
      <trkpt lat="45.26133" lon="5.78107">
        <ele>1059.7</ele>
        <time>2014-08-24T17:18:33Z</time>
      </trkpt>
      <trkpt lat="45.2613" lon="5.78093">
        <ele>1058.5</ele>
        <time>2014-08-24T17:18:35Z</time>
      </trkpt>
      <trkpt lat="45.26123" lon="5.78081">
        <ele>1056.3</ele>
        <time>2014-08-24T17:18:37Z</time>
      </trkpt>
      <trkpt lat="45.26115" lon="5.78071">
        <ele>1053.1</ele>
        <time>2014-08-24T17:18:40Z</time>
      </trkpt>
      <trkpt lat="45.26108" lon="5.78061">
        <ele>1051.8</ele>
        <time>2014-08-24T17:18:43Z</time>
      </trkpt>
      <trkpt lat="45.261" lon="5.78052">
        <ele>1050.2</ele>
        <time>2014-08-24T17:18:46Z</time>
      </trkpt>
      <trkpt lat="45.26091" lon="5.78042">
        <ele>1046</ele>
        <time>2014-08-24T17:18:50Z</time>
      </trkpt>
      <trkpt lat="45.26081" lon="5.78034">
        <ele>1045.7</ele>
        <time>2014-08-24T17:18:53Z</time>
      </trkpt>
      <trkpt lat="45.2607" lon="5.78022">
        <ele>1044</ele>
        <time>2014-08-24T17:18:56Z</time>
      </trkpt>
      <trkpt lat="45.26062" lon="5.78016">
        <ele>1042.4</ele>
        <time>2014-08-24T17:18:58Z</time>
      </trkpt>
      <trkpt lat="45.26053" lon="5.7801">
        <ele>1039</ele>
        <time>2014-08-24T17:19:00Z</time>
      </trkpt>
      <trkpt lat="45.26044" lon="5.78">
        <ele>1037</ele>
        <time>2014-08-24T17:19:02Z</time>
      </trkpt>
      <trkpt lat="45.26035" lon="5.77991">
        <ele>1035.2</ele>
        <time>2014-08-24T17:19:04Z</time>
      </trkpt>
      <trkpt lat="45.26028" lon="5.77983">
        <ele>1033</ele>
        <time>2014-08-24T17:19:06Z</time>
      </trkpt>
      <trkpt lat="45.26018" lon="5.77969">
        <ele>1032.1</ele>
        <time>2014-08-24T17:19:08Z</time>
      </trkpt>
      <trkpt lat="45.26008" lon="5.77955">
        <ele>1030.9</ele>
        <time>2014-08-24T17:19:10Z</time>
      </trkpt>
      <trkpt lat="45.25997" lon="5.77941">
        <ele>1029.1</ele>
        <time>2014-08-24T17:19:12Z</time>
      </trkpt>
      <trkpt lat="45.25985" lon="5.77922">
        <ele>1026.7</ele>
        <time>2014-08-24T17:19:14Z</time>
      </trkpt>
      <trkpt lat="45.25974" lon="5.77904">
        <ele>1025.5</ele>
        <time>2014-08-24T17:19:16Z</time>
      </trkpt>
      <trkpt lat="45.25966" lon="5.77888">
        <ele>1024</ele>
        <time>2014-08-24T17:19:18Z</time>
      </trkpt>
      <trkpt lat="45.25958" lon="5.77875">
        <ele>1020.6</ele>
        <time>2014-08-24T17:19:20Z</time>
      </trkpt>
      <trkpt lat="45.2595" lon="5.77863">
        <ele>1019.3</ele>
        <time>2014-08-24T17:19:22Z</time>
      </trkpt>
      <trkpt lat="45.25943" lon="5.77852">
        <ele>1017.9</ele>
        <time>2014-08-24T17:19:24Z</time>
      </trkpt>
      <trkpt lat="45.2594" lon="5.77839">
        <ele>1016.2</ele>
        <time>2014-08-24T17:19:27Z</time>
      </trkpt>
      <trkpt lat="45.25948" lon="5.77826">
        <ele>1014.3</ele>
        <time>2014-08-24T17:19:31Z</time>
      </trkpt>
      <trkpt lat="45.25959" lon="5.7782">
        <ele>1013.5</ele>
        <time>2014-08-24T17:19:34Z</time>
      </trkpt>
      <trkpt lat="45.25972" lon="5.77814">
        <ele>1013.1</ele>
        <time>2014-08-24T17:19:37Z</time>
      </trkpt>
      <trkpt lat="45.2598" lon="5.77809">
        <ele>1013</ele>
        <time>2014-08-24T17:19:39Z</time>
      </trkpt>
      <trkpt lat="45.25987" lon="5.778">
        <ele>1012.8</ele>
        <time>2014-08-24T17:19:41Z</time>
      </trkpt>
      <trkpt lat="45.25993" lon="5.77789">
        <ele>1013.2</ele>
        <time>2014-08-24T17:19:43Z</time>
      </trkpt>
      <trkpt lat="45.25995" lon="5.77771">
        <ele>1013.9</ele>
        <time>2014-08-24T17:19:46Z</time>
      </trkpt>
      <trkpt lat="45.25994" lon="5.77753">
        <ele>1014.4</ele>
        <time>2014-08-24T17:19:49Z</time>
      </trkpt>
      <trkpt lat="45.25992" lon="5.77739">
        <ele>1014.7</ele>
        <time>2014-08-24T17:19:52Z</time>
      </trkpt>
      <trkpt lat="45.25988" lon="5.77727">
        <ele>1015</ele>
        <time>2014-08-24T17:19:59Z</time>
      </trkpt>
      <trkpt lat="45.25975" lon="5.77726">
        <ele>1014.5</ele>
        <time>2014-08-24T17:20:03Z</time>
      </trkpt>
      <trkpt lat="45.25964" lon="5.77724">
        <ele>1013.9</ele>
        <time>2014-08-24T17:20:05Z</time>
      </trkpt>
      <trkpt lat="45.25951" lon="5.77716">
        <ele>1012.9</ele>
        <time>2014-08-24T17:20:07Z</time>
      </trkpt>
      <trkpt lat="45.25937" lon="5.77706">
        <ele>1011.5</ele>
        <time>2014-08-24T17:20:09Z</time>
      </trkpt>
      <trkpt lat="45.25929" lon="5.77699">
        <ele>1011.1</ele>
        <time>2014-08-24T17:20:10Z</time>
      </trkpt>
      <trkpt lat="45.25921" lon="5.77692">
        <ele>1010.4</ele>
        <time>2014-08-24T17:20:11Z</time>
      </trkpt>
      <trkpt lat="45.25912" lon="5.77685">
        <ele>1009.7</ele>
        <time>2014-08-24T17:20:12Z</time>
      </trkpt>
      <trkpt lat="45.25903" lon="5.77679">
        <ele>1009</ele>
        <time>2014-08-24T17:20:13Z</time>
      </trkpt>
      <trkpt lat="45.25894" lon="5.77674">
        <ele>1008.2</ele>
        <time>2014-08-24T17:20:14Z</time>
      </trkpt>
      <trkpt lat="45.25885" lon="5.7767">
        <ele>1007.4</ele>
        <time>2014-08-24T17:20:15Z</time>
      </trkpt>
      <trkpt lat="45.25875" lon="5.77666">
        <ele>1006.7</ele>
        <time>2014-08-24T17:20:16Z</time>
      </trkpt>
      <trkpt lat="45.25865" lon="5.77662">
        <ele>1005.8</ele>
        <time>2014-08-24T17:20:17Z</time>
      </trkpt>
      <trkpt lat="45.25855" lon="5.77658">
        <ele>1005</ele>
        <time>2014-08-24T17:20:18Z</time>
      </trkpt>
      <trkpt lat="45.25845" lon="5.77653">
        <ele>1004.3</ele>
        <time>2014-08-24T17:20:19Z</time>
      </trkpt>
      <trkpt lat="45.25835" lon="5.77648">
        <ele>1003.5</ele>
        <time>2014-08-24T17:20:20Z</time>
      </trkpt>
      <trkpt lat="45.25825" lon="5.77643">
        <ele>1002.6</ele>
        <time>2014-08-24T17:20:21Z</time>
      </trkpt>
      <trkpt lat="45.25815" lon="5.77637">
        <ele>1001.8</ele>
        <time>2014-08-24T17:20:22Z</time>
      </trkpt>
      <trkpt lat="45.25805" lon="5.77631">
        <ele>1001</ele>
        <time>2014-08-24T17:20:23Z</time>
      </trkpt>
      <trkpt lat="45.25795" lon="5.77624">
        <ele>1000.2</ele>
        <time>2014-08-24T17:20:24Z</time>
      </trkpt>
      <trkpt lat="45.25785" lon="5.77616">
        <ele>999.2</ele>
        <time>2014-08-24T17:20:25Z</time>
      </trkpt>
      <trkpt lat="45.25776" lon="5.77609">
        <ele>998.3</ele>
        <time>2014-08-24T17:20:26Z</time>
      </trkpt>
      <trkpt lat="45.25766" lon="5.77602">
        <ele>997.5</ele>
        <time>2014-08-24T17:20:27Z</time>
      </trkpt>
      <trkpt lat="45.25756" lon="5.77595">
        <ele>996.6</ele>
        <time>2014-08-24T17:20:28Z</time>
      </trkpt>
      <trkpt lat="45.25746" lon="5.77588">
        <ele>995.9</ele>
        <time>2014-08-24T17:20:29Z</time>
      </trkpt>
      <trkpt lat="45.25736" lon="5.77582">
        <ele>994.9</ele>
        <time>2014-08-24T17:20:30Z</time>
      </trkpt>
      <trkpt lat="45.25726" lon="5.77575">
        <ele>998.2</ele>
        <time>2014-08-24T17:20:31Z</time>
      </trkpt>
      <trkpt lat="45.25716" lon="5.77569">
        <ele>998.6</ele>
        <time>2014-08-24T17:20:32Z</time>
      </trkpt>
      <trkpt lat="45.25707" lon="5.77563">
        <ele>997.5</ele>
        <time>2014-08-24T17:20:33Z</time>
      </trkpt>
      <trkpt lat="45.25697" lon="5.77557">
        <ele>995.6</ele>
        <time>2014-08-24T17:20:34Z</time>
      </trkpt>
      <trkpt lat="45.25688" lon="5.7755">
        <ele>994</ele>
        <time>2014-08-24T17:20:35Z</time>
      </trkpt>
      <trkpt lat="45.25678" lon="5.77545">
        <ele>992.6</ele>
        <time>2014-08-24T17:20:36Z</time>
      </trkpt>
      <trkpt lat="45.25668" lon="5.77539">
        <ele>991.4</ele>
        <time>2014-08-24T17:20:37Z</time>
      </trkpt>
      <trkpt lat="45.25659" lon="5.77534">
        <ele>990.1</ele>
        <time>2014-08-24T17:20:38Z</time>
      </trkpt>
      <trkpt lat="45.25648" lon="5.77529">
        <ele>989</ele>
        <time>2014-08-24T17:20:39Z</time>
      </trkpt>
      <trkpt lat="45.25638" lon="5.77524">
        <ele>988.2</ele>
        <time>2014-08-24T17:20:40Z</time>
      </trkpt>
      <trkpt lat="45.25629" lon="5.77519">
        <ele>987.1</ele>
        <time>2014-08-24T17:20:41Z</time>
      </trkpt>
      <trkpt lat="45.25619" lon="5.77512">
        <ele>986.2</ele>
        <time>2014-08-24T17:20:42Z</time>
      </trkpt>
      <trkpt lat="45.2561" lon="5.77504">
        <ele>985.2</ele>
        <time>2014-08-24T17:20:43Z</time>
      </trkpt>
      <trkpt lat="45.256" lon="5.77496">
        <ele>984.3</ele>
        <time>2014-08-24T17:20:44Z</time>
      </trkpt>
      <trkpt lat="45.25592" lon="5.77487">
        <ele>983.4</ele>
        <time>2014-08-24T17:20:45Z</time>
      </trkpt>
      <trkpt lat="45.25583" lon="5.77478">
        <ele>982.6</ele>
        <time>2014-08-24T17:20:46Z</time>
      </trkpt>
      <trkpt lat="45.25575" lon="5.77468">
        <ele>981.7</ele>
        <time>2014-08-24T17:20:47Z</time>
      </trkpt>
      <trkpt lat="45.25568" lon="5.77458">
        <ele>981.1</ele>
        <time>2014-08-24T17:20:48Z</time>
      </trkpt>
      <trkpt lat="45.25561" lon="5.77447">
        <ele>980.5</ele>
        <time>2014-08-24T17:20:49Z</time>
      </trkpt>
      <trkpt lat="45.25554" lon="5.77436">
        <ele>980</ele>
        <time>2014-08-24T17:20:50Z</time>
      </trkpt>
      <trkpt lat="45.25549" lon="5.77425">
        <ele>979.5</ele>
        <time>2014-08-24T17:20:51Z</time>
      </trkpt>
      <trkpt lat="45.25544" lon="5.77414">
        <ele>979.2</ele>
        <time>2014-08-24T17:20:52Z</time>
      </trkpt>
      <trkpt lat="45.25538" lon="5.77403">
        <ele>978.5</ele>
        <time>2014-08-24T17:20:53Z</time>
      </trkpt>
      <trkpt lat="45.25534" lon="5.77392">
        <ele>977.9</ele>
        <time>2014-08-24T17:20:54Z</time>
      </trkpt>
      <trkpt lat="45.25528" lon="5.77381">
        <ele>977.6</ele>
        <time>2014-08-24T17:20:55Z</time>
      </trkpt>
      <trkpt lat="45.25524" lon="5.7737">
        <ele>977.3</ele>
        <time>2014-08-24T17:20:56Z</time>
      </trkpt>
      <trkpt lat="45.25519" lon="5.77359">
        <ele>976.8</ele>
        <time>2014-08-24T17:20:57Z</time>
      </trkpt>
      <trkpt lat="45.25515" lon="5.77347">
        <ele>976.2</ele>
        <time>2014-08-24T17:20:58Z</time>
      </trkpt>
      <trkpt lat="45.25508" lon="5.77324">
        <ele>975.2</ele>
        <time>2014-08-24T17:21:00Z</time>
      </trkpt>
      <trkpt lat="45.255" lon="5.77301">
        <ele>974.6</ele>
        <time>2014-08-24T17:21:02Z</time>
      </trkpt>
      <trkpt lat="45.25493" lon="5.77278">
        <ele>973.7</ele>
        <time>2014-08-24T17:21:04Z</time>
      </trkpt>
      <trkpt lat="45.25486" lon="5.77256">
        <ele>973.2</ele>
        <time>2014-08-24T17:21:06Z</time>
      </trkpt>
      <trkpt lat="45.25478" lon="5.77234">
        <ele>972.4</ele>
        <time>2014-08-24T17:21:08Z</time>
      </trkpt>
      <trkpt lat="45.25473" lon="5.77212">
        <ele>971.8</ele>
        <time>2014-08-24T17:21:10Z</time>
      </trkpt>
      <trkpt lat="45.2547" lon="5.77189">
        <ele>971.1</ele>
        <time>2014-08-24T17:21:12Z</time>
      </trkpt>
      <trkpt lat="45.25469" lon="5.77166">
        <ele>970.1</ele>
        <time>2014-08-24T17:21:14Z</time>
      </trkpt>
      <trkpt lat="45.2547" lon="5.77146">
        <ele>969.4</ele>
        <time>2014-08-24T17:21:16Z</time>
      </trkpt>
      <trkpt lat="45.25467" lon="5.77133">
        <ele>968.4</ele>
        <time>2014-08-24T17:21:18Z</time>
      </trkpt>
      <trkpt lat="45.25458" lon="5.77128">
        <ele>967.7</ele>
        <time>2014-08-24T17:21:20Z</time>
      </trkpt>
      <trkpt lat="45.25448" lon="5.77123">
        <ele>967.8</ele>
        <time>2014-08-24T17:21:22Z</time>
      </trkpt>
      <trkpt lat="45.25438" lon="5.77119">
        <ele>967.6</ele>
        <time>2014-08-24T17:21:24Z</time>
      </trkpt>
      <trkpt lat="45.25428" lon="5.77113">
        <ele>967.1</ele>
        <time>2014-08-24T17:21:26Z</time>
      </trkpt>
      <trkpt lat="45.25419" lon="5.77108">
        <ele>967.2</ele>
        <time>2014-08-24T17:21:28Z</time>
      </trkpt>
      <trkpt lat="45.2541" lon="5.77101">
        <ele>967.7</ele>
        <time>2014-08-24T17:21:30Z</time>
      </trkpt>
      <trkpt lat="45.25399" lon="5.77094">
        <ele>968.8</ele>
        <time>2014-08-24T17:21:33Z</time>
      </trkpt>
      <trkpt lat="45.25389" lon="5.77089">
        <ele>969.6</ele>
        <time>2014-08-24T17:21:36Z</time>
      </trkpt>
      <trkpt lat="45.25378" lon="5.77087">
        <ele>970.4</ele>
        <time>2014-08-24T17:21:39Z</time>
      </trkpt>
      <trkpt lat="45.25369" lon="5.77083">
        <ele>971.1</ele>
        <time>2014-08-24T17:21:42Z</time>
      </trkpt>
      <trkpt lat="45.25359" lon="5.77079">
        <ele>971.8</ele>
        <time>2014-08-24T17:21:45Z</time>
      </trkpt>
      <trkpt lat="45.2535" lon="5.77075">
        <ele>972.7</ele>
        <time>2014-08-24T17:21:48Z</time>
      </trkpt>
      <trkpt lat="45.2534" lon="5.7707">
        <ele>973.8</ele>
        <time>2014-08-24T17:21:52Z</time>
      </trkpt>
      <trkpt lat="45.2533" lon="5.77064">
        <ele>974.8</ele>
        <time>2014-08-24T17:21:56Z</time>
      </trkpt>
      <trkpt lat="45.25321" lon="5.77062">
        <ele>975.1</ele>
        <time>2014-08-24T17:21:59Z</time>
      </trkpt>
      <trkpt lat="45.2531" lon="5.77058">
        <ele>975.3</ele>
        <time>2014-08-24T17:22:02Z</time>
      </trkpt>
      <trkpt lat="45.253" lon="5.77054">
        <ele>975.3</ele>
        <time>2014-08-24T17:22:05Z</time>
      </trkpt>
      <trkpt lat="45.25289" lon="5.77049">
        <ele>975.4</ele>
        <time>2014-08-24T17:22:08Z</time>
      </trkpt>
      <trkpt lat="45.25279" lon="5.77044">
        <ele>975.3</ele>
        <time>2014-08-24T17:22:11Z</time>
      </trkpt>
      <trkpt lat="45.25268" lon="5.77041">
        <ele>975.3</ele>
        <time>2014-08-24T17:22:14Z</time>
      </trkpt>
      <trkpt lat="45.25258" lon="5.77038">
        <ele>975.5</ele>
        <time>2014-08-24T17:22:17Z</time>
      </trkpt>
      <trkpt lat="45.25249" lon="5.77032">
        <ele>976.3</ele>
        <time>2014-08-24T17:22:20Z</time>
      </trkpt>
      <trkpt lat="45.25239" lon="5.77028">
        <ele>977</ele>
        <time>2014-08-24T17:22:23Z</time>
      </trkpt>
      <trkpt lat="45.2523" lon="5.77024">
        <ele>977.3</ele>
        <time>2014-08-24T17:22:26Z</time>
      </trkpt>
      <trkpt lat="45.25221" lon="5.7702">
        <ele>977.9</ele>
        <time>2014-08-24T17:22:29Z</time>
      </trkpt>
      <trkpt lat="45.25212" lon="5.77015">
        <ele>978.8</ele>
        <time>2014-08-24T17:22:32Z</time>
      </trkpt>
      <trkpt lat="45.25204" lon="5.77011">
        <ele>979.6</ele>
        <time>2014-08-24T17:22:35Z</time>
      </trkpt>
      <trkpt lat="45.25195" lon="5.77006">
        <ele>980.2</ele>
        <time>2014-08-24T17:22:38Z</time>
      </trkpt>
      <trkpt lat="45.25184" lon="5.77">
        <ele>981.3</ele>
        <time>2014-08-24T17:22:42Z</time>
      </trkpt>
      <trkpt lat="45.25176" lon="5.76996">
        <ele>981.8</ele>
        <time>2014-08-24T17:22:45Z</time>
      </trkpt>
      <trkpt lat="45.25167" lon="5.76991">
        <ele>982.1</ele>
        <time>2014-08-24T17:22:48Z</time>
      </trkpt>
      <trkpt lat="45.25158" lon="5.76987">
        <ele>982.4</ele>
        <time>2014-08-24T17:22:51Z</time>
      </trkpt>
      <trkpt lat="45.25149" lon="5.76982">
        <ele>982.8</ele>
        <time>2014-08-24T17:22:54Z</time>
      </trkpt>
      <trkpt lat="45.2514" lon="5.76978">
        <ele>983.1</ele>
        <time>2014-08-24T17:22:57Z</time>
      </trkpt>
      <trkpt lat="45.25131" lon="5.76973">
        <ele>983.9</ele>
        <time>2014-08-24T17:23:00Z</time>
      </trkpt>
      <trkpt lat="45.25122" lon="5.76967">
        <ele>984.3</ele>
        <time>2014-08-24T17:23:03Z</time>
      </trkpt>
      <trkpt lat="45.25111" lon="5.76962">
        <ele>984.7</ele>
        <time>2014-08-24T17:23:06Z</time>
      </trkpt>
      <trkpt lat="45.25102" lon="5.76955">
        <ele>984.5</ele>
        <time>2014-08-24T17:23:09Z</time>
      </trkpt>
      <trkpt lat="45.25091" lon="5.76949">
        <ele>984.6</ele>
        <time>2014-08-24T17:23:12Z</time>
      </trkpt>
      <trkpt lat="45.25081" lon="5.76943">
        <ele>984.7</ele>
        <time>2014-08-24T17:23:15Z</time>
      </trkpt>
      <trkpt lat="45.25072" lon="5.76934">
        <ele>985</ele>
        <time>2014-08-24T17:23:18Z</time>
      </trkpt>
      <trkpt lat="45.25063" lon="5.76923">
        <ele>985.3</ele>
        <time>2014-08-24T17:23:21Z</time>
      </trkpt>
      <trkpt lat="45.25054" lon="5.76912">
        <ele>985.5</ele>
        <time>2014-08-24T17:23:24Z</time>
      </trkpt>
      <trkpt lat="45.25046" lon="5.76902">
        <ele>986.2</ele>
        <time>2014-08-24T17:23:27Z</time>
      </trkpt>
      <trkpt lat="45.25037" lon="5.76893">
        <ele>986.4</ele>
        <time>2014-08-24T17:23:30Z</time>
      </trkpt>
      <trkpt lat="45.25028" lon="5.76884">
        <ele>986.7</ele>
        <time>2014-08-24T17:23:33Z</time>
      </trkpt>
      <trkpt lat="45.25018" lon="5.76876">
        <ele>987</ele>
        <time>2014-08-24T17:23:36Z</time>
      </trkpt>
      <trkpt lat="45.2501" lon="5.76866">
        <ele>987.3</ele>
        <time>2014-08-24T17:23:39Z</time>
      </trkpt>
      <trkpt lat="45.25002" lon="5.76857">
        <ele>987.6</ele>
        <time>2014-08-24T17:23:42Z</time>
      </trkpt>
      <trkpt lat="45.24993" lon="5.76849">
        <ele>987.8</ele>
        <time>2014-08-24T17:23:45Z</time>
      </trkpt>
      <trkpt lat="45.24984" lon="5.7684">
        <ele>988.2</ele>
        <time>2014-08-24T17:23:48Z</time>
      </trkpt>
      <trkpt lat="45.24974" lon="5.76832">
        <ele>988.2</ele>
        <time>2014-08-24T17:23:51Z</time>
      </trkpt>
      <trkpt lat="45.24964" lon="5.76828">
        <ele>988.7</ele>
        <time>2014-08-24T17:23:54Z</time>
      </trkpt>
      <trkpt lat="45.24954" lon="5.76826">
        <ele>989.9</ele>
        <time>2014-08-24T17:23:58Z</time>
      </trkpt>
      <trkpt lat="45.24945" lon="5.76824">
        <ele>991.1</ele>
        <time>2014-08-24T17:24:03Z</time>
      </trkpt>
      <trkpt lat="45.24934" lon="5.76823">
        <ele>992.4</ele>
        <time>2014-08-24T17:24:08Z</time>
      </trkpt>
      <trkpt lat="45.24924" lon="5.76823">
        <ele>993.9</ele>
        <time>2014-08-24T17:24:13Z</time>
      </trkpt>
      <trkpt lat="45.24914" lon="5.76825">
        <ele>994.9</ele>
        <time>2014-08-24T17:24:18Z</time>
      </trkpt>
      <trkpt lat="45.24905" lon="5.76827">
        <ele>995.8</ele>
        <time>2014-08-24T17:24:23Z</time>
      </trkpt>
      <trkpt lat="45.24895" lon="5.76828">
        <ele>997</ele>
        <time>2014-08-24T17:24:28Z</time>
      </trkpt>
      <trkpt lat="45.24886" lon="5.76831">
        <ele>998.3</ele>
        <time>2014-08-24T17:24:33Z</time>
      </trkpt>
      <trkpt lat="45.24877" lon="5.76833">
        <ele>999.6</ele>
        <time>2014-08-24T17:24:38Z</time>
      </trkpt>
      <trkpt lat="45.24868" lon="5.76835">
        <ele>1000.4</ele>
        <time>2014-08-24T17:24:43Z</time>
      </trkpt>
      <trkpt lat="45.24858" lon="5.7684">
        <ele>1001.5</ele>
        <time>2014-08-24T17:24:48Z</time>
      </trkpt>
      <trkpt lat="45.2485" lon="5.76846">
        <ele>1002.8</ele>
        <time>2014-08-24T17:24:53Z</time>
      </trkpt>
      <trkpt lat="45.24842" lon="5.76852">
        <ele>1003.8</ele>
        <time>2014-08-24T17:24:58Z</time>
      </trkpt>
      <trkpt lat="45.24833" lon="5.76858">
        <ele>1005</ele>
        <time>2014-08-24T17:25:03Z</time>
      </trkpt>
      <trkpt lat="45.24824" lon="5.7686">
        <ele>1006</ele>
        <time>2014-08-24T17:25:08Z</time>
      </trkpt>
      <trkpt lat="45.24814" lon="5.76862">
        <ele>1007.4</ele>
        <time>2014-08-24T17:25:13Z</time>
      </trkpt>
      <trkpt lat="45.24805" lon="5.76867">
        <ele>1008.6</ele>
        <time>2014-08-24T17:25:18Z</time>
      </trkpt>
      <trkpt lat="45.24796" lon="5.76873">
        <ele>1009.9</ele>
        <time>2014-08-24T17:25:23Z</time>
      </trkpt>
      <trkpt lat="45.24787" lon="5.76882">
        <ele>1011.2</ele>
        <time>2014-08-24T17:25:28Z</time>
      </trkpt>
      <trkpt lat="45.2478" lon="5.7689">
        <ele>1012.2</ele>
        <time>2014-08-24T17:25:33Z</time>
      </trkpt>
      <trkpt lat="45.24772" lon="5.76897">
        <ele>1013.2</ele>
        <time>2014-08-24T17:25:38Z</time>
      </trkpt>
      <trkpt lat="45.24764" lon="5.76905">
        <ele>1014.4</ele>
        <time>2014-08-24T17:25:43Z</time>
      </trkpt>
      <trkpt lat="45.24757" lon="5.76913">
        <ele>1015.4</ele>
        <time>2014-08-24T17:25:48Z</time>
      </trkpt>
      <trkpt lat="45.2475" lon="5.76921">
        <ele>1016.4</ele>
        <time>2014-08-24T17:25:53Z</time>
      </trkpt>
      <trkpt lat="45.24742" lon="5.76928">
        <ele>1017.6</ele>
        <time>2014-08-24T17:25:58Z</time>
      </trkpt>
      <trkpt lat="45.24732" lon="5.76932">
        <ele>1018.6</ele>
        <time>2014-08-24T17:26:03Z</time>
      </trkpt>
      <trkpt lat="45.24724" lon="5.76938">
        <ele>1019.9</ele>
        <time>2014-08-24T17:26:08Z</time>
      </trkpt>
      <trkpt lat="45.24716" lon="5.76944">
        <ele>1021.1</ele>
        <time>2014-08-24T17:26:13Z</time>
      </trkpt>
      <trkpt lat="45.24707" lon="5.76949">
        <ele>1022.3</ele>
        <time>2014-08-24T17:26:18Z</time>
      </trkpt>
      <trkpt lat="45.24699" lon="5.76957">
        <ele>1023.4</ele>
        <time>2014-08-24T17:26:23Z</time>
      </trkpt>
      <trkpt lat="45.24691" lon="5.76963">
        <ele>1024.4</ele>
        <time>2014-08-24T17:26:28Z</time>
      </trkpt>
      <trkpt lat="45.24683" lon="5.7697">
        <ele>1025.3</ele>
        <time>2014-08-24T17:26:33Z</time>
      </trkpt>
      <trkpt lat="45.24675" lon="5.76977">
        <ele>1026.7</ele>
        <time>2014-08-24T17:26:38Z</time>
      </trkpt>
      <trkpt lat="45.24666" lon="5.76982">
        <ele>1027.8</ele>
        <time>2014-08-24T17:26:43Z</time>
      </trkpt>
      <trkpt lat="45.24656" lon="5.76983">
        <ele>1029.1</ele>
        <time>2014-08-24T17:26:48Z</time>
      </trkpt>
      <trkpt lat="45.24647" lon="5.76986">
        <ele>1030.4</ele>
        <time>2014-08-24T17:26:53Z</time>
      </trkpt>
      <trkpt lat="45.24637" lon="5.76986">
        <ele>1031.5</ele>
        <time>2014-08-24T17:26:58Z</time>
      </trkpt>
      <trkpt lat="45.24627" lon="5.76987">
        <ele>1032.8</ele>
        <time>2014-08-24T17:27:03Z</time>
      </trkpt>
      <trkpt lat="45.24617" lon="5.76987">
        <ele>1034.1</ele>
        <time>2014-08-24T17:27:08Z</time>
      </trkpt>
      <trkpt lat="45.24608" lon="5.76988">
        <ele>1034.7</ele>
        <time>2014-08-24T17:27:13Z</time>
      </trkpt>
      <trkpt lat="45.24598" lon="5.76988">
        <ele>1036.1</ele>
        <time>2014-08-24T17:27:18Z</time>
      </trkpt>
      <trkpt lat="45.24589" lon="5.7699">
        <ele>1037.3</ele>
        <time>2014-08-24T17:27:23Z</time>
      </trkpt>
      <trkpt lat="45.24579" lon="5.76989">
        <ele>1038.4</ele>
        <time>2014-08-24T17:27:28Z</time>
      </trkpt>
      <trkpt lat="45.24569" lon="5.76987">
        <ele>1039.6</ele>
        <time>2014-08-24T17:27:33Z</time>
      </trkpt>
      <trkpt lat="45.24559" lon="5.76982">
        <ele>1041</ele>
        <time>2014-08-24T17:27:38Z</time>
      </trkpt>
      <trkpt lat="45.2455" lon="5.76977">
        <ele>1042</ele>
        <time>2014-08-24T17:27:43Z</time>
      </trkpt>
      <trkpt lat="45.24541" lon="5.76971">
        <ele>1043</ele>
        <time>2014-08-24T17:27:48Z</time>
      </trkpt>
      <trkpt lat="45.24531" lon="5.76964">
        <ele>1044.1</ele>
        <time>2014-08-24T17:27:53Z</time>
      </trkpt>
      <trkpt lat="45.24522" lon="5.76957">
        <ele>1045.4</ele>
        <time>2014-08-24T17:27:58Z</time>
      </trkpt>
      <trkpt lat="45.24513" lon="5.7695">
        <ele>1046.6</ele>
        <time>2014-08-24T17:28:03Z</time>
      </trkpt>
      <trkpt lat="45.24504" lon="5.76942">
        <ele>1047.6</ele>
        <time>2014-08-24T17:28:08Z</time>
      </trkpt>
      <trkpt lat="45.24496" lon="5.76935">
        <ele>1048.5</ele>
        <time>2014-08-24T17:28:12Z</time>
      </trkpt>
      <trkpt lat="45.24487" lon="5.76927">
        <ele>1049</ele>
        <time>2014-08-24T17:28:17Z</time>
      </trkpt>
      <trkpt lat="45.24478" lon="5.7692">
        <ele>1050.3</ele>
        <time>2014-08-24T17:28:22Z</time>
      </trkpt>
      <trkpt lat="45.24471" lon="5.76913">
        <ele>1051.2</ele>
        <time>2014-08-24T17:28:27Z</time>
      </trkpt>
      <trkpt lat="45.24462" lon="5.76906">
        <ele>1051.9</ele>
        <time>2014-08-24T17:28:32Z</time>
      </trkpt>
      <trkpt lat="45.24453" lon="5.76902">
        <ele>1053.1</ele>
        <time>2014-08-24T17:28:37Z</time>
      </trkpt>
      <trkpt lat="45.24444" lon="5.76897">
        <ele>1053.7</ele>
        <time>2014-08-24T17:28:42Z</time>
      </trkpt>
      <trkpt lat="45.24435" lon="5.76891">
        <ele>1054.1</ele>
        <time>2014-08-24T17:28:47Z</time>
      </trkpt>
      <trkpt lat="45.24426" lon="5.76884">
        <ele>1054.8</ele>
        <time>2014-08-24T17:28:52Z</time>
      </trkpt>
      <trkpt lat="45.24417" lon="5.7688">
        <ele>1055.3</ele>
        <time>2014-08-24T17:28:56Z</time>
      </trkpt>
      <trkpt lat="45.24408" lon="5.76879">
        <ele>1055.6</ele>
        <time>2014-08-24T17:29:00Z</time>
      </trkpt>
      <trkpt lat="45.24398" lon="5.76874">
        <ele>1056.2</ele>
        <time>2014-08-24T17:29:04Z</time>
      </trkpt>
      <trkpt lat="45.24388" lon="5.7687">
        <ele>1056.6</ele>
        <time>2014-08-24T17:29:08Z</time>
      </trkpt>
      <trkpt lat="45.24379" lon="5.76865">
        <ele>1057.5</ele>
        <time>2014-08-24T17:29:12Z</time>
      </trkpt>
      <trkpt lat="45.24369" lon="5.76859">
        <ele>1058.1</ele>
        <time>2014-08-24T17:29:17Z</time>
      </trkpt>
      <trkpt lat="45.2436" lon="5.76855">
        <ele>1059.3</ele>
        <time>2014-08-24T17:29:22Z</time>
      </trkpt>
      <trkpt lat="45.2435" lon="5.7685">
        <ele>1060.2</ele>
        <time>2014-08-24T17:29:27Z</time>
      </trkpt>
      <trkpt lat="45.24342" lon="5.76843">
        <ele>1061.1</ele>
        <time>2014-08-24T17:29:31Z</time>
      </trkpt>
      <trkpt lat="45.24334" lon="5.76834">
        <ele>1063</ele>
        <time>2014-08-24T17:29:36Z</time>
      </trkpt>
      <trkpt lat="45.24327" lon="5.76824">
        <ele>1064.1</ele>
        <time>2014-08-24T17:29:41Z</time>
      </trkpt>
      <trkpt lat="45.24319" lon="5.76817">
        <ele>1065.7</ele>
        <time>2014-08-24T17:29:46Z</time>
      </trkpt>
      <trkpt lat="45.2431" lon="5.76809">
        <ele>1067.3</ele>
        <time>2014-08-24T17:29:52Z</time>
      </trkpt>
      <trkpt lat="45.24302" lon="5.76801">
        <ele>1068.9</ele>
        <time>2014-08-24T17:29:58Z</time>
      </trkpt>
      <trkpt lat="45.24295" lon="5.76793">
        <ele>1070.5</ele>
        <time>2014-08-24T17:30:04Z</time>
      </trkpt>
      <trkpt lat="45.24287" lon="5.76786">
        <ele>1071.7</ele>
        <time>2014-08-24T17:30:09Z</time>
      </trkpt>
      <trkpt lat="45.24279" lon="5.76778">
        <ele>1072.5</ele>
        <time>2014-08-24T17:30:14Z</time>
      </trkpt>
      <trkpt lat="45.24271" lon="5.76769">
        <ele>1074.8</ele>
        <time>2014-08-24T17:30:21Z</time>
      </trkpt>
      <trkpt lat="45.24262" lon="5.76761">
        <ele>1075</ele>
        <time>2014-08-24T17:30:28Z</time>
      </trkpt>
      <trkpt lat="45.24252" lon="5.76752">
        <ele>1077.6</ele>
        <time>2014-08-24T17:30:38Z</time>
      </trkpt>
      <trkpt lat="45.24243" lon="5.76744">
        <ele>1079</ele>
        <time>2014-08-24T17:30:46Z</time>
      </trkpt>
      <trkpt lat="45.24236" lon="5.76732">
        <ele>1080.4</ele>
        <time>2014-08-24T17:30:52Z</time>
      </trkpt>
      <trkpt lat="45.2423" lon="5.76719">
        <ele>1081.6</ele>
        <time>2014-08-24T17:30:57Z</time>
      </trkpt>
      <trkpt lat="45.24223" lon="5.76711">
        <ele>1082.6</ele>
        <time>2014-08-24T17:31:02Z</time>
      </trkpt>
      <trkpt lat="45.24216" lon="5.76704">
        <ele>1083.4</ele>
        <time>2014-08-24T17:31:07Z</time>
      </trkpt>
      <trkpt lat="45.2421" lon="5.7669">
        <ele>1084.8</ele>
        <time>2014-08-24T17:31:14Z</time>
      </trkpt>
      <trkpt lat="45.24206" lon="5.76678">
        <ele>1085.6</ele>
        <time>2014-08-24T17:31:18Z</time>
      </trkpt>
      <trkpt lat="45.24202" lon="5.76664">
        <ele>1086.7</ele>
        <time>2014-08-24T17:31:23Z</time>
      </trkpt>
      <trkpt lat="45.242" lon="5.76651">
        <ele>1087.4</ele>
        <time>2014-08-24T17:31:28Z</time>
      </trkpt>
      <trkpt lat="45.24195" lon="5.76638">
        <ele>1088.6</ele>
        <time>2014-08-24T17:31:33Z</time>
      </trkpt>
      <trkpt lat="45.24189" lon="5.76626">
        <ele>1089.3</ele>
        <time>2014-08-24T17:31:36Z</time>
      </trkpt>
      <trkpt lat="45.24185" lon="5.76614">
        <ele>1090.1</ele>
        <time>2014-08-24T17:31:40Z</time>
      </trkpt>
      <trkpt lat="45.2418" lon="5.76601">
        <ele>1091.6</ele>
        <time>2014-08-24T17:31:45Z</time>
      </trkpt>
      <trkpt lat="45.24176" lon="5.76588">
        <ele>1092.4</ele>
        <time>2014-08-24T17:31:51Z</time>
      </trkpt>
      <trkpt lat="45.2417" lon="5.76577">
        <ele>1093.1</ele>
        <time>2014-08-24T17:31:56Z</time>
      </trkpt>
      <trkpt lat="45.24163" lon="5.76567">
        <ele>1094.3</ele>
        <time>2014-08-24T17:32:01Z</time>
      </trkpt>
      <trkpt lat="45.24157" lon="5.76554">
        <ele>1094.8</ele>
        <time>2014-08-24T17:32:05Z</time>
      </trkpt>
      <trkpt lat="45.24154" lon="5.7654">
        <ele>1095.8</ele>
        <time>2014-08-24T17:32:09Z</time>
      </trkpt>
      <trkpt lat="45.24153" lon="5.76527">
        <ele>1096.8</ele>
        <time>2014-08-24T17:32:13Z</time>
      </trkpt>
      <trkpt lat="45.24151" lon="5.76514">
        <ele>1098</ele>
        <time>2014-08-24T17:32:19Z</time>
      </trkpt>
      <trkpt lat="45.24151" lon="5.765">
        <ele>1099.3</ele>
        <time>2014-08-24T17:32:26Z</time>
      </trkpt>
      <trkpt lat="45.24151" lon="5.76486">
        <ele>1100.2</ele>
        <time>2014-08-24T17:32:30Z</time>
      </trkpt>
      <trkpt lat="45.24148" lon="5.76473">
        <ele>1100.8</ele>
        <time>2014-08-24T17:32:34Z</time>
      </trkpt>
      <trkpt lat="45.24145" lon="5.76458">
        <ele>1101.5</ele>
        <time>2014-08-24T17:32:39Z</time>
      </trkpt>
      <trkpt lat="45.24146" lon="5.76443">
        <ele>1102.2</ele>
        <time>2014-08-24T17:32:43Z</time>
      </trkpt>
      <trkpt lat="45.24149" lon="5.76429">
        <ele>1102.6</ele>
        <time>2014-08-24T17:32:47Z</time>
      </trkpt>
      <trkpt lat="45.24152" lon="5.76415">
        <ele>1103.3</ele>
        <time>2014-08-24T17:32:51Z</time>
      </trkpt>
      <trkpt lat="45.24152" lon="5.76399">
        <ele>1104.3</ele>
        <time>2014-08-24T17:32:55Z</time>
      </trkpt>
      <trkpt lat="45.24153" lon="5.76386">
        <ele>1105.2</ele>
        <time>2014-08-24T17:32:59Z</time>
      </trkpt>
      <trkpt lat="45.24153" lon="5.7637">
        <ele>1106.4</ele>
        <time>2014-08-24T17:33:04Z</time>
      </trkpt>
      <trkpt lat="45.24147" lon="5.76356">
        <ele>1107.7</ele>
        <time>2014-08-24T17:33:08Z</time>
      </trkpt>
      <trkpt lat="45.2414" lon="5.76348">
        <ele>1108.1</ele>
        <time>2014-08-24T17:33:10Z</time>
      </trkpt>
      <trkpt lat="45.24131" lon="5.76354">
        <ele>1109.4</ele>
        <time>2014-08-24T17:33:17Z</time>
      </trkpt>
      <trkpt lat="45.24126" lon="5.76367">
        <ele>1110.5</ele>
        <time>2014-08-24T17:33:23Z</time>
      </trkpt>
      <trkpt lat="45.24119" lon="5.76376">
        <ele>1111.5</ele>
        <time>2014-08-24T17:33:29Z</time>
      </trkpt>
      <trkpt lat="45.2411" lon="5.76383">
        <ele>1113.3</ele>
        <time>2014-08-24T17:33:35Z</time>
      </trkpt>
      <trkpt lat="45.24103" lon="5.76393">
        <ele>1115</ele>
        <time>2014-08-24T17:33:42Z</time>
      </trkpt>
      <trkpt lat="45.24096" lon="5.76405">
        <ele>1116.4</ele>
        <time>2014-08-24T17:33:49Z</time>
      </trkpt>
      <trkpt lat="45.24093" lon="5.76417">
        <ele>1117.7</ele>
        <time>2014-08-24T17:33:55Z</time>
      </trkpt>
      <trkpt lat="45.24091" lon="5.76431">
        <ele>1119.2</ele>
        <time>2014-08-24T17:34:02Z</time>
      </trkpt>
      <trkpt lat="45.2409" lon="5.76444">
        <ele>1120.6</ele>
        <time>2014-08-24T17:34:09Z</time>
      </trkpt>
      <trkpt lat="45.24089" lon="5.76458">
        <ele>1121.8</ele>
        <time>2014-08-24T17:34:15Z</time>
      </trkpt>
      <trkpt lat="45.24086" lon="5.76469">
        <ele>1122.7</ele>
        <time>2014-08-24T17:34:20Z</time>
      </trkpt>
      <trkpt lat="45.24082" lon="5.76483">
        <ele>1123.9</ele>
        <time>2014-08-24T17:34:25Z</time>
      </trkpt>
      <trkpt lat="45.24078" lon="5.76497">
        <ele>1125.5</ele>
        <time>2014-08-24T17:34:31Z</time>
      </trkpt>
      <trkpt lat="45.24074" lon="5.76508">
        <ele>1127</ele>
        <time>2014-08-24T17:34:37Z</time>
      </trkpt>
      <trkpt lat="45.24069" lon="5.76519">
        <ele>1128.2</ele>
        <time>2014-08-24T17:34:43Z</time>
      </trkpt>
      <trkpt lat="45.24064" lon="5.76531">
        <ele>1129.1</ele>
        <time>2014-08-24T17:34:48Z</time>
      </trkpt>
      <trkpt lat="45.24061" lon="5.76543">
        <ele>1129.9</ele>
        <time>2014-08-24T17:34:53Z</time>
      </trkpt>
      <trkpt lat="45.2406" lon="5.76556">
        <ele>1131.1</ele>
        <time>2014-08-24T17:34:58Z</time>
      </trkpt>
      <trkpt lat="45.24059" lon="5.76568">
        <ele>1132.4</ele>
        <time>2014-08-24T17:35:04Z</time>
      </trkpt>
      <trkpt lat="45.2406" lon="5.76583">
        <ele>1134.2</ele>
        <time>2014-08-24T17:35:11Z</time>
      </trkpt>
      <trkpt lat="45.2406" lon="5.76597">
        <ele>1134.9</ele>
        <time>2014-08-24T17:35:17Z</time>
      </trkpt>
      <trkpt lat="45.24061" lon="5.7661">
        <ele>1136.6</ele>
        <time>2014-08-24T17:35:24Z</time>
      </trkpt>
      <trkpt lat="45.24061" lon="5.76624">
        <ele>1138.1</ele>
        <time>2014-08-24T17:35:30Z</time>
      </trkpt>
      <trkpt lat="45.24061" lon="5.76638">
        <ele>1139.3</ele>
        <time>2014-08-24T17:35:36Z</time>
      </trkpt>
      <trkpt lat="45.24061" lon="5.76652">
        <ele>1140.7</ele>
        <time>2014-08-24T17:35:42Z</time>
      </trkpt>
      <trkpt lat="45.24058" lon="5.76665">
        <ele>1142</ele>
        <time>2014-08-24T17:35:48Z</time>
      </trkpt>
      <trkpt lat="45.24054" lon="5.76677">
        <ele>1142.9</ele>
        <time>2014-08-24T17:35:53Z</time>
      </trkpt>
      <trkpt lat="45.24049" lon="5.76689">
        <ele>1144.5</ele>
        <time>2014-08-24T17:35:58Z</time>
      </trkpt>
      <trkpt lat="45.24048" lon="5.76702">
        <ele>1145.5</ele>
        <time>2014-08-24T17:36:04Z</time>
      </trkpt>
      <trkpt lat="45.24048" lon="5.76717">
        <ele>1146.9</ele>
        <time>2014-08-24T17:36:11Z</time>
      </trkpt>
      <trkpt lat="45.24049" lon="5.76731">
        <ele>1148.1</ele>
        <time>2014-08-24T17:36:17Z</time>
      </trkpt>
      <trkpt lat="45.24053" lon="5.76743">
        <ele>1149.1</ele>
        <time>2014-08-24T17:36:22Z</time>
      </trkpt>
      <trkpt lat="45.24055" lon="5.76755">
        <ele>1150.3</ele>
        <time>2014-08-24T17:36:28Z</time>
      </trkpt>
      <trkpt lat="45.24057" lon="5.7677">
        <ele>1151.9</ele>
        <time>2014-08-24T17:36:35Z</time>
      </trkpt>
      <trkpt lat="45.24059" lon="5.76783">
        <ele>1153.2</ele>
        <time>2014-08-24T17:36:41Z</time>
      </trkpt>
      <trkpt lat="45.2406" lon="5.76797">
        <ele>1154.4</ele>
        <time>2014-08-24T17:36:47Z</time>
      </trkpt>
      <trkpt lat="45.24062" lon="5.76811">
        <ele>1155.8</ele>
        <time>2014-08-24T17:36:53Z</time>
      </trkpt>
      <trkpt lat="45.24062" lon="5.76825">
        <ele>1157.5</ele>
        <time>2014-08-24T17:37:00Z</time>
      </trkpt>
      <trkpt lat="45.24061" lon="5.76839">
        <ele>1158.8</ele>
        <time>2014-08-24T17:37:06Z</time>
      </trkpt>
      <trkpt lat="45.2406" lon="5.76853">
        <ele>1160.5</ele>
        <time>2014-08-24T17:37:12Z</time>
      </trkpt>
      <trkpt lat="45.2406" lon="5.76867">
        <ele>1161.7</ele>
        <time>2014-08-24T17:37:18Z</time>
      </trkpt>
      <trkpt lat="45.24061" lon="5.76881">
        <ele>1163.2</ele>
        <time>2014-08-24T17:37:24Z</time>
      </trkpt>
      <trkpt lat="45.24062" lon="5.76895">
        <ele>1163.8</ele>
        <time>2014-08-24T17:37:30Z</time>
      </trkpt>
      <trkpt lat="45.24062" lon="5.76909">
        <ele>1164.7</ele>
        <time>2014-08-24T17:37:36Z</time>
      </trkpt>
      <trkpt lat="45.24053" lon="5.76914">
        <ele>1165.8</ele>
        <time>2014-08-24T17:37:44Z</time>
      </trkpt>
      <trkpt lat="45.24048" lon="5.76902">
        <ele>1166.9</ele>
        <time>2014-08-24T17:37:50Z</time>
      </trkpt>
      <trkpt lat="45.24043" lon="5.76891">
        <ele>1167.8</ele>
        <time>2014-08-24T17:37:56Z</time>
      </trkpt>
      <trkpt lat="45.24037" lon="5.76881">
        <ele>1168.8</ele>
        <time>2014-08-24T17:38:02Z</time>
      </trkpt>
      <trkpt lat="45.2403" lon="5.76872">
        <ele>1170</ele>
        <time>2014-08-24T17:38:08Z</time>
      </trkpt>
      <trkpt lat="45.24023" lon="5.76863">
        <ele>1171.6</ele>
        <time>2014-08-24T17:38:15Z</time>
      </trkpt>
      <trkpt lat="45.24014" lon="5.76853">
        <ele>1173.3</ele>
        <time>2014-08-24T17:38:22Z</time>
      </trkpt>
      <trkpt lat="45.24008" lon="5.76844">
        <ele>1174.2</ele>
        <time>2014-08-24T17:38:27Z</time>
      </trkpt>
      <trkpt lat="45.24002" lon="5.76831">
        <ele>1175.8</ele>
        <time>2014-08-24T17:38:33Z</time>
      </trkpt>
      <trkpt lat="45.23995" lon="5.7682">
        <ele>1176.9</ele>
        <time>2014-08-24T17:38:39Z</time>
      </trkpt>
      <trkpt lat="45.23988" lon="5.76809">
        <ele>1178.1</ele>
        <time>2014-08-24T17:38:45Z</time>
      </trkpt>
      <trkpt lat="45.23981" lon="5.768">
        <ele>1179.3</ele>
        <time>2014-08-24T17:38:51Z</time>
      </trkpt>
      <trkpt lat="45.23974" lon="5.7679">
        <ele>1180.4</ele>
        <time>2014-08-24T17:38:57Z</time>
      </trkpt>
      <trkpt lat="45.23969" lon="5.76779">
        <ele>1181.9</ele>
        <time>2014-08-24T17:39:03Z</time>
      </trkpt>
      <trkpt lat="45.23965" lon="5.76767">
        <ele>1183</ele>
        <time>2014-08-24T17:39:09Z</time>
      </trkpt>
      <trkpt lat="45.23958" lon="5.76757">
        <ele>1184.3</ele>
        <time>2014-08-24T17:39:16Z</time>
      </trkpt>
      <trkpt lat="45.2395" lon="5.76748">
        <ele>1185.8</ele>
        <time>2014-08-24T17:39:23Z</time>
      </trkpt>
      <trkpt lat="45.23943" lon="5.76739">
        <ele>1187.5</ele>
        <time>2014-08-24T17:39:30Z</time>
      </trkpt>
      <trkpt lat="45.23936" lon="5.76729">
        <ele>1188.8</ele>
        <time>2014-08-24T17:39:38Z</time>
      </trkpt>
      <trkpt lat="45.23929" lon="5.76718">
        <ele>1190.1</ele>
        <time>2014-08-24T17:39:45Z</time>
      </trkpt>
      <trkpt lat="45.23923" lon="5.76707">
        <ele>1191.3</ele>
        <time>2014-08-24T17:39:52Z</time>
      </trkpt>
      <trkpt lat="45.23917" lon="5.76695">
        <ele>1192.5</ele>
        <time>2014-08-24T17:39:59Z</time>
      </trkpt>
      <trkpt lat="45.23911" lon="5.76685">
        <ele>1193.5</ele>
        <time>2014-08-24T17:40:05Z</time>
      </trkpt>
      <trkpt lat="45.23905" lon="5.76674">
        <ele>1194.5</ele>
        <time>2014-08-24T17:40:09Z</time>
      </trkpt>
      <trkpt lat="45.23897" lon="5.76666">
        <ele>1195.6</ele>
        <time>2014-08-24T17:40:15Z</time>
      </trkpt>
      <trkpt lat="45.23892" lon="5.76654">
        <ele>1196.7</ele>
        <time>2014-08-24T17:40:21Z</time>
      </trkpt>
      <trkpt lat="45.23886" lon="5.76643">
        <ele>1197.9</ele>
        <time>2014-08-24T17:40:28Z</time>
      </trkpt>
      <trkpt lat="45.2388" lon="5.76632">
        <ele>1199.1</ele>
        <time>2014-08-24T17:40:35Z</time>
      </trkpt>
      <trkpt lat="45.23875" lon="5.76621">
        <ele>1200.6</ele>
        <time>2014-08-24T17:40:42Z</time>
      </trkpt>
      <trkpt lat="45.2387" lon="5.76608">
        <ele>1201.7</ele>
        <time>2014-08-24T17:40:49Z</time>
      </trkpt>
      <trkpt lat="45.23867" lon="5.76596">
        <ele>1203.2</ele>
        <time>2014-08-24T17:40:56Z</time>
      </trkpt>
      <trkpt lat="45.23864" lon="5.76583">
        <ele>1204.4</ele>
        <time>2014-08-24T17:41:02Z</time>
      </trkpt>
      <trkpt lat="45.23861" lon="5.7657">
        <ele>1205.9</ele>
        <time>2014-08-24T17:41:08Z</time>
      </trkpt>
      <trkpt lat="45.23854" lon="5.7656">
        <ele>1207</ele>
        <time>2014-08-24T17:41:14Z</time>
      </trkpt>
      <trkpt lat="45.23848" lon="5.7655">
        <ele>1208.2</ele>
        <time>2014-08-24T17:41:21Z</time>
      </trkpt>
      <trkpt lat="45.23841" lon="5.76541">
        <ele>1209.2</ele>
        <time>2014-08-24T17:41:27Z</time>
      </trkpt>
      <trkpt lat="45.23835" lon="5.76529">
        <ele>1210.6</ele>
        <time>2014-08-24T17:41:34Z</time>
      </trkpt>
      <trkpt lat="45.23831" lon="5.76517">
        <ele>1211.7</ele>
        <time>2014-08-24T17:41:40Z</time>
      </trkpt>
      <trkpt lat="45.23825" lon="5.76507">
        <ele>1212.7</ele>
        <time>2014-08-24T17:41:46Z</time>
      </trkpt>
      <trkpt lat="45.2382" lon="5.76496">
        <ele>1214.1</ele>
        <time>2014-08-24T17:41:53Z</time>
      </trkpt>
      <trkpt lat="45.23819" lon="5.76482">
        <ele>1214.9</ele>
        <time>2014-08-24T17:41:59Z</time>
      </trkpt>
      <trkpt lat="45.23815" lon="5.7647">
        <ele>1216.1</ele>
        <time>2014-08-24T17:42:05Z</time>
      </trkpt>
      <trkpt lat="45.23814" lon="5.76456">
        <ele>1217.3</ele>
        <time>2014-08-24T17:42:12Z</time>
      </trkpt>
      <trkpt lat="45.23807" lon="5.76445">
        <ele>1218.8</ele>
        <time>2014-08-24T17:42:19Z</time>
      </trkpt>
      <trkpt lat="45.23805" lon="5.76432">
        <ele>1220.4</ele>
        <time>2014-08-24T17:42:26Z</time>
      </trkpt>
      <trkpt lat="45.238" lon="5.76421">
        <ele>1221.8</ele>
        <time>2014-08-24T17:42:34Z</time>
      </trkpt>
      <trkpt lat="45.23798" lon="5.76406">
        <ele>1223.5</ele>
        <time>2014-08-24T17:42:43Z</time>
      </trkpt>
      <trkpt lat="45.23801" lon="5.76393">
        <ele>1224.2</ele>
        <time>2014-08-24T17:42:49Z</time>
      </trkpt>
      <trkpt lat="45.23806" lon="5.76381">
        <ele>1225.7</ele>
        <time>2014-08-24T17:42:55Z</time>
      </trkpt>
      <trkpt lat="45.23807" lon="5.76368">
        <ele>1227.3</ele>
        <time>2014-08-24T17:43:02Z</time>
      </trkpt>
      <trkpt lat="45.23807" lon="5.76354">
        <ele>1228.4</ele>
        <time>2014-08-24T17:43:08Z</time>
      </trkpt>
      <trkpt lat="45.23808" lon="5.7634">
        <ele>1229.4</ele>
        <time>2014-08-24T17:43:14Z</time>
      </trkpt>
      <trkpt lat="45.2381" lon="5.76326">
        <ele>1230.1</ele>
        <time>2014-08-24T17:43:18Z</time>
      </trkpt>
      <trkpt lat="45.23813" lon="5.76313">
        <ele>1231.2</ele>
        <time>2014-08-24T17:43:24Z</time>
      </trkpt>
      <trkpt lat="45.23817" lon="5.76302">
        <ele>1232.1</ele>
        <time>2014-08-24T17:43:30Z</time>
      </trkpt>
      <trkpt lat="45.23824" lon="5.76292">
        <ele>1232.6</ele>
        <time>2014-08-24T17:43:36Z</time>
      </trkpt>
      <trkpt lat="45.23831" lon="5.76282">
        <ele>1233.4</ele>
        <time>2014-08-24T17:43:42Z</time>
      </trkpt>
      <trkpt lat="45.23823" lon="5.76273">
        <ele>1234.6</ele>
        <time>2014-08-24T17:43:49Z</time>
      </trkpt>
      <trkpt lat="45.23813" lon="5.76278">
        <ele>1235.4</ele>
        <time>2014-08-24T17:43:55Z</time>
      </trkpt>
      <trkpt lat="45.23807" lon="5.76288">
        <ele>1235.9</ele>
        <time>2014-08-24T17:44:02Z</time>
      </trkpt>
      <trkpt lat="45.238" lon="5.76298">
        <ele>1236.5</ele>
        <time>2014-08-24T17:44:08Z</time>
      </trkpt>
      <trkpt lat="45.23793" lon="5.76307">
        <ele>1237.5</ele>
        <time>2014-08-24T17:44:14Z</time>
      </trkpt>
      <trkpt lat="45.23787" lon="5.76317">
        <ele>1238.4</ele>
        <time>2014-08-24T17:44:20Z</time>
      </trkpt>
      <trkpt lat="45.23779" lon="5.76325">
        <ele>1240</ele>
        <time>2014-08-24T17:44:26Z</time>
      </trkpt>
      <trkpt lat="45.23774" lon="5.76336">
        <ele>1240.9</ele>
        <time>2014-08-24T17:44:32Z</time>
      </trkpt>
      <trkpt lat="45.23767" lon="5.76345">
        <ele>1242.2</ele>
        <time>2014-08-24T17:44:38Z</time>
      </trkpt>
      <trkpt lat="45.23761" lon="5.76355">
        <ele>1243.3</ele>
        <time>2014-08-24T17:44:45Z</time>
      </trkpt>
      <trkpt lat="45.23753" lon="5.76364">
        <ele>1244.6</ele>
        <time>2014-08-24T17:44:51Z</time>
      </trkpt>
      <trkpt lat="45.23747" lon="5.76374">
        <ele>1246</ele>
        <time>2014-08-24T17:44:58Z</time>
      </trkpt>
      <trkpt lat="45.2374" lon="5.76384">
        <ele>1247.4</ele>
        <time>2014-08-24T17:45:06Z</time>
      </trkpt>
      <trkpt lat="45.23734" lon="5.76396">
        <ele>1248.4</ele>
        <time>2014-08-24T17:45:13Z</time>
      </trkpt>
      <trkpt lat="45.23729" lon="5.76406">
        <ele>1249.5</ele>
        <time>2014-08-24T17:45:20Z</time>
      </trkpt>
      <trkpt lat="45.23725" lon="5.76419">
        <ele>1251</ele>
        <time>2014-08-24T17:45:28Z</time>
      </trkpt>
      <trkpt lat="45.2372" lon="5.7643">
        <ele>1252.4</ele>
        <time>2014-08-24T17:45:36Z</time>
      </trkpt>
      <trkpt lat="45.23714" lon="5.76442">
        <ele>1253.6</ele>
        <time>2014-08-24T17:45:43Z</time>
      </trkpt>
      <trkpt lat="45.23711" lon="5.76454">
        <ele>1254.7</ele>
        <time>2014-08-24T17:45:50Z</time>
      </trkpt>
      <trkpt lat="45.23707" lon="5.76467">
        <ele>1256.4</ele>
        <time>2014-08-24T17:45:59Z</time>
      </trkpt>
      <trkpt lat="45.23703" lon="5.76478">
        <ele>1257.9</ele>
        <time>2014-08-24T17:46:05Z</time>
      </trkpt>
      <trkpt lat="45.23702" lon="5.76493">
        <ele>1259.5</ele>
        <time>2014-08-24T17:46:12Z</time>
      </trkpt>
      <trkpt lat="45.23702" lon="5.76507">
        <ele>1260.6</ele>
        <time>2014-08-24T17:46:19Z</time>
      </trkpt>
      <trkpt lat="45.23704" lon="5.7652">
        <ele>1261.1</ele>
        <time>2014-08-24T17:46:24Z</time>
      </trkpt>
      <trkpt lat="45.23704" lon="5.76533">
        <ele>1262.3</ele>
        <time>2014-08-24T17:46:30Z</time>
      </trkpt>
      <trkpt lat="45.237" lon="5.76546">
        <ele>1263.3</ele>
        <time>2014-08-24T17:46:36Z</time>
      </trkpt>
      <trkpt lat="45.23691" lon="5.7654">
        <ele>1264</ele>
        <time>2014-08-24T17:46:43Z</time>
      </trkpt>
      <trkpt lat="45.23687" lon="5.76527">
        <ele>1265.5</ele>
        <time>2014-08-24T17:46:50Z</time>
      </trkpt>
      <trkpt lat="45.23682" lon="5.76515">
        <ele>1266.7</ele>
        <time>2014-08-24T17:46:57Z</time>
      </trkpt>
      <trkpt lat="45.23676" lon="5.76504">
        <ele>1268.2</ele>
        <time>2014-08-24T17:47:05Z</time>
      </trkpt>
      <trkpt lat="45.23671" lon="5.76492">
        <ele>1269.6</ele>
        <time>2014-08-24T17:47:12Z</time>
      </trkpt>
      <trkpt lat="45.23668" lon="5.76479">
        <ele>1270.8</ele>
        <time>2014-08-24T17:47:19Z</time>
      </trkpt>
      <trkpt lat="45.23664" lon="5.76466">
        <ele>1271.8</ele>
        <time>2014-08-24T17:47:25Z</time>
      </trkpt>
      <trkpt lat="45.2366" lon="5.76453">
        <ele>1273</ele>
        <time>2014-08-24T17:47:32Z</time>
      </trkpt>
      <trkpt lat="45.23658" lon="5.76441">
        <ele>1274.5</ele>
        <time>2014-08-24T17:47:38Z</time>
      </trkpt>
      <trkpt lat="45.23655" lon="5.76428">
        <ele>1275.5</ele>
        <time>2014-08-24T17:47:45Z</time>
      </trkpt>
      <trkpt lat="45.23653" lon="5.76416">
        <ele>1276.5</ele>
        <time>2014-08-24T17:47:51Z</time>
      </trkpt>
      <trkpt lat="45.23652" lon="5.76403">
        <ele>1277.4</ele>
        <time>2014-08-24T17:47:57Z</time>
      </trkpt>
      <trkpt lat="45.23651" lon="5.76389">
        <ele>1279.7</ele>
        <time>2014-08-24T17:48:05Z</time>
      </trkpt>
      <trkpt lat="45.2365" lon="5.76375">
        <ele>1280.5</ele>
        <time>2014-08-24T17:48:14Z</time>
      </trkpt>
      <trkpt lat="45.23647" lon="5.76362">
        <ele>1282.1</ele>
        <time>2014-08-24T17:48:21Z</time>
      </trkpt>
      <trkpt lat="45.23645" lon="5.76349">
        <ele>1283.1</ele>
        <time>2014-08-24T17:48:26Z</time>
      </trkpt>
      <trkpt lat="45.23644" lon="5.76335">
        <ele>1284.5</ele>
        <time>2014-08-24T17:48:32Z</time>
      </trkpt>
      <trkpt lat="45.23644" lon="5.76322">
        <ele>1285.7</ele>
        <time>2014-08-24T17:48:38Z</time>
      </trkpt>
      <trkpt lat="45.23645" lon="5.76308">
        <ele>1286.8</ele>
        <time>2014-08-24T17:48:45Z</time>
      </trkpt>
      <trkpt lat="45.23645" lon="5.76293">
        <ele>1288</ele>
        <time>2014-08-24T17:48:52Z</time>
      </trkpt>
      <trkpt lat="45.23648" lon="5.7628">
        <ele>1289.4</ele>
        <time>2014-08-24T17:48:58Z</time>
      </trkpt>
      <trkpt lat="45.23651" lon="5.76267">
        <ele>1290.7</ele>
        <time>2014-08-24T17:49:05Z</time>
      </trkpt>
      <trkpt lat="45.23644" lon="5.76259">
        <ele>1291.5</ele>
        <time>2014-08-24T17:49:11Z</time>
      </trkpt>
      <trkpt lat="45.23635" lon="5.76261">
        <ele>1293.3</ele>
        <time>2014-08-24T17:49:19Z</time>
      </trkpt>
      <trkpt lat="45.23627" lon="5.7627">
        <ele>1293.7</ele>
        <time>2014-08-24T17:49:25Z</time>
      </trkpt>
      <trkpt lat="45.2362" lon="5.76278">
        <ele>1294.9</ele>
        <time>2014-08-24T17:49:32Z</time>
      </trkpt>
      <trkpt lat="45.23613" lon="5.76288">
        <ele>1296.1</ele>
        <time>2014-08-24T17:49:40Z</time>
      </trkpt>
      <trkpt lat="45.23605" lon="5.76297">
        <ele>1298</ele>
        <time>2014-08-24T17:49:49Z</time>
      </trkpt>
      <trkpt lat="45.23599" lon="5.76308">
        <ele>1299.2</ele>
        <time>2014-08-24T17:49:55Z</time>
      </trkpt>
      <trkpt lat="45.23592" lon="5.76317">
        <ele>1300.4</ele>
        <time>2014-08-24T17:50:01Z</time>
      </trkpt>
      <trkpt lat="45.23587" lon="5.76328">
        <ele>1301.7</ele>
        <time>2014-08-24T17:50:08Z</time>
      </trkpt>
      <trkpt lat="45.23582" lon="5.76341">
        <ele>1302.5</ele>
        <time>2014-08-24T17:50:14Z</time>
      </trkpt>
      <trkpt lat="45.23578" lon="5.76353">
        <ele>1304</ele>
        <time>2014-08-24T17:50:20Z</time>
      </trkpt>
      <trkpt lat="45.23575" lon="5.76369">
        <ele>1305.3</ele>
        <time>2014-08-24T17:50:26Z</time>
      </trkpt>
      <trkpt lat="45.2357" lon="5.76381">
        <ele>1306</ele>
        <time>2014-08-24T17:50:32Z</time>
      </trkpt>
      <trkpt lat="45.23566" lon="5.76394">
        <ele>1306.8</ele>
        <time>2014-08-24T17:50:39Z</time>
      </trkpt>
      <trkpt lat="45.23563" lon="5.76406">
        <ele>1307.9</ele>
        <time>2014-08-24T17:50:45Z</time>
      </trkpt>
      <trkpt lat="45.23561" lon="5.7642">
        <ele>1309.8</ele>
        <time>2014-08-24T17:50:52Z</time>
      </trkpt>
      <trkpt lat="45.23558" lon="5.76434">
        <ele>1312.7</ele>
        <time>2014-08-24T17:50:59Z</time>
      </trkpt>
      <trkpt lat="45.23556" lon="5.76449">
        <ele>1311.8</ele>
        <time>2014-08-24T17:51:05Z</time>
      </trkpt>
      <trkpt lat="45.23556" lon="5.76463">
        <ele>1313.2</ele>
        <time>2014-08-24T17:51:11Z</time>
      </trkpt>
      <trkpt lat="45.23555" lon="5.76477">
        <ele>1313.5</ele>
        <time>2014-08-24T17:51:18Z</time>
      </trkpt>
      <trkpt lat="45.23554" lon="5.76491">
        <ele>1314</ele>
        <time>2014-08-24T17:51:24Z</time>
      </trkpt>
      <trkpt lat="45.23552" lon="5.76505">
        <ele>1315.5</ele>
        <time>2014-08-24T17:51:32Z</time>
      </trkpt>
      <trkpt lat="45.23548" lon="5.76518">
        <ele>1316.4</ele>
        <time>2014-08-24T17:51:39Z</time>
      </trkpt>
      <trkpt lat="45.23546" lon="5.76531">
        <ele>1317.3</ele>
        <time>2014-08-24T17:51:45Z</time>
      </trkpt>
      <trkpt lat="45.23544" lon="5.76544">
        <ele>1318.2</ele>
        <time>2014-08-24T17:51:51Z</time>
      </trkpt>
      <trkpt lat="45.23537" lon="5.76534">
        <ele>1321.3</ele>
        <time>2014-08-24T17:52:06Z</time>
      </trkpt>
      <trkpt lat="45.23535" lon="5.7652">
        <ele>1322.4</ele>
        <time>2014-08-24T17:52:13Z</time>
      </trkpt>
      <trkpt lat="45.23533" lon="5.76507">
        <ele>1323.5</ele>
        <time>2014-08-24T17:52:20Z</time>
      </trkpt>
      <trkpt lat="45.2353" lon="5.76493">
        <ele>1324.4</ele>
        <time>2014-08-24T17:52:27Z</time>
      </trkpt>
      <trkpt lat="45.23525" lon="5.76482">
        <ele>1325.7</ele>
        <time>2014-08-24T17:52:33Z</time>
      </trkpt>
      <trkpt lat="45.23518" lon="5.76471">
        <ele>1326.7</ele>
        <time>2014-08-24T17:52:39Z</time>
      </trkpt>
      <trkpt lat="45.23511" lon="5.7646">
        <ele>1327.5</ele>
        <time>2014-08-24T17:52:45Z</time>
      </trkpt>
      <trkpt lat="45.23506" lon="5.76449">
        <ele>1328.3</ele>
        <time>2014-08-24T17:52:51Z</time>
      </trkpt>
      <trkpt lat="45.23503" lon="5.76436">
        <ele>1329.2</ele>
        <time>2014-08-24T17:52:57Z</time>
      </trkpt>
      <trkpt lat="45.235" lon="5.76423">
        <ele>1329.7</ele>
        <time>2014-08-24T17:53:03Z</time>
      </trkpt>
      <trkpt lat="45.23497" lon="5.76409">
        <ele>1330.4</ele>
        <time>2014-08-24T17:53:09Z</time>
      </trkpt>
      <trkpt lat="45.23496" lon="5.76396">
        <ele>1330.9</ele>
        <time>2014-08-24T17:53:15Z</time>
      </trkpt>
      <trkpt lat="45.23492" lon="5.76384">
        <ele>1331.1</ele>
        <time>2014-08-24T17:53:21Z</time>
      </trkpt>
      <trkpt lat="45.23488" lon="5.76373">
        <ele>1331.9</ele>
        <time>2014-08-24T17:53:29Z</time>
      </trkpt>
      <trkpt lat="45.2349" lon="5.76386">
        <ele>1332.1</ele>
        <time>2014-08-24T17:54:46Z</time>
      </trkpt>
      <trkpt lat="45.23496" lon="5.76397">
        <ele>1332</ele>
        <time>2014-08-24T17:54:51Z</time>
      </trkpt>
      <trkpt lat="45.23506" lon="5.76402">
        <ele>1331.1</ele>
        <time>2014-08-24T17:54:59Z</time>
      </trkpt>
      <trkpt lat="45.23516" lon="5.764">
        <ele>1327.9</ele>
        <time>2014-08-24T17:55:05Z</time>
      </trkpt>
      <trkpt lat="45.23524" lon="5.76391">
        <ele>1325.9</ele>
        <time>2014-08-24T17:55:08Z</time>
      </trkpt>
      <trkpt lat="45.23535" lon="5.76388">
        <ele>1324.5</ele>
        <time>2014-08-24T17:55:11Z</time>
      </trkpt>
      <trkpt lat="45.23543" lon="5.76377">
        <ele>1321.6</ele>
        <time>2014-08-24T17:55:14Z</time>
      </trkpt>
      <trkpt lat="45.23544" lon="5.76359">
        <ele>1321.3</ele>
        <time>2014-08-24T17:55:17Z</time>
      </trkpt>
      <trkpt lat="45.23543" lon="5.76345">
        <ele>1320.1</ele>
        <time>2014-08-24T17:55:20Z</time>
      </trkpt>
      <trkpt lat="45.23542" lon="5.7633">
        <ele>1320.7</ele>
        <time>2014-08-24T17:55:26Z</time>
      </trkpt>
      <trkpt lat="45.2354" lon="5.76317">
        <ele>1322.1</ele>
        <time>2014-08-24T17:55:32Z</time>
      </trkpt>
      <trkpt lat="45.23538" lon="5.76303">
        <ele>1322.6</ele>
        <time>2014-08-24T17:55:38Z</time>
      </trkpt>
      <trkpt lat="45.23534" lon="5.7629">
        <ele>1324.5</ele>
        <time>2014-08-24T17:55:44Z</time>
      </trkpt>
      <trkpt lat="45.23532" lon="5.76278">
        <ele>1325.5</ele>
        <time>2014-08-24T17:55:50Z</time>
      </trkpt>
      <trkpt lat="45.23532" lon="5.76263">
        <ele>1326.1</ele>
        <time>2014-08-24T17:55:57Z</time>
      </trkpt>
      <trkpt lat="45.2354" lon="5.76256">
        <ele>1325.7</ele>
        <time>2014-08-24T17:56:00Z</time>
      </trkpt>
      <trkpt lat="45.23552" lon="5.76249">
        <ele>1324.3</ele>
        <time>2014-08-24T17:56:03Z</time>
      </trkpt>
      <trkpt lat="45.23559" lon="5.76241">
        <ele>1324.5</ele>
        <time>2014-08-24T17:56:05Z</time>
      </trkpt>
      <trkpt lat="45.23566" lon="5.76231">
        <ele>1324.2</ele>
        <time>2014-08-24T17:56:07Z</time>
      </trkpt>
      <trkpt lat="45.23575" lon="5.76223">
        <ele>1324.1</ele>
        <time>2014-08-24T17:56:09Z</time>
      </trkpt>
      <trkpt lat="45.23581" lon="5.76214">
        <ele>1324.1</ele>
        <time>2014-08-24T17:56:11Z</time>
      </trkpt>
      <trkpt lat="45.23587" lon="5.76203">
        <ele>1324.8</ele>
        <time>2014-08-24T17:56:19Z</time>
      </trkpt>
      <trkpt lat="45.23584" lon="5.7619">
        <ele>1327.5</ele>
        <time>2014-08-24T17:56:37Z</time>
      </trkpt>
      <trkpt lat="45.23575" lon="5.76182">
        <ele>1336.9</ele>
        <time>2014-08-24T17:57:52Z</time>
      </trkpt>
      <trkpt lat="45.23568" lon="5.76173">
        <ele>1343.5</ele>
        <time>2014-08-24T17:58:42Z</time>
      </trkpt>
      <trkpt lat="45.23573" lon="5.76162">
        <ele>1345.4</ele>
        <time>2014-08-24T17:59:28Z</time>
      </trkpt>
      <trkpt lat="45.23563" lon="5.76159">
        <ele>1340.8</ele>
        <time>2014-08-24T17:59:45Z</time>
      </trkpt>
      <trkpt lat="45.23554" lon="5.76159">
        <ele>1338.8</ele>
        <time>2014-08-24T17:59:55Z</time>
      </trkpt>
      <trkpt lat="45.23545" lon="5.76154">
        <ele>1335.5</ele>
        <time>2014-08-24T18:00:07Z</time>
      </trkpt>
      <trkpt lat="45.23549" lon="5.76142">
        <ele>1333</ele>
        <time>2014-08-24T18:00:22Z</time>
      </trkpt>
      <trkpt lat="45.23557" lon="5.76135">
        <ele>1332</ele>
        <time>2014-08-24T18:00:26Z</time>
      </trkpt>
      <trkpt lat="45.23564" lon="5.76127">
        <ele>1329.8</ele>
        <time>2014-08-24T18:00:30Z</time>
      </trkpt>
      <trkpt lat="45.23573" lon="5.76119">
        <ele>1328</ele>
        <time>2014-08-24T18:00:34Z</time>
      </trkpt>
      <trkpt lat="45.23581" lon="5.76108">
        <ele>1324.8</ele>
        <time>2014-08-24T18:00:38Z</time>
      </trkpt>
      <trkpt lat="45.23571" lon="5.76107">
        <ele>1322.4</ele>
        <time>2014-08-24T18:00:45Z</time>
      </trkpt>
      <trkpt lat="45.23562" lon="5.7611">
        <ele>1321.6</ele>
        <time>2014-08-24T18:00:49Z</time>
      </trkpt>
      <trkpt lat="45.23553" lon="5.76111">
        <ele>1317.1</ele>
        <time>2014-08-24T18:00:53Z</time>
      </trkpt>
      <trkpt lat="45.23561" lon="5.761">
        <ele>1314.4</ele>
        <time>2014-08-24T18:00:59Z</time>
      </trkpt>
      <trkpt lat="45.23568" lon="5.7609">
        <ele>1313.3</ele>
        <time>2014-08-24T18:01:02Z</time>
      </trkpt>
      <trkpt lat="45.23575" lon="5.7608">
        <ele>1310.8</ele>
        <time>2014-08-24T18:01:06Z</time>
      </trkpt>
      <trkpt lat="45.23583" lon="5.76073">
        <ele>1307.8</ele>
        <time>2014-08-24T18:01:11Z</time>
      </trkpt>
      <trkpt lat="45.23575" lon="5.76066">
        <ele>1302.4</ele>
        <time>2014-08-24T18:01:22Z</time>
      </trkpt>
      <trkpt lat="45.23567" lon="5.76073">
        <ele>1299.3</ele>
        <time>2014-08-24T18:01:28Z</time>
      </trkpt>
      <trkpt lat="45.23558" lon="5.76073">
        <ele>1295.1</ele>
        <time>2014-08-24T18:01:49Z</time>
      </trkpt>
      <trkpt lat="45.2356" lon="5.7606">
        <ele>1291.2</ele>
        <time>2014-08-24T18:01:59Z</time>
      </trkpt>
      <trkpt lat="45.23562" lon="5.76048">
        <ele>1289.7</ele>
        <time>2014-08-24T18:02:02Z</time>
      </trkpt>
      <trkpt lat="45.23569" lon="5.76035">
        <ele>1285.7</ele>
        <time>2014-08-24T18:02:06Z</time>
      </trkpt>
      <trkpt lat="45.23577" lon="5.76024">
        <ele>1282.3</ele>
        <time>2014-08-24T18:02:11Z</time>
      </trkpt>
      <trkpt lat="45.23582" lon="5.76008">
        <ele>1279.7</ele>
        <time>2014-08-24T18:02:15Z</time>
      </trkpt>
      <trkpt lat="45.2359" lon="5.75998">
        <ele>1277.6</ele>
        <time>2014-08-24T18:02:18Z</time>
      </trkpt>
      <trkpt lat="45.23597" lon="5.75986">
        <ele>1275.1</ele>
        <time>2014-08-24T18:02:21Z</time>
      </trkpt>
      <trkpt lat="45.23605" lon="5.75975">
        <ele>1272.4</ele>
        <time>2014-08-24T18:02:24Z</time>
      </trkpt>
      <trkpt lat="45.23614" lon="5.75963">
        <ele>1269.8</ele>
        <time>2014-08-24T18:02:27Z</time>
      </trkpt>
      <trkpt lat="45.23621" lon="5.75955">
        <ele>1267.1</ele>
        <time>2014-08-24T18:02:31Z</time>
      </trkpt>
      <trkpt lat="45.23612" lon="5.75947">
        <ele>1261.3</ele>
        <time>2014-08-24T18:02:44Z</time>
      </trkpt>
      <trkpt lat="45.23603" lon="5.75949">
        <ele>1259</ele>
        <time>2014-08-24T18:02:47Z</time>
      </trkpt>
      <trkpt lat="45.23589" lon="5.75953">
        <ele>1256.3</ele>
        <time>2014-08-24T18:02:50Z</time>
      </trkpt>
      <trkpt lat="45.23579" lon="5.75957">
        <ele>1254.3</ele>
        <time>2014-08-24T18:02:52Z</time>
      </trkpt>
      <trkpt lat="45.2357" lon="5.7596">
        <ele>1252.2</ele>
        <time>2014-08-24T18:02:54Z</time>
      </trkpt>
      <trkpt lat="45.23562" lon="5.7597">
        <ele>1250.1</ele>
        <time>2014-08-24T18:02:56Z</time>
      </trkpt>
      <trkpt lat="45.23554" lon="5.75976">
        <ele>1248.3</ele>
        <time>2014-08-24T18:02:59Z</time>
      </trkpt>
      <trkpt lat="45.23544" lon="5.75982">
        <ele>1245.2</ele>
        <time>2014-08-24T18:03:04Z</time>
      </trkpt>
      <trkpt lat="45.23534" lon="5.75987">
        <ele>1243.3</ele>
        <time>2014-08-24T18:03:07Z</time>
      </trkpt>
      <trkpt lat="45.23523" lon="5.75993">
        <ele>1239.7</ele>
        <time>2014-08-24T18:03:11Z</time>
      </trkpt>
      <trkpt lat="45.23512" lon="5.76">
        <ele>1238.4</ele>
        <time>2014-08-24T18:03:14Z</time>
      </trkpt>
      <trkpt lat="45.23504" lon="5.76007">
        <ele>1235.9</ele>
        <time>2014-08-24T18:03:17Z</time>
      </trkpt>
      <trkpt lat="45.23506" lon="5.75994">
        <ele>1231.8</ele>
        <time>2014-08-24T18:03:22Z</time>
      </trkpt>
      <trkpt lat="45.23511" lon="5.75978">
        <ele>1228.1</ele>
        <time>2014-08-24T18:03:25Z</time>
      </trkpt>
      <trkpt lat="45.23518" lon="5.75964">
        <ele>1225.6</ele>
        <time>2014-08-24T18:03:28Z</time>
      </trkpt>
      <trkpt lat="45.23525" lon="5.75954">
        <ele>1224.3</ele>
        <time>2014-08-24T18:03:31Z</time>
      </trkpt>
      <trkpt lat="45.23527" lon="5.75941">
        <ele>1221.8</ele>
        <time>2014-08-24T18:03:35Z</time>
      </trkpt>
      <trkpt lat="45.23529" lon="5.75926">
        <ele>1219.5</ele>
        <time>2014-08-24T18:03:38Z</time>
      </trkpt>
      <trkpt lat="45.23533" lon="5.75911">
        <ele>1217.1</ele>
        <time>2014-08-24T18:03:41Z</time>
      </trkpt>
      <trkpt lat="45.23538" lon="5.75899">
        <ele>1214.6</ele>
        <time>2014-08-24T18:03:43Z</time>
      </trkpt>
      <trkpt lat="45.23543" lon="5.75887">
        <ele>1213.2</ele>
        <time>2014-08-24T18:03:45Z</time>
      </trkpt>
      <trkpt lat="45.2355" lon="5.75871">
        <ele>1210.7</ele>
        <time>2014-08-24T18:03:47Z</time>
      </trkpt>
      <trkpt lat="45.23558" lon="5.75854">
        <ele>1208.7</ele>
        <time>2014-08-24T18:03:49Z</time>
      </trkpt>
      <trkpt lat="45.23564" lon="5.7584">
        <ele>1207</ele>
        <time>2014-08-24T18:03:51Z</time>
      </trkpt>
      <trkpt lat="45.2357" lon="5.75826">
        <ele>1204.2</ele>
        <time>2014-08-24T18:03:53Z</time>
      </trkpt>
      <trkpt lat="45.23576" lon="5.75811">
        <ele>1201.4</ele>
        <time>2014-08-24T18:03:55Z</time>
      </trkpt>
      <trkpt lat="45.23586" lon="5.75797">
        <ele>1198.1</ele>
        <time>2014-08-24T18:03:58Z</time>
      </trkpt>
      <trkpt lat="45.23594" lon="5.75788">
        <ele>1196.8</ele>
        <time>2014-08-24T18:04:00Z</time>
      </trkpt>
      <trkpt lat="45.23586" lon="5.75778">
        <ele>1191.9</ele>
        <time>2014-08-24T18:04:06Z</time>
      </trkpt>
      <trkpt lat="45.23576" lon="5.7578">
        <ele>1190.2</ele>
        <time>2014-08-24T18:04:08Z</time>
      </trkpt>
      <trkpt lat="45.23565" lon="5.75784">
        <ele>1187.4</ele>
        <time>2014-08-24T18:04:11Z</time>
      </trkpt>
      <trkpt lat="45.23554" lon="5.75785">
        <ele>1183.7</ele>
        <time>2014-08-24T18:04:14Z</time>
      </trkpt>
      <trkpt lat="45.23544" lon="5.75793">
        <ele>1180.3</ele>
        <time>2014-08-24T18:04:17Z</time>
      </trkpt>
      <trkpt lat="45.23533" lon="5.75799">
        <ele>1176</ele>
        <time>2014-08-24T18:04:20Z</time>
      </trkpt>
      <trkpt lat="45.23524" lon="5.75803">
        <ele>1173.7</ele>
        <time>2014-08-24T18:04:22Z</time>
      </trkpt>
      <trkpt lat="45.23512" lon="5.75812">
        <ele>1171.4</ele>
        <time>2014-08-24T18:04:24Z</time>
      </trkpt>
      <trkpt lat="45.235" lon="5.75816">
        <ele>1169.1</ele>
        <time>2014-08-24T18:04:26Z</time>
      </trkpt>
      <trkpt lat="45.23489" lon="5.75824">
        <ele>1166.8</ele>
        <time>2014-08-24T18:04:28Z</time>
      </trkpt>
      <trkpt lat="45.2348" lon="5.7583">
        <ele>1164.6</ele>
        <time>2014-08-24T18:04:30Z</time>
      </trkpt>
      <trkpt lat="45.23467" lon="5.75837">
        <ele>1160.8</ele>
        <time>2014-08-24T18:04:33Z</time>
      </trkpt>
      <trkpt lat="45.23458" lon="5.75841">
        <ele>1158.1</ele>
        <time>2014-08-24T18:04:35Z</time>
      </trkpt>
      <trkpt lat="45.23449" lon="5.75845">
        <ele>1155.4</ele>
        <time>2014-08-24T18:04:37Z</time>
      </trkpt>
      <trkpt lat="45.23438" lon="5.7585">
        <ele>1152.1</ele>
        <time>2014-08-24T18:04:40Z</time>
      </trkpt>
      <trkpt lat="45.23428" lon="5.75856">
        <ele>1149.6</ele>
        <time>2014-08-24T18:04:43Z</time>
      </trkpt>
      <trkpt lat="45.23419" lon="5.75864">
        <ele>1147</ele>
        <time>2014-08-24T18:04:45Z</time>
      </trkpt>
      <trkpt lat="45.23409" lon="5.75869">
        <ele>1144.4</ele>
        <time>2014-08-24T18:04:47Z</time>
      </trkpt>
      <trkpt lat="45.23399" lon="5.75873">
        <ele>1142.8</ele>
        <time>2014-08-24T18:04:49Z</time>
      </trkpt>
      <trkpt lat="45.23388" lon="5.75873">
        <ele>1140.3</ele>
        <time>2014-08-24T18:04:51Z</time>
      </trkpt>
      <trkpt lat="45.23378" lon="5.75874">
        <ele>1137.7</ele>
        <time>2014-08-24T18:04:53Z</time>
      </trkpt>
      <trkpt lat="45.23369" lon="5.75882">
        <ele>1133.3</ele>
        <time>2014-08-24T18:04:57Z</time>
      </trkpt>
      <trkpt lat="45.23366" lon="5.75897">
        <ele>1131.8</ele>
        <time>2014-08-24T18:04:59Z</time>
      </trkpt>
      <trkpt lat="45.23365" lon="5.75912">
        <ele>1130.4</ele>
        <time>2014-08-24T18:05:01Z</time>
      </trkpt>
      <trkpt lat="45.23364" lon="5.75926">
        <ele>1128.5</ele>
        <time>2014-08-24T18:05:04Z</time>
      </trkpt>
      <trkpt lat="45.23358" lon="5.75916">
        <ele>1126.2</ele>
        <time>2014-08-24T18:05:09Z</time>
      </trkpt>
      <trkpt lat="45.23353" lon="5.75904">
        <ele>1125.6</ele>
        <time>2014-08-24T18:05:11Z</time>
      </trkpt>
      <trkpt lat="45.23348" lon="5.75893">
        <ele>1123.2</ele>
        <time>2014-08-24T18:05:13Z</time>
      </trkpt>
      <trkpt lat="45.23341" lon="5.7588">
        <ele>1120.8</ele>
        <time>2014-08-24T18:05:16Z</time>
      </trkpt>
      <trkpt lat="45.23339" lon="5.75865">
        <ele>1116</ele>
        <time>2014-08-24T18:05:20Z</time>
      </trkpt>
      <trkpt lat="45.23348" lon="5.75852">
        <ele>1115.1</ele>
        <time>2014-08-24T18:05:23Z</time>
      </trkpt>
      <trkpt lat="45.23356" lon="5.75844">
        <ele>1113.9</ele>
        <time>2014-08-24T18:05:25Z</time>
      </trkpt>
      <trkpt lat="45.23364" lon="5.75839">
        <ele>1112.6</ele>
        <time>2014-08-24T18:05:27Z</time>
      </trkpt>
      <trkpt lat="45.23375" lon="5.75835">
        <ele>1110.9</ele>
        <time>2014-08-24T18:05:30Z</time>
      </trkpt>
      <trkpt lat="45.23387" lon="5.75829">
        <ele>1105.8</ele>
        <time>2014-08-24T18:05:43Z</time>
      </trkpt>
      <trkpt lat="45.23393" lon="5.75819">
        <ele>1104.6</ele>
        <time>2014-08-24T18:05:45Z</time>
      </trkpt>
      <trkpt lat="45.23396" lon="5.75806">
        <ele>1102.7</ele>
        <time>2014-08-24T18:05:47Z</time>
      </trkpt>
      <trkpt lat="45.23398" lon="5.75788">
        <ele>1100.8</ele>
        <time>2014-08-24T18:05:50Z</time>
      </trkpt>
      <trkpt lat="45.23402" lon="5.75774">
        <ele>1099.8</ele>
        <time>2014-08-24T18:05:52Z</time>
      </trkpt>
      <trkpt lat="45.23407" lon="5.75763">
        <ele>1098.5</ele>
        <time>2014-08-24T18:05:54Z</time>
      </trkpt>
      <trkpt lat="45.23413" lon="5.7575">
        <ele>1096.2</ele>
        <time>2014-08-24T18:05:57Z</time>
      </trkpt>
      <trkpt lat="45.23416" lon="5.75737">
        <ele>1094.4</ele>
        <time>2014-08-24T18:05:59Z</time>
      </trkpt>
      <trkpt lat="45.2342" lon="5.75725">
        <ele>1091.7</ele>
        <time>2014-08-24T18:06:01Z</time>
      </trkpt>
      <trkpt lat="45.23426" lon="5.75712">
        <ele>1088.3</ele>
        <time>2014-08-24T18:06:04Z</time>
      </trkpt>
      <trkpt lat="45.23428" lon="5.75699">
        <ele>1083.4</ele>
        <time>2014-08-24T18:06:15Z</time>
      </trkpt>
      <trkpt lat="45.23418" lon="5.75701">
        <ele>1080.2</ele>
        <time>2014-08-24T18:06:32Z</time>
      </trkpt>
      <trkpt lat="45.23406" lon="5.75708">
        <ele>1078.5</ele>
        <time>2014-08-24T18:06:35Z</time>
      </trkpt>
      <trkpt lat="45.23395" lon="5.75715">
        <ele>1076.6</ele>
        <time>2014-08-24T18:06:38Z</time>
      </trkpt>
      <trkpt lat="45.234" lon="5.75699">
        <ele>1069.8</ele>
        <time>2014-08-24T18:06:48Z</time>
      </trkpt>
      <trkpt lat="45.23403" lon="5.75687">
        <ele>1067.8</ele>
        <time>2014-08-24T18:06:51Z</time>
      </trkpt>
      <trkpt lat="45.2341" lon="5.75675">
        <ele>1064.3</ele>
        <time>2014-08-24T18:06:55Z</time>
      </trkpt>
      <trkpt lat="45.23414" lon="5.7566">
        <ele>1061</ele>
        <time>2014-08-24T18:07:00Z</time>
      </trkpt>
      <trkpt lat="45.23423" lon="5.75649">
        <ele>1058.4</ele>
        <time>2014-08-24T18:07:04Z</time>
      </trkpt>
      <trkpt lat="45.23432" lon="5.75645">
        <ele>1056.6</ele>
        <time>2014-08-24T18:07:06Z</time>
      </trkpt>
      <trkpt lat="45.23441" lon="5.75641">
        <ele>1055.6</ele>
        <time>2014-08-24T18:07:08Z</time>
      </trkpt>
      <trkpt lat="45.23453" lon="5.75631">
        <ele>1053.5</ele>
        <time>2014-08-24T18:07:11Z</time>
      </trkpt>
      <trkpt lat="45.23462" lon="5.75625">
        <ele>1050.9</ele>
        <time>2014-08-24T18:07:14Z</time>
      </trkpt>
      <trkpt lat="45.23472" lon="5.75627">
        <ele>1046.8</ele>
        <time>2014-08-24T18:07:40Z</time>
      </trkpt>
      <trkpt lat="45.23482" lon="5.75623">
        <ele>1045.3</ele>
        <time>2014-08-24T18:07:42Z</time>
      </trkpt>
      <trkpt lat="45.23492" lon="5.75619">
        <ele>1043.5</ele>
        <time>2014-08-24T18:07:44Z</time>
      </trkpt>
      <trkpt lat="45.23502" lon="5.7562">
        <ele>1041.9</ele>
        <time>2014-08-24T18:07:46Z</time>
      </trkpt>
      <trkpt lat="45.23511" lon="5.75619">
        <ele>1040.5</ele>
        <time>2014-08-24T18:07:48Z</time>
      </trkpt>
      <trkpt lat="45.23521" lon="5.75616">
        <ele>1038.3</ele>
        <time>2014-08-24T18:07:50Z</time>
      </trkpt>
      <trkpt lat="45.23531" lon="5.75611">
        <ele>1035.4</ele>
        <time>2014-08-24T18:07:53Z</time>
      </trkpt>
      <trkpt lat="45.23523" lon="5.75606">
        <ele>1031.6</ele>
        <time>2014-08-24T18:07:58Z</time>
      </trkpt>
      <trkpt lat="45.23513" lon="5.75603">
        <ele>1029.3</ele>
        <time>2014-08-24T18:08:01Z</time>
      </trkpt>
      <trkpt lat="45.23503" lon="5.75593">
        <ele>1026.5</ele>
        <time>2014-08-24T18:08:04Z</time>
      </trkpt>
      <trkpt lat="45.23494" lon="5.75589">
        <ele>1023.9</ele>
        <time>2014-08-24T18:08:06Z</time>
      </trkpt>
      <trkpt lat="45.23484" lon="5.75588">
        <ele>1022.3</ele>
        <time>2014-08-24T18:08:08Z</time>
      </trkpt>
      <trkpt lat="45.23471" lon="5.75586">
        <ele>1020</ele>
        <time>2014-08-24T18:08:10Z</time>
      </trkpt>
      <trkpt lat="45.23457" lon="5.75583">
        <ele>1017.4</ele>
        <time>2014-08-24T18:08:12Z</time>
      </trkpt>
      <trkpt lat="45.23444" lon="5.75581">
        <ele>1015.4</ele>
        <time>2014-08-24T18:08:14Z</time>
      </trkpt>
      <trkpt lat="45.23432" lon="5.75581">
        <ele>1012.4</ele>
        <time>2014-08-24T18:08:16Z</time>
      </trkpt>
      <trkpt lat="45.23421" lon="5.7558">
        <ele>1009.8</ele>
        <time>2014-08-24T18:08:18Z</time>
      </trkpt>
      <trkpt lat="45.23408" lon="5.75576">
        <ele>1007.9</ele>
        <time>2014-08-24T18:08:20Z</time>
      </trkpt>
      <trkpt lat="45.23397" lon="5.75573">
        <ele>1004.7</ele>
        <time>2014-08-24T18:08:22Z</time>
      </trkpt>
      <trkpt lat="45.23384" lon="5.75573">
        <ele>1001.7</ele>
        <time>2014-08-24T18:08:24Z</time>
      </trkpt>
      <trkpt lat="45.23372" lon="5.75576">
        <ele>1000.1</ele>
        <time>2014-08-24T18:08:26Z</time>
      </trkpt>
      <trkpt lat="45.23363" lon="5.75577">
        <ele>998.1</ele>
        <time>2014-08-24T18:08:28Z</time>
      </trkpt>
      <trkpt lat="45.23351" lon="5.75583">
        <ele>993.6</ele>
        <time>2014-08-24T18:08:31Z</time>
      </trkpt>
      <trkpt lat="45.23342" lon="5.75589">
        <ele>991.7</ele>
        <time>2014-08-24T18:08:34Z</time>
      </trkpt>
      <trkpt lat="45.23347" lon="5.75578">
        <ele>985</ele>
        <time>2014-08-24T18:08:42Z</time>
      </trkpt>
      <trkpt lat="45.23355" lon="5.75566">
        <ele>982.7</ele>
        <time>2014-08-24T18:08:45Z</time>
      </trkpt>
      <trkpt lat="45.23362" lon="5.75557">
        <ele>981.6</ele>
        <time>2014-08-24T18:08:47Z</time>
      </trkpt>
      <trkpt lat="45.2337" lon="5.75548">
        <ele>980.1</ele>
        <time>2014-08-24T18:08:49Z</time>
      </trkpt>
      <trkpt lat="45.2338" lon="5.75539">
        <ele>978</ele>
        <time>2014-08-24T18:08:51Z</time>
      </trkpt>
      <trkpt lat="45.2339" lon="5.7553">
        <ele>975.1</ele>
        <time>2014-08-24T18:08:53Z</time>
      </trkpt>
      <trkpt lat="45.234" lon="5.75519">
        <ele>970.8</ele>
        <time>2014-08-24T18:08:55Z</time>
      </trkpt>
      <trkpt lat="45.23409" lon="5.75511">
        <ele>969.8</ele>
        <time>2014-08-24T18:08:57Z</time>
      </trkpt>
      <trkpt lat="45.2342" lon="5.75505">
        <ele>967.6</ele>
        <time>2014-08-24T18:08:59Z</time>
      </trkpt>
      <trkpt lat="45.23433" lon="5.75498">
        <ele>965.3</ele>
        <time>2014-08-24T18:09:02Z</time>
      </trkpt>
      <trkpt lat="45.23443" lon="5.75493">
        <ele>962.4</ele>
        <time>2014-08-24T18:09:04Z</time>
      </trkpt>
      <trkpt lat="45.23456" lon="5.75492">
        <ele>959.5</ele>
        <time>2014-08-24T18:09:07Z</time>
      </trkpt>
      <trkpt lat="45.23464" lon="5.75482">
        <ele>956.2</ele>
        <time>2014-08-24T18:09:10Z</time>
      </trkpt>
      <trkpt lat="45.23477" lon="5.75478">
        <ele>953.1</ele>
        <time>2014-08-24T18:09:13Z</time>
      </trkpt>
      <trkpt lat="45.23468" lon="5.7547">
        <ele>947.7</ele>
        <time>2014-08-24T18:09:20Z</time>
      </trkpt>
      <trkpt lat="45.23455" lon="5.7547">
        <ele>944.5</ele>
        <time>2014-08-24T18:09:23Z</time>
      </trkpt>
      <trkpt lat="45.23444" lon="5.75465">
        <ele>942.1</ele>
        <time>2014-08-24T18:09:26Z</time>
      </trkpt>
      <trkpt lat="45.23432" lon="5.75461">
        <ele>939.1</ele>
        <time>2014-08-24T18:09:29Z</time>
      </trkpt>
      <trkpt lat="45.23417" lon="5.75457">
        <ele>935.1</ele>
        <time>2014-08-24T18:09:32Z</time>
      </trkpt>
      <trkpt lat="45.23405" lon="5.75454">
        <ele>932.9</ele>
        <time>2014-08-24T18:09:34Z</time>
      </trkpt>
      <trkpt lat="45.23392" lon="5.75453">
        <ele>930.2</ele>
        <time>2014-08-24T18:09:36Z</time>
      </trkpt>
      <trkpt lat="45.23382" lon="5.75455">
        <ele>927.7</ele>
        <time>2014-08-24T18:09:38Z</time>
      </trkpt>
      <trkpt lat="45.2337" lon="5.75454">
        <ele>924.9</ele>
        <time>2014-08-24T18:09:41Z</time>
      </trkpt>
      <trkpt lat="45.23358" lon="5.75455">
        <ele>922.7</ele>
        <time>2014-08-24T18:09:43Z</time>
      </trkpt>
      <trkpt lat="45.23346" lon="5.75456">
        <ele>920.5</ele>
        <time>2014-08-24T18:09:45Z</time>
      </trkpt>
      <trkpt lat="45.23335" lon="5.75459">
        <ele>917.9</ele>
        <time>2014-08-24T18:09:47Z</time>
      </trkpt>
      <trkpt lat="45.23324" lon="5.75462">
        <ele>916.2</ele>
        <time>2014-08-24T18:09:49Z</time>
      </trkpt>
      <trkpt lat="45.23314" lon="5.75466">
        <ele>914.1</ele>
        <time>2014-08-24T18:09:51Z</time>
      </trkpt>
      <trkpt lat="45.23305" lon="5.75469">
        <ele>912</ele>
        <time>2014-08-24T18:09:53Z</time>
      </trkpt>
      <trkpt lat="45.23293" lon="5.75475">
        <ele>908.2</ele>
        <time>2014-08-24T18:09:56Z</time>
      </trkpt>
      <trkpt lat="45.23285" lon="5.75479">
        <ele>906.6</ele>
        <time>2014-08-24T18:09:58Z</time>
      </trkpt>
      <trkpt lat="45.23273" lon="5.75483">
        <ele>904.4</ele>
        <time>2014-08-24T18:10:01Z</time>
      </trkpt>
      <trkpt lat="45.23274" lon="5.75468">
        <ele>898.7</ele>
        <time>2014-08-24T18:10:08Z</time>
      </trkpt>
      <trkpt lat="45.2328" lon="5.75456">
        <ele>896.6</ele>
        <time>2014-08-24T18:10:11Z</time>
      </trkpt>
      <trkpt lat="45.23284" lon="5.75443">
        <ele>894.9</ele>
        <time>2014-08-24T18:10:13Z</time>
      </trkpt>
      <trkpt lat="45.23293" lon="5.75431">
        <ele>891.2</ele>
        <time>2014-08-24T18:10:16Z</time>
      </trkpt>
      <trkpt lat="45.233" lon="5.7542">
        <ele>889.5</ele>
        <time>2014-08-24T18:10:19Z</time>
      </trkpt>
      <trkpt lat="45.23308" lon="5.75404">
        <ele>886.7</ele>
        <time>2014-08-24T18:10:22Z</time>
      </trkpt>
      <trkpt lat="45.23315" lon="5.75394">
        <ele>884</ele>
        <time>2014-08-24T18:10:24Z</time>
      </trkpt>
      <trkpt lat="45.23322" lon="5.75385">
        <ele>881.9</ele>
        <time>2014-08-24T18:10:26Z</time>
      </trkpt>
      <trkpt lat="45.23329" lon="5.75377">
        <ele>880.5</ele>
        <time>2014-08-24T18:10:28Z</time>
      </trkpt>
      <trkpt lat="45.23338" lon="5.75367">
        <ele>878</ele>
        <time>2014-08-24T18:10:31Z</time>
      </trkpt>
      <trkpt lat="45.23348" lon="5.7536">
        <ele>874.2</ele>
        <time>2014-08-24T18:10:34Z</time>
      </trkpt>
      <trkpt lat="45.23359" lon="5.75352">
        <ele>870.5</ele>
        <time>2014-08-24T18:10:38Z</time>
      </trkpt>
      <trkpt lat="45.23368" lon="5.75342">
        <ele>868.4</ele>
        <time>2014-08-24T18:10:41Z</time>
      </trkpt>
      <trkpt lat="45.23378" lon="5.75336">
        <ele>866.1</ele>
        <time>2014-08-24T18:10:44Z</time>
      </trkpt>
      <trkpt lat="45.23389" lon="5.7533">
        <ele>863.1</ele>
        <time>2014-08-24T18:10:47Z</time>
      </trkpt>
      <trkpt lat="45.23401" lon="5.75327">
        <ele>861.5</ele>
        <time>2014-08-24T18:10:50Z</time>
      </trkpt>
      <trkpt lat="45.23406" lon="5.75315">
        <ele>858.3</ele>
        <time>2014-08-24T18:10:53Z</time>
      </trkpt>
      <trkpt lat="45.23406" lon="5.75298">
        <ele>855</ele>
        <time>2014-08-24T18:10:56Z</time>
      </trkpt>
      <trkpt lat="45.23411" lon="5.75283">
        <ele>853</ele>
        <time>2014-08-24T18:10:59Z</time>
      </trkpt>
      <trkpt lat="45.23418" lon="5.75274">
        <ele>851</ele>
        <time>2014-08-24T18:11:01Z</time>
      </trkpt>
      <trkpt lat="45.23427" lon="5.75264">
        <ele>849.2</ele>
        <time>2014-08-24T18:11:03Z</time>
      </trkpt>
      <trkpt lat="45.23434" lon="5.75248">
        <ele>845.2</ele>
        <time>2014-08-24T18:11:06Z</time>
      </trkpt>
      <trkpt lat="45.23437" lon="5.75234">
        <ele>843.5</ele>
        <time>2014-08-24T18:11:08Z</time>
      </trkpt>
      <trkpt lat="45.23445" lon="5.75224">
        <ele>841.3</ele>
        <time>2014-08-24T18:11:10Z</time>
      </trkpt>
      <trkpt lat="45.23454" lon="5.75215">
        <ele>838.8</ele>
        <time>2014-08-24T18:11:12Z</time>
      </trkpt>
      <trkpt lat="45.23463" lon="5.75206">
        <ele>836.7</ele>
        <time>2014-08-24T18:11:14Z</time>
      </trkpt>
      <trkpt lat="45.23473" lon="5.75202">
        <ele>834.2</ele>
        <time>2014-08-24T18:11:16Z</time>
      </trkpt>
      <trkpt lat="45.23482" lon="5.75192">
        <ele>831.3</ele>
        <time>2014-08-24T18:11:18Z</time>
      </trkpt>
      <trkpt lat="45.2349" lon="5.75179">
        <ele>828.4</ele>
        <time>2014-08-24T18:11:20Z</time>
      </trkpt>
      <trkpt lat="45.23499" lon="5.75171">
        <ele>825.7</ele>
        <time>2014-08-24T18:11:22Z</time>
      </trkpt>
      <trkpt lat="45.23508" lon="5.75163">
        <ele>823.2</ele>
        <time>2014-08-24T18:11:24Z</time>
      </trkpt>
      <trkpt lat="45.23518" lon="5.75155">
        <ele>820.8</ele>
        <time>2014-08-24T18:11:26Z</time>
      </trkpt>
      <trkpt lat="45.23527" lon="5.75149">
        <ele>817.4</ele>
        <time>2014-08-24T18:11:30Z</time>
      </trkpt>
      <trkpt lat="45.23537" lon="5.75137">
        <ele>812.1</ele>
        <time>2014-08-24T18:11:54Z</time>
      </trkpt>
      <trkpt lat="45.23549" lon="5.75135">
        <ele>810.6</ele>
        <time>2014-08-24T18:11:56Z</time>
      </trkpt>
      <trkpt lat="45.23561" lon="5.75136">
        <ele>809.5</ele>
        <time>2014-08-24T18:11:58Z</time>
      </trkpt>
      <trkpt lat="45.23564" lon="5.75123">
        <ele>805.4</ele>
        <time>2014-08-24T18:12:03Z</time>
      </trkpt>
      <trkpt lat="45.23555" lon="5.75112">
        <ele>803</ele>
        <time>2014-08-24T18:12:06Z</time>
      </trkpt>
      <trkpt lat="45.23547" lon="5.75101">
        <ele>800.1</ele>
        <time>2014-08-24T18:12:09Z</time>
      </trkpt>
      <trkpt lat="45.23536" lon="5.75094">
        <ele>797</ele>
        <time>2014-08-24T18:12:15Z</time>
      </trkpt>
      <trkpt lat="45.23528" lon="5.75085">
        <ele>795.1</ele>
        <time>2014-08-24T18:12:18Z</time>
      </trkpt>
      <trkpt lat="45.23516" lon="5.75081">
        <ele>794</ele>
        <time>2014-08-24T18:12:21Z</time>
      </trkpt>
      <trkpt lat="45.23506" lon="5.7508">
        <ele>793.4</ele>
        <time>2014-08-24T18:12:23Z</time>
      </trkpt>
      <trkpt lat="45.23495" lon="5.75083">
        <ele>792.8</ele>
        <time>2014-08-24T18:12:25Z</time>
      </trkpt>
      <trkpt lat="45.23481" lon="5.75087">
        <ele>791.9</ele>
        <time>2014-08-24T18:12:27Z</time>
      </trkpt>
      <trkpt lat="45.23467" lon="5.75092">
        <ele>791.1</ele>
        <time>2014-08-24T18:12:29Z</time>
      </trkpt>
      <trkpt lat="45.23452" lon="5.75095">
        <ele>790.5</ele>
        <time>2014-08-24T18:12:31Z</time>
      </trkpt>
      <trkpt lat="45.23436" lon="5.75099">
        <ele>789.7</ele>
        <time>2014-08-24T18:12:33Z</time>
      </trkpt>
      <trkpt lat="45.23419" lon="5.75103">
        <ele>788.7</ele>
        <time>2014-08-24T18:12:35Z</time>
      </trkpt>
      <trkpt lat="45.23407" lon="5.75101">
        <ele>787.8</ele>
        <time>2014-08-24T18:12:37Z</time>
      </trkpt>
      <trkpt lat="45.23396" lon="5.75094">
        <ele>786.5</ele>
        <time>2014-08-24T18:12:40Z</time>
      </trkpt>
      <trkpt lat="45.23384" lon="5.75093">
        <ele>785.2</ele>
        <time>2014-08-24T18:12:43Z</time>
      </trkpt>
      <trkpt lat="45.23375" lon="5.75095">
        <ele>784.5</ele>
        <time>2014-08-24T18:12:45Z</time>
      </trkpt>
      <trkpt lat="45.23365" lon="5.75098">
        <ele>784.2</ele>
        <time>2014-08-24T18:12:47Z</time>
      </trkpt>
      <trkpt lat="45.23354" lon="5.75097">
        <ele>783.7</ele>
        <time>2014-08-24T18:12:49Z</time>
      </trkpt>
      <trkpt lat="45.23341" lon="5.75097">
        <ele>783</ele>
        <time>2014-08-24T18:12:51Z</time>
      </trkpt>
      <trkpt lat="45.23326" lon="5.75099">
        <ele>782.2</ele>
        <time>2014-08-24T18:12:53Z</time>
      </trkpt>
      <trkpt lat="45.23314" lon="5.75101">
        <ele>781</ele>
        <time>2014-08-24T18:12:55Z</time>
      </trkpt>
      <trkpt lat="45.23303" lon="5.75102">
        <ele>779.4</ele>
        <time>2014-08-24T18:12:58Z</time>
      </trkpt>
      <trkpt lat="45.23289" lon="5.75103">
        <ele>778.1</ele>
        <time>2014-08-24T18:13:01Z</time>
      </trkpt>
      <trkpt lat="45.2328" lon="5.75102">
        <ele>777.3</ele>
        <time>2014-08-24T18:13:03Z</time>
      </trkpt>
      <trkpt lat="45.23269" lon="5.75099">
        <ele>776</ele>
        <time>2014-08-24T18:13:06Z</time>
      </trkpt>
      <trkpt lat="45.23256" lon="5.75095">
        <ele>774.9</ele>
        <time>2014-08-24T18:13:08Z</time>
      </trkpt>
      <trkpt lat="45.2324" lon="5.75093">
        <ele>773.2</ele>
        <time>2014-08-24T18:13:10Z</time>
      </trkpt>
      <trkpt lat="45.23224" lon="5.7509">
        <ele>771.2</ele>
        <time>2014-08-24T18:13:12Z</time>
      </trkpt>
      <trkpt lat="45.23208" lon="5.75086">
        <ele>768.5</ele>
        <time>2014-08-24T18:13:14Z</time>
      </trkpt>
      <trkpt lat="45.23196" lon="5.75082">
        <ele>765.6</ele>
        <time>2014-08-24T18:13:16Z</time>
      </trkpt>
      <trkpt lat="45.23183" lon="5.75077">
        <ele>762.5</ele>
        <time>2014-08-24T18:13:18Z</time>
      </trkpt>
      <trkpt lat="45.2317" lon="5.75066">
        <ele>759</ele>
        <time>2014-08-24T18:13:20Z</time>
      </trkpt>
      <trkpt lat="45.23157" lon="5.75055">
        <ele>755.9</ele>
        <time>2014-08-24T18:13:22Z</time>
      </trkpt>
      <trkpt lat="45.23142" lon="5.75047">
        <ele>752.2</ele>
        <time>2014-08-24T18:13:24Z</time>
      </trkpt>
      <trkpt lat="45.2313" lon="5.75046">
        <ele>750.6</ele>
        <time>2014-08-24T18:13:25Z</time>
      </trkpt>
      <trkpt lat="45.23119" lon="5.75047">
        <ele>748.6</ele>
        <time>2014-08-24T18:13:26Z</time>
      </trkpt>
      <trkpt lat="45.23109" lon="5.75048">
        <ele>746.5</ele>
        <time>2014-08-24T18:13:27Z</time>
      </trkpt>
      <trkpt lat="45.23098" lon="5.75049">
        <ele>745</ele>
        <time>2014-08-24T18:13:28Z</time>
      </trkpt>
      <trkpt lat="45.23088" lon="5.75049">
        <ele>743.2</ele>
        <time>2014-08-24T18:13:29Z</time>
      </trkpt>
      <trkpt lat="45.23079" lon="5.75051">
        <ele>742</ele>
        <time>2014-08-24T18:13:30Z</time>
      </trkpt>
      <trkpt lat="45.2307" lon="5.75052">
        <ele>740.3</ele>
        <time>2014-08-24T18:13:31Z</time>
      </trkpt>
      <trkpt lat="45.23061" lon="5.75053">
        <ele>738.8</ele>
        <time>2014-08-24T18:13:32Z</time>
      </trkpt>
      <trkpt lat="45.23051" lon="5.75055">
        <ele>737</ele>
        <time>2014-08-24T18:13:33Z</time>
      </trkpt>
      <trkpt lat="45.23042" lon="5.75056">
        <ele>735.8</ele>
        <time>2014-08-24T18:13:34Z</time>
      </trkpt>
      <trkpt lat="45.23025" lon="5.7506">
        <ele>733.1</ele>
        <time>2014-08-24T18:13:36Z</time>
      </trkpt>
      <trkpt lat="45.23012" lon="5.75067">
        <ele>730.7</ele>
        <time>2014-08-24T18:13:38Z</time>
      </trkpt>
      <trkpt lat="45.23005" lon="5.75082">
        <ele>728.2</ele>
        <time>2014-08-24T18:13:40Z</time>
      </trkpt>
      <trkpt lat="45.23002" lon="5.75099">
        <ele>725.7</ele>
        <time>2014-08-24T18:13:42Z</time>
      </trkpt>
      <trkpt lat="45.23003" lon="5.75122">
        <ele>722.9</ele>
        <time>2014-08-24T18:13:44Z</time>
      </trkpt>
      <trkpt lat="45.23" lon="5.75143">
        <ele>720.9</ele>
        <time>2014-08-24T18:13:46Z</time>
      </trkpt>
      <trkpt lat="45.22997" lon="5.75166">
        <ele>718.7</ele>
        <time>2014-08-24T18:13:48Z</time>
      </trkpt>
      <trkpt lat="45.22993" lon="5.75189">
        <ele>716.5</ele>
        <time>2014-08-24T18:13:50Z</time>
      </trkpt>
      <trkpt lat="45.22988" lon="5.75209">
        <ele>714.8</ele>
        <time>2014-08-24T18:13:52Z</time>
      </trkpt>
      <trkpt lat="45.22981" lon="5.75222">
        <ele>712.4</ele>
        <time>2014-08-24T18:13:54Z</time>
      </trkpt>
      <trkpt lat="45.22973" lon="5.75235">
        <ele>710.1</ele>
        <time>2014-08-24T18:13:56Z</time>
      </trkpt>
      <trkpt lat="45.22966" lon="5.75243">
        <ele>704.4</ele>
        <time>2014-08-24T18:14:05Z</time>
      </trkpt>
      <trkpt lat="45.22958" lon="5.75255">
        <ele>703.3</ele>
        <time>2014-08-24T18:14:11Z</time>
      </trkpt>
      <trkpt lat="45.22954" lon="5.75267">
        <ele>702.6</ele>
        <time>2014-08-24T18:14:13Z</time>
      </trkpt>
      <trkpt lat="45.22953" lon="5.75283">
        <ele>701.8</ele>
        <time>2014-08-24T18:14:15Z</time>
      </trkpt>
      <trkpt lat="45.2295" lon="5.75299">
        <ele>700.6</ele>
        <time>2014-08-24T18:14:17Z</time>
      </trkpt>
      <trkpt lat="45.22944" lon="5.75316">
        <ele>699.7</ele>
        <time>2014-08-24T18:14:19Z</time>
      </trkpt>
      <trkpt lat="45.22936" lon="5.75333">
        <ele>698.7</ele>
        <time>2014-08-24T18:14:21Z</time>
      </trkpt>
      <trkpt lat="45.22926" lon="5.7535">
        <ele>698.3</ele>
        <time>2014-08-24T18:14:23Z</time>
      </trkpt>
      <trkpt lat="45.22916" lon="5.75366">
        <ele>697.3</ele>
        <time>2014-08-24T18:14:25Z</time>
      </trkpt>
      <trkpt lat="45.22906" lon="5.75379">
        <ele>696.1</ele>
        <time>2014-08-24T18:14:27Z</time>
      </trkpt>
      <trkpt lat="45.229" lon="5.7539">
        <ele>695</ele>
        <time>2014-08-24T18:14:29Z</time>
      </trkpt>
      <trkpt lat="45.22894" lon="5.75404">
        <ele>693.6</ele>
        <time>2014-08-24T18:14:31Z</time>
      </trkpt>
      <trkpt lat="45.22888" lon="5.75418">
        <ele>691.3</ele>
        <time>2014-08-24T18:14:33Z</time>
      </trkpt>
      <trkpt lat="45.22881" lon="5.75431">
        <ele>691.3</ele>
        <time>2014-08-24T18:14:35Z</time>
      </trkpt>
      <trkpt lat="45.22874" lon="5.75444">
        <ele>691.1</ele>
        <time>2014-08-24T18:14:37Z</time>
      </trkpt>
      <trkpt lat="45.22868" lon="5.75457">
        <ele>691.6</ele>
        <time>2014-08-24T18:14:39Z</time>
      </trkpt>
      <trkpt lat="45.22861" lon="5.75469">
        <ele>691.6</ele>
        <time>2014-08-24T18:14:41Z</time>
      </trkpt>
      <trkpt lat="45.22856" lon="5.75482">
        <ele>691.3</ele>
        <time>2014-08-24T18:14:43Z</time>
      </trkpt>
      <trkpt lat="45.22852" lon="5.75496">
        <ele>690.9</ele>
        <time>2014-08-24T18:14:45Z</time>
      </trkpt>
      <trkpt lat="45.22849" lon="5.7551">
        <ele>689.2</ele>
        <time>2014-08-24T18:14:47Z</time>
      </trkpt>
      <trkpt lat="45.22849" lon="5.75524">
        <ele>688.1</ele>
        <time>2014-08-24T18:14:49Z</time>
      </trkpt>
      <trkpt lat="45.22852" lon="5.75539">
        <ele>685.8</ele>
        <time>2014-08-24T18:14:52Z</time>
      </trkpt>
      <trkpt lat="45.22856" lon="5.75555">
        <ele>684.4</ele>
        <time>2014-08-24T18:14:54Z</time>
      </trkpt>
      <trkpt lat="45.22857" lon="5.75568">
        <ele>683.7</ele>
        <time>2014-08-24T18:14:56Z</time>
      </trkpt>
      <trkpt lat="45.22857" lon="5.75582">
        <ele>683.3</ele>
        <time>2014-08-24T18:14:58Z</time>
      </trkpt>
      <trkpt lat="45.22857" lon="5.75596">
        <ele>683.2</ele>
        <time>2014-08-24T18:15:00Z</time>
      </trkpt>
      <trkpt lat="45.22856" lon="5.75612">
        <ele>683.2</ele>
        <time>2014-08-24T18:15:02Z</time>
      </trkpt>
      <trkpt lat="45.22853" lon="5.75626">
        <ele>682.7</ele>
        <time>2014-08-24T18:15:04Z</time>
      </trkpt>
      <trkpt lat="45.22849" lon="5.75643">
        <ele>682.8</ele>
        <time>2014-08-24T18:15:06Z</time>
      </trkpt>
      <trkpt lat="45.22844" lon="5.75659">
        <ele>683.1</ele>
        <time>2014-08-24T18:15:08Z</time>
      </trkpt>
      <trkpt lat="45.22841" lon="5.75675">
        <ele>683.4</ele>
        <time>2014-08-24T18:15:10Z</time>
      </trkpt>
      <trkpt lat="45.22838" lon="5.7569">
        <ele>683.7</ele>
        <time>2014-08-24T18:15:12Z</time>
      </trkpt>
      <trkpt lat="45.2283" lon="5.75706">
        <ele>684</ele>
        <time>2014-08-24T18:15:15Z</time>
      </trkpt>
      <trkpt lat="45.22822" lon="5.75722">
        <ele>683.7</ele>
        <time>2014-08-24T18:15:17Z</time>
      </trkpt>
      <trkpt lat="45.22814" lon="5.75738">
        <ele>683.4</ele>
        <time>2014-08-24T18:15:19Z</time>
      </trkpt>
      <trkpt lat="45.22805" lon="5.75758">
        <ele>682.6</ele>
        <time>2014-08-24T18:15:21Z</time>
      </trkpt>
      <trkpt lat="45.22794" lon="5.75776">
        <ele>682</ele>
        <time>2014-08-24T18:15:23Z</time>
      </trkpt>
      <trkpt lat="45.22785" lon="5.75794">
        <ele>681.6</ele>
        <time>2014-08-24T18:15:25Z</time>
      </trkpt>
      <trkpt lat="45.22775" lon="5.75809">
        <ele>681.4</ele>
        <time>2014-08-24T18:15:27Z</time>
      </trkpt>
      <trkpt lat="45.22766" lon="5.75822">
        <ele>681.4</ele>
        <time>2014-08-24T18:15:29Z</time>
      </trkpt>
      <trkpt lat="45.22758" lon="5.75833">
        <ele>681.7</ele>
        <time>2014-08-24T18:15:31Z</time>
      </trkpt>
      <trkpt lat="45.2275" lon="5.75843">
        <ele>681.9</ele>
        <time>2014-08-24T18:15:33Z</time>
      </trkpt>
      <trkpt lat="45.22742" lon="5.75849">
        <ele>682.7</ele>
        <time>2014-08-24T18:15:36Z</time>
      </trkpt>
      <trkpt lat="45.22731" lon="5.75842">
        <ele>683.2</ele>
        <time>2014-08-24T18:15:42Z</time>
      </trkpt>
      <trkpt lat="45.22722" lon="5.75844">
        <ele>681.1</ele>
        <time>2014-08-24T18:15:45Z</time>
      </trkpt>
      <trkpt lat="45.22714" lon="5.75852">
        <ele>677.3</ele>
        <time>2014-08-24T18:15:49Z</time>
      </trkpt>
      <trkpt lat="45.22702" lon="5.75854">
        <ele>674.5</ele>
        <time>2014-08-24T18:15:52Z</time>
      </trkpt>
      <trkpt lat="45.22693" lon="5.75852">
        <ele>671.5</ele>
        <time>2014-08-24T18:15:54Z</time>
      </trkpt>
      <trkpt lat="45.22683" lon="5.75849">
        <ele>670.1</ele>
        <time>2014-08-24T18:15:56Z</time>
      </trkpt>
      <trkpt lat="45.22671" lon="5.75843">
        <ele>668.5</ele>
        <time>2014-08-24T18:15:58Z</time>
      </trkpt>
      <trkpt lat="45.2266" lon="5.75842">
        <ele>667.3</ele>
        <time>2014-08-24T18:16:00Z</time>
      </trkpt>
      <trkpt lat="45.22648" lon="5.75844">
        <ele>665.8</ele>
        <time>2014-08-24T18:16:02Z</time>
      </trkpt>
      <trkpt lat="45.22637" lon="5.75851">
        <ele>664.3</ele>
        <time>2014-08-24T18:16:04Z</time>
      </trkpt>
      <trkpt lat="45.22628" lon="5.75855">
        <ele>663.6</ele>
        <time>2014-08-24T18:16:06Z</time>
      </trkpt>
      <trkpt lat="45.22617" lon="5.75858">
        <ele>661.1</ele>
        <time>2014-08-24T18:16:08Z</time>
      </trkpt>
      <trkpt lat="45.22609" lon="5.75862">
        <ele>659.1</ele>
        <time>2014-08-24T18:16:10Z</time>
      </trkpt>
      <trkpt lat="45.226" lon="5.75867">
        <ele>656.8</ele>
        <time>2014-08-24T18:16:12Z</time>
      </trkpt>
      <trkpt lat="45.22591" lon="5.75875">
        <ele>654.4</ele>
        <time>2014-08-24T18:16:14Z</time>
      </trkpt>
      <trkpt lat="45.22584" lon="5.75885">
        <ele>652.3</ele>
        <time>2014-08-24T18:16:16Z</time>
      </trkpt>
      <trkpt lat="45.22578" lon="5.759">
        <ele>649.6</ele>
        <time>2014-08-24T18:16:19Z</time>
      </trkpt>
      <trkpt lat="45.22575" lon="5.75917">
        <ele>648</ele>
        <time>2014-08-24T18:16:22Z</time>
      </trkpt>
      <trkpt lat="45.22571" lon="5.75929">
        <ele>645.9</ele>
        <time>2014-08-24T18:16:25Z</time>
      </trkpt>
      <trkpt lat="45.22565" lon="5.75944">
        <ele>643.9</ele>
        <time>2014-08-24T18:16:29Z</time>
      </trkpt>
      <trkpt lat="45.2256" lon="5.75958">
        <ele>641.1</ele>
        <time>2014-08-24T18:16:33Z</time>
      </trkpt>
      <trkpt lat="45.22555" lon="5.75968">
        <ele>636.5</ele>
        <time>2014-08-24T18:16:36Z</time>
      </trkpt>
      <trkpt lat="45.2255" lon="5.7598">
        <ele>634</ele>
        <time>2014-08-24T18:16:39Z</time>
      </trkpt>
      <trkpt lat="45.22545" lon="5.75994">
        <ele>630.9</ele>
        <time>2014-08-24T18:16:42Z</time>
      </trkpt>
      <trkpt lat="45.22539" lon="5.76007">
        <ele>628.8</ele>
        <time>2014-08-24T18:16:45Z</time>
      </trkpt>
      <trkpt lat="45.22532" lon="5.76019">
        <ele>626.6</ele>
        <time>2014-08-24T18:16:48Z</time>
      </trkpt>
      <trkpt lat="45.22519" lon="5.76019">
        <ele>624</ele>
        <time>2014-08-24T18:16:51Z</time>
      </trkpt>
      <trkpt lat="45.22506" lon="5.76023">
        <ele>622.1</ele>
        <time>2014-08-24T18:16:53Z</time>
      </trkpt>
      <trkpt lat="45.22489" lon="5.76023">
        <ele>617.7</ele>
        <time>2014-08-24T18:16:55Z</time>
      </trkpt>
      <trkpt lat="45.22473" lon="5.76026">
        <ele>615.3</ele>
        <time>2014-08-24T18:16:57Z</time>
      </trkpt>
      <trkpt lat="45.2246" lon="5.7603">
        <ele>613.4</ele>
        <time>2014-08-24T18:16:59Z</time>
      </trkpt>
      <trkpt lat="45.22449" lon="5.76034">
        <ele>612.3</ele>
        <time>2014-08-24T18:17:01Z</time>
      </trkpt>
      <trkpt lat="45.22438" lon="5.76037">
        <ele>610</ele>
        <time>2014-08-24T18:17:03Z</time>
      </trkpt>
      <trkpt lat="45.22426" lon="5.76039">
        <ele>607.3</ele>
        <time>2014-08-24T18:17:05Z</time>
      </trkpt>
      <trkpt lat="45.22414" lon="5.76039">
        <ele>604.5</ele>
        <time>2014-08-24T18:17:07Z</time>
      </trkpt>
      <trkpt lat="45.22401" lon="5.76035">
        <ele>602</ele>
        <time>2014-08-24T18:17:09Z</time>
      </trkpt>
      <trkpt lat="45.22388" lon="5.7603">
        <ele>600.3</ele>
        <time>2014-08-24T18:17:11Z</time>
      </trkpt>
      <trkpt lat="45.22375" lon="5.76027">
        <ele>597.2</ele>
        <time>2014-08-24T18:17:13Z</time>
      </trkpt>
      <trkpt lat="45.2236" lon="5.76025">
        <ele>594.5</ele>
        <time>2014-08-24T18:17:15Z</time>
      </trkpt>
      <trkpt lat="45.22351" lon="5.76025">
        <ele>592.9</ele>
        <time>2014-08-24T18:17:16Z</time>
      </trkpt>
      <trkpt lat="45.22334" lon="5.76023">
        <ele>590.1</ele>
        <time>2014-08-24T18:17:18Z</time>
      </trkpt>
      <trkpt lat="45.22318" lon="5.76014">
        <ele>587.2</ele>
        <time>2014-08-24T18:17:20Z</time>
      </trkpt>
      <trkpt lat="45.22303" lon="5.76006">
        <ele>583.9</ele>
        <time>2014-08-24T18:17:22Z</time>
      </trkpt>
      <trkpt lat="45.2229" lon="5.75998">
        <ele>580.8</ele>
        <time>2014-08-24T18:17:24Z</time>
      </trkpt>
      <trkpt lat="45.22277" lon="5.75988">
        <ele>578.3</ele>
        <time>2014-08-24T18:17:26Z</time>
      </trkpt>
      <trkpt lat="45.22263" lon="5.75977">
        <ele>574.9</ele>
        <time>2014-08-24T18:17:28Z</time>
      </trkpt>
      <trkpt lat="45.22248" lon="5.75965">
        <ele>571.6</ele>
        <time>2014-08-24T18:17:30Z</time>
      </trkpt>
      <trkpt lat="45.22235" lon="5.75949">
        <ele>568.6</ele>
        <time>2014-08-24T18:17:32Z</time>
      </trkpt>
      <trkpt lat="45.22225" lon="5.75935">
        <ele>565.5</ele>
        <time>2014-08-24T18:17:34Z</time>
      </trkpt>
      <trkpt lat="45.22218" lon="5.75926">
        <ele>562.4</ele>
        <time>2014-08-24T18:17:36Z</time>
      </trkpt>
      <trkpt lat="45.22212" lon="5.75917">
        <ele>557.7</ele>
        <time>2014-08-24T18:17:40Z</time>
      </trkpt>
      <trkpt lat="45.22203" lon="5.75912">
        <ele>554.5</ele>
        <time>2014-08-24T18:17:45Z</time>
      </trkpt>
      <trkpt lat="45.22194" lon="5.75903">
        <ele>551</ele>
        <time>2014-08-24T18:17:48Z</time>
      </trkpt>
      <trkpt lat="45.22185" lon="5.75892">
        <ele>546.8</ele>
        <time>2014-08-24T18:17:51Z</time>
      </trkpt>
      <trkpt lat="45.22174" lon="5.75882">
        <ele>544.1</ele>
        <time>2014-08-24T18:17:54Z</time>
      </trkpt>
      <trkpt lat="45.22165" lon="5.75874">
        <ele>540.8</ele>
        <time>2014-08-24T18:17:56Z</time>
      </trkpt>
      <trkpt lat="45.22157" lon="5.75866">
        <ele>538.3</ele>
        <time>2014-08-24T18:17:58Z</time>
      </trkpt>
      <trkpt lat="45.22148" lon="5.75859">
        <ele>535.8</ele>
        <time>2014-08-24T18:18:00Z</time>
      </trkpt>
      <trkpt lat="45.22138" lon="5.75849">
        <ele>531.7</ele>
        <time>2014-08-24T18:18:03Z</time>
      </trkpt>
      <trkpt lat="45.22129" lon="5.75843">
        <ele>529.6</ele>
        <time>2014-08-24T18:18:05Z</time>
      </trkpt>
      <trkpt lat="45.22113" lon="5.75838">
        <ele>527.1</ele>
        <time>2014-08-24T18:18:07Z</time>
      </trkpt>
      <trkpt lat="45.22096" lon="5.75835">
        <ele>524.5</ele>
        <time>2014-08-24T18:18:09Z</time>
      </trkpt>
      <trkpt lat="45.22085" lon="5.75832">
        <ele>521.6</ele>
        <time>2014-08-24T18:18:11Z</time>
      </trkpt>
      <trkpt lat="45.22075" lon="5.75829">
        <ele>518.1</ele>
        <time>2014-08-24T18:18:15Z</time>
      </trkpt>
      <trkpt lat="45.22062" lon="5.75825">
        <ele>515.9</ele>
        <time>2014-08-24T18:18:19Z</time>
      </trkpt>
      <trkpt lat="45.22048" lon="5.7582">
        <ele>514</ele>
        <time>2014-08-24T18:18:21Z</time>
      </trkpt>
      <trkpt lat="45.22033" lon="5.7581">
        <ele>512</ele>
        <time>2014-08-24T18:18:23Z</time>
      </trkpt>
      <trkpt lat="45.22018" lon="5.758">
        <ele>509.8</ele>
        <time>2014-08-24T18:18:25Z</time>
      </trkpt>
      <trkpt lat="45.22005" lon="5.75795">
        <ele>506.9</ele>
        <time>2014-08-24T18:18:27Z</time>
      </trkpt>
      <trkpt lat="45.21988" lon="5.75789">
        <ele>504.2</ele>
        <time>2014-08-24T18:18:29Z</time>
      </trkpt>
      <trkpt lat="45.21972" lon="5.75781">
        <ele>501.6</ele>
        <time>2014-08-24T18:18:31Z</time>
      </trkpt>
      <trkpt lat="45.21957" lon="5.75768">
        <ele>498.2</ele>
        <time>2014-08-24T18:18:33Z</time>
      </trkpt>
      <trkpt lat="45.21945" lon="5.75755">
        <ele>495.3</ele>
        <time>2014-08-24T18:18:35Z</time>
      </trkpt>
      <trkpt lat="45.21935" lon="5.75742">
        <ele>493</ele>
        <time>2014-08-24T18:18:37Z</time>
      </trkpt>
      <trkpt lat="45.21927" lon="5.75734">
        <ele>489.3</ele>
        <time>2014-08-24T18:18:41Z</time>
      </trkpt>
      <trkpt lat="45.21917" lon="5.75724">
        <ele>486.3</ele>
        <time>2014-08-24T18:18:45Z</time>
      </trkpt>
      <trkpt lat="45.21905" lon="5.75712">
        <ele>482.3</ele>
        <time>2014-08-24T18:18:48Z</time>
      </trkpt>
      <trkpt lat="45.21896" lon="5.75703">
        <ele>479.7</ele>
        <time>2014-08-24T18:18:50Z</time>
      </trkpt>
      <trkpt lat="45.21885" lon="5.75693">
        <ele>477.4</ele>
        <time>2014-08-24T18:18:52Z</time>
      </trkpt>
      <trkpt lat="45.21876" lon="5.7568">
        <ele>475.2</ele>
        <time>2014-08-24T18:18:54Z</time>
      </trkpt>
      <trkpt lat="45.21868" lon="5.75669">
        <ele>473.1</ele>
        <time>2014-08-24T18:18:56Z</time>
      </trkpt>
      <trkpt lat="45.21861" lon="5.75655">
        <ele>471.4</ele>
        <time>2014-08-24T18:18:58Z</time>
      </trkpt>
      <trkpt lat="45.21855" lon="5.75638">
        <ele>469.4</ele>
        <time>2014-08-24T18:19:00Z</time>
      </trkpt>
      <trkpt lat="45.2185" lon="5.75624">
        <ele>467.3</ele>
        <time>2014-08-24T18:19:02Z</time>
      </trkpt>
      <trkpt lat="45.21845" lon="5.75609">
        <ele>465.4</ele>
        <time>2014-08-24T18:19:04Z</time>
      </trkpt>
      <trkpt lat="45.21841" lon="5.75593">
        <ele>462.3</ele>
        <time>2014-08-24T18:19:06Z</time>
      </trkpt>
      <trkpt lat="45.21838" lon="5.75578">
        <ele>459.7</ele>
        <time>2014-08-24T18:19:08Z</time>
      </trkpt>
      <trkpt lat="45.21834" lon="5.75565">
        <ele>458.5</ele>
        <time>2014-08-24T18:19:10Z</time>
      </trkpt>
      <trkpt lat="45.2183" lon="5.75552">
        <ele>456.1</ele>
        <time>2014-08-24T18:19:12Z</time>
      </trkpt>
      <trkpt lat="45.21824" lon="5.75537">
        <ele>452.5</ele>
        <time>2014-08-24T18:19:15Z</time>
      </trkpt>
      <trkpt lat="45.21819" lon="5.75524">
        <ele>449.7</ele>
        <time>2014-08-24T18:19:19Z</time>
      </trkpt>
      <trkpt lat="45.21812" lon="5.75517">
        <ele>445.6</ele>
        <time>2014-08-24T18:19:25Z</time>
      </trkpt>
      <trkpt lat="45.21801" lon="5.75512">
        <ele>444.1</ele>
        <time>2014-08-24T18:19:27Z</time>
      </trkpt>
      <trkpt lat="45.21788" lon="5.7551">
        <ele>441.9</ele>
        <time>2014-08-24T18:19:30Z</time>
      </trkpt>
      <trkpt lat="45.21779" lon="5.75509">
        <ele>439.1</ele>
        <time>2014-08-24T18:19:32Z</time>
      </trkpt>
      <trkpt lat="45.21769" lon="5.75508">
        <ele>438.6</ele>
        <time>2014-08-24T18:19:34Z</time>
      </trkpt>
      <trkpt lat="45.21759" lon="5.75509">
        <ele>436.5</ele>
        <time>2014-08-24T18:19:36Z</time>
      </trkpt>
      <trkpt lat="45.21746" lon="5.75512">
        <ele>434</ele>
        <time>2014-08-24T18:19:39Z</time>
      </trkpt>
      <trkpt lat="45.21734" lon="5.75513">
        <ele>429.2</ele>
        <time>2014-08-24T18:19:42Z</time>
      </trkpt>
      <trkpt lat="45.21721" lon="5.75515">
        <ele>427.2</ele>
        <time>2014-08-24T18:19:45Z</time>
      </trkpt>
      <trkpt lat="45.21712" lon="5.75514">
        <ele>426.2</ele>
        <time>2014-08-24T18:19:47Z</time>
      </trkpt>
      <trkpt lat="45.21701" lon="5.7551">
        <ele>424.3</ele>
        <time>2014-08-24T18:19:50Z</time>
      </trkpt>
      <trkpt lat="45.2169" lon="5.75503">
        <ele>421.2</ele>
        <time>2014-08-24T18:19:53Z</time>
      </trkpt>
      <trkpt lat="45.21683" lon="5.75493">
        <ele>418</ele>
        <time>2014-08-24T18:19:56Z</time>
      </trkpt>
      <trkpt lat="45.21678" lon="5.7548">
        <ele>414.1</ele>
        <time>2014-08-24T18:20:07Z</time>
      </trkpt>
      <trkpt lat="45.2167" lon="5.75471">
        <ele>410.6</ele>
        <time>2014-08-24T18:20:15Z</time>
      </trkpt>
      <trkpt lat="45.21662" lon="5.75463">
        <ele>410.1</ele>
        <time>2014-08-24T18:20:18Z</time>
      </trkpt>
      <trkpt lat="45.21651" lon="5.75453">
        <ele>407.6</ele>
        <time>2014-08-24T18:20:21Z</time>
      </trkpt>
      <trkpt lat="45.21639" lon="5.75449">
        <ele>406.5</ele>
        <time>2014-08-24T18:20:23Z</time>
      </trkpt>
      <trkpt lat="45.21629" lon="5.7545">
        <ele>404.7</ele>
        <time>2014-08-24T18:20:25Z</time>
      </trkpt>
      <trkpt lat="45.21618" lon="5.75449">
        <ele>402.9</ele>
        <time>2014-08-24T18:20:27Z</time>
      </trkpt>
      <trkpt lat="45.21607" lon="5.75443">
        <ele>399.5</ele>
        <time>2014-08-24T18:20:32Z</time>
      </trkpt>
      <trkpt lat="45.21598" lon="5.7544">
        <ele>398.6</ele>
        <time>2014-08-24T18:20:35Z</time>
      </trkpt>
      <trkpt lat="45.21588" lon="5.75432">
        <ele>397.7</ele>
        <time>2014-08-24T18:20:37Z</time>
      </trkpt>
      <trkpt lat="45.21576" lon="5.75422">
        <ele>396.8</ele>
        <time>2014-08-24T18:20:39Z</time>
      </trkpt>
      <trkpt lat="45.21563" lon="5.7541">
        <ele>395.8</ele>
        <time>2014-08-24T18:20:41Z</time>
      </trkpt>
      <trkpt lat="45.21548" lon="5.75402">
        <ele>394.8</ele>
        <time>2014-08-24T18:20:43Z</time>
      </trkpt>
      <trkpt lat="45.21532" lon="5.75395">
        <ele>393.6</ele>
        <time>2014-08-24T18:20:45Z</time>
      </trkpt>
      <trkpt lat="45.2152" lon="5.75389">
        <ele>392.2</ele>
        <time>2014-08-24T18:20:47Z</time>
      </trkpt>
      <trkpt lat="45.21509" lon="5.7538">
        <ele>391.3</ele>
        <time>2014-08-24T18:20:49Z</time>
      </trkpt>
      <trkpt lat="45.21497" lon="5.75366">
        <ele>390</ele>
        <time>2014-08-24T18:20:51Z</time>
      </trkpt>
      <trkpt lat="45.21484" lon="5.75353">
        <ele>388.6</ele>
        <time>2014-08-24T18:20:53Z</time>
      </trkpt>
      <trkpt lat="45.21469" lon="5.75342">
        <ele>387.2</ele>
        <time>2014-08-24T18:20:55Z</time>
      </trkpt>
      <trkpt lat="45.21452" lon="5.75333">
        <ele>385.7</ele>
        <time>2014-08-24T18:20:57Z</time>
      </trkpt>
      <trkpt lat="45.21443" lon="5.75328">
        <ele>384.8</ele>
        <time>2014-08-24T18:20:58Z</time>
      </trkpt>
      <trkpt lat="45.21434" lon="5.75323">
        <ele>383.6</ele>
        <time>2014-08-24T18:20:59Z</time>
      </trkpt>
      <trkpt lat="45.21426" lon="5.75319">
        <ele>382.6</ele>
        <time>2014-08-24T18:21:00Z</time>
      </trkpt>
      <trkpt lat="45.2141" lon="5.75312">
        <ele>380.4</ele>
        <time>2014-08-24T18:21:02Z</time>
      </trkpt>
      <trkpt lat="45.21394" lon="5.75305">
        <ele>377.3</ele>
        <time>2014-08-24T18:21:04Z</time>
      </trkpt>
      <trkpt lat="45.21378" lon="5.75297">
        <ele>375.1</ele>
        <time>2014-08-24T18:21:06Z</time>
      </trkpt>
      <trkpt lat="45.21363" lon="5.75285">
        <ele>372.7</ele>
        <time>2014-08-24T18:21:08Z</time>
      </trkpt>
      <trkpt lat="45.21355" lon="5.75277">
        <ele>371.6</ele>
        <time>2014-08-24T18:21:09Z</time>
      </trkpt>
      <trkpt lat="45.21347" lon="5.75269">
        <ele>370.2</ele>
        <time>2014-08-24T18:21:10Z</time>
      </trkpt>
      <trkpt lat="45.21339" lon="5.75261">
        <ele>368.9</ele>
        <time>2014-08-24T18:21:11Z</time>
      </trkpt>
      <trkpt lat="45.21331" lon="5.75252">
        <ele>367.2</ele>
        <time>2014-08-24T18:21:12Z</time>
      </trkpt>
      <trkpt lat="45.21315" lon="5.75236">
        <ele>364.4</ele>
        <time>2014-08-24T18:21:14Z</time>
      </trkpt>
      <trkpt lat="45.21302" lon="5.75228">
        <ele>361.5</ele>
        <time>2014-08-24T18:21:16Z</time>
      </trkpt>
      <trkpt lat="45.21291" lon="5.7522">
        <ele>358.6</ele>
        <time>2014-08-24T18:21:18Z</time>
      </trkpt>
      <trkpt lat="45.21281" lon="5.75202">
        <ele>355.8</ele>
        <time>2014-08-24T18:21:20Z</time>
      </trkpt>
      <trkpt lat="45.21276" lon="5.75191">
        <ele>354.2</ele>
        <time>2014-08-24T18:21:21Z</time>
      </trkpt>
      <trkpt lat="45.2127" lon="5.75179">
        <ele>352.9</ele>
        <time>2014-08-24T18:21:22Z</time>
      </trkpt>
      <trkpt lat="45.21264" lon="5.75167">
        <ele>351.5</ele>
        <time>2014-08-24T18:21:23Z</time>
      </trkpt>
      <trkpt lat="45.21255" lon="5.75155">
        <ele>349.9</ele>
        <time>2014-08-24T18:21:24Z</time>
      </trkpt>
      <trkpt lat="45.21247" lon="5.75148">
        <ele>348.3</ele>
        <time>2014-08-24T18:21:25Z</time>
      </trkpt>
      <trkpt lat="45.21238" lon="5.75142">
        <ele>347.1</ele>
        <time>2014-08-24T18:21:26Z</time>
      </trkpt>
      <trkpt lat="45.2123" lon="5.75136">
        <ele>345.7</ele>
        <time>2014-08-24T18:21:27Z</time>
      </trkpt>
      <trkpt lat="45.21217" lon="5.75124">
        <ele>342.5</ele>
        <time>2014-08-24T18:21:29Z</time>
      </trkpt>
      <trkpt lat="45.21211" lon="5.75114">
        <ele>341.1</ele>
        <time>2014-08-24T18:21:30Z</time>
      </trkpt>
      <trkpt lat="45.21205" lon="5.75101">
        <ele>339.3</ele>
        <time>2014-08-24T18:21:31Z</time>
      </trkpt>
      <trkpt lat="45.212" lon="5.75086">
        <ele>337.4</ele>
        <time>2014-08-24T18:21:32Z</time>
      </trkpt>
      <trkpt lat="45.21195" lon="5.75071">
        <ele>335.9</ele>
        <time>2014-08-24T18:21:33Z</time>
      </trkpt>
      <trkpt lat="45.2119" lon="5.75055">
        <ele>334.9</ele>
        <time>2014-08-24T18:21:34Z</time>
      </trkpt>
      <trkpt lat="45.21185" lon="5.75039">
        <ele>333.4</ele>
        <time>2014-08-24T18:21:35Z</time>
      </trkpt>
      <trkpt lat="45.21179" lon="5.75023">
        <ele>331.9</ele>
        <time>2014-08-24T18:21:36Z</time>
      </trkpt>
      <trkpt lat="45.21174" lon="5.75007">
        <ele>330.9</ele>
        <time>2014-08-24T18:21:37Z</time>
      </trkpt>
      <trkpt lat="45.21168" lon="5.74992">
        <ele>329.5</ele>
        <time>2014-08-24T18:21:38Z</time>
      </trkpt>
      <trkpt lat="45.21163" lon="5.74977">
        <ele>327.8</ele>
        <time>2014-08-24T18:21:39Z</time>
      </trkpt>
      <trkpt lat="45.21158" lon="5.74961">
        <ele>326.7</ele>
        <time>2014-08-24T18:21:40Z</time>
      </trkpt>
      <trkpt lat="45.21154" lon="5.74945">
        <ele>325.6</ele>
        <time>2014-08-24T18:21:41Z</time>
      </trkpt>
      <trkpt lat="45.21151" lon="5.74929">
        <ele>324.5</ele>
        <time>2014-08-24T18:21:42Z</time>
      </trkpt>
      <trkpt lat="45.21147" lon="5.74912">
        <ele>323.6</ele>
        <time>2014-08-24T18:21:43Z</time>
      </trkpt>
      <trkpt lat="45.21144" lon="5.74896">
        <ele>322.5</ele>
        <time>2014-08-24T18:21:44Z</time>
      </trkpt>
      <trkpt lat="45.21141" lon="5.74881">
        <ele>321.6</ele>
        <time>2014-08-24T18:21:45Z</time>
      </trkpt>
      <trkpt lat="45.21138" lon="5.74866">
        <ele>320.4</ele>
        <time>2014-08-24T18:21:46Z</time>
      </trkpt>
      <trkpt lat="45.21134" lon="5.74853">
        <ele>319.5</ele>
        <time>2014-08-24T18:21:47Z</time>
      </trkpt>
      <trkpt lat="45.21131" lon="5.74841">
        <ele>318.4</ele>
        <time>2014-08-24T18:21:48Z</time>
      </trkpt>
      <trkpt lat="45.21123" lon="5.7482">
        <ele>315.8</ele>
        <time>2014-08-24T18:21:50Z</time>
      </trkpt>
      <trkpt lat="45.2111" lon="5.74808">
        <ele>313.7</ele>
        <time>2014-08-24T18:21:52Z</time>
      </trkpt>
      <trkpt lat="45.21094" lon="5.74809">
        <ele>312</ele>
        <time>2014-08-24T18:21:54Z</time>
      </trkpt>
      <trkpt lat="45.21079" lon="5.7481">
        <ele>310.6</ele>
        <time>2014-08-24T18:21:56Z</time>
      </trkpt>
      <trkpt lat="45.21066" lon="5.74809">
        <ele>309</ele>
        <time>2014-08-24T18:21:58Z</time>
      </trkpt>
      <trkpt lat="45.21052" lon="5.7481">
        <ele>307.6</ele>
        <time>2014-08-24T18:22:00Z</time>
      </trkpt>
      <trkpt lat="45.21039" lon="5.74815">
        <ele>306.9</ele>
        <time>2014-08-24T18:22:02Z</time>
      </trkpt>
      <trkpt lat="45.21029" lon="5.74819">
        <ele>305.9</ele>
        <time>2014-08-24T18:22:04Z</time>
      </trkpt>
      <trkpt lat="45.21018" lon="5.74812">
        <ele>304.4</ele>
        <time>2014-08-24T18:22:06Z</time>
      </trkpt>
      <trkpt lat="45.21007" lon="5.74796">
        <ele>303.4</ele>
        <time>2014-08-24T18:22:08Z</time>
      </trkpt>
      <trkpt lat="45.20997" lon="5.74779">
        <ele>302.1</ele>
        <time>2014-08-24T18:22:10Z</time>
      </trkpt>
      <trkpt lat="45.20987" lon="5.74771">
        <ele>301.4</ele>
        <time>2014-08-24T18:22:12Z</time>
      </trkpt>
      <trkpt lat="45.20973" lon="5.74772">
        <ele>300</ele>
        <time>2014-08-24T18:22:14Z</time>
      </trkpt>
      <trkpt lat="45.20958" lon="5.74779">
        <ele>298.9</ele>
        <time>2014-08-24T18:22:16Z</time>
      </trkpt>
      <trkpt lat="45.20944" lon="5.74787">
        <ele>297.4</ele>
        <time>2014-08-24T18:22:18Z</time>
      </trkpt>
      <trkpt lat="45.2093" lon="5.74794">
        <ele>296.1</ele>
        <time>2014-08-24T18:22:20Z</time>
      </trkpt>
      <trkpt lat="45.20916" lon="5.74801">
        <ele>295</ele>
        <time>2014-08-24T18:22:22Z</time>
      </trkpt>
      <trkpt lat="45.20901" lon="5.74811">
        <ele>293.6</ele>
        <time>2014-08-24T18:22:24Z</time>
      </trkpt>
      <trkpt lat="45.2089" lon="5.74828">
        <ele>292.9</ele>
        <time>2014-08-24T18:22:26Z</time>
      </trkpt>
      <trkpt lat="45.20887" lon="5.74853">
        <ele>292.2</ele>
        <time>2014-08-24T18:22:28Z</time>
      </trkpt>
      <trkpt lat="45.20878" lon="5.74873">
        <ele>291.3</ele>
        <time>2014-08-24T18:22:30Z</time>
      </trkpt>
      <trkpt lat="45.20877" lon="5.74886">
        <ele>290.7</ele>
        <time>2014-08-24T18:22:31Z</time>
      </trkpt>
      <trkpt lat="45.20871" lon="5.74901">
        <ele>289.8</ele>
        <time>2014-08-24T18:22:33Z</time>
      </trkpt>
      <trkpt lat="45.20862" lon="5.74904">
        <ele>288.5</ele>
        <time>2014-08-24T18:22:36Z</time>
      </trkpt>
      <trkpt lat="45.20855" lon="5.74892">
        <ele>287.5</ele>
        <time>2014-08-24T18:22:39Z</time>
      </trkpt>
      <trkpt lat="45.20849" lon="5.74882">
        <ele>287.1</ele>
        <time>2014-08-24T18:22:41Z</time>
      </trkpt>
      <trkpt lat="45.2084" lon="5.74868">
        <ele>286.7</ele>
        <time>2014-08-24T18:22:43Z</time>
      </trkpt>
      <trkpt lat="45.20831" lon="5.74852">
        <ele>286.2</ele>
        <time>2014-08-24T18:22:45Z</time>
      </trkpt>
      <trkpt lat="45.20821" lon="5.74839">
        <ele>285.9</ele>
        <time>2014-08-24T18:22:47Z</time>
      </trkpt>
      <trkpt lat="45.2081" lon="5.74823">
        <ele>285.3</ele>
        <time>2014-08-24T18:22:49Z</time>
      </trkpt>
      <trkpt lat="45.20799" lon="5.74808">
        <ele>284.7</ele>
        <time>2014-08-24T18:22:51Z</time>
      </trkpt>
      <trkpt lat="45.20788" lon="5.74793">
        <ele>284.4</ele>
        <time>2014-08-24T18:22:53Z</time>
      </trkpt>
      <trkpt lat="45.20776" lon="5.74776">
        <ele>283.9</ele>
        <time>2014-08-24T18:22:55Z</time>
      </trkpt>
      <trkpt lat="45.20767" lon="5.74757">
        <ele>283.8</ele>
        <time>2014-08-24T18:22:57Z</time>
      </trkpt>
      <trkpt lat="45.2076" lon="5.74738">
        <ele>283.3</ele>
        <time>2014-08-24T18:22:59Z</time>
      </trkpt>
      <trkpt lat="45.20754" lon="5.74717">
        <ele>282.9</ele>
        <time>2014-08-24T18:23:01Z</time>
      </trkpt>
      <trkpt lat="45.20747" lon="5.74697">
        <ele>282.4</ele>
        <time>2014-08-24T18:23:03Z</time>
      </trkpt>
      <trkpt lat="45.2074" lon="5.74676">
        <ele>281.8</ele>
        <time>2014-08-24T18:23:05Z</time>
      </trkpt>
      <trkpt lat="45.20732" lon="5.74657">
        <ele>280.4</ele>
        <time>2014-08-24T18:23:07Z</time>
      </trkpt>
      <trkpt lat="45.20721" lon="5.74624">
        <ele>279</ele>
        <time>2014-08-24T18:23:10Z</time>
      </trkpt>
      <trkpt lat="45.20713" lon="5.74602">
        <ele>278.8</ele>
        <time>2014-08-24T18:23:13Z</time>
      </trkpt>
      <trkpt lat="45.20706" lon="5.74586">
        <ele>278.2</ele>
        <time>2014-08-24T18:23:15Z</time>
      </trkpt>
      <trkpt lat="45.20701" lon="5.74568">
        <ele>277.4</ele>
        <time>2014-08-24T18:23:17Z</time>
      </trkpt>
      <trkpt lat="45.20699" lon="5.74547">
        <ele>275.9</ele>
        <time>2014-08-24T18:23:19Z</time>
      </trkpt>
      <trkpt lat="45.20702" lon="5.74527">
        <ele>276</ele>
        <time>2014-08-24T18:23:21Z</time>
      </trkpt>
      <trkpt lat="45.20705" lon="5.74506">
        <ele>276</ele>
        <time>2014-08-24T18:23:23Z</time>
      </trkpt>
      <trkpt lat="45.20706" lon="5.74484">
        <ele>275.8</ele>
        <time>2014-08-24T18:23:25Z</time>
      </trkpt>
      <trkpt lat="45.20708" lon="5.7446">
        <ele>275.2</ele>
        <time>2014-08-24T18:23:27Z</time>
      </trkpt>
      <trkpt lat="45.20707" lon="5.74431">
        <ele>274</ele>
        <time>2014-08-24T18:23:29Z</time>
      </trkpt>
      <trkpt lat="45.20704" lon="5.74404">
        <ele>273.6</ele>
        <time>2014-08-24T18:23:32Z</time>
      </trkpt>
      <trkpt lat="45.20696" lon="5.74385">
        <ele>273.6</ele>
        <time>2014-08-24T18:23:34Z</time>
      </trkpt>
      <trkpt lat="45.20682" lon="5.74351">
        <ele>271</ele>
        <time>2014-08-24T18:23:37Z</time>
      </trkpt>
      <trkpt lat="45.20674" lon="5.74326">
        <ele>271.5</ele>
        <time>2014-08-24T18:23:40Z</time>
      </trkpt>
      <trkpt lat="45.20664" lon="5.74291">
        <ele>270</ele>
        <time>2014-08-24T18:23:43Z</time>
      </trkpt>
      <trkpt lat="45.20656" lon="5.74266">
        <ele>269.6</ele>
        <time>2014-08-24T18:23:46Z</time>
      </trkpt>
      <trkpt lat="45.20651" lon="5.74245">
        <ele>268.9</ele>
        <time>2014-08-24T18:23:48Z</time>
      </trkpt>
      <trkpt lat="45.20643" lon="5.74221">
        <ele>268</ele>
        <time>2014-08-24T18:23:50Z</time>
      </trkpt>
      <trkpt lat="45.20635" lon="5.74196">
        <ele>267.4</ele>
        <time>2014-08-24T18:23:53Z</time>
      </trkpt>
      <trkpt lat="45.20626" lon="5.74159">
        <ele>267</ele>
        <time>2014-08-24T18:23:56Z</time>
      </trkpt>
      <trkpt lat="45.20619" lon="5.74133">
        <ele>267.2</ele>
        <time>2014-08-24T18:23:59Z</time>
      </trkpt>
      <trkpt lat="45.20613" lon="5.74112">
        <ele>266.6</ele>
        <time>2014-08-24T18:24:01Z</time>
      </trkpt>
      <trkpt lat="45.20606" lon="5.74091">
        <ele>266</ele>
        <time>2014-08-24T18:24:03Z</time>
      </trkpt>
      <trkpt lat="45.206" lon="5.74071">
        <ele>265.8</ele>
        <time>2014-08-24T18:24:05Z</time>
      </trkpt>
      <trkpt lat="45.20595" lon="5.7405">
        <ele>265.4</ele>
        <time>2014-08-24T18:24:07Z</time>
      </trkpt>
      <trkpt lat="45.20589" lon="5.74029">
        <ele>264.9</ele>
        <time>2014-08-24T18:24:09Z</time>
      </trkpt>
      <trkpt lat="45.20583" lon="5.74009">
        <ele>264.6</ele>
        <time>2014-08-24T18:24:11Z</time>
      </trkpt>
      <trkpt lat="45.20577" lon="5.73991">
        <ele>264.1</ele>
        <time>2014-08-24T18:24:13Z</time>
      </trkpt>
      <trkpt lat="45.20571" lon="5.73972">
        <ele>263.9</ele>
        <time>2014-08-24T18:24:15Z</time>
      </trkpt>
      <trkpt lat="45.20566" lon="5.73953">
        <ele>263.7</ele>
        <time>2014-08-24T18:24:17Z</time>
      </trkpt>
      <trkpt lat="45.2056" lon="5.73935">
        <ele>263.3</ele>
        <time>2014-08-24T18:24:19Z</time>
      </trkpt>
      <trkpt lat="45.20555" lon="5.73919">
        <ele>262.7</ele>
        <time>2014-08-24T18:24:21Z</time>
      </trkpt>
      <trkpt lat="45.20551" lon="5.73904">
        <ele>262.4</ele>
        <time>2014-08-24T18:24:23Z</time>
      </trkpt>
      <trkpt lat="45.20544" lon="5.7389">
        <ele>261.8</ele>
        <time>2014-08-24T18:24:25Z</time>
      </trkpt>
      <trkpt lat="45.20536" lon="5.73878">
        <ele>261</ele>
        <time>2014-08-24T18:24:27Z</time>
      </trkpt>
      <trkpt lat="45.20526" lon="5.73866">
        <ele>260.5</ele>
        <time>2014-08-24T18:24:29Z</time>
      </trkpt>
      <trkpt lat="45.20513" lon="5.73853">
        <ele>259.4</ele>
        <time>2014-08-24T18:24:31Z</time>
      </trkpt>
      <trkpt lat="45.20504" lon="5.73835">
        <ele>258.6</ele>
        <time>2014-08-24T18:24:33Z</time>
      </trkpt>
      <trkpt lat="45.20498" lon="5.73825">
        <ele>258.1</ele>
        <time>2014-08-24T18:24:34Z</time>
      </trkpt>
      <trkpt lat="45.20491" lon="5.73816">
        <ele>257.7</ele>
        <time>2014-08-24T18:24:35Z</time>
      </trkpt>
      <trkpt lat="45.20484" lon="5.73807">
        <ele>257.5</ele>
        <time>2014-08-24T18:24:36Z</time>
      </trkpt>
      <trkpt lat="45.20477" lon="5.73799">
        <ele>256.8</ele>
        <time>2014-08-24T18:24:37Z</time>
      </trkpt>
      <trkpt lat="45.20469" lon="5.73791">
        <ele>256.2</ele>
        <time>2014-08-24T18:24:38Z</time>
      </trkpt>
      <trkpt lat="45.20462" lon="5.73782">
        <ele>255.7</ele>
        <time>2014-08-24T18:24:39Z</time>
      </trkpt>
      <trkpt lat="45.20455" lon="5.73774">
        <ele>255.1</ele>
        <time>2014-08-24T18:24:40Z</time>
      </trkpt>
      <trkpt lat="45.20448" lon="5.73765">
        <ele>254.7</ele>
        <time>2014-08-24T18:24:41Z</time>
      </trkpt>
      <trkpt lat="45.20441" lon="5.73756">
        <ele>254.3</ele>
        <time>2014-08-24T18:24:42Z</time>
      </trkpt>
      <trkpt lat="45.20434" lon="5.73748">
        <ele>254</ele>
        <time>2014-08-24T18:24:43Z</time>
      </trkpt>
      <trkpt lat="45.20427" lon="5.73739">
        <ele>253.6</ele>
        <time>2014-08-24T18:24:44Z</time>
      </trkpt>
      <trkpt lat="45.2042" lon="5.73731">
        <ele>253.2</ele>
        <time>2014-08-24T18:24:45Z</time>
      </trkpt>
      <trkpt lat="45.20407" lon="5.73714">
        <ele>252.6</ele>
        <time>2014-08-24T18:24:47Z</time>
      </trkpt>
      <trkpt lat="45.20394" lon="5.73697">
        <ele>251.9</ele>
        <time>2014-08-24T18:24:49Z</time>
      </trkpt>
      <trkpt lat="45.20382" lon="5.7368">
        <ele>251.1</ele>
        <time>2014-08-24T18:24:51Z</time>
      </trkpt>
      <trkpt lat="45.20369" lon="5.73663">
        <ele>250.5</ele>
        <time>2014-08-24T18:24:53Z</time>
      </trkpt>
      <trkpt lat="45.20357" lon="5.73646">
        <ele>250.1</ele>
        <time>2014-08-24T18:24:55Z</time>
      </trkpt>
      <trkpt lat="45.20346" lon="5.7363">
        <ele>249.6</ele>
        <time>2014-08-24T18:24:57Z</time>
      </trkpt>
      <trkpt lat="45.20334" lon="5.73614">
        <ele>249.3</ele>
        <time>2014-08-24T18:24:59Z</time>
      </trkpt>
      <trkpt lat="45.20323" lon="5.73595">
        <ele>248.9</ele>
        <time>2014-08-24T18:25:01Z</time>
      </trkpt>
      <trkpt lat="45.20312" lon="5.73579">
        <ele>248.5</ele>
        <time>2014-08-24T18:25:03Z</time>
      </trkpt>
      <trkpt lat="45.20299" lon="5.73563">
        <ele>247.6</ele>
        <time>2014-08-24T18:25:05Z</time>
      </trkpt>
      <trkpt lat="45.20286" lon="5.73548">
        <ele>246.7</ele>
        <time>2014-08-24T18:25:07Z</time>
      </trkpt>
      <trkpt lat="45.20273" lon="5.73532">
        <ele>245.9</ele>
        <time>2014-08-24T18:25:09Z</time>
      </trkpt>
      <trkpt lat="45.20259" lon="5.73514">
        <ele>245.1</ele>
        <time>2014-08-24T18:25:11Z</time>
      </trkpt>
      <trkpt lat="45.20254" lon="5.73504">
        <ele>244.8</ele>
        <time>2014-08-24T18:25:12Z</time>
      </trkpt>
      <trkpt lat="45.20248" lon="5.73493">
        <ele>244</ele>
        <time>2014-08-24T18:25:13Z</time>
      </trkpt>
      <trkpt lat="45.20243" lon="5.73483">
        <ele>243.6</ele>
        <time>2014-08-24T18:25:14Z</time>
      </trkpt>
      <trkpt lat="45.20236" lon="5.73473">
        <ele>243.4</ele>
        <time>2014-08-24T18:25:15Z</time>
      </trkpt>
      <trkpt lat="45.20224" lon="5.73455">
        <ele>242.8</ele>
        <time>2014-08-24T18:25:17Z</time>
      </trkpt>
      <trkpt lat="45.20217" lon="5.73446">
        <ele>242.6</ele>
        <time>2014-08-24T18:25:18Z</time>
      </trkpt>
      <trkpt lat="45.2021" lon="5.73437">
        <ele>242.5</ele>
        <time>2014-08-24T18:25:19Z</time>
      </trkpt>
      <trkpt lat="45.20203" lon="5.73429">
        <ele>242.3</ele>
        <time>2014-08-24T18:25:20Z</time>
      </trkpt>
      <trkpt lat="45.20189" lon="5.73415">
        <ele>242.1</ele>
        <time>2014-08-24T18:25:22Z</time>
      </trkpt>
      <trkpt lat="45.20174" lon="5.73405">
        <ele>242</ele>
        <time>2014-08-24T18:25:24Z</time>
      </trkpt>
      <trkpt lat="45.2016" lon="5.73398">
        <ele>241.4</ele>
        <time>2014-08-24T18:25:26Z</time>
      </trkpt>
      <trkpt lat="45.20145" lon="5.73391">
        <ele>241.3</ele>
        <time>2014-08-24T18:25:28Z</time>
      </trkpt>
      <trkpt lat="45.2013" lon="5.73384">
        <ele>241</ele>
        <time>2014-08-24T18:25:30Z</time>
      </trkpt>
      <trkpt lat="45.20114" lon="5.73376">
        <ele>240.8</ele>
        <time>2014-08-24T18:25:32Z</time>
      </trkpt>
      <trkpt lat="45.20099" lon="5.7337">
        <ele>240.4</ele>
        <time>2014-08-24T18:25:34Z</time>
      </trkpt>
      <trkpt lat="45.20083" lon="5.73364">
        <ele>240.6</ele>
        <time>2014-08-24T18:25:36Z</time>
      </trkpt>
      <trkpt lat="45.20069" lon="5.73358">
        <ele>240.4</ele>
        <time>2014-08-24T18:25:38Z</time>
      </trkpt>
      <trkpt lat="45.20054" lon="5.73352">
        <ele>240.6</ele>
        <time>2014-08-24T18:25:40Z</time>
      </trkpt>
      <trkpt lat="45.2004" lon="5.73345">
        <ele>241.2</ele>
        <time>2014-08-24T18:25:42Z</time>
      </trkpt>
      <trkpt lat="45.20026" lon="5.7334">
        <ele>241</ele>
        <time>2014-08-24T18:25:44Z</time>
      </trkpt>
      <trkpt lat="45.20012" lon="5.73335">
        <ele>241</ele>
        <time>2014-08-24T18:25:46Z</time>
      </trkpt>
      <trkpt lat="45.19999" lon="5.73329">
        <ele>241.1</ele>
        <time>2014-08-24T18:25:48Z</time>
      </trkpt>
      <trkpt lat="45.19986" lon="5.73323">
        <ele>241.3</ele>
        <time>2014-08-24T18:25:50Z</time>
      </trkpt>
      <trkpt lat="45.19974" lon="5.73318">
        <ele>241.5</ele>
        <time>2014-08-24T18:25:52Z</time>
      </trkpt>
      <trkpt lat="45.19961" lon="5.73312">
        <ele>241.7</ele>
        <time>2014-08-24T18:25:54Z</time>
      </trkpt>
      <trkpt lat="45.19948" lon="5.73307">
        <ele>242</ele>
        <time>2014-08-24T18:25:56Z</time>
      </trkpt>
      <trkpt lat="45.19936" lon="5.73301">
        <ele>242.1</ele>
        <time>2014-08-24T18:25:58Z</time>
      </trkpt>
      <trkpt lat="45.19924" lon="5.73296">
        <ele>242</ele>
        <time>2014-08-24T18:26:00Z</time>
      </trkpt>
      <trkpt lat="45.19911" lon="5.73291">
        <ele>242</ele>
        <time>2014-08-24T18:26:02Z</time>
      </trkpt>
      <trkpt lat="45.19899" lon="5.73287">
        <ele>242.2</ele>
        <time>2014-08-24T18:26:04Z</time>
      </trkpt>
      <trkpt lat="45.19887" lon="5.73282">
        <ele>242.2</ele>
        <time>2014-08-24T18:26:06Z</time>
      </trkpt>
      <trkpt lat="45.19874" lon="5.73279">
        <ele>242.2</ele>
        <time>2014-08-24T18:26:08Z</time>
      </trkpt>
      <trkpt lat="45.19862" lon="5.73276">
        <ele>242.2</ele>
        <time>2014-08-24T18:26:10Z</time>
      </trkpt>
      <trkpt lat="45.19849" lon="5.73272">
        <ele>241.9</ele>
        <time>2014-08-24T18:26:12Z</time>
      </trkpt>
      <trkpt lat="45.19837" lon="5.73269">
        <ele>241.9</ele>
        <time>2014-08-24T18:26:14Z</time>
      </trkpt>
      <trkpt lat="45.19824" lon="5.73265">
        <ele>241.7</ele>
        <time>2014-08-24T18:26:16Z</time>
      </trkpt>
      <trkpt lat="45.19812" lon="5.73262">
        <ele>241.4</ele>
        <time>2014-08-24T18:26:18Z</time>
      </trkpt>
      <trkpt lat="45.198" lon="5.73258">
        <ele>241.4</ele>
        <time>2014-08-24T18:26:20Z</time>
      </trkpt>
      <trkpt lat="45.19788" lon="5.73253">
        <ele>241.1</ele>
        <time>2014-08-24T18:26:22Z</time>
      </trkpt>
      <trkpt lat="45.19776" lon="5.73248">
        <ele>241.1</ele>
        <time>2014-08-24T18:26:24Z</time>
      </trkpt>
      <trkpt lat="45.19765" lon="5.73242">
        <ele>241.3</ele>
        <time>2014-08-24T18:26:26Z</time>
      </trkpt>
      <trkpt lat="45.19754" lon="5.73238">
        <ele>241.4</ele>
        <time>2014-08-24T18:26:28Z</time>
      </trkpt>
      <trkpt lat="45.19743" lon="5.73233">
        <ele>241.4</ele>
        <time>2014-08-24T18:26:30Z</time>
      </trkpt>
      <trkpt lat="45.19731" lon="5.73229">
        <ele>241.7</ele>
        <time>2014-08-24T18:26:32Z</time>
      </trkpt>
      <trkpt lat="45.19719" lon="5.73221">
        <ele>241.6</ele>
        <time>2014-08-24T18:26:34Z</time>
      </trkpt>
      <trkpt lat="45.19706" lon="5.73213">
        <ele>241.7</ele>
        <time>2014-08-24T18:26:36Z</time>
      </trkpt>
      <trkpt lat="45.19695" lon="5.73203">
        <ele>241.3</ele>
        <time>2014-08-24T18:26:38Z</time>
      </trkpt>
      <trkpt lat="45.19683" lon="5.73194">
        <ele>241.3</ele>
        <time>2014-08-24T18:26:40Z</time>
      </trkpt>
      <trkpt lat="45.19672" lon="5.73184">
        <ele>241.5</ele>
        <time>2014-08-24T18:26:42Z</time>
      </trkpt>
      <trkpt lat="45.19661" lon="5.73173">
        <ele>241.6</ele>
        <time>2014-08-24T18:26:44Z</time>
      </trkpt>
      <trkpt lat="45.19651" lon="5.73162">
        <ele>241.5</ele>
        <time>2014-08-24T18:26:46Z</time>
      </trkpt>
      <trkpt lat="45.1964" lon="5.73151">
        <ele>241.6</ele>
        <time>2014-08-24T18:26:48Z</time>
      </trkpt>
      <trkpt lat="45.19631" lon="5.73139">
        <ele>241.4</ele>
        <time>2014-08-24T18:26:50Z</time>
      </trkpt>
      <trkpt lat="45.19622" lon="5.73127">
        <ele>241.8</ele>
        <time>2014-08-24T18:26:52Z</time>
      </trkpt>
      <trkpt lat="45.19613" lon="5.73114">
        <ele>242</ele>
        <time>2014-08-24T18:26:54Z</time>
      </trkpt>
      <trkpt lat="45.19604" lon="5.73101">
        <ele>242.1</ele>
        <time>2014-08-24T18:26:56Z</time>
      </trkpt>
      <trkpt lat="45.19596" lon="5.73088">
        <ele>242.3</ele>
        <time>2014-08-24T18:26:58Z</time>
      </trkpt>
      <trkpt lat="45.19587" lon="5.73074">
        <ele>242.2</ele>
        <time>2014-08-24T18:27:00Z</time>
      </trkpt>
      <trkpt lat="45.19579" lon="5.73061">
        <ele>242.4</ele>
        <time>2014-08-24T18:27:02Z</time>
      </trkpt>
      <trkpt lat="45.19571" lon="5.73048">
        <ele>242.5</ele>
        <time>2014-08-24T18:27:04Z</time>
      </trkpt>
      <trkpt lat="45.19563" lon="5.73035">
        <ele>242.9</ele>
        <time>2014-08-24T18:27:06Z</time>
      </trkpt>
      <trkpt lat="45.19556" lon="5.73023">
        <ele>242.3</ele>
        <time>2014-08-24T18:27:08Z</time>
      </trkpt>
      <trkpt lat="45.19548" lon="5.7301">
        <ele>242.6</ele>
        <time>2014-08-24T18:27:10Z</time>
      </trkpt>
      <trkpt lat="45.1954" lon="5.72998">
        <ele>242.4</ele>
        <time>2014-08-24T18:27:12Z</time>
      </trkpt>
      <trkpt lat="45.19532" lon="5.72984">
        <ele>243</ele>
        <time>2014-08-24T18:27:14Z</time>
      </trkpt>
      <trkpt lat="45.19524" lon="5.72971">
        <ele>242.8</ele>
        <time>2014-08-24T18:27:16Z</time>
      </trkpt>
      <trkpt lat="45.19515" lon="5.72958">
        <ele>242.5</ele>
        <time>2014-08-24T18:27:18Z</time>
      </trkpt>
      <trkpt lat="45.19506" lon="5.72944">
        <ele>242.5</ele>
        <time>2014-08-24T18:27:20Z</time>
      </trkpt>
      <trkpt lat="45.19498" lon="5.7293">
        <ele>242.3</ele>
        <time>2014-08-24T18:27:22Z</time>
      </trkpt>
      <trkpt lat="45.19488" lon="5.72916">
        <ele>242.4</ele>
        <time>2014-08-24T18:27:24Z</time>
      </trkpt>
      <trkpt lat="45.19479" lon="5.72903">
        <ele>242.5</ele>
        <time>2014-08-24T18:27:26Z</time>
      </trkpt>
      <trkpt lat="45.1947" lon="5.7289">
        <ele>242</ele>
        <time>2014-08-24T18:27:28Z</time>
      </trkpt>
      <trkpt lat="45.19462" lon="5.72876">
        <ele>241.7</ele>
        <time>2014-08-24T18:27:30Z</time>
      </trkpt>
      <trkpt lat="45.19455" lon="5.72861">
        <ele>241.9</ele>
        <time>2014-08-24T18:27:32Z</time>
      </trkpt>
      <trkpt lat="45.1945" lon="5.72845">
        <ele>241.5</ele>
        <time>2014-08-24T18:27:34Z</time>
      </trkpt>
      <trkpt lat="45.19445" lon="5.72828">
        <ele>241.6</ele>
        <time>2014-08-24T18:27:36Z</time>
      </trkpt>
      <trkpt lat="45.1944" lon="5.72811">
        <ele>241.6</ele>
        <time>2014-08-24T18:27:38Z</time>
      </trkpt>
      <trkpt lat="45.19434" lon="5.72794">
        <ele>241.3</ele>
        <time>2014-08-24T18:27:40Z</time>
      </trkpt>
      <trkpt lat="45.1943" lon="5.72776">
        <ele>241</ele>
        <time>2014-08-24T18:27:42Z</time>
      </trkpt>
      <trkpt lat="45.19426" lon="5.72757">
        <ele>240.6</ele>
        <time>2014-08-24T18:27:44Z</time>
      </trkpt>
      <trkpt lat="45.19424" lon="5.72738">
        <ele>240.1</ele>
        <time>2014-08-24T18:27:46Z</time>
      </trkpt>
      <trkpt lat="45.1942" lon="5.72719">
        <ele>239.5</ele>
        <time>2014-08-24T18:27:48Z</time>
      </trkpt>
      <trkpt lat="45.19415" lon="5.72699">
        <ele>239.3</ele>
        <time>2014-08-24T18:27:50Z</time>
      </trkpt>
      <trkpt lat="45.1941" lon="5.72678">
        <ele>239</ele>
        <time>2014-08-24T18:27:52Z</time>
      </trkpt>
      <trkpt lat="45.19405" lon="5.72659">
        <ele>238.8</ele>
        <time>2014-08-24T18:27:54Z</time>
      </trkpt>
      <trkpt lat="45.194" lon="5.7264">
        <ele>238.6</ele>
        <time>2014-08-24T18:27:56Z</time>
      </trkpt>
      <trkpt lat="45.19397" lon="5.72622">
        <ele>238.3</ele>
        <time>2014-08-24T18:27:58Z</time>
      </trkpt>
      <trkpt lat="45.19394" lon="5.72603">
        <ele>238.3</ele>
        <time>2014-08-24T18:28:00Z</time>
      </trkpt>
      <trkpt lat="45.19391" lon="5.72586">
        <ele>238.2</ele>
        <time>2014-08-24T18:28:02Z</time>
      </trkpt>
      <trkpt lat="45.19388" lon="5.72569">
        <ele>238.1</ele>
        <time>2014-08-24T18:28:04Z</time>
      </trkpt>
      <trkpt lat="45.19384" lon="5.72553">
        <ele>238.3</ele>
        <time>2014-08-24T18:28:06Z</time>
      </trkpt>
      <trkpt lat="45.19381" lon="5.72537">
        <ele>238.5</ele>
        <time>2014-08-24T18:28:08Z</time>
      </trkpt>
      <trkpt lat="45.19378" lon="5.72523">
        <ele>239.1</ele>
        <time>2014-08-24T18:28:10Z</time>
      </trkpt>
      <trkpt lat="45.19377" lon="5.72509">
        <ele>239.4</ele>
        <time>2014-08-24T18:28:12Z</time>
      </trkpt>
      <trkpt lat="45.19374" lon="5.72494">
        <ele>240</ele>
        <time>2014-08-24T18:28:14Z</time>
      </trkpt>
      <trkpt lat="45.19371" lon="5.72479">
        <ele>240.6</ele>
        <time>2014-08-24T18:28:16Z</time>
      </trkpt>
      <trkpt lat="45.19367" lon="5.72465">
        <ele>240.6</ele>
        <time>2014-08-24T18:28:18Z</time>
      </trkpt>
      <trkpt lat="45.19363" lon="5.72451">
        <ele>241</ele>
        <time>2014-08-24T18:28:20Z</time>
      </trkpt>
      <trkpt lat="45.1936" lon="5.72438">
        <ele>241.5</ele>
        <time>2014-08-24T18:28:22Z</time>
      </trkpt>
      <trkpt lat="45.19357" lon="5.72424">
        <ele>242.1</ele>
        <time>2014-08-24T18:28:24Z</time>
      </trkpt>
      <trkpt lat="45.19355" lon="5.72411">
        <ele>242.2</ele>
        <time>2014-08-24T18:28:26Z</time>
      </trkpt>
      <trkpt lat="45.19349" lon="5.72396">
        <ele>242.6</ele>
        <time>2014-08-24T18:28:29Z</time>
      </trkpt>
      <trkpt lat="45.19339" lon="5.72392">
        <ele>244</ele>
        <time>2014-08-24T18:28:32Z</time>
      </trkpt>
      <trkpt lat="45.1933" lon="5.72394">
        <ele>244.3</ele>
        <time>2014-08-24T18:28:34Z</time>
      </trkpt>
      <trkpt lat="45.19321" lon="5.72397">
        <ele>244.5</ele>
        <time>2014-08-24T18:28:36Z</time>
      </trkpt>
      <trkpt lat="45.19312" lon="5.72399">
        <ele>244.6</ele>
        <time>2014-08-24T18:28:38Z</time>
      </trkpt>
      <trkpt lat="45.19303" lon="5.72402">
        <ele>245.2</ele>
        <time>2014-08-24T18:28:40Z</time>
      </trkpt>
      <trkpt lat="45.19293" lon="5.72404">
        <ele>245.3</ele>
        <time>2014-08-24T18:28:42Z</time>
      </trkpt>
      <trkpt lat="45.19283" lon="5.72407">
        <ele>245.8</ele>
        <time>2014-08-24T18:28:44Z</time>
      </trkpt>
      <trkpt lat="45.19271" lon="5.7241">
        <ele>245.2</ele>
        <time>2014-08-24T18:28:47Z</time>
      </trkpt>
      <trkpt lat="45.19266" lon="5.724">
        <ele>244.1</ele>
        <time>2014-08-24T18:28:50Z</time>
      </trkpt>
      <trkpt lat="45.19265" lon="5.72382">
        <ele>242.9</ele>
        <time>2014-08-24T18:28:53Z</time>
      </trkpt>
      <trkpt lat="45.19264" lon="5.72368">
        <ele>242</ele>
        <time>2014-08-24T18:28:55Z</time>
      </trkpt>
      <trkpt lat="45.19262" lon="5.72354">
        <ele>241.5</ele>
        <time>2014-08-24T18:28:57Z</time>
      </trkpt>
      <trkpt lat="45.1926" lon="5.72341">
        <ele>241.1</ele>
        <time>2014-08-24T18:28:59Z</time>
      </trkpt>
      <trkpt lat="45.19259" lon="5.72327">
        <ele>240.7</ele>
        <time>2014-08-24T18:29:01Z</time>
      </trkpt>
      <trkpt lat="45.19258" lon="5.72313">
        <ele>240.4</ele>
        <time>2014-08-24T18:29:03Z</time>
      </trkpt>
      <trkpt lat="45.19257" lon="5.723">
        <ele>240.3</ele>
        <time>2014-08-24T18:29:05Z</time>
      </trkpt>
      <trkpt lat="45.19256" lon="5.72285">
        <ele>240.2</ele>
        <time>2014-08-24T18:29:07Z</time>
      </trkpt>
      <trkpt lat="45.19254" lon="5.7227">
        <ele>240.1</ele>
        <time>2014-08-24T18:29:09Z</time>
      </trkpt>
      <trkpt lat="45.19253" lon="5.72254">
        <ele>240</ele>
        <time>2014-08-24T18:29:11Z</time>
      </trkpt>
      <trkpt lat="45.19252" lon="5.72239">
        <ele>239.9</ele>
        <time>2014-08-24T18:29:13Z</time>
      </trkpt>
      <trkpt lat="45.1925" lon="5.72223">
        <ele>239.9</ele>
        <time>2014-08-24T18:29:15Z</time>
      </trkpt>
      <trkpt lat="45.19248" lon="5.72207">
        <ele>239.8</ele>
        <time>2014-08-24T18:29:17Z</time>
      </trkpt>
      <trkpt lat="45.19246" lon="5.72192">
        <ele>239.6</ele>
        <time>2014-08-24T18:29:19Z</time>
      </trkpt>
      <trkpt lat="45.19245" lon="5.72178">
        <ele>239.6</ele>
        <time>2014-08-24T18:29:21Z</time>
      </trkpt>
      <trkpt lat="45.19244" lon="5.72164">
        <ele>239.9</ele>
        <time>2014-08-24T18:29:23Z</time>
      </trkpt>
      <trkpt lat="45.19242" lon="5.7215">
        <ele>239.9</ele>
        <time>2014-08-24T18:29:25Z</time>
      </trkpt>
      <trkpt lat="45.19241" lon="5.72137">
        <ele>239.8</ele>
        <time>2014-08-24T18:29:27Z</time>
      </trkpt>
      <trkpt lat="45.1924" lon="5.72123">
        <ele>239.6</ele>
        <time>2014-08-24T18:29:29Z</time>
      </trkpt>
      <trkpt lat="45.19238" lon="5.72111">
        <ele>239.5</ele>
        <time>2014-08-24T18:29:31Z</time>
      </trkpt>
      <trkpt lat="45.19236" lon="5.72093">
        <ele>239.5</ele>
        <time>2014-08-24T18:29:34Z</time>
      </trkpt>
      <trkpt lat="45.19234" lon="5.72078">
        <ele>240.1</ele>
        <time>2014-08-24T18:29:38Z</time>
      </trkpt>
      <trkpt lat="45.19233" lon="5.72064">
        <ele>240.6</ele>
        <time>2014-08-24T18:29:45Z</time>
      </trkpt>
      <trkpt lat="45.19233" lon="5.72048">
        <ele>240.9</ele>
        <time>2014-08-24T18:29:49Z</time>
      </trkpt>
      <trkpt lat="45.19231" lon="5.72029">
        <ele>241.5</ele>
        <time>2014-08-24T18:29:52Z</time>
      </trkpt>
      <trkpt lat="45.19231" lon="5.72011">
        <ele>241.6</ele>
        <time>2014-08-24T18:29:55Z</time>
      </trkpt>
      <trkpt lat="45.19233" lon="5.71992">
        <ele>241.3</ele>
        <time>2014-08-24T18:29:58Z</time>
      </trkpt>
      <trkpt lat="45.19235" lon="5.71976">
        <ele>240.9</ele>
        <time>2014-08-24T18:30:01Z</time>
      </trkpt>
      <trkpt lat="45.19226" lon="5.71974">
        <ele>240.8</ele>
        <time>2014-08-24T18:30:05Z</time>
      </trkpt>
      <trkpt lat="45.19215" lon="5.7197">
        <ele>240.4</ele>
        <time>2014-08-24T18:30:09Z</time>
      </trkpt>
      <trkpt lat="45.19212" lon="5.71957">
        <ele>240.2</ele>
        <time>2014-08-24T18:30:12Z</time>
      </trkpt>
      <trkpt lat="45.19209" lon="5.71942">
        <ele>240.1</ele>
        <time>2014-08-24T18:30:15Z</time>
      </trkpt>
      <trkpt lat="45.19207" lon="5.71923">
        <ele>239.9</ele>
        <time>2014-08-24T18:30:18Z</time>
      </trkpt>
      <trkpt lat="45.19203" lon="5.7191">
        <ele>239.8</ele>
        <time>2014-08-24T18:30:20Z</time>
      </trkpt>
      <trkpt lat="45.192" lon="5.71897">
        <ele>239.9</ele>
        <time>2014-08-24T18:30:22Z</time>
      </trkpt>
      <trkpt lat="45.19198" lon="5.71883">
        <ele>239.6</ele>
        <time>2014-08-24T18:30:24Z</time>
      </trkpt>
      <trkpt lat="45.19196" lon="5.71871">
        <ele>239.4</ele>
        <time>2014-08-24T18:30:26Z</time>
      </trkpt>
      <trkpt lat="45.19191" lon="5.7186">
        <ele>239.1</ele>
        <time>2014-08-24T18:30:28Z</time>
      </trkpt>
      <trkpt lat="45.19192" lon="5.71847">
        <ele>239</ele>
        <time>2014-08-24T18:30:31Z</time>
      </trkpt>
      <trkpt lat="45.19189" lon="5.71834">
        <ele>238.9</ele>
        <time>2014-08-24T18:30:34Z</time>
      </trkpt>
      <trkpt lat="45.19187" lon="5.71821">
        <ele>238.9</ele>
        <time>2014-08-24T18:30:36Z</time>
      </trkpt>
      <trkpt lat="45.19185" lon="5.71806">
        <ele>238.7</ele>
        <time>2014-08-24T18:30:38Z</time>
      </trkpt>
      <trkpt lat="45.19181" lon="5.71792">
        <ele>238.7</ele>
        <time>2014-08-24T18:30:40Z</time>
      </trkpt>
      <trkpt lat="45.19173" lon="5.71779">
        <ele>238.6</ele>
        <time>2014-08-24T18:30:42Z</time>
      </trkpt>
      <trkpt lat="45.19168" lon="5.71764">
        <ele>238.3</ele>
        <time>2014-08-24T18:30:45Z</time>
      </trkpt>
      <trkpt lat="45.19164" lon="5.71751">
        <ele>238.3</ele>
        <time>2014-08-24T18:30:47Z</time>
      </trkpt>
      <trkpt lat="45.19161" lon="5.71738">
        <ele>238.2</ele>
        <time>2014-08-24T18:30:49Z</time>
      </trkpt>
      <trkpt lat="45.19158" lon="5.71725">
        <ele>238.1</ele>
        <time>2014-08-24T18:30:51Z</time>
      </trkpt>
      <trkpt lat="45.19156" lon="5.7171">
        <ele>238.1</ele>
        <time>2014-08-24T18:30:53Z</time>
      </trkpt>
      <trkpt lat="45.19151" lon="5.71696">
        <ele>238.3</ele>
        <time>2014-08-24T18:30:55Z</time>
      </trkpt>
      <trkpt lat="45.19148" lon="5.71681">
        <ele>238.7</ele>
        <time>2014-08-24T18:30:57Z</time>
      </trkpt>
      <trkpt lat="45.19147" lon="5.71666">
        <ele>238.6</ele>
        <time>2014-08-24T18:30:59Z</time>
      </trkpt>
      <trkpt lat="45.19146" lon="5.71653">
        <ele>238.6</ele>
        <time>2014-08-24T18:31:01Z</time>
      </trkpt>
      <trkpt lat="45.19145" lon="5.71639">
        <ele>238.7</ele>
        <time>2014-08-24T18:31:03Z</time>
      </trkpt>
      <trkpt lat="45.19143" lon="5.71624">
        <ele>238.4</ele>
        <time>2014-08-24T18:31:05Z</time>
      </trkpt>
      <trkpt lat="45.19141" lon="5.7161">
        <ele>238.6</ele>
        <time>2014-08-24T18:31:07Z</time>
      </trkpt>
      <trkpt lat="45.19139" lon="5.71596">
        <ele>239</ele>
        <time>2014-08-24T18:31:09Z</time>
      </trkpt>
      <trkpt lat="45.19135" lon="5.71581">
        <ele>239.1</ele>
        <time>2014-08-24T18:31:11Z</time>
      </trkpt>
      <trkpt lat="45.19131" lon="5.71567">
        <ele>238.8</ele>
        <time>2014-08-24T18:31:13Z</time>
      </trkpt>
      <trkpt lat="45.19129" lon="5.71553">
        <ele>238.7</ele>
        <time>2014-08-24T18:31:15Z</time>
      </trkpt>
      <trkpt lat="45.19125" lon="5.71539">
        <ele>238.8</ele>
        <time>2014-08-24T18:31:19Z</time>
      </trkpt>
      <trkpt lat="45.19125" lon="5.71526">
        <ele>238.9</ele>
        <time>2014-08-24T18:31:23Z</time>
      </trkpt>
      <trkpt lat="45.19129" lon="5.71513">
        <ele>239.1</ele>
        <time>2014-08-24T18:31:26Z</time>
      </trkpt>
      <trkpt lat="45.19134" lon="5.71501">
        <ele>237.5</ele>
        <time>2014-08-24T18:31:29Z</time>
      </trkpt>
      <trkpt lat="45.19131" lon="5.71486">
        <ele>238.7</ele>
        <time>2014-08-24T18:31:34Z</time>
      </trkpt>
      <trkpt lat="45.19133" lon="5.71472">
        <ele>239.2</ele>
        <time>2014-08-24T18:31:38Z</time>
      </trkpt>
      <trkpt lat="45.19139" lon="5.71462">
        <ele>238.9</ele>
        <time>2014-08-24T18:31:52Z</time>
      </trkpt>
      <trkpt lat="45.19147" lon="5.71454">
        <ele>238.7</ele>
        <time>2014-08-24T18:32:55Z</time>
      </trkpt>
      <trkpt lat="45.19151" lon="5.71441">
        <ele>238.6</ele>
        <time>2014-08-24T18:33:12Z</time>
      </trkpt>
      <trkpt lat="45.19142" lon="5.71445">
        <ele>238.1</ele>
        <time>2014-08-24T18:33:19Z</time>
      </trkpt>
      <trkpt lat="45.1915" lon="5.71437">
        <ele>238.5</ele>
        <time>2014-08-24T18:33:36Z</time>
      </trkpt>
      <trkpt lat="45.19154" lon="5.71419">
        <ele>238.7</ele>
        <time>2014-08-24T18:33:38Z</time>
      </trkpt>
      <trkpt lat="45.19141" lon="5.71412">
        <ele>238.6</ele>
        <time>2014-08-24T18:33:40Z</time>
      </trkpt>
      <trkpt lat="45.19128" lon="5.71416">
        <ele>236.7</ele>
        <time>2014-08-24T18:34:06Z</time>
      </trkpt>
      <trkpt lat="45.19119" lon="5.71422">
        <ele>235.9</ele>
        <time>2014-08-24T18:34:12Z</time>
      </trkpt>
      <trkpt lat="45.19109" lon="5.7143">
        <ele>235.7</ele>
        <time>2014-08-24T18:34:15Z</time>
      </trkpt>
      <trkpt lat="45.19099" lon="5.71435">
        <ele>235.6</ele>
        <time>2014-08-24T18:34:17Z</time>
      </trkpt>
      <trkpt lat="45.19088" lon="5.71441">
        <ele>235.7</ele>
        <time>2014-08-24T18:34:19Z</time>
      </trkpt>
      <trkpt lat="45.19076" lon="5.71446">
        <ele>236.2</ele>
        <time>2014-08-24T18:34:21Z</time>
      </trkpt>
      <trkpt lat="45.19065" lon="5.71453">
        <ele>236.6</ele>
        <time>2014-08-24T18:34:23Z</time>
      </trkpt>
      <trkpt lat="45.19053" lon="5.71459">
        <ele>236.6</ele>
        <time>2014-08-24T18:34:25Z</time>
      </trkpt>
      <trkpt lat="45.1904" lon="5.71465">
        <ele>236.7</ele>
        <time>2014-08-24T18:34:27Z</time>
      </trkpt>
      <trkpt lat="45.19027" lon="5.7147">
        <ele>236.8</ele>
        <time>2014-08-24T18:34:29Z</time>
      </trkpt>
      <trkpt lat="45.19014" lon="5.71474">
        <ele>237</ele>
        <time>2014-08-24T18:34:31Z</time>
      </trkpt>
      <trkpt lat="45.19003" lon="5.7148">
        <ele>237.1</ele>
        <time>2014-08-24T18:34:33Z</time>
      </trkpt>
      <trkpt lat="45.1899" lon="5.71487">
        <ele>237.3</ele>
        <time>2014-08-24T18:34:35Z</time>
      </trkpt>
      <trkpt lat="45.18977" lon="5.71492">
        <ele>237.4</ele>
        <time>2014-08-24T18:34:37Z</time>
      </trkpt>
      <trkpt lat="45.18965" lon="5.71497">
        <ele>237.4</ele>
        <time>2014-08-24T18:34:39Z</time>
      </trkpt>
      <trkpt lat="45.18949" lon="5.71502">
        <ele>237.4</ele>
        <time>2014-08-24T18:34:41Z</time>
      </trkpt>
      <trkpt lat="45.18936" lon="5.71509">
        <ele>237.4</ele>
        <time>2014-08-24T18:34:43Z</time>
      </trkpt>
      <trkpt lat="45.18923" lon="5.71515">
        <ele>237.6</ele>
        <time>2014-08-24T18:34:45Z</time>
      </trkpt>
      <trkpt lat="45.18911" lon="5.7152">
        <ele>237.8</ele>
        <time>2014-08-24T18:34:47Z</time>
      </trkpt>
      <trkpt lat="45.18898" lon="5.71527">
        <ele>238</ele>
        <time>2014-08-24T18:34:49Z</time>
      </trkpt>
      <trkpt lat="45.18885" lon="5.71532">
        <ele>238.3</ele>
        <time>2014-08-24T18:34:51Z</time>
      </trkpt>
      <trkpt lat="45.18872" lon="5.71538">
        <ele>238.8</ele>
        <time>2014-08-24T18:34:53Z</time>
      </trkpt>
      <trkpt lat="45.18859" lon="5.71544">
        <ele>239.1</ele>
        <time>2014-08-24T18:34:55Z</time>
      </trkpt>
      <trkpt lat="45.18847" lon="5.71549">
        <ele>239.1</ele>
        <time>2014-08-24T18:34:57Z</time>
      </trkpt>
      <trkpt lat="45.18835" lon="5.71556">
        <ele>239.4</ele>
        <time>2014-08-24T18:34:59Z</time>
      </trkpt>
      <trkpt lat="45.18822" lon="5.71562">
        <ele>239.6</ele>
        <time>2014-08-24T18:35:01Z</time>
      </trkpt>
      <trkpt lat="45.18808" lon="5.71566">
        <ele>239.7</ele>
        <time>2014-08-24T18:35:03Z</time>
      </trkpt>
      <trkpt lat="45.18794" lon="5.71571">
        <ele>240.1</ele>
        <time>2014-08-24T18:35:05Z</time>
      </trkpt>
      <trkpt lat="45.18778" lon="5.71577">
        <ele>240.3</ele>
        <time>2014-08-24T18:35:07Z</time>
      </trkpt>
      <trkpt lat="45.18762" lon="5.71583">
        <ele>240.2</ele>
        <time>2014-08-24T18:35:09Z</time>
      </trkpt>
      <trkpt lat="45.18747" lon="5.7159">
        <ele>240.4</ele>
        <time>2014-08-24T18:35:11Z</time>
      </trkpt>
      <trkpt lat="45.18731" lon="5.71595">
        <ele>240.5</ele>
        <time>2014-08-24T18:35:13Z</time>
      </trkpt>
      <trkpt lat="45.18717" lon="5.71601">
        <ele>240.7</ele>
        <time>2014-08-24T18:35:15Z</time>
      </trkpt>
      <trkpt lat="45.18702" lon="5.71608">
        <ele>240.7</ele>
        <time>2014-08-24T18:35:17Z</time>
      </trkpt>
      <trkpt lat="45.18687" lon="5.71616">
        <ele>240.9</ele>
        <time>2014-08-24T18:35:19Z</time>
      </trkpt>
      <trkpt lat="45.18671" lon="5.71623">
        <ele>241.1</ele>
        <time>2014-08-24T18:35:21Z</time>
      </trkpt>
      <trkpt lat="45.18656" lon="5.7163">
        <ele>241.1</ele>
        <time>2014-08-24T18:35:23Z</time>
      </trkpt>
      <trkpt lat="45.18642" lon="5.71638">
        <ele>241.4</ele>
        <time>2014-08-24T18:35:25Z</time>
      </trkpt>
      <trkpt lat="45.18628" lon="5.71645">
        <ele>241.8</ele>
        <time>2014-08-24T18:35:27Z</time>
      </trkpt>
      <trkpt lat="45.18615" lon="5.71652">
        <ele>242.7</ele>
        <time>2014-08-24T18:35:29Z</time>
      </trkpt>
      <trkpt lat="45.18601" lon="5.71657">
        <ele>242.9</ele>
        <time>2014-08-24T18:35:31Z</time>
      </trkpt>
      <trkpt lat="45.18588" lon="5.71663">
        <ele>242.9</ele>
        <time>2014-08-24T18:35:33Z</time>
      </trkpt>
      <trkpt lat="45.18575" lon="5.7167">
        <ele>242.9</ele>
        <time>2014-08-24T18:35:35Z</time>
      </trkpt>
      <trkpt lat="45.18562" lon="5.71677">
        <ele>243.1</ele>
        <time>2014-08-24T18:35:37Z</time>
      </trkpt>
      <trkpt lat="45.18555" lon="5.71681">
        <ele>244.4</ele>
        <time>2014-08-24T18:35:38Z</time>
      </trkpt>
    </trkseg>
  </trk>
</gpx>